<?xml version="1.0" encoding="UTF-8" standalone="no" ?>
<gpx xmlns="http://www.topografix.com/GPX/1/1" xmlns:xsi="http://www.w3.org/2001/XMLSchema-instance" xsi:schemaLocation="http://www.topografix.com/GPX/1/1 http://www.topografix.com/GPX/1/1/gpx.xsd" version="1.1" creator="VisuGPX - https://www.visugpx.com">
  <metadata>
    <name>11/12/11</name>
    <desc><![CDATA[Marche Club]]></desc>
  </metadata>
  <trk>
    <name><![CDATA[11/12/11_1]]></name>
    <trkseg>
      <trkpt lat="47.01702" lon="-1.067">
        <ele>104</ele>
        <time>2011-12-11T07:37:57Z</time>
      </trkpt>
      <trkpt lat="47.01677" lon="-1.06686">
        <ele>104</ele>
        <time>2011-12-11T07:38:42Z</time>
      </trkpt>
      <trkpt lat="47.01675" lon="-1.06685">
        <ele>103</ele>
        <time>2011-12-11T07:38:44Z</time>
      </trkpt>
      <trkpt lat="47.01673" lon="-1.06684">
        <ele>103</ele>
        <time>2011-12-11T07:38:46Z</time>
      </trkpt>
      <trkpt lat="47.01671" lon="-1.06683">
        <ele>103</ele>
        <time>2011-12-11T07:38:48Z</time>
      </trkpt>
      <trkpt lat="47.0167" lon="-1.06683">
        <ele>103</ele>
        <time>2011-12-11T07:38:49Z</time>
      </trkpt>
      <trkpt lat="47.01668" lon="-1.06681">
        <ele>103</ele>
        <time>2011-12-11T07:38:51Z</time>
      </trkpt>
      <trkpt lat="47.01667" lon="-1.06678">
        <ele>103</ele>
        <time>2011-12-11T07:38:53Z</time>
      </trkpt>
      <trkpt lat="47.01667" lon="-1.06677">
        <ele>102</ele>
        <time>2011-12-11T07:38:54Z</time>
      </trkpt>
      <trkpt lat="47.01667" lon="-1.06675">
        <ele>102</ele>
        <time>2011-12-11T07:38:55Z</time>
      </trkpt>
      <trkpt lat="47.01667" lon="-1.06673">
        <ele>102</ele>
        <time>2011-12-11T07:38:56Z</time>
      </trkpt>
      <trkpt lat="47.01667" lon="-1.06671">
        <ele>102</ele>
        <time>2011-12-11T07:38:57Z</time>
      </trkpt>
      <trkpt lat="47.01668" lon="-1.06669">
        <ele>102</ele>
        <time>2011-12-11T07:38:58Z</time>
      </trkpt>
      <trkpt lat="47.01668" lon="-1.06668">
        <ele>102</ele>
        <time>2011-12-11T07:38:59Z</time>
      </trkpt>
      <trkpt lat="47.01669" lon="-1.06666">
        <ele>102</ele>
        <time>2011-12-11T07:39:00Z</time>
      </trkpt>
      <trkpt lat="47.01669" lon="-1.06664">
        <ele>102</ele>
        <time>2011-12-11T07:39:01Z</time>
      </trkpt>
      <trkpt lat="47.0167" lon="-1.06662">
        <ele>102</ele>
        <time>2011-12-11T07:39:02Z</time>
      </trkpt>
      <trkpt lat="47.0167" lon="-1.06661">
        <ele>102</ele>
        <time>2011-12-11T07:39:03Z</time>
      </trkpt>
      <trkpt lat="47.0167" lon="-1.06659">
        <ele>102</ele>
        <time>2011-12-11T07:39:04Z</time>
      </trkpt>
      <trkpt lat="47.01671" lon="-1.06657">
        <ele>102</ele>
        <time>2011-12-11T07:39:05Z</time>
      </trkpt>
      <trkpt lat="47.01671" lon="-1.06656">
        <ele>102</ele>
        <time>2011-12-11T07:39:06Z</time>
      </trkpt>
      <trkpt lat="47.01672" lon="-1.06654">
        <ele>102</ele>
        <time>2011-12-11T07:39:07Z</time>
      </trkpt>
      <trkpt lat="47.01672" lon="-1.06652">
        <ele>102</ele>
        <time>2011-12-11T07:39:08Z</time>
      </trkpt>
      <trkpt lat="47.01672" lon="-1.0665">
        <ele>102</ele>
        <time>2011-12-11T07:39:09Z</time>
      </trkpt>
      <trkpt lat="47.01673" lon="-1.06649">
        <ele>102</ele>
        <time>2011-12-11T07:39:10Z</time>
      </trkpt>
      <trkpt lat="47.01673" lon="-1.06647">
        <ele>102</ele>
        <time>2011-12-11T07:39:11Z</time>
      </trkpt>
      <trkpt lat="47.01673" lon="-1.06646">
        <ele>102</ele>
        <time>2011-12-11T07:39:12Z</time>
      </trkpt>
      <trkpt lat="47.01674" lon="-1.06644">
        <ele>102</ele>
        <time>2011-12-11T07:39:13Z</time>
      </trkpt>
      <trkpt lat="47.01674" lon="-1.06642">
        <ele>102</ele>
        <time>2011-12-11T07:39:14Z</time>
      </trkpt>
      <trkpt lat="47.01674" lon="-1.06641">
        <ele>102</ele>
        <time>2011-12-11T07:39:15Z</time>
      </trkpt>
      <trkpt lat="47.01675" lon="-1.06639">
        <ele>102</ele>
        <time>2011-12-11T07:39:16Z</time>
      </trkpt>
      <trkpt lat="47.01675" lon="-1.06637">
        <ele>102</ele>
        <time>2011-12-11T07:39:17Z</time>
      </trkpt>
      <trkpt lat="47.01676" lon="-1.06635">
        <ele>102</ele>
        <time>2011-12-11T07:39:18Z</time>
      </trkpt>
      <trkpt lat="47.01676" lon="-1.06634">
        <ele>102</ele>
        <time>2011-12-11T07:39:19Z</time>
      </trkpt>
      <trkpt lat="47.01676" lon="-1.06632">
        <ele>102</ele>
        <time>2011-12-11T07:39:20Z</time>
      </trkpt>
      <trkpt lat="47.01677" lon="-1.0663">
        <ele>102</ele>
        <time>2011-12-11T07:39:21Z</time>
      </trkpt>
      <trkpt lat="47.01677" lon="-1.06628">
        <ele>102</ele>
        <time>2011-12-11T07:39:22Z</time>
      </trkpt>
      <trkpt lat="47.01677" lon="-1.06626">
        <ele>102</ele>
        <time>2011-12-11T07:39:23Z</time>
      </trkpt>
      <trkpt lat="47.01678" lon="-1.06625">
        <ele>102</ele>
        <time>2011-12-11T07:39:24Z</time>
      </trkpt>
      <trkpt lat="47.01678" lon="-1.06623">
        <ele>102</ele>
        <time>2011-12-11T07:39:25Z</time>
      </trkpt>
      <trkpt lat="47.01679" lon="-1.06622">
        <ele>102</ele>
        <time>2011-12-11T07:39:26Z</time>
      </trkpt>
      <trkpt lat="47.01679" lon="-1.0662">
        <ele>102</ele>
        <time>2011-12-11T07:39:27Z</time>
      </trkpt>
      <trkpt lat="47.0168" lon="-1.06618">
        <ele>102</ele>
        <time>2011-12-11T07:39:28Z</time>
      </trkpt>
      <trkpt lat="47.0168" lon="-1.06616">
        <ele>102</ele>
        <time>2011-12-11T07:39:29Z</time>
      </trkpt>
      <trkpt lat="47.0168" lon="-1.06615">
        <ele>102</ele>
        <time>2011-12-11T07:39:30Z</time>
      </trkpt>
      <trkpt lat="47.01681" lon="-1.06613">
        <ele>102</ele>
        <time>2011-12-11T07:39:31Z</time>
      </trkpt>
      <trkpt lat="47.01682" lon="-1.06611">
        <ele>102</ele>
        <time>2011-12-11T07:39:32Z</time>
      </trkpt>
      <trkpt lat="47.01682" lon="-1.0661">
        <ele>102</ele>
        <time>2011-12-11T07:39:33Z</time>
      </trkpt>
      <trkpt lat="47.01683" lon="-1.06608">
        <ele>102</ele>
        <time>2011-12-11T07:39:34Z</time>
      </trkpt>
      <trkpt lat="47.01683" lon="-1.06606">
        <ele>102</ele>
        <time>2011-12-11T07:39:35Z</time>
      </trkpt>
      <trkpt lat="47.01684" lon="-1.06605">
        <ele>102</ele>
        <time>2011-12-11T07:39:36Z</time>
      </trkpt>
      <trkpt lat="47.01684" lon="-1.06603">
        <ele>102</ele>
        <time>2011-12-11T07:39:37Z</time>
      </trkpt>
      <trkpt lat="47.01685" lon="-1.06601">
        <ele>102</ele>
        <time>2011-12-11T07:39:38Z</time>
      </trkpt>
      <trkpt lat="47.01685" lon="-1.066">
        <ele>102</ele>
        <time>2011-12-11T07:39:39Z</time>
      </trkpt>
      <trkpt lat="47.01686" lon="-1.06598">
        <ele>102</ele>
        <time>2011-12-11T07:39:40Z</time>
      </trkpt>
      <trkpt lat="47.01686" lon="-1.06597">
        <ele>102</ele>
        <time>2011-12-11T07:39:41Z</time>
      </trkpt>
      <trkpt lat="47.01687" lon="-1.06595">
        <ele>102</ele>
        <time>2011-12-11T07:39:42Z</time>
      </trkpt>
      <trkpt lat="47.01687" lon="-1.06593">
        <ele>102</ele>
        <time>2011-12-11T07:39:43Z</time>
      </trkpt>
      <trkpt lat="47.01687" lon="-1.06591">
        <ele>102</ele>
        <time>2011-12-11T07:39:44Z</time>
      </trkpt>
      <trkpt lat="47.01688" lon="-1.06589">
        <ele>102</ele>
        <time>2011-12-11T07:39:45Z</time>
      </trkpt>
      <trkpt lat="47.01688" lon="-1.06588">
        <ele>102</ele>
        <time>2011-12-11T07:39:46Z</time>
      </trkpt>
      <trkpt lat="47.01689" lon="-1.06586">
        <ele>102</ele>
        <time>2011-12-11T07:39:47Z</time>
      </trkpt>
      <trkpt lat="47.0169" lon="-1.06585">
        <ele>102</ele>
        <time>2011-12-11T07:39:48Z</time>
      </trkpt>
      <trkpt lat="47.0169" lon="-1.06583">
        <ele>102</ele>
        <time>2011-12-11T07:39:49Z</time>
      </trkpt>
      <trkpt lat="47.0169" lon="-1.06581">
        <ele>102</ele>
        <time>2011-12-11T07:39:50Z</time>
      </trkpt>
      <trkpt lat="47.01691" lon="-1.06579">
        <ele>102</ele>
        <time>2011-12-11T07:39:51Z</time>
      </trkpt>
      <trkpt lat="47.01691" lon="-1.06578">
        <ele>102</ele>
        <time>2011-12-11T07:39:52Z</time>
      </trkpt>
      <trkpt lat="47.01691" lon="-1.06576">
        <ele>102</ele>
        <time>2011-12-11T07:39:53Z</time>
      </trkpt>
      <trkpt lat="47.01692" lon="-1.06574">
        <ele>102</ele>
        <time>2011-12-11T07:39:54Z</time>
      </trkpt>
      <trkpt lat="47.01692" lon="-1.06573">
        <ele>102</ele>
        <time>2011-12-11T07:39:55Z</time>
      </trkpt>
      <trkpt lat="47.01693" lon="-1.06571">
        <ele>102</ele>
        <time>2011-12-11T07:39:56Z</time>
      </trkpt>
      <trkpt lat="47.01693" lon="-1.06569">
        <ele>102</ele>
        <time>2011-12-11T07:39:57Z</time>
      </trkpt>
      <trkpt lat="47.01693" lon="-1.06568">
        <ele>102</ele>
        <time>2011-12-11T07:39:58Z</time>
      </trkpt>
      <trkpt lat="47.01694" lon="-1.06566">
        <ele>102</ele>
        <time>2011-12-11T07:39:59Z</time>
      </trkpt>
      <trkpt lat="47.01694" lon="-1.06564">
        <ele>102</ele>
        <time>2011-12-11T07:40:00Z</time>
      </trkpt>
      <trkpt lat="47.01694" lon="-1.06562">
        <ele>101</ele>
        <time>2011-12-11T07:40:01Z</time>
      </trkpt>
      <trkpt lat="47.01695" lon="-1.0656">
        <ele>101</ele>
        <time>2011-12-11T07:40:02Z</time>
      </trkpt>
      <trkpt lat="47.01695" lon="-1.06558">
        <ele>101</ele>
        <time>2011-12-11T07:40:03Z</time>
      </trkpt>
      <trkpt lat="47.01696" lon="-1.06556">
        <ele>101</ele>
        <time>2011-12-11T07:40:04Z</time>
      </trkpt>
      <trkpt lat="47.01696" lon="-1.06555">
        <ele>101</ele>
        <time>2011-12-11T07:40:05Z</time>
      </trkpt>
      <trkpt lat="47.01696" lon="-1.06553">
        <ele>101</ele>
        <time>2011-12-11T07:40:06Z</time>
      </trkpt>
      <trkpt lat="47.01697" lon="-1.06551">
        <ele>101</ele>
        <time>2011-12-11T07:40:07Z</time>
      </trkpt>
      <trkpt lat="47.01697" lon="-1.06549">
        <ele>101</ele>
        <time>2011-12-11T07:40:08Z</time>
      </trkpt>
      <trkpt lat="47.01698" lon="-1.06547">
        <ele>101</ele>
        <time>2011-12-11T07:40:09Z</time>
      </trkpt>
      <trkpt lat="47.01699" lon="-1.06546">
        <ele>101</ele>
        <time>2011-12-11T07:40:10Z</time>
      </trkpt>
      <trkpt lat="47.01699" lon="-1.06544">
        <ele>101</ele>
        <time>2011-12-11T07:40:11Z</time>
      </trkpt>
      <trkpt lat="47.01699" lon="-1.06542">
        <ele>101</ele>
        <time>2011-12-11T07:40:12Z</time>
      </trkpt>
      <trkpt lat="47.017" lon="-1.0654">
        <ele>101</ele>
        <time>2011-12-11T07:40:13Z</time>
      </trkpt>
      <trkpt lat="47.017" lon="-1.06538">
        <ele>101</ele>
        <time>2011-12-11T07:40:14Z</time>
      </trkpt>
      <trkpt lat="47.01701" lon="-1.06537">
        <ele>101</ele>
        <time>2011-12-11T07:40:15Z</time>
      </trkpt>
      <trkpt lat="47.01701" lon="-1.06535">
        <ele>101</ele>
        <time>2011-12-11T07:40:16Z</time>
      </trkpt>
      <trkpt lat="47.01701" lon="-1.06533">
        <ele>101</ele>
        <time>2011-12-11T07:40:17Z</time>
      </trkpt>
      <trkpt lat="47.01702" lon="-1.06531">
        <ele>101</ele>
        <time>2011-12-11T07:40:18Z</time>
      </trkpt>
      <trkpt lat="47.01702" lon="-1.06529">
        <ele>101</ele>
        <time>2011-12-11T07:40:19Z</time>
      </trkpt>
      <trkpt lat="47.01702" lon="-1.06528">
        <ele>101</ele>
        <time>2011-12-11T07:40:20Z</time>
      </trkpt>
      <trkpt lat="47.01703" lon="-1.06526">
        <ele>101</ele>
        <time>2011-12-11T07:40:21Z</time>
      </trkpt>
      <trkpt lat="47.01703" lon="-1.06524">
        <ele>101</ele>
        <time>2011-12-11T07:40:22Z</time>
      </trkpt>
      <trkpt lat="47.01704" lon="-1.06523">
        <ele>101</ele>
        <time>2011-12-11T07:40:23Z</time>
      </trkpt>
      <trkpt lat="47.01704" lon="-1.06521">
        <ele>101</ele>
        <time>2011-12-11T07:40:24Z</time>
      </trkpt>
      <trkpt lat="47.01705" lon="-1.06519">
        <ele>101</ele>
        <time>2011-12-11T07:40:25Z</time>
      </trkpt>
      <trkpt lat="47.01706" lon="-1.06518">
        <ele>101</ele>
        <time>2011-12-11T07:40:26Z</time>
      </trkpt>
      <trkpt lat="47.01706" lon="-1.06516">
        <ele>101</ele>
        <time>2011-12-11T07:40:27Z</time>
      </trkpt>
      <trkpt lat="47.01706" lon="-1.06514">
        <ele>101</ele>
        <time>2011-12-11T07:40:28Z</time>
      </trkpt>
      <trkpt lat="47.01707" lon="-1.06512">
        <ele>101</ele>
        <time>2011-12-11T07:40:29Z</time>
      </trkpt>
      <trkpt lat="47.01707" lon="-1.06511">
        <ele>101</ele>
        <time>2011-12-11T07:40:30Z</time>
      </trkpt>
      <trkpt lat="47.01708" lon="-1.06509">
        <ele>101</ele>
        <time>2011-12-11T07:40:31Z</time>
      </trkpt>
      <trkpt lat="47.01708" lon="-1.06508">
        <ele>101</ele>
        <time>2011-12-11T07:40:32Z</time>
      </trkpt>
      <trkpt lat="47.01709" lon="-1.06506">
        <ele>101</ele>
        <time>2011-12-11T07:40:33Z</time>
      </trkpt>
      <trkpt lat="47.01709" lon="-1.06504">
        <ele>101</ele>
        <time>2011-12-11T07:40:34Z</time>
      </trkpt>
      <trkpt lat="47.01709" lon="-1.06502">
        <ele>101</ele>
        <time>2011-12-11T07:40:35Z</time>
      </trkpt>
      <trkpt lat="47.0171" lon="-1.065">
        <ele>101</ele>
        <time>2011-12-11T07:40:36Z</time>
      </trkpt>
      <trkpt lat="47.0171" lon="-1.06499">
        <ele>101</ele>
        <time>2011-12-11T07:40:37Z</time>
      </trkpt>
      <trkpt lat="47.01711" lon="-1.06497">
        <ele>101</ele>
        <time>2011-12-11T07:40:38Z</time>
      </trkpt>
      <trkpt lat="47.01711" lon="-1.06495">
        <ele>101</ele>
        <time>2011-12-11T07:40:39Z</time>
      </trkpt>
      <trkpt lat="47.01712" lon="-1.06494">
        <ele>101</ele>
        <time>2011-12-11T07:40:40Z</time>
      </trkpt>
      <trkpt lat="47.01712" lon="-1.06492">
        <ele>101</ele>
        <time>2011-12-11T07:40:41Z</time>
      </trkpt>
      <trkpt lat="47.01712" lon="-1.0649">
        <ele>101</ele>
        <time>2011-12-11T07:40:42Z</time>
      </trkpt>
      <trkpt lat="47.01713" lon="-1.06489">
        <ele>101</ele>
        <time>2011-12-11T07:40:43Z</time>
      </trkpt>
      <trkpt lat="47.01713" lon="-1.06487">
        <ele>101</ele>
        <time>2011-12-11T07:40:44Z</time>
      </trkpt>
      <trkpt lat="47.01714" lon="-1.06485">
        <ele>101</ele>
        <time>2011-12-11T07:40:45Z</time>
      </trkpt>
      <trkpt lat="47.01714" lon="-1.06483">
        <ele>101</ele>
        <time>2011-12-11T07:40:46Z</time>
      </trkpt>
      <trkpt lat="47.01715" lon="-1.06481">
        <ele>101</ele>
        <time>2011-12-11T07:40:47Z</time>
      </trkpt>
      <trkpt lat="47.01715" lon="-1.0648">
        <ele>101</ele>
        <time>2011-12-11T07:40:48Z</time>
      </trkpt>
      <trkpt lat="47.01716" lon="-1.06478">
        <ele>101</ele>
        <time>2011-12-11T07:40:49Z</time>
      </trkpt>
      <trkpt lat="47.01716" lon="-1.06476">
        <ele>101</ele>
        <time>2011-12-11T07:40:50Z</time>
      </trkpt>
      <trkpt lat="47.01717" lon="-1.06474">
        <ele>101</ele>
        <time>2011-12-11T07:40:51Z</time>
      </trkpt>
      <trkpt lat="47.01717" lon="-1.06473">
        <ele>101</ele>
        <time>2011-12-11T07:40:52Z</time>
      </trkpt>
      <trkpt lat="47.01718" lon="-1.06471">
        <ele>101</ele>
        <time>2011-12-11T07:40:53Z</time>
      </trkpt>
      <trkpt lat="47.01718" lon="-1.06469">
        <ele>101</ele>
        <time>2011-12-11T07:40:54Z</time>
      </trkpt>
      <trkpt lat="47.01719" lon="-1.06467">
        <ele>101</ele>
        <time>2011-12-11T07:40:55Z</time>
      </trkpt>
      <trkpt lat="47.01719" lon="-1.06466">
        <ele>101</ele>
        <time>2011-12-11T07:40:56Z</time>
      </trkpt>
      <trkpt lat="47.0172" lon="-1.06464">
        <ele>101</ele>
        <time>2011-12-11T07:40:57Z</time>
      </trkpt>
      <trkpt lat="47.0172" lon="-1.06462">
        <ele>101</ele>
        <time>2011-12-11T07:40:58Z</time>
      </trkpt>
      <trkpt lat="47.01721" lon="-1.0646">
        <ele>101</ele>
        <time>2011-12-11T07:40:59Z</time>
      </trkpt>
      <trkpt lat="47.01722" lon="-1.06459">
        <ele>101</ele>
        <time>2011-12-11T07:41:00Z</time>
      </trkpt>
      <trkpt lat="47.01722" lon="-1.06457">
        <ele>101</ele>
        <time>2011-12-11T07:41:01Z</time>
      </trkpt>
      <trkpt lat="47.01723" lon="-1.06455">
        <ele>101</ele>
        <time>2011-12-11T07:41:02Z</time>
      </trkpt>
      <trkpt lat="47.01723" lon="-1.06453">
        <ele>101</ele>
        <time>2011-12-11T07:41:03Z</time>
      </trkpt>
      <trkpt lat="47.01724" lon="-1.06451">
        <ele>101</ele>
        <time>2011-12-11T07:41:04Z</time>
      </trkpt>
      <trkpt lat="47.01724" lon="-1.0645">
        <ele>101</ele>
        <time>2011-12-11T07:41:05Z</time>
      </trkpt>
      <trkpt lat="47.01725" lon="-1.06448">
        <ele>101</ele>
        <time>2011-12-11T07:41:06Z</time>
      </trkpt>
      <trkpt lat="47.01725" lon="-1.06447">
        <ele>101</ele>
        <time>2011-12-11T07:41:07Z</time>
      </trkpt>
      <trkpt lat="47.01726" lon="-1.06445">
        <ele>101</ele>
        <time>2011-12-11T07:41:08Z</time>
      </trkpt>
      <trkpt lat="47.01726" lon="-1.06444">
        <ele>101</ele>
        <time>2011-12-11T07:41:09Z</time>
      </trkpt>
      <trkpt lat="47.01727" lon="-1.06442">
        <ele>101</ele>
        <time>2011-12-11T07:41:10Z</time>
      </trkpt>
      <trkpt lat="47.01728" lon="-1.0644">
        <ele>101</ele>
        <time>2011-12-11T07:41:11Z</time>
      </trkpt>
      <trkpt lat="47.01728" lon="-1.06438">
        <ele>101</ele>
        <time>2011-12-11T07:41:12Z</time>
      </trkpt>
      <trkpt lat="47.01729" lon="-1.06437">
        <ele>101</ele>
        <time>2011-12-11T07:41:13Z</time>
      </trkpt>
      <trkpt lat="47.0173" lon="-1.06435">
        <ele>101</ele>
        <time>2011-12-11T07:41:14Z</time>
      </trkpt>
      <trkpt lat="47.0173" lon="-1.06433">
        <ele>101</ele>
        <time>2011-12-11T07:41:15Z</time>
      </trkpt>
      <trkpt lat="47.01731" lon="-1.06431">
        <ele>101</ele>
        <time>2011-12-11T07:41:16Z</time>
      </trkpt>
      <trkpt lat="47.01731" lon="-1.0643">
        <ele>101</ele>
        <time>2011-12-11T07:41:17Z</time>
      </trkpt>
      <trkpt lat="47.01731" lon="-1.06428">
        <ele>101</ele>
        <time>2011-12-11T07:41:18Z</time>
      </trkpt>
      <trkpt lat="47.01732" lon="-1.06426">
        <ele>101</ele>
        <time>2011-12-11T07:41:19Z</time>
      </trkpt>
      <trkpt lat="47.01732" lon="-1.06424">
        <ele>101</ele>
        <time>2011-12-11T07:41:20Z</time>
      </trkpt>
      <trkpt lat="47.01733" lon="-1.06422">
        <ele>101</ele>
        <time>2011-12-11T07:41:21Z</time>
      </trkpt>
      <trkpt lat="47.01733" lon="-1.06421">
        <ele>101</ele>
        <time>2011-12-11T07:41:22Z</time>
      </trkpt>
      <trkpt lat="47.01734" lon="-1.06419">
        <ele>101</ele>
        <time>2011-12-11T07:41:23Z</time>
      </trkpt>
      <trkpt lat="47.01735" lon="-1.06417">
        <ele>101</ele>
        <time>2011-12-11T07:41:24Z</time>
      </trkpt>
      <trkpt lat="47.01735" lon="-1.06415">
        <ele>101</ele>
        <time>2011-12-11T07:41:25Z</time>
      </trkpt>
      <trkpt lat="47.01736" lon="-1.06413">
        <ele>101</ele>
        <time>2011-12-11T07:41:26Z</time>
      </trkpt>
      <trkpt lat="47.01736" lon="-1.06411">
        <ele>101</ele>
        <time>2011-12-11T07:41:27Z</time>
      </trkpt>
      <trkpt lat="47.01736" lon="-1.06409">
        <ele>101</ele>
        <time>2011-12-11T07:41:28Z</time>
      </trkpt>
      <trkpt lat="47.01737" lon="-1.06407">
        <ele>101</ele>
        <time>2011-12-11T07:41:29Z</time>
      </trkpt>
      <trkpt lat="47.01737" lon="-1.06406">
        <ele>101</ele>
        <time>2011-12-11T07:41:30Z</time>
      </trkpt>
      <trkpt lat="47.01738" lon="-1.06404">
        <ele>101</ele>
        <time>2011-12-11T07:41:31Z</time>
      </trkpt>
      <trkpt lat="47.01739" lon="-1.06402">
        <ele>101</ele>
        <time>2011-12-11T07:41:32Z</time>
      </trkpt>
      <trkpt lat="47.01739" lon="-1.064">
        <ele>101</ele>
        <time>2011-12-11T07:41:33Z</time>
      </trkpt>
      <trkpt lat="47.0174" lon="-1.06398">
        <ele>101</ele>
        <time>2011-12-11T07:41:34Z</time>
      </trkpt>
      <trkpt lat="47.01741" lon="-1.06397">
        <ele>101</ele>
        <time>2011-12-11T07:41:35Z</time>
      </trkpt>
      <trkpt lat="47.01741" lon="-1.06395">
        <ele>101</ele>
        <time>2011-12-11T07:41:36Z</time>
      </trkpt>
      <trkpt lat="47.01741" lon="-1.06393">
        <ele>101</ele>
        <time>2011-12-11T07:41:37Z</time>
      </trkpt>
      <trkpt lat="47.01741" lon="-1.06392">
        <ele>101</ele>
        <time>2011-12-11T07:41:38Z</time>
      </trkpt>
      <trkpt lat="47.01742" lon="-1.0639">
        <ele>101</ele>
        <time>2011-12-11T07:41:39Z</time>
      </trkpt>
      <trkpt lat="47.01743" lon="-1.06388">
        <ele>101</ele>
        <time>2011-12-11T07:41:40Z</time>
      </trkpt>
      <trkpt lat="47.01743" lon="-1.06386">
        <ele>101</ele>
        <time>2011-12-11T07:41:41Z</time>
      </trkpt>
      <trkpt lat="47.01743" lon="-1.06385">
        <ele>101</ele>
        <time>2011-12-11T07:41:42Z</time>
      </trkpt>
      <trkpt lat="47.01744" lon="-1.06383">
        <ele>101</ele>
        <time>2011-12-11T07:41:43Z</time>
      </trkpt>
      <trkpt lat="47.01744" lon="-1.06381">
        <ele>101</ele>
        <time>2011-12-11T07:41:44Z</time>
      </trkpt>
      <trkpt lat="47.01745" lon="-1.0638">
        <ele>101</ele>
        <time>2011-12-11T07:41:45Z</time>
      </trkpt>
      <trkpt lat="47.01745" lon="-1.06378">
        <ele>101</ele>
        <time>2011-12-11T07:41:46Z</time>
      </trkpt>
      <trkpt lat="47.01746" lon="-1.06376">
        <ele>101</ele>
        <time>2011-12-11T07:41:47Z</time>
      </trkpt>
      <trkpt lat="47.01746" lon="-1.06374">
        <ele>101</ele>
        <time>2011-12-11T07:41:48Z</time>
      </trkpt>
      <trkpt lat="47.01747" lon="-1.06372">
        <ele>101</ele>
        <time>2011-12-11T07:41:49Z</time>
      </trkpt>
      <trkpt lat="47.01747" lon="-1.06371">
        <ele>101</ele>
        <time>2011-12-11T07:41:50Z</time>
      </trkpt>
      <trkpt lat="47.01748" lon="-1.06369">
        <ele>101</ele>
        <time>2011-12-11T07:41:51Z</time>
      </trkpt>
      <trkpt lat="47.01749" lon="-1.06367">
        <ele>101</ele>
        <time>2011-12-11T07:41:52Z</time>
      </trkpt>
      <trkpt lat="47.01749" lon="-1.06365">
        <ele>101</ele>
        <time>2011-12-11T07:41:53Z</time>
      </trkpt>
      <trkpt lat="47.01749" lon="-1.06363">
        <ele>101</ele>
        <time>2011-12-11T07:41:54Z</time>
      </trkpt>
      <trkpt lat="47.0175" lon="-1.06362">
        <ele>101</ele>
        <time>2011-12-11T07:41:55Z</time>
      </trkpt>
      <trkpt lat="47.0175" lon="-1.0636">
        <ele>101</ele>
        <time>2011-12-11T07:41:56Z</time>
      </trkpt>
      <trkpt lat="47.01751" lon="-1.06358">
        <ele>101</ele>
        <time>2011-12-11T07:41:57Z</time>
      </trkpt>
      <trkpt lat="47.01751" lon="-1.06356">
        <ele>101</ele>
        <time>2011-12-11T07:41:58Z</time>
      </trkpt>
      <trkpt lat="47.01751" lon="-1.06354">
        <ele>101</ele>
        <time>2011-12-11T07:41:59Z</time>
      </trkpt>
      <trkpt lat="47.01752" lon="-1.06352">
        <ele>101</ele>
        <time>2011-12-11T07:42:00Z</time>
      </trkpt>
      <trkpt lat="47.01752" lon="-1.06351">
        <ele>101</ele>
        <time>2011-12-11T07:42:01Z</time>
      </trkpt>
      <trkpt lat="47.01753" lon="-1.06349">
        <ele>101</ele>
        <time>2011-12-11T07:42:02Z</time>
      </trkpt>
      <trkpt lat="47.01753" lon="-1.06347">
        <ele>101</ele>
        <time>2011-12-11T07:42:03Z</time>
      </trkpt>
      <trkpt lat="47.01754" lon="-1.06345">
        <ele>101</ele>
        <time>2011-12-11T07:42:04Z</time>
      </trkpt>
      <trkpt lat="47.01754" lon="-1.06343">
        <ele>101</ele>
        <time>2011-12-11T07:42:05Z</time>
      </trkpt>
      <trkpt lat="47.01755" lon="-1.06342">
        <ele>101</ele>
        <time>2011-12-11T07:42:06Z</time>
      </trkpt>
      <trkpt lat="47.01755" lon="-1.0634">
        <ele>101</ele>
        <time>2011-12-11T07:42:07Z</time>
      </trkpt>
      <trkpt lat="47.01755" lon="-1.06338">
        <ele>101</ele>
        <time>2011-12-11T07:42:08Z</time>
      </trkpt>
      <trkpt lat="47.01756" lon="-1.06336">
        <ele>101</ele>
        <time>2011-12-11T07:42:09Z</time>
      </trkpt>
      <trkpt lat="47.01756" lon="-1.06334">
        <ele>101</ele>
        <time>2011-12-11T07:42:10Z</time>
      </trkpt>
      <trkpt lat="47.01756" lon="-1.06332">
        <ele>101</ele>
        <time>2011-12-11T07:42:11Z</time>
      </trkpt>
      <trkpt lat="47.01757" lon="-1.0633">
        <ele>101</ele>
        <time>2011-12-11T07:42:12Z</time>
      </trkpt>
      <trkpt lat="47.01757" lon="-1.06328">
        <ele>101</ele>
        <time>2011-12-11T07:42:13Z</time>
      </trkpt>
      <trkpt lat="47.01757" lon="-1.06326">
        <ele>101</ele>
        <time>2011-12-11T07:42:14Z</time>
      </trkpt>
      <trkpt lat="47.01758" lon="-1.06325">
        <ele>101</ele>
        <time>2011-12-11T07:42:15Z</time>
      </trkpt>
      <trkpt lat="47.01758" lon="-1.06323">
        <ele>101</ele>
        <time>2011-12-11T07:42:16Z</time>
      </trkpt>
      <trkpt lat="47.01759" lon="-1.06321">
        <ele>101</ele>
        <time>2011-12-11T07:42:17Z</time>
      </trkpt>
      <trkpt lat="47.01759" lon="-1.06319">
        <ele>101</ele>
        <time>2011-12-11T07:42:18Z</time>
      </trkpt>
      <trkpt lat="47.01759" lon="-1.06317">
        <ele>101</ele>
        <time>2011-12-11T07:42:19Z</time>
      </trkpt>
      <trkpt lat="47.0176" lon="-1.06316">
        <ele>101</ele>
        <time>2011-12-11T07:42:20Z</time>
      </trkpt>
      <trkpt lat="47.0176" lon="-1.06314">
        <ele>101</ele>
        <time>2011-12-11T07:42:21Z</time>
      </trkpt>
      <trkpt lat="47.01761" lon="-1.06312">
        <ele>101</ele>
        <time>2011-12-11T07:42:22Z</time>
      </trkpt>
      <trkpt lat="47.01761" lon="-1.0631">
        <ele>101</ele>
        <time>2011-12-11T07:42:23Z</time>
      </trkpt>
      <trkpt lat="47.01762" lon="-1.06308">
        <ele>101</ele>
        <time>2011-12-11T07:42:24Z</time>
      </trkpt>
      <trkpt lat="47.01762" lon="-1.06306">
        <ele>101</ele>
        <time>2011-12-11T07:42:25Z</time>
      </trkpt>
      <trkpt lat="47.01762" lon="-1.06305">
        <ele>101</ele>
        <time>2011-12-11T07:42:26Z</time>
      </trkpt>
      <trkpt lat="47.01763" lon="-1.06303">
        <ele>101</ele>
        <time>2011-12-11T07:42:27Z</time>
      </trkpt>
      <trkpt lat="47.01764" lon="-1.063">
        <ele>101</ele>
        <time>2011-12-11T07:42:28Z</time>
      </trkpt>
      <trkpt lat="47.01764" lon="-1.06298">
        <ele>101</ele>
        <time>2011-12-11T07:42:29Z</time>
      </trkpt>
      <trkpt lat="47.01764" lon="-1.06297">
        <ele>101</ele>
        <time>2011-12-11T07:42:30Z</time>
      </trkpt>
      <trkpt lat="47.01764" lon="-1.06295">
        <ele>101</ele>
        <time>2011-12-11T07:42:31Z</time>
      </trkpt>
      <trkpt lat="47.01764" lon="-1.06292">
        <ele>101</ele>
        <time>2011-12-11T07:42:33Z</time>
      </trkpt>
      <trkpt lat="47.01765" lon="-1.06291">
        <ele>101</ele>
        <time>2011-12-11T07:42:34Z</time>
      </trkpt>
      <trkpt lat="47.01765" lon="-1.06289">
        <ele>101</ele>
        <time>2011-12-11T07:42:35Z</time>
      </trkpt>
      <trkpt lat="47.01766" lon="-1.06287">
        <ele>101</ele>
        <time>2011-12-11T07:42:36Z</time>
      </trkpt>
      <trkpt lat="47.01766" lon="-1.06285">
        <ele>101</ele>
        <time>2011-12-11T07:42:37Z</time>
      </trkpt>
      <trkpt lat="47.01766" lon="-1.06283">
        <ele>101</ele>
        <time>2011-12-11T07:42:38Z</time>
      </trkpt>
      <trkpt lat="47.01766" lon="-1.06281">
        <ele>101</ele>
        <time>2011-12-11T07:42:39Z</time>
      </trkpt>
      <trkpt lat="47.01766" lon="-1.06279">
        <ele>102</ele>
        <time>2011-12-11T07:42:40Z</time>
      </trkpt>
      <trkpt lat="47.01766" lon="-1.06278">
        <ele>102</ele>
        <time>2011-12-11T07:42:41Z</time>
      </trkpt>
      <trkpt lat="47.01766" lon="-1.06276">
        <ele>102</ele>
        <time>2011-12-11T07:42:42Z</time>
      </trkpt>
      <trkpt lat="47.01767" lon="-1.06274">
        <ele>102</ele>
        <time>2011-12-11T07:42:43Z</time>
      </trkpt>
      <trkpt lat="47.01767" lon="-1.06273">
        <ele>102</ele>
        <time>2011-12-11T07:42:44Z</time>
      </trkpt>
      <trkpt lat="47.01766" lon="-1.06271">
        <ele>103</ele>
        <time>2011-12-11T07:42:45Z</time>
      </trkpt>
      <trkpt lat="47.01766" lon="-1.06269">
        <ele>103</ele>
        <time>2011-12-11T07:42:46Z</time>
      </trkpt>
      <trkpt lat="47.01765" lon="-1.06268">
        <ele>103</ele>
        <time>2011-12-11T07:42:47Z</time>
      </trkpt>
      <trkpt lat="47.01765" lon="-1.06265">
        <ele>103</ele>
        <time>2011-12-11T07:42:49Z</time>
      </trkpt>
      <trkpt lat="47.01765" lon="-1.06263">
        <ele>103</ele>
        <time>2011-12-11T07:42:50Z</time>
      </trkpt>
      <trkpt lat="47.01765" lon="-1.06262">
        <ele>103</ele>
        <time>2011-12-11T07:42:51Z</time>
      </trkpt>
      <trkpt lat="47.01765" lon="-1.0626">
        <ele>103</ele>
        <time>2011-12-11T07:42:52Z</time>
      </trkpt>
      <trkpt lat="47.01765" lon="-1.06258">
        <ele>103</ele>
        <time>2011-12-11T07:42:53Z</time>
      </trkpt>
      <trkpt lat="47.01764" lon="-1.06256">
        <ele>103</ele>
        <time>2011-12-11T07:42:54Z</time>
      </trkpt>
      <trkpt lat="47.01764" lon="-1.06255">
        <ele>103</ele>
        <time>2011-12-11T07:42:55Z</time>
      </trkpt>
      <trkpt lat="47.01764" lon="-1.06253">
        <ele>103</ele>
        <time>2011-12-11T07:42:56Z</time>
      </trkpt>
      <trkpt lat="47.01764" lon="-1.06251">
        <ele>103</ele>
        <time>2011-12-11T07:42:58Z</time>
      </trkpt>
      <trkpt lat="47.01764" lon="-1.06249">
        <ele>103</ele>
        <time>2011-12-11T07:42:59Z</time>
      </trkpt>
      <trkpt lat="47.01764" lon="-1.06247">
        <ele>103</ele>
        <time>2011-12-11T07:43:00Z</time>
      </trkpt>
      <trkpt lat="47.01764" lon="-1.06246">
        <ele>103</ele>
        <time>2011-12-11T07:43:01Z</time>
      </trkpt>
      <trkpt lat="47.01763" lon="-1.06244">
        <ele>103</ele>
        <time>2011-12-11T07:43:02Z</time>
      </trkpt>
      <trkpt lat="47.01763" lon="-1.06242">
        <ele>103</ele>
        <time>2011-12-11T07:43:03Z</time>
      </trkpt>
      <trkpt lat="47.01763" lon="-1.06241">
        <ele>103</ele>
        <time>2011-12-11T07:43:04Z</time>
      </trkpt>
      <trkpt lat="47.01762" lon="-1.06238">
        <ele>103</ele>
        <time>2011-12-11T07:43:06Z</time>
      </trkpt>
      <trkpt lat="47.01762" lon="-1.06236">
        <ele>103</ele>
        <time>2011-12-11T07:43:07Z</time>
      </trkpt>
      <trkpt lat="47.01762" lon="-1.06234">
        <ele>103</ele>
        <time>2011-12-11T07:43:08Z</time>
      </trkpt>
      <trkpt lat="47.01761" lon="-1.06232">
        <ele>103</ele>
        <time>2011-12-11T07:43:09Z</time>
      </trkpt>
      <trkpt lat="47.01761" lon="-1.0623">
        <ele>103</ele>
        <time>2011-12-11T07:43:10Z</time>
      </trkpt>
      <trkpt lat="47.0176" lon="-1.06228">
        <ele>103</ele>
        <time>2011-12-11T07:43:11Z</time>
      </trkpt>
      <trkpt lat="47.01759" lon="-1.06227">
        <ele>103</ele>
        <time>2011-12-11T07:43:12Z</time>
      </trkpt>
      <trkpt lat="47.01759" lon="-1.06225">
        <ele>103</ele>
        <time>2011-12-11T07:43:13Z</time>
      </trkpt>
      <trkpt lat="47.01758" lon="-1.06223">
        <ele>103</ele>
        <time>2011-12-11T07:43:14Z</time>
      </trkpt>
      <trkpt lat="47.01758" lon="-1.06221">
        <ele>103</ele>
        <time>2011-12-11T07:43:15Z</time>
      </trkpt>
      <trkpt lat="47.01757" lon="-1.06218">
        <ele>103</ele>
        <time>2011-12-11T07:43:16Z</time>
      </trkpt>
      <trkpt lat="47.01757" lon="-1.06217">
        <ele>103</ele>
        <time>2011-12-11T07:43:17Z</time>
      </trkpt>
      <trkpt lat="47.01756" lon="-1.06214">
        <ele>103</ele>
        <time>2011-12-11T07:43:18Z</time>
      </trkpt>
      <trkpt lat="47.01756" lon="-1.06211">
        <ele>103</ele>
        <time>2011-12-11T07:43:20Z</time>
      </trkpt>
      <trkpt lat="47.01756" lon="-1.06209">
        <ele>103</ele>
        <time>2011-12-11T07:43:21Z</time>
      </trkpt>
      <trkpt lat="47.01756" lon="-1.06207">
        <ele>104</ele>
        <time>2011-12-11T07:43:22Z</time>
      </trkpt>
      <trkpt lat="47.01756" lon="-1.06205">
        <ele>104</ele>
        <time>2011-12-11T07:43:23Z</time>
      </trkpt>
      <trkpt lat="47.01756" lon="-1.06203">
        <ele>105</ele>
        <time>2011-12-11T07:43:24Z</time>
      </trkpt>
      <trkpt lat="47.01756" lon="-1.06201">
        <ele>105</ele>
        <time>2011-12-11T07:43:25Z</time>
      </trkpt>
      <trkpt lat="47.01756" lon="-1.06199">
        <ele>106</ele>
        <time>2011-12-11T07:43:26Z</time>
      </trkpt>
      <trkpt lat="47.01755" lon="-1.06197">
        <ele>107</ele>
        <time>2011-12-11T07:43:27Z</time>
      </trkpt>
      <trkpt lat="47.01755" lon="-1.06195">
        <ele>107</ele>
        <time>2011-12-11T07:43:28Z</time>
      </trkpt>
      <trkpt lat="47.01755" lon="-1.06193">
        <ele>108</ele>
        <time>2011-12-11T07:43:29Z</time>
      </trkpt>
      <trkpt lat="47.01755" lon="-1.06191">
        <ele>108</ele>
        <time>2011-12-11T07:43:30Z</time>
      </trkpt>
      <trkpt lat="47.01754" lon="-1.06189">
        <ele>108</ele>
        <time>2011-12-11T07:43:31Z</time>
      </trkpt>
      <trkpt lat="47.01753" lon="-1.06186">
        <ele>108</ele>
        <time>2011-12-11T07:43:33Z</time>
      </trkpt>
      <trkpt lat="47.01751" lon="-1.06183">
        <ele>108</ele>
        <time>2011-12-11T07:43:35Z</time>
      </trkpt>
      <trkpt lat="47.01751" lon="-1.06182">
        <ele>108</ele>
        <time>2011-12-11T07:43:36Z</time>
      </trkpt>
      <trkpt lat="47.01751" lon="-1.0618">
        <ele>108</ele>
        <time>2011-12-11T07:43:37Z</time>
      </trkpt>
      <trkpt lat="47.01751" lon="-1.06178">
        <ele>108</ele>
        <time>2011-12-11T07:43:38Z</time>
      </trkpt>
      <trkpt lat="47.01751" lon="-1.06177">
        <ele>108</ele>
        <time>2011-12-11T07:43:39Z</time>
      </trkpt>
      <trkpt lat="47.01751" lon="-1.06175">
        <ele>108</ele>
        <time>2011-12-11T07:43:40Z</time>
      </trkpt>
      <trkpt lat="47.01751" lon="-1.06173">
        <ele>109</ele>
        <time>2011-12-11T07:43:41Z</time>
      </trkpt>
      <trkpt lat="47.01751" lon="-1.06171">
        <ele>110</ele>
        <time>2011-12-11T07:43:42Z</time>
      </trkpt>
      <trkpt lat="47.01751" lon="-1.06169">
        <ele>111</ele>
        <time>2011-12-11T07:43:43Z</time>
      </trkpt>
      <trkpt lat="47.01751" lon="-1.06167">
        <ele>111</ele>
        <time>2011-12-11T07:43:44Z</time>
      </trkpt>
      <trkpt lat="47.01751" lon="-1.06165">
        <ele>112</ele>
        <time>2011-12-11T07:43:45Z</time>
      </trkpt>
      <trkpt lat="47.01752" lon="-1.06163">
        <ele>113</ele>
        <time>2011-12-11T07:43:46Z</time>
      </trkpt>
      <trkpt lat="47.01752" lon="-1.06161">
        <ele>113</ele>
        <time>2011-12-11T07:43:47Z</time>
      </trkpt>
      <trkpt lat="47.01751" lon="-1.06159">
        <ele>114</ele>
        <time>2011-12-11T07:43:48Z</time>
      </trkpt>
      <trkpt lat="47.01751" lon="-1.06156">
        <ele>115</ele>
        <time>2011-12-11T07:43:49Z</time>
      </trkpt>
      <trkpt lat="47.01751" lon="-1.06154">
        <ele>116</ele>
        <time>2011-12-11T07:43:50Z</time>
      </trkpt>
      <trkpt lat="47.0175" lon="-1.06152">
        <ele>116</ele>
        <time>2011-12-11T07:43:51Z</time>
      </trkpt>
      <trkpt lat="47.0175" lon="-1.0615">
        <ele>117</ele>
        <time>2011-12-11T07:43:52Z</time>
      </trkpt>
      <trkpt lat="47.0175" lon="-1.06148">
        <ele>118</ele>
        <time>2011-12-11T07:43:53Z</time>
      </trkpt>
      <trkpt lat="47.01749" lon="-1.06145">
        <ele>119</ele>
        <time>2011-12-11T07:43:54Z</time>
      </trkpt>
      <trkpt lat="47.0175" lon="-1.06143">
        <ele>119</ele>
        <time>2011-12-11T07:43:55Z</time>
      </trkpt>
      <trkpt lat="47.01749" lon="-1.0614">
        <ele>120</ele>
        <time>2011-12-11T07:43:56Z</time>
      </trkpt>
      <trkpt lat="47.0175" lon="-1.06138">
        <ele>121</ele>
        <time>2011-12-11T07:43:57Z</time>
      </trkpt>
      <trkpt lat="47.01749" lon="-1.06136">
        <ele>121</ele>
        <time>2011-12-11T07:43:58Z</time>
      </trkpt>
      <trkpt lat="47.01749" lon="-1.06134">
        <ele>122</ele>
        <time>2011-12-11T07:43:59Z</time>
      </trkpt>
      <trkpt lat="47.01747" lon="-1.06132">
        <ele>122</ele>
        <time>2011-12-11T07:44:00Z</time>
      </trkpt>
      <trkpt lat="47.01746" lon="-1.0613">
        <ele>122</ele>
        <time>2011-12-11T07:44:01Z</time>
      </trkpt>
      <trkpt lat="47.01745" lon="-1.06129">
        <ele>122</ele>
        <time>2011-12-11T07:44:02Z</time>
      </trkpt>
      <trkpt lat="47.01743" lon="-1.06128">
        <ele>122</ele>
        <time>2011-12-11T07:44:03Z</time>
      </trkpt>
      <trkpt lat="47.01743" lon="-1.06126">
        <ele>122</ele>
        <time>2011-12-11T07:44:05Z</time>
      </trkpt>
      <trkpt lat="47.01741" lon="-1.06125">
        <ele>121</ele>
        <time>2011-12-11T07:44:06Z</time>
      </trkpt>
      <trkpt lat="47.01739" lon="-1.06124">
        <ele>120</ele>
        <time>2011-12-11T07:44:07Z</time>
      </trkpt>
      <trkpt lat="47.01738" lon="-1.06122">
        <ele>119</ele>
        <time>2011-12-11T07:44:08Z</time>
      </trkpt>
      <trkpt lat="47.01737" lon="-1.06121">
        <ele>118</ele>
        <time>2011-12-11T07:44:09Z</time>
      </trkpt>
      <trkpt lat="47.01734" lon="-1.06119">
        <ele>116</ele>
        <time>2011-12-11T07:44:11Z</time>
      </trkpt>
      <trkpt lat="47.01733" lon="-1.06118">
        <ele>115</ele>
        <time>2011-12-11T07:44:12Z</time>
      </trkpt>
      <trkpt lat="47.01732" lon="-1.06116">
        <ele>114</ele>
        <time>2011-12-11T07:44:13Z</time>
      </trkpt>
      <trkpt lat="47.01731" lon="-1.06115">
        <ele>113</ele>
        <time>2011-12-11T07:44:14Z</time>
      </trkpt>
      <trkpt lat="47.01729" lon="-1.06113">
        <ele>112</ele>
        <time>2011-12-11T07:44:16Z</time>
      </trkpt>
      <trkpt lat="47.01728" lon="-1.06112">
        <ele>111</ele>
        <time>2011-12-11T07:44:17Z</time>
      </trkpt>
      <trkpt lat="47.01726" lon="-1.06111">
        <ele>111</ele>
        <time>2011-12-11T07:44:18Z</time>
      </trkpt>
      <trkpt lat="47.01724" lon="-1.06108">
        <ele>110</ele>
        <time>2011-12-11T07:44:20Z</time>
      </trkpt>
      <trkpt lat="47.01723" lon="-1.06107">
        <ele>110</ele>
        <time>2011-12-11T07:44:21Z</time>
      </trkpt>
      <trkpt lat="47.0172" lon="-1.06105">
        <ele>110</ele>
        <time>2011-12-11T07:44:23Z</time>
      </trkpt>
      <trkpt lat="47.01719" lon="-1.06104">
        <ele>110</ele>
        <time>2011-12-11T07:44:24Z</time>
      </trkpt>
      <trkpt lat="47.01717" lon="-1.06101">
        <ele>110</ele>
        <time>2011-12-11T07:44:26Z</time>
      </trkpt>
      <trkpt lat="47.01715" lon="-1.06099">
        <ele>110</ele>
        <time>2011-12-11T07:44:27Z</time>
      </trkpt>
      <trkpt lat="47.01714" lon="-1.06098">
        <ele>110</ele>
        <time>2011-12-11T07:44:28Z</time>
      </trkpt>
      <trkpt lat="47.01712" lon="-1.06096">
        <ele>109</ele>
        <time>2011-12-11T07:44:30Z</time>
      </trkpt>
      <trkpt lat="47.0171" lon="-1.06094">
        <ele>109</ele>
        <time>2011-12-11T07:44:32Z</time>
      </trkpt>
      <trkpt lat="47.01709" lon="-1.06092">
        <ele>109</ele>
        <time>2011-12-11T07:44:33Z</time>
      </trkpt>
      <trkpt lat="47.01708" lon="-1.06091">
        <ele>109</ele>
        <time>2011-12-11T07:44:34Z</time>
      </trkpt>
      <trkpt lat="47.01706" lon="-1.06088">
        <ele>109</ele>
        <time>2011-12-11T07:44:36Z</time>
      </trkpt>
      <trkpt lat="47.01705" lon="-1.06088">
        <ele>109</ele>
        <time>2011-12-11T07:44:37Z</time>
      </trkpt>
      <trkpt lat="47.01704" lon="-1.06085">
        <ele>109</ele>
        <time>2011-12-11T07:44:39Z</time>
      </trkpt>
      <trkpt lat="47.01703" lon="-1.06084">
        <ele>109</ele>
        <time>2011-12-11T07:44:40Z</time>
      </trkpt>
      <trkpt lat="47.01701" lon="-1.06081">
        <ele>109</ele>
        <time>2011-12-11T07:44:42Z</time>
      </trkpt>
      <trkpt lat="47.01699" lon="-1.06079">
        <ele>109</ele>
        <time>2011-12-11T07:44:44Z</time>
      </trkpt>
      <trkpt lat="47.01698" lon="-1.06078">
        <ele>109</ele>
        <time>2011-12-11T07:44:45Z</time>
      </trkpt>
      <trkpt lat="47.01697" lon="-1.06076">
        <ele>109</ele>
        <time>2011-12-11T07:44:46Z</time>
      </trkpt>
      <trkpt lat="47.01696" lon="-1.06075">
        <ele>109</ele>
        <time>2011-12-11T07:44:47Z</time>
      </trkpt>
      <trkpt lat="47.01694" lon="-1.06072">
        <ele>109</ele>
        <time>2011-12-11T07:44:49Z</time>
      </trkpt>
      <trkpt lat="47.01693" lon="-1.0607">
        <ele>109</ele>
        <time>2011-12-11T07:44:50Z</time>
      </trkpt>
      <trkpt lat="47.01692" lon="-1.06068">
        <ele>109</ele>
        <time>2011-12-11T07:44:51Z</time>
      </trkpt>
      <trkpt lat="47.01691" lon="-1.06067">
        <ele>109</ele>
        <time>2011-12-11T07:44:52Z</time>
      </trkpt>
      <trkpt lat="47.01691" lon="-1.06064">
        <ele>109</ele>
        <time>2011-12-11T07:44:53Z</time>
      </trkpt>
      <trkpt lat="47.0169" lon="-1.06062">
        <ele>109</ele>
        <time>2011-12-11T07:44:54Z</time>
      </trkpt>
      <trkpt lat="47.0169" lon="-1.0606">
        <ele>109</ele>
        <time>2011-12-11T07:44:55Z</time>
      </trkpt>
      <trkpt lat="47.01689" lon="-1.06058">
        <ele>109</ele>
        <time>2011-12-11T07:44:56Z</time>
      </trkpt>
      <trkpt lat="47.01689" lon="-1.06055">
        <ele>109</ele>
        <time>2011-12-11T07:44:57Z</time>
      </trkpt>
      <trkpt lat="47.01688" lon="-1.06053">
        <ele>109</ele>
        <time>2011-12-11T07:44:58Z</time>
      </trkpt>
      <trkpt lat="47.01688" lon="-1.06051">
        <ele>109</ele>
        <time>2011-12-11T07:44:59Z</time>
      </trkpt>
      <trkpt lat="47.01687" lon="-1.06049">
        <ele>109</ele>
        <time>2011-12-11T07:45:00Z</time>
      </trkpt>
      <trkpt lat="47.01686" lon="-1.06047">
        <ele>109</ele>
        <time>2011-12-11T07:45:01Z</time>
      </trkpt>
      <trkpt lat="47.01686" lon="-1.06045">
        <ele>109</ele>
        <time>2011-12-11T07:45:02Z</time>
      </trkpt>
      <trkpt lat="47.01685" lon="-1.06043">
        <ele>109</ele>
        <time>2011-12-11T07:45:03Z</time>
      </trkpt>
      <trkpt lat="47.01685" lon="-1.0604">
        <ele>109</ele>
        <time>2011-12-11T07:45:04Z</time>
      </trkpt>
      <trkpt lat="47.01684" lon="-1.06038">
        <ele>109</ele>
        <time>2011-12-11T07:45:05Z</time>
      </trkpt>
      <trkpt lat="47.01683" lon="-1.06037">
        <ele>109</ele>
        <time>2011-12-11T07:45:06Z</time>
      </trkpt>
      <trkpt lat="47.01683" lon="-1.06035">
        <ele>109</ele>
        <time>2011-12-11T07:45:07Z</time>
      </trkpt>
      <trkpt lat="47.01682" lon="-1.06032">
        <ele>109</ele>
        <time>2011-12-11T07:45:09Z</time>
      </trkpt>
      <trkpt lat="47.01682" lon="-1.06031">
        <ele>109</ele>
        <time>2011-12-11T07:45:10Z</time>
      </trkpt>
      <trkpt lat="47.01682" lon="-1.06029">
        <ele>109</ele>
        <time>2011-12-11T07:45:11Z</time>
      </trkpt>
      <trkpt lat="47.01681" lon="-1.06027">
        <ele>109</ele>
        <time>2011-12-11T07:45:12Z</time>
      </trkpt>
      <trkpt lat="47.01681" lon="-1.06026">
        <ele>109</ele>
        <time>2011-12-11T07:45:13Z</time>
      </trkpt>
      <trkpt lat="47.01681" lon="-1.06024">
        <ele>109</ele>
        <time>2011-12-11T07:45:14Z</time>
      </trkpt>
      <trkpt lat="47.0168" lon="-1.06022">
        <ele>109</ele>
        <time>2011-12-11T07:45:15Z</time>
      </trkpt>
      <trkpt lat="47.0168" lon="-1.06019">
        <ele>109</ele>
        <time>2011-12-11T07:45:16Z</time>
      </trkpt>
      <trkpt lat="47.01679" lon="-1.06017">
        <ele>109</ele>
        <time>2011-12-11T07:45:17Z</time>
      </trkpt>
      <trkpt lat="47.01678" lon="-1.06014">
        <ele>109</ele>
        <time>2011-12-11T07:45:18Z</time>
      </trkpt>
      <trkpt lat="47.01678" lon="-1.06012">
        <ele>109</ele>
        <time>2011-12-11T07:45:19Z</time>
      </trkpt>
      <trkpt lat="47.01677" lon="-1.0601">
        <ele>109</ele>
        <time>2011-12-11T07:45:20Z</time>
      </trkpt>
      <trkpt lat="47.01677" lon="-1.06009">
        <ele>109</ele>
        <time>2011-12-11T07:45:21Z</time>
      </trkpt>
      <trkpt lat="47.01677" lon="-1.06006">
        <ele>109</ele>
        <time>2011-12-11T07:45:22Z</time>
      </trkpt>
      <trkpt lat="47.01677" lon="-1.06005">
        <ele>109</ele>
        <time>2011-12-11T07:45:23Z</time>
      </trkpt>
      <trkpt lat="47.01676" lon="-1.06002">
        <ele>109</ele>
        <time>2011-12-11T07:45:24Z</time>
      </trkpt>
      <trkpt lat="47.01677" lon="-1.06">
        <ele>109</ele>
        <time>2011-12-11T07:45:25Z</time>
      </trkpt>
      <trkpt lat="47.01677" lon="-1.05997">
        <ele>109</ele>
        <time>2011-12-11T07:45:26Z</time>
      </trkpt>
      <trkpt lat="47.01677" lon="-1.05995">
        <ele>109</ele>
        <time>2011-12-11T07:45:27Z</time>
      </trkpt>
      <trkpt lat="47.01677" lon="-1.05993">
        <ele>109</ele>
        <time>2011-12-11T07:45:28Z</time>
      </trkpt>
      <trkpt lat="47.01677" lon="-1.05991">
        <ele>110</ele>
        <time>2011-12-11T07:45:29Z</time>
      </trkpt>
      <trkpt lat="47.01676" lon="-1.05989">
        <ele>110</ele>
        <time>2011-12-11T07:45:30Z</time>
      </trkpt>
      <trkpt lat="47.01676" lon="-1.05988">
        <ele>111</ele>
        <time>2011-12-11T07:45:31Z</time>
      </trkpt>
      <trkpt lat="47.01676" lon="-1.05986">
        <ele>111</ele>
        <time>2011-12-11T07:45:32Z</time>
      </trkpt>
      <trkpt lat="47.01675" lon="-1.05984">
        <ele>111</ele>
        <time>2011-12-11T07:45:33Z</time>
      </trkpt>
      <trkpt lat="47.01675" lon="-1.05982">
        <ele>111</ele>
        <time>2011-12-11T07:45:34Z</time>
      </trkpt>
      <trkpt lat="47.01675" lon="-1.05981">
        <ele>111</ele>
        <time>2011-12-11T07:45:35Z</time>
      </trkpt>
      <trkpt lat="47.01674" lon="-1.05978">
        <ele>111</ele>
        <time>2011-12-11T07:45:36Z</time>
      </trkpt>
      <trkpt lat="47.01674" lon="-1.05976">
        <ele>111</ele>
        <time>2011-12-11T07:45:37Z</time>
      </trkpt>
      <trkpt lat="47.01674" lon="-1.05974">
        <ele>111</ele>
        <time>2011-12-11T07:45:38Z</time>
      </trkpt>
      <trkpt lat="47.01673" lon="-1.05973">
        <ele>111</ele>
        <time>2011-12-11T07:45:39Z</time>
      </trkpt>
      <trkpt lat="47.01673" lon="-1.05971">
        <ele>111</ele>
        <time>2011-12-11T07:45:40Z</time>
      </trkpt>
      <trkpt lat="47.01673" lon="-1.05968">
        <ele>111</ele>
        <time>2011-12-11T07:45:41Z</time>
      </trkpt>
      <trkpt lat="47.01673" lon="-1.05966">
        <ele>111</ele>
        <time>2011-12-11T07:45:42Z</time>
      </trkpt>
      <trkpt lat="47.01673" lon="-1.05964">
        <ele>111</ele>
        <time>2011-12-11T07:45:43Z</time>
      </trkpt>
      <trkpt lat="47.01673" lon="-1.05962">
        <ele>111</ele>
        <time>2011-12-11T07:45:44Z</time>
      </trkpt>
      <trkpt lat="47.01673" lon="-1.0596">
        <ele>111</ele>
        <time>2011-12-11T07:45:45Z</time>
      </trkpt>
      <trkpt lat="47.01673" lon="-1.05958">
        <ele>111</ele>
        <time>2011-12-11T07:45:46Z</time>
      </trkpt>
      <trkpt lat="47.01672" lon="-1.05956">
        <ele>112</ele>
        <time>2011-12-11T07:45:47Z</time>
      </trkpt>
      <trkpt lat="47.01672" lon="-1.05954">
        <ele>112</ele>
        <time>2011-12-11T07:45:48Z</time>
      </trkpt>
      <trkpt lat="47.01672" lon="-1.05952">
        <ele>112</ele>
        <time>2011-12-11T07:45:49Z</time>
      </trkpt>
      <trkpt lat="47.01672" lon="-1.05949">
        <ele>112</ele>
        <time>2011-12-11T07:45:51Z</time>
      </trkpt>
      <trkpt lat="47.01672" lon="-1.05948">
        <ele>112</ele>
        <time>2011-12-11T07:45:52Z</time>
      </trkpt>
      <trkpt lat="47.01672" lon="-1.05946">
        <ele>112</ele>
        <time>2011-12-11T07:45:53Z</time>
      </trkpt>
      <trkpt lat="47.01671" lon="-1.05944">
        <ele>112</ele>
        <time>2011-12-11T07:45:54Z</time>
      </trkpt>
      <trkpt lat="47.01671" lon="-1.05942">
        <ele>112</ele>
        <time>2011-12-11T07:45:55Z</time>
      </trkpt>
      <trkpt lat="47.01671" lon="-1.0594">
        <ele>112</ele>
        <time>2011-12-11T07:45:56Z</time>
      </trkpt>
      <trkpt lat="47.01671" lon="-1.05939">
        <ele>112</ele>
        <time>2011-12-11T07:45:57Z</time>
      </trkpt>
      <trkpt lat="47.0167" lon="-1.05937">
        <ele>112</ele>
        <time>2011-12-11T07:45:58Z</time>
      </trkpt>
      <trkpt lat="47.0167" lon="-1.05935">
        <ele>112</ele>
        <time>2011-12-11T07:45:59Z</time>
      </trkpt>
      <trkpt lat="47.01669" lon="-1.05932">
        <ele>112</ele>
        <time>2011-12-11T07:46:01Z</time>
      </trkpt>
      <trkpt lat="47.01669" lon="-1.05931">
        <ele>112</ele>
        <time>2011-12-11T07:46:02Z</time>
      </trkpt>
      <trkpt lat="47.01669" lon="-1.05927">
        <ele>112</ele>
        <time>2011-12-11T07:46:04Z</time>
      </trkpt>
      <trkpt lat="47.01669" lon="-1.05926">
        <ele>112</ele>
        <time>2011-12-11T07:46:05Z</time>
      </trkpt>
      <trkpt lat="47.01669" lon="-1.05924">
        <ele>112</ele>
        <time>2011-12-11T07:46:06Z</time>
      </trkpt>
      <trkpt lat="47.01668" lon="-1.05922">
        <ele>112</ele>
        <time>2011-12-11T07:46:07Z</time>
      </trkpt>
      <trkpt lat="47.01668" lon="-1.0592">
        <ele>112</ele>
        <time>2011-12-11T07:46:08Z</time>
      </trkpt>
      <trkpt lat="47.01668" lon="-1.05919">
        <ele>112</ele>
        <time>2011-12-11T07:46:09Z</time>
      </trkpt>
      <trkpt lat="47.01667" lon="-1.05917">
        <ele>112</ele>
        <time>2011-12-11T07:46:10Z</time>
      </trkpt>
      <trkpt lat="47.01667" lon="-1.05915">
        <ele>112</ele>
        <time>2011-12-11T07:46:11Z</time>
      </trkpt>
      <trkpt lat="47.01667" lon="-1.05913">
        <ele>112</ele>
        <time>2011-12-11T07:46:12Z</time>
      </trkpt>
      <trkpt lat="47.01667" lon="-1.05912">
        <ele>112</ele>
        <time>2011-12-11T07:46:13Z</time>
      </trkpt>
      <trkpt lat="47.01667" lon="-1.0591">
        <ele>112</ele>
        <time>2011-12-11T07:46:14Z</time>
      </trkpt>
      <trkpt lat="47.01667" lon="-1.05908">
        <ele>112</ele>
        <time>2011-12-11T07:46:15Z</time>
      </trkpt>
      <trkpt lat="47.01667" lon="-1.05906">
        <ele>112</ele>
        <time>2011-12-11T07:46:16Z</time>
      </trkpt>
      <trkpt lat="47.01667" lon="-1.05904">
        <ele>112</ele>
        <time>2011-12-11T07:46:17Z</time>
      </trkpt>
      <trkpt lat="47.01667" lon="-1.05901">
        <ele>112</ele>
        <time>2011-12-11T07:46:18Z</time>
      </trkpt>
      <trkpt lat="47.01667" lon="-1.05899">
        <ele>112</ele>
        <time>2011-12-11T07:46:19Z</time>
      </trkpt>
      <trkpt lat="47.01667" lon="-1.05897">
        <ele>112</ele>
        <time>2011-12-11T07:46:20Z</time>
      </trkpt>
      <trkpt lat="47.01666" lon="-1.05895">
        <ele>112</ele>
        <time>2011-12-11T07:46:21Z</time>
      </trkpt>
      <trkpt lat="47.01666" lon="-1.05893">
        <ele>112</ele>
        <time>2011-12-11T07:46:22Z</time>
      </trkpt>
      <trkpt lat="47.01665" lon="-1.05891">
        <ele>112</ele>
        <time>2011-12-11T07:46:23Z</time>
      </trkpt>
      <trkpt lat="47.01665" lon="-1.05889">
        <ele>112</ele>
        <time>2011-12-11T07:46:24Z</time>
      </trkpt>
      <trkpt lat="47.01665" lon="-1.05887">
        <ele>112</ele>
        <time>2011-12-11T07:46:25Z</time>
      </trkpt>
      <trkpt lat="47.01665" lon="-1.05885">
        <ele>112</ele>
        <time>2011-12-11T07:46:26Z</time>
      </trkpt>
      <trkpt lat="47.01666" lon="-1.05883">
        <ele>112</ele>
        <time>2011-12-11T07:46:27Z</time>
      </trkpt>
      <trkpt lat="47.01665" lon="-1.05881">
        <ele>112</ele>
        <time>2011-12-11T07:46:28Z</time>
      </trkpt>
      <trkpt lat="47.01665" lon="-1.05879">
        <ele>112</ele>
        <time>2011-12-11T07:46:29Z</time>
      </trkpt>
      <trkpt lat="47.01665" lon="-1.05877">
        <ele>112</ele>
        <time>2011-12-11T07:46:30Z</time>
      </trkpt>
      <trkpt lat="47.01665" lon="-1.05875">
        <ele>112</ele>
        <time>2011-12-11T07:46:31Z</time>
      </trkpt>
      <trkpt lat="47.01664" lon="-1.05874">
        <ele>112</ele>
        <time>2011-12-11T07:46:32Z</time>
      </trkpt>
      <trkpt lat="47.01664" lon="-1.05871">
        <ele>112</ele>
        <time>2011-12-11T07:46:33Z</time>
      </trkpt>
      <trkpt lat="47.01664" lon="-1.05869">
        <ele>112</ele>
        <time>2011-12-11T07:46:34Z</time>
      </trkpt>
      <trkpt lat="47.01664" lon="-1.05868">
        <ele>112</ele>
        <time>2011-12-11T07:46:35Z</time>
      </trkpt>
      <trkpt lat="47.01663" lon="-1.05866">
        <ele>112</ele>
        <time>2011-12-11T07:46:36Z</time>
      </trkpt>
      <trkpt lat="47.01662" lon="-1.05864">
        <ele>112</ele>
        <time>2011-12-11T07:46:37Z</time>
      </trkpt>
      <trkpt lat="47.01662" lon="-1.05862">
        <ele>112</ele>
        <time>2011-12-11T07:46:38Z</time>
      </trkpt>
      <trkpt lat="47.01662" lon="-1.0586">
        <ele>112</ele>
        <time>2011-12-11T07:46:39Z</time>
      </trkpt>
      <trkpt lat="47.01662" lon="-1.05858">
        <ele>112</ele>
        <time>2011-12-11T07:46:40Z</time>
      </trkpt>
      <trkpt lat="47.01661" lon="-1.05856">
        <ele>112</ele>
        <time>2011-12-11T07:46:41Z</time>
      </trkpt>
      <trkpt lat="47.01661" lon="-1.05854">
        <ele>112</ele>
        <time>2011-12-11T07:46:42Z</time>
      </trkpt>
      <trkpt lat="47.01661" lon="-1.05852">
        <ele>112</ele>
        <time>2011-12-11T07:46:43Z</time>
      </trkpt>
      <trkpt lat="47.0166" lon="-1.0585">
        <ele>112</ele>
        <time>2011-12-11T07:46:44Z</time>
      </trkpt>
      <trkpt lat="47.0166" lon="-1.05848">
        <ele>112</ele>
        <time>2011-12-11T07:46:45Z</time>
      </trkpt>
      <trkpt lat="47.01659" lon="-1.05846">
        <ele>112</ele>
        <time>2011-12-11T07:46:46Z</time>
      </trkpt>
      <trkpt lat="47.01659" lon="-1.05844">
        <ele>112</ele>
        <time>2011-12-11T07:46:47Z</time>
      </trkpt>
      <trkpt lat="47.0166" lon="-1.05842">
        <ele>112</ele>
        <time>2011-12-11T07:46:48Z</time>
      </trkpt>
      <trkpt lat="47.01659" lon="-1.0584">
        <ele>112</ele>
        <time>2011-12-11T07:46:49Z</time>
      </trkpt>
      <trkpt lat="47.01659" lon="-1.05839">
        <ele>112</ele>
        <time>2011-12-11T07:46:50Z</time>
      </trkpt>
      <trkpt lat="47.01658" lon="-1.05837">
        <ele>112</ele>
        <time>2011-12-11T07:46:51Z</time>
      </trkpt>
      <trkpt lat="47.01658" lon="-1.05835">
        <ele>112</ele>
        <time>2011-12-11T07:46:52Z</time>
      </trkpt>
      <trkpt lat="47.01657" lon="-1.05833">
        <ele>112</ele>
        <time>2011-12-11T07:46:53Z</time>
      </trkpt>
      <trkpt lat="47.01657" lon="-1.05831">
        <ele>112</ele>
        <time>2011-12-11T07:46:54Z</time>
      </trkpt>
      <trkpt lat="47.01656" lon="-1.05829">
        <ele>112</ele>
        <time>2011-12-11T07:46:55Z</time>
      </trkpt>
      <trkpt lat="47.01656" lon="-1.05827">
        <ele>112</ele>
        <time>2011-12-11T07:46:56Z</time>
      </trkpt>
      <trkpt lat="47.01656" lon="-1.05825">
        <ele>111</ele>
        <time>2011-12-11T07:46:57Z</time>
      </trkpt>
      <trkpt lat="47.01656" lon="-1.05823">
        <ele>111</ele>
        <time>2011-12-11T07:46:58Z</time>
      </trkpt>
      <trkpt lat="47.01656" lon="-1.05821">
        <ele>111</ele>
        <time>2011-12-11T07:46:59Z</time>
      </trkpt>
      <trkpt lat="47.01656" lon="-1.05819">
        <ele>111</ele>
        <time>2011-12-11T07:47:00Z</time>
      </trkpt>
      <trkpt lat="47.01655" lon="-1.05817">
        <ele>111</ele>
        <time>2011-12-11T07:47:01Z</time>
      </trkpt>
      <trkpt lat="47.01655" lon="-1.05815">
        <ele>111</ele>
        <time>2011-12-11T07:47:02Z</time>
      </trkpt>
      <trkpt lat="47.01655" lon="-1.05813">
        <ele>111</ele>
        <time>2011-12-11T07:47:03Z</time>
      </trkpt>
      <trkpt lat="47.01655" lon="-1.05811">
        <ele>111</ele>
        <time>2011-12-11T07:47:04Z</time>
      </trkpt>
      <trkpt lat="47.01655" lon="-1.05809">
        <ele>111</ele>
        <time>2011-12-11T07:47:05Z</time>
      </trkpt>
      <trkpt lat="47.01655" lon="-1.05808">
        <ele>111</ele>
        <time>2011-12-11T07:47:06Z</time>
      </trkpt>
      <trkpt lat="47.01655" lon="-1.05806">
        <ele>111</ele>
        <time>2011-12-11T07:47:07Z</time>
      </trkpt>
      <trkpt lat="47.01655" lon="-1.05805">
        <ele>111</ele>
        <time>2011-12-11T07:47:08Z</time>
      </trkpt>
      <trkpt lat="47.01654" lon="-1.05803">
        <ele>111</ele>
        <time>2011-12-11T07:47:09Z</time>
      </trkpt>
      <trkpt lat="47.01654" lon="-1.05801">
        <ele>111</ele>
        <time>2011-12-11T07:47:10Z</time>
      </trkpt>
      <trkpt lat="47.01654" lon="-1.05799">
        <ele>111</ele>
        <time>2011-12-11T07:47:11Z</time>
      </trkpt>
      <trkpt lat="47.01654" lon="-1.05797">
        <ele>111</ele>
        <time>2011-12-11T07:47:12Z</time>
      </trkpt>
      <trkpt lat="47.01654" lon="-1.05795">
        <ele>111</ele>
        <time>2011-12-11T07:47:13Z</time>
      </trkpt>
      <trkpt lat="47.01654" lon="-1.05793">
        <ele>111</ele>
        <time>2011-12-11T07:47:14Z</time>
      </trkpt>
      <trkpt lat="47.01654" lon="-1.05791">
        <ele>111</ele>
        <time>2011-12-11T07:47:15Z</time>
      </trkpt>
      <trkpt lat="47.01653" lon="-1.05789">
        <ele>111</ele>
        <time>2011-12-11T07:47:16Z</time>
      </trkpt>
      <trkpt lat="47.01654" lon="-1.05788">
        <ele>111</ele>
        <time>2011-12-11T07:47:17Z</time>
      </trkpt>
      <trkpt lat="47.01655" lon="-1.05786">
        <ele>111</ele>
        <time>2011-12-11T07:47:18Z</time>
      </trkpt>
      <trkpt lat="47.01655" lon="-1.05784">
        <ele>111</ele>
        <time>2011-12-11T07:47:19Z</time>
      </trkpt>
      <trkpt lat="47.01655" lon="-1.05782">
        <ele>111</ele>
        <time>2011-12-11T07:47:20Z</time>
      </trkpt>
      <trkpt lat="47.01655" lon="-1.0578">
        <ele>111</ele>
        <time>2011-12-11T07:47:21Z</time>
      </trkpt>
      <trkpt lat="47.01654" lon="-1.05779">
        <ele>111</ele>
        <time>2011-12-11T07:47:22Z</time>
      </trkpt>
      <trkpt lat="47.01654" lon="-1.05777">
        <ele>111</ele>
        <time>2011-12-11T07:47:23Z</time>
      </trkpt>
      <trkpt lat="47.01654" lon="-1.05775">
        <ele>111</ele>
        <time>2011-12-11T07:47:24Z</time>
      </trkpt>
      <trkpt lat="47.01654" lon="-1.05773">
        <ele>111</ele>
        <time>2011-12-11T07:47:25Z</time>
      </trkpt>
      <trkpt lat="47.01653" lon="-1.05772">
        <ele>111</ele>
        <time>2011-12-11T07:47:26Z</time>
      </trkpt>
      <trkpt lat="47.01653" lon="-1.0577">
        <ele>111</ele>
        <time>2011-12-11T07:47:27Z</time>
      </trkpt>
      <trkpt lat="47.01652" lon="-1.05768">
        <ele>111</ele>
        <time>2011-12-11T07:47:28Z</time>
      </trkpt>
      <trkpt lat="47.01651" lon="-1.05766">
        <ele>111</ele>
        <time>2011-12-11T07:47:29Z</time>
      </trkpt>
      <trkpt lat="47.01651" lon="-1.05764">
        <ele>111</ele>
        <time>2011-12-11T07:47:30Z</time>
      </trkpt>
      <trkpt lat="47.01651" lon="-1.05763">
        <ele>111</ele>
        <time>2011-12-11T07:47:31Z</time>
      </trkpt>
      <trkpt lat="47.01651" lon="-1.05761">
        <ele>111</ele>
        <time>2011-12-11T07:47:32Z</time>
      </trkpt>
      <trkpt lat="47.01651" lon="-1.05759">
        <ele>111</ele>
        <time>2011-12-11T07:47:33Z</time>
      </trkpt>
      <trkpt lat="47.0165" lon="-1.05757">
        <ele>111</ele>
        <time>2011-12-11T07:47:34Z</time>
      </trkpt>
      <trkpt lat="47.0165" lon="-1.05755">
        <ele>111</ele>
        <time>2011-12-11T07:47:35Z</time>
      </trkpt>
      <trkpt lat="47.01649" lon="-1.05753">
        <ele>111</ele>
        <time>2011-12-11T07:47:36Z</time>
      </trkpt>
      <trkpt lat="47.01649" lon="-1.05751">
        <ele>111</ele>
        <time>2011-12-11T07:47:37Z</time>
      </trkpt>
      <trkpt lat="47.01649" lon="-1.05749">
        <ele>111</ele>
        <time>2011-12-11T07:47:38Z</time>
      </trkpt>
      <trkpt lat="47.01649" lon="-1.05747">
        <ele>111</ele>
        <time>2011-12-11T07:47:39Z</time>
      </trkpt>
      <trkpt lat="47.01649" lon="-1.05745">
        <ele>111</ele>
        <time>2011-12-11T07:47:40Z</time>
      </trkpt>
      <trkpt lat="47.01648" lon="-1.05744">
        <ele>111</ele>
        <time>2011-12-11T07:47:41Z</time>
      </trkpt>
      <trkpt lat="47.01648" lon="-1.05742">
        <ele>111</ele>
        <time>2011-12-11T07:47:42Z</time>
      </trkpt>
      <trkpt lat="47.01648" lon="-1.0574">
        <ele>111</ele>
        <time>2011-12-11T07:47:43Z</time>
      </trkpt>
      <trkpt lat="47.01648" lon="-1.05738">
        <ele>111</ele>
        <time>2011-12-11T07:47:44Z</time>
      </trkpt>
      <trkpt lat="47.01648" lon="-1.05736">
        <ele>111</ele>
        <time>2011-12-11T07:47:45Z</time>
      </trkpt>
      <trkpt lat="47.01648" lon="-1.05734">
        <ele>111</ele>
        <time>2011-12-11T07:47:46Z</time>
      </trkpt>
      <trkpt lat="47.01648" lon="-1.05732">
        <ele>111</ele>
        <time>2011-12-11T07:47:47Z</time>
      </trkpt>
      <trkpt lat="47.01648" lon="-1.0573">
        <ele>111</ele>
        <time>2011-12-11T07:47:48Z</time>
      </trkpt>
      <trkpt lat="47.01647" lon="-1.05728">
        <ele>111</ele>
        <time>2011-12-11T07:47:49Z</time>
      </trkpt>
      <trkpt lat="47.01647" lon="-1.05726">
        <ele>111</ele>
        <time>2011-12-11T07:47:50Z</time>
      </trkpt>
      <trkpt lat="47.01647" lon="-1.05724">
        <ele>111</ele>
        <time>2011-12-11T07:47:51Z</time>
      </trkpt>
      <trkpt lat="47.01647" lon="-1.05722">
        <ele>111</ele>
        <time>2011-12-11T07:47:53Z</time>
      </trkpt>
      <trkpt lat="47.01646" lon="-1.0572">
        <ele>111</ele>
        <time>2011-12-11T07:47:54Z</time>
      </trkpt>
      <trkpt lat="47.01646" lon="-1.05719">
        <ele>111</ele>
        <time>2011-12-11T07:47:55Z</time>
      </trkpt>
      <trkpt lat="47.01645" lon="-1.05717">
        <ele>111</ele>
        <time>2011-12-11T07:47:56Z</time>
      </trkpt>
      <trkpt lat="47.01645" lon="-1.05716">
        <ele>111</ele>
        <time>2011-12-11T07:47:57Z</time>
      </trkpt>
      <trkpt lat="47.01644" lon="-1.05713">
        <ele>111</ele>
        <time>2011-12-11T07:47:58Z</time>
      </trkpt>
      <trkpt lat="47.01644" lon="-1.05712">
        <ele>111</ele>
        <time>2011-12-11T07:47:59Z</time>
      </trkpt>
      <trkpt lat="47.01643" lon="-1.0571">
        <ele>111</ele>
        <time>2011-12-11T07:48:00Z</time>
      </trkpt>
      <trkpt lat="47.01643" lon="-1.05709">
        <ele>111</ele>
        <time>2011-12-11T07:48:01Z</time>
      </trkpt>
      <trkpt lat="47.01642" lon="-1.05707">
        <ele>111</ele>
        <time>2011-12-11T07:48:02Z</time>
      </trkpt>
      <trkpt lat="47.01641" lon="-1.05705">
        <ele>111</ele>
        <time>2011-12-11T07:48:03Z</time>
      </trkpt>
      <trkpt lat="47.01641" lon="-1.05704">
        <ele>111</ele>
        <time>2011-12-11T07:48:04Z</time>
      </trkpt>
      <trkpt lat="47.0164" lon="-1.05702">
        <ele>111</ele>
        <time>2011-12-11T07:48:05Z</time>
      </trkpt>
      <trkpt lat="47.0164" lon="-1.057">
        <ele>111</ele>
        <time>2011-12-11T07:48:06Z</time>
      </trkpt>
      <trkpt lat="47.01639" lon="-1.05698">
        <ele>111</ele>
        <time>2011-12-11T07:48:07Z</time>
      </trkpt>
      <trkpt lat="47.01639" lon="-1.05696">
        <ele>111</ele>
        <time>2011-12-11T07:48:08Z</time>
      </trkpt>
      <trkpt lat="47.01638" lon="-1.05694">
        <ele>111</ele>
        <time>2011-12-11T07:48:09Z</time>
      </trkpt>
      <trkpt lat="47.01638" lon="-1.05693">
        <ele>111</ele>
        <time>2011-12-11T07:48:10Z</time>
      </trkpt>
      <trkpt lat="47.01637" lon="-1.05691">
        <ele>111</ele>
        <time>2011-12-11T07:48:11Z</time>
      </trkpt>
      <trkpt lat="47.01636" lon="-1.05689">
        <ele>112</ele>
        <time>2011-12-11T07:48:12Z</time>
      </trkpt>
      <trkpt lat="47.01636" lon="-1.05687">
        <ele>112</ele>
        <time>2011-12-11T07:48:13Z</time>
      </trkpt>
      <trkpt lat="47.01636" lon="-1.05685">
        <ele>112</ele>
        <time>2011-12-11T07:48:14Z</time>
      </trkpt>
      <trkpt lat="47.01634" lon="-1.05683">
        <ele>112</ele>
        <time>2011-12-11T07:48:16Z</time>
      </trkpt>
      <trkpt lat="47.01634" lon="-1.05681">
        <ele>112</ele>
        <time>2011-12-11T07:48:17Z</time>
      </trkpt>
      <trkpt lat="47.01633" lon="-1.05679">
        <ele>112</ele>
        <time>2011-12-11T07:48:18Z</time>
      </trkpt>
      <trkpt lat="47.01634" lon="-1.05677">
        <ele>112</ele>
        <time>2011-12-11T07:48:19Z</time>
      </trkpt>
      <trkpt lat="47.01633" lon="-1.05675">
        <ele>112</ele>
        <time>2011-12-11T07:48:20Z</time>
      </trkpt>
      <trkpt lat="47.01633" lon="-1.05673">
        <ele>112</ele>
        <time>2011-12-11T07:48:21Z</time>
      </trkpt>
      <trkpt lat="47.01632" lon="-1.05671">
        <ele>112</ele>
        <time>2011-12-11T07:48:22Z</time>
      </trkpt>
      <trkpt lat="47.01631" lon="-1.0567">
        <ele>112</ele>
        <time>2011-12-11T07:48:23Z</time>
      </trkpt>
      <trkpt lat="47.01631" lon="-1.05668">
        <ele>112</ele>
        <time>2011-12-11T07:48:24Z</time>
      </trkpt>
      <trkpt lat="47.0163" lon="-1.05666">
        <ele>112</ele>
        <time>2011-12-11T07:48:25Z</time>
      </trkpt>
      <trkpt lat="47.01629" lon="-1.05665">
        <ele>112</ele>
        <time>2011-12-11T07:48:26Z</time>
      </trkpt>
      <trkpt lat="47.01628" lon="-1.05663">
        <ele>112</ele>
        <time>2011-12-11T07:48:27Z</time>
      </trkpt>
      <trkpt lat="47.01628" lon="-1.05661">
        <ele>112</ele>
        <time>2011-12-11T07:48:28Z</time>
      </trkpt>
      <trkpt lat="47.01627" lon="-1.05659">
        <ele>112</ele>
        <time>2011-12-11T07:48:29Z</time>
      </trkpt>
      <trkpt lat="47.01626" lon="-1.05658">
        <ele>112</ele>
        <time>2011-12-11T07:48:30Z</time>
      </trkpt>
      <trkpt lat="47.01625" lon="-1.05656">
        <ele>112</ele>
        <time>2011-12-11T07:48:31Z</time>
      </trkpt>
      <trkpt lat="47.01625" lon="-1.05655">
        <ele>112</ele>
        <time>2011-12-11T07:48:32Z</time>
      </trkpt>
      <trkpt lat="47.01624" lon="-1.05653">
        <ele>112</ele>
        <time>2011-12-11T07:48:33Z</time>
      </trkpt>
      <trkpt lat="47.01624" lon="-1.05651">
        <ele>112</ele>
        <time>2011-12-11T07:48:34Z</time>
      </trkpt>
      <trkpt lat="47.01623" lon="-1.05649">
        <ele>112</ele>
        <time>2011-12-11T07:48:35Z</time>
      </trkpt>
      <trkpt lat="47.01623" lon="-1.05647">
        <ele>112</ele>
        <time>2011-12-11T07:48:36Z</time>
      </trkpt>
      <trkpt lat="47.01622" lon="-1.05645">
        <ele>112</ele>
        <time>2011-12-11T07:48:37Z</time>
      </trkpt>
      <trkpt lat="47.01622" lon="-1.05644">
        <ele>112</ele>
        <time>2011-12-11T07:48:38Z</time>
      </trkpt>
      <trkpt lat="47.01621" lon="-1.05642">
        <ele>112</ele>
        <time>2011-12-11T07:48:39Z</time>
      </trkpt>
      <trkpt lat="47.0162" lon="-1.0564">
        <ele>112</ele>
        <time>2011-12-11T07:48:40Z</time>
      </trkpt>
      <trkpt lat="47.01619" lon="-1.05639">
        <ele>112</ele>
        <time>2011-12-11T07:48:41Z</time>
      </trkpt>
      <trkpt lat="47.0162" lon="-1.05637">
        <ele>112</ele>
        <time>2011-12-11T07:48:42Z</time>
      </trkpt>
      <trkpt lat="47.01619" lon="-1.05635">
        <ele>112</ele>
        <time>2011-12-11T07:48:43Z</time>
      </trkpt>
      <trkpt lat="47.01619" lon="-1.05634">
        <ele>112</ele>
        <time>2011-12-11T07:48:44Z</time>
      </trkpt>
      <trkpt lat="47.01618" lon="-1.05632">
        <ele>112</ele>
        <time>2011-12-11T07:48:45Z</time>
      </trkpt>
      <trkpt lat="47.01618" lon="-1.0563">
        <ele>112</ele>
        <time>2011-12-11T07:48:46Z</time>
      </trkpt>
      <trkpt lat="47.01617" lon="-1.05628">
        <ele>112</ele>
        <time>2011-12-11T07:48:47Z</time>
      </trkpt>
      <trkpt lat="47.01617" lon="-1.05626">
        <ele>112</ele>
        <time>2011-12-11T07:48:48Z</time>
      </trkpt>
      <trkpt lat="47.01616" lon="-1.05624">
        <ele>112</ele>
        <time>2011-12-11T07:48:49Z</time>
      </trkpt>
      <trkpt lat="47.01616" lon="-1.05622">
        <ele>112</ele>
        <time>2011-12-11T07:48:50Z</time>
      </trkpt>
      <trkpt lat="47.01615" lon="-1.05621">
        <ele>112</ele>
        <time>2011-12-11T07:48:51Z</time>
      </trkpt>
      <trkpt lat="47.01615" lon="-1.05619">
        <ele>112</ele>
        <time>2011-12-11T07:48:52Z</time>
      </trkpt>
      <trkpt lat="47.01614" lon="-1.05617">
        <ele>112</ele>
        <time>2011-12-11T07:48:53Z</time>
      </trkpt>
      <trkpt lat="47.01614" lon="-1.05615">
        <ele>112</ele>
        <time>2011-12-11T07:48:54Z</time>
      </trkpt>
      <trkpt lat="47.01613" lon="-1.05613">
        <ele>112</ele>
        <time>2011-12-11T07:48:55Z</time>
      </trkpt>
      <trkpt lat="47.01612" lon="-1.05611">
        <ele>112</ele>
        <time>2011-12-11T07:48:56Z</time>
      </trkpt>
      <trkpt lat="47.01612" lon="-1.05609">
        <ele>112</ele>
        <time>2011-12-11T07:48:57Z</time>
      </trkpt>
      <trkpt lat="47.01612" lon="-1.05607">
        <ele>112</ele>
        <time>2011-12-11T07:48:58Z</time>
      </trkpt>
      <trkpt lat="47.01611" lon="-1.05605">
        <ele>112</ele>
        <time>2011-12-11T07:48:59Z</time>
      </trkpt>
      <trkpt lat="47.01611" lon="-1.05603">
        <ele>112</ele>
        <time>2011-12-11T07:49:00Z</time>
      </trkpt>
      <trkpt lat="47.01611" lon="-1.05601">
        <ele>112</ele>
        <time>2011-12-11T07:49:01Z</time>
      </trkpt>
      <trkpt lat="47.0161" lon="-1.05599">
        <ele>112</ele>
        <time>2011-12-11T07:49:02Z</time>
      </trkpt>
      <trkpt lat="47.0161" lon="-1.05597">
        <ele>112</ele>
        <time>2011-12-11T07:49:03Z</time>
      </trkpt>
      <trkpt lat="47.01609" lon="-1.05595">
        <ele>112</ele>
        <time>2011-12-11T07:49:04Z</time>
      </trkpt>
      <trkpt lat="47.01609" lon="-1.05593">
        <ele>112</ele>
        <time>2011-12-11T07:49:05Z</time>
      </trkpt>
      <trkpt lat="47.01609" lon="-1.05591">
        <ele>112</ele>
        <time>2011-12-11T07:49:06Z</time>
      </trkpt>
      <trkpt lat="47.01609" lon="-1.05589">
        <ele>112</ele>
        <time>2011-12-11T07:49:07Z</time>
      </trkpt>
      <trkpt lat="47.01608" lon="-1.05587">
        <ele>112</ele>
        <time>2011-12-11T07:49:08Z</time>
      </trkpt>
      <trkpt lat="47.01608" lon="-1.05585">
        <ele>112</ele>
        <time>2011-12-11T07:49:09Z</time>
      </trkpt>
      <trkpt lat="47.01608" lon="-1.05583">
        <ele>112</ele>
        <time>2011-12-11T07:49:10Z</time>
      </trkpt>
      <trkpt lat="47.01608" lon="-1.05581">
        <ele>112</ele>
        <time>2011-12-11T07:49:11Z</time>
      </trkpt>
      <trkpt lat="47.01607" lon="-1.05579">
        <ele>112</ele>
        <time>2011-12-11T07:49:12Z</time>
      </trkpt>
      <trkpt lat="47.01607" lon="-1.05577">
        <ele>112</ele>
        <time>2011-12-11T07:49:13Z</time>
      </trkpt>
      <trkpt lat="47.01606" lon="-1.05575">
        <ele>112</ele>
        <time>2011-12-11T07:49:14Z</time>
      </trkpt>
      <trkpt lat="47.01606" lon="-1.05573">
        <ele>112</ele>
        <time>2011-12-11T07:49:15Z</time>
      </trkpt>
      <trkpt lat="47.01606" lon="-1.0557">
        <ele>112</ele>
        <time>2011-12-11T07:49:16Z</time>
      </trkpt>
      <trkpt lat="47.01606" lon="-1.05569">
        <ele>112</ele>
        <time>2011-12-11T07:49:17Z</time>
      </trkpt>
      <trkpt lat="47.01606" lon="-1.05567">
        <ele>112</ele>
        <time>2011-12-11T07:49:18Z</time>
      </trkpt>
      <trkpt lat="47.01605" lon="-1.05564">
        <ele>112</ele>
        <time>2011-12-11T07:49:19Z</time>
      </trkpt>
      <trkpt lat="47.01605" lon="-1.05562">
        <ele>112</ele>
        <time>2011-12-11T07:49:20Z</time>
      </trkpt>
      <trkpt lat="47.01605" lon="-1.0556">
        <ele>112</ele>
        <time>2011-12-11T07:49:21Z</time>
      </trkpt>
      <trkpt lat="47.01605" lon="-1.05558">
        <ele>112</ele>
        <time>2011-12-11T07:49:22Z</time>
      </trkpt>
      <trkpt lat="47.01605" lon="-1.05555">
        <ele>112</ele>
        <time>2011-12-11T07:49:23Z</time>
      </trkpt>
      <trkpt lat="47.01605" lon="-1.05553">
        <ele>112</ele>
        <time>2011-12-11T07:49:24Z</time>
      </trkpt>
      <trkpt lat="47.01605" lon="-1.05552">
        <ele>112</ele>
        <time>2011-12-11T07:49:25Z</time>
      </trkpt>
      <trkpt lat="47.01605" lon="-1.0555">
        <ele>112</ele>
        <time>2011-12-11T07:49:26Z</time>
      </trkpt>
      <trkpt lat="47.01605" lon="-1.05547">
        <ele>112</ele>
        <time>2011-12-11T07:49:27Z</time>
      </trkpt>
      <trkpt lat="47.01605" lon="-1.05545">
        <ele>112</ele>
        <time>2011-12-11T07:49:28Z</time>
      </trkpt>
      <trkpt lat="47.01605" lon="-1.05543">
        <ele>112</ele>
        <time>2011-12-11T07:49:29Z</time>
      </trkpt>
      <trkpt lat="47.01605" lon="-1.05542">
        <ele>112</ele>
        <time>2011-12-11T07:49:30Z</time>
      </trkpt>
      <trkpt lat="47.01605" lon="-1.0554">
        <ele>112</ele>
        <time>2011-12-11T07:49:31Z</time>
      </trkpt>
      <trkpt lat="47.01605" lon="-1.05538">
        <ele>112</ele>
        <time>2011-12-11T07:49:32Z</time>
      </trkpt>
      <trkpt lat="47.01604" lon="-1.05536">
        <ele>112</ele>
        <time>2011-12-11T07:49:33Z</time>
      </trkpt>
      <trkpt lat="47.01604" lon="-1.05534">
        <ele>112</ele>
        <time>2011-12-11T07:49:34Z</time>
      </trkpt>
      <trkpt lat="47.01604" lon="-1.05532">
        <ele>112</ele>
        <time>2011-12-11T07:49:35Z</time>
      </trkpt>
      <trkpt lat="47.01604" lon="-1.0553">
        <ele>112</ele>
        <time>2011-12-11T07:49:36Z</time>
      </trkpt>
      <trkpt lat="47.01605" lon="-1.05528">
        <ele>112</ele>
        <time>2011-12-11T07:49:37Z</time>
      </trkpt>
      <trkpt lat="47.01605" lon="-1.05526">
        <ele>112</ele>
        <time>2011-12-11T07:49:38Z</time>
      </trkpt>
      <trkpt lat="47.01605" lon="-1.05524">
        <ele>112</ele>
        <time>2011-12-11T07:49:39Z</time>
      </trkpt>
      <trkpt lat="47.01605" lon="-1.05522">
        <ele>112</ele>
        <time>2011-12-11T07:49:40Z</time>
      </trkpt>
      <trkpt lat="47.01605" lon="-1.0552">
        <ele>112</ele>
        <time>2011-12-11T07:49:41Z</time>
      </trkpt>
      <trkpt lat="47.01605" lon="-1.05518">
        <ele>112</ele>
        <time>2011-12-11T07:49:42Z</time>
      </trkpt>
      <trkpt lat="47.01605" lon="-1.05516">
        <ele>112</ele>
        <time>2011-12-11T07:49:43Z</time>
      </trkpt>
      <trkpt lat="47.01605" lon="-1.05514">
        <ele>112</ele>
        <time>2011-12-11T07:49:44Z</time>
      </trkpt>
      <trkpt lat="47.01605" lon="-1.05512">
        <ele>112</ele>
        <time>2011-12-11T07:49:45Z</time>
      </trkpt>
      <trkpt lat="47.01605" lon="-1.0551">
        <ele>112</ele>
        <time>2011-12-11T07:49:46Z</time>
      </trkpt>
      <trkpt lat="47.01606" lon="-1.05508">
        <ele>112</ele>
        <time>2011-12-11T07:49:47Z</time>
      </trkpt>
      <trkpt lat="47.01606" lon="-1.05506">
        <ele>112</ele>
        <time>2011-12-11T07:49:48Z</time>
      </trkpt>
      <trkpt lat="47.01606" lon="-1.05504">
        <ele>112</ele>
        <time>2011-12-11T07:49:49Z</time>
      </trkpt>
      <trkpt lat="47.01606" lon="-1.05502">
        <ele>112</ele>
        <time>2011-12-11T07:49:50Z</time>
      </trkpt>
      <trkpt lat="47.01606" lon="-1.055">
        <ele>112</ele>
        <time>2011-12-11T07:49:51Z</time>
      </trkpt>
      <trkpt lat="47.01606" lon="-1.05498">
        <ele>112</ele>
        <time>2011-12-11T07:49:52Z</time>
      </trkpt>
      <trkpt lat="47.01606" lon="-1.05496">
        <ele>112</ele>
        <time>2011-12-11T07:49:53Z</time>
      </trkpt>
      <trkpt lat="47.01606" lon="-1.05494">
        <ele>112</ele>
        <time>2011-12-11T07:49:54Z</time>
      </trkpt>
      <trkpt lat="47.01606" lon="-1.05492">
        <ele>112</ele>
        <time>2011-12-11T07:49:55Z</time>
      </trkpt>
      <trkpt lat="47.01606" lon="-1.0549">
        <ele>112</ele>
        <time>2011-12-11T07:49:56Z</time>
      </trkpt>
      <trkpt lat="47.01606" lon="-1.05488">
        <ele>112</ele>
        <time>2011-12-11T07:49:57Z</time>
      </trkpt>
      <trkpt lat="47.01607" lon="-1.05486">
        <ele>112</ele>
        <time>2011-12-11T07:49:58Z</time>
      </trkpt>
      <trkpt lat="47.01607" lon="-1.05484">
        <ele>112</ele>
        <time>2011-12-11T07:49:59Z</time>
      </trkpt>
      <trkpt lat="47.01607" lon="-1.05482">
        <ele>112</ele>
        <time>2011-12-11T07:50:00Z</time>
      </trkpt>
      <trkpt lat="47.01607" lon="-1.0548">
        <ele>112</ele>
        <time>2011-12-11T07:50:01Z</time>
      </trkpt>
      <trkpt lat="47.01607" lon="-1.05478">
        <ele>112</ele>
        <time>2011-12-11T07:50:02Z</time>
      </trkpt>
      <trkpt lat="47.01607" lon="-1.05476">
        <ele>112</ele>
        <time>2011-12-11T07:50:03Z</time>
      </trkpt>
      <trkpt lat="47.01607" lon="-1.05474">
        <ele>112</ele>
        <time>2011-12-11T07:50:04Z</time>
      </trkpt>
      <trkpt lat="47.01607" lon="-1.05473">
        <ele>112</ele>
        <time>2011-12-11T07:50:05Z</time>
      </trkpt>
      <trkpt lat="47.01606" lon="-1.05471">
        <ele>112</ele>
        <time>2011-12-11T07:50:06Z</time>
      </trkpt>
      <trkpt lat="47.01606" lon="-1.0547">
        <ele>112</ele>
        <time>2011-12-11T07:50:07Z</time>
      </trkpt>
      <trkpt lat="47.01605" lon="-1.05468">
        <ele>112</ele>
        <time>2011-12-11T07:50:08Z</time>
      </trkpt>
      <trkpt lat="47.01603" lon="-1.05466">
        <ele>112</ele>
        <time>2011-12-11T07:50:10Z</time>
      </trkpt>
      <trkpt lat="47.01602" lon="-1.05465">
        <ele>112</ele>
        <time>2011-12-11T07:50:11Z</time>
      </trkpt>
      <trkpt lat="47.016" lon="-1.05463">
        <ele>112</ele>
        <time>2011-12-11T07:50:13Z</time>
      </trkpt>
      <trkpt lat="47.01599" lon="-1.05461">
        <ele>112</ele>
        <time>2011-12-11T07:50:14Z</time>
      </trkpt>
      <trkpt lat="47.01597" lon="-1.05459">
        <ele>112</ele>
        <time>2011-12-11T07:50:16Z</time>
      </trkpt>
      <trkpt lat="47.01596" lon="-1.05459">
        <ele>112</ele>
        <time>2011-12-11T07:50:17Z</time>
      </trkpt>
      <trkpt lat="47.01594" lon="-1.05458">
        <ele>112</ele>
        <time>2011-12-11T07:50:18Z</time>
      </trkpt>
      <trkpt lat="47.01593" lon="-1.05458">
        <ele>112</ele>
        <time>2011-12-11T07:50:19Z</time>
      </trkpt>
      <trkpt lat="47.01591" lon="-1.05458">
        <ele>112</ele>
        <time>2011-12-11T07:50:20Z</time>
      </trkpt>
      <trkpt lat="47.0159" lon="-1.05457">
        <ele>112</ele>
        <time>2011-12-11T07:50:21Z</time>
      </trkpt>
      <trkpt lat="47.01588" lon="-1.05457">
        <ele>112</ele>
        <time>2011-12-11T07:50:22Z</time>
      </trkpt>
      <trkpt lat="47.01587" lon="-1.05456">
        <ele>112</ele>
        <time>2011-12-11T07:50:23Z</time>
      </trkpt>
      <trkpt lat="47.01585" lon="-1.05456">
        <ele>112</ele>
        <time>2011-12-11T07:50:24Z</time>
      </trkpt>
      <trkpt lat="47.01584" lon="-1.05456">
        <ele>112</ele>
        <time>2011-12-11T07:50:25Z</time>
      </trkpt>
      <trkpt lat="47.01582" lon="-1.05455">
        <ele>112</ele>
        <time>2011-12-11T07:50:27Z</time>
      </trkpt>
      <trkpt lat="47.0158" lon="-1.05454">
        <ele>112</ele>
        <time>2011-12-11T07:50:28Z</time>
      </trkpt>
      <trkpt lat="47.01579" lon="-1.05454">
        <ele>112</ele>
        <time>2011-12-11T07:50:29Z</time>
      </trkpt>
      <trkpt lat="47.01577" lon="-1.05453">
        <ele>112</ele>
        <time>2011-12-11T07:50:30Z</time>
      </trkpt>
      <trkpt lat="47.01576" lon="-1.05453">
        <ele>112</ele>
        <time>2011-12-11T07:50:31Z</time>
      </trkpt>
      <trkpt lat="47.01574" lon="-1.05452">
        <ele>112</ele>
        <time>2011-12-11T07:50:32Z</time>
      </trkpt>
      <trkpt lat="47.01573" lon="-1.0545">
        <ele>112</ele>
        <time>2011-12-11T07:50:33Z</time>
      </trkpt>
      <trkpt lat="47.01572" lon="-1.05449">
        <ele>112</ele>
        <time>2011-12-11T07:50:34Z</time>
      </trkpt>
      <trkpt lat="47.0157" lon="-1.05448">
        <ele>112</ele>
        <time>2011-12-11T07:50:35Z</time>
      </trkpt>
      <trkpt lat="47.01569" lon="-1.05447">
        <ele>112</ele>
        <time>2011-12-11T07:50:36Z</time>
      </trkpt>
      <trkpt lat="47.01568" lon="-1.05446">
        <ele>112</ele>
        <time>2011-12-11T07:50:37Z</time>
      </trkpt>
      <trkpt lat="47.01566" lon="-1.05444">
        <ele>112</ele>
        <time>2011-12-11T07:50:39Z</time>
      </trkpt>
      <trkpt lat="47.01564" lon="-1.05442">
        <ele>112</ele>
        <time>2011-12-11T07:50:41Z</time>
      </trkpt>
      <trkpt lat="47.01562" lon="-1.0544">
        <ele>111</ele>
        <time>2011-12-11T07:50:43Z</time>
      </trkpt>
      <trkpt lat="47.0156" lon="-1.05438">
        <ele>111</ele>
        <time>2011-12-11T07:50:45Z</time>
      </trkpt>
      <trkpt lat="47.01558" lon="-1.05435">
        <ele>111</ele>
        <time>2011-12-11T07:50:47Z</time>
      </trkpt>
      <trkpt lat="47.01557" lon="-1.05434">
        <ele>111</ele>
        <time>2011-12-11T07:50:48Z</time>
      </trkpt>
      <trkpt lat="47.01555" lon="-1.05431">
        <ele>111</ele>
        <time>2011-12-11T07:50:50Z</time>
      </trkpt>
      <trkpt lat="47.01553" lon="-1.05428">
        <ele>111</ele>
        <time>2011-12-11T07:50:52Z</time>
      </trkpt>
      <trkpt lat="47.01552" lon="-1.05427">
        <ele>111</ele>
        <time>2011-12-11T07:50:53Z</time>
      </trkpt>
      <trkpt lat="47.01551" lon="-1.05425">
        <ele>111</ele>
        <time>2011-12-11T07:50:54Z</time>
      </trkpt>
      <trkpt lat="47.0155" lon="-1.05424">
        <ele>111</ele>
        <time>2011-12-11T07:50:55Z</time>
      </trkpt>
      <trkpt lat="47.01548" lon="-1.05421">
        <ele>111</ele>
        <time>2011-12-11T07:50:57Z</time>
      </trkpt>
      <trkpt lat="47.01547" lon="-1.05419">
        <ele>111</ele>
        <time>2011-12-11T07:50:59Z</time>
      </trkpt>
      <trkpt lat="47.01546" lon="-1.05418">
        <ele>111</ele>
        <time>2011-12-11T07:51:00Z</time>
      </trkpt>
      <trkpt lat="47.01545" lon="-1.05416">
        <ele>111</ele>
        <time>2011-12-11T07:51:01Z</time>
      </trkpt>
      <trkpt lat="47.01544" lon="-1.05414">
        <ele>111</ele>
        <time>2011-12-11T07:51:02Z</time>
      </trkpt>
      <trkpt lat="47.01543" lon="-1.05413">
        <ele>111</ele>
        <time>2011-12-11T07:51:03Z</time>
      </trkpt>
      <trkpt lat="47.01541" lon="-1.0541">
        <ele>111</ele>
        <time>2011-12-11T07:51:05Z</time>
      </trkpt>
      <trkpt lat="47.0154" lon="-1.05408">
        <ele>111</ele>
        <time>2011-12-11T07:51:07Z</time>
      </trkpt>
      <trkpt lat="47.01538" lon="-1.05405">
        <ele>111</ele>
        <time>2011-12-11T07:51:09Z</time>
      </trkpt>
      <trkpt lat="47.01537" lon="-1.05403">
        <ele>111</ele>
        <time>2011-12-11T07:51:10Z</time>
      </trkpt>
      <trkpt lat="47.01535" lon="-1.05401">
        <ele>111</ele>
        <time>2011-12-11T07:51:12Z</time>
      </trkpt>
      <trkpt lat="47.01533" lon="-1.05398">
        <ele>111</ele>
        <time>2011-12-11T07:51:14Z</time>
      </trkpt>
      <trkpt lat="47.01532" lon="-1.05395">
        <ele>111</ele>
        <time>2011-12-11T07:51:16Z</time>
      </trkpt>
      <trkpt lat="47.01531" lon="-1.05393">
        <ele>111</ele>
        <time>2011-12-11T07:51:17Z</time>
      </trkpt>
      <trkpt lat="47.0153" lon="-1.05391">
        <ele>111</ele>
        <time>2011-12-11T07:51:18Z</time>
      </trkpt>
      <trkpt lat="47.01528" lon="-1.05389">
        <ele>111</ele>
        <time>2011-12-11T07:51:20Z</time>
      </trkpt>
      <trkpt lat="47.01527" lon="-1.05387">
        <ele>111</ele>
        <time>2011-12-11T07:51:21Z</time>
      </trkpt>
      <trkpt lat="47.01526" lon="-1.05385">
        <ele>111</ele>
        <time>2011-12-11T07:51:23Z</time>
      </trkpt>
      <trkpt lat="47.01525" lon="-1.05383">
        <ele>111</ele>
        <time>2011-12-11T07:51:24Z</time>
      </trkpt>
      <trkpt lat="47.01523" lon="-1.05381">
        <ele>111</ele>
        <time>2011-12-11T07:51:26Z</time>
      </trkpt>
      <trkpt lat="47.01521" lon="-1.05378">
        <ele>111</ele>
        <time>2011-12-11T07:51:28Z</time>
      </trkpt>
      <trkpt lat="47.0152" lon="-1.05376">
        <ele>111</ele>
        <time>2011-12-11T07:51:30Z</time>
      </trkpt>
      <trkpt lat="47.01519" lon="-1.05374">
        <ele>111</ele>
        <time>2011-12-11T07:51:31Z</time>
      </trkpt>
      <trkpt lat="47.01518" lon="-1.05373">
        <ele>111</ele>
        <time>2011-12-11T07:51:32Z</time>
      </trkpt>
      <trkpt lat="47.01516" lon="-1.0537">
        <ele>111</ele>
        <time>2011-12-11T07:51:34Z</time>
      </trkpt>
      <trkpt lat="47.01515" lon="-1.05368">
        <ele>111</ele>
        <time>2011-12-11T07:51:35Z</time>
      </trkpt>
      <trkpt lat="47.01514" lon="-1.05367">
        <ele>111</ele>
        <time>2011-12-11T07:51:36Z</time>
      </trkpt>
      <trkpt lat="47.01514" lon="-1.05365">
        <ele>111</ele>
        <time>2011-12-11T07:51:37Z</time>
      </trkpt>
      <trkpt lat="47.01513" lon="-1.05364">
        <ele>111</ele>
        <time>2011-12-11T07:51:38Z</time>
      </trkpt>
      <trkpt lat="47.01511" lon="-1.05361">
        <ele>111</ele>
        <time>2011-12-11T07:51:40Z</time>
      </trkpt>
      <trkpt lat="47.01511" lon="-1.05359">
        <ele>111</ele>
        <time>2011-12-11T07:51:41Z</time>
      </trkpt>
      <trkpt lat="47.0151" lon="-1.05358">
        <ele>111</ele>
        <time>2011-12-11T07:51:42Z</time>
      </trkpt>
      <trkpt lat="47.01508" lon="-1.05355">
        <ele>111</ele>
        <time>2011-12-11T07:51:44Z</time>
      </trkpt>
      <trkpt lat="47.01507" lon="-1.05353">
        <ele>111</ele>
        <time>2011-12-11T07:51:45Z</time>
      </trkpt>
      <trkpt lat="47.01506" lon="-1.05351">
        <ele>111</ele>
        <time>2011-12-11T07:51:46Z</time>
      </trkpt>
      <trkpt lat="47.01506" lon="-1.0535">
        <ele>111</ele>
        <time>2011-12-11T07:51:47Z</time>
      </trkpt>
      <trkpt lat="47.01505" lon="-1.05349">
        <ele>111</ele>
        <time>2011-12-11T07:51:48Z</time>
      </trkpt>
      <trkpt lat="47.01504" lon="-1.05347">
        <ele>111</ele>
        <time>2011-12-11T07:51:49Z</time>
      </trkpt>
      <trkpt lat="47.01503" lon="-1.05345">
        <ele>111</ele>
        <time>2011-12-11T07:51:50Z</time>
      </trkpt>
      <trkpt lat="47.01502" lon="-1.05344">
        <ele>111</ele>
        <time>2011-12-11T07:51:51Z</time>
      </trkpt>
      <trkpt lat="47.01501" lon="-1.05342">
        <ele>111</ele>
        <time>2011-12-11T07:51:52Z</time>
      </trkpt>
      <trkpt lat="47.015" lon="-1.05341">
        <ele>111</ele>
        <time>2011-12-11T07:51:53Z</time>
      </trkpt>
      <trkpt lat="47.015" lon="-1.05339">
        <ele>111</ele>
        <time>2011-12-11T07:51:54Z</time>
      </trkpt>
      <trkpt lat="47.01499" lon="-1.05337">
        <ele>111</ele>
        <time>2011-12-11T07:51:55Z</time>
      </trkpt>
      <trkpt lat="47.01497" lon="-1.05335">
        <ele>111</ele>
        <time>2011-12-11T07:51:57Z</time>
      </trkpt>
      <trkpt lat="47.01497" lon="-1.05333">
        <ele>111</ele>
        <time>2011-12-11T07:51:58Z</time>
      </trkpt>
      <trkpt lat="47.01496" lon="-1.05332">
        <ele>111</ele>
        <time>2011-12-11T07:51:59Z</time>
      </trkpt>
      <trkpt lat="47.01495" lon="-1.0533">
        <ele>111</ele>
        <time>2011-12-11T07:52:00Z</time>
      </trkpt>
      <trkpt lat="47.01494" lon="-1.05328">
        <ele>111</ele>
        <time>2011-12-11T07:52:01Z</time>
      </trkpt>
      <trkpt lat="47.01493" lon="-1.05327">
        <ele>111</ele>
        <time>2011-12-11T07:52:02Z</time>
      </trkpt>
      <trkpt lat="47.01492" lon="-1.05325">
        <ele>111</ele>
        <time>2011-12-11T07:52:03Z</time>
      </trkpt>
      <trkpt lat="47.01492" lon="-1.05324">
        <ele>111</ele>
        <time>2011-12-11T07:52:04Z</time>
      </trkpt>
      <trkpt lat="47.01491" lon="-1.05322">
        <ele>111</ele>
        <time>2011-12-11T07:52:05Z</time>
      </trkpt>
      <trkpt lat="47.0149" lon="-1.0532">
        <ele>111</ele>
        <time>2011-12-11T07:52:06Z</time>
      </trkpt>
      <trkpt lat="47.01489" lon="-1.05319">
        <ele>111</ele>
        <time>2011-12-11T07:52:07Z</time>
      </trkpt>
      <trkpt lat="47.01488" lon="-1.05317">
        <ele>111</ele>
        <time>2011-12-11T07:52:08Z</time>
      </trkpt>
      <trkpt lat="47.01487" lon="-1.05315">
        <ele>111</ele>
        <time>2011-12-11T07:52:09Z</time>
      </trkpt>
      <trkpt lat="47.01486" lon="-1.05314">
        <ele>111</ele>
        <time>2011-12-11T07:52:10Z</time>
      </trkpt>
      <trkpt lat="47.01485" lon="-1.05312">
        <ele>111</ele>
        <time>2011-12-11T07:52:11Z</time>
      </trkpt>
      <trkpt lat="47.01485" lon="-1.05311">
        <ele>111</ele>
        <time>2011-12-11T07:52:12Z</time>
      </trkpt>
      <trkpt lat="47.01484" lon="-1.05309">
        <ele>111</ele>
        <time>2011-12-11T07:52:13Z</time>
      </trkpt>
      <trkpt lat="47.01483" lon="-1.05307">
        <ele>111</ele>
        <time>2011-12-11T07:52:14Z</time>
      </trkpt>
      <trkpt lat="47.01482" lon="-1.05306">
        <ele>111</ele>
        <time>2011-12-11T07:52:15Z</time>
      </trkpt>
      <trkpt lat="47.01482" lon="-1.05305">
        <ele>111</ele>
        <time>2011-12-11T07:52:16Z</time>
      </trkpt>
      <trkpt lat="47.01481" lon="-1.05303">
        <ele>111</ele>
        <time>2011-12-11T07:52:17Z</time>
      </trkpt>
      <trkpt lat="47.0148" lon="-1.05301">
        <ele>111</ele>
        <time>2011-12-11T07:52:18Z</time>
      </trkpt>
      <trkpt lat="47.01479" lon="-1.053">
        <ele>111</ele>
        <time>2011-12-11T07:52:19Z</time>
      </trkpt>
      <trkpt lat="47.01478" lon="-1.05298">
        <ele>111</ele>
        <time>2011-12-11T07:52:20Z</time>
      </trkpt>
      <trkpt lat="47.01477" lon="-1.05297">
        <ele>111</ele>
        <time>2011-12-11T07:52:21Z</time>
      </trkpt>
      <trkpt lat="47.01477" lon="-1.05295">
        <ele>111</ele>
        <time>2011-12-11T07:52:22Z</time>
      </trkpt>
      <trkpt lat="47.01475" lon="-1.05292">
        <ele>111</ele>
        <time>2011-12-11T07:52:24Z</time>
      </trkpt>
      <trkpt lat="47.01474" lon="-1.05291">
        <ele>111</ele>
        <time>2011-12-11T07:52:25Z</time>
      </trkpt>
      <trkpt lat="47.01474" lon="-1.05289">
        <ele>111</ele>
        <time>2011-12-11T07:52:26Z</time>
      </trkpt>
      <trkpt lat="47.01473" lon="-1.05288">
        <ele>111</ele>
        <time>2011-12-11T07:52:27Z</time>
      </trkpt>
      <trkpt lat="47.01472" lon="-1.05286">
        <ele>111</ele>
        <time>2011-12-11T07:52:28Z</time>
      </trkpt>
      <trkpt lat="47.01471" lon="-1.05285">
        <ele>111</ele>
        <time>2011-12-11T07:52:29Z</time>
      </trkpt>
      <trkpt lat="47.0147" lon="-1.05283">
        <ele>111</ele>
        <time>2011-12-11T07:52:30Z</time>
      </trkpt>
      <trkpt lat="47.01469" lon="-1.05282">
        <ele>111</ele>
        <time>2011-12-11T07:52:31Z</time>
      </trkpt>
      <trkpt lat="47.01469" lon="-1.0528">
        <ele>111</ele>
        <time>2011-12-11T07:52:32Z</time>
      </trkpt>
      <trkpt lat="47.01467" lon="-1.05277">
        <ele>111</ele>
        <time>2011-12-11T07:52:34Z</time>
      </trkpt>
      <trkpt lat="47.01466" lon="-1.05276">
        <ele>111</ele>
        <time>2011-12-11T07:52:35Z</time>
      </trkpt>
      <trkpt lat="47.01465" lon="-1.05274">
        <ele>111</ele>
        <time>2011-12-11T07:52:36Z</time>
      </trkpt>
      <trkpt lat="47.01464" lon="-1.05272">
        <ele>111</ele>
        <time>2011-12-11T07:52:37Z</time>
      </trkpt>
      <trkpt lat="47.01464" lon="-1.05271">
        <ele>111</ele>
        <time>2011-12-11T07:52:38Z</time>
      </trkpt>
      <trkpt lat="47.01463" lon="-1.05269">
        <ele>111</ele>
        <time>2011-12-11T07:52:39Z</time>
      </trkpt>
      <trkpt lat="47.01461" lon="-1.05266">
        <ele>111</ele>
        <time>2011-12-11T07:52:41Z</time>
      </trkpt>
      <trkpt lat="47.0146" lon="-1.05264">
        <ele>111</ele>
        <time>2011-12-11T07:52:43Z</time>
      </trkpt>
      <trkpt lat="47.01459" lon="-1.05261">
        <ele>111</ele>
        <time>2011-12-11T07:52:45Z</time>
      </trkpt>
      <trkpt lat="47.01458" lon="-1.05259">
        <ele>111</ele>
        <time>2011-12-11T07:52:46Z</time>
      </trkpt>
      <trkpt lat="47.01457" lon="-1.05258">
        <ele>111</ele>
        <time>2011-12-11T07:52:47Z</time>
      </trkpt>
      <trkpt lat="47.01456" lon="-1.05256">
        <ele>111</ele>
        <time>2011-12-11T07:52:48Z</time>
      </trkpt>
      <trkpt lat="47.01456" lon="-1.05255">
        <ele>111</ele>
        <time>2011-12-11T07:52:49Z</time>
      </trkpt>
      <trkpt lat="47.01455" lon="-1.05253">
        <ele>111</ele>
        <time>2011-12-11T07:52:50Z</time>
      </trkpt>
      <trkpt lat="47.01454" lon="-1.05252">
        <ele>111</ele>
        <time>2011-12-11T07:52:51Z</time>
      </trkpt>
      <trkpt lat="47.01453" lon="-1.0525">
        <ele>111</ele>
        <time>2011-12-11T07:52:52Z</time>
      </trkpt>
      <trkpt lat="47.01452" lon="-1.05248">
        <ele>111</ele>
        <time>2011-12-11T07:52:53Z</time>
      </trkpt>
      <trkpt lat="47.01452" lon="-1.05247">
        <ele>111</ele>
        <time>2011-12-11T07:52:54Z</time>
      </trkpt>
      <trkpt lat="47.01451" lon="-1.05245">
        <ele>111</ele>
        <time>2011-12-11T07:52:55Z</time>
      </trkpt>
      <trkpt lat="47.0145" lon="-1.05244">
        <ele>111</ele>
        <time>2011-12-11T07:52:56Z</time>
      </trkpt>
      <trkpt lat="47.01449" lon="-1.05242">
        <ele>111</ele>
        <time>2011-12-11T07:52:57Z</time>
      </trkpt>
      <trkpt lat="47.01448" lon="-1.05241">
        <ele>111</ele>
        <time>2011-12-11T07:52:58Z</time>
      </trkpt>
      <trkpt lat="47.01448" lon="-1.05239">
        <ele>111</ele>
        <time>2011-12-11T07:52:59Z</time>
      </trkpt>
      <trkpt lat="47.01447" lon="-1.05237">
        <ele>111</ele>
        <time>2011-12-11T07:53:00Z</time>
      </trkpt>
      <trkpt lat="47.01446" lon="-1.05236">
        <ele>111</ele>
        <time>2011-12-11T07:53:01Z</time>
      </trkpt>
      <trkpt lat="47.01445" lon="-1.05234">
        <ele>111</ele>
        <time>2011-12-11T07:53:02Z</time>
      </trkpt>
      <trkpt lat="47.01445" lon="-1.05233">
        <ele>111</ele>
        <time>2011-12-11T07:53:03Z</time>
      </trkpt>
      <trkpt lat="47.01444" lon="-1.05231">
        <ele>111</ele>
        <time>2011-12-11T07:53:04Z</time>
      </trkpt>
      <trkpt lat="47.01443" lon="-1.0523">
        <ele>111</ele>
        <time>2011-12-11T07:53:05Z</time>
      </trkpt>
      <trkpt lat="47.01443" lon="-1.05228">
        <ele>111</ele>
        <time>2011-12-11T07:53:06Z</time>
      </trkpt>
      <trkpt lat="47.01442" lon="-1.05227">
        <ele>111</ele>
        <time>2011-12-11T07:53:07Z</time>
      </trkpt>
      <trkpt lat="47.01441" lon="-1.05225">
        <ele>111</ele>
        <time>2011-12-11T07:53:08Z</time>
      </trkpt>
      <trkpt lat="47.0144" lon="-1.05223">
        <ele>111</ele>
        <time>2011-12-11T07:53:09Z</time>
      </trkpt>
      <trkpt lat="47.0144" lon="-1.05221">
        <ele>111</ele>
        <time>2011-12-11T07:53:10Z</time>
      </trkpt>
      <trkpt lat="47.01439" lon="-1.0522">
        <ele>111</ele>
        <time>2011-12-11T07:53:11Z</time>
      </trkpt>
      <trkpt lat="47.01438" lon="-1.05218">
        <ele>111</ele>
        <time>2011-12-11T07:53:12Z</time>
      </trkpt>
      <trkpt lat="47.01437" lon="-1.05216">
        <ele>111</ele>
        <time>2011-12-11T07:53:13Z</time>
      </trkpt>
      <trkpt lat="47.01437" lon="-1.05215">
        <ele>111</ele>
        <time>2011-12-11T07:53:14Z</time>
      </trkpt>
      <trkpt lat="47.01436" lon="-1.05213">
        <ele>111</ele>
        <time>2011-12-11T07:53:15Z</time>
      </trkpt>
      <trkpt lat="47.01435" lon="-1.05211">
        <ele>112</ele>
        <time>2011-12-11T07:53:16Z</time>
      </trkpt>
      <trkpt lat="47.01435" lon="-1.0521">
        <ele>112</ele>
        <time>2011-12-11T07:53:17Z</time>
      </trkpt>
      <trkpt lat="47.01434" lon="-1.05208">
        <ele>112</ele>
        <time>2011-12-11T07:53:18Z</time>
      </trkpt>
      <trkpt lat="47.01434" lon="-1.05207">
        <ele>112</ele>
        <time>2011-12-11T07:53:19Z</time>
      </trkpt>
      <trkpt lat="47.01433" lon="-1.05205">
        <ele>112</ele>
        <time>2011-12-11T07:53:20Z</time>
      </trkpt>
      <trkpt lat="47.01432" lon="-1.05204">
        <ele>112</ele>
        <time>2011-12-11T07:53:21Z</time>
      </trkpt>
      <trkpt lat="47.01432" lon="-1.05202">
        <ele>112</ele>
        <time>2011-12-11T07:53:22Z</time>
      </trkpt>
      <trkpt lat="47.01431" lon="-1.052">
        <ele>112</ele>
        <time>2011-12-11T07:53:23Z</time>
      </trkpt>
      <trkpt lat="47.0143" lon="-1.05199">
        <ele>112</ele>
        <time>2011-12-11T07:53:24Z</time>
      </trkpt>
      <trkpt lat="47.01429" lon="-1.05197">
        <ele>112</ele>
        <time>2011-12-11T07:53:25Z</time>
      </trkpt>
      <trkpt lat="47.01428" lon="-1.05196">
        <ele>112</ele>
        <time>2011-12-11T07:53:26Z</time>
      </trkpt>
      <trkpt lat="47.01428" lon="-1.05194">
        <ele>112</ele>
        <time>2011-12-11T07:53:27Z</time>
      </trkpt>
      <trkpt lat="47.01427" lon="-1.05193">
        <ele>112</ele>
        <time>2011-12-11T07:53:28Z</time>
      </trkpt>
      <trkpt lat="47.01426" lon="-1.05191">
        <ele>112</ele>
        <time>2011-12-11T07:53:29Z</time>
      </trkpt>
      <trkpt lat="47.01426" lon="-1.0519">
        <ele>112</ele>
        <time>2011-12-11T07:53:30Z</time>
      </trkpt>
      <trkpt lat="47.01425" lon="-1.05188">
        <ele>112</ele>
        <time>2011-12-11T07:53:31Z</time>
      </trkpt>
      <trkpt lat="47.01424" lon="-1.05185">
        <ele>112</ele>
        <time>2011-12-11T07:53:33Z</time>
      </trkpt>
      <trkpt lat="47.01423" lon="-1.05183">
        <ele>113</ele>
        <time>2011-12-11T07:53:34Z</time>
      </trkpt>
      <trkpt lat="47.01422" lon="-1.05182">
        <ele>113</ele>
        <time>2011-12-11T07:53:35Z</time>
      </trkpt>
      <trkpt lat="47.01421" lon="-1.0518">
        <ele>113</ele>
        <time>2011-12-11T07:53:36Z</time>
      </trkpt>
      <trkpt lat="47.01421" lon="-1.05178">
        <ele>113</ele>
        <time>2011-12-11T07:53:37Z</time>
      </trkpt>
      <trkpt lat="47.0142" lon="-1.05177">
        <ele>113</ele>
        <time>2011-12-11T07:53:38Z</time>
      </trkpt>
      <trkpt lat="47.01419" lon="-1.05175">
        <ele>113</ele>
        <time>2011-12-11T07:53:39Z</time>
      </trkpt>
      <trkpt lat="47.01419" lon="-1.05174">
        <ele>113</ele>
        <time>2011-12-11T07:53:40Z</time>
      </trkpt>
      <trkpt lat="47.01418" lon="-1.05172">
        <ele>113</ele>
        <time>2011-12-11T07:53:41Z</time>
      </trkpt>
      <trkpt lat="47.01417" lon="-1.0517">
        <ele>113</ele>
        <time>2011-12-11T07:53:42Z</time>
      </trkpt>
      <trkpt lat="47.01416" lon="-1.05169">
        <ele>113</ele>
        <time>2011-12-11T07:53:43Z</time>
      </trkpt>
      <trkpt lat="47.01416" lon="-1.05167">
        <ele>113</ele>
        <time>2011-12-11T07:53:44Z</time>
      </trkpt>
      <trkpt lat="47.01415" lon="-1.05166">
        <ele>113</ele>
        <time>2011-12-11T07:53:45Z</time>
      </trkpt>
      <trkpt lat="47.01414" lon="-1.05164">
        <ele>113</ele>
        <time>2011-12-11T07:53:46Z</time>
      </trkpt>
      <trkpt lat="47.01414" lon="-1.05163">
        <ele>113</ele>
        <time>2011-12-11T07:53:47Z</time>
      </trkpt>
      <trkpt lat="47.01413" lon="-1.05161">
        <ele>113</ele>
        <time>2011-12-11T07:53:48Z</time>
      </trkpt>
      <trkpt lat="47.01412" lon="-1.05159">
        <ele>113</ele>
        <time>2011-12-11T07:53:49Z</time>
      </trkpt>
      <trkpt lat="47.01412" lon="-1.05157">
        <ele>113</ele>
        <time>2011-12-11T07:53:50Z</time>
      </trkpt>
      <trkpt lat="47.01411" lon="-1.05156">
        <ele>113</ele>
        <time>2011-12-11T07:53:51Z</time>
      </trkpt>
      <trkpt lat="47.0141" lon="-1.05154">
        <ele>113</ele>
        <time>2011-12-11T07:53:52Z</time>
      </trkpt>
      <trkpt lat="47.0141" lon="-1.05153">
        <ele>113</ele>
        <time>2011-12-11T07:53:53Z</time>
      </trkpt>
      <trkpt lat="47.01409" lon="-1.05151">
        <ele>113</ele>
        <time>2011-12-11T07:53:54Z</time>
      </trkpt>
      <trkpt lat="47.01408" lon="-1.0515">
        <ele>113</ele>
        <time>2011-12-11T07:53:55Z</time>
      </trkpt>
      <trkpt lat="47.01408" lon="-1.05148">
        <ele>114</ele>
        <time>2011-12-11T07:53:56Z</time>
      </trkpt>
      <trkpt lat="47.01407" lon="-1.05147">
        <ele>114</ele>
        <time>2011-12-11T07:53:57Z</time>
      </trkpt>
      <trkpt lat="47.01406" lon="-1.05145">
        <ele>114</ele>
        <time>2011-12-11T07:53:58Z</time>
      </trkpt>
      <trkpt lat="47.01405" lon="-1.05143">
        <ele>114</ele>
        <time>2011-12-11T07:53:59Z</time>
      </trkpt>
      <trkpt lat="47.01405" lon="-1.05142">
        <ele>114</ele>
        <time>2011-12-11T07:54:00Z</time>
      </trkpt>
      <trkpt lat="47.01404" lon="-1.0514">
        <ele>114</ele>
        <time>2011-12-11T07:54:01Z</time>
      </trkpt>
      <trkpt lat="47.01403" lon="-1.05139">
        <ele>114</ele>
        <time>2011-12-11T07:54:02Z</time>
      </trkpt>
      <trkpt lat="47.01402" lon="-1.05137">
        <ele>114</ele>
        <time>2011-12-11T07:54:03Z</time>
      </trkpt>
      <trkpt lat="47.01402" lon="-1.05136">
        <ele>114</ele>
        <time>2011-12-11T07:54:04Z</time>
      </trkpt>
      <trkpt lat="47.01401" lon="-1.05134">
        <ele>114</ele>
        <time>2011-12-11T07:54:05Z</time>
      </trkpt>
      <trkpt lat="47.014" lon="-1.05132">
        <ele>114</ele>
        <time>2011-12-11T07:54:06Z</time>
      </trkpt>
      <trkpt lat="47.014" lon="-1.05131">
        <ele>114</ele>
        <time>2011-12-11T07:54:07Z</time>
      </trkpt>
      <trkpt lat="47.01399" lon="-1.05129">
        <ele>114</ele>
        <time>2011-12-11T07:54:08Z</time>
      </trkpt>
      <trkpt lat="47.01398" lon="-1.05128">
        <ele>114</ele>
        <time>2011-12-11T07:54:09Z</time>
      </trkpt>
      <trkpt lat="47.01397" lon="-1.05126">
        <ele>114</ele>
        <time>2011-12-11T07:54:10Z</time>
      </trkpt>
      <trkpt lat="47.01397" lon="-1.05125">
        <ele>114</ele>
        <time>2011-12-11T07:54:11Z</time>
      </trkpt>
      <trkpt lat="47.01396" lon="-1.05123">
        <ele>114</ele>
        <time>2011-12-11T07:54:12Z</time>
      </trkpt>
      <trkpt lat="47.01395" lon="-1.05122">
        <ele>114</ele>
        <time>2011-12-11T07:54:13Z</time>
      </trkpt>
      <trkpt lat="47.01394" lon="-1.0512">
        <ele>114</ele>
        <time>2011-12-11T07:54:14Z</time>
      </trkpt>
      <trkpt lat="47.01394" lon="-1.05119">
        <ele>114</ele>
        <time>2011-12-11T07:54:15Z</time>
      </trkpt>
      <trkpt lat="47.01392" lon="-1.05116">
        <ele>114</ele>
        <time>2011-12-11T07:54:17Z</time>
      </trkpt>
      <trkpt lat="47.0139" lon="-1.05113">
        <ele>114</ele>
        <time>2011-12-11T07:54:19Z</time>
      </trkpt>
      <trkpt lat="47.01388" lon="-1.05111">
        <ele>114</ele>
        <time>2011-12-11T07:54:21Z</time>
      </trkpt>
      <trkpt lat="47.01387" lon="-1.05108">
        <ele>114</ele>
        <time>2011-12-11T07:54:23Z</time>
      </trkpt>
      <trkpt lat="47.01385" lon="-1.05106">
        <ele>114</ele>
        <time>2011-12-11T07:54:25Z</time>
      </trkpt>
      <trkpt lat="47.01384" lon="-1.05103">
        <ele>114</ele>
        <time>2011-12-11T07:54:27Z</time>
      </trkpt>
      <trkpt lat="47.01382" lon="-1.05102">
        <ele>114</ele>
        <time>2011-12-11T07:54:28Z</time>
      </trkpt>
      <trkpt lat="47.01382" lon="-1.051">
        <ele>114</ele>
        <time>2011-12-11T07:54:29Z</time>
      </trkpt>
      <trkpt lat="47.0138" lon="-1.05098">
        <ele>114</ele>
        <time>2011-12-11T07:54:31Z</time>
      </trkpt>
      <trkpt lat="47.01378" lon="-1.05095">
        <ele>114</ele>
        <time>2011-12-11T07:54:33Z</time>
      </trkpt>
      <trkpt lat="47.01376" lon="-1.05093">
        <ele>114</ele>
        <time>2011-12-11T07:54:35Z</time>
      </trkpt>
      <trkpt lat="47.01375" lon="-1.0509">
        <ele>114</ele>
        <time>2011-12-11T07:54:37Z</time>
      </trkpt>
      <trkpt lat="47.01373" lon="-1.05088">
        <ele>114</ele>
        <time>2011-12-11T07:54:39Z</time>
      </trkpt>
      <trkpt lat="47.01371" lon="-1.05085">
        <ele>114</ele>
        <time>2011-12-11T07:54:41Z</time>
      </trkpt>
      <trkpt lat="47.01369" lon="-1.05082">
        <ele>114</ele>
        <time>2011-12-11T07:54:43Z</time>
      </trkpt>
      <trkpt lat="47.01368" lon="-1.05079">
        <ele>114</ele>
        <time>2011-12-11T07:54:45Z</time>
      </trkpt>
      <trkpt lat="47.01367" lon="-1.05078">
        <ele>114</ele>
        <time>2011-12-11T07:54:46Z</time>
      </trkpt>
      <trkpt lat="47.01366" lon="-1.05077">
        <ele>114</ele>
        <time>2011-12-11T07:54:47Z</time>
      </trkpt>
      <trkpt lat="47.01365" lon="-1.05075">
        <ele>114</ele>
        <time>2011-12-11T07:54:48Z</time>
      </trkpt>
      <trkpt lat="47.01364" lon="-1.05073">
        <ele>114</ele>
        <time>2011-12-11T07:54:49Z</time>
      </trkpt>
      <trkpt lat="47.01363" lon="-1.05071">
        <ele>114</ele>
        <time>2011-12-11T07:54:50Z</time>
      </trkpt>
      <trkpt lat="47.01362" lon="-1.0507">
        <ele>114</ele>
        <time>2011-12-11T07:54:51Z</time>
      </trkpt>
      <trkpt lat="47.01361" lon="-1.05069">
        <ele>114</ele>
        <time>2011-12-11T07:54:52Z</time>
      </trkpt>
      <trkpt lat="47.0136" lon="-1.05066">
        <ele>114</ele>
        <time>2011-12-11T07:54:54Z</time>
      </trkpt>
      <trkpt lat="47.01358" lon="-1.05063">
        <ele>114</ele>
        <time>2011-12-11T07:54:56Z</time>
      </trkpt>
      <trkpt lat="47.01358" lon="-1.05062">
        <ele>114</ele>
        <time>2011-12-11T07:54:57Z</time>
      </trkpt>
      <trkpt lat="47.01357" lon="-1.0506">
        <ele>114</ele>
        <time>2011-12-11T07:54:58Z</time>
      </trkpt>
      <trkpt lat="47.01356" lon="-1.05059">
        <ele>114</ele>
        <time>2011-12-11T07:54:59Z</time>
      </trkpt>
      <trkpt lat="47.01354" lon="-1.05056">
        <ele>114</ele>
        <time>2011-12-11T07:55:01Z</time>
      </trkpt>
      <trkpt lat="47.01353" lon="-1.05054">
        <ele>114</ele>
        <time>2011-12-11T07:55:02Z</time>
      </trkpt>
      <trkpt lat="47.01353" lon="-1.05053">
        <ele>114</ele>
        <time>2011-12-11T07:55:03Z</time>
      </trkpt>
      <trkpt lat="47.01352" lon="-1.05051">
        <ele>114</ele>
        <time>2011-12-11T07:55:04Z</time>
      </trkpt>
      <trkpt lat="47.01351" lon="-1.0505">
        <ele>114</ele>
        <time>2011-12-11T07:55:05Z</time>
      </trkpt>
      <trkpt lat="47.0135" lon="-1.05047">
        <ele>114</ele>
        <time>2011-12-11T07:55:07Z</time>
      </trkpt>
      <trkpt lat="47.01348" lon="-1.05044">
        <ele>114</ele>
        <time>2011-12-11T07:55:09Z</time>
      </trkpt>
      <trkpt lat="47.01347" lon="-1.05042">
        <ele>114</ele>
        <time>2011-12-11T07:55:11Z</time>
      </trkpt>
      <trkpt lat="47.01346" lon="-1.0504">
        <ele>114</ele>
        <time>2011-12-11T07:55:12Z</time>
      </trkpt>
      <trkpt lat="47.01345" lon="-1.05038">
        <ele>114</ele>
        <time>2011-12-11T07:55:13Z</time>
      </trkpt>
      <trkpt lat="47.01345" lon="-1.05036">
        <ele>114</ele>
        <time>2011-12-11T07:55:14Z</time>
      </trkpt>
      <trkpt lat="47.01344" lon="-1.05035">
        <ele>114</ele>
        <time>2011-12-11T07:55:15Z</time>
      </trkpt>
      <trkpt lat="47.01343" lon="-1.05033">
        <ele>114</ele>
        <time>2011-12-11T07:55:16Z</time>
      </trkpt>
      <trkpt lat="47.01342" lon="-1.05032">
        <ele>114</ele>
        <time>2011-12-11T07:55:17Z</time>
      </trkpt>
      <trkpt lat="47.01342" lon="-1.0503">
        <ele>114</ele>
        <time>2011-12-11T07:55:18Z</time>
      </trkpt>
      <trkpt lat="47.01341" lon="-1.05028">
        <ele>114</ele>
        <time>2011-12-11T07:55:19Z</time>
      </trkpt>
      <trkpt lat="47.0134" lon="-1.05027">
        <ele>114</ele>
        <time>2011-12-11T07:55:20Z</time>
      </trkpt>
      <trkpt lat="47.0134" lon="-1.05025">
        <ele>114</ele>
        <time>2011-12-11T07:55:21Z</time>
      </trkpt>
      <trkpt lat="47.01339" lon="-1.05023">
        <ele>114</ele>
        <time>2011-12-11T07:55:22Z</time>
      </trkpt>
      <trkpt lat="47.01339" lon="-1.05022">
        <ele>114</ele>
        <time>2011-12-11T07:55:23Z</time>
      </trkpt>
      <trkpt lat="47.01338" lon="-1.0502">
        <ele>114</ele>
        <time>2011-12-11T07:55:24Z</time>
      </trkpt>
      <trkpt lat="47.01337" lon="-1.05018">
        <ele>114</ele>
        <time>2011-12-11T07:55:25Z</time>
      </trkpt>
      <trkpt lat="47.01337" lon="-1.05016">
        <ele>114</ele>
        <time>2011-12-11T07:55:26Z</time>
      </trkpt>
      <trkpt lat="47.01336" lon="-1.05015">
        <ele>114</ele>
        <time>2011-12-11T07:55:27Z</time>
      </trkpt>
      <trkpt lat="47.01336" lon="-1.05013">
        <ele>114</ele>
        <time>2011-12-11T07:55:28Z</time>
      </trkpt>
      <trkpt lat="47.01335" lon="-1.05011">
        <ele>114</ele>
        <time>2011-12-11T07:55:29Z</time>
      </trkpt>
      <trkpt lat="47.01334" lon="-1.0501">
        <ele>114</ele>
        <time>2011-12-11T07:55:30Z</time>
      </trkpt>
      <trkpt lat="47.01334" lon="-1.05008">
        <ele>114</ele>
        <time>2011-12-11T07:55:31Z</time>
      </trkpt>
      <trkpt lat="47.01333" lon="-1.05006">
        <ele>114</ele>
        <time>2011-12-11T07:55:32Z</time>
      </trkpt>
      <trkpt lat="47.01332" lon="-1.05004">
        <ele>114</ele>
        <time>2011-12-11T07:55:33Z</time>
      </trkpt>
      <trkpt lat="47.01332" lon="-1.05002">
        <ele>114</ele>
        <time>2011-12-11T07:55:34Z</time>
      </trkpt>
      <trkpt lat="47.01331" lon="-1.05">
        <ele>114</ele>
        <time>2011-12-11T07:55:35Z</time>
      </trkpt>
      <trkpt lat="47.01331" lon="-1.04999">
        <ele>114</ele>
        <time>2011-12-11T07:55:36Z</time>
      </trkpt>
      <trkpt lat="47.0133" lon="-1.04997">
        <ele>114</ele>
        <time>2011-12-11T07:55:37Z</time>
      </trkpt>
      <trkpt lat="47.01329" lon="-1.04995">
        <ele>114</ele>
        <time>2011-12-11T07:55:38Z</time>
      </trkpt>
      <trkpt lat="47.01329" lon="-1.04993">
        <ele>114</ele>
        <time>2011-12-11T07:55:39Z</time>
      </trkpt>
      <trkpt lat="47.01328" lon="-1.04991">
        <ele>114</ele>
        <time>2011-12-11T07:55:40Z</time>
      </trkpt>
      <trkpt lat="47.01328" lon="-1.0499">
        <ele>114</ele>
        <time>2011-12-11T07:55:41Z</time>
      </trkpt>
      <trkpt lat="47.01327" lon="-1.04988">
        <ele>114</ele>
        <time>2011-12-11T07:55:42Z</time>
      </trkpt>
      <trkpt lat="47.01326" lon="-1.04986">
        <ele>114</ele>
        <time>2011-12-11T07:55:43Z</time>
      </trkpt>
      <trkpt lat="47.01326" lon="-1.04985">
        <ele>114</ele>
        <time>2011-12-11T07:55:44Z</time>
      </trkpt>
      <trkpt lat="47.01325" lon="-1.04983">
        <ele>114</ele>
        <time>2011-12-11T07:55:45Z</time>
      </trkpt>
      <trkpt lat="47.01324" lon="-1.04981">
        <ele>114</ele>
        <time>2011-12-11T07:55:46Z</time>
      </trkpt>
      <trkpt lat="47.01324" lon="-1.04979">
        <ele>114</ele>
        <time>2011-12-11T07:55:47Z</time>
      </trkpt>
      <trkpt lat="47.01323" lon="-1.04978">
        <ele>114</ele>
        <time>2011-12-11T07:55:48Z</time>
      </trkpt>
      <trkpt lat="47.01323" lon="-1.04976">
        <ele>114</ele>
        <time>2011-12-11T07:55:49Z</time>
      </trkpt>
      <trkpt lat="47.01322" lon="-1.04974">
        <ele>114</ele>
        <time>2011-12-11T07:55:50Z</time>
      </trkpt>
      <trkpt lat="47.01321" lon="-1.04972">
        <ele>114</ele>
        <time>2011-12-11T07:55:51Z</time>
      </trkpt>
      <trkpt lat="47.01321" lon="-1.0497">
        <ele>114</ele>
        <time>2011-12-11T07:55:52Z</time>
      </trkpt>
      <trkpt lat="47.0132" lon="-1.04968">
        <ele>114</ele>
        <time>2011-12-11T07:55:53Z</time>
      </trkpt>
      <trkpt lat="47.01319" lon="-1.04966">
        <ele>114</ele>
        <time>2011-12-11T07:55:54Z</time>
      </trkpt>
      <trkpt lat="47.01318" lon="-1.04965">
        <ele>114</ele>
        <time>2011-12-11T07:55:55Z</time>
      </trkpt>
      <trkpt lat="47.01318" lon="-1.04963">
        <ele>114</ele>
        <time>2011-12-11T07:55:56Z</time>
      </trkpt>
      <trkpt lat="47.01317" lon="-1.04961">
        <ele>114</ele>
        <time>2011-12-11T07:55:57Z</time>
      </trkpt>
      <trkpt lat="47.01316" lon="-1.0496">
        <ele>114</ele>
        <time>2011-12-11T07:55:58Z</time>
      </trkpt>
      <trkpt lat="47.01316" lon="-1.04958">
        <ele>114</ele>
        <time>2011-12-11T07:55:59Z</time>
      </trkpt>
      <trkpt lat="47.01315" lon="-1.04956">
        <ele>114</ele>
        <time>2011-12-11T07:56:00Z</time>
      </trkpt>
      <trkpt lat="47.01315" lon="-1.04954">
        <ele>114</ele>
        <time>2011-12-11T07:56:01Z</time>
      </trkpt>
      <trkpt lat="47.01314" lon="-1.04952">
        <ele>114</ele>
        <time>2011-12-11T07:56:02Z</time>
      </trkpt>
      <trkpt lat="47.01314" lon="-1.04951">
        <ele>114</ele>
        <time>2011-12-11T07:56:03Z</time>
      </trkpt>
      <trkpt lat="47.01313" lon="-1.04949">
        <ele>114</ele>
        <time>2011-12-11T07:56:04Z</time>
      </trkpt>
      <trkpt lat="47.01312" lon="-1.04947">
        <ele>114</ele>
        <time>2011-12-11T07:56:05Z</time>
      </trkpt>
      <trkpt lat="47.01311" lon="-1.04945">
        <ele>114</ele>
        <time>2011-12-11T07:56:07Z</time>
      </trkpt>
      <trkpt lat="47.0131" lon="-1.04943">
        <ele>114</ele>
        <time>2011-12-11T07:56:08Z</time>
      </trkpt>
      <trkpt lat="47.01309" lon="-1.04941">
        <ele>114</ele>
        <time>2011-12-11T07:56:09Z</time>
      </trkpt>
      <trkpt lat="47.01308" lon="-1.0494">
        <ele>114</ele>
        <time>2011-12-11T07:56:10Z</time>
      </trkpt>
      <trkpt lat="47.01307" lon="-1.04937">
        <ele>114</ele>
        <time>2011-12-11T07:56:12Z</time>
      </trkpt>
      <trkpt lat="47.01306" lon="-1.04935">
        <ele>114</ele>
        <time>2011-12-11T07:56:13Z</time>
      </trkpt>
      <trkpt lat="47.01305" lon="-1.04934">
        <ele>114</ele>
        <time>2011-12-11T07:56:14Z</time>
      </trkpt>
      <trkpt lat="47.01305" lon="-1.04932">
        <ele>114</ele>
        <time>2011-12-11T07:56:15Z</time>
      </trkpt>
      <trkpt lat="47.01304" lon="-1.0493">
        <ele>114</ele>
        <time>2011-12-11T07:56:16Z</time>
      </trkpt>
      <trkpt lat="47.01303" lon="-1.04927">
        <ele>114</ele>
        <time>2011-12-11T07:56:18Z</time>
      </trkpt>
      <trkpt lat="47.01302" lon="-1.04926">
        <ele>114</ele>
        <time>2011-12-11T07:56:19Z</time>
      </trkpt>
      <trkpt lat="47.01301" lon="-1.04924">
        <ele>114</ele>
        <time>2011-12-11T07:56:20Z</time>
      </trkpt>
      <trkpt lat="47.013" lon="-1.04922">
        <ele>114</ele>
        <time>2011-12-11T07:56:21Z</time>
      </trkpt>
      <trkpt lat="47.01299" lon="-1.0492">
        <ele>114</ele>
        <time>2011-12-11T07:56:22Z</time>
      </trkpt>
      <trkpt lat="47.01298" lon="-1.04919">
        <ele>114</ele>
        <time>2011-12-11T07:56:23Z</time>
      </trkpt>
      <trkpt lat="47.01297" lon="-1.04917">
        <ele>114</ele>
        <time>2011-12-11T07:56:24Z</time>
      </trkpt>
      <trkpt lat="47.01297" lon="-1.04916">
        <ele>114</ele>
        <time>2011-12-11T07:56:25Z</time>
      </trkpt>
      <trkpt lat="47.01296" lon="-1.04914">
        <ele>114</ele>
        <time>2011-12-11T07:56:26Z</time>
      </trkpt>
      <trkpt lat="47.01295" lon="-1.04913">
        <ele>114</ele>
        <time>2011-12-11T07:56:27Z</time>
      </trkpt>
      <trkpt lat="47.01294" lon="-1.04911">
        <ele>114</ele>
        <time>2011-12-11T07:56:28Z</time>
      </trkpt>
      <trkpt lat="47.01294" lon="-1.0491">
        <ele>114</ele>
        <time>2011-12-11T07:56:29Z</time>
      </trkpt>
      <trkpt lat="47.01293" lon="-1.04908">
        <ele>114</ele>
        <time>2011-12-11T07:56:30Z</time>
      </trkpt>
      <trkpt lat="47.01292" lon="-1.04907">
        <ele>114</ele>
        <time>2011-12-11T07:56:31Z</time>
      </trkpt>
      <trkpt lat="47.01291" lon="-1.04905">
        <ele>114</ele>
        <time>2011-12-11T07:56:32Z</time>
      </trkpt>
      <trkpt lat="47.01291" lon="-1.04904">
        <ele>114</ele>
        <time>2011-12-11T07:56:33Z</time>
      </trkpt>
      <trkpt lat="47.0129" lon="-1.04902">
        <ele>114</ele>
        <time>2011-12-11T07:56:34Z</time>
      </trkpt>
      <trkpt lat="47.01289" lon="-1.04901">
        <ele>114</ele>
        <time>2011-12-11T07:56:35Z</time>
      </trkpt>
      <trkpt lat="47.01289" lon="-1.04899">
        <ele>114</ele>
        <time>2011-12-11T07:56:36Z</time>
      </trkpt>
      <trkpt lat="47.01289" lon="-1.04896">
        <ele>114</ele>
        <time>2011-12-11T07:56:37Z</time>
      </trkpt>
      <trkpt lat="47.01288" lon="-1.04895">
        <ele>114</ele>
        <time>2011-12-11T07:56:38Z</time>
      </trkpt>
      <trkpt lat="47.01287" lon="-1.04893">
        <ele>114</ele>
        <time>2011-12-11T07:56:39Z</time>
      </trkpt>
      <trkpt lat="47.01286" lon="-1.04891">
        <ele>114</ele>
        <time>2011-12-11T07:56:40Z</time>
      </trkpt>
      <trkpt lat="47.01285" lon="-1.0489">
        <ele>114</ele>
        <time>2011-12-11T07:56:41Z</time>
      </trkpt>
      <trkpt lat="47.01284" lon="-1.04888">
        <ele>114</ele>
        <time>2011-12-11T07:56:42Z</time>
      </trkpt>
      <trkpt lat="47.01284" lon="-1.04886">
        <ele>114</ele>
        <time>2011-12-11T07:56:43Z</time>
      </trkpt>
      <trkpt lat="47.01283" lon="-1.04885">
        <ele>114</ele>
        <time>2011-12-11T07:56:44Z</time>
      </trkpt>
      <trkpt lat="47.01282" lon="-1.04883">
        <ele>114</ele>
        <time>2011-12-11T07:56:45Z</time>
      </trkpt>
      <trkpt lat="47.01281" lon="-1.04881">
        <ele>114</ele>
        <time>2011-12-11T07:56:46Z</time>
      </trkpt>
      <trkpt lat="47.0128" lon="-1.04879">
        <ele>114</ele>
        <time>2011-12-11T07:56:47Z</time>
      </trkpt>
      <trkpt lat="47.01279" lon="-1.04877">
        <ele>114</ele>
        <time>2011-12-11T07:56:48Z</time>
      </trkpt>
      <trkpt lat="47.01279" lon="-1.04876">
        <ele>114</ele>
        <time>2011-12-11T07:56:49Z</time>
      </trkpt>
      <trkpt lat="47.01278" lon="-1.04874">
        <ele>114</ele>
        <time>2011-12-11T07:56:50Z</time>
      </trkpt>
      <trkpt lat="47.01277" lon="-1.04873">
        <ele>114</ele>
        <time>2011-12-11T07:56:51Z</time>
      </trkpt>
      <trkpt lat="47.01276" lon="-1.04871">
        <ele>114</ele>
        <time>2011-12-11T07:56:52Z</time>
      </trkpt>
      <trkpt lat="47.01275" lon="-1.04869">
        <ele>114</ele>
        <time>2011-12-11T07:56:53Z</time>
      </trkpt>
      <trkpt lat="47.01274" lon="-1.04868">
        <ele>114</ele>
        <time>2011-12-11T07:56:54Z</time>
      </trkpt>
      <trkpt lat="47.01273" lon="-1.04866">
        <ele>114</ele>
        <time>2011-12-11T07:56:55Z</time>
      </trkpt>
      <trkpt lat="47.01273" lon="-1.04864">
        <ele>114</ele>
        <time>2011-12-11T07:56:56Z</time>
      </trkpt>
      <trkpt lat="47.01272" lon="-1.04863">
        <ele>114</ele>
        <time>2011-12-11T07:56:57Z</time>
      </trkpt>
      <trkpt lat="47.01271" lon="-1.04861">
        <ele>114</ele>
        <time>2011-12-11T07:56:58Z</time>
      </trkpt>
      <trkpt lat="47.01271" lon="-1.04859">
        <ele>114</ele>
        <time>2011-12-11T07:56:59Z</time>
      </trkpt>
      <trkpt lat="47.0127" lon="-1.04858">
        <ele>114</ele>
        <time>2011-12-11T07:57:00Z</time>
      </trkpt>
      <trkpt lat="47.01269" lon="-1.04856">
        <ele>114</ele>
        <time>2011-12-11T07:57:01Z</time>
      </trkpt>
      <trkpt lat="47.01268" lon="-1.04855">
        <ele>114</ele>
        <time>2011-12-11T07:57:02Z</time>
      </trkpt>
      <trkpt lat="47.01268" lon="-1.04853">
        <ele>114</ele>
        <time>2011-12-11T07:57:03Z</time>
      </trkpt>
      <trkpt lat="47.01267" lon="-1.04851">
        <ele>114</ele>
        <time>2011-12-11T07:57:04Z</time>
      </trkpt>
      <trkpt lat="47.01266" lon="-1.0485">
        <ele>114</ele>
        <time>2011-12-11T07:57:05Z</time>
      </trkpt>
      <trkpt lat="47.01265" lon="-1.04848">
        <ele>114</ele>
        <time>2011-12-11T07:57:06Z</time>
      </trkpt>
      <trkpt lat="47.01264" lon="-1.04845">
        <ele>114</ele>
        <time>2011-12-11T07:57:08Z</time>
      </trkpt>
      <trkpt lat="47.01263" lon="-1.04843">
        <ele>114</ele>
        <time>2011-12-11T07:57:09Z</time>
      </trkpt>
      <trkpt lat="47.01263" lon="-1.04841">
        <ele>114</ele>
        <time>2011-12-11T07:57:10Z</time>
      </trkpt>
      <trkpt lat="47.01262" lon="-1.0484">
        <ele>114</ele>
        <time>2011-12-11T07:57:11Z</time>
      </trkpt>
      <trkpt lat="47.01261" lon="-1.04838">
        <ele>114</ele>
        <time>2011-12-11T07:57:12Z</time>
      </trkpt>
      <trkpt lat="47.0126" lon="-1.04836">
        <ele>114</ele>
        <time>2011-12-11T07:57:13Z</time>
      </trkpt>
      <trkpt lat="47.0126" lon="-1.04835">
        <ele>114</ele>
        <time>2011-12-11T07:57:14Z</time>
      </trkpt>
      <trkpt lat="47.01259" lon="-1.04833">
        <ele>114</ele>
        <time>2011-12-11T07:57:15Z</time>
      </trkpt>
      <trkpt lat="47.01258" lon="-1.04831">
        <ele>114</ele>
        <time>2011-12-11T07:57:16Z</time>
      </trkpt>
      <trkpt lat="47.01257" lon="-1.0483">
        <ele>114</ele>
        <time>2011-12-11T07:57:17Z</time>
      </trkpt>
      <trkpt lat="47.01257" lon="-1.04828">
        <ele>114</ele>
        <time>2011-12-11T07:57:18Z</time>
      </trkpt>
      <trkpt lat="47.01256" lon="-1.04826">
        <ele>114</ele>
        <time>2011-12-11T07:57:19Z</time>
      </trkpt>
      <trkpt lat="47.01255" lon="-1.04825">
        <ele>114</ele>
        <time>2011-12-11T07:57:20Z</time>
      </trkpt>
      <trkpt lat="47.01255" lon="-1.04823">
        <ele>114</ele>
        <time>2011-12-11T07:57:21Z</time>
      </trkpt>
      <trkpt lat="47.01254" lon="-1.04822">
        <ele>114</ele>
        <time>2011-12-11T07:57:22Z</time>
      </trkpt>
      <trkpt lat="47.01254" lon="-1.0482">
        <ele>114</ele>
        <time>2011-12-11T07:57:23Z</time>
      </trkpt>
      <trkpt lat="47.01253" lon="-1.04818">
        <ele>114</ele>
        <time>2011-12-11T07:57:24Z</time>
      </trkpt>
      <trkpt lat="47.01252" lon="-1.04816">
        <ele>114</ele>
        <time>2011-12-11T07:57:25Z</time>
      </trkpt>
      <trkpt lat="47.01252" lon="-1.04815">
        <ele>114</ele>
        <time>2011-12-11T07:57:26Z</time>
      </trkpt>
      <trkpt lat="47.01251" lon="-1.04813">
        <ele>114</ele>
        <time>2011-12-11T07:57:27Z</time>
      </trkpt>
      <trkpt lat="47.0125" lon="-1.04811">
        <ele>114</ele>
        <time>2011-12-11T07:57:28Z</time>
      </trkpt>
      <trkpt lat="47.01249" lon="-1.0481">
        <ele>114</ele>
        <time>2011-12-11T07:57:29Z</time>
      </trkpt>
      <trkpt lat="47.01249" lon="-1.04808">
        <ele>114</ele>
        <time>2011-12-11T07:57:30Z</time>
      </trkpt>
      <trkpt lat="47.01248" lon="-1.04806">
        <ele>114</ele>
        <time>2011-12-11T07:57:31Z</time>
      </trkpt>
      <trkpt lat="47.01247" lon="-1.04805">
        <ele>114</ele>
        <time>2011-12-11T07:57:32Z</time>
      </trkpt>
      <trkpt lat="47.01247" lon="-1.04803">
        <ele>114</ele>
        <time>2011-12-11T07:57:33Z</time>
      </trkpt>
      <trkpt lat="47.01246" lon="-1.04801">
        <ele>114</ele>
        <time>2011-12-11T07:57:34Z</time>
      </trkpt>
      <trkpt lat="47.01245" lon="-1.048">
        <ele>114</ele>
        <time>2011-12-11T07:57:35Z</time>
      </trkpt>
      <trkpt lat="47.01244" lon="-1.04798">
        <ele>114</ele>
        <time>2011-12-11T07:57:36Z</time>
      </trkpt>
      <trkpt lat="47.01243" lon="-1.04797">
        <ele>114</ele>
        <time>2011-12-11T07:57:37Z</time>
      </trkpt>
      <trkpt lat="47.01242" lon="-1.04795">
        <ele>114</ele>
        <time>2011-12-11T07:57:38Z</time>
      </trkpt>
      <trkpt lat="47.01242" lon="-1.04793">
        <ele>114</ele>
        <time>2011-12-11T07:57:39Z</time>
      </trkpt>
      <trkpt lat="47.0124" lon="-1.0479">
        <ele>114</ele>
        <time>2011-12-11T07:57:41Z</time>
      </trkpt>
      <trkpt lat="47.01239" lon="-1.04788">
        <ele>114</ele>
        <time>2011-12-11T07:57:43Z</time>
      </trkpt>
      <trkpt lat="47.01239" lon="-1.04786">
        <ele>113</ele>
        <time>2011-12-11T07:57:44Z</time>
      </trkpt>
      <trkpt lat="47.01238" lon="-1.04784">
        <ele>113</ele>
        <time>2011-12-11T07:57:45Z</time>
      </trkpt>
      <trkpt lat="47.01237" lon="-1.04782">
        <ele>112</ele>
        <time>2011-12-11T07:57:46Z</time>
      </trkpt>
      <trkpt lat="47.01237" lon="-1.04781">
        <ele>112</ele>
        <time>2011-12-11T07:57:47Z</time>
      </trkpt>
      <trkpt lat="47.01236" lon="-1.04779">
        <ele>112</ele>
        <time>2011-12-11T07:57:48Z</time>
      </trkpt>
      <trkpt lat="47.01235" lon="-1.04777">
        <ele>112</ele>
        <time>2011-12-11T07:57:49Z</time>
      </trkpt>
      <trkpt lat="47.01235" lon="-1.04776">
        <ele>112</ele>
        <time>2011-12-11T07:57:50Z</time>
      </trkpt>
      <trkpt lat="47.01234" lon="-1.04774">
        <ele>112</ele>
        <time>2011-12-11T07:57:51Z</time>
      </trkpt>
      <trkpt lat="47.01233" lon="-1.04772">
        <ele>112</ele>
        <time>2011-12-11T07:57:52Z</time>
      </trkpt>
      <trkpt lat="47.01233" lon="-1.04771">
        <ele>112</ele>
        <time>2011-12-11T07:57:53Z</time>
      </trkpt>
      <trkpt lat="47.01232" lon="-1.04769">
        <ele>112</ele>
        <time>2011-12-11T07:57:54Z</time>
      </trkpt>
      <trkpt lat="47.01231" lon="-1.04767">
        <ele>112</ele>
        <time>2011-12-11T07:57:55Z</time>
      </trkpt>
      <trkpt lat="47.01231" lon="-1.04765">
        <ele>112</ele>
        <time>2011-12-11T07:57:56Z</time>
      </trkpt>
      <trkpt lat="47.01231" lon="-1.04764">
        <ele>112</ele>
        <time>2011-12-11T07:57:57Z</time>
      </trkpt>
      <trkpt lat="47.0123" lon="-1.04762">
        <ele>112</ele>
        <time>2011-12-11T07:57:58Z</time>
      </trkpt>
      <trkpt lat="47.01229" lon="-1.0476">
        <ele>112</ele>
        <time>2011-12-11T07:57:59Z</time>
      </trkpt>
      <trkpt lat="47.01229" lon="-1.04759">
        <ele>112</ele>
        <time>2011-12-11T07:58:00Z</time>
      </trkpt>
      <trkpt lat="47.01228" lon="-1.04757">
        <ele>112</ele>
        <time>2011-12-11T07:58:01Z</time>
      </trkpt>
      <trkpt lat="47.01228" lon="-1.04755">
        <ele>112</ele>
        <time>2011-12-11T07:58:02Z</time>
      </trkpt>
      <trkpt lat="47.01227" lon="-1.04754">
        <ele>112</ele>
        <time>2011-12-11T07:58:03Z</time>
      </trkpt>
      <trkpt lat="47.01226" lon="-1.04752">
        <ele>112</ele>
        <time>2011-12-11T07:58:04Z</time>
      </trkpt>
      <trkpt lat="47.01226" lon="-1.0475">
        <ele>112</ele>
        <time>2011-12-11T07:58:05Z</time>
      </trkpt>
      <trkpt lat="47.01225" lon="-1.04748">
        <ele>112</ele>
        <time>2011-12-11T07:58:06Z</time>
      </trkpt>
      <trkpt lat="47.01224" lon="-1.04746">
        <ele>112</ele>
        <time>2011-12-11T07:58:07Z</time>
      </trkpt>
      <trkpt lat="47.01224" lon="-1.04745">
        <ele>112</ele>
        <time>2011-12-11T07:58:08Z</time>
      </trkpt>
      <trkpt lat="47.01223" lon="-1.04743">
        <ele>112</ele>
        <time>2011-12-11T07:58:09Z</time>
      </trkpt>
      <trkpt lat="47.01223" lon="-1.04742">
        <ele>112</ele>
        <time>2011-12-11T07:58:10Z</time>
      </trkpt>
      <trkpt lat="47.01222" lon="-1.0474">
        <ele>112</ele>
        <time>2011-12-11T07:58:11Z</time>
      </trkpt>
      <trkpt lat="47.01221" lon="-1.04738">
        <ele>112</ele>
        <time>2011-12-11T07:58:12Z</time>
      </trkpt>
      <trkpt lat="47.01221" lon="-1.04736">
        <ele>112</ele>
        <time>2011-12-11T07:58:13Z</time>
      </trkpt>
      <trkpt lat="47.0122" lon="-1.04735">
        <ele>112</ele>
        <time>2011-12-11T07:58:14Z</time>
      </trkpt>
      <trkpt lat="47.0122" lon="-1.04733">
        <ele>112</ele>
        <time>2011-12-11T07:58:15Z</time>
      </trkpt>
      <trkpt lat="47.01219" lon="-1.04731">
        <ele>112</ele>
        <time>2011-12-11T07:58:16Z</time>
      </trkpt>
      <trkpt lat="47.01218" lon="-1.04729">
        <ele>112</ele>
        <time>2011-12-11T07:58:17Z</time>
      </trkpt>
      <trkpt lat="47.01218" lon="-1.04728">
        <ele>112</ele>
        <time>2011-12-11T07:58:18Z</time>
      </trkpt>
      <trkpt lat="47.01217" lon="-1.04726">
        <ele>112</ele>
        <time>2011-12-11T07:58:19Z</time>
      </trkpt>
      <trkpt lat="47.01216" lon="-1.04725">
        <ele>112</ele>
        <time>2011-12-11T07:58:20Z</time>
      </trkpt>
      <trkpt lat="47.01215" lon="-1.04722">
        <ele>112</ele>
        <time>2011-12-11T07:58:22Z</time>
      </trkpt>
      <trkpt lat="47.01212" lon="-1.0472">
        <ele>112</ele>
        <time>2011-12-11T07:58:24Z</time>
      </trkpt>
      <trkpt lat="47.01211" lon="-1.04719">
        <ele>112</ele>
        <time>2011-12-11T07:58:25Z</time>
      </trkpt>
      <trkpt lat="47.0121" lon="-1.04718">
        <ele>112</ele>
        <time>2011-12-11T07:58:26Z</time>
      </trkpt>
      <trkpt lat="47.01209" lon="-1.04718">
        <ele>112</ele>
        <time>2011-12-11T07:58:27Z</time>
      </trkpt>
      <trkpt lat="47.01207" lon="-1.04717">
        <ele>112</ele>
        <time>2011-12-11T07:58:28Z</time>
      </trkpt>
      <trkpt lat="47.01206" lon="-1.04716">
        <ele>112</ele>
        <time>2011-12-11T07:58:29Z</time>
      </trkpt>
      <trkpt lat="47.01205" lon="-1.04716">
        <ele>112</ele>
        <time>2011-12-11T07:58:30Z</time>
      </trkpt>
      <trkpt lat="47.01204" lon="-1.04716">
        <ele>112</ele>
        <time>2011-12-11T07:58:31Z</time>
      </trkpt>
      <trkpt lat="47.01202" lon="-1.04716">
        <ele>112</ele>
        <time>2011-12-11T07:58:32Z</time>
      </trkpt>
      <trkpt lat="47.01201" lon="-1.04716">
        <ele>112</ele>
        <time>2011-12-11T07:58:33Z</time>
      </trkpt>
      <trkpt lat="47.01199" lon="-1.04716">
        <ele>112</ele>
        <time>2011-12-11T07:58:34Z</time>
      </trkpt>
      <trkpt lat="47.01198" lon="-1.04716">
        <ele>112</ele>
        <time>2011-12-11T07:58:35Z</time>
      </trkpt>
      <trkpt lat="47.01197" lon="-1.04716">
        <ele>111</ele>
        <time>2011-12-11T07:58:36Z</time>
      </trkpt>
      <trkpt lat="47.01196" lon="-1.04717">
        <ele>111</ele>
        <time>2011-12-11T07:58:37Z</time>
      </trkpt>
      <trkpt lat="47.01194" lon="-1.04717">
        <ele>111</ele>
        <time>2011-12-11T07:58:38Z</time>
      </trkpt>
      <trkpt lat="47.01193" lon="-1.04718">
        <ele>111</ele>
        <time>2011-12-11T07:58:39Z</time>
      </trkpt>
      <trkpt lat="47.01192" lon="-1.04718">
        <ele>111</ele>
        <time>2011-12-11T07:58:40Z</time>
      </trkpt>
      <trkpt lat="47.01191" lon="-1.04718">
        <ele>111</ele>
        <time>2011-12-11T07:58:41Z</time>
      </trkpt>
      <trkpt lat="47.01189" lon="-1.04718">
        <ele>111</ele>
        <time>2011-12-11T07:58:42Z</time>
      </trkpt>
      <trkpt lat="47.01188" lon="-1.04719">
        <ele>111</ele>
        <time>2011-12-11T07:58:43Z</time>
      </trkpt>
      <trkpt lat="47.01186" lon="-1.04719">
        <ele>111</ele>
        <time>2011-12-11T07:58:44Z</time>
      </trkpt>
      <trkpt lat="47.01185" lon="-1.0472">
        <ele>111</ele>
        <time>2011-12-11T07:58:45Z</time>
      </trkpt>
      <trkpt lat="47.01184" lon="-1.0472">
        <ele>111</ele>
        <time>2011-12-11T07:58:46Z</time>
      </trkpt>
      <trkpt lat="47.01183" lon="-1.0472">
        <ele>111</ele>
        <time>2011-12-11T07:58:47Z</time>
      </trkpt>
      <trkpt lat="47.01181" lon="-1.0472">
        <ele>111</ele>
        <time>2011-12-11T07:58:48Z</time>
      </trkpt>
      <trkpt lat="47.0118" lon="-1.0472">
        <ele>111</ele>
        <time>2011-12-11T07:58:49Z</time>
      </trkpt>
      <trkpt lat="47.01179" lon="-1.04721">
        <ele>111</ele>
        <time>2011-12-11T07:58:50Z</time>
      </trkpt>
      <trkpt lat="47.01178" lon="-1.04721">
        <ele>111</ele>
        <time>2011-12-11T07:58:51Z</time>
      </trkpt>
      <trkpt lat="47.01176" lon="-1.04721">
        <ele>111</ele>
        <time>2011-12-11T07:58:52Z</time>
      </trkpt>
      <trkpt lat="47.01175" lon="-1.04722">
        <ele>111</ele>
        <time>2011-12-11T07:58:53Z</time>
      </trkpt>
      <trkpt lat="47.01173" lon="-1.04722">
        <ele>111</ele>
        <time>2011-12-11T07:58:54Z</time>
      </trkpt>
      <trkpt lat="47.01172" lon="-1.04723">
        <ele>111</ele>
        <time>2011-12-11T07:58:55Z</time>
      </trkpt>
      <trkpt lat="47.01171" lon="-1.04723">
        <ele>111</ele>
        <time>2011-12-11T07:58:56Z</time>
      </trkpt>
      <trkpt lat="47.0117" lon="-1.04723">
        <ele>111</ele>
        <time>2011-12-11T07:58:57Z</time>
      </trkpt>
      <trkpt lat="47.01168" lon="-1.04723">
        <ele>111</ele>
        <time>2011-12-11T07:58:58Z</time>
      </trkpt>
      <trkpt lat="47.01167" lon="-1.04724">
        <ele>111</ele>
        <time>2011-12-11T07:58:59Z</time>
      </trkpt>
      <trkpt lat="47.01165" lon="-1.04724">
        <ele>111</ele>
        <time>2011-12-11T07:59:00Z</time>
      </trkpt>
      <trkpt lat="47.01164" lon="-1.04724">
        <ele>111</ele>
        <time>2011-12-11T07:59:01Z</time>
      </trkpt>
      <trkpt lat="47.01163" lon="-1.04725">
        <ele>111</ele>
        <time>2011-12-11T07:59:02Z</time>
      </trkpt>
      <trkpt lat="47.01162" lon="-1.04725">
        <ele>110</ele>
        <time>2011-12-11T07:59:03Z</time>
      </trkpt>
      <trkpt lat="47.01161" lon="-1.04725">
        <ele>110</ele>
        <time>2011-12-11T07:59:04Z</time>
      </trkpt>
      <trkpt lat="47.01159" lon="-1.04725">
        <ele>110</ele>
        <time>2011-12-11T07:59:05Z</time>
      </trkpt>
      <trkpt lat="47.01158" lon="-1.04725">
        <ele>110</ele>
        <time>2011-12-11T07:59:06Z</time>
      </trkpt>
      <trkpt lat="47.01157" lon="-1.04726">
        <ele>110</ele>
        <time>2011-12-11T07:59:07Z</time>
      </trkpt>
      <trkpt lat="47.01155" lon="-1.04726">
        <ele>110</ele>
        <time>2011-12-11T07:59:08Z</time>
      </trkpt>
      <trkpt lat="47.01154" lon="-1.04726">
        <ele>110</ele>
        <time>2011-12-11T07:59:09Z</time>
      </trkpt>
      <trkpt lat="47.01152" lon="-1.04727">
        <ele>110</ele>
        <time>2011-12-11T07:59:10Z</time>
      </trkpt>
      <trkpt lat="47.01151" lon="-1.04727">
        <ele>110</ele>
        <time>2011-12-11T07:59:11Z</time>
      </trkpt>
      <trkpt lat="47.0115" lon="-1.04727">
        <ele>110</ele>
        <time>2011-12-11T07:59:12Z</time>
      </trkpt>
      <trkpt lat="47.01148" lon="-1.04728">
        <ele>110</ele>
        <time>2011-12-11T07:59:13Z</time>
      </trkpt>
      <trkpt lat="47.01147" lon="-1.04728">
        <ele>110</ele>
        <time>2011-12-11T07:59:14Z</time>
      </trkpt>
      <trkpt lat="47.01146" lon="-1.04728">
        <ele>110</ele>
        <time>2011-12-11T07:59:15Z</time>
      </trkpt>
      <trkpt lat="47.01145" lon="-1.04729">
        <ele>110</ele>
        <time>2011-12-11T07:59:16Z</time>
      </trkpt>
      <trkpt lat="47.01144" lon="-1.04729">
        <ele>110</ele>
        <time>2011-12-11T07:59:17Z</time>
      </trkpt>
      <trkpt lat="47.01142" lon="-1.04729">
        <ele>110</ele>
        <time>2011-12-11T07:59:18Z</time>
      </trkpt>
      <trkpt lat="47.01141" lon="-1.04729">
        <ele>110</ele>
        <time>2011-12-11T07:59:19Z</time>
      </trkpt>
      <trkpt lat="47.01139" lon="-1.04729">
        <ele>110</ele>
        <time>2011-12-11T07:59:20Z</time>
      </trkpt>
      <trkpt lat="47.01138" lon="-1.04729">
        <ele>110</ele>
        <time>2011-12-11T07:59:21Z</time>
      </trkpt>
      <trkpt lat="47.01137" lon="-1.0473">
        <ele>110</ele>
        <time>2011-12-11T07:59:22Z</time>
      </trkpt>
      <trkpt lat="47.01135" lon="-1.0473">
        <ele>110</ele>
        <time>2011-12-11T07:59:22Z</time>
      </trkpt>
      <trkpt lat="47.01134" lon="-1.04731">
        <ele>110</ele>
        <time>2011-12-11T07:59:24Z</time>
      </trkpt>
      <trkpt lat="47.01133" lon="-1.04731">
        <ele>109</ele>
        <time>2011-12-11T07:59:25Z</time>
      </trkpt>
      <trkpt lat="47.01131" lon="-1.04732">
        <ele>109</ele>
        <time>2011-12-11T07:59:26Z</time>
      </trkpt>
      <trkpt lat="47.0113" lon="-1.04732">
        <ele>109</ele>
        <time>2011-12-11T07:59:27Z</time>
      </trkpt>
      <trkpt lat="47.01129" lon="-1.04733">
        <ele>109</ele>
        <time>2011-12-11T07:59:28Z</time>
      </trkpt>
      <trkpt lat="47.01127" lon="-1.04733">
        <ele>109</ele>
        <time>2011-12-11T07:59:29Z</time>
      </trkpt>
      <trkpt lat="47.01126" lon="-1.04733">
        <ele>109</ele>
        <time>2011-12-11T07:59:30Z</time>
      </trkpt>
      <trkpt lat="47.01125" lon="-1.04733">
        <ele>109</ele>
        <time>2011-12-11T07:59:31Z</time>
      </trkpt>
      <trkpt lat="47.01123" lon="-1.04734">
        <ele>109</ele>
        <time>2011-12-11T07:59:32Z</time>
      </trkpt>
      <trkpt lat="47.01122" lon="-1.04734">
        <ele>109</ele>
        <time>2011-12-11T07:59:33Z</time>
      </trkpt>
      <trkpt lat="47.0112" lon="-1.04735">
        <ele>109</ele>
        <time>2011-12-11T07:59:34Z</time>
      </trkpt>
      <trkpt lat="47.01119" lon="-1.04735">
        <ele>109</ele>
        <time>2011-12-11T07:59:35Z</time>
      </trkpt>
      <trkpt lat="47.01118" lon="-1.04735">
        <ele>109</ele>
        <time>2011-12-11T07:59:36Z</time>
      </trkpt>
      <trkpt lat="47.01117" lon="-1.04735">
        <ele>109</ele>
        <time>2011-12-11T07:59:37Z</time>
      </trkpt>
      <trkpt lat="47.01114" lon="-1.04736">
        <ele>109</ele>
        <time>2011-12-11T07:59:39Z</time>
      </trkpt>
      <trkpt lat="47.01113" lon="-1.04736">
        <ele>109</ele>
        <time>2011-12-11T07:59:40Z</time>
      </trkpt>
      <trkpt lat="47.01111" lon="-1.04737">
        <ele>109</ele>
        <time>2011-12-11T07:59:42Z</time>
      </trkpt>
      <trkpt lat="47.0111" lon="-1.04737">
        <ele>109</ele>
        <time>2011-12-11T07:59:43Z</time>
      </trkpt>
      <trkpt lat="47.01108" lon="-1.04738">
        <ele>108</ele>
        <time>2011-12-11T07:59:44Z</time>
      </trkpt>
      <trkpt lat="47.01107" lon="-1.04738">
        <ele>108</ele>
        <time>2011-12-11T07:59:45Z</time>
      </trkpt>
      <trkpt lat="47.01106" lon="-1.04738">
        <ele>108</ele>
        <time>2011-12-11T07:59:46Z</time>
      </trkpt>
      <trkpt lat="47.01104" lon="-1.04738">
        <ele>108</ele>
        <time>2011-12-11T07:59:47Z</time>
      </trkpt>
      <trkpt lat="47.01103" lon="-1.04739">
        <ele>108</ele>
        <time>2011-12-11T07:59:48Z</time>
      </trkpt>
      <trkpt lat="47.01102" lon="-1.04739">
        <ele>108</ele>
        <time>2011-12-11T07:59:48Z</time>
      </trkpt>
      <trkpt lat="47.011" lon="-1.04739">
        <ele>108</ele>
        <time>2011-12-11T07:59:50Z</time>
      </trkpt>
      <trkpt lat="47.01099" lon="-1.04739">
        <ele>108</ele>
        <time>2011-12-11T07:59:51Z</time>
      </trkpt>
      <trkpt lat="47.01097" lon="-1.04739">
        <ele>107</ele>
        <time>2011-12-11T07:59:52Z</time>
      </trkpt>
      <trkpt lat="47.01095" lon="-1.04739">
        <ele>107</ele>
        <time>2011-12-11T07:59:54Z</time>
      </trkpt>
      <trkpt lat="47.01094" lon="-1.04739">
        <ele>107</ele>
        <time>2011-12-11T07:59:55Z</time>
      </trkpt>
      <trkpt lat="47.01092" lon="-1.04739">
        <ele>107</ele>
        <time>2011-12-11T07:59:56Z</time>
      </trkpt>
      <trkpt lat="47.01091" lon="-1.0474">
        <ele>107</ele>
        <time>2011-12-11T07:59:57Z</time>
      </trkpt>
      <trkpt lat="47.0109" lon="-1.04739">
        <ele>107</ele>
        <time>2011-12-11T07:59:58Z</time>
      </trkpt>
      <trkpt lat="47.01088" lon="-1.04739">
        <ele>107</ele>
        <time>2011-12-11T07:59:58Z</time>
      </trkpt>
      <trkpt lat="47.01087" lon="-1.04739">
        <ele>107</ele>
        <time>2011-12-11T08:00:00Z</time>
      </trkpt>
      <trkpt lat="47.01086" lon="-1.04739">
        <ele>106</ele>
        <time>2011-12-11T08:00:00Z</time>
      </trkpt>
      <trkpt lat="47.01085" lon="-1.04739">
        <ele>106</ele>
        <time>2011-12-11T08:00:02Z</time>
      </trkpt>
      <trkpt lat="47.01082" lon="-1.04739">
        <ele>106</ele>
        <time>2011-12-11T08:00:03Z</time>
      </trkpt>
      <trkpt lat="47.01081" lon="-1.04739">
        <ele>106</ele>
        <time>2011-12-11T08:00:05Z</time>
      </trkpt>
      <trkpt lat="47.0108" lon="-1.04739">
        <ele>106</ele>
        <time>2011-12-11T08:00:06Z</time>
      </trkpt>
      <trkpt lat="47.01078" lon="-1.04739">
        <ele>106</ele>
        <time>2011-12-11T08:00:07Z</time>
      </trkpt>
      <trkpt lat="47.01077" lon="-1.04739">
        <ele>106</ele>
        <time>2011-12-11T08:00:08Z</time>
      </trkpt>
      <trkpt lat="47.01076" lon="-1.04738">
        <ele>106</ele>
        <time>2011-12-11T08:00:09Z</time>
      </trkpt>
      <trkpt lat="47.01075" lon="-1.04738">
        <ele>105</ele>
        <time>2011-12-11T08:00:10Z</time>
      </trkpt>
      <trkpt lat="47.01072" lon="-1.04738">
        <ele>105</ele>
        <time>2011-12-11T08:00:12Z</time>
      </trkpt>
      <trkpt lat="47.01071" lon="-1.04738">
        <ele>105</ele>
        <time>2011-12-11T08:00:13Z</time>
      </trkpt>
      <trkpt lat="47.0107" lon="-1.04737">
        <ele>104</ele>
        <time>2011-12-11T08:00:14Z</time>
      </trkpt>
      <trkpt lat="47.01068" lon="-1.04737">
        <ele>104</ele>
        <time>2011-12-11T08:00:15Z</time>
      </trkpt>
      <trkpt lat="47.01067" lon="-1.04737">
        <ele>104</ele>
        <time>2011-12-11T08:00:16Z</time>
      </trkpt>
      <trkpt lat="47.01065" lon="-1.04737">
        <ele>104</ele>
        <time>2011-12-11T08:00:17Z</time>
      </trkpt>
      <trkpt lat="47.01064" lon="-1.04737">
        <ele>104</ele>
        <time>2011-12-11T08:00:18Z</time>
      </trkpt>
      <trkpt lat="47.01063" lon="-1.04737">
        <ele>103</ele>
        <time>2011-12-11T08:00:18Z</time>
      </trkpt>
      <trkpt lat="47.01061" lon="-1.04737">
        <ele>103</ele>
        <time>2011-12-11T08:00:20Z</time>
      </trkpt>
      <trkpt lat="47.0106" lon="-1.04737">
        <ele>103</ele>
        <time>2011-12-11T08:00:21Z</time>
      </trkpt>
      <trkpt lat="47.01059" lon="-1.04737">
        <ele>103</ele>
        <time>2011-12-11T08:00:22Z</time>
      </trkpt>
      <trkpt lat="47.01057" lon="-1.04737">
        <ele>103</ele>
        <time>2011-12-11T08:00:23Z</time>
      </trkpt>
      <trkpt lat="47.01056" lon="-1.04737">
        <ele>103</ele>
        <time>2011-12-11T08:00:24Z</time>
      </trkpt>
      <trkpt lat="47.01055" lon="-1.04737">
        <ele>103</ele>
        <time>2011-12-11T08:00:25Z</time>
      </trkpt>
      <trkpt lat="47.01053" lon="-1.04738">
        <ele>102</ele>
        <time>2011-12-11T08:00:27Z</time>
      </trkpt>
      <trkpt lat="47.01051" lon="-1.04738">
        <ele>102</ele>
        <time>2011-12-11T08:00:28Z</time>
      </trkpt>
      <trkpt lat="47.0105" lon="-1.04739">
        <ele>102</ele>
        <time>2011-12-11T08:00:29Z</time>
      </trkpt>
      <trkpt lat="47.01049" lon="-1.0474">
        <ele>102</ele>
        <time>2011-12-11T08:00:30Z</time>
      </trkpt>
      <trkpt lat="47.01048" lon="-1.04741">
        <ele>102</ele>
        <time>2011-12-11T08:00:31Z</time>
      </trkpt>
      <trkpt lat="47.01046" lon="-1.04742">
        <ele>102</ele>
        <time>2011-12-11T08:00:32Z</time>
      </trkpt>
      <trkpt lat="47.01044" lon="-1.04744">
        <ele>102</ele>
        <time>2011-12-11T08:00:34Z</time>
      </trkpt>
      <trkpt lat="47.01043" lon="-1.04745">
        <ele>102</ele>
        <time>2011-12-11T08:00:35Z</time>
      </trkpt>
      <trkpt lat="47.01041" lon="-1.04747">
        <ele>102</ele>
        <time>2011-12-11T08:00:37Z</time>
      </trkpt>
      <trkpt lat="47.01039" lon="-1.04749">
        <ele>102</ele>
        <time>2011-12-11T08:00:39Z</time>
      </trkpt>
      <trkpt lat="47.01037" lon="-1.04751">
        <ele>102</ele>
        <time>2011-12-11T08:00:41Z</time>
      </trkpt>
      <trkpt lat="47.01036" lon="-1.04753">
        <ele>102</ele>
        <time>2011-12-11T08:00:42Z</time>
      </trkpt>
      <trkpt lat="47.01033" lon="-1.04755">
        <ele>102</ele>
        <time>2011-12-11T08:00:44Z</time>
      </trkpt>
      <trkpt lat="47.01032" lon="-1.04756">
        <ele>102</ele>
        <time>2011-12-11T08:00:45Z</time>
      </trkpt>
      <trkpt lat="47.01031" lon="-1.04757">
        <ele>102</ele>
        <time>2011-12-11T08:00:46Z</time>
      </trkpt>
      <trkpt lat="47.0103" lon="-1.04759">
        <ele>102</ele>
        <time>2011-12-11T08:00:47Z</time>
      </trkpt>
      <trkpt lat="47.01028" lon="-1.04761">
        <ele>102</ele>
        <time>2011-12-11T08:00:49Z</time>
      </trkpt>
      <trkpt lat="47.01027" lon="-1.04762">
        <ele>102</ele>
        <time>2011-12-11T08:00:50Z</time>
      </trkpt>
      <trkpt lat="47.01025" lon="-1.04764">
        <ele>102</ele>
        <time>2011-12-11T08:00:52Z</time>
      </trkpt>
      <trkpt lat="47.01022" lon="-1.04766">
        <ele>102</ele>
        <time>2011-12-11T08:00:54Z</time>
      </trkpt>
      <trkpt lat="47.0102" lon="-1.04768">
        <ele>102</ele>
        <time>2011-12-11T08:00:56Z</time>
      </trkpt>
      <trkpt lat="47.01019" lon="-1.0477">
        <ele>102</ele>
        <time>2011-12-11T08:00:58Z</time>
      </trkpt>
      <trkpt lat="47.01017" lon="-1.04771">
        <ele>102</ele>
        <time>2011-12-11T08:00:59Z</time>
      </trkpt>
      <trkpt lat="47.01016" lon="-1.04772">
        <ele>102</ele>
        <time>2011-12-11T08:01:00Z</time>
      </trkpt>
      <trkpt lat="47.01015" lon="-1.04773">
        <ele>102</ele>
        <time>2011-12-11T08:01:01Z</time>
      </trkpt>
      <trkpt lat="47.01014" lon="-1.04774">
        <ele>102</ele>
        <time>2011-12-11T08:01:02Z</time>
      </trkpt>
      <trkpt lat="47.01012" lon="-1.04775">
        <ele>102</ele>
        <time>2011-12-11T08:01:02Z</time>
      </trkpt>
      <trkpt lat="47.01011" lon="-1.04776">
        <ele>102</ele>
        <time>2011-12-11T08:01:04Z</time>
      </trkpt>
      <trkpt lat="47.0101" lon="-1.04777">
        <ele>102</ele>
        <time>2011-12-11T08:01:05Z</time>
      </trkpt>
      <trkpt lat="47.01009" lon="-1.04778">
        <ele>102</ele>
        <time>2011-12-11T08:01:06Z</time>
      </trkpt>
      <trkpt lat="47.01008" lon="-1.04779">
        <ele>102</ele>
        <time>2011-12-11T08:01:07Z</time>
      </trkpt>
      <trkpt lat="47.01006" lon="-1.04781">
        <ele>102</ele>
        <time>2011-12-11T08:01:08Z</time>
      </trkpt>
      <trkpt lat="47.01003" lon="-1.04782">
        <ele>102</ele>
        <time>2011-12-11T08:01:11Z</time>
      </trkpt>
      <trkpt lat="47.01002" lon="-1.04783">
        <ele>102</ele>
        <time>2011-12-11T08:01:12Z</time>
      </trkpt>
      <trkpt lat="47.01001" lon="-1.04784">
        <ele>102</ele>
        <time>2011-12-11T08:01:13Z</time>
      </trkpt>
      <trkpt lat="47.01" lon="-1.04786">
        <ele>102</ele>
        <time>2011-12-11T08:01:14Z</time>
      </trkpt>
      <trkpt lat="47.00999" lon="-1.04787">
        <ele>102</ele>
        <time>2011-12-11T08:01:15Z</time>
      </trkpt>
      <trkpt lat="47.00996" lon="-1.04789">
        <ele>102</ele>
        <time>2011-12-11T08:01:17Z</time>
      </trkpt>
      <trkpt lat="47.00994" lon="-1.04792">
        <ele>102</ele>
        <time>2011-12-11T08:01:19Z</time>
      </trkpt>
      <trkpt lat="47.00993" lon="-1.04793">
        <ele>102</ele>
        <time>2011-12-11T08:01:20Z</time>
      </trkpt>
      <trkpt lat="47.00991" lon="-1.04795">
        <ele>102</ele>
        <time>2011-12-11T08:01:22Z</time>
      </trkpt>
      <trkpt lat="47.00989" lon="-1.04797">
        <ele>102</ele>
        <time>2011-12-11T08:01:23Z</time>
      </trkpt>
      <trkpt lat="47.00987" lon="-1.048">
        <ele>102</ele>
        <time>2011-12-11T08:01:25Z</time>
      </trkpt>
      <trkpt lat="47.00985" lon="-1.04803">
        <ele>102</ele>
        <time>2011-12-11T08:01:28Z</time>
      </trkpt>
      <trkpt lat="47.00984" lon="-1.04806">
        <ele>102</ele>
        <time>2011-12-11T08:01:29Z</time>
      </trkpt>
      <trkpt lat="47.00983" lon="-1.04807">
        <ele>102</ele>
        <time>2011-12-11T08:01:30Z</time>
      </trkpt>
      <trkpt lat="47.00983" lon="-1.04809">
        <ele>102</ele>
        <time>2011-12-11T08:01:32Z</time>
      </trkpt>
      <trkpt lat="47.00983" lon="-1.04811">
        <ele>102</ele>
        <time>2011-12-11T08:01:33Z</time>
      </trkpt>
      <trkpt lat="47.00983" lon="-1.04813">
        <ele>102</ele>
        <time>2011-12-11T08:01:33Z</time>
      </trkpt>
      <trkpt lat="47.00983" lon="-1.04814">
        <ele>101</ele>
        <time>2011-12-11T08:01:35Z</time>
      </trkpt>
      <trkpt lat="47.00983" lon="-1.04816">
        <ele>101</ele>
        <time>2011-12-11T08:01:36Z</time>
      </trkpt>
      <trkpt lat="47.00983" lon="-1.04817">
        <ele>101</ele>
        <time>2011-12-11T08:01:37Z</time>
      </trkpt>
      <trkpt lat="47.00982" lon="-1.04819">
        <ele>101</ele>
        <time>2011-12-11T08:01:38Z</time>
      </trkpt>
      <trkpt lat="47.00983" lon="-1.04821">
        <ele>101</ele>
        <time>2011-12-11T08:01:39Z</time>
      </trkpt>
      <trkpt lat="47.00983" lon="-1.04822">
        <ele>101</ele>
        <time>2011-12-11T08:01:40Z</time>
      </trkpt>
      <trkpt lat="47.00983" lon="-1.04824">
        <ele>101</ele>
        <time>2011-12-11T08:01:41Z</time>
      </trkpt>
      <trkpt lat="47.00983" lon="-1.04826">
        <ele>101</ele>
        <time>2011-12-11T08:01:42Z</time>
      </trkpt>
      <trkpt lat="47.00983" lon="-1.04828">
        <ele>101</ele>
        <time>2011-12-11T08:01:43Z</time>
      </trkpt>
      <trkpt lat="47.00983" lon="-1.04829">
        <ele>101</ele>
        <time>2011-12-11T08:01:44Z</time>
      </trkpt>
      <trkpt lat="47.00984" lon="-1.04831">
        <ele>101</ele>
        <time>2011-12-11T08:01:44Z</time>
      </trkpt>
      <trkpt lat="47.00984" lon="-1.04833">
        <ele>101</ele>
        <time>2011-12-11T08:01:46Z</time>
      </trkpt>
      <trkpt lat="47.00985" lon="-1.04835">
        <ele>101</ele>
        <time>2011-12-11T08:01:47Z</time>
      </trkpt>
      <trkpt lat="47.00985" lon="-1.04837">
        <ele>101</ele>
        <time>2011-12-11T08:01:49Z</time>
      </trkpt>
      <trkpt lat="47.00985" lon="-1.04839">
        <ele>101</ele>
        <time>2011-12-11T08:01:50Z</time>
      </trkpt>
      <trkpt lat="47.00985" lon="-1.04841">
        <ele>101</ele>
        <time>2011-12-11T08:01:50Z</time>
      </trkpt>
      <trkpt lat="47.00985" lon="-1.04842">
        <ele>101</ele>
        <time>2011-12-11T08:01:51Z</time>
      </trkpt>
      <trkpt lat="47.00985" lon="-1.04844">
        <ele>101</ele>
        <time>2011-12-11T08:01:53Z</time>
      </trkpt>
      <trkpt lat="47.00985" lon="-1.04847">
        <ele>101</ele>
        <time>2011-12-11T08:01:53Z</time>
      </trkpt>
      <trkpt lat="47.00985" lon="-1.04849">
        <ele>101</ele>
        <time>2011-12-11T08:01:55Z</time>
      </trkpt>
      <trkpt lat="47.00986" lon="-1.0485">
        <ele>101</ele>
        <time>2011-12-11T08:01:56Z</time>
      </trkpt>
      <trkpt lat="47.00986" lon="-1.04852">
        <ele>101</ele>
        <time>2011-12-11T08:01:57Z</time>
      </trkpt>
      <trkpt lat="47.00986" lon="-1.04854">
        <ele>101</ele>
        <time>2011-12-11T08:01:58Z</time>
      </trkpt>
      <trkpt lat="47.00986" lon="-1.04856">
        <ele>101</ele>
        <time>2011-12-11T08:01:58Z</time>
      </trkpt>
      <trkpt lat="47.00987" lon="-1.04857">
        <ele>101</ele>
        <time>2011-12-11T08:02:00Z</time>
      </trkpt>
      <trkpt lat="47.00987" lon="-1.04859">
        <ele>101</ele>
        <time>2011-12-11T08:02:01Z</time>
      </trkpt>
      <trkpt lat="47.00987" lon="-1.04861">
        <ele>101</ele>
        <time>2011-12-11T08:02:02Z</time>
      </trkpt>
      <trkpt lat="47.00987" lon="-1.04862">
        <ele>101</ele>
        <time>2011-12-11T08:02:03Z</time>
      </trkpt>
      <trkpt lat="47.00988" lon="-1.04864">
        <ele>101</ele>
        <time>2011-12-11T08:02:04Z</time>
      </trkpt>
      <trkpt lat="47.00988" lon="-1.04866">
        <ele>101</ele>
        <time>2011-12-11T08:02:05Z</time>
      </trkpt>
      <trkpt lat="47.00988" lon="-1.04867">
        <ele>101</ele>
        <time>2011-12-11T08:02:05Z</time>
      </trkpt>
      <trkpt lat="47.00988" lon="-1.04869">
        <ele>101</ele>
        <time>2011-12-11T08:02:06Z</time>
      </trkpt>
      <trkpt lat="47.00988" lon="-1.04871">
        <ele>101</ele>
        <time>2011-12-11T08:02:08Z</time>
      </trkpt>
      <trkpt lat="47.00988" lon="-1.04873">
        <ele>101</ele>
        <time>2011-12-11T08:02:09Z</time>
      </trkpt>
      <trkpt lat="47.00988" lon="-1.04875">
        <ele>101</ele>
        <time>2011-12-11T08:02:10Z</time>
      </trkpt>
      <trkpt lat="47.00988" lon="-1.04876">
        <ele>101</ele>
        <time>2011-12-11T08:02:10Z</time>
      </trkpt>
      <trkpt lat="47.00989" lon="-1.04878">
        <ele>101</ele>
        <time>2011-12-11T08:02:11Z</time>
      </trkpt>
      <trkpt lat="47.00988" lon="-1.0488">
        <ele>101</ele>
        <time>2011-12-11T08:02:13Z</time>
      </trkpt>
      <trkpt lat="47.00988" lon="-1.04882">
        <ele>101</ele>
        <time>2011-12-11T08:02:14Z</time>
      </trkpt>
      <trkpt lat="47.00988" lon="-1.04884">
        <ele>101</ele>
        <time>2011-12-11T08:02:14Z</time>
      </trkpt>
      <trkpt lat="47.00988" lon="-1.04885">
        <ele>101</ele>
        <time>2011-12-11T08:02:16Z</time>
      </trkpt>
      <trkpt lat="47.00988" lon="-1.04887">
        <ele>101</ele>
        <time>2011-12-11T08:02:17Z</time>
      </trkpt>
      <trkpt lat="47.00988" lon="-1.04889">
        <ele>101</ele>
        <time>2011-12-11T08:02:18Z</time>
      </trkpt>
      <trkpt lat="47.00989" lon="-1.04891">
        <ele>101</ele>
        <time>2011-12-11T08:02:19Z</time>
      </trkpt>
      <trkpt lat="47.00989" lon="-1.04892">
        <ele>101</ele>
        <time>2011-12-11T08:02:20Z</time>
      </trkpt>
      <trkpt lat="47.00989" lon="-1.04894">
        <ele>101</ele>
        <time>2011-12-11T08:02:21Z</time>
      </trkpt>
      <trkpt lat="47.00989" lon="-1.04895">
        <ele>101</ele>
        <time>2011-12-11T08:02:22Z</time>
      </trkpt>
      <trkpt lat="47.00988" lon="-1.04898">
        <ele>101</ele>
        <time>2011-12-11T08:02:22Z</time>
      </trkpt>
      <trkpt lat="47.00988" lon="-1.049">
        <ele>101</ele>
        <time>2011-12-11T08:02:23Z</time>
      </trkpt>
      <trkpt lat="47.00989" lon="-1.04902">
        <ele>101</ele>
        <time>2011-12-11T08:02:25Z</time>
      </trkpt>
      <trkpt lat="47.00989" lon="-1.04903">
        <ele>101</ele>
        <time>2011-12-11T08:02:26Z</time>
      </trkpt>
      <trkpt lat="47.00989" lon="-1.04905">
        <ele>101</ele>
        <time>2011-12-11T08:02:27Z</time>
      </trkpt>
      <trkpt lat="47.00989" lon="-1.04907">
        <ele>101</ele>
        <time>2011-12-11T08:02:27Z</time>
      </trkpt>
      <trkpt lat="47.00989" lon="-1.04909">
        <ele>101</ele>
        <time>2011-12-11T08:02:29Z</time>
      </trkpt>
      <trkpt lat="47.00989" lon="-1.04911">
        <ele>101</ele>
        <time>2011-12-11T08:02:30Z</time>
      </trkpt>
      <trkpt lat="47.00989" lon="-1.04912">
        <ele>101</ele>
        <time>2011-12-11T08:02:30Z</time>
      </trkpt>
      <trkpt lat="47.00989" lon="-1.04914">
        <ele>101</ele>
        <time>2011-12-11T08:02:32Z</time>
      </trkpt>
      <trkpt lat="47.00989" lon="-1.04916">
        <ele>101</ele>
        <time>2011-12-11T08:02:33Z</time>
      </trkpt>
      <trkpt lat="47.00989" lon="-1.04918">
        <ele>101</ele>
        <time>2011-12-11T08:02:34Z</time>
      </trkpt>
      <trkpt lat="47.00989" lon="-1.0492">
        <ele>101</ele>
        <time>2011-12-11T08:02:35Z</time>
      </trkpt>
      <trkpt lat="47.00989" lon="-1.04921">
        <ele>101</ele>
        <time>2011-12-11T08:02:36Z</time>
      </trkpt>
      <trkpt lat="47.0099" lon="-1.04923">
        <ele>101</ele>
        <time>2011-12-11T08:02:37Z</time>
      </trkpt>
      <trkpt lat="47.0099" lon="-1.04925">
        <ele>101</ele>
        <time>2011-12-11T08:02:38Z</time>
      </trkpt>
      <trkpt lat="47.0099" lon="-1.04927">
        <ele>101</ele>
        <time>2011-12-11T08:02:38Z</time>
      </trkpt>
      <trkpt lat="47.0099" lon="-1.04928">
        <ele>101</ele>
        <time>2011-12-11T08:02:39Z</time>
      </trkpt>
      <trkpt lat="47.0099" lon="-1.0493">
        <ele>101</ele>
        <time>2011-12-11T08:02:41Z</time>
      </trkpt>
      <trkpt lat="47.00991" lon="-1.04932">
        <ele>101</ele>
        <time>2011-12-11T08:02:42Z</time>
      </trkpt>
      <trkpt lat="47.00991" lon="-1.04934">
        <ele>101</ele>
        <time>2011-12-11T08:02:43Z</time>
      </trkpt>
      <trkpt lat="47.00991" lon="-1.04936">
        <ele>101</ele>
        <time>2011-12-11T08:02:43Z</time>
      </trkpt>
      <trkpt lat="47.00992" lon="-1.04937">
        <ele>101</ele>
        <time>2011-12-11T08:02:45Z</time>
      </trkpt>
      <trkpt lat="47.00992" lon="-1.04939">
        <ele>101</ele>
        <time>2011-12-11T08:02:46Z</time>
      </trkpt>
      <trkpt lat="47.00992" lon="-1.04941">
        <ele>101</ele>
        <time>2011-12-11T08:02:46Z</time>
      </trkpt>
      <trkpt lat="47.00992" lon="-1.04943">
        <ele>101</ele>
        <time>2011-12-11T08:02:48Z</time>
      </trkpt>
      <trkpt lat="47.00992" lon="-1.04945">
        <ele>101</ele>
        <time>2011-12-11T08:02:49Z</time>
      </trkpt>
      <trkpt lat="47.00993" lon="-1.04946">
        <ele>101</ele>
        <time>2011-12-11T08:02:50Z</time>
      </trkpt>
      <trkpt lat="47.00993" lon="-1.04948">
        <ele>101</ele>
        <time>2011-12-11T08:02:51Z</time>
      </trkpt>
      <trkpt lat="47.00993" lon="-1.0495">
        <ele>101</ele>
        <time>2011-12-11T08:02:51Z</time>
      </trkpt>
      <trkpt lat="47.00993" lon="-1.04952">
        <ele>101</ele>
        <time>2011-12-11T08:02:53Z</time>
      </trkpt>
      <trkpt lat="47.00994" lon="-1.04954">
        <ele>101</ele>
        <time>2011-12-11T08:02:54Z</time>
      </trkpt>
      <trkpt lat="47.00994" lon="-1.04955">
        <ele>101</ele>
        <time>2011-12-11T08:02:54Z</time>
      </trkpt>
      <trkpt lat="47.00994" lon="-1.04957">
        <ele>101</ele>
        <time>2011-12-11T08:02:56Z</time>
      </trkpt>
      <trkpt lat="47.00995" lon="-1.04959">
        <ele>101</ele>
        <time>2011-12-11T08:02:57Z</time>
      </trkpt>
      <trkpt lat="47.00995" lon="-1.04961">
        <ele>101</ele>
        <time>2011-12-11T08:02:58Z</time>
      </trkpt>
      <trkpt lat="47.00995" lon="-1.04963">
        <ele>101</ele>
        <time>2011-12-11T08:02:58Z</time>
      </trkpt>
      <trkpt lat="47.00996" lon="-1.04965">
        <ele>101</ele>
        <time>2011-12-11T08:03:00Z</time>
      </trkpt>
      <trkpt lat="47.00996" lon="-1.04967">
        <ele>101</ele>
        <time>2011-12-11T08:03:01Z</time>
      </trkpt>
      <trkpt lat="47.00996" lon="-1.04969">
        <ele>101</ele>
        <time>2011-12-11T08:03:02Z</time>
      </trkpt>
      <trkpt lat="47.00996" lon="-1.04971">
        <ele>101</ele>
        <time>2011-12-11T08:03:02Z</time>
      </trkpt>
      <trkpt lat="47.00997" lon="-1.04972">
        <ele>101</ele>
        <time>2011-12-11T08:03:04Z</time>
      </trkpt>
      <trkpt lat="47.00997" lon="-1.04974">
        <ele>101</ele>
        <time>2011-12-11T08:03:05Z</time>
      </trkpt>
      <trkpt lat="47.00998" lon="-1.04976">
        <ele>101</ele>
        <time>2011-12-11T08:03:06Z</time>
      </trkpt>
      <trkpt lat="47.00998" lon="-1.04978">
        <ele>101</ele>
        <time>2011-12-11T08:03:07Z</time>
      </trkpt>
      <trkpt lat="47.00999" lon="-1.04979">
        <ele>101</ele>
        <time>2011-12-11T08:03:08Z</time>
      </trkpt>
      <trkpt lat="47.00999" lon="-1.04981">
        <ele>101</ele>
        <time>2011-12-11T08:03:09Z</time>
      </trkpt>
      <trkpt lat="47.01" lon="-1.04983">
        <ele>101</ele>
        <time>2011-12-11T08:03:09Z</time>
      </trkpt>
      <trkpt lat="47.01" lon="-1.04984">
        <ele>101</ele>
        <time>2011-12-11T08:03:10Z</time>
      </trkpt>
      <trkpt lat="47.01001" lon="-1.04986">
        <ele>101</ele>
        <time>2011-12-11T08:03:11Z</time>
      </trkpt>
      <trkpt lat="47.01001" lon="-1.04988">
        <ele>101</ele>
        <time>2011-12-11T08:03:12Z</time>
      </trkpt>
      <trkpt lat="47.01001" lon="-1.0499">
        <ele>101</ele>
        <time>2011-12-11T08:03:14Z</time>
      </trkpt>
      <trkpt lat="47.01002" lon="-1.04992">
        <ele>101</ele>
        <time>2011-12-11T08:03:14Z</time>
      </trkpt>
      <trkpt lat="47.01002" lon="-1.04994">
        <ele>101</ele>
        <time>2011-12-11T08:03:15Z</time>
      </trkpt>
      <trkpt lat="47.01002" lon="-1.04996">
        <ele>101</ele>
        <time>2011-12-11T08:03:16Z</time>
      </trkpt>
      <trkpt lat="47.01003" lon="-1.04997">
        <ele>101</ele>
        <time>2011-12-11T08:03:17Z</time>
      </trkpt>
      <trkpt lat="47.01003" lon="-1.04999">
        <ele>101</ele>
        <time>2011-12-11T08:03:19Z</time>
      </trkpt>
      <trkpt lat="47.01003" lon="-1.05001">
        <ele>101</ele>
        <time>2011-12-11T08:03:20Z</time>
      </trkpt>
      <trkpt lat="47.01003" lon="-1.05003">
        <ele>101</ele>
        <time>2011-12-11T08:03:21Z</time>
      </trkpt>
      <trkpt lat="47.01004" lon="-1.05005">
        <ele>101</ele>
        <time>2011-12-11T08:03:22Z</time>
      </trkpt>
      <trkpt lat="47.01004" lon="-1.05007">
        <ele>101</ele>
        <time>2011-12-11T08:03:23Z</time>
      </trkpt>
      <trkpt lat="47.01004" lon="-1.05008">
        <ele>101</ele>
        <time>2011-12-11T08:03:24Z</time>
      </trkpt>
      <trkpt lat="47.01005" lon="-1.0501">
        <ele>101</ele>
        <time>2011-12-11T08:03:25Z</time>
      </trkpt>
      <trkpt lat="47.01006" lon="-1.05012">
        <ele>101</ele>
        <time>2011-12-11T08:03:26Z</time>
      </trkpt>
      <trkpt lat="47.01006" lon="-1.05014">
        <ele>101</ele>
        <time>2011-12-11T08:03:27Z</time>
      </trkpt>
      <trkpt lat="47.01006" lon="-1.05016">
        <ele>101</ele>
        <time>2011-12-11T08:03:27Z</time>
      </trkpt>
      <trkpt lat="47.01007" lon="-1.05017">
        <ele>101</ele>
        <time>2011-12-11T08:03:29Z</time>
      </trkpt>
      <trkpt lat="47.01007" lon="-1.05019">
        <ele>101</ele>
        <time>2011-12-11T08:03:30Z</time>
      </trkpt>
      <trkpt lat="47.01007" lon="-1.05022">
        <ele>101</ele>
        <time>2011-12-11T08:03:31Z</time>
      </trkpt>
      <trkpt lat="47.01008" lon="-1.05023">
        <ele>101</ele>
        <time>2011-12-11T08:03:32Z</time>
      </trkpt>
      <trkpt lat="47.01008" lon="-1.05025">
        <ele>101</ele>
        <time>2011-12-11T08:03:33Z</time>
      </trkpt>
      <trkpt lat="47.01009" lon="-1.05027">
        <ele>101</ele>
        <time>2011-12-11T08:03:34Z</time>
      </trkpt>
      <trkpt lat="47.01009" lon="-1.05029">
        <ele>102</ele>
        <time>2011-12-11T08:03:34Z</time>
      </trkpt>
      <trkpt lat="47.01009" lon="-1.0503">
        <ele>102</ele>
        <time>2011-12-11T08:03:35Z</time>
      </trkpt>
      <trkpt lat="47.0101" lon="-1.05032">
        <ele>102</ele>
        <time>2011-12-11T08:03:37Z</time>
      </trkpt>
      <trkpt lat="47.0101" lon="-1.05033">
        <ele>102</ele>
        <time>2011-12-11T08:03:38Z</time>
      </trkpt>
      <trkpt lat="47.01011" lon="-1.05035">
        <ele>102</ele>
        <time>2011-12-11T08:03:39Z</time>
      </trkpt>
      <trkpt lat="47.01011" lon="-1.05037">
        <ele>102</ele>
        <time>2011-12-11T08:03:39Z</time>
      </trkpt>
      <trkpt lat="47.01012" lon="-1.05039">
        <ele>102</ele>
        <time>2011-12-11T08:03:40Z</time>
      </trkpt>
      <trkpt lat="47.01012" lon="-1.05041">
        <ele>102</ele>
        <time>2011-12-11T08:03:41Z</time>
      </trkpt>
      <trkpt lat="47.01013" lon="-1.05042">
        <ele>102</ele>
        <time>2011-12-11T08:03:42Z</time>
      </trkpt>
      <trkpt lat="47.01013" lon="-1.05044">
        <ele>102</ele>
        <time>2011-12-11T08:03:43Z</time>
      </trkpt>
      <trkpt lat="47.01014" lon="-1.05045">
        <ele>102</ele>
        <time>2011-12-11T08:03:45Z</time>
      </trkpt>
      <trkpt lat="47.01014" lon="-1.05047">
        <ele>102</ele>
        <time>2011-12-11T08:03:46Z</time>
      </trkpt>
      <trkpt lat="47.01014" lon="-1.05049">
        <ele>102</ele>
        <time>2011-12-11T08:03:46Z</time>
      </trkpt>
      <trkpt lat="47.01015" lon="-1.05051">
        <ele>102</ele>
        <time>2011-12-11T08:03:47Z</time>
      </trkpt>
      <trkpt lat="47.01015" lon="-1.05052">
        <ele>102</ele>
        <time>2011-12-11T08:03:49Z</time>
      </trkpt>
      <trkpt lat="47.01016" lon="-1.05054">
        <ele>102</ele>
        <time>2011-12-11T08:03:50Z</time>
      </trkpt>
      <trkpt lat="47.01017" lon="-1.05055">
        <ele>102</ele>
        <time>2011-12-11T08:03:50Z</time>
      </trkpt>
      <trkpt lat="47.01017" lon="-1.05057">
        <ele>102</ele>
        <time>2011-12-11T08:03:51Z</time>
      </trkpt>
      <trkpt lat="47.01017" lon="-1.05059">
        <ele>102</ele>
        <time>2011-12-11T08:03:52Z</time>
      </trkpt>
      <trkpt lat="47.01018" lon="-1.05061">
        <ele>102</ele>
        <time>2011-12-11T08:03:53Z</time>
      </trkpt>
      <trkpt lat="47.01019" lon="-1.05063">
        <ele>102</ele>
        <time>2011-12-11T08:03:54Z</time>
      </trkpt>
      <trkpt lat="47.01019" lon="-1.05065">
        <ele>102</ele>
        <time>2011-12-11T08:03:56Z</time>
      </trkpt>
      <trkpt lat="47.0102" lon="-1.05067">
        <ele>102</ele>
        <time>2011-12-11T08:03:57Z</time>
      </trkpt>
      <trkpt lat="47.0102" lon="-1.05068">
        <ele>102</ele>
        <time>2011-12-11T08:03:58Z</time>
      </trkpt>
      <trkpt lat="47.0102" lon="-1.0507">
        <ele>102</ele>
        <time>2011-12-11T08:03:58Z</time>
      </trkpt>
      <trkpt lat="47.01021" lon="-1.05072">
        <ele>102</ele>
        <time>2011-12-11T08:03:59Z</time>
      </trkpt>
      <trkpt lat="47.01022" lon="-1.05073">
        <ele>102</ele>
        <time>2011-12-11T08:04:01Z</time>
      </trkpt>
      <trkpt lat="47.01022" lon="-1.05075">
        <ele>102</ele>
        <time>2011-12-11T08:04:02Z</time>
      </trkpt>
      <trkpt lat="47.01023" lon="-1.05077">
        <ele>102</ele>
        <time>2011-12-11T08:04:03Z</time>
      </trkpt>
      <trkpt lat="47.01023" lon="-1.05078">
        <ele>102</ele>
        <time>2011-12-11T08:04:03Z</time>
      </trkpt>
      <trkpt lat="47.01023" lon="-1.0508">
        <ele>102</ele>
        <time>2011-12-11T08:04:04Z</time>
      </trkpt>
      <trkpt lat="47.01024" lon="-1.05082">
        <ele>102</ele>
        <time>2011-12-11T08:04:06Z</time>
      </trkpt>
      <trkpt lat="47.01024" lon="-1.05084">
        <ele>102</ele>
        <time>2011-12-11T08:04:06Z</time>
      </trkpt>
      <trkpt lat="47.01024" lon="-1.05085">
        <ele>102</ele>
        <time>2011-12-11T08:04:07Z</time>
      </trkpt>
      <trkpt lat="47.01025" lon="-1.05087">
        <ele>102</ele>
        <time>2011-12-11T08:04:09Z</time>
      </trkpt>
      <trkpt lat="47.01025" lon="-1.05088">
        <ele>102</ele>
        <time>2011-12-11T08:04:09Z</time>
      </trkpt>
      <trkpt lat="47.01025" lon="-1.0509">
        <ele>102</ele>
        <time>2011-12-11T08:04:11Z</time>
      </trkpt>
      <trkpt lat="47.01026" lon="-1.05092">
        <ele>102</ele>
        <time>2011-12-11T08:04:11Z</time>
      </trkpt>
      <trkpt lat="47.01026" lon="-1.05094">
        <ele>102</ele>
        <time>2011-12-11T08:04:12Z</time>
      </trkpt>
      <trkpt lat="47.01027" lon="-1.05096">
        <ele>102</ele>
        <time>2011-12-11T08:04:14Z</time>
      </trkpt>
      <trkpt lat="47.01027" lon="-1.05098">
        <ele>102</ele>
        <time>2011-12-11T08:04:14Z</time>
      </trkpt>
      <trkpt lat="47.01027" lon="-1.051">
        <ele>102</ele>
        <time>2011-12-11T08:04:16Z</time>
      </trkpt>
      <trkpt lat="47.01028" lon="-1.05102">
        <ele>102</ele>
        <time>2011-12-11T08:04:16Z</time>
      </trkpt>
      <trkpt lat="47.01028" lon="-1.05103">
        <ele>102</ele>
        <time>2011-12-11T08:04:17Z</time>
      </trkpt>
      <trkpt lat="47.01028" lon="-1.05105">
        <ele>102</ele>
        <time>2011-12-11T08:04:18Z</time>
      </trkpt>
      <trkpt lat="47.01028" lon="-1.05107">
        <ele>102</ele>
        <time>2011-12-11T08:04:19Z</time>
      </trkpt>
      <trkpt lat="47.01029" lon="-1.05109">
        <ele>102</ele>
        <time>2011-12-11T08:04:21Z</time>
      </trkpt>
      <trkpt lat="47.01029" lon="-1.05111">
        <ele>102</ele>
        <time>2011-12-11T08:04:22Z</time>
      </trkpt>
      <trkpt lat="47.0103" lon="-1.05112">
        <ele>102</ele>
        <time>2011-12-11T08:04:22Z</time>
      </trkpt>
      <trkpt lat="47.0103" lon="-1.05114">
        <ele>102</ele>
        <time>2011-12-11T08:04:23Z</time>
      </trkpt>
      <trkpt lat="47.0103" lon="-1.05116">
        <ele>102</ele>
        <time>2011-12-11T08:04:24Z</time>
      </trkpt>
      <trkpt lat="47.0103" lon="-1.05118">
        <ele>102</ele>
        <time>2011-12-11T08:04:26Z</time>
      </trkpt>
      <trkpt lat="47.0103" lon="-1.0512">
        <ele>102</ele>
        <time>2011-12-11T08:04:27Z</time>
      </trkpt>
      <trkpt lat="47.0103" lon="-1.05122">
        <ele>102</ele>
        <time>2011-12-11T08:04:28Z</time>
      </trkpt>
      <trkpt lat="47.0103" lon="-1.05124">
        <ele>102</ele>
        <time>2011-12-11T08:04:28Z</time>
      </trkpt>
      <trkpt lat="47.01031" lon="-1.05126">
        <ele>102</ele>
        <time>2011-12-11T08:04:29Z</time>
      </trkpt>
      <trkpt lat="47.01031" lon="-1.05128">
        <ele>102</ele>
        <time>2011-12-11T08:04:30Z</time>
      </trkpt>
      <trkpt lat="47.01031" lon="-1.05129">
        <ele>102</ele>
        <time>2011-12-11T08:04:32Z</time>
      </trkpt>
      <trkpt lat="47.01032" lon="-1.05132">
        <ele>102</ele>
        <time>2011-12-11T08:04:33Z</time>
      </trkpt>
      <trkpt lat="47.01032" lon="-1.05133">
        <ele>102</ele>
        <time>2011-12-11T08:04:34Z</time>
      </trkpt>
      <trkpt lat="47.01032" lon="-1.05137">
        <ele>102</ele>
        <time>2011-12-11T08:04:37Z</time>
      </trkpt>
      <trkpt lat="47.01033" lon="-1.05139">
        <ele>102</ele>
        <time>2011-12-11T08:04:37Z</time>
      </trkpt>
      <trkpt lat="47.01033" lon="-1.05141">
        <ele>102</ele>
        <time>2011-12-11T08:04:39Z</time>
      </trkpt>
      <trkpt lat="47.01033" lon="-1.05142">
        <ele>102</ele>
        <time>2011-12-11T08:04:39Z</time>
      </trkpt>
      <trkpt lat="47.01033" lon="-1.05144">
        <ele>102</ele>
        <time>2011-12-11T08:04:40Z</time>
      </trkpt>
      <trkpt lat="47.01033" lon="-1.05146">
        <ele>102</ele>
        <time>2011-12-11T08:04:42Z</time>
      </trkpt>
      <trkpt lat="47.01034" lon="-1.05148">
        <ele>102</ele>
        <time>2011-12-11T08:04:42Z</time>
      </trkpt>
      <trkpt lat="47.01034" lon="-1.05151">
        <ele>102</ele>
        <time>2011-12-11T08:04:43Z</time>
      </trkpt>
      <trkpt lat="47.01034" lon="-1.05153">
        <ele>102</ele>
        <time>2011-12-11T08:04:44Z</time>
      </trkpt>
      <trkpt lat="47.01034" lon="-1.05155">
        <ele>102</ele>
        <time>2011-12-11T08:04:45Z</time>
      </trkpt>
      <trkpt lat="47.01035" lon="-1.05157">
        <ele>102</ele>
        <time>2011-12-11T08:04:47Z</time>
      </trkpt>
      <trkpt lat="47.01035" lon="-1.05159">
        <ele>102</ele>
        <time>2011-12-11T08:04:47Z</time>
      </trkpt>
      <trkpt lat="47.01035" lon="-1.0516">
        <ele>102</ele>
        <time>2011-12-11T08:04:48Z</time>
      </trkpt>
      <trkpt lat="47.01036" lon="-1.05162">
        <ele>102</ele>
        <time>2011-12-11T08:04:49Z</time>
      </trkpt>
      <trkpt lat="47.01036" lon="-1.05164">
        <ele>102</ele>
        <time>2011-12-11T08:04:51Z</time>
      </trkpt>
      <trkpt lat="47.01036" lon="-1.05166">
        <ele>102</ele>
        <time>2011-12-11T08:04:52Z</time>
      </trkpt>
      <trkpt lat="47.01037" lon="-1.05168">
        <ele>102</ele>
        <time>2011-12-11T08:04:52Z</time>
      </trkpt>
      <trkpt lat="47.01037" lon="-1.05169">
        <ele>102</ele>
        <time>2011-12-11T08:04:53Z</time>
      </trkpt>
      <trkpt lat="47.01037" lon="-1.05171">
        <ele>102</ele>
        <time>2011-12-11T08:04:54Z</time>
      </trkpt>
      <trkpt lat="47.01037" lon="-1.05173">
        <ele>102</ele>
        <time>2011-12-11T08:04:55Z</time>
      </trkpt>
      <trkpt lat="47.01038" lon="-1.05175">
        <ele>102</ele>
        <time>2011-12-11T08:04:57Z</time>
      </trkpt>
      <trkpt lat="47.01038" lon="-1.05177">
        <ele>102</ele>
        <time>2011-12-11T08:04:57Z</time>
      </trkpt>
      <trkpt lat="47.01038" lon="-1.05178">
        <ele>102</ele>
        <time>2011-12-11T08:04:58Z</time>
      </trkpt>
      <trkpt lat="47.01038" lon="-1.0518">
        <ele>102</ele>
        <time>2011-12-11T08:05:00Z</time>
      </trkpt>
      <trkpt lat="47.01039" lon="-1.05182">
        <ele>102</ele>
        <time>2011-12-11T08:05:00Z</time>
      </trkpt>
      <trkpt lat="47.0104" lon="-1.05183">
        <ele>102</ele>
        <time>2011-12-11T08:05:01Z</time>
      </trkpt>
      <trkpt lat="47.0104" lon="-1.05185">
        <ele>102</ele>
        <time>2011-12-11T08:05:03Z</time>
      </trkpt>
      <trkpt lat="47.01041" lon="-1.05187">
        <ele>102</ele>
        <time>2011-12-11T08:05:04Z</time>
      </trkpt>
      <trkpt lat="47.01041" lon="-1.05189">
        <ele>102</ele>
        <time>2011-12-11T08:05:04Z</time>
      </trkpt>
      <trkpt lat="47.01041" lon="-1.05191">
        <ele>102</ele>
        <time>2011-12-11T08:05:05Z</time>
      </trkpt>
      <trkpt lat="47.01042" lon="-1.05193">
        <ele>102</ele>
        <time>2011-12-11T08:05:06Z</time>
      </trkpt>
      <trkpt lat="47.01043" lon="-1.05195">
        <ele>102</ele>
        <time>2011-12-11T08:05:07Z</time>
      </trkpt>
      <trkpt lat="47.01043" lon="-1.05197">
        <ele>102</ele>
        <time>2011-12-11T08:05:09Z</time>
      </trkpt>
      <trkpt lat="47.01044" lon="-1.05199">
        <ele>102</ele>
        <time>2011-12-11T08:05:10Z</time>
      </trkpt>
      <trkpt lat="47.01044" lon="-1.05201">
        <ele>102</ele>
        <time>2011-12-11T08:05:11Z</time>
      </trkpt>
      <trkpt lat="47.01045" lon="-1.05203">
        <ele>102</ele>
        <time>2011-12-11T08:05:11Z</time>
      </trkpt>
      <trkpt lat="47.01045" lon="-1.05204">
        <ele>102</ele>
        <time>2011-12-11T08:05:12Z</time>
      </trkpt>
      <trkpt lat="47.01046" lon="-1.05207">
        <ele>102</ele>
        <time>2011-12-11T08:05:14Z</time>
      </trkpt>
      <trkpt lat="47.01046" lon="-1.05209">
        <ele>102</ele>
        <time>2011-12-11T08:05:15Z</time>
      </trkpt>
      <trkpt lat="47.01047" lon="-1.0521">
        <ele>102</ele>
        <time>2011-12-11T08:05:15Z</time>
      </trkpt>
      <trkpt lat="47.01048" lon="-1.05212">
        <ele>102</ele>
        <time>2011-12-11T08:05:16Z</time>
      </trkpt>
      <trkpt lat="47.01048" lon="-1.05215">
        <ele>102</ele>
        <time>2011-12-11T08:05:17Z</time>
      </trkpt>
      <trkpt lat="47.01048" lon="-1.05217">
        <ele>102</ele>
        <time>2011-12-11T08:05:18Z</time>
      </trkpt>
      <trkpt lat="47.01049" lon="-1.05219">
        <ele>102</ele>
        <time>2011-12-11T08:05:20Z</time>
      </trkpt>
      <trkpt lat="47.01049" lon="-1.0522">
        <ele>102</ele>
        <time>2011-12-11T08:05:21Z</time>
      </trkpt>
      <trkpt lat="47.0105" lon="-1.05222">
        <ele>102</ele>
        <time>2011-12-11T08:05:21Z</time>
      </trkpt>
      <trkpt lat="47.0105" lon="-1.05224">
        <ele>102</ele>
        <time>2011-12-11T08:05:22Z</time>
      </trkpt>
      <trkpt lat="47.0105" lon="-1.05226">
        <ele>102</ele>
        <time>2011-12-11T08:05:23Z</time>
      </trkpt>
      <trkpt lat="47.0105" lon="-1.05228">
        <ele>102</ele>
        <time>2011-12-11T08:05:25Z</time>
      </trkpt>
      <trkpt lat="47.01049" lon="-1.0523">
        <ele>102</ele>
        <time>2011-12-11T08:05:25Z</time>
      </trkpt>
      <trkpt lat="47.01048" lon="-1.05232">
        <ele>102</ele>
        <time>2011-12-11T08:05:26Z</time>
      </trkpt>
      <trkpt lat="47.01047" lon="-1.05234">
        <ele>102</ele>
        <time>2011-12-11T08:05:27Z</time>
      </trkpt>
      <trkpt lat="47.01046" lon="-1.05235">
        <ele>102</ele>
        <time>2011-12-11T08:05:28Z</time>
      </trkpt>
      <trkpt lat="47.01045" lon="-1.05237">
        <ele>102</ele>
        <time>2011-12-11T08:05:30Z</time>
      </trkpt>
      <trkpt lat="47.01044" lon="-1.05238">
        <ele>102</ele>
        <time>2011-12-11T08:05:30Z</time>
      </trkpt>
      <trkpt lat="47.01043" lon="-1.0524">
        <ele>102</ele>
        <time>2011-12-11T08:05:31Z</time>
      </trkpt>
      <trkpt lat="47.01042" lon="-1.05241">
        <ele>102</ele>
        <time>2011-12-11T08:05:32Z</time>
      </trkpt>
      <trkpt lat="47.01041" lon="-1.05243">
        <ele>102</ele>
        <time>2011-12-11T08:05:33Z</time>
      </trkpt>
      <trkpt lat="47.0104" lon="-1.05244">
        <ele>102</ele>
        <time>2011-12-11T08:05:35Z</time>
      </trkpt>
      <trkpt lat="47.01037" lon="-1.05246">
        <ele>102</ele>
        <time>2011-12-11T08:05:36Z</time>
      </trkpt>
      <trkpt lat="47.01035" lon="-1.05249">
        <ele>102</ele>
        <time>2011-12-11T08:05:38Z</time>
      </trkpt>
      <trkpt lat="47.01033" lon="-1.05252">
        <ele>102</ele>
        <time>2011-12-11T08:05:41Z</time>
      </trkpt>
      <trkpt lat="47.01032" lon="-1.05253">
        <ele>102</ele>
        <time>2011-12-11T08:05:41Z</time>
      </trkpt>
      <trkpt lat="47.0103" lon="-1.05255">
        <ele>102</ele>
        <time>2011-12-11T08:05:43Z</time>
      </trkpt>
      <trkpt lat="47.01029" lon="-1.05257">
        <ele>102</ele>
        <time>2011-12-11T08:05:45Z</time>
      </trkpt>
      <trkpt lat="47.01027" lon="-1.05259">
        <ele>102</ele>
        <time>2011-12-11T08:05:47Z</time>
      </trkpt>
      <trkpt lat="47.01025" lon="-1.05261">
        <ele>102</ele>
        <time>2011-12-11T08:05:47Z</time>
      </trkpt>
      <trkpt lat="47.01023" lon="-1.05263">
        <ele>102</ele>
        <time>2011-12-11T08:05:49Z</time>
      </trkpt>
      <trkpt lat="47.01021" lon="-1.05265">
        <ele>102</ele>
        <time>2011-12-11T08:05:52Z</time>
      </trkpt>
      <trkpt lat="47.0102" lon="-1.05266">
        <ele>102</ele>
        <time>2011-12-11T08:05:52Z</time>
      </trkpt>
      <trkpt lat="47.01019" lon="-1.05268">
        <ele>102</ele>
        <time>2011-12-11T08:05:53Z</time>
      </trkpt>
      <trkpt lat="47.01017" lon="-1.0527">
        <ele>102</ele>
        <time>2011-12-11T08:05:55Z</time>
      </trkpt>
      <trkpt lat="47.01015" lon="-1.05273">
        <ele>102</ele>
        <time>2011-12-11T08:05:58Z</time>
      </trkpt>
      <trkpt lat="47.01014" lon="-1.05274">
        <ele>102</ele>
        <time>2011-12-11T08:05:58Z</time>
      </trkpt>
      <trkpt lat="47.01012" lon="-1.05277">
        <ele>102</ele>
        <time>2011-12-11T08:06:00Z</time>
      </trkpt>
      <trkpt lat="47.01009" lon="-1.05279">
        <ele>102</ele>
        <time>2011-12-11T08:06:03Z</time>
      </trkpt>
      <trkpt lat="47.01008" lon="-1.0528">
        <ele>102</ele>
        <time>2011-12-11T08:06:03Z</time>
      </trkpt>
      <trkpt lat="47.01006" lon="-1.05283">
        <ele>102</ele>
        <time>2011-12-11T08:06:05Z</time>
      </trkpt>
      <trkpt lat="47.01004" lon="-1.05286">
        <ele>102</ele>
        <time>2011-12-11T08:06:08Z</time>
      </trkpt>
      <trkpt lat="47.01002" lon="-1.05288">
        <ele>102</ele>
        <time>2011-12-11T08:06:09Z</time>
      </trkpt>
      <trkpt lat="47.01" lon="-1.05291">
        <ele>102</ele>
        <time>2011-12-11T08:06:11Z</time>
      </trkpt>
      <trkpt lat="47.00998" lon="-1.05293">
        <ele>102</ele>
        <time>2011-12-11T08:06:14Z</time>
      </trkpt>
      <trkpt lat="47.00996" lon="-1.05296">
        <ele>102</ele>
        <time>2011-12-11T08:06:15Z</time>
      </trkpt>
      <trkpt lat="47.00994" lon="-1.05298">
        <ele>102</ele>
        <time>2011-12-11T08:06:17Z</time>
      </trkpt>
      <trkpt lat="47.00992" lon="-1.05301">
        <ele>102</ele>
        <time>2011-12-11T08:06:20Z</time>
      </trkpt>
      <trkpt lat="47.0099" lon="-1.05303">
        <ele>102</ele>
        <time>2011-12-11T08:06:21Z</time>
      </trkpt>
      <trkpt lat="47.00988" lon="-1.05305">
        <ele>102</ele>
        <time>2011-12-11T08:06:22Z</time>
      </trkpt>
      <trkpt lat="47.00986" lon="-1.05307">
        <ele>102</ele>
        <time>2011-12-11T08:06:25Z</time>
      </trkpt>
      <trkpt lat="47.00986" lon="-1.05309">
        <ele>102</ele>
        <time>2011-12-11T08:06:27Z</time>
      </trkpt>
      <trkpt lat="47.00985" lon="-1.05311">
        <ele>102</ele>
        <time>2011-12-11T08:06:28Z</time>
      </trkpt>
      <trkpt lat="47.00983" lon="-1.05313">
        <ele>102</ele>
        <time>2011-12-11T08:06:31Z</time>
      </trkpt>
      <trkpt lat="47.00982" lon="-1.05315">
        <ele>102</ele>
        <time>2011-12-11T08:06:33Z</time>
      </trkpt>
      <trkpt lat="47.0098" lon="-1.05318">
        <ele>102</ele>
        <time>2011-12-11T08:06:34Z</time>
      </trkpt>
      <trkpt lat="47.00978" lon="-1.05319">
        <ele>102</ele>
        <time>2011-12-11T08:06:36Z</time>
      </trkpt>
      <trkpt lat="47.00977" lon="-1.05322">
        <ele>102</ele>
        <time>2011-12-11T08:06:37Z</time>
      </trkpt>
      <trkpt lat="47.00975" lon="-1.05325">
        <ele>102</ele>
        <time>2011-12-11T08:06:39Z</time>
      </trkpt>
      <trkpt lat="47.00972" lon="-1.05327">
        <ele>102</ele>
        <time>2011-12-11T08:06:41Z</time>
      </trkpt>
      <trkpt lat="47.0097" lon="-1.0533">
        <ele>102</ele>
        <time>2011-12-11T08:06:43Z</time>
      </trkpt>
      <trkpt lat="47.00968" lon="-1.05333">
        <ele>102</ele>
        <time>2011-12-11T08:06:45Z</time>
      </trkpt>
      <trkpt lat="47.00966" lon="-1.05335">
        <ele>102</ele>
        <time>2011-12-11T08:06:48Z</time>
      </trkpt>
      <trkpt lat="47.00964" lon="-1.05338">
        <ele>102</ele>
        <time>2011-12-11T08:06:49Z</time>
      </trkpt>
      <trkpt lat="47.00962" lon="-1.05341">
        <ele>102</ele>
        <time>2011-12-11T08:06:51Z</time>
      </trkpt>
      <trkpt lat="47.00961" lon="-1.05343">
        <ele>102</ele>
        <time>2011-12-11T08:06:54Z</time>
      </trkpt>
      <trkpt lat="47.00959" lon="-1.05345">
        <ele>102</ele>
        <time>2011-12-11T08:06:55Z</time>
      </trkpt>
      <trkpt lat="47.00957" lon="-1.05347">
        <ele>102</ele>
        <time>2011-12-11T08:06:58Z</time>
      </trkpt>
      <trkpt lat="47.00956" lon="-1.05349">
        <ele>102</ele>
        <time>2011-12-11T08:06:59Z</time>
      </trkpt>
      <trkpt lat="47.00956" lon="-1.05351">
        <ele>102</ele>
        <time>2011-12-11T08:06:59Z</time>
      </trkpt>
      <trkpt lat="47.00956" lon="-1.05353">
        <ele>102</ele>
        <time>2011-12-11T08:07:00Z</time>
      </trkpt>
      <trkpt lat="47.00956" lon="-1.05355">
        <ele>102</ele>
        <time>2011-12-11T08:07:02Z</time>
      </trkpt>
      <trkpt lat="47.00956" lon="-1.05357">
        <ele>102</ele>
        <time>2011-12-11T08:07:03Z</time>
      </trkpt>
      <trkpt lat="47.00956" lon="-1.05359">
        <ele>102</ele>
        <time>2011-12-11T08:07:04Z</time>
      </trkpt>
      <trkpt lat="47.00957" lon="-1.05361">
        <ele>102</ele>
        <time>2011-12-11T08:07:04Z</time>
      </trkpt>
      <trkpt lat="47.00957" lon="-1.05363">
        <ele>102</ele>
        <time>2011-12-11T08:07:05Z</time>
      </trkpt>
      <trkpt lat="47.00958" lon="-1.05364">
        <ele>102</ele>
        <time>2011-12-11T08:07:06Z</time>
      </trkpt>
      <trkpt lat="47.00959" lon="-1.05366">
        <ele>102</ele>
        <time>2011-12-11T08:07:07Z</time>
      </trkpt>
      <trkpt lat="47.0096" lon="-1.05367">
        <ele>102</ele>
        <time>2011-12-11T08:07:09Z</time>
      </trkpt>
      <trkpt lat="47.00961" lon="-1.0537">
        <ele>102</ele>
        <time>2011-12-11T08:07:10Z</time>
      </trkpt>
      <trkpt lat="47.00962" lon="-1.05373">
        <ele>102</ele>
        <time>2011-12-11T08:07:12Z</time>
      </trkpt>
      <trkpt lat="47.00964" lon="-1.05376">
        <ele>102</ele>
        <time>2011-12-11T08:07:15Z</time>
      </trkpt>
      <trkpt lat="47.00965" lon="-1.05378">
        <ele>102</ele>
        <time>2011-12-11T08:07:16Z</time>
      </trkpt>
      <trkpt lat="47.00966" lon="-1.0538">
        <ele>102</ele>
        <time>2011-12-11T08:07:18Z</time>
      </trkpt>
      <trkpt lat="47.00967" lon="-1.05382">
        <ele>102</ele>
        <time>2011-12-11T08:07:19Z</time>
      </trkpt>
      <trkpt lat="47.00967" lon="-1.05384">
        <ele>102</ele>
        <time>2011-12-11T08:07:21Z</time>
      </trkpt>
      <trkpt lat="47.00968" lon="-1.05387">
        <ele>102</ele>
        <time>2011-12-11T08:07:22Z</time>
      </trkpt>
      <trkpt lat="47.00969" lon="-1.05389">
        <ele>102</ele>
        <time>2011-12-11T08:07:24Z</time>
      </trkpt>
      <trkpt lat="47.00969" lon="-1.0539">
        <ele>102</ele>
        <time>2011-12-11T08:07:24Z</time>
      </trkpt>
      <trkpt lat="47.00969" lon="-1.05392">
        <ele>102</ele>
        <time>2011-12-11T08:07:26Z</time>
      </trkpt>
      <trkpt lat="47.0097" lon="-1.05394">
        <ele>102</ele>
        <time>2011-12-11T08:07:26Z</time>
      </trkpt>
      <trkpt lat="47.0097" lon="-1.05395">
        <ele>102</ele>
        <time>2011-12-11T08:07:27Z</time>
      </trkpt>
      <trkpt lat="47.00971" lon="-1.05397">
        <ele>101</ele>
        <time>2011-12-11T08:07:28Z</time>
      </trkpt>
      <trkpt lat="47.00972" lon="-1.05398">
        <ele>101</ele>
        <time>2011-12-11T08:07:29Z</time>
      </trkpt>
      <trkpt lat="47.00972" lon="-1.054">
        <ele>101</ele>
        <time>2011-12-11T08:07:31Z</time>
      </trkpt>
      <trkpt lat="47.00973" lon="-1.05402">
        <ele>100</ele>
        <time>2011-12-11T08:07:31Z</time>
      </trkpt>
      <trkpt lat="47.00974" lon="-1.05404">
        <ele>100</ele>
        <time>2011-12-11T08:07:33Z</time>
      </trkpt>
      <trkpt lat="47.00976" lon="-1.05407">
        <ele>99</ele>
        <time>2011-12-11T08:07:36Z</time>
      </trkpt>
      <trkpt lat="47.00977" lon="-1.0541">
        <ele>99</ele>
        <time>2011-12-11T08:07:37Z</time>
      </trkpt>
      <trkpt lat="47.00979" lon="-1.05412">
        <ele>99</ele>
        <time>2011-12-11T08:07:39Z</time>
      </trkpt>
      <trkpt lat="47.0098" lon="-1.05415">
        <ele>99</ele>
        <time>2011-12-11T08:07:42Z</time>
      </trkpt>
      <trkpt lat="47.00982" lon="-1.05418">
        <ele>99</ele>
        <time>2011-12-11T08:07:43Z</time>
      </trkpt>
      <trkpt lat="47.00983" lon="-1.0542">
        <ele>99</ele>
        <time>2011-12-11T08:07:46Z</time>
      </trkpt>
      <trkpt lat="47.00984" lon="-1.05422">
        <ele>99</ele>
        <time>2011-12-11T08:07:47Z</time>
      </trkpt>
      <trkpt lat="47.00985" lon="-1.05423">
        <ele>99</ele>
        <time>2011-12-11T08:07:47Z</time>
      </trkpt>
      <trkpt lat="47.00986" lon="-1.05425">
        <ele>99</ele>
        <time>2011-12-11T08:07:48Z</time>
      </trkpt>
      <trkpt lat="47.00988" lon="-1.05427">
        <ele>99</ele>
        <time>2011-12-11T08:07:50Z</time>
      </trkpt>
      <trkpt lat="47.00989" lon="-1.0543">
        <ele>99</ele>
        <time>2011-12-11T08:07:53Z</time>
      </trkpt>
      <trkpt lat="47.00991" lon="-1.05432">
        <ele>99</ele>
        <time>2011-12-11T08:07:54Z</time>
      </trkpt>
      <trkpt lat="47.00993" lon="-1.05435">
        <ele>99</ele>
        <time>2011-12-11T08:07:57Z</time>
      </trkpt>
      <trkpt lat="47.00994" lon="-1.05437">
        <ele>98</ele>
        <time>2011-12-11T08:07:58Z</time>
      </trkpt>
      <trkpt lat="47.00995" lon="-1.05438">
        <ele>98</ele>
        <time>2011-12-11T08:07:59Z</time>
      </trkpt>
      <trkpt lat="47.00996" lon="-1.0544">
        <ele>98</ele>
        <time>2011-12-11T08:08:01Z</time>
      </trkpt>
      <trkpt lat="47.00997" lon="-1.05441">
        <ele>98</ele>
        <time>2011-12-11T08:08:01Z</time>
      </trkpt>
      <trkpt lat="47.00998" lon="-1.05443">
        <ele>98</ele>
        <time>2011-12-11T08:08:02Z</time>
      </trkpt>
      <trkpt lat="47.00999" lon="-1.05445">
        <ele>98</ele>
        <time>2011-12-11T08:08:04Z</time>
      </trkpt>
      <trkpt lat="47.00999" lon="-1.05446">
        <ele>98</ele>
        <time>2011-12-11T08:08:05Z</time>
      </trkpt>
      <trkpt lat="47.01001" lon="-1.05449">
        <ele>98</ele>
        <time>2011-12-11T08:08:06Z</time>
      </trkpt>
      <trkpt lat="47.01003" lon="-1.05451">
        <ele>98</ele>
        <time>2011-12-11T08:08:09Z</time>
      </trkpt>
      <trkpt lat="47.01005" lon="-1.05455">
        <ele>98</ele>
        <time>2011-12-11T08:08:10Z</time>
      </trkpt>
      <trkpt lat="47.01007" lon="-1.05457">
        <ele>98</ele>
        <time>2011-12-11T08:08:12Z</time>
      </trkpt>
      <trkpt lat="47.01007" lon="-1.05458">
        <ele>98</ele>
        <time>2011-12-11T08:08:13Z</time>
      </trkpt>
      <trkpt lat="47.01009" lon="-1.05461">
        <ele>98</ele>
        <time>2011-12-11T08:08:15Z</time>
      </trkpt>
      <trkpt lat="47.01011" lon="-1.05464">
        <ele>98</ele>
        <time>2011-12-11T08:08:17Z</time>
      </trkpt>
      <trkpt lat="47.01012" lon="-1.05466">
        <ele>98</ele>
        <time>2011-12-11T08:08:19Z</time>
      </trkpt>
      <trkpt lat="47.01014" lon="-1.05469">
        <ele>98</ele>
        <time>2011-12-11T08:08:21Z</time>
      </trkpt>
      <trkpt lat="47.01016" lon="-1.05472">
        <ele>98</ele>
        <time>2011-12-11T08:08:23Z</time>
      </trkpt>
      <trkpt lat="47.01017" lon="-1.05473">
        <ele>98</ele>
        <time>2011-12-11T08:08:24Z</time>
      </trkpt>
      <trkpt lat="47.01018" lon="-1.05475">
        <ele>98</ele>
        <time>2011-12-11T08:08:25Z</time>
      </trkpt>
      <trkpt lat="47.01019" lon="-1.05478">
        <ele>98</ele>
        <time>2011-12-11T08:08:28Z</time>
      </trkpt>
      <trkpt lat="47.01021" lon="-1.0548">
        <ele>98</ele>
        <time>2011-12-11T08:08:29Z</time>
      </trkpt>
      <trkpt lat="47.01023" lon="-1.05483">
        <ele>97</ele>
        <time>2011-12-11T08:08:31Z</time>
      </trkpt>
      <trkpt lat="47.01024" lon="-1.05485">
        <ele>97</ele>
        <time>2011-12-11T08:08:33Z</time>
      </trkpt>
      <trkpt lat="47.01025" lon="-1.05488">
        <ele>97</ele>
        <time>2011-12-11T08:08:35Z</time>
      </trkpt>
      <trkpt lat="47.01026" lon="-1.05491">
        <ele>97</ele>
        <time>2011-12-11T08:08:37Z</time>
      </trkpt>
      <trkpt lat="47.01027" lon="-1.05492">
        <ele>97</ele>
        <time>2011-12-11T08:08:38Z</time>
      </trkpt>
      <trkpt lat="47.01026" lon="-1.05496">
        <ele>97</ele>
        <time>2011-12-11T08:08:40Z</time>
      </trkpt>
      <trkpt lat="47.01026" lon="-1.05498">
        <ele>97</ele>
        <time>2011-12-11T08:08:41Z</time>
      </trkpt>
      <trkpt lat="47.01025" lon="-1.05499">
        <ele>97</ele>
        <time>2011-12-11T08:08:43Z</time>
      </trkpt>
      <trkpt lat="47.01025" lon="-1.05503">
        <ele>97</ele>
        <time>2011-12-11T08:08:45Z</time>
      </trkpt>
      <trkpt lat="47.01024" lon="-1.05505">
        <ele>97</ele>
        <time>2011-12-11T08:08:45Z</time>
      </trkpt>
      <trkpt lat="47.01023" lon="-1.05507">
        <ele>96</ele>
        <time>2011-12-11T08:08:47Z</time>
      </trkpt>
      <trkpt lat="47.01021" lon="-1.05509">
        <ele>95</ele>
        <time>2011-12-11T08:08:49Z</time>
      </trkpt>
      <trkpt lat="47.0102" lon="-1.05511">
        <ele>95</ele>
        <time>2011-12-11T08:08:51Z</time>
      </trkpt>
      <trkpt lat="47.01019" lon="-1.05513">
        <ele>94</ele>
        <time>2011-12-11T08:08:53Z</time>
      </trkpt>
      <trkpt lat="47.01018" lon="-1.05516">
        <ele>94</ele>
        <time>2011-12-11T08:08:55Z</time>
      </trkpt>
      <trkpt lat="47.01017" lon="-1.05518">
        <ele>94</ele>
        <time>2011-12-11T08:08:57Z</time>
      </trkpt>
      <trkpt lat="47.01017" lon="-1.05521">
        <ele>93</ele>
        <time>2011-12-11T08:08:59Z</time>
      </trkpt>
      <trkpt lat="47.01016" lon="-1.05522">
        <ele>93</ele>
        <time>2011-12-11T08:09:00Z</time>
      </trkpt>
      <trkpt lat="47.01015" lon="-1.05525">
        <ele>93</ele>
        <time>2011-12-11T08:09:02Z</time>
      </trkpt>
      <trkpt lat="47.01015" lon="-1.05527">
        <ele>92</ele>
        <time>2011-12-11T08:09:04Z</time>
      </trkpt>
      <trkpt lat="47.01014" lon="-1.0553">
        <ele>92</ele>
        <time>2011-12-11T08:09:06Z</time>
      </trkpt>
      <trkpt lat="47.01013" lon="-1.05532">
        <ele>92</ele>
        <time>2011-12-11T08:09:07Z</time>
      </trkpt>
      <trkpt lat="47.01013" lon="-1.05533">
        <ele>92</ele>
        <time>2011-12-11T08:09:08Z</time>
      </trkpt>
      <trkpt lat="47.01013" lon="-1.05535">
        <ele>92</ele>
        <time>2011-12-11T08:09:09Z</time>
      </trkpt>
      <trkpt lat="47.01013" lon="-1.05536">
        <ele>91</ele>
        <time>2011-12-11T08:09:10Z</time>
      </trkpt>
      <trkpt lat="47.01012" lon="-1.05538">
        <ele>91</ele>
        <time>2011-12-11T08:09:11Z</time>
      </trkpt>
      <trkpt lat="47.01012" lon="-1.05539">
        <ele>91</ele>
        <time>2011-12-11T08:09:12Z</time>
      </trkpt>
      <trkpt lat="47.01011" lon="-1.05541">
        <ele>91</ele>
        <time>2011-12-11T08:09:13Z</time>
      </trkpt>
      <trkpt lat="47.01011" lon="-1.05543">
        <ele>90</ele>
        <time>2011-12-11T08:09:14Z</time>
      </trkpt>
      <trkpt lat="47.0101" lon="-1.05544">
        <ele>90</ele>
        <time>2011-12-11T08:09:15Z</time>
      </trkpt>
      <trkpt lat="47.01009" lon="-1.05546">
        <ele>90</ele>
        <time>2011-12-11T08:09:17Z</time>
      </trkpt>
      <trkpt lat="47.01009" lon="-1.05548">
        <ele>89</ele>
        <time>2011-12-11T08:09:18Z</time>
      </trkpt>
      <trkpt lat="47.01009" lon="-1.0555">
        <ele>89</ele>
        <time>2011-12-11T08:09:19Z</time>
      </trkpt>
      <trkpt lat="47.01009" lon="-1.05551">
        <ele>89</ele>
        <time>2011-12-11T08:09:21Z</time>
      </trkpt>
      <trkpt lat="47.01009" lon="-1.05553">
        <ele>88</ele>
        <time>2011-12-11T08:09:22Z</time>
      </trkpt>
      <trkpt lat="47.01008" lon="-1.05554">
        <ele>88</ele>
        <time>2011-12-11T08:09:22Z</time>
      </trkpt>
      <trkpt lat="47.01008" lon="-1.05556">
        <ele>88</ele>
        <time>2011-12-11T08:09:23Z</time>
      </trkpt>
      <trkpt lat="47.01008" lon="-1.05558">
        <ele>88</ele>
        <time>2011-12-11T08:09:24Z</time>
      </trkpt>
      <trkpt lat="47.01007" lon="-1.05559">
        <ele>88</ele>
        <time>2011-12-11T08:09:25Z</time>
      </trkpt>
      <trkpt lat="47.01007" lon="-1.05561">
        <ele>88</ele>
        <time>2011-12-11T08:09:27Z</time>
      </trkpt>
      <trkpt lat="47.01007" lon="-1.05562">
        <ele>88</ele>
        <time>2011-12-11T08:09:27Z</time>
      </trkpt>
      <trkpt lat="47.01007" lon="-1.05564">
        <ele>88</ele>
        <time>2011-12-11T08:09:28Z</time>
      </trkpt>
      <trkpt lat="47.01006" lon="-1.05565">
        <ele>88</ele>
        <time>2011-12-11T08:09:29Z</time>
      </trkpt>
      <trkpt lat="47.01006" lon="-1.05568">
        <ele>87</ele>
        <time>2011-12-11T08:09:32Z</time>
      </trkpt>
      <trkpt lat="47.01006" lon="-1.0557">
        <ele>87</ele>
        <time>2011-12-11T08:09:32Z</time>
      </trkpt>
      <trkpt lat="47.01005" lon="-1.05571">
        <ele>87</ele>
        <time>2011-12-11T08:09:33Z</time>
      </trkpt>
      <trkpt lat="47.01005" lon="-1.05572">
        <ele>87</ele>
        <time>2011-12-11T08:09:34Z</time>
      </trkpt>
      <trkpt lat="47.01004" lon="-1.05574">
        <ele>87</ele>
        <time>2011-12-11T08:09:35Z</time>
      </trkpt>
      <trkpt lat="47.01004" lon="-1.05576">
        <ele>87</ele>
        <time>2011-12-11T08:09:37Z</time>
      </trkpt>
      <trkpt lat="47.01004" lon="-1.05577">
        <ele>87</ele>
        <time>2011-12-11T08:09:37Z</time>
      </trkpt>
      <trkpt lat="47.01003" lon="-1.05579">
        <ele>87</ele>
        <time>2011-12-11T08:09:38Z</time>
      </trkpt>
      <trkpt lat="47.01003" lon="-1.0558">
        <ele>87</ele>
        <time>2011-12-11T08:09:39Z</time>
      </trkpt>
      <trkpt lat="47.01003" lon="-1.05582">
        <ele>87</ele>
        <time>2011-12-11T08:09:40Z</time>
      </trkpt>
      <trkpt lat="47.01002" lon="-1.05584">
        <ele>87</ele>
        <time>2011-12-11T08:09:41Z</time>
      </trkpt>
      <trkpt lat="47.01002" lon="-1.05585">
        <ele>87</ele>
        <time>2011-12-11T08:09:42Z</time>
      </trkpt>
      <trkpt lat="47.01001" lon="-1.05587">
        <ele>86</ele>
        <time>2011-12-11T08:09:43Z</time>
      </trkpt>
      <trkpt lat="47.01001" lon="-1.05588">
        <ele>86</ele>
        <time>2011-12-11T08:09:45Z</time>
      </trkpt>
      <trkpt lat="47.01001" lon="-1.0559">
        <ele>86</ele>
        <time>2011-12-11T08:09:45Z</time>
      </trkpt>
      <trkpt lat="47.01001" lon="-1.05593">
        <ele>85</ele>
        <time>2011-12-11T08:09:48Z</time>
      </trkpt>
      <trkpt lat="47.01001" lon="-1.05594">
        <ele>85</ele>
        <time>2011-12-11T08:09:48Z</time>
      </trkpt>
      <trkpt lat="47.01001" lon="-1.05596">
        <ele>84</ele>
        <time>2011-12-11T08:09:49Z</time>
      </trkpt>
      <trkpt lat="47.01001" lon="-1.05597">
        <ele>84</ele>
        <time>2011-12-11T08:09:50Z</time>
      </trkpt>
      <trkpt lat="47.01001" lon="-1.05599">
        <ele>84</ele>
        <time>2011-12-11T08:09:51Z</time>
      </trkpt>
      <trkpt lat="47.01001" lon="-1.056">
        <ele>83</ele>
        <time>2011-12-11T08:09:53Z</time>
      </trkpt>
      <trkpt lat="47.01001" lon="-1.05602">
        <ele>83</ele>
        <time>2011-12-11T08:09:53Z</time>
      </trkpt>
      <trkpt lat="47.01" lon="-1.05603">
        <ele>83</ele>
        <time>2011-12-11T08:09:54Z</time>
      </trkpt>
      <trkpt lat="47.01" lon="-1.05605">
        <ele>82</ele>
        <time>2011-12-11T08:09:55Z</time>
      </trkpt>
      <trkpt lat="47.01" lon="-1.05606">
        <ele>82</ele>
        <time>2011-12-11T08:09:57Z</time>
      </trkpt>
      <trkpt lat="47.00999" lon="-1.05608">
        <ele>82</ele>
        <time>2011-12-11T08:09:58Z</time>
      </trkpt>
      <trkpt lat="47.00999" lon="-1.0561">
        <ele>82</ele>
        <time>2011-12-11T08:09:58Z</time>
      </trkpt>
      <trkpt lat="47.00998" lon="-1.05611">
        <ele>81</ele>
        <time>2011-12-11T08:09:59Z</time>
      </trkpt>
      <trkpt lat="47.00998" lon="-1.05613">
        <ele>81</ele>
        <time>2011-12-11T08:10:00Z</time>
      </trkpt>
      <trkpt lat="47.00998" lon="-1.05614">
        <ele>81</ele>
        <time>2011-12-11T08:10:01Z</time>
      </trkpt>
      <trkpt lat="47.00998" lon="-1.05615">
        <ele>81</ele>
        <time>2011-12-11T08:10:03Z</time>
      </trkpt>
      <trkpt lat="47.00997" lon="-1.05618">
        <ele>80</ele>
        <time>2011-12-11T08:10:04Z</time>
      </trkpt>
      <trkpt lat="47.00996" lon="-1.0562">
        <ele>80</ele>
        <time>2011-12-11T08:10:05Z</time>
      </trkpt>
      <trkpt lat="47.00995" lon="-1.05622">
        <ele>80</ele>
        <time>2011-12-11T08:10:07Z</time>
      </trkpt>
      <trkpt lat="47.00995" lon="-1.05624">
        <ele>79</ele>
        <time>2011-12-11T08:10:08Z</time>
      </trkpt>
      <trkpt lat="47.00994" lon="-1.05626">
        <ele>79</ele>
        <time>2011-12-11T08:10:10Z</time>
      </trkpt>
      <trkpt lat="47.00994" lon="-1.05628">
        <ele>79</ele>
        <time>2011-12-11T08:10:12Z</time>
      </trkpt>
      <trkpt lat="47.00993" lon="-1.05631">
        <ele>78</ele>
        <time>2011-12-11T08:10:13Z</time>
      </trkpt>
      <trkpt lat="47.00991" lon="-1.05633">
        <ele>78</ele>
        <time>2011-12-11T08:10:16Z</time>
      </trkpt>
      <trkpt lat="47.0099" lon="-1.05637">
        <ele>77</ele>
        <time>2011-12-11T08:10:17Z</time>
      </trkpt>
      <trkpt lat="47.00988" lon="-1.05639">
        <ele>77</ele>
        <time>2011-12-11T08:10:20Z</time>
      </trkpt>
      <trkpt lat="47.00987" lon="-1.05641">
        <ele>77</ele>
        <time>2011-12-11T08:10:20Z</time>
      </trkpt>
      <trkpt lat="47.00985" lon="-1.05643">
        <ele>77</ele>
        <time>2011-12-11T08:10:21Z</time>
      </trkpt>
      <trkpt lat="47.00984" lon="-1.05645">
        <ele>77</ele>
        <time>2011-12-11T08:10:22Z</time>
      </trkpt>
      <trkpt lat="47.00983" lon="-1.05648">
        <ele>77</ele>
        <time>2011-12-11T08:10:23Z</time>
      </trkpt>
      <trkpt lat="47.00982" lon="-1.0565">
        <ele>77</ele>
        <time>2011-12-11T08:10:24Z</time>
      </trkpt>
      <trkpt lat="47.0098" lon="-1.05652">
        <ele>78</ele>
        <time>2011-12-11T08:10:26Z</time>
      </trkpt>
      <trkpt lat="47.0098" lon="-1.05654">
        <ele>79</ele>
        <time>2011-12-11T08:10:27Z</time>
      </trkpt>
      <trkpt lat="47.00978" lon="-1.05656">
        <ele>80</ele>
        <time>2011-12-11T08:10:28Z</time>
      </trkpt>
      <trkpt lat="47.00977" lon="-1.05658">
        <ele>81</ele>
        <time>2011-12-11T08:10:29Z</time>
      </trkpt>
      <trkpt lat="47.00977" lon="-1.05659">
        <ele>81</ele>
        <time>2011-12-11T08:10:30Z</time>
      </trkpt>
      <trkpt lat="47.00977" lon="-1.05662">
        <ele>82</ele>
        <time>2011-12-11T08:10:32Z</time>
      </trkpt>
      <trkpt lat="47.00977" lon="-1.05664">
        <ele>82</ele>
        <time>2011-12-11T08:10:33Z</time>
      </trkpt>
      <trkpt lat="47.00975" lon="-1.05667">
        <ele>82</ele>
        <time>2011-12-11T08:10:36Z</time>
      </trkpt>
      <trkpt lat="47.00973" lon="-1.0567">
        <ele>82</ele>
        <time>2011-12-11T08:10:36Z</time>
      </trkpt>
      <trkpt lat="47.00972" lon="-1.05672">
        <ele>83</ele>
        <time>2011-12-11T08:10:38Z</time>
      </trkpt>
      <trkpt lat="47.0097" lon="-1.05674">
        <ele>84</ele>
        <time>2011-12-11T08:10:38Z</time>
      </trkpt>
      <trkpt lat="47.00968" lon="-1.05677">
        <ele>85</ele>
        <time>2011-12-11T08:10:39Z</time>
      </trkpt>
      <trkpt lat="47.00967" lon="-1.0568">
        <ele>86</ele>
        <time>2011-12-11T08:10:41Z</time>
      </trkpt>
      <trkpt lat="47.00966" lon="-1.05681">
        <ele>87</ele>
        <time>2011-12-11T08:10:41Z</time>
      </trkpt>
      <trkpt lat="47.00966" lon="-1.05683">
        <ele>89</ele>
        <time>2011-12-11T08:10:44Z</time>
      </trkpt>
      <trkpt lat="47.00965" lon="-1.05684">
        <ele>91</ele>
        <time>2011-12-11T08:10:45Z</time>
      </trkpt>
      <trkpt lat="47.00964" lon="-1.05685">
        <ele>91</ele>
        <time>2011-12-11T08:10:49Z</time>
      </trkpt>
      <trkpt lat="47.00962" lon="-1.05686">
        <ele>91</ele>
        <time>2011-12-11T08:10:51Z</time>
      </trkpt>
      <trkpt lat="47.00961" lon="-1.05688">
        <ele>91</ele>
        <time>2011-12-11T08:10:51Z</time>
      </trkpt>
      <trkpt lat="47.0096" lon="-1.0569">
        <ele>87</ele>
        <time>2011-12-11T08:10:57Z</time>
      </trkpt>
      <trkpt lat="47.0096" lon="-1.05692">
        <ele>85</ele>
        <time>2011-12-11T08:10:59Z</time>
      </trkpt>
      <trkpt lat="47.00959" lon="-1.05693">
        <ele>83</ele>
        <time>2011-12-11T08:11:01Z</time>
      </trkpt>
      <trkpt lat="47.00959" lon="-1.05695">
        <ele>81</ele>
        <time>2011-12-11T08:11:02Z</time>
      </trkpt>
      <trkpt lat="47.00957" lon="-1.05697">
        <ele>78</ele>
        <time>2011-12-11T08:11:05Z</time>
      </trkpt>
      <trkpt lat="47.00956" lon="-1.05699">
        <ele>76</ele>
        <time>2011-12-11T08:11:08Z</time>
      </trkpt>
      <trkpt lat="47.00954" lon="-1.057">
        <ele>74</ele>
        <time>2011-12-11T08:11:09Z</time>
      </trkpt>
      <trkpt lat="47.00953" lon="-1.05703">
        <ele>72</ele>
        <time>2011-12-11T08:11:12Z</time>
      </trkpt>
      <trkpt lat="47.00951" lon="-1.05704">
        <ele>71</ele>
        <time>2011-12-11T08:11:13Z</time>
      </trkpt>
      <trkpt lat="47.0095" lon="-1.05706">
        <ele>69</ele>
        <time>2011-12-11T08:11:15Z</time>
      </trkpt>
      <trkpt lat="47.00948" lon="-1.05707">
        <ele>69</ele>
        <time>2011-12-11T08:11:15Z</time>
      </trkpt>
      <trkpt lat="47.00947" lon="-1.05708">
        <ele>68</ele>
        <time>2011-12-11T08:11:16Z</time>
      </trkpt>
      <trkpt lat="47.00945" lon="-1.05711">
        <ele>68</ele>
        <time>2011-12-11T08:11:18Z</time>
      </trkpt>
      <trkpt lat="47.00943" lon="-1.05712">
        <ele>68</ele>
        <time>2011-12-11T08:11:19Z</time>
      </trkpt>
      <trkpt lat="47.00942" lon="-1.05713">
        <ele>68</ele>
        <time>2011-12-11T08:11:20Z</time>
      </trkpt>
      <trkpt lat="47.0094" lon="-1.05715">
        <ele>68</ele>
        <time>2011-12-11T08:11:22Z</time>
      </trkpt>
      <trkpt lat="47.00938" lon="-1.05717">
        <ele>68</ele>
        <time>2011-12-11T08:11:24Z</time>
      </trkpt>
      <trkpt lat="47.00935" lon="-1.05718">
        <ele>68</ele>
        <time>2011-12-11T08:11:26Z</time>
      </trkpt>
      <trkpt lat="47.00933" lon="-1.05719">
        <ele>68</ele>
        <time>2011-12-11T08:11:28Z</time>
      </trkpt>
      <trkpt lat="47.00932" lon="-1.05719">
        <ele>68</ele>
        <time>2011-12-11T08:11:29Z</time>
      </trkpt>
      <trkpt lat="47.00931" lon="-1.0572">
        <ele>68</ele>
        <time>2011-12-11T08:11:29Z</time>
      </trkpt>
      <trkpt lat="47.00929" lon="-1.05721">
        <ele>68</ele>
        <time>2011-12-11T08:11:32Z</time>
      </trkpt>
      <trkpt lat="47.00928" lon="-1.05722">
        <ele>68</ele>
        <time>2011-12-11T08:11:32Z</time>
      </trkpt>
      <trkpt lat="47.00927" lon="-1.05724">
        <ele>68</ele>
        <time>2011-12-11T08:11:33Z</time>
      </trkpt>
      <trkpt lat="47.00925" lon="-1.05727">
        <ele>68</ele>
        <time>2011-12-11T08:11:35Z</time>
      </trkpt>
      <trkpt lat="47.00925" lon="-1.05729">
        <ele>68</ele>
        <time>2011-12-11T08:11:36Z</time>
      </trkpt>
      <trkpt lat="47.00924" lon="-1.05732">
        <ele>69</ele>
        <time>2011-12-11T08:11:38Z</time>
      </trkpt>
      <trkpt lat="47.00923" lon="-1.05734">
        <ele>70</ele>
        <time>2011-12-11T08:11:38Z</time>
      </trkpt>
      <trkpt lat="47.00924" lon="-1.05736">
        <ele>74</ele>
        <time>2011-12-11T08:11:42Z</time>
      </trkpt>
      <trkpt lat="47.00925" lon="-1.05738">
        <ele>76</ele>
        <time>2011-12-11T08:11:44Z</time>
      </trkpt>
      <trkpt lat="47.00926" lon="-1.0574">
        <ele>76</ele>
        <time>2011-12-11T08:11:47Z</time>
      </trkpt>
      <trkpt lat="47.00925" lon="-1.05742">
        <ele>76</ele>
        <time>2011-12-11T08:11:47Z</time>
      </trkpt>
      <trkpt lat="47.00925" lon="-1.05744">
        <ele>76</ele>
        <time>2011-12-11T08:11:49Z</time>
      </trkpt>
      <trkpt lat="47.00924" lon="-1.05745">
        <ele>76</ele>
        <time>2011-12-11T08:11:49Z</time>
      </trkpt>
      <trkpt lat="47.00922" lon="-1.05747">
        <ele>77</ele>
        <time>2011-12-11T08:11:51Z</time>
      </trkpt>
      <trkpt lat="47.00919" lon="-1.05748">
        <ele>77</ele>
        <time>2011-12-11T08:11:52Z</time>
      </trkpt>
      <trkpt lat="47.00917" lon="-1.05748">
        <ele>78</ele>
        <time>2011-12-11T08:11:54Z</time>
      </trkpt>
      <trkpt lat="47.00915" lon="-1.05748">
        <ele>78</ele>
        <time>2011-12-11T08:11:54Z</time>
      </trkpt>
      <trkpt lat="47.00914" lon="-1.05749">
        <ele>79</ele>
        <time>2011-12-11T08:11:57Z</time>
      </trkpt>
      <trkpt lat="47.00911" lon="-1.0575">
        <ele>79</ele>
        <time>2011-12-11T08:11:58Z</time>
      </trkpt>
      <trkpt lat="47.0091" lon="-1.05751">
        <ele>79</ele>
        <time>2011-12-11T08:12:00Z</time>
      </trkpt>
      <trkpt lat="47.00909" lon="-1.05751">
        <ele>79</ele>
        <time>2011-12-11T08:12:01Z</time>
      </trkpt>
      <trkpt lat="47.00907" lon="-1.05751">
        <ele>79</ele>
        <time>2011-12-11T08:12:02Z</time>
      </trkpt>
      <trkpt lat="47.00905" lon="-1.05754">
        <ele>79</ele>
        <time>2011-12-11T08:12:05Z</time>
      </trkpt>
      <trkpt lat="47.00904" lon="-1.05755">
        <ele>79</ele>
        <time>2011-12-11T08:12:06Z</time>
      </trkpt>
      <trkpt lat="47.00903" lon="-1.05757">
        <ele>78</ele>
        <time>2011-12-11T08:12:08Z</time>
      </trkpt>
      <trkpt lat="47.00901" lon="-1.05758">
        <ele>78</ele>
        <time>2011-12-11T08:12:10Z</time>
      </trkpt>
      <trkpt lat="47.009" lon="-1.05761">
        <ele>77</ele>
        <time>2011-12-11T08:12:11Z</time>
      </trkpt>
      <trkpt lat="47.00899" lon="-1.05763">
        <ele>77</ele>
        <time>2011-12-11T08:12:13Z</time>
      </trkpt>
      <trkpt lat="47.00899" lon="-1.05765">
        <ele>77</ele>
        <time>2011-12-11T08:12:14Z</time>
      </trkpt>
      <trkpt lat="47.00899" lon="-1.05768">
        <ele>76</ele>
        <time>2011-12-11T08:12:16Z</time>
      </trkpt>
      <trkpt lat="47.00899" lon="-1.05771">
        <ele>75</ele>
        <time>2011-12-11T08:12:18Z</time>
      </trkpt>
      <trkpt lat="47.00899" lon="-1.05772">
        <ele>74</ele>
        <time>2011-12-11T08:12:20Z</time>
      </trkpt>
      <trkpt lat="47.00899" lon="-1.05775">
        <ele>72</ele>
        <time>2011-12-11T08:12:21Z</time>
      </trkpt>
      <trkpt lat="47.00898" lon="-1.05777">
        <ele>71</ele>
        <time>2011-12-11T08:12:23Z</time>
      </trkpt>
      <trkpt lat="47.00897" lon="-1.05779">
        <ele>70</ele>
        <time>2011-12-11T08:12:24Z</time>
      </trkpt>
      <trkpt lat="47.00897" lon="-1.05781">
        <ele>70</ele>
        <time>2011-12-11T08:12:26Z</time>
      </trkpt>
      <trkpt lat="47.00898" lon="-1.05784">
        <ele>69</ele>
        <time>2011-12-11T08:12:28Z</time>
      </trkpt>
      <trkpt lat="47.00898" lon="-1.05787">
        <ele>68</ele>
        <time>2011-12-11T08:12:29Z</time>
      </trkpt>
      <trkpt lat="47.00898" lon="-1.05789">
        <ele>66</ele>
        <time>2011-12-11T08:12:30Z</time>
      </trkpt>
      <trkpt lat="47.00898" lon="-1.05791">
        <ele>64</ele>
        <time>2011-12-11T08:12:33Z</time>
      </trkpt>
      <trkpt lat="47.00899" lon="-1.05793">
        <ele>63</ele>
        <time>2011-12-11T08:12:34Z</time>
      </trkpt>
      <trkpt lat="47.00899" lon="-1.05796">
        <ele>61</ele>
        <time>2011-12-11T08:12:35Z</time>
      </trkpt>
      <trkpt lat="47.00899" lon="-1.05798">
        <ele>59</ele>
        <time>2011-12-11T08:12:37Z</time>
      </trkpt>
      <trkpt lat="47.00899" lon="-1.058">
        <ele>57</ele>
        <time>2011-12-11T08:12:39Z</time>
      </trkpt>
      <trkpt lat="47.00898" lon="-1.05801">
        <ele>57</ele>
        <time>2011-12-11T08:12:41Z</time>
      </trkpt>
      <trkpt lat="47.00897" lon="-1.05803">
        <ele>56</ele>
        <time>2011-12-11T08:12:43Z</time>
      </trkpt>
      <trkpt lat="47.00896" lon="-1.05805">
        <ele>56</ele>
        <time>2011-12-11T08:12:45Z</time>
      </trkpt>
      <trkpt lat="47.00896" lon="-1.05806">
        <ele>56</ele>
        <time>2011-12-11T08:12:46Z</time>
      </trkpt>
      <trkpt lat="47.00896" lon="-1.05808">
        <ele>56</ele>
        <time>2011-12-11T08:12:47Z</time>
      </trkpt>
      <trkpt lat="47.00896" lon="-1.0581">
        <ele>56</ele>
        <time>2011-12-11T08:12:49Z</time>
      </trkpt>
      <trkpt lat="47.00897" lon="-1.05812">
        <ele>55</ele>
        <time>2011-12-11T08:12:50Z</time>
      </trkpt>
      <trkpt lat="47.00898" lon="-1.05814">
        <ele>54</ele>
        <time>2011-12-11T08:12:50Z</time>
      </trkpt>
      <trkpt lat="47.00899" lon="-1.05816">
        <ele>53</ele>
        <time>2011-12-11T08:12:52Z</time>
      </trkpt>
      <trkpt lat="47.009" lon="-1.05819">
        <ele>51</ele>
        <time>2011-12-11T08:12:54Z</time>
      </trkpt>
      <trkpt lat="47.00901" lon="-1.05822">
        <ele>50</ele>
        <time>2011-12-11T08:12:56Z</time>
      </trkpt>
      <trkpt lat="47.00902" lon="-1.05825">
        <ele>49</ele>
        <time>2011-12-11T08:12:58Z</time>
      </trkpt>
      <trkpt lat="47.00902" lon="-1.05826">
        <ele>48</ele>
        <time>2011-12-11T08:12:59Z</time>
      </trkpt>
      <trkpt lat="47.00903" lon="-1.05828">
        <ele>47</ele>
        <time>2011-12-11T08:13:00Z</time>
      </trkpt>
      <trkpt lat="47.00903" lon="-1.0583">
        <ele>47</ele>
        <time>2011-12-11T08:13:02Z</time>
      </trkpt>
      <trkpt lat="47.00903" lon="-1.05832">
        <ele>46</ele>
        <time>2011-12-11T08:13:02Z</time>
      </trkpt>
      <trkpt lat="47.00904" lon="-1.05834">
        <ele>44</ele>
        <time>2011-12-11T08:13:05Z</time>
      </trkpt>
      <trkpt lat="47.00905" lon="-1.05836">
        <ele>43</ele>
        <time>2011-12-11T08:13:05Z</time>
      </trkpt>
      <trkpt lat="47.00906" lon="-1.05837">
        <ele>42</ele>
        <time>2011-12-11T08:13:06Z</time>
      </trkpt>
      <trkpt lat="47.00906" lon="-1.05839">
        <ele>41</ele>
        <time>2011-12-11T08:13:08Z</time>
      </trkpt>
      <trkpt lat="47.00906" lon="-1.05841">
        <ele>39</ele>
        <time>2011-12-11T08:13:09Z</time>
      </trkpt>
      <trkpt lat="47.00906" lon="-1.05844">
        <ele>38</ele>
        <time>2011-12-11T08:13:11Z</time>
      </trkpt>
      <trkpt lat="47.00906" lon="-1.05846">
        <ele>38</ele>
        <time>2011-12-11T08:13:12Z</time>
      </trkpt>
      <trkpt lat="47.00905" lon="-1.05847">
        <ele>38</ele>
        <time>2011-12-11T08:13:14Z</time>
      </trkpt>
      <trkpt lat="47.00905" lon="-1.05849">
        <ele>38</ele>
        <time>2011-12-11T08:13:15Z</time>
      </trkpt>
      <trkpt lat="47.00905" lon="-1.05852">
        <ele>38</ele>
        <time>2011-12-11T08:13:16Z</time>
      </trkpt>
      <trkpt lat="47.00904" lon="-1.05853">
        <ele>38</ele>
        <time>2011-12-11T08:13:17Z</time>
      </trkpt>
      <trkpt lat="47.00904" lon="-1.05855">
        <ele>38</ele>
        <time>2011-12-11T08:13:19Z</time>
      </trkpt>
      <trkpt lat="47.00904" lon="-1.05857">
        <ele>38</ele>
        <time>2011-12-11T08:13:19Z</time>
      </trkpt>
      <trkpt lat="47.00904" lon="-1.05859">
        <ele>38</ele>
        <time>2011-12-11T08:13:21Z</time>
      </trkpt>
      <trkpt lat="47.00904" lon="-1.0586">
        <ele>38</ele>
        <time>2011-12-11T08:13:21Z</time>
      </trkpt>
      <trkpt lat="47.00904" lon="-1.05862">
        <ele>38</ele>
        <time>2011-12-11T08:13:22Z</time>
      </trkpt>
      <trkpt lat="47.00903" lon="-1.05864">
        <ele>38</ele>
        <time>2011-12-11T08:13:23Z</time>
      </trkpt>
      <trkpt lat="47.00903" lon="-1.05866">
        <ele>38</ele>
        <time>2011-12-11T08:13:25Z</time>
      </trkpt>
      <trkpt lat="47.00903" lon="-1.05867">
        <ele>38</ele>
        <time>2011-12-11T08:13:26Z</time>
      </trkpt>
      <trkpt lat="47.00904" lon="-1.05869">
        <ele>39</ele>
        <time>2011-12-11T08:13:27Z</time>
      </trkpt>
      <trkpt lat="47.00904" lon="-1.05871">
        <ele>39</ele>
        <time>2011-12-11T08:13:28Z</time>
      </trkpt>
      <trkpt lat="47.00904" lon="-1.05873">
        <ele>40</ele>
        <time>2011-12-11T08:13:28Z</time>
      </trkpt>
      <trkpt lat="47.00904" lon="-1.05874">
        <ele>40</ele>
        <time>2011-12-11T08:13:29Z</time>
      </trkpt>
      <trkpt lat="47.00904" lon="-1.05876">
        <ele>40</ele>
        <time>2011-12-11T08:13:30Z</time>
      </trkpt>
      <trkpt lat="47.00904" lon="-1.05878">
        <ele>41</ele>
        <time>2011-12-11T08:13:33Z</time>
      </trkpt>
      <trkpt lat="47.00904" lon="-1.0588">
        <ele>41</ele>
        <time>2011-12-11T08:13:37Z</time>
      </trkpt>
      <trkpt lat="47.00904" lon="-1.05882">
        <ele>41</ele>
        <time>2011-12-11T08:13:38Z</time>
      </trkpt>
      <trkpt lat="47.00905" lon="-1.05885">
        <ele>41</ele>
        <time>2011-12-11T08:13:40Z</time>
      </trkpt>
      <trkpt lat="47.00905" lon="-1.05886">
        <ele>41</ele>
        <time>2011-12-11T08:13:41Z</time>
      </trkpt>
      <trkpt lat="47.00905" lon="-1.05889">
        <ele>41</ele>
        <time>2011-12-11T08:13:44Z</time>
      </trkpt>
      <trkpt lat="47.00905" lon="-1.05891">
        <ele>41</ele>
        <time>2011-12-11T08:13:44Z</time>
      </trkpt>
      <trkpt lat="47.00905" lon="-1.05892">
        <ele>41</ele>
        <time>2011-12-11T08:13:46Z</time>
      </trkpt>
      <trkpt lat="47.00906" lon="-1.05894">
        <ele>41</ele>
        <time>2011-12-11T08:13:46Z</time>
      </trkpt>
      <trkpt lat="47.00906" lon="-1.05895">
        <ele>41</ele>
        <time>2011-12-11T08:13:47Z</time>
      </trkpt>
      <trkpt lat="47.00906" lon="-1.05897">
        <ele>41</ele>
        <time>2011-12-11T08:13:48Z</time>
      </trkpt>
      <trkpt lat="47.00906" lon="-1.05899">
        <ele>41</ele>
        <time>2011-12-11T08:13:49Z</time>
      </trkpt>
      <trkpt lat="47.00906" lon="-1.05901">
        <ele>41</ele>
        <time>2011-12-11T08:13:50Z</time>
      </trkpt>
      <trkpt lat="47.00905" lon="-1.05903">
        <ele>41</ele>
        <time>2011-12-11T08:13:52Z</time>
      </trkpt>
      <trkpt lat="47.00905" lon="-1.05905">
        <ele>41</ele>
        <time>2011-12-11T08:13:53Z</time>
      </trkpt>
      <trkpt lat="47.00905" lon="-1.05906">
        <ele>41</ele>
        <time>2011-12-11T08:13:54Z</time>
      </trkpt>
      <trkpt lat="47.00905" lon="-1.05908">
        <ele>41</ele>
        <time>2011-12-11T08:13:56Z</time>
      </trkpt>
      <trkpt lat="47.00904" lon="-1.0591">
        <ele>41</ele>
        <time>2011-12-11T08:13:57Z</time>
      </trkpt>
      <trkpt lat="47.00904" lon="-1.05913">
        <ele>41</ele>
        <time>2011-12-11T08:13:59Z</time>
      </trkpt>
      <trkpt lat="47.00904" lon="-1.05914">
        <ele>41</ele>
        <time>2011-12-11T08:14:00Z</time>
      </trkpt>
      <trkpt lat="47.00904" lon="-1.05916">
        <ele>41</ele>
        <time>2011-12-11T08:14:01Z</time>
      </trkpt>
      <trkpt lat="47.00904" lon="-1.05919">
        <ele>41</ele>
        <time>2011-12-11T08:14:03Z</time>
      </trkpt>
      <trkpt lat="47.00903" lon="-1.0592">
        <ele>41</ele>
        <time>2011-12-11T08:14:05Z</time>
      </trkpt>
      <trkpt lat="47.00903" lon="-1.05922">
        <ele>41</ele>
        <time>2011-12-11T08:14:08Z</time>
      </trkpt>
      <trkpt lat="47.00903" lon="-1.05923">
        <ele>41</ele>
        <time>2011-12-11T08:14:12Z</time>
      </trkpt>
      <trkpt lat="47.00904" lon="-1.05924">
        <ele>41</ele>
        <time>2011-12-11T08:14:13Z</time>
      </trkpt>
      <trkpt lat="47.00906" lon="-1.05923">
        <ele>41</ele>
        <time>2011-12-11T08:14:17Z</time>
      </trkpt>
      <trkpt lat="47.00907" lon="-1.05924">
        <ele>41</ele>
        <time>2011-12-11T08:14:19Z</time>
      </trkpt>
      <trkpt lat="47.00908" lon="-1.05924">
        <ele>42</ele>
        <time>2011-12-11T08:14:21Z</time>
      </trkpt>
      <trkpt lat="47.0091" lon="-1.05922">
        <ele>42</ele>
        <time>2011-12-11T08:14:27Z</time>
      </trkpt>
      <trkpt lat="47.00911" lon="-1.05922">
        <ele>43</ele>
        <time>2011-12-11T08:14:33Z</time>
      </trkpt>
      <trkpt lat="47.00913" lon="-1.05922">
        <ele>44</ele>
        <time>2011-12-11T08:14:34Z</time>
      </trkpt>
      <trkpt lat="47.00911" lon="-1.05921">
        <ele>47</ele>
        <time>2011-12-11T08:14:39Z</time>
      </trkpt>
      <trkpt lat="47.0091" lon="-1.0592">
        <ele>49</ele>
        <time>2011-12-11T08:14:41Z</time>
      </trkpt>
      <trkpt lat="47.00911" lon="-1.05919">
        <ele>51</ele>
        <time>2011-12-11T08:14:48Z</time>
      </trkpt>
      <trkpt lat="47.00913" lon="-1.05918">
        <ele>51</ele>
        <time>2011-12-11T08:14:50Z</time>
      </trkpt>
      <trkpt lat="47.00914" lon="-1.05918">
        <ele>51</ele>
        <time>2011-12-11T08:14:53Z</time>
      </trkpt>
      <trkpt lat="47.00913" lon="-1.05917">
        <ele>49</ele>
        <time>2011-12-11T08:15:02Z</time>
      </trkpt>
      <trkpt lat="47.00911" lon="-1.05915">
        <ele>49</ele>
        <time>2011-12-11T08:15:09Z</time>
      </trkpt>
      <trkpt lat="47.00911" lon="-1.05917">
        <ele>49</ele>
        <time>2011-12-11T08:15:14Z</time>
      </trkpt>
      <trkpt lat="47.00911" lon="-1.05919">
        <ele>50</ele>
        <time>2011-12-11T08:15:22Z</time>
      </trkpt>
      <trkpt lat="47.00912" lon="-1.05921">
        <ele>50</ele>
        <time>2011-12-11T08:15:23Z</time>
      </trkpt>
      <trkpt lat="47.00912" lon="-1.05923">
        <ele>50</ele>
        <time>2011-12-11T08:15:26Z</time>
      </trkpt>
      <trkpt lat="47.00912" lon="-1.05925">
        <ele>50</ele>
        <time>2011-12-11T08:15:27Z</time>
      </trkpt>
      <trkpt lat="47.00913" lon="-1.05928">
        <ele>50</ele>
        <time>2011-12-11T08:15:30Z</time>
      </trkpt>
      <trkpt lat="47.00914" lon="-1.0593">
        <ele>50</ele>
        <time>2011-12-11T08:15:31Z</time>
      </trkpt>
      <trkpt lat="47.00914" lon="-1.05932">
        <ele>50</ele>
        <time>2011-12-11T08:15:33Z</time>
      </trkpt>
      <trkpt lat="47.00914" lon="-1.05934">
        <ele>50</ele>
        <time>2011-12-11T08:15:36Z</time>
      </trkpt>
      <trkpt lat="47.00914" lon="-1.05936">
        <ele>50</ele>
        <time>2011-12-11T08:15:39Z</time>
      </trkpt>
      <trkpt lat="47.00914" lon="-1.05938">
        <ele>50</ele>
        <time>2011-12-11T08:15:40Z</time>
      </trkpt>
      <trkpt lat="47.00915" lon="-1.0594">
        <ele>50</ele>
        <time>2011-12-11T08:15:41Z</time>
      </trkpt>
      <trkpt lat="47.00916" lon="-1.05942">
        <ele>49</ele>
        <time>2011-12-11T08:15:42Z</time>
      </trkpt>
      <trkpt lat="47.00916" lon="-1.05944">
        <ele>48</ele>
        <time>2011-12-11T08:15:44Z</time>
      </trkpt>
      <trkpt lat="47.00917" lon="-1.05946">
        <ele>47</ele>
        <time>2011-12-11T08:15:45Z</time>
      </trkpt>
      <trkpt lat="47.00918" lon="-1.05947">
        <ele>47</ele>
        <time>2011-12-11T08:15:46Z</time>
      </trkpt>
      <trkpt lat="47.00919" lon="-1.05949">
        <ele>46</ele>
        <time>2011-12-11T08:15:48Z</time>
      </trkpt>
      <trkpt lat="47.0092" lon="-1.05951">
        <ele>44</ele>
        <time>2011-12-11T08:15:50Z</time>
      </trkpt>
      <trkpt lat="47.00921" lon="-1.05953">
        <ele>42</ele>
        <time>2011-12-11T08:15:52Z</time>
      </trkpt>
      <trkpt lat="47.00922" lon="-1.05955">
        <ele>41</ele>
        <time>2011-12-11T08:15:53Z</time>
      </trkpt>
      <trkpt lat="47.00924" lon="-1.05958">
        <ele>41</ele>
        <time>2011-12-11T08:15:55Z</time>
      </trkpt>
      <trkpt lat="47.00924" lon="-1.05961">
        <ele>41</ele>
        <time>2011-12-11T08:15:58Z</time>
      </trkpt>
      <trkpt lat="47.00925" lon="-1.05962">
        <ele>41</ele>
        <time>2011-12-11T08:15:58Z</time>
      </trkpt>
      <trkpt lat="47.00925" lon="-1.05965">
        <ele>41</ele>
        <time>2011-12-11T08:16:01Z</time>
      </trkpt>
      <trkpt lat="47.00927" lon="-1.05966">
        <ele>41</ele>
        <time>2011-12-11T08:16:02Z</time>
      </trkpt>
      <trkpt lat="47.00927" lon="-1.05968">
        <ele>41</ele>
        <time>2011-12-11T08:16:03Z</time>
      </trkpt>
      <trkpt lat="47.00927" lon="-1.0597">
        <ele>41</ele>
        <time>2011-12-11T08:16:05Z</time>
      </trkpt>
      <trkpt lat="47.00927" lon="-1.05972">
        <ele>41</ele>
        <time>2011-12-11T08:16:05Z</time>
      </trkpt>
      <trkpt lat="47.00928" lon="-1.05974">
        <ele>41</ele>
        <time>2011-12-11T08:16:07Z</time>
      </trkpt>
      <trkpt lat="47.00928" lon="-1.05975">
        <ele>41</ele>
        <time>2011-12-11T08:16:08Z</time>
      </trkpt>
      <trkpt lat="47.00927" lon="-1.05978">
        <ele>41</ele>
        <time>2011-12-11T08:16:10Z</time>
      </trkpt>
      <trkpt lat="47.00927" lon="-1.05979">
        <ele>41</ele>
        <time>2011-12-11T08:16:15Z</time>
      </trkpt>
      <trkpt lat="47.00926" lon="-1.05981">
        <ele>41</ele>
        <time>2011-12-11T08:16:17Z</time>
      </trkpt>
      <trkpt lat="47.00926" lon="-1.05983">
        <ele>41</ele>
        <time>2011-12-11T08:16:18Z</time>
      </trkpt>
      <trkpt lat="47.00926" lon="-1.05986">
        <ele>42</ele>
        <time>2011-12-11T08:16:20Z</time>
      </trkpt>
      <trkpt lat="47.00927" lon="-1.05989">
        <ele>42</ele>
        <time>2011-12-11T08:16:22Z</time>
      </trkpt>
      <trkpt lat="47.00927" lon="-1.05991">
        <ele>42</ele>
        <time>2011-12-11T08:16:23Z</time>
      </trkpt>
      <trkpt lat="47.00927" lon="-1.05992">
        <ele>43</ele>
        <time>2011-12-11T08:16:25Z</time>
      </trkpt>
      <trkpt lat="47.00927" lon="-1.05994">
        <ele>43</ele>
        <time>2011-12-11T08:16:26Z</time>
      </trkpt>
      <trkpt lat="47.00927" lon="-1.05997">
        <ele>43</ele>
        <time>2011-12-11T08:16:28Z</time>
      </trkpt>
      <trkpt lat="47.00928" lon="-1.05999">
        <ele>44</ele>
        <time>2011-12-11T08:16:30Z</time>
      </trkpt>
      <trkpt lat="47.00929" lon="-1.06">
        <ele>44</ele>
        <time>2011-12-11T08:16:33Z</time>
      </trkpt>
      <trkpt lat="47.00928" lon="-1.06003">
        <ele>46</ele>
        <time>2011-12-11T08:16:40Z</time>
      </trkpt>
      <trkpt lat="47.00928" lon="-1.06005">
        <ele>47</ele>
        <time>2011-12-11T08:16:42Z</time>
      </trkpt>
      <trkpt lat="47.00929" lon="-1.06008">
        <ele>47</ele>
        <time>2011-12-11T08:16:45Z</time>
      </trkpt>
      <trkpt lat="47.00929" lon="-1.0601">
        <ele>47</ele>
        <time>2011-12-11T08:16:46Z</time>
      </trkpt>
      <trkpt lat="47.00929" lon="-1.06011">
        <ele>47</ele>
        <time>2011-12-11T08:16:46Z</time>
      </trkpt>
      <trkpt lat="47.0093" lon="-1.06013">
        <ele>47</ele>
        <time>2011-12-11T08:16:48Z</time>
      </trkpt>
      <trkpt lat="47.0093" lon="-1.06015">
        <ele>47</ele>
        <time>2011-12-11T08:16:49Z</time>
      </trkpt>
      <trkpt lat="47.0093" lon="-1.06016">
        <ele>47</ele>
        <time>2011-12-11T08:16:49Z</time>
      </trkpt>
      <trkpt lat="47.0093" lon="-1.06018">
        <ele>47</ele>
        <time>2011-12-11T08:16:50Z</time>
      </trkpt>
      <trkpt lat="47.0093" lon="-1.0602">
        <ele>47</ele>
        <time>2011-12-11T08:16:52Z</time>
      </trkpt>
      <trkpt lat="47.0093" lon="-1.06023">
        <ele>47</ele>
        <time>2011-12-11T08:16:53Z</time>
      </trkpt>
      <trkpt lat="47.0093" lon="-1.06025">
        <ele>47</ele>
        <time>2011-12-11T08:16:56Z</time>
      </trkpt>
      <trkpt lat="47.0093" lon="-1.06026">
        <ele>47</ele>
        <time>2011-12-11T08:16:56Z</time>
      </trkpt>
      <trkpt lat="47.0093" lon="-1.06028">
        <ele>47</ele>
        <time>2011-12-11T08:16:57Z</time>
      </trkpt>
      <trkpt lat="47.0093" lon="-1.0603">
        <ele>47</ele>
        <time>2011-12-11T08:16:58Z</time>
      </trkpt>
      <trkpt lat="47.0093" lon="-1.06032">
        <ele>47</ele>
        <time>2011-12-11T08:16:59Z</time>
      </trkpt>
      <trkpt lat="47.0093" lon="-1.06034">
        <ele>47</ele>
        <time>2011-12-11T08:17:01Z</time>
      </trkpt>
      <trkpt lat="47.0093" lon="-1.06036">
        <ele>47</ele>
        <time>2011-12-11T08:17:01Z</time>
      </trkpt>
      <trkpt lat="47.0093" lon="-1.06038">
        <ele>47</ele>
        <time>2011-12-11T08:17:03Z</time>
      </trkpt>
      <trkpt lat="47.0093" lon="-1.0604">
        <ele>47</ele>
        <time>2011-12-11T08:17:03Z</time>
      </trkpt>
      <trkpt lat="47.00931" lon="-1.06042">
        <ele>47</ele>
        <time>2011-12-11T08:17:04Z</time>
      </trkpt>
      <trkpt lat="47.00932" lon="-1.06043">
        <ele>47</ele>
        <time>2011-12-11T08:17:06Z</time>
      </trkpt>
      <trkpt lat="47.00932" lon="-1.06045">
        <ele>47</ele>
        <time>2011-12-11T08:17:06Z</time>
      </trkpt>
      <trkpt lat="47.00932" lon="-1.06046">
        <ele>47</ele>
        <time>2011-12-11T08:17:08Z</time>
      </trkpt>
      <trkpt lat="47.00932" lon="-1.06049">
        <ele>47</ele>
        <time>2011-12-11T08:17:08Z</time>
      </trkpt>
      <trkpt lat="47.00932" lon="-1.06051">
        <ele>47</ele>
        <time>2011-12-11T08:17:10Z</time>
      </trkpt>
      <trkpt lat="47.00933" lon="-1.06053">
        <ele>47</ele>
        <time>2011-12-11T08:17:10Z</time>
      </trkpt>
      <trkpt lat="47.00933" lon="-1.06055">
        <ele>47</ele>
        <time>2011-12-11T08:17:12Z</time>
      </trkpt>
      <trkpt lat="47.00934" lon="-1.06056">
        <ele>47</ele>
        <time>2011-12-11T08:17:13Z</time>
      </trkpt>
      <trkpt lat="47.00935" lon="-1.06058">
        <ele>47</ele>
        <time>2011-12-11T08:17:14Z</time>
      </trkpt>
      <trkpt lat="47.00935" lon="-1.0606">
        <ele>47</ele>
        <time>2011-12-11T08:17:14Z</time>
      </trkpt>
      <trkpt lat="47.00935" lon="-1.06062">
        <ele>47</ele>
        <time>2011-12-11T08:17:16Z</time>
      </trkpt>
      <trkpt lat="47.00936" lon="-1.06064">
        <ele>47</ele>
        <time>2011-12-11T08:17:16Z</time>
      </trkpt>
      <trkpt lat="47.00937" lon="-1.06065">
        <ele>47</ele>
        <time>2011-12-11T08:17:17Z</time>
      </trkpt>
      <trkpt lat="47.00937" lon="-1.06068">
        <ele>46</ele>
        <time>2011-12-11T08:17:19Z</time>
      </trkpt>
      <trkpt lat="47.00937" lon="-1.0607">
        <ele>46</ele>
        <time>2011-12-11T08:17:20Z</time>
      </trkpt>
      <trkpt lat="47.00938" lon="-1.06072">
        <ele>46</ele>
        <time>2011-12-11T08:17:23Z</time>
      </trkpt>
      <trkpt lat="47.00938" lon="-1.06074">
        <ele>46</ele>
        <time>2011-12-11T08:17:23Z</time>
      </trkpt>
      <trkpt lat="47.00939" lon="-1.06076">
        <ele>46</ele>
        <time>2011-12-11T08:17:25Z</time>
      </trkpt>
      <trkpt lat="47.00939" lon="-1.06078">
        <ele>46</ele>
        <time>2011-12-11T08:17:26Z</time>
      </trkpt>
      <trkpt lat="47.00939" lon="-1.06079">
        <ele>46</ele>
        <time>2011-12-11T08:17:26Z</time>
      </trkpt>
      <trkpt lat="47.00939" lon="-1.06081">
        <ele>46</ele>
        <time>2011-12-11T08:17:27Z</time>
      </trkpt>
      <trkpt lat="47.0094" lon="-1.06084">
        <ele>46</ele>
        <time>2011-12-11T08:17:29Z</time>
      </trkpt>
      <trkpt lat="47.00941" lon="-1.06085">
        <ele>46</ele>
        <time>2011-12-11T08:17:30Z</time>
      </trkpt>
      <trkpt lat="47.00941" lon="-1.06087">
        <ele>46</ele>
        <time>2011-12-11T08:17:31Z</time>
      </trkpt>
      <trkpt lat="47.00942" lon="-1.0609">
        <ele>46</ele>
        <time>2011-12-11T08:17:33Z</time>
      </trkpt>
      <trkpt lat="47.00944" lon="-1.06092">
        <ele>46</ele>
        <time>2011-12-11T08:17:36Z</time>
      </trkpt>
      <trkpt lat="47.00945" lon="-1.06094">
        <ele>46</ele>
        <time>2011-12-11T08:17:37Z</time>
      </trkpt>
      <trkpt lat="47.00946" lon="-1.06096">
        <ele>46</ele>
        <time>2011-12-11T08:17:39Z</time>
      </trkpt>
      <trkpt lat="47.00947" lon="-1.06098">
        <ele>46</ele>
        <time>2011-12-11T08:17:40Z</time>
      </trkpt>
      <trkpt lat="47.00947" lon="-1.061">
        <ele>46</ele>
        <time>2011-12-11T08:17:41Z</time>
      </trkpt>
      <trkpt lat="47.00948" lon="-1.06102">
        <ele>46</ele>
        <time>2011-12-11T08:17:43Z</time>
      </trkpt>
      <trkpt lat="47.00949" lon="-1.06103">
        <ele>46</ele>
        <time>2011-12-11T08:17:45Z</time>
      </trkpt>
      <trkpt lat="47.0095" lon="-1.06104">
        <ele>46</ele>
        <time>2011-12-11T08:17:50Z</time>
      </trkpt>
      <trkpt lat="47.00951" lon="-1.06105">
        <ele>46</ele>
        <time>2011-12-11T08:17:52Z</time>
      </trkpt>
      <trkpt lat="47.00952" lon="-1.06107">
        <ele>46</ele>
        <time>2011-12-11T08:17:53Z</time>
      </trkpt>
      <trkpt lat="47.00953" lon="-1.06109">
        <ele>46</ele>
        <time>2011-12-11T08:17:55Z</time>
      </trkpt>
      <trkpt lat="47.00953" lon="-1.06111">
        <ele>46</ele>
        <time>2011-12-11T08:17:57Z</time>
      </trkpt>
      <trkpt lat="47.00955" lon="-1.06113">
        <ele>46</ele>
        <time>2011-12-11T08:17:58Z</time>
      </trkpt>
      <trkpt lat="47.00956" lon="-1.06115">
        <ele>46</ele>
        <time>2011-12-11T08:18:00Z</time>
      </trkpt>
      <trkpt lat="47.00956" lon="-1.06116">
        <ele>46</ele>
        <time>2011-12-11T08:18:01Z</time>
      </trkpt>
      <trkpt lat="47.00956" lon="-1.06119">
        <ele>46</ele>
        <time>2011-12-11T08:18:02Z</time>
      </trkpt>
      <trkpt lat="47.00956" lon="-1.0612">
        <ele>46</ele>
        <time>2011-12-11T08:18:02Z</time>
      </trkpt>
      <trkpt lat="47.00956" lon="-1.06122">
        <ele>46</ele>
        <time>2011-12-11T08:18:04Z</time>
      </trkpt>
      <trkpt lat="47.00957" lon="-1.06124">
        <ele>46</ele>
        <time>2011-12-11T08:18:04Z</time>
      </trkpt>
      <trkpt lat="47.00958" lon="-1.06125">
        <ele>47</ele>
        <time>2011-12-11T08:18:05Z</time>
      </trkpt>
      <trkpt lat="47.00959" lon="-1.06127">
        <ele>48</ele>
        <time>2011-12-11T08:18:06Z</time>
      </trkpt>
      <trkpt lat="47.0096" lon="-1.06128">
        <ele>48</ele>
        <time>2011-12-11T08:18:07Z</time>
      </trkpt>
      <trkpt lat="47.00961" lon="-1.06129">
        <ele>49</ele>
        <time>2011-12-11T08:18:08Z</time>
      </trkpt>
      <trkpt lat="47.00962" lon="-1.0613">
        <ele>49</ele>
        <time>2011-12-11T08:18:09Z</time>
      </trkpt>
      <trkpt lat="47.00964" lon="-1.06131">
        <ele>50</ele>
        <time>2011-12-11T08:18:11Z</time>
      </trkpt>
      <trkpt lat="47.00966" lon="-1.06134">
        <ele>50</ele>
        <time>2011-12-11T08:18:13Z</time>
      </trkpt>
      <trkpt lat="47.00966" lon="-1.06135">
        <ele>50</ele>
        <time>2011-12-11T08:18:14Z</time>
      </trkpt>
      <trkpt lat="47.00968" lon="-1.06138">
        <ele>52</ele>
        <time>2011-12-11T08:18:17Z</time>
      </trkpt>
      <trkpt lat="47.00969" lon="-1.0614">
        <ele>53</ele>
        <time>2011-12-11T08:18:19Z</time>
      </trkpt>
      <trkpt lat="47.00971" lon="-1.06141">
        <ele>54</ele>
        <time>2011-12-11T08:18:21Z</time>
      </trkpt>
      <trkpt lat="47.00972" lon="-1.06144">
        <ele>54</ele>
        <time>2011-12-11T08:18:23Z</time>
      </trkpt>
      <trkpt lat="47.00974" lon="-1.06147">
        <ele>55</ele>
        <time>2011-12-11T08:18:24Z</time>
      </trkpt>
      <trkpt lat="47.00976" lon="-1.06149">
        <ele>56</ele>
        <time>2011-12-11T08:18:26Z</time>
      </trkpt>
      <trkpt lat="47.00978" lon="-1.0615">
        <ele>57</ele>
        <time>2011-12-11T08:18:28Z</time>
      </trkpt>
      <trkpt lat="47.00979" lon="-1.06151">
        <ele>57</ele>
        <time>2011-12-11T08:18:30Z</time>
      </trkpt>
      <trkpt lat="47.00981" lon="-1.06152">
        <ele>58</ele>
        <time>2011-12-11T08:18:33Z</time>
      </trkpt>
      <trkpt lat="47.00983" lon="-1.06152">
        <ele>58</ele>
        <time>2011-12-11T08:18:34Z</time>
      </trkpt>
      <trkpt lat="47.00984" lon="-1.06152">
        <ele>58</ele>
        <time>2011-12-11T08:18:35Z</time>
      </trkpt>
      <trkpt lat="47.00986" lon="-1.06153">
        <ele>58</ele>
        <time>2011-12-11T08:18:37Z</time>
      </trkpt>
      <trkpt lat="47.00988" lon="-1.06153">
        <ele>58</ele>
        <time>2011-12-11T08:18:38Z</time>
      </trkpt>
      <trkpt lat="47.00989" lon="-1.06153">
        <ele>58</ele>
        <time>2011-12-11T08:18:39Z</time>
      </trkpt>
      <trkpt lat="47.00991" lon="-1.06154">
        <ele>58</ele>
        <time>2011-12-11T08:18:42Z</time>
      </trkpt>
      <trkpt lat="47.00992" lon="-1.06154">
        <ele>58</ele>
        <time>2011-12-11T08:18:42Z</time>
      </trkpt>
      <trkpt lat="47.00994" lon="-1.06155">
        <ele>58</ele>
        <time>2011-12-11T08:18:44Z</time>
      </trkpt>
      <trkpt lat="47.00995" lon="-1.06155">
        <ele>58</ele>
        <time>2011-12-11T08:18:45Z</time>
      </trkpt>
      <trkpt lat="47.00998" lon="-1.06154">
        <ele>58</ele>
        <time>2011-12-11T08:18:47Z</time>
      </trkpt>
      <trkpt lat="47.00999" lon="-1.06154">
        <ele>58</ele>
        <time>2011-12-11T08:18:49Z</time>
      </trkpt>
      <trkpt lat="47.01001" lon="-1.06153">
        <ele>58</ele>
        <time>2011-12-11T08:18:51Z</time>
      </trkpt>
      <trkpt lat="47.01003" lon="-1.06153">
        <ele>58</ele>
        <time>2011-12-11T08:18:52Z</time>
      </trkpt>
      <trkpt lat="47.01004" lon="-1.06153">
        <ele>58</ele>
        <time>2011-12-11T08:18:54Z</time>
      </trkpt>
      <trkpt lat="47.01006" lon="-1.06154">
        <ele>58</ele>
        <time>2011-12-11T08:18:54Z</time>
      </trkpt>
      <trkpt lat="47.01007" lon="-1.06154">
        <ele>58</ele>
        <time>2011-12-11T08:18:55Z</time>
      </trkpt>
      <trkpt lat="47.01009" lon="-1.06153">
        <ele>58</ele>
        <time>2011-12-11T08:18:56Z</time>
      </trkpt>
      <trkpt lat="47.0101" lon="-1.06152">
        <ele>58</ele>
        <time>2011-12-11T08:18:59Z</time>
      </trkpt>
      <trkpt lat="47.01012" lon="-1.06153">
        <ele>58</ele>
        <time>2011-12-11T08:19:01Z</time>
      </trkpt>
      <trkpt lat="47.01015" lon="-1.06153">
        <ele>58</ele>
        <time>2011-12-11T08:19:03Z</time>
      </trkpt>
      <trkpt lat="47.01017" lon="-1.06152">
        <ele>58</ele>
        <time>2011-12-11T08:19:05Z</time>
      </trkpt>
      <trkpt lat="47.01018" lon="-1.06152">
        <ele>58</ele>
        <time>2011-12-11T08:19:06Z</time>
      </trkpt>
      <trkpt lat="47.0102" lon="-1.06152">
        <ele>58</ele>
        <time>2011-12-11T08:19:07Z</time>
      </trkpt>
      <trkpt lat="47.01022" lon="-1.06152">
        <ele>58</ele>
        <time>2011-12-11T08:19:10Z</time>
      </trkpt>
      <trkpt lat="47.01025" lon="-1.06152">
        <ele>58</ele>
        <time>2011-12-11T08:19:11Z</time>
      </trkpt>
      <trkpt lat="47.01026" lon="-1.06152">
        <ele>58</ele>
        <time>2011-12-11T08:19:13Z</time>
      </trkpt>
      <trkpt lat="47.01027" lon="-1.06151">
        <ele>58</ele>
        <time>2011-12-11T08:19:13Z</time>
      </trkpt>
      <trkpt lat="47.01029" lon="-1.06152">
        <ele>58</ele>
        <time>2011-12-11T08:19:15Z</time>
      </trkpt>
      <trkpt lat="47.01031" lon="-1.06152">
        <ele>58</ele>
        <time>2011-12-11T08:19:15Z</time>
      </trkpt>
      <trkpt lat="47.01032" lon="-1.06152">
        <ele>58</ele>
        <time>2011-12-11T08:19:16Z</time>
      </trkpt>
      <trkpt lat="47.01033" lon="-1.06153">
        <ele>58</ele>
        <time>2011-12-11T08:19:17Z</time>
      </trkpt>
      <trkpt lat="47.01035" lon="-1.06155">
        <ele>58</ele>
        <time>2011-12-11T08:19:19Z</time>
      </trkpt>
      <trkpt lat="47.01037" lon="-1.06157">
        <ele>58</ele>
        <time>2011-12-11T08:19:21Z</time>
      </trkpt>
      <trkpt lat="47.01038" lon="-1.06158">
        <ele>58</ele>
        <time>2011-12-11T08:19:25Z</time>
      </trkpt>
      <trkpt lat="47.01038" lon="-1.0616">
        <ele>58</ele>
        <time>2011-12-11T08:19:27Z</time>
      </trkpt>
      <trkpt lat="47.01038" lon="-1.06162">
        <ele>58</ele>
        <time>2011-12-11T08:19:34Z</time>
      </trkpt>
      <trkpt lat="47.01038" lon="-1.06164">
        <ele>58</ele>
        <time>2011-12-11T08:19:40Z</time>
      </trkpt>
      <trkpt lat="47.0104" lon="-1.06166">
        <ele>61</ele>
        <time>2011-12-11T08:19:47Z</time>
      </trkpt>
      <trkpt lat="47.0104" lon="-1.06168">
        <ele>61</ele>
        <time>2011-12-11T08:19:50Z</time>
      </trkpt>
      <trkpt lat="47.01041" lon="-1.0617">
        <ele>61</ele>
        <time>2011-12-11T08:19:52Z</time>
      </trkpt>
      <trkpt lat="47.01043" lon="-1.06172">
        <ele>61</ele>
        <time>2011-12-11T08:19:54Z</time>
      </trkpt>
      <trkpt lat="47.01044" lon="-1.06174">
        <ele>61</ele>
        <time>2011-12-11T08:19:56Z</time>
      </trkpt>
      <trkpt lat="47.01046" lon="-1.06176">
        <ele>61</ele>
        <time>2011-12-11T08:19:58Z</time>
      </trkpt>
      <trkpt lat="47.01047" lon="-1.06179">
        <ele>61</ele>
        <time>2011-12-11T08:20:00Z</time>
      </trkpt>
      <trkpt lat="47.01048" lon="-1.06181">
        <ele>61</ele>
        <time>2011-12-11T08:20:02Z</time>
      </trkpt>
      <trkpt lat="47.01049" lon="-1.06184">
        <ele>61</ele>
        <time>2011-12-11T08:20:03Z</time>
      </trkpt>
      <trkpt lat="47.0105" lon="-1.06186">
        <ele>61</ele>
        <time>2011-12-11T08:20:05Z</time>
      </trkpt>
      <trkpt lat="47.0105" lon="-1.06188">
        <ele>61</ele>
        <time>2011-12-11T08:20:06Z</time>
      </trkpt>
      <trkpt lat="47.01052" lon="-1.06191">
        <ele>61</ele>
        <time>2011-12-11T08:20:08Z</time>
      </trkpt>
      <trkpt lat="47.01051" lon="-1.06193">
        <ele>61</ele>
        <time>2011-12-11T08:20:08Z</time>
      </trkpt>
      <trkpt lat="47.01052" lon="-1.06195">
        <ele>61</ele>
        <time>2011-12-11T08:20:10Z</time>
      </trkpt>
      <trkpt lat="47.01053" lon="-1.06197">
        <ele>62</ele>
        <time>2011-12-11T08:20:12Z</time>
      </trkpt>
      <trkpt lat="47.01054" lon="-1.06198">
        <ele>62</ele>
        <time>2011-12-11T08:20:15Z</time>
      </trkpt>
      <trkpt lat="47.01056" lon="-1.06201">
        <ele>63</ele>
        <time>2011-12-11T08:20:16Z</time>
      </trkpt>
      <trkpt lat="47.01057" lon="-1.06203">
        <ele>63</ele>
        <time>2011-12-11T08:20:19Z</time>
      </trkpt>
      <trkpt lat="47.01059" lon="-1.06205">
        <ele>64</ele>
        <time>2011-12-11T08:20:21Z</time>
      </trkpt>
      <trkpt lat="47.0106" lon="-1.06208">
        <ele>64</ele>
        <time>2011-12-11T08:20:23Z</time>
      </trkpt>
      <trkpt lat="47.01061" lon="-1.06209">
        <ele>64</ele>
        <time>2011-12-11T08:20:24Z</time>
      </trkpt>
      <trkpt lat="47.01064" lon="-1.0621">
        <ele>64</ele>
        <time>2011-12-11T08:20:27Z</time>
      </trkpt>
      <trkpt lat="47.01065" lon="-1.06211">
        <ele>64</ele>
        <time>2011-12-11T08:20:29Z</time>
      </trkpt>
      <trkpt lat="47.01067" lon="-1.06214">
        <ele>64</ele>
        <time>2011-12-11T08:20:31Z</time>
      </trkpt>
      <trkpt lat="47.01067" lon="-1.06216">
        <ele>64</ele>
        <time>2011-12-11T08:20:33Z</time>
      </trkpt>
      <trkpt lat="47.01068" lon="-1.06217">
        <ele>64</ele>
        <time>2011-12-11T08:20:34Z</time>
      </trkpt>
      <trkpt lat="47.01068" lon="-1.06219">
        <ele>64</ele>
        <time>2011-12-11T08:20:34Z</time>
      </trkpt>
      <trkpt lat="47.01069" lon="-1.06222">
        <ele>64</ele>
        <time>2011-12-11T08:20:37Z</time>
      </trkpt>
      <trkpt lat="47.01071" lon="-1.06225">
        <ele>64</ele>
        <time>2011-12-11T08:20:39Z</time>
      </trkpt>
      <trkpt lat="47.01072" lon="-1.06228">
        <ele>64</ele>
        <time>2011-12-11T08:20:40Z</time>
      </trkpt>
      <trkpt lat="47.01072" lon="-1.06229">
        <ele>64</ele>
        <time>2011-12-11T08:20:42Z</time>
      </trkpt>
      <trkpt lat="47.01073" lon="-1.06231">
        <ele>64</ele>
        <time>2011-12-11T08:20:43Z</time>
      </trkpt>
      <trkpt lat="47.01074" lon="-1.06232">
        <ele>64</ele>
        <time>2011-12-11T08:20:43Z</time>
      </trkpt>
      <trkpt lat="47.01075" lon="-1.06234">
        <ele>64</ele>
        <time>2011-12-11T08:20:45Z</time>
      </trkpt>
      <trkpt lat="47.01077" lon="-1.06236">
        <ele>64</ele>
        <time>2011-12-11T08:20:46Z</time>
      </trkpt>
      <trkpt lat="47.01078" lon="-1.06238">
        <ele>64</ele>
        <time>2011-12-11T08:20:48Z</time>
      </trkpt>
      <trkpt lat="47.0108" lon="-1.06241">
        <ele>64</ele>
        <time>2011-12-11T08:20:51Z</time>
      </trkpt>
      <trkpt lat="47.0108" lon="-1.06243">
        <ele>64</ele>
        <time>2011-12-11T08:20:52Z</time>
      </trkpt>
      <trkpt lat="47.01081" lon="-1.06246">
        <ele>64</ele>
        <time>2011-12-11T08:20:54Z</time>
      </trkpt>
      <trkpt lat="47.01082" lon="-1.06247">
        <ele>64</ele>
        <time>2011-12-11T08:20:55Z</time>
      </trkpt>
      <trkpt lat="47.01083" lon="-1.06249">
        <ele>64</ele>
        <time>2011-12-11T08:20:56Z</time>
      </trkpt>
      <trkpt lat="47.01085" lon="-1.0625">
        <ele>64</ele>
        <time>2011-12-11T08:20:58Z</time>
      </trkpt>
      <trkpt lat="47.01086" lon="-1.06252">
        <ele>64</ele>
        <time>2011-12-11T08:20:59Z</time>
      </trkpt>
      <trkpt lat="47.01087" lon="-1.06254">
        <ele>64</ele>
        <time>2011-12-11T08:21:01Z</time>
      </trkpt>
      <trkpt lat="47.01088" lon="-1.06255">
        <ele>64</ele>
        <time>2011-12-11T08:21:01Z</time>
      </trkpt>
      <trkpt lat="47.01089" lon="-1.06257">
        <ele>64</ele>
        <time>2011-12-11T08:21:03Z</time>
      </trkpt>
      <trkpt lat="47.0109" lon="-1.0626">
        <ele>64</ele>
        <time>2011-12-11T08:21:05Z</time>
      </trkpt>
      <trkpt lat="47.01091" lon="-1.06263">
        <ele>64</ele>
        <time>2011-12-11T08:21:07Z</time>
      </trkpt>
      <trkpt lat="47.01092" lon="-1.06264">
        <ele>64</ele>
        <time>2011-12-11T08:21:09Z</time>
      </trkpt>
      <trkpt lat="47.01093" lon="-1.06266">
        <ele>64</ele>
        <time>2011-12-11T08:21:09Z</time>
      </trkpt>
      <trkpt lat="47.01094" lon="-1.06267">
        <ele>64</ele>
        <time>2011-12-11T08:21:11Z</time>
      </trkpt>
      <trkpt lat="47.01095" lon="-1.0627">
        <ele>64</ele>
        <time>2011-12-11T08:21:12Z</time>
      </trkpt>
      <trkpt lat="47.01096" lon="-1.06273">
        <ele>64</ele>
        <time>2011-12-11T08:21:15Z</time>
      </trkpt>
      <trkpt lat="47.01098" lon="-1.06276">
        <ele>65</ele>
        <time>2011-12-11T08:21:17Z</time>
      </trkpt>
      <trkpt lat="47.011" lon="-1.06278">
        <ele>65</ele>
        <time>2011-12-11T08:21:19Z</time>
      </trkpt>
      <trkpt lat="47.01102" lon="-1.0628">
        <ele>65</ele>
        <time>2011-12-11T08:21:20Z</time>
      </trkpt>
      <trkpt lat="47.01104" lon="-1.06281">
        <ele>65</ele>
        <time>2011-12-11T08:21:22Z</time>
      </trkpt>
      <trkpt lat="47.01106" lon="-1.06283">
        <ele>65</ele>
        <time>2011-12-11T08:21:25Z</time>
      </trkpt>
      <trkpt lat="47.01108" lon="-1.06285">
        <ele>65</ele>
        <time>2011-12-11T08:21:26Z</time>
      </trkpt>
      <trkpt lat="47.01109" lon="-1.06286">
        <ele>65</ele>
        <time>2011-12-11T08:21:27Z</time>
      </trkpt>
      <trkpt lat="47.01111" lon="-1.06288">
        <ele>65</ele>
        <time>2011-12-11T08:21:30Z</time>
      </trkpt>
      <trkpt lat="47.01113" lon="-1.0629">
        <ele>65</ele>
        <time>2011-12-11T08:21:31Z</time>
      </trkpt>
      <trkpt lat="47.01115" lon="-1.06292">
        <ele>65</ele>
        <time>2011-12-11T08:21:34Z</time>
      </trkpt>
      <trkpt lat="47.01117" lon="-1.06294">
        <ele>65</ele>
        <time>2011-12-11T08:21:35Z</time>
      </trkpt>
      <trkpt lat="47.01119" lon="-1.06297">
        <ele>65</ele>
        <time>2011-12-11T08:21:37Z</time>
      </trkpt>
      <trkpt lat="47.01121" lon="-1.06299">
        <ele>65</ele>
        <time>2011-12-11T08:21:39Z</time>
      </trkpt>
      <trkpt lat="47.01122" lon="-1.06301">
        <ele>65</ele>
        <time>2011-12-11T08:21:40Z</time>
      </trkpt>
      <trkpt lat="47.01123" lon="-1.06302">
        <ele>65</ele>
        <time>2011-12-11T08:21:41Z</time>
      </trkpt>
      <trkpt lat="47.01125" lon="-1.06304">
        <ele>65</ele>
        <time>2011-12-11T08:21:43Z</time>
      </trkpt>
      <trkpt lat="47.01127" lon="-1.06305">
        <ele>65</ele>
        <time>2011-12-11T08:21:46Z</time>
      </trkpt>
      <trkpt lat="47.01128" lon="-1.06306">
        <ele>65</ele>
        <time>2011-12-11T08:21:47Z</time>
      </trkpt>
      <trkpt lat="47.0113" lon="-1.06309">
        <ele>65</ele>
        <time>2011-12-11T08:21:48Z</time>
      </trkpt>
      <trkpt lat="47.01131" lon="-1.06309">
        <ele>65</ele>
        <time>2011-12-11T08:21:49Z</time>
      </trkpt>
      <trkpt lat="47.01133" lon="-1.0631">
        <ele>65</ele>
        <time>2011-12-11T08:21:51Z</time>
      </trkpt>
      <trkpt lat="47.01134" lon="-1.0631">
        <ele>65</ele>
        <time>2011-12-11T08:21:51Z</time>
      </trkpt>
      <trkpt lat="47.01135" lon="-1.06311">
        <ele>65</ele>
        <time>2011-12-11T08:21:52Z</time>
      </trkpt>
      <trkpt lat="47.01136" lon="-1.06311">
        <ele>65</ele>
        <time>2011-12-11T08:21:53Z</time>
      </trkpt>
      <trkpt lat="47.01137" lon="-1.06312">
        <ele>65</ele>
        <time>2011-12-11T08:21:54Z</time>
      </trkpt>
      <trkpt lat="47.01139" lon="-1.06313">
        <ele>65</ele>
        <time>2011-12-11T08:21:56Z</time>
      </trkpt>
      <trkpt lat="47.01141" lon="-1.06316">
        <ele>65</ele>
        <time>2011-12-11T08:21:59Z</time>
      </trkpt>
      <trkpt lat="47.01143" lon="-1.06318">
        <ele>65</ele>
        <time>2011-12-11T08:22:01Z</time>
      </trkpt>
      <trkpt lat="47.01145" lon="-1.06319">
        <ele>65</ele>
        <time>2011-12-11T08:22:02Z</time>
      </trkpt>
      <trkpt lat="47.01147" lon="-1.0632">
        <ele>65</ele>
        <time>2011-12-11T08:22:05Z</time>
      </trkpt>
      <trkpt lat="47.01149" lon="-1.06321">
        <ele>65</ele>
        <time>2011-12-11T08:22:07Z</time>
      </trkpt>
      <trkpt lat="47.0115" lon="-1.06322">
        <ele>65</ele>
        <time>2011-12-11T08:22:07Z</time>
      </trkpt>
      <trkpt lat="47.01152" lon="-1.06323">
        <ele>65</ele>
        <time>2011-12-11T08:22:09Z</time>
      </trkpt>
      <trkpt lat="47.01154" lon="-1.06324">
        <ele>65</ele>
        <time>2011-12-11T08:22:11Z</time>
      </trkpt>
      <trkpt lat="47.01155" lon="-1.06326">
        <ele>65</ele>
        <time>2011-12-11T08:22:12Z</time>
      </trkpt>
      <trkpt lat="47.01156" lon="-1.06328">
        <ele>65</ele>
        <time>2011-12-11T08:22:14Z</time>
      </trkpt>
      <trkpt lat="47.01158" lon="-1.06329">
        <ele>65</ele>
        <time>2011-12-11T08:22:15Z</time>
      </trkpt>
      <trkpt lat="47.0116" lon="-1.06332">
        <ele>65</ele>
        <time>2011-12-11T08:22:18Z</time>
      </trkpt>
      <trkpt lat="47.01161" lon="-1.06332">
        <ele>65</ele>
        <time>2011-12-11T08:22:19Z</time>
      </trkpt>
      <trkpt lat="47.01162" lon="-1.06333">
        <ele>65</ele>
        <time>2011-12-11T08:22:19Z</time>
      </trkpt>
      <trkpt lat="47.01163" lon="-1.06334">
        <ele>65</ele>
        <time>2011-12-11T08:22:20Z</time>
      </trkpt>
      <trkpt lat="47.01165" lon="-1.06336">
        <ele>65</ele>
        <time>2011-12-11T08:22:23Z</time>
      </trkpt>
      <trkpt lat="47.01167" lon="-1.06337">
        <ele>65</ele>
        <time>2011-12-11T08:22:23Z</time>
      </trkpt>
      <trkpt lat="47.01168" lon="-1.06338">
        <ele>65</ele>
        <time>2011-12-11T08:22:25Z</time>
      </trkpt>
      <trkpt lat="47.0117" lon="-1.06339">
        <ele>65</ele>
        <time>2011-12-11T08:22:27Z</time>
      </trkpt>
      <trkpt lat="47.01171" lon="-1.0634">
        <ele>65</ele>
        <time>2011-12-11T08:22:28Z</time>
      </trkpt>
      <trkpt lat="47.01173" lon="-1.06342">
        <ele>65</ele>
        <time>2011-12-11T08:22:31Z</time>
      </trkpt>
      <trkpt lat="47.01175" lon="-1.06344">
        <ele>65</ele>
        <time>2011-12-11T08:22:32Z</time>
      </trkpt>
      <trkpt lat="47.01177" lon="-1.06346">
        <ele>65</ele>
        <time>2011-12-11T08:22:35Z</time>
      </trkpt>
      <trkpt lat="47.01178" lon="-1.06346">
        <ele>65</ele>
        <time>2011-12-11T08:22:35Z</time>
      </trkpt>
      <trkpt lat="47.01179" lon="-1.06347">
        <ele>65</ele>
        <time>2011-12-11T08:22:37Z</time>
      </trkpt>
      <trkpt lat="47.01181" lon="-1.06347">
        <ele>65</ele>
        <time>2011-12-11T08:22:37Z</time>
      </trkpt>
      <trkpt lat="47.01182" lon="-1.06348">
        <ele>65</ele>
        <time>2011-12-11T08:22:38Z</time>
      </trkpt>
      <trkpt lat="47.01184" lon="-1.06349">
        <ele>65</ele>
        <time>2011-12-11T08:22:41Z</time>
      </trkpt>
      <trkpt lat="47.01185" lon="-1.0635">
        <ele>65</ele>
        <time>2011-12-11T08:22:42Z</time>
      </trkpt>
      <trkpt lat="47.01187" lon="-1.0635">
        <ele>65</ele>
        <time>2011-12-11T08:22:42Z</time>
      </trkpt>
      <trkpt lat="47.01189" lon="-1.06351">
        <ele>65</ele>
        <time>2011-12-11T08:22:44Z</time>
      </trkpt>
      <trkpt lat="47.01191" lon="-1.06352">
        <ele>65</ele>
        <time>2011-12-11T08:22:47Z</time>
      </trkpt>
      <trkpt lat="47.01193" lon="-1.06354">
        <ele>65</ele>
        <time>2011-12-11T08:22:49Z</time>
      </trkpt>
      <trkpt lat="47.01195" lon="-1.06355">
        <ele>65</ele>
        <time>2011-12-11T08:22:51Z</time>
      </trkpt>
      <trkpt lat="47.01197" lon="-1.06356">
        <ele>65</ele>
        <time>2011-12-11T08:22:51Z</time>
      </trkpt>
      <trkpt lat="47.01198" lon="-1.06357">
        <ele>65</ele>
        <time>2011-12-11T08:22:52Z</time>
      </trkpt>
      <trkpt lat="47.01199" lon="-1.06357">
        <ele>65</ele>
        <time>2011-12-11T08:22:54Z</time>
      </trkpt>
      <trkpt lat="47.012" lon="-1.06357">
        <ele>65</ele>
        <time>2011-12-11T08:22:54Z</time>
      </trkpt>
      <trkpt lat="47.01203" lon="-1.06358">
        <ele>65</ele>
        <time>2011-12-11T08:22:56Z</time>
      </trkpt>
      <trkpt lat="47.01204" lon="-1.06358">
        <ele>65</ele>
        <time>2011-12-11T08:22:57Z</time>
      </trkpt>
      <trkpt lat="47.01206" lon="-1.06359">
        <ele>65</ele>
        <time>2011-12-11T08:22:58Z</time>
      </trkpt>
      <trkpt lat="47.01208" lon="-1.06359">
        <ele>65</ele>
        <time>2011-12-11T08:23:01Z</time>
      </trkpt>
      <trkpt lat="47.0121" lon="-1.0636">
        <ele>65</ele>
        <time>2011-12-11T08:23:02Z</time>
      </trkpt>
      <trkpt lat="47.01211" lon="-1.0636">
        <ele>65</ele>
        <time>2011-12-11T08:23:03Z</time>
      </trkpt>
      <trkpt lat="47.01212" lon="-1.0636">
        <ele>65</ele>
        <time>2011-12-11T08:23:05Z</time>
      </trkpt>
      <trkpt lat="47.01213" lon="-1.06359">
        <ele>65</ele>
        <time>2011-12-11T08:23:05Z</time>
      </trkpt>
      <trkpt lat="47.01214" lon="-1.06361">
        <ele>66</ele>
        <time>2011-12-11T08:23:07Z</time>
      </trkpt>
      <trkpt lat="47.01215" lon="-1.0636">
        <ele>67</ele>
        <time>2011-12-11T08:23:10Z</time>
      </trkpt>
      <trkpt lat="47.01217" lon="-1.0636">
        <ele>67</ele>
        <time>2011-12-11T08:23:10Z</time>
      </trkpt>
      <trkpt lat="47.01218" lon="-1.0636">
        <ele>67</ele>
        <time>2011-12-11T08:23:11Z</time>
      </trkpt>
      <trkpt lat="47.01219" lon="-1.06361">
        <ele>68</ele>
        <time>2011-12-11T08:23:14Z</time>
      </trkpt>
      <trkpt lat="47.0122" lon="-1.06361">
        <ele>69</ele>
        <time>2011-12-11T08:23:14Z</time>
      </trkpt>
      <trkpt lat="47.01221" lon="-1.06361">
        <ele>70</ele>
        <time>2011-12-11T08:23:15Z</time>
      </trkpt>
      <trkpt lat="47.01223" lon="-1.06362">
        <ele>71</ele>
        <time>2011-12-11T08:23:17Z</time>
      </trkpt>
      <trkpt lat="47.01224" lon="-1.06362">
        <ele>72</ele>
        <time>2011-12-11T08:23:17Z</time>
      </trkpt>
      <trkpt lat="47.01225" lon="-1.06362">
        <ele>72</ele>
        <time>2011-12-11T08:23:19Z</time>
      </trkpt>
      <trkpt lat="47.01227" lon="-1.06363">
        <ele>72</ele>
        <time>2011-12-11T08:23:20Z</time>
      </trkpt>
      <trkpt lat="47.0123" lon="-1.06363">
        <ele>72</ele>
        <time>2011-12-11T08:23:22Z</time>
      </trkpt>
      <trkpt lat="47.01231" lon="-1.06364">
        <ele>72</ele>
        <time>2011-12-11T08:23:23Z</time>
      </trkpt>
      <trkpt lat="47.01231" lon="-1.06366">
        <ele>72</ele>
        <time>2011-12-11T08:23:24Z</time>
      </trkpt>
      <trkpt lat="47.01233" lon="-1.06368">
        <ele>73</ele>
        <time>2011-12-11T08:23:26Z</time>
      </trkpt>
      <trkpt lat="47.01234" lon="-1.0637">
        <ele>74</ele>
        <time>2011-12-11T08:23:28Z</time>
      </trkpt>
      <trkpt lat="47.01234" lon="-1.06374">
        <ele>75</ele>
        <time>2011-12-11T08:23:31Z</time>
      </trkpt>
      <trkpt lat="47.01235" lon="-1.06375">
        <ele>76</ele>
        <time>2011-12-11T08:23:32Z</time>
      </trkpt>
      <trkpt lat="47.01235" lon="-1.06378">
        <ele>77</ele>
        <time>2011-12-11T08:23:34Z</time>
      </trkpt>
      <trkpt lat="47.01236" lon="-1.0638">
        <ele>77</ele>
        <time>2011-12-11T08:23:35Z</time>
      </trkpt>
      <trkpt lat="47.01236" lon="-1.06381">
        <ele>77</ele>
        <time>2011-12-11T08:23:36Z</time>
      </trkpt>
      <trkpt lat="47.01237" lon="-1.06383">
        <ele>77</ele>
        <time>2011-12-11T08:23:37Z</time>
      </trkpt>
      <trkpt lat="47.01238" lon="-1.06386">
        <ele>77</ele>
        <time>2011-12-11T08:23:39Z</time>
      </trkpt>
      <trkpt lat="47.01238" lon="-1.06387">
        <ele>77</ele>
        <time>2011-12-11T08:23:40Z</time>
      </trkpt>
      <trkpt lat="47.0124" lon="-1.0639">
        <ele>77</ele>
        <time>2011-12-11T08:23:43Z</time>
      </trkpt>
      <trkpt lat="47.01241" lon="-1.06393">
        <ele>78</ele>
        <time>2011-12-11T08:23:44Z</time>
      </trkpt>
      <trkpt lat="47.01242" lon="-1.06395">
        <ele>78</ele>
        <time>2011-12-11T08:23:45Z</time>
      </trkpt>
      <trkpt lat="47.01244" lon="-1.06397">
        <ele>78</ele>
        <time>2011-12-11T08:23:47Z</time>
      </trkpt>
      <trkpt lat="47.01245" lon="-1.064">
        <ele>79</ele>
        <time>2011-12-11T08:23:50Z</time>
      </trkpt>
      <trkpt lat="47.01247" lon="-1.06402">
        <ele>79</ele>
        <time>2011-12-11T08:23:51Z</time>
      </trkpt>
      <trkpt lat="47.01248" lon="-1.06403">
        <ele>79</ele>
        <time>2011-12-11T08:23:53Z</time>
      </trkpt>
      <trkpt lat="47.01249" lon="-1.06404">
        <ele>79</ele>
        <time>2011-12-11T08:23:53Z</time>
      </trkpt>
      <trkpt lat="47.01251" lon="-1.06405">
        <ele>79</ele>
        <time>2011-12-11T08:23:55Z</time>
      </trkpt>
      <trkpt lat="47.01252" lon="-1.06407">
        <ele>79</ele>
        <time>2011-12-11T08:23:57Z</time>
      </trkpt>
      <trkpt lat="47.01254" lon="-1.06409">
        <ele>79</ele>
        <time>2011-12-11T08:23:59Z</time>
      </trkpt>
      <trkpt lat="47.01255" lon="-1.06411">
        <ele>79</ele>
        <time>2011-12-11T08:24:01Z</time>
      </trkpt>
      <trkpt lat="47.01257" lon="-1.06413">
        <ele>79</ele>
        <time>2011-12-11T08:24:02Z</time>
      </trkpt>
      <trkpt lat="47.01258" lon="-1.06415">
        <ele>79</ele>
        <time>2011-12-11T08:24:05Z</time>
      </trkpt>
      <trkpt lat="47.0126" lon="-1.06416">
        <ele>79</ele>
        <time>2011-12-11T08:24:07Z</time>
      </trkpt>
      <trkpt lat="47.01262" lon="-1.06419">
        <ele>79</ele>
        <time>2011-12-11T08:24:09Z</time>
      </trkpt>
      <trkpt lat="47.01263" lon="-1.06421">
        <ele>79</ele>
        <time>2011-12-11T08:24:10Z</time>
      </trkpt>
      <trkpt lat="47.01265" lon="-1.06424">
        <ele>79</ele>
        <time>2011-12-11T08:24:13Z</time>
      </trkpt>
      <trkpt lat="47.01266" lon="-1.06425">
        <ele>79</ele>
        <time>2011-12-11T08:24:15Z</time>
      </trkpt>
      <trkpt lat="47.01268" lon="-1.06427">
        <ele>79</ele>
        <time>2011-12-11T08:24:17Z</time>
      </trkpt>
      <trkpt lat="47.0127" lon="-1.06429">
        <ele>79</ele>
        <time>2011-12-11T08:24:18Z</time>
      </trkpt>
      <trkpt lat="47.01272" lon="-1.0643">
        <ele>79</ele>
        <time>2011-12-11T08:24:21Z</time>
      </trkpt>
      <trkpt lat="47.01273" lon="-1.06433">
        <ele>79</ele>
        <time>2011-12-11T08:24:22Z</time>
      </trkpt>
      <trkpt lat="47.01274" lon="-1.06435">
        <ele>79</ele>
        <time>2011-12-11T08:24:23Z</time>
      </trkpt>
      <trkpt lat="47.01276" lon="-1.06437">
        <ele>79</ele>
        <time>2011-12-11T08:24:26Z</time>
      </trkpt>
      <trkpt lat="47.01278" lon="-1.06439">
        <ele>79</ele>
        <time>2011-12-11T08:24:27Z</time>
      </trkpt>
      <trkpt lat="47.01279" lon="-1.0644">
        <ele>79</ele>
        <time>2011-12-11T08:24:29Z</time>
      </trkpt>
      <trkpt lat="47.01281" lon="-1.06443">
        <ele>79</ele>
        <time>2011-12-11T08:24:30Z</time>
      </trkpt>
      <trkpt lat="47.01283" lon="-1.06445">
        <ele>79</ele>
        <time>2011-12-11T08:24:33Z</time>
      </trkpt>
      <trkpt lat="47.01284" lon="-1.06446">
        <ele>79</ele>
        <time>2011-12-11T08:24:33Z</time>
      </trkpt>
      <trkpt lat="47.01284" lon="-1.06448">
        <ele>79</ele>
        <time>2011-12-11T08:24:35Z</time>
      </trkpt>
      <trkpt lat="47.01285" lon="-1.0645">
        <ele>79</ele>
        <time>2011-12-11T08:24:35Z</time>
      </trkpt>
      <trkpt lat="47.01286" lon="-1.06451">
        <ele>79</ele>
        <time>2011-12-11T08:24:36Z</time>
      </trkpt>
      <trkpt lat="47.01289" lon="-1.06454">
        <ele>79</ele>
        <time>2011-12-11T08:24:38Z</time>
      </trkpt>
      <trkpt lat="47.0129" lon="-1.06456">
        <ele>79</ele>
        <time>2011-12-11T08:24:41Z</time>
      </trkpt>
      <trkpt lat="47.01292" lon="-1.06459">
        <ele>79</ele>
        <time>2011-12-11T08:24:42Z</time>
      </trkpt>
      <trkpt lat="47.01293" lon="-1.06461">
        <ele>79</ele>
        <time>2011-12-11T08:24:44Z</time>
      </trkpt>
      <trkpt lat="47.01295" lon="-1.06464">
        <ele>79</ele>
        <time>2011-12-11T08:24:46Z</time>
      </trkpt>
      <trkpt lat="47.01295" lon="-1.06465">
        <ele>79</ele>
        <time>2011-12-11T08:24:47Z</time>
      </trkpt>
      <trkpt lat="47.01297" lon="-1.06468">
        <ele>79</ele>
        <time>2011-12-11T08:24:50Z</time>
      </trkpt>
      <trkpt lat="47.01298" lon="-1.06471">
        <ele>79</ele>
        <time>2011-12-11T08:24:52Z</time>
      </trkpt>
      <trkpt lat="47.013" lon="-1.06472">
        <ele>79</ele>
        <time>2011-12-11T08:24:53Z</time>
      </trkpt>
      <trkpt lat="47.01302" lon="-1.06474">
        <ele>79</ele>
        <time>2011-12-11T08:24:55Z</time>
      </trkpt>
      <trkpt lat="47.01303" lon="-1.06477">
        <ele>79</ele>
        <time>2011-12-11T08:24:58Z</time>
      </trkpt>
      <trkpt lat="47.01305" lon="-1.06479">
        <ele>78</ele>
        <time>2011-12-11T08:24:59Z</time>
      </trkpt>
      <trkpt lat="47.01308" lon="-1.06481">
        <ele>78</ele>
        <time>2011-12-11T08:25:02Z</time>
      </trkpt>
      <trkpt lat="47.01308" lon="-1.06484">
        <ele>78</ele>
        <time>2011-12-11T08:25:04Z</time>
      </trkpt>
      <trkpt lat="47.0131" lon="-1.06487">
        <ele>78</ele>
        <time>2011-12-11T08:25:06Z</time>
      </trkpt>
      <trkpt lat="47.01311" lon="-1.06488">
        <ele>78</ele>
        <time>2011-12-11T08:25:06Z</time>
      </trkpt>
      <trkpt lat="47.01312" lon="-1.0649">
        <ele>78</ele>
        <time>2011-12-11T08:25:09Z</time>
      </trkpt>
      <trkpt lat="47.01313" lon="-1.06492">
        <ele>78</ele>
        <time>2011-12-11T08:25:10Z</time>
      </trkpt>
      <trkpt lat="47.01316" lon="-1.06494">
        <ele>78</ele>
        <time>2011-12-11T08:25:13Z</time>
      </trkpt>
      <trkpt lat="47.01318" lon="-1.06496">
        <ele>78</ele>
        <time>2011-12-11T08:25:15Z</time>
      </trkpt>
      <trkpt lat="47.01318" lon="-1.06499">
        <ele>78</ele>
        <time>2011-12-11T08:25:16Z</time>
      </trkpt>
      <trkpt lat="47.01319" lon="-1.06501">
        <ele>78</ele>
        <time>2011-12-11T08:25:18Z</time>
      </trkpt>
      <trkpt lat="47.0132" lon="-1.06502">
        <ele>78</ele>
        <time>2011-12-11T08:25:19Z</time>
      </trkpt>
      <trkpt lat="47.01319" lon="-1.06505">
        <ele>78</ele>
        <time>2011-12-11T08:25:21Z</time>
      </trkpt>
      <trkpt lat="47.0132" lon="-1.06507">
        <ele>78</ele>
        <time>2011-12-11T08:25:21Z</time>
      </trkpt>
      <trkpt lat="47.0132" lon="-1.06508">
        <ele>78</ele>
        <time>2011-12-11T08:25:22Z</time>
      </trkpt>
      <trkpt lat="47.01321" lon="-1.0651">
        <ele>78</ele>
        <time>2011-12-11T08:25:24Z</time>
      </trkpt>
      <trkpt lat="47.01321" lon="-1.06512">
        <ele>78</ele>
        <time>2011-12-11T08:25:25Z</time>
      </trkpt>
      <trkpt lat="47.01321" lon="-1.06514">
        <ele>78</ele>
        <time>2011-12-11T08:25:26Z</time>
      </trkpt>
      <trkpt lat="47.01322" lon="-1.06515">
        <ele>78</ele>
        <time>2011-12-11T08:25:27Z</time>
      </trkpt>
      <trkpt lat="47.01323" lon="-1.06517">
        <ele>78</ele>
        <time>2011-12-11T08:25:27Z</time>
      </trkpt>
      <trkpt lat="47.01323" lon="-1.06519">
        <ele>78</ele>
        <time>2011-12-11T08:25:28Z</time>
      </trkpt>
      <trkpt lat="47.01324" lon="-1.06521">
        <ele>78</ele>
        <time>2011-12-11T08:25:29Z</time>
      </trkpt>
      <trkpt lat="47.01324" lon="-1.06523">
        <ele>77</ele>
        <time>2011-12-11T08:25:30Z</time>
      </trkpt>
      <trkpt lat="47.01325" lon="-1.06524">
        <ele>77</ele>
        <time>2011-12-11T08:25:31Z</time>
      </trkpt>
      <trkpt lat="47.01325" lon="-1.06526">
        <ele>77</ele>
        <time>2011-12-11T08:25:32Z</time>
      </trkpt>
      <trkpt lat="47.01326" lon="-1.06528">
        <ele>76</ele>
        <time>2011-12-11T08:25:34Z</time>
      </trkpt>
      <trkpt lat="47.01326" lon="-1.0653">
        <ele>76</ele>
        <time>2011-12-11T08:25:35Z</time>
      </trkpt>
      <trkpt lat="47.01326" lon="-1.06532">
        <ele>76</ele>
        <time>2011-12-11T08:25:36Z</time>
      </trkpt>
      <trkpt lat="47.01326" lon="-1.06534">
        <ele>76</ele>
        <time>2011-12-11T08:25:37Z</time>
      </trkpt>
      <trkpt lat="47.01326" lon="-1.06536">
        <ele>76</ele>
        <time>2011-12-11T08:25:38Z</time>
      </trkpt>
      <trkpt lat="47.01326" lon="-1.06538">
        <ele>76</ele>
        <time>2011-12-11T08:25:40Z</time>
      </trkpt>
      <trkpt lat="47.01326" lon="-1.0654">
        <ele>76</ele>
        <time>2011-12-11T08:25:41Z</time>
      </trkpt>
      <trkpt lat="47.01325" lon="-1.06542">
        <ele>76</ele>
        <time>2011-12-11T08:25:41Z</time>
      </trkpt>
      <trkpt lat="47.01326" lon="-1.06544">
        <ele>76</ele>
        <time>2011-12-11T08:25:42Z</time>
      </trkpt>
      <trkpt lat="47.01326" lon="-1.06546">
        <ele>76</ele>
        <time>2011-12-11T08:25:43Z</time>
      </trkpt>
      <trkpt lat="47.01326" lon="-1.06548">
        <ele>76</ele>
        <time>2011-12-11T08:25:45Z</time>
      </trkpt>
      <trkpt lat="47.01326" lon="-1.0655">
        <ele>76</ele>
        <time>2011-12-11T08:25:45Z</time>
      </trkpt>
      <trkpt lat="47.01327" lon="-1.06553">
        <ele>76</ele>
        <time>2011-12-11T08:25:47Z</time>
      </trkpt>
      <trkpt lat="47.01328" lon="-1.06554">
        <ele>76</ele>
        <time>2011-12-11T08:25:48Z</time>
      </trkpt>
      <trkpt lat="47.01329" lon="-1.06556">
        <ele>76</ele>
        <time>2011-12-11T08:25:50Z</time>
      </trkpt>
      <trkpt lat="47.0133" lon="-1.06557">
        <ele>76</ele>
        <time>2011-12-11T08:25:50Z</time>
      </trkpt>
      <trkpt lat="47.01332" lon="-1.06558">
        <ele>76</ele>
        <time>2011-12-11T08:25:52Z</time>
      </trkpt>
      <trkpt lat="47.01333" lon="-1.06559">
        <ele>76</ele>
        <time>2011-12-11T08:25:52Z</time>
      </trkpt>
      <trkpt lat="47.01335" lon="-1.0656">
        <ele>76</ele>
        <time>2011-12-11T08:25:54Z</time>
      </trkpt>
      <trkpt lat="47.01337" lon="-1.06561">
        <ele>76</ele>
        <time>2011-12-11T08:25:57Z</time>
      </trkpt>
      <trkpt lat="47.01339" lon="-1.0656">
        <ele>76</ele>
        <time>2011-12-11T08:25:58Z</time>
      </trkpt>
      <trkpt lat="47.0134" lon="-1.0656">
        <ele>76</ele>
        <time>2011-12-11T08:26:01Z</time>
      </trkpt>
      <trkpt lat="47.01342" lon="-1.0656">
        <ele>76</ele>
        <time>2011-12-11T08:26:03Z</time>
      </trkpt>
      <trkpt lat="47.01343" lon="-1.06561">
        <ele>76</ele>
        <time>2011-12-11T08:26:06Z</time>
      </trkpt>
      <trkpt lat="47.01346" lon="-1.0656">
        <ele>76</ele>
        <time>2011-12-11T08:26:08Z</time>
      </trkpt>
      <trkpt lat="47.01347" lon="-1.0656">
        <ele>76</ele>
        <time>2011-12-11T08:26:10Z</time>
      </trkpt>
      <trkpt lat="47.01348" lon="-1.0656">
        <ele>76</ele>
        <time>2011-12-11T08:26:10Z</time>
      </trkpt>
      <trkpt lat="47.0135" lon="-1.0656">
        <ele>76</ele>
        <time>2011-12-11T08:26:12Z</time>
      </trkpt>
      <trkpt lat="47.01352" lon="-1.0656">
        <ele>76</ele>
        <time>2011-12-11T08:26:12Z</time>
      </trkpt>
      <trkpt lat="47.01354" lon="-1.0656">
        <ele>76</ele>
        <time>2011-12-11T08:26:14Z</time>
      </trkpt>
      <trkpt lat="47.01356" lon="-1.0656">
        <ele>76</ele>
        <time>2011-12-11T08:26:15Z</time>
      </trkpt>
      <trkpt lat="47.01357" lon="-1.0656">
        <ele>76</ele>
        <time>2011-12-11T08:26:15Z</time>
      </trkpt>
      <trkpt lat="47.01358" lon="-1.0656">
        <ele>76</ele>
        <time>2011-12-11T08:26:16Z</time>
      </trkpt>
      <trkpt lat="47.0136" lon="-1.0656">
        <ele>76</ele>
        <time>2011-12-11T08:26:19Z</time>
      </trkpt>
      <trkpt lat="47.01362" lon="-1.0656">
        <ele>76</ele>
        <time>2011-12-11T08:26:19Z</time>
      </trkpt>
      <trkpt lat="47.01363" lon="-1.0656">
        <ele>76</ele>
        <time>2011-12-11T08:26:21Z</time>
      </trkpt>
      <trkpt lat="47.01366" lon="-1.06559">
        <ele>76</ele>
        <time>2011-12-11T08:26:21Z</time>
      </trkpt>
      <trkpt lat="47.01368" lon="-1.06559">
        <ele>76</ele>
        <time>2011-12-11T08:26:23Z</time>
      </trkpt>
      <trkpt lat="47.01369" lon="-1.0656">
        <ele>76</ele>
        <time>2011-12-11T08:26:24Z</time>
      </trkpt>
      <trkpt lat="47.01371" lon="-1.0656">
        <ele>76</ele>
        <time>2011-12-11T08:26:24Z</time>
      </trkpt>
      <trkpt lat="47.01373" lon="-1.0656">
        <ele>76</ele>
        <time>2011-12-11T08:26:27Z</time>
      </trkpt>
      <trkpt lat="47.01374" lon="-1.0656">
        <ele>76</ele>
        <time>2011-12-11T08:26:27Z</time>
      </trkpt>
      <trkpt lat="47.01375" lon="-1.0656">
        <ele>76</ele>
        <time>2011-12-11T08:26:28Z</time>
      </trkpt>
      <trkpt lat="47.01377" lon="-1.0656">
        <ele>76</ele>
        <time>2011-12-11T08:26:29Z</time>
      </trkpt>
      <trkpt lat="47.01379" lon="-1.06561">
        <ele>76</ele>
        <time>2011-12-11T08:26:31Z</time>
      </trkpt>
      <trkpt lat="47.0138" lon="-1.06562">
        <ele>76</ele>
        <time>2011-12-11T08:26:33Z</time>
      </trkpt>
      <trkpt lat="47.01381" lon="-1.06564">
        <ele>76</ele>
        <time>2011-12-11T08:26:35Z</time>
      </trkpt>
      <trkpt lat="47.01382" lon="-1.06566">
        <ele>76</ele>
        <time>2011-12-11T08:26:38Z</time>
      </trkpt>
      <trkpt lat="47.01383" lon="-1.06567">
        <ele>76</ele>
        <time>2011-12-11T08:26:40Z</time>
      </trkpt>
      <trkpt lat="47.01384" lon="-1.06569">
        <ele>76</ele>
        <time>2011-12-11T08:26:42Z</time>
      </trkpt>
      <trkpt lat="47.01385" lon="-1.0657">
        <ele>76</ele>
        <time>2011-12-11T08:26:42Z</time>
      </trkpt>
      <trkpt lat="47.01387" lon="-1.0657">
        <ele>76</ele>
        <time>2011-12-11T08:26:44Z</time>
      </trkpt>
      <trkpt lat="47.01389" lon="-1.0657">
        <ele>76</ele>
        <time>2011-12-11T08:26:45Z</time>
      </trkpt>
      <trkpt lat="47.0139" lon="-1.06571">
        <ele>76</ele>
        <time>2011-12-11T08:26:45Z</time>
      </trkpt>
      <trkpt lat="47.01392" lon="-1.06572">
        <ele>75</ele>
        <time>2011-12-11T08:26:47Z</time>
      </trkpt>
      <trkpt lat="47.01393" lon="-1.06572">
        <ele>75</ele>
        <time>2011-12-11T08:26:49Z</time>
      </trkpt>
      <trkpt lat="47.01394" lon="-1.06573">
        <ele>74</ele>
        <time>2011-12-11T08:26:51Z</time>
      </trkpt>
      <trkpt lat="47.01395" lon="-1.06574">
        <ele>74</ele>
        <time>2011-12-11T08:26:51Z</time>
      </trkpt>
      <trkpt lat="47.01395" lon="-1.06576">
        <ele>74</ele>
        <time>2011-12-11T08:26:55Z</time>
      </trkpt>
      <trkpt lat="47.01393" lon="-1.06577">
        <ele>74</ele>
        <time>2011-12-11T08:26:57Z</time>
      </trkpt>
      <trkpt lat="47.01392" lon="-1.06578">
        <ele>74</ele>
        <time>2011-12-11T08:26:57Z</time>
      </trkpt>
      <trkpt lat="47.01391" lon="-1.06578">
        <ele>74</ele>
        <time>2011-12-11T08:26:58Z</time>
      </trkpt>
      <trkpt lat="47.01388" lon="-1.06578">
        <ele>74</ele>
        <time>2011-12-11T08:27:00Z</time>
      </trkpt>
      <trkpt lat="47.01387" lon="-1.06578">
        <ele>74</ele>
        <time>2011-12-11T08:27:01Z</time>
      </trkpt>
      <trkpt lat="47.01386" lon="-1.06579">
        <ele>74</ele>
        <time>2011-12-11T08:27:02Z</time>
      </trkpt>
      <trkpt lat="47.01384" lon="-1.06579">
        <ele>74</ele>
        <time>2011-12-11T08:27:03Z</time>
      </trkpt>
      <trkpt lat="47.01382" lon="-1.06579">
        <ele>74</ele>
        <time>2011-12-11T08:27:03Z</time>
      </trkpt>
      <trkpt lat="47.0138" lon="-1.06579">
        <ele>74</ele>
        <time>2011-12-11T08:27:04Z</time>
      </trkpt>
      <trkpt lat="47.01379" lon="-1.06579">
        <ele>74</ele>
        <time>2011-12-11T08:27:05Z</time>
      </trkpt>
      <trkpt lat="47.01377" lon="-1.06579">
        <ele>74</ele>
        <time>2011-12-11T08:27:07Z</time>
      </trkpt>
      <trkpt lat="47.01376" lon="-1.06579">
        <ele>75</ele>
        <time>2011-12-11T08:27:07Z</time>
      </trkpt>
      <trkpt lat="47.01374" lon="-1.06579">
        <ele>75</ele>
        <time>2011-12-11T08:27:09Z</time>
      </trkpt>
      <trkpt lat="47.01373" lon="-1.06579">
        <ele>75</ele>
        <time>2011-12-11T08:27:10Z</time>
      </trkpt>
      <trkpt lat="47.01371" lon="-1.0658">
        <ele>75</ele>
        <time>2011-12-11T08:27:11Z</time>
      </trkpt>
      <trkpt lat="47.0137" lon="-1.0658">
        <ele>75</ele>
        <time>2011-12-11T08:27:12Z</time>
      </trkpt>
      <trkpt lat="47.01368" lon="-1.06581">
        <ele>75</ele>
        <time>2011-12-11T08:27:15Z</time>
      </trkpt>
      <trkpt lat="47.01366" lon="-1.06582">
        <ele>75</ele>
        <time>2011-12-11T08:27:16Z</time>
      </trkpt>
      <trkpt lat="47.01365" lon="-1.06585">
        <ele>75</ele>
        <time>2011-12-11T08:27:17Z</time>
      </trkpt>
      <trkpt lat="47.01365" lon="-1.06588">
        <ele>75</ele>
        <time>2011-12-11T08:27:20Z</time>
      </trkpt>
      <trkpt lat="47.01366" lon="-1.0659">
        <ele>75</ele>
        <time>2011-12-11T08:27:20Z</time>
      </trkpt>
      <trkpt lat="47.01366" lon="-1.06592">
        <ele>74</ele>
        <time>2011-12-11T08:27:22Z</time>
      </trkpt>
      <trkpt lat="47.01366" lon="-1.06594">
        <ele>73</ele>
        <time>2011-12-11T08:27:22Z</time>
      </trkpt>
      <trkpt lat="47.01366" lon="-1.06596">
        <ele>73</ele>
        <time>2011-12-11T08:27:23Z</time>
      </trkpt>
      <trkpt lat="47.01367" lon="-1.06598">
        <ele>73</ele>
        <time>2011-12-11T08:27:24Z</time>
      </trkpt>
      <trkpt lat="47.01367" lon="-1.066">
        <ele>72</ele>
        <time>2011-12-11T08:27:26Z</time>
      </trkpt>
      <trkpt lat="47.01368" lon="-1.06602">
        <ele>72</ele>
        <time>2011-12-11T08:27:26Z</time>
      </trkpt>
      <trkpt lat="47.01368" lon="-1.06604">
        <ele>71</ele>
        <time>2011-12-11T08:27:27Z</time>
      </trkpt>
      <trkpt lat="47.01368" lon="-1.06606">
        <ele>71</ele>
        <time>2011-12-11T08:27:28Z</time>
      </trkpt>
      <trkpt lat="47.01368" lon="-1.06607">
        <ele>71</ele>
        <time>2011-12-11T08:27:30Z</time>
      </trkpt>
      <trkpt lat="47.01366" lon="-1.0661">
        <ele>70</ele>
        <time>2011-12-11T08:27:31Z</time>
      </trkpt>
      <trkpt lat="47.01366" lon="-1.06613">
        <ele>70</ele>
        <time>2011-12-11T08:27:32Z</time>
      </trkpt>
      <trkpt lat="47.01364" lon="-1.06615">
        <ele>69</ele>
        <time>2011-12-11T08:27:34Z</time>
      </trkpt>
      <trkpt lat="47.01362" lon="-1.06617">
        <ele>69</ele>
        <time>2011-12-11T08:27:36Z</time>
      </trkpt>
      <trkpt lat="47.0136" lon="-1.0662">
        <ele>68</ele>
        <time>2011-12-11T08:27:38Z</time>
      </trkpt>
      <trkpt lat="47.01359" lon="-1.06621">
        <ele>67</ele>
        <time>2011-12-11T08:27:39Z</time>
      </trkpt>
      <trkpt lat="47.01357" lon="-1.06623">
        <ele>67</ele>
        <time>2011-12-11T08:27:41Z</time>
      </trkpt>
      <trkpt lat="47.01355" lon="-1.06625">
        <ele>65</ele>
        <time>2011-12-11T08:27:43Z</time>
      </trkpt>
      <trkpt lat="47.01355" lon="-1.06627">
        <ele>65</ele>
        <time>2011-12-11T08:27:45Z</time>
      </trkpt>
      <trkpt lat="47.01354" lon="-1.06629">
        <ele>64</ele>
        <time>2011-12-11T08:27:45Z</time>
      </trkpt>
      <trkpt lat="47.01353" lon="-1.06631">
        <ele>64</ele>
        <time>2011-12-11T08:27:47Z</time>
      </trkpt>
      <trkpt lat="47.01353" lon="-1.06633">
        <ele>64</ele>
        <time>2011-12-11T08:27:47Z</time>
      </trkpt>
      <trkpt lat="47.01352" lon="-1.06635">
        <ele>63</ele>
        <time>2011-12-11T08:27:49Z</time>
      </trkpt>
      <trkpt lat="47.01352" lon="-1.06637">
        <ele>63</ele>
        <time>2011-12-11T08:27:50Z</time>
      </trkpt>
      <trkpt lat="47.01353" lon="-1.06639">
        <ele>63</ele>
        <time>2011-12-11T08:27:50Z</time>
      </trkpt>
      <trkpt lat="47.01353" lon="-1.0664">
        <ele>63</ele>
        <time>2011-12-11T08:27:51Z</time>
      </trkpt>
      <trkpt lat="47.01353" lon="-1.06642">
        <ele>62</ele>
        <time>2011-12-11T08:27:52Z</time>
      </trkpt>
      <trkpt lat="47.01354" lon="-1.06644">
        <ele>62</ele>
        <time>2011-12-11T08:27:53Z</time>
      </trkpt>
      <trkpt lat="47.01354" lon="-1.06646">
        <ele>61</ele>
        <time>2011-12-11T08:27:54Z</time>
      </trkpt>
      <trkpt lat="47.01354" lon="-1.06648">
        <ele>61</ele>
        <time>2011-12-11T08:27:55Z</time>
      </trkpt>
      <trkpt lat="47.01355" lon="-1.06649">
        <ele>61</ele>
        <time>2011-12-11T08:27:56Z</time>
      </trkpt>
      <trkpt lat="47.01355" lon="-1.06651">
        <ele>61</ele>
        <time>2011-12-11T08:27:57Z</time>
      </trkpt>
      <trkpt lat="47.01355" lon="-1.06653">
        <ele>60</ele>
        <time>2011-12-11T08:27:59Z</time>
      </trkpt>
      <trkpt lat="47.01355" lon="-1.06655">
        <ele>60</ele>
        <time>2011-12-11T08:27:59Z</time>
      </trkpt>
      <trkpt lat="47.01355" lon="-1.06657">
        <ele>60</ele>
        <time>2011-12-11T08:28:00Z</time>
      </trkpt>
      <trkpt lat="47.01355" lon="-1.06658">
        <ele>60</ele>
        <time>2011-12-11T08:28:02Z</time>
      </trkpt>
      <trkpt lat="47.01354" lon="-1.0666">
        <ele>60</ele>
        <time>2011-12-11T08:28:02Z</time>
      </trkpt>
      <trkpt lat="47.01354" lon="-1.06662">
        <ele>60</ele>
        <time>2011-12-11T08:28:04Z</time>
      </trkpt>
      <trkpt lat="47.01354" lon="-1.06664">
        <ele>60</ele>
        <time>2011-12-11T08:28:04Z</time>
      </trkpt>
      <trkpt lat="47.01354" lon="-1.06666">
        <ele>60</ele>
        <time>2011-12-11T08:28:05Z</time>
      </trkpt>
      <trkpt lat="47.01354" lon="-1.06667">
        <ele>60</ele>
        <time>2011-12-11T08:28:06Z</time>
      </trkpt>
      <trkpt lat="47.01353" lon="-1.0667">
        <ele>60</ele>
        <time>2011-12-11T08:28:07Z</time>
      </trkpt>
      <trkpt lat="47.01353" lon="-1.06671">
        <ele>60</ele>
        <time>2011-12-11T08:28:09Z</time>
      </trkpt>
      <trkpt lat="47.01352" lon="-1.06674">
        <ele>60</ele>
        <time>2011-12-11T08:28:11Z</time>
      </trkpt>
      <trkpt lat="47.01351" lon="-1.06676">
        <ele>60</ele>
        <time>2011-12-11T08:28:11Z</time>
      </trkpt>
      <trkpt lat="47.01351" lon="-1.06677">
        <ele>60</ele>
        <time>2011-12-11T08:28:12Z</time>
      </trkpt>
      <trkpt lat="47.01351" lon="-1.06679">
        <ele>60</ele>
        <time>2011-12-11T08:28:13Z</time>
      </trkpt>
      <trkpt lat="47.01349" lon="-1.06681">
        <ele>60</ele>
        <time>2011-12-11T08:28:16Z</time>
      </trkpt>
      <trkpt lat="47.01348" lon="-1.06683">
        <ele>60</ele>
        <time>2011-12-11T08:28:17Z</time>
      </trkpt>
      <trkpt lat="47.01347" lon="-1.06685">
        <ele>60</ele>
        <time>2011-12-11T08:28:18Z</time>
      </trkpt>
      <trkpt lat="47.01347" lon="-1.06687">
        <ele>60</ele>
        <time>2011-12-11T08:28:20Z</time>
      </trkpt>
      <trkpt lat="47.01346" lon="-1.06689">
        <ele>60</ele>
        <time>2011-12-11T08:28:20Z</time>
      </trkpt>
      <trkpt lat="47.01345" lon="-1.0669">
        <ele>60</ele>
        <time>2011-12-11T08:28:22Z</time>
      </trkpt>
      <trkpt lat="47.01345" lon="-1.06692">
        <ele>60</ele>
        <time>2011-12-11T08:28:22Z</time>
      </trkpt>
      <trkpt lat="47.01344" lon="-1.06694">
        <ele>60</ele>
        <time>2011-12-11T08:28:25Z</time>
      </trkpt>
      <trkpt lat="47.01344" lon="-1.06696">
        <ele>60</ele>
        <time>2011-12-11T08:28:25Z</time>
      </trkpt>
      <trkpt lat="47.01343" lon="-1.06697">
        <ele>60</ele>
        <time>2011-12-11T08:28:27Z</time>
      </trkpt>
      <trkpt lat="47.01342" lon="-1.06699">
        <ele>60</ele>
        <time>2011-12-11T08:28:27Z</time>
      </trkpt>
      <trkpt lat="47.01342" lon="-1.06702">
        <ele>60</ele>
        <time>2011-12-11T08:28:29Z</time>
      </trkpt>
      <trkpt lat="47.01341" lon="-1.06703">
        <ele>60</ele>
        <time>2011-12-11T08:28:30Z</time>
      </trkpt>
      <trkpt lat="47.01341" lon="-1.06706">
        <ele>58</ele>
        <time>2011-12-11T08:28:32Z</time>
      </trkpt>
      <trkpt lat="47.01341" lon="-1.06708">
        <ele>58</ele>
        <time>2011-12-11T08:28:33Z</time>
      </trkpt>
      <trkpt lat="47.01341" lon="-1.0671">
        <ele>57</ele>
        <time>2011-12-11T08:28:34Z</time>
      </trkpt>
      <trkpt lat="47.0134" lon="-1.06711">
        <ele>56</ele>
        <time>2011-12-11T08:28:36Z</time>
      </trkpt>
      <trkpt lat="47.0134" lon="-1.06713">
        <ele>56</ele>
        <time>2011-12-11T08:28:36Z</time>
      </trkpt>
      <trkpt lat="47.01341" lon="-1.06716">
        <ele>54</ele>
        <time>2011-12-11T08:28:39Z</time>
      </trkpt>
      <trkpt lat="47.01341" lon="-1.06719">
        <ele>52</ele>
        <time>2011-12-11T08:28:40Z</time>
      </trkpt>
      <trkpt lat="47.0134" lon="-1.06721">
        <ele>51</ele>
        <time>2011-12-11T08:28:42Z</time>
      </trkpt>
      <trkpt lat="47.01338" lon="-1.06724">
        <ele>51</ele>
        <time>2011-12-11T08:28:44Z</time>
      </trkpt>
      <trkpt lat="47.01338" lon="-1.06726">
        <ele>51</ele>
        <time>2011-12-11T08:28:45Z</time>
      </trkpt>
      <trkpt lat="47.01338" lon="-1.06727">
        <ele>51</ele>
        <time>2011-12-11T08:28:46Z</time>
      </trkpt>
      <trkpt lat="47.01338" lon="-1.06729">
        <ele>51</ele>
        <time>2011-12-11T08:28:47Z</time>
      </trkpt>
      <trkpt lat="47.01338" lon="-1.0673">
        <ele>51</ele>
        <time>2011-12-11T08:28:48Z</time>
      </trkpt>
      <trkpt lat="47.01338" lon="-1.06732">
        <ele>51</ele>
        <time>2011-12-11T08:28:49Z</time>
      </trkpt>
      <trkpt lat="47.01338" lon="-1.06734">
        <ele>51</ele>
        <time>2011-12-11T08:28:51Z</time>
      </trkpt>
      <trkpt lat="47.01338" lon="-1.06736">
        <ele>50</ele>
        <time>2011-12-11T08:28:51Z</time>
      </trkpt>
      <trkpt lat="47.01338" lon="-1.06737">
        <ele>49</ele>
        <time>2011-12-11T08:28:52Z</time>
      </trkpt>
      <trkpt lat="47.01338" lon="-1.06739">
        <ele>48</ele>
        <time>2011-12-11T08:28:53Z</time>
      </trkpt>
      <trkpt lat="47.01338" lon="-1.06741">
        <ele>47</ele>
        <time>2011-12-11T08:28:54Z</time>
      </trkpt>
      <trkpt lat="47.01338" lon="-1.06743">
        <ele>46</ele>
        <time>2011-12-11T08:28:55Z</time>
      </trkpt>
      <trkpt lat="47.01338" lon="-1.06745">
        <ele>45</ele>
        <time>2011-12-11T08:28:56Z</time>
      </trkpt>
      <trkpt lat="47.01337" lon="-1.06747">
        <ele>45</ele>
        <time>2011-12-11T08:28:57Z</time>
      </trkpt>
      <trkpt lat="47.01337" lon="-1.06748">
        <ele>45</ele>
        <time>2011-12-11T08:28:58Z</time>
      </trkpt>
      <trkpt lat="47.01337" lon="-1.0675">
        <ele>44</ele>
        <time>2011-12-11T08:28:59Z</time>
      </trkpt>
      <trkpt lat="47.01336" lon="-1.06752">
        <ele>44</ele>
        <time>2011-12-11T08:29:01Z</time>
      </trkpt>
      <trkpt lat="47.01336" lon="-1.06754">
        <ele>44</ele>
        <time>2011-12-11T08:29:02Z</time>
      </trkpt>
      <trkpt lat="47.01335" lon="-1.06757">
        <ele>43</ele>
        <time>2011-12-11T08:29:03Z</time>
      </trkpt>
      <trkpt lat="47.01334" lon="-1.06759">
        <ele>43</ele>
        <time>2011-12-11T08:29:05Z</time>
      </trkpt>
      <trkpt lat="47.01333" lon="-1.06761">
        <ele>43</ele>
        <time>2011-12-11T08:29:06Z</time>
      </trkpt>
      <trkpt lat="47.01332" lon="-1.06763">
        <ele>43</ele>
        <time>2011-12-11T08:29:07Z</time>
      </trkpt>
      <trkpt lat="47.01331" lon="-1.06766">
        <ele>43</ele>
        <time>2011-12-11T08:29:07Z</time>
      </trkpt>
      <trkpt lat="47.01331" lon="-1.06767">
        <ele>43</ele>
        <time>2011-12-11T08:29:08Z</time>
      </trkpt>
      <trkpt lat="47.01331" lon="-1.06769">
        <ele>43</ele>
        <time>2011-12-11T08:29:10Z</time>
      </trkpt>
      <trkpt lat="47.01331" lon="-1.06771">
        <ele>43</ele>
        <time>2011-12-11T08:29:10Z</time>
      </trkpt>
      <trkpt lat="47.01331" lon="-1.06773">
        <ele>43</ele>
        <time>2011-12-11T08:29:11Z</time>
      </trkpt>
      <trkpt lat="47.0133" lon="-1.06775">
        <ele>43</ele>
        <time>2011-12-11T08:29:13Z</time>
      </trkpt>
      <trkpt lat="47.0133" lon="-1.06777">
        <ele>43</ele>
        <time>2011-12-11T08:29:13Z</time>
      </trkpt>
      <trkpt lat="47.0133" lon="-1.06779">
        <ele>43</ele>
        <time>2011-12-11T08:29:15Z</time>
      </trkpt>
      <trkpt lat="47.0133" lon="-1.06781">
        <ele>43</ele>
        <time>2011-12-11T08:29:16Z</time>
      </trkpt>
      <trkpt lat="47.0133" lon="-1.06783">
        <ele>43</ele>
        <time>2011-12-11T08:29:16Z</time>
      </trkpt>
      <trkpt lat="47.01329" lon="-1.06785">
        <ele>43</ele>
        <time>2011-12-11T08:29:18Z</time>
      </trkpt>
      <trkpt lat="47.01329" lon="-1.06787">
        <ele>43</ele>
        <time>2011-12-11T08:29:18Z</time>
      </trkpt>
      <trkpt lat="47.01329" lon="-1.06789">
        <ele>43</ele>
        <time>2011-12-11T08:29:19Z</time>
      </trkpt>
      <trkpt lat="47.01328" lon="-1.06791">
        <ele>43</ele>
        <time>2011-12-11T08:29:20Z</time>
      </trkpt>
      <trkpt lat="47.01328" lon="-1.06793">
        <ele>43</ele>
        <time>2011-12-11T08:29:21Z</time>
      </trkpt>
      <trkpt lat="47.01328" lon="-1.06795">
        <ele>43</ele>
        <time>2011-12-11T08:29:22Z</time>
      </trkpt>
      <trkpt lat="47.01327" lon="-1.06797">
        <ele>43</ele>
        <time>2011-12-11T08:29:23Z</time>
      </trkpt>
      <trkpt lat="47.01327" lon="-1.06799">
        <ele>43</ele>
        <time>2011-12-11T08:29:24Z</time>
      </trkpt>
      <trkpt lat="47.01327" lon="-1.06801">
        <ele>43</ele>
        <time>2011-12-11T08:29:25Z</time>
      </trkpt>
      <trkpt lat="47.01327" lon="-1.06804">
        <ele>43</ele>
        <time>2011-12-11T08:29:26Z</time>
      </trkpt>
      <trkpt lat="47.01326" lon="-1.06805">
        <ele>43</ele>
        <time>2011-12-11T08:29:28Z</time>
      </trkpt>
      <trkpt lat="47.01326" lon="-1.06807">
        <ele>43</ele>
        <time>2011-12-11T08:29:29Z</time>
      </trkpt>
      <trkpt lat="47.01326" lon="-1.06809">
        <ele>42</ele>
        <time>2011-12-11T08:29:29Z</time>
      </trkpt>
      <trkpt lat="47.01326" lon="-1.06811">
        <ele>42</ele>
        <time>2011-12-11T08:29:30Z</time>
      </trkpt>
      <trkpt lat="47.01325" lon="-1.06813">
        <ele>42</ele>
        <time>2011-12-11T08:29:31Z</time>
      </trkpt>
      <trkpt lat="47.01325" lon="-1.06815">
        <ele>42</ele>
        <time>2011-12-11T08:29:33Z</time>
      </trkpt>
      <trkpt lat="47.01325" lon="-1.06817">
        <ele>42</ele>
        <time>2011-12-11T08:29:33Z</time>
      </trkpt>
      <trkpt lat="47.01324" lon="-1.06819">
        <ele>42</ele>
        <time>2011-12-11T08:29:35Z</time>
      </trkpt>
      <trkpt lat="47.01323" lon="-1.06821">
        <ele>42</ele>
        <time>2011-12-11T08:29:35Z</time>
      </trkpt>
      <trkpt lat="47.01323" lon="-1.06824">
        <ele>42</ele>
        <time>2011-12-11T08:29:37Z</time>
      </trkpt>
      <trkpt lat="47.01323" lon="-1.06825">
        <ele>42</ele>
        <time>2011-12-11T08:29:37Z</time>
      </trkpt>
      <trkpt lat="47.01322" lon="-1.06827">
        <ele>42</ele>
        <time>2011-12-11T08:29:38Z</time>
      </trkpt>
      <trkpt lat="47.01322" lon="-1.0683">
        <ele>42</ele>
        <time>2011-12-11T08:29:40Z</time>
      </trkpt>
      <trkpt lat="47.01322" lon="-1.06832">
        <ele>42</ele>
        <time>2011-12-11T08:29:40Z</time>
      </trkpt>
      <trkpt lat="47.01321" lon="-1.06833">
        <ele>41</ele>
        <time>2011-12-11T08:29:42Z</time>
      </trkpt>
      <trkpt lat="47.01321" lon="-1.06835">
        <ele>41</ele>
        <time>2011-12-11T08:29:42Z</time>
      </trkpt>
      <trkpt lat="47.01321" lon="-1.06837">
        <ele>40</ele>
        <time>2011-12-11T08:29:44Z</time>
      </trkpt>
      <trkpt lat="47.0132" lon="-1.06839">
        <ele>40</ele>
        <time>2011-12-11T08:29:44Z</time>
      </trkpt>
      <trkpt lat="47.0132" lon="-1.06841">
        <ele>40</ele>
        <time>2011-12-11T08:29:46Z</time>
      </trkpt>
      <trkpt lat="47.01319" lon="-1.06843">
        <ele>40</ele>
        <time>2011-12-11T08:29:46Z</time>
      </trkpt>
      <trkpt lat="47.01319" lon="-1.06845">
        <ele>40</ele>
        <time>2011-12-11T08:29:48Z</time>
      </trkpt>
      <trkpt lat="47.01318" lon="-1.06847">
        <ele>40</ele>
        <time>2011-12-11T08:29:48Z</time>
      </trkpt>
      <trkpt lat="47.01317" lon="-1.06849">
        <ele>40</ele>
        <time>2011-12-11T08:29:50Z</time>
      </trkpt>
      <trkpt lat="47.01316" lon="-1.0685">
        <ele>40</ele>
        <time>2011-12-11T08:29:50Z</time>
      </trkpt>
      <trkpt lat="47.01315" lon="-1.06852">
        <ele>40</ele>
        <time>2011-12-11T08:29:52Z</time>
      </trkpt>
      <trkpt lat="47.01314" lon="-1.06854">
        <ele>40</ele>
        <time>2011-12-11T08:29:53Z</time>
      </trkpt>
      <trkpt lat="47.01313" lon="-1.06856">
        <ele>40</ele>
        <time>2011-12-11T08:29:53Z</time>
      </trkpt>
      <trkpt lat="47.01312" lon="-1.06858">
        <ele>40</ele>
        <time>2011-12-11T08:29:54Z</time>
      </trkpt>
      <trkpt lat="47.01311" lon="-1.0686">
        <ele>40</ele>
        <time>2011-12-11T08:29:55Z</time>
      </trkpt>
      <trkpt lat="47.0131" lon="-1.06862">
        <ele>40</ele>
        <time>2011-12-11T08:29:56Z</time>
      </trkpt>
      <trkpt lat="47.0131" lon="-1.06864">
        <ele>40</ele>
        <time>2011-12-11T08:29:58Z</time>
      </trkpt>
      <trkpt lat="47.01309" lon="-1.06865">
        <ele>40</ele>
        <time>2011-12-11T08:29:58Z</time>
      </trkpt>
      <trkpt lat="47.01309" lon="-1.06867">
        <ele>40</ele>
        <time>2011-12-11T08:29:59Z</time>
      </trkpt>
      <trkpt lat="47.01308" lon="-1.06869">
        <ele>40</ele>
        <time>2011-12-11T08:30:00Z</time>
      </trkpt>
      <trkpt lat="47.01308" lon="-1.06871">
        <ele>40</ele>
        <time>2011-12-11T08:30:01Z</time>
      </trkpt>
      <trkpt lat="47.01308" lon="-1.06872">
        <ele>40</ele>
        <time>2011-12-11T08:30:03Z</time>
      </trkpt>
      <trkpt lat="47.01307" lon="-1.06875">
        <ele>40</ele>
        <time>2011-12-11T08:30:03Z</time>
      </trkpt>
      <trkpt lat="47.01307" lon="-1.06876">
        <ele>40</ele>
        <time>2011-12-11T08:30:04Z</time>
      </trkpt>
      <trkpt lat="47.01307" lon="-1.06878">
        <ele>40</ele>
        <time>2011-12-11T08:30:05Z</time>
      </trkpt>
      <trkpt lat="47.01306" lon="-1.0688">
        <ele>40</ele>
        <time>2011-12-11T08:30:06Z</time>
      </trkpt>
      <trkpt lat="47.01306" lon="-1.06881">
        <ele>40</ele>
        <time>2011-12-11T08:30:07Z</time>
      </trkpt>
      <trkpt lat="47.01305" lon="-1.06884">
        <ele>40</ele>
        <time>2011-12-11T08:30:08Z</time>
      </trkpt>
      <trkpt lat="47.01303" lon="-1.06886">
        <ele>40</ele>
        <time>2011-12-11T08:30:09Z</time>
      </trkpt>
      <trkpt lat="47.01303" lon="-1.06887">
        <ele>40</ele>
        <time>2011-12-11T08:30:11Z</time>
      </trkpt>
      <trkpt lat="47.01302" lon="-1.06888">
        <ele>40</ele>
        <time>2011-12-11T08:30:12Z</time>
      </trkpt>
      <trkpt lat="47.01302" lon="-1.06891">
        <ele>40</ele>
        <time>2011-12-11T08:30:13Z</time>
      </trkpt>
      <trkpt lat="47.01302" lon="-1.06893">
        <ele>40</ele>
        <time>2011-12-11T08:30:15Z</time>
      </trkpt>
      <trkpt lat="47.01301" lon="-1.06895">
        <ele>40</ele>
        <time>2011-12-11T08:30:16Z</time>
      </trkpt>
      <trkpt lat="47.013" lon="-1.06897">
        <ele>40</ele>
        <time>2011-12-11T08:30:17Z</time>
      </trkpt>
      <trkpt lat="47.013" lon="-1.06899">
        <ele>40</ele>
        <time>2011-12-11T08:30:18Z</time>
      </trkpt>
      <trkpt lat="47.01299" lon="-1.06901">
        <ele>40</ele>
        <time>2011-12-11T08:30:19Z</time>
      </trkpt>
      <trkpt lat="47.01298" lon="-1.06903">
        <ele>41</ele>
        <time>2011-12-11T08:30:20Z</time>
      </trkpt>
      <trkpt lat="47.01297" lon="-1.06905">
        <ele>41</ele>
        <time>2011-12-11T08:30:21Z</time>
      </trkpt>
      <trkpt lat="47.01297" lon="-1.06906">
        <ele>41</ele>
        <time>2011-12-11T08:30:22Z</time>
      </trkpt>
      <trkpt lat="47.01297" lon="-1.06908">
        <ele>42</ele>
        <time>2011-12-11T08:30:24Z</time>
      </trkpt>
      <trkpt lat="47.01296" lon="-1.0691">
        <ele>42</ele>
        <time>2011-12-11T08:30:25Z</time>
      </trkpt>
      <trkpt lat="47.01295" lon="-1.06911">
        <ele>42</ele>
        <time>2011-12-11T08:30:25Z</time>
      </trkpt>
      <trkpt lat="47.01294" lon="-1.06913">
        <ele>42</ele>
        <time>2011-12-11T08:30:26Z</time>
      </trkpt>
      <trkpt lat="47.01294" lon="-1.06915">
        <ele>42</ele>
        <time>2011-12-11T08:30:27Z</time>
      </trkpt>
      <trkpt lat="47.01293" lon="-1.06916">
        <ele>43</ele>
        <time>2011-12-11T08:30:28Z</time>
      </trkpt>
      <trkpt lat="47.01293" lon="-1.06918">
        <ele>43</ele>
        <time>2011-12-11T08:30:29Z</time>
      </trkpt>
      <trkpt lat="47.01292" lon="-1.0692">
        <ele>43</ele>
        <time>2011-12-11T08:30:30Z</time>
      </trkpt>
      <trkpt lat="47.01291" lon="-1.06923">
        <ele>44</ele>
        <time>2011-12-11T08:30:33Z</time>
      </trkpt>
      <trkpt lat="47.01291" lon="-1.06925">
        <ele>44</ele>
        <time>2011-12-11T08:30:33Z</time>
      </trkpt>
      <trkpt lat="47.01289" lon="-1.06927">
        <ele>44</ele>
        <time>2011-12-11T08:30:34Z</time>
      </trkpt>
      <trkpt lat="47.01289" lon="-1.06928">
        <ele>44</ele>
        <time>2011-12-11T08:30:36Z</time>
      </trkpt>
      <trkpt lat="47.01288" lon="-1.0693">
        <ele>44</ele>
        <time>2011-12-11T08:30:37Z</time>
      </trkpt>
      <trkpt lat="47.01287" lon="-1.06932">
        <ele>44</ele>
        <time>2011-12-11T08:30:37Z</time>
      </trkpt>
      <trkpt lat="47.01286" lon="-1.06934">
        <ele>44</ele>
        <time>2011-12-11T08:30:38Z</time>
      </trkpt>
      <trkpt lat="47.01286" lon="-1.06935">
        <ele>44</ele>
        <time>2011-12-11T08:30:39Z</time>
      </trkpt>
      <trkpt lat="47.01285" lon="-1.06937">
        <ele>44</ele>
        <time>2011-12-11T08:30:40Z</time>
      </trkpt>
      <trkpt lat="47.01284" lon="-1.06939">
        <ele>44</ele>
        <time>2011-12-11T08:30:41Z</time>
      </trkpt>
      <trkpt lat="47.01283" lon="-1.0694">
        <ele>44</ele>
        <time>2011-12-11T08:30:42Z</time>
      </trkpt>
      <trkpt lat="47.01283" lon="-1.06942">
        <ele>44</ele>
        <time>2011-12-11T08:30:44Z</time>
      </trkpt>
      <trkpt lat="47.01282" lon="-1.06944">
        <ele>44</ele>
        <time>2011-12-11T08:30:45Z</time>
      </trkpt>
      <trkpt lat="47.01281" lon="-1.06945">
        <ele>44</ele>
        <time>2011-12-11T08:30:45Z</time>
      </trkpt>
      <trkpt lat="47.0128" lon="-1.06947">
        <ele>44</ele>
        <time>2011-12-11T08:30:47Z</time>
      </trkpt>
      <trkpt lat="47.01279" lon="-1.06948">
        <ele>44</ele>
        <time>2011-12-11T08:30:48Z</time>
      </trkpt>
      <trkpt lat="47.01278" lon="-1.0695">
        <ele>44</ele>
        <time>2011-12-11T08:30:48Z</time>
      </trkpt>
      <trkpt lat="47.01276" lon="-1.06953">
        <ele>44</ele>
        <time>2011-12-11T08:30:50Z</time>
      </trkpt>
      <trkpt lat="47.01276" lon="-1.06954">
        <ele>44</ele>
        <time>2011-12-11T08:30:52Z</time>
      </trkpt>
      <trkpt lat="47.01275" lon="-1.06956">
        <ele>44</ele>
        <time>2011-12-11T08:30:52Z</time>
      </trkpt>
      <trkpt lat="47.01274" lon="-1.06958">
        <ele>44</ele>
        <time>2011-12-11T08:30:53Z</time>
      </trkpt>
      <trkpt lat="47.01274" lon="-1.06959">
        <ele>45</ele>
        <time>2011-12-11T08:30:54Z</time>
      </trkpt>
      <trkpt lat="47.01273" lon="-1.06961">
        <ele>45</ele>
        <time>2011-12-11T08:30:55Z</time>
      </trkpt>
      <trkpt lat="47.01271" lon="-1.06963">
        <ele>45</ele>
        <time>2011-12-11T08:30:56Z</time>
      </trkpt>
      <trkpt lat="47.01271" lon="-1.06964">
        <ele>45</ele>
        <time>2011-12-11T08:30:58Z</time>
      </trkpt>
      <trkpt lat="47.0127" lon="-1.06965">
        <ele>45</ele>
        <time>2011-12-11T08:30:58Z</time>
      </trkpt>
      <trkpt lat="47.01268" lon="-1.06967">
        <ele>46</ele>
        <time>2011-12-11T08:30:59Z</time>
      </trkpt>
      <trkpt lat="47.01267" lon="-1.06968">
        <ele>46</ele>
        <time>2011-12-11T08:31:00Z</time>
      </trkpt>
      <trkpt lat="47.01267" lon="-1.0697">
        <ele>46</ele>
        <time>2011-12-11T08:31:01Z</time>
      </trkpt>
      <trkpt lat="47.01266" lon="-1.06972">
        <ele>47</ele>
        <time>2011-12-11T08:31:02Z</time>
      </trkpt>
      <trkpt lat="47.01266" lon="-1.06973">
        <ele>47</ele>
        <time>2011-12-11T08:31:03Z</time>
      </trkpt>
      <trkpt lat="47.01264" lon="-1.06976">
        <ele>47</ele>
        <time>2011-12-11T08:31:06Z</time>
      </trkpt>
      <trkpt lat="47.01263" lon="-1.06979">
        <ele>47</ele>
        <time>2011-12-11T08:31:07Z</time>
      </trkpt>
      <trkpt lat="47.01262" lon="-1.0698">
        <ele>47</ele>
        <time>2011-12-11T08:31:08Z</time>
      </trkpt>
      <trkpt lat="47.0126" lon="-1.06983">
        <ele>47</ele>
        <time>2011-12-11T08:31:10Z</time>
      </trkpt>
      <trkpt lat="47.01258" lon="-1.06985">
        <ele>47</ele>
        <time>2011-12-11T08:31:12Z</time>
      </trkpt>
      <trkpt lat="47.01257" lon="-1.06989">
        <ele>47</ele>
        <time>2011-12-11T08:31:14Z</time>
      </trkpt>
      <trkpt lat="47.01256" lon="-1.06991">
        <ele>47</ele>
        <time>2011-12-11T08:31:15Z</time>
      </trkpt>
      <trkpt lat="47.01255" lon="-1.06992">
        <ele>47</ele>
        <time>2011-12-11T08:31:17Z</time>
      </trkpt>
      <trkpt lat="47.01254" lon="-1.06994">
        <ele>47</ele>
        <time>2011-12-11T08:31:17Z</time>
      </trkpt>
      <trkpt lat="47.01252" lon="-1.06997">
        <ele>47</ele>
        <time>2011-12-11T08:31:20Z</time>
      </trkpt>
      <trkpt lat="47.01252" lon="-1.06998">
        <ele>47</ele>
        <time>2011-12-11T08:31:20Z</time>
      </trkpt>
      <trkpt lat="47.0125" lon="-1.07">
        <ele>47</ele>
        <time>2011-12-11T08:31:22Z</time>
      </trkpt>
      <trkpt lat="47.01249" lon="-1.07003">
        <ele>47</ele>
        <time>2011-12-11T08:31:24Z</time>
      </trkpt>
      <trkpt lat="47.01248" lon="-1.07005">
        <ele>47</ele>
        <time>2011-12-11T08:31:25Z</time>
      </trkpt>
      <trkpt lat="47.01247" lon="-1.07007">
        <ele>47</ele>
        <time>2011-12-11T08:31:26Z</time>
      </trkpt>
      <trkpt lat="47.01245" lon="-1.07009">
        <ele>47</ele>
        <time>2011-12-11T08:31:28Z</time>
      </trkpt>
      <trkpt lat="47.01244" lon="-1.07011">
        <ele>47</ele>
        <time>2011-12-11T08:31:29Z</time>
      </trkpt>
      <trkpt lat="47.01242" lon="-1.07012">
        <ele>47</ele>
        <time>2011-12-11T08:31:30Z</time>
      </trkpt>
      <trkpt lat="47.01242" lon="-1.07013">
        <ele>47</ele>
        <time>2011-12-11T08:31:32Z</time>
      </trkpt>
      <trkpt lat="47.01241" lon="-1.07015">
        <ele>47</ele>
        <time>2011-12-11T08:31:33Z</time>
      </trkpt>
      <trkpt lat="47.01239" lon="-1.07017">
        <ele>48</ele>
        <time>2011-12-11T08:31:33Z</time>
      </trkpt>
      <trkpt lat="47.01238" lon="-1.07018">
        <ele>48</ele>
        <time>2011-12-11T08:31:34Z</time>
      </trkpt>
      <trkpt lat="47.01236" lon="-1.07019">
        <ele>49</ele>
        <time>2011-12-11T08:31:36Z</time>
      </trkpt>
      <trkpt lat="47.01234" lon="-1.07022">
        <ele>50</ele>
        <time>2011-12-11T08:31:38Z</time>
      </trkpt>
      <trkpt lat="47.01232" lon="-1.07025">
        <ele>51</ele>
        <time>2011-12-11T08:31:41Z</time>
      </trkpt>
      <trkpt lat="47.01231" lon="-1.07027">
        <ele>51</ele>
        <time>2011-12-11T08:31:42Z</time>
      </trkpt>
      <trkpt lat="47.01231" lon="-1.07029">
        <ele>51</ele>
        <time>2011-12-11T08:31:42Z</time>
      </trkpt>
      <trkpt lat="47.01229" lon="-1.07032">
        <ele>51</ele>
        <time>2011-12-11T08:31:44Z</time>
      </trkpt>
      <trkpt lat="47.01229" lon="-1.07034">
        <ele>51</ele>
        <time>2011-12-11T08:31:45Z</time>
      </trkpt>
      <trkpt lat="47.01228" lon="-1.07036">
        <ele>51</ele>
        <time>2011-12-11T08:31:46Z</time>
      </trkpt>
      <trkpt lat="47.01227" lon="-1.07037">
        <ele>51</ele>
        <time>2011-12-11T08:31:47Z</time>
      </trkpt>
      <trkpt lat="47.01226" lon="-1.07038">
        <ele>51</ele>
        <time>2011-12-11T08:31:48Z</time>
      </trkpt>
      <trkpt lat="47.01223" lon="-1.0704">
        <ele>51</ele>
        <time>2011-12-11T08:31:50Z</time>
      </trkpt>
      <trkpt lat="47.01222" lon="-1.07041">
        <ele>51</ele>
        <time>2011-12-11T08:31:52Z</time>
      </trkpt>
      <trkpt lat="47.0122" lon="-1.07042">
        <ele>51</ele>
        <time>2011-12-11T08:31:52Z</time>
      </trkpt>
      <trkpt lat="47.0122" lon="-1.07044">
        <ele>52</ele>
        <time>2011-12-11T08:31:53Z</time>
      </trkpt>
      <trkpt lat="47.01218" lon="-1.07046">
        <ele>52</ele>
        <time>2011-12-11T08:31:55Z</time>
      </trkpt>
      <trkpt lat="47.01217" lon="-1.07047">
        <ele>52</ele>
        <time>2011-12-11T08:31:57Z</time>
      </trkpt>
      <trkpt lat="47.01215" lon="-1.07049">
        <ele>52</ele>
        <time>2011-12-11T08:31:58Z</time>
      </trkpt>
      <trkpt lat="47.01214" lon="-1.07051">
        <ele>52</ele>
        <time>2011-12-11T08:32:01Z</time>
      </trkpt>
      <trkpt lat="47.01212" lon="-1.07053">
        <ele>52</ele>
        <time>2011-12-11T08:32:02Z</time>
      </trkpt>
      <trkpt lat="47.0121" lon="-1.07055">
        <ele>52</ele>
        <time>2011-12-11T08:32:05Z</time>
      </trkpt>
      <trkpt lat="47.01208" lon="-1.07057">
        <ele>52</ele>
        <time>2011-12-11T08:32:07Z</time>
      </trkpt>
      <trkpt lat="47.01207" lon="-1.07058">
        <ele>52</ele>
        <time>2011-12-11T08:32:08Z</time>
      </trkpt>
      <trkpt lat="47.01206" lon="-1.07059">
        <ele>52</ele>
        <time>2011-12-11T08:32:08Z</time>
      </trkpt>
      <trkpt lat="47.01205" lon="-1.0706">
        <ele>52</ele>
        <time>2011-12-11T08:32:09Z</time>
      </trkpt>
      <trkpt lat="47.01204" lon="-1.07061">
        <ele>52</ele>
        <time>2011-12-11T08:32:10Z</time>
      </trkpt>
      <trkpt lat="47.01202" lon="-1.07062">
        <ele>52</ele>
        <time>2011-12-11T08:32:11Z</time>
      </trkpt>
      <trkpt lat="47.012" lon="-1.07065">
        <ele>52</ele>
        <time>2011-12-11T08:32:13Z</time>
      </trkpt>
      <trkpt lat="47.01199" lon="-1.07067">
        <ele>52</ele>
        <time>2011-12-11T08:32:15Z</time>
      </trkpt>
      <trkpt lat="47.01197" lon="-1.0707">
        <ele>52</ele>
        <time>2011-12-11T08:32:17Z</time>
      </trkpt>
      <trkpt lat="47.01196" lon="-1.07071">
        <ele>52</ele>
        <time>2011-12-11T08:32:18Z</time>
      </trkpt>
      <trkpt lat="47.01195" lon="-1.07072">
        <ele>52</ele>
        <time>2011-12-11T08:32:20Z</time>
      </trkpt>
      <trkpt lat="47.01194" lon="-1.07074">
        <ele>52</ele>
        <time>2011-12-11T08:32:20Z</time>
      </trkpt>
      <trkpt lat="47.01192" lon="-1.07077">
        <ele>52</ele>
        <time>2011-12-11T08:32:22Z</time>
      </trkpt>
      <trkpt lat="47.01191" lon="-1.07079">
        <ele>52</ele>
        <time>2011-12-11T08:32:23Z</time>
      </trkpt>
      <trkpt lat="47.01191" lon="-1.0708">
        <ele>52</ele>
        <time>2011-12-11T08:32:24Z</time>
      </trkpt>
      <trkpt lat="47.0119" lon="-1.07082">
        <ele>51</ele>
        <time>2011-12-11T08:32:26Z</time>
      </trkpt>
      <trkpt lat="47.01189" lon="-1.07084">
        <ele>51</ele>
        <time>2011-12-11T08:32:27Z</time>
      </trkpt>
      <trkpt lat="47.01188" lon="-1.07085">
        <ele>51</ele>
        <time>2011-12-11T08:32:29Z</time>
      </trkpt>
      <trkpt lat="47.01187" lon="-1.07088">
        <ele>50</ele>
        <time>2011-12-11T08:32:30Z</time>
      </trkpt>
      <trkpt lat="47.01186" lon="-1.0709">
        <ele>50</ele>
        <time>2011-12-11T08:32:31Z</time>
      </trkpt>
      <trkpt lat="47.01185" lon="-1.07091">
        <ele>50</ele>
        <time>2011-12-11T08:32:32Z</time>
      </trkpt>
      <trkpt lat="47.01184" lon="-1.07093">
        <ele>50</ele>
        <time>2011-12-11T08:32:34Z</time>
      </trkpt>
      <trkpt lat="47.01183" lon="-1.07096">
        <ele>49</ele>
        <time>2011-12-11T08:32:35Z</time>
      </trkpt>
      <trkpt lat="47.01182" lon="-1.07097">
        <ele>49</ele>
        <time>2011-12-11T08:32:37Z</time>
      </trkpt>
      <trkpt lat="47.01181" lon="-1.07099">
        <ele>49</ele>
        <time>2011-12-11T08:32:37Z</time>
      </trkpt>
      <trkpt lat="47.01181" lon="-1.071">
        <ele>48</ele>
        <time>2011-12-11T08:32:39Z</time>
      </trkpt>
      <trkpt lat="47.0118" lon="-1.07102">
        <ele>48</ele>
        <time>2011-12-11T08:32:39Z</time>
      </trkpt>
      <trkpt lat="47.01179" lon="-1.07105">
        <ele>47</ele>
        <time>2011-12-11T08:32:41Z</time>
      </trkpt>
      <trkpt lat="47.01178" lon="-1.07106">
        <ele>47</ele>
        <time>2011-12-11T08:32:42Z</time>
      </trkpt>
      <trkpt lat="47.01178" lon="-1.07108">
        <ele>47</ele>
        <time>2011-12-11T08:32:44Z</time>
      </trkpt>
      <trkpt lat="47.01177" lon="-1.0711">
        <ele>47</ele>
        <time>2011-12-11T08:32:45Z</time>
      </trkpt>
      <trkpt lat="47.01176" lon="-1.07111">
        <ele>47</ele>
        <time>2011-12-11T08:32:45Z</time>
      </trkpt>
      <trkpt lat="47.01174" lon="-1.07114">
        <ele>47</ele>
        <time>2011-12-11T08:32:47Z</time>
      </trkpt>
      <trkpt lat="47.01173" lon="-1.07116">
        <ele>47</ele>
        <time>2011-12-11T08:32:49Z</time>
      </trkpt>
      <trkpt lat="47.01173" lon="-1.07117">
        <ele>47</ele>
        <time>2011-12-11T08:32:49Z</time>
      </trkpt>
      <trkpt lat="47.01171" lon="-1.0712">
        <ele>47</ele>
        <time>2011-12-11T08:32:52Z</time>
      </trkpt>
      <trkpt lat="47.0117" lon="-1.07123">
        <ele>47</ele>
        <time>2011-12-11T08:32:53Z</time>
      </trkpt>
      <trkpt lat="47.01169" lon="-1.07124">
        <ele>47</ele>
        <time>2011-12-11T08:32:54Z</time>
      </trkpt>
      <trkpt lat="47.01168" lon="-1.07125">
        <ele>47</ele>
        <time>2011-12-11T08:32:55Z</time>
      </trkpt>
      <trkpt lat="47.01167" lon="-1.07127">
        <ele>47</ele>
        <time>2011-12-11T08:32:56Z</time>
      </trkpt>
      <trkpt lat="47.01166" lon="-1.07129">
        <ele>47</ele>
        <time>2011-12-11T08:32:58Z</time>
      </trkpt>
      <trkpt lat="47.01165" lon="-1.0713">
        <ele>47</ele>
        <time>2011-12-11T08:32:58Z</time>
      </trkpt>
      <trkpt lat="47.01164" lon="-1.07131">
        <ele>47</ele>
        <time>2011-12-11T08:33:00Z</time>
      </trkpt>
      <trkpt lat="47.01163" lon="-1.07133">
        <ele>47</ele>
        <time>2011-12-11T08:33:01Z</time>
      </trkpt>
      <trkpt lat="47.01162" lon="-1.07135">
        <ele>47</ele>
        <time>2011-12-11T08:33:01Z</time>
      </trkpt>
      <trkpt lat="47.01161" lon="-1.07136">
        <ele>47</ele>
        <time>2011-12-11T08:33:02Z</time>
      </trkpt>
      <trkpt lat="47.0116" lon="-1.07138">
        <ele>47</ele>
        <time>2011-12-11T08:33:03Z</time>
      </trkpt>
      <trkpt lat="47.0116" lon="-1.07139">
        <ele>47</ele>
        <time>2011-12-11T08:33:04Z</time>
      </trkpt>
      <trkpt lat="47.01159" lon="-1.07141">
        <ele>47</ele>
        <time>2011-12-11T08:33:05Z</time>
      </trkpt>
      <trkpt lat="47.01158" lon="-1.07142">
        <ele>47</ele>
        <time>2011-12-11T08:33:06Z</time>
      </trkpt>
      <trkpt lat="47.01158" lon="-1.07144">
        <ele>47</ele>
        <time>2011-12-11T08:33:08Z</time>
      </trkpt>
      <trkpt lat="47.01157" lon="-1.07146">
        <ele>47</ele>
        <time>2011-12-11T08:33:09Z</time>
      </trkpt>
      <trkpt lat="47.01156" lon="-1.07148">
        <ele>47</ele>
        <time>2011-12-11T08:33:09Z</time>
      </trkpt>
      <trkpt lat="47.01156" lon="-1.0715">
        <ele>47</ele>
        <time>2011-12-11T08:33:10Z</time>
      </trkpt>
      <trkpt lat="47.01155" lon="-1.07151">
        <ele>47</ele>
        <time>2011-12-11T08:33:11Z</time>
      </trkpt>
      <trkpt lat="47.01154" lon="-1.07152">
        <ele>47</ele>
        <time>2011-12-11T08:33:13Z</time>
      </trkpt>
      <trkpt lat="47.01154" lon="-1.07154">
        <ele>47</ele>
        <time>2011-12-11T08:33:13Z</time>
      </trkpt>
      <trkpt lat="47.01152" lon="-1.07157">
        <ele>47</ele>
        <time>2011-12-11T08:33:15Z</time>
      </trkpt>
      <trkpt lat="47.01151" lon="-1.07158">
        <ele>47</ele>
        <time>2011-12-11T08:33:16Z</time>
      </trkpt>
      <trkpt lat="47.0115" lon="-1.07161">
        <ele>47</ele>
        <time>2011-12-11T08:33:18Z</time>
      </trkpt>
      <trkpt lat="47.01149" lon="-1.07164">
        <ele>47</ele>
        <time>2011-12-11T08:33:20Z</time>
      </trkpt>
      <trkpt lat="47.01148" lon="-1.07165">
        <ele>47</ele>
        <time>2011-12-11T08:33:22Z</time>
      </trkpt>
      <trkpt lat="47.01147" lon="-1.07167">
        <ele>47</ele>
        <time>2011-12-11T08:33:22Z</time>
      </trkpt>
      <trkpt lat="47.01146" lon="-1.07168">
        <ele>47</ele>
        <time>2011-12-11T08:33:23Z</time>
      </trkpt>
      <trkpt lat="47.01146" lon="-1.07169">
        <ele>47</ele>
        <time>2011-12-11T08:33:24Z</time>
      </trkpt>
      <trkpt lat="47.01145" lon="-1.07171">
        <ele>47</ele>
        <time>2011-12-11T08:33:25Z</time>
      </trkpt>
      <trkpt lat="47.01144" lon="-1.07173">
        <ele>47</ele>
        <time>2011-12-11T08:33:28Z</time>
      </trkpt>
      <trkpt lat="47.01142" lon="-1.07176">
        <ele>47</ele>
        <time>2011-12-11T08:33:29Z</time>
      </trkpt>
      <trkpt lat="47.01141" lon="-1.07178">
        <ele>47</ele>
        <time>2011-12-11T08:33:30Z</time>
      </trkpt>
      <trkpt lat="47.0114" lon="-1.07179">
        <ele>47</ele>
        <time>2011-12-11T08:33:32Z</time>
      </trkpt>
      <trkpt lat="47.01139" lon="-1.07181">
        <ele>47</ele>
        <time>2011-12-11T08:33:32Z</time>
      </trkpt>
      <trkpt lat="47.01139" lon="-1.07183">
        <ele>47</ele>
        <time>2011-12-11T08:33:33Z</time>
      </trkpt>
      <trkpt lat="47.01137" lon="-1.07184">
        <ele>47</ele>
        <time>2011-12-11T08:33:35Z</time>
      </trkpt>
      <trkpt lat="47.01136" lon="-1.07186">
        <ele>47</ele>
        <time>2011-12-11T08:33:36Z</time>
      </trkpt>
      <trkpt lat="47.01135" lon="-1.07188">
        <ele>47</ele>
        <time>2011-12-11T08:33:37Z</time>
      </trkpt>
      <trkpt lat="47.01134" lon="-1.0719">
        <ele>48</ele>
        <time>2011-12-11T08:33:39Z</time>
      </trkpt>
      <trkpt lat="47.01134" lon="-1.07192">
        <ele>48</ele>
        <time>2011-12-11T08:33:40Z</time>
      </trkpt>
      <trkpt lat="47.01133" lon="-1.07194">
        <ele>48</ele>
        <time>2011-12-11T08:33:41Z</time>
      </trkpt>
      <trkpt lat="47.01132" lon="-1.07195">
        <ele>48</ele>
        <time>2011-12-11T08:33:41Z</time>
      </trkpt>
      <trkpt lat="47.01132" lon="-1.07197">
        <ele>48</ele>
        <time>2011-12-11T08:33:42Z</time>
      </trkpt>
      <trkpt lat="47.01131" lon="-1.07198">
        <ele>48</ele>
        <time>2011-12-11T08:33:43Z</time>
      </trkpt>
      <trkpt lat="47.0113" lon="-1.07201">
        <ele>48</ele>
        <time>2011-12-11T08:33:46Z</time>
      </trkpt>
      <trkpt lat="47.01129" lon="-1.07202">
        <ele>48</ele>
        <time>2011-12-11T08:33:47Z</time>
      </trkpt>
      <trkpt lat="47.01128" lon="-1.07204">
        <ele>48</ele>
        <time>2011-12-11T08:33:48Z</time>
      </trkpt>
      <trkpt lat="47.01128" lon="-1.07205">
        <ele>48</ele>
        <time>2011-12-11T08:33:48Z</time>
      </trkpt>
      <trkpt lat="47.01127" lon="-1.07207">
        <ele>48</ele>
        <time>2011-12-11T08:33:50Z</time>
      </trkpt>
      <trkpt lat="47.01126" lon="-1.0721">
        <ele>48</ele>
        <time>2011-12-11T08:33:51Z</time>
      </trkpt>
      <trkpt lat="47.01125" lon="-1.07212">
        <ele>48</ele>
        <time>2011-12-11T08:33:52Z</time>
      </trkpt>
      <trkpt lat="47.01124" lon="-1.07214">
        <ele>48</ele>
        <time>2011-12-11T08:33:54Z</time>
      </trkpt>
      <trkpt lat="47.01123" lon="-1.07216">
        <ele>48</ele>
        <time>2011-12-11T08:33:56Z</time>
      </trkpt>
      <trkpt lat="47.01122" lon="-1.07218">
        <ele>48</ele>
        <time>2011-12-11T08:33:56Z</time>
      </trkpt>
      <trkpt lat="47.01122" lon="-1.07219">
        <ele>48</ele>
        <time>2011-12-11T08:33:58Z</time>
      </trkpt>
      <trkpt lat="47.01121" lon="-1.07221">
        <ele>48</ele>
        <time>2011-12-11T08:33:58Z</time>
      </trkpt>
      <trkpt lat="47.0112" lon="-1.07223">
        <ele>48</ele>
        <time>2011-12-11T08:34:00Z</time>
      </trkpt>
      <trkpt lat="47.0112" lon="-1.07224">
        <ele>48</ele>
        <time>2011-12-11T08:34:00Z</time>
      </trkpt>
      <trkpt lat="47.01118" lon="-1.07227">
        <ele>48</ele>
        <time>2011-12-11T08:34:02Z</time>
      </trkpt>
      <trkpt lat="47.01117" lon="-1.07229">
        <ele>48</ele>
        <time>2011-12-11T08:34:03Z</time>
      </trkpt>
      <trkpt lat="47.01117" lon="-1.07231">
        <ele>48</ele>
        <time>2011-12-11T08:34:05Z</time>
      </trkpt>
      <trkpt lat="47.01116" lon="-1.07232">
        <ele>48</ele>
        <time>2011-12-11T08:34:06Z</time>
      </trkpt>
      <trkpt lat="47.01115" lon="-1.07234">
        <ele>48</ele>
        <time>2011-12-11T08:34:07Z</time>
      </trkpt>
      <trkpt lat="47.01114" lon="-1.07237">
        <ele>48</ele>
        <time>2011-12-11T08:34:08Z</time>
      </trkpt>
      <trkpt lat="47.01113" lon="-1.07238">
        <ele>48</ele>
        <time>2011-12-11T08:34:10Z</time>
      </trkpt>
      <trkpt lat="47.01111" lon="-1.0724">
        <ele>48</ele>
        <time>2011-12-11T08:34:11Z</time>
      </trkpt>
      <trkpt lat="47.0111" lon="-1.07242">
        <ele>48</ele>
        <time>2011-12-11T08:34:12Z</time>
      </trkpt>
      <trkpt lat="47.01107" lon="-1.07244">
        <ele>48</ele>
        <time>2011-12-11T08:34:15Z</time>
      </trkpt>
      <trkpt lat="47.01105" lon="-1.07246">
        <ele>48</ele>
        <time>2011-12-11T08:34:17Z</time>
      </trkpt>
      <trkpt lat="47.01104" lon="-1.07246">
        <ele>48</ele>
        <time>2011-12-11T08:34:17Z</time>
      </trkpt>
      <trkpt lat="47.01102" lon="-1.07247">
        <ele>48</ele>
        <time>2011-12-11T08:34:18Z</time>
      </trkpt>
      <trkpt lat="47.01101" lon="-1.07247">
        <ele>48</ele>
        <time>2011-12-11T08:34:19Z</time>
      </trkpt>
      <trkpt lat="47.011" lon="-1.07247">
        <ele>48</ele>
        <time>2011-12-11T08:34:20Z</time>
      </trkpt>
      <trkpt lat="47.01099" lon="-1.07247">
        <ele>48</ele>
        <time>2011-12-11T08:34:21Z</time>
      </trkpt>
      <trkpt lat="47.01097" lon="-1.07247">
        <ele>48</ele>
        <time>2011-12-11T08:34:22Z</time>
      </trkpt>
      <trkpt lat="47.01096" lon="-1.07247">
        <ele>48</ele>
        <time>2011-12-11T08:34:23Z</time>
      </trkpt>
      <trkpt lat="47.01094" lon="-1.07246">
        <ele>48</ele>
        <time>2011-12-11T08:34:24Z</time>
      </trkpt>
      <trkpt lat="47.01093" lon="-1.07246">
        <ele>48</ele>
        <time>2011-12-11T08:34:26Z</time>
      </trkpt>
      <trkpt lat="47.01091" lon="-1.07245">
        <ele>48</ele>
        <time>2011-12-11T08:34:26Z</time>
      </trkpt>
      <trkpt lat="47.01089" lon="-1.07243">
        <ele>48</ele>
        <time>2011-12-11T08:34:28Z</time>
      </trkpt>
      <trkpt lat="47.01088" lon="-1.07241">
        <ele>48</ele>
        <time>2011-12-11T08:34:31Z</time>
      </trkpt>
      <trkpt lat="47.01087" lon="-1.07239">
        <ele>48</ele>
        <time>2011-12-11T08:34:32Z</time>
      </trkpt>
      <trkpt lat="47.01086" lon="-1.07238">
        <ele>48</ele>
        <time>2011-12-11T08:34:32Z</time>
      </trkpt>
      <trkpt lat="47.01086" lon="-1.07236">
        <ele>48</ele>
        <time>2011-12-11T08:34:33Z</time>
      </trkpt>
      <trkpt lat="47.01085" lon="-1.07235">
        <ele>48</ele>
        <time>2011-12-11T08:34:34Z</time>
      </trkpt>
      <trkpt lat="47.01084" lon="-1.07233">
        <ele>48</ele>
        <time>2011-12-11T08:34:36Z</time>
      </trkpt>
      <trkpt lat="47.01084" lon="-1.07231">
        <ele>48</ele>
        <time>2011-12-11T08:34:36Z</time>
      </trkpt>
      <trkpt lat="47.01083" lon="-1.0723">
        <ele>48</ele>
        <time>2011-12-11T08:34:37Z</time>
      </trkpt>
      <trkpt lat="47.01083" lon="-1.07228">
        <ele>48</ele>
        <time>2011-12-11T08:34:39Z</time>
      </trkpt>
      <trkpt lat="47.01083" lon="-1.07227">
        <ele>48</ele>
        <time>2011-12-11T08:34:39Z</time>
      </trkpt>
      <trkpt lat="47.01083" lon="-1.07225">
        <ele>48</ele>
        <time>2011-12-11T08:34:40Z</time>
      </trkpt>
      <trkpt lat="47.01082" lon="-1.07222">
        <ele>48</ele>
        <time>2011-12-11T08:34:42Z</time>
      </trkpt>
      <trkpt lat="47.01081" lon="-1.0722">
        <ele>48</ele>
        <time>2011-12-11T08:34:44Z</time>
      </trkpt>
      <trkpt lat="47.01081" lon="-1.07218">
        <ele>48</ele>
        <time>2011-12-11T08:34:45Z</time>
      </trkpt>
      <trkpt lat="47.01081" lon="-1.07216">
        <ele>48</ele>
        <time>2011-12-11T08:34:46Z</time>
      </trkpt>
      <trkpt lat="47.0108" lon="-1.07214">
        <ele>48</ele>
        <time>2011-12-11T08:34:47Z</time>
      </trkpt>
      <trkpt lat="47.0108" lon="-1.07213">
        <ele>48</ele>
        <time>2011-12-11T08:34:48Z</time>
      </trkpt>
      <trkpt lat="47.0108" lon="-1.07211">
        <ele>48</ele>
        <time>2011-12-11T08:34:49Z</time>
      </trkpt>
      <trkpt lat="47.0108" lon="-1.0721">
        <ele>48</ele>
        <time>2011-12-11T08:34:51Z</time>
      </trkpt>
      <trkpt lat="47.01079" lon="-1.07208">
        <ele>48</ele>
        <time>2011-12-11T08:34:51Z</time>
      </trkpt>
      <trkpt lat="47.01079" lon="-1.07206">
        <ele>49</ele>
        <time>2011-12-11T08:34:52Z</time>
      </trkpt>
      <trkpt lat="47.01078" lon="-1.07204">
        <ele>49</ele>
        <time>2011-12-11T08:34:53Z</time>
      </trkpt>
      <trkpt lat="47.01078" lon="-1.07202">
        <ele>49</ele>
        <time>2011-12-11T08:34:55Z</time>
      </trkpt>
      <trkpt lat="47.01078" lon="-1.072">
        <ele>49</ele>
        <time>2011-12-11T08:34:56Z</time>
      </trkpt>
      <trkpt lat="47.01077" lon="-1.07198">
        <ele>49</ele>
        <time>2011-12-11T08:34:58Z</time>
      </trkpt>
      <trkpt lat="47.01077" lon="-1.07196">
        <ele>49</ele>
        <time>2011-12-11T08:34:58Z</time>
      </trkpt>
      <trkpt lat="47.01077" lon="-1.07194">
        <ele>49</ele>
        <time>2011-12-11T08:34:59Z</time>
      </trkpt>
      <trkpt lat="47.01077" lon="-1.07193">
        <ele>49</ele>
        <time>2011-12-11T08:35:01Z</time>
      </trkpt>
      <trkpt lat="47.01076" lon="-1.07191">
        <ele>49</ele>
        <time>2011-12-11T08:35:01Z</time>
      </trkpt>
      <trkpt lat="47.01076" lon="-1.07189">
        <ele>49</ele>
        <time>2011-12-11T08:35:03Z</time>
      </trkpt>
      <trkpt lat="47.01076" lon="-1.07187">
        <ele>49</ele>
        <time>2011-12-11T08:35:03Z</time>
      </trkpt>
      <trkpt lat="47.01075" lon="-1.07185">
        <ele>49</ele>
        <time>2011-12-11T08:35:04Z</time>
      </trkpt>
      <trkpt lat="47.01075" lon="-1.07183">
        <ele>49</ele>
        <time>2011-12-11T08:35:06Z</time>
      </trkpt>
      <trkpt lat="47.01075" lon="-1.07181">
        <ele>49</ele>
        <time>2011-12-11T08:35:06Z</time>
      </trkpt>
      <trkpt lat="47.01075" lon="-1.07179">
        <ele>49</ele>
        <time>2011-12-11T08:35:07Z</time>
      </trkpt>
      <trkpt lat="47.01074" lon="-1.07176">
        <ele>49</ele>
        <time>2011-12-11T08:35:10Z</time>
      </trkpt>
      <trkpt lat="47.01073" lon="-1.07174">
        <ele>49</ele>
        <time>2011-12-11T08:35:11Z</time>
      </trkpt>
      <trkpt lat="47.01073" lon="-1.07172">
        <ele>49</ele>
        <time>2011-12-11T08:35:11Z</time>
      </trkpt>
      <trkpt lat="47.01073" lon="-1.0717">
        <ele>49</ele>
        <time>2011-12-11T08:35:12Z</time>
      </trkpt>
      <trkpt lat="47.01073" lon="-1.07168">
        <ele>49</ele>
        <time>2011-12-11T08:35:14Z</time>
      </trkpt>
      <trkpt lat="47.01072" lon="-1.07167">
        <ele>49</ele>
        <time>2011-12-11T08:35:15Z</time>
      </trkpt>
      <trkpt lat="47.01072" lon="-1.07165">
        <ele>49</ele>
        <time>2011-12-11T08:35:16Z</time>
      </trkpt>
      <trkpt lat="47.01071" lon="-1.07162">
        <ele>49</ele>
        <time>2011-12-11T08:35:16Z</time>
      </trkpt>
      <trkpt lat="47.01071" lon="-1.07161">
        <ele>49</ele>
        <time>2011-12-11T08:35:18Z</time>
      </trkpt>
      <trkpt lat="47.0107" lon="-1.07159">
        <ele>49</ele>
        <time>2011-12-11T08:35:18Z</time>
      </trkpt>
      <trkpt lat="47.0107" lon="-1.07157">
        <ele>49</ele>
        <time>2011-12-11T08:35:20Z</time>
      </trkpt>
      <trkpt lat="47.0107" lon="-1.07156">
        <ele>49</ele>
        <time>2011-12-11T08:35:20Z</time>
      </trkpt>
      <trkpt lat="47.0107" lon="-1.07154">
        <ele>49</ele>
        <time>2011-12-11T08:35:21Z</time>
      </trkpt>
      <trkpt lat="47.0107" lon="-1.07152">
        <ele>49</ele>
        <time>2011-12-11T08:35:22Z</time>
      </trkpt>
      <trkpt lat="47.01069" lon="-1.07151">
        <ele>49</ele>
        <time>2011-12-11T08:35:23Z</time>
      </trkpt>
      <trkpt lat="47.01069" lon="-1.07149">
        <ele>49</ele>
        <time>2011-12-11T08:35:24Z</time>
      </trkpt>
      <trkpt lat="47.01068" lon="-1.07148">
        <ele>49</ele>
        <time>2011-12-11T08:35:25Z</time>
      </trkpt>
      <trkpt lat="47.01068" lon="-1.07146">
        <ele>49</ele>
        <time>2011-12-11T08:35:26Z</time>
      </trkpt>
      <trkpt lat="47.01068" lon="-1.07144">
        <ele>49</ele>
        <time>2011-12-11T08:35:28Z</time>
      </trkpt>
      <trkpt lat="47.01067" lon="-1.07143">
        <ele>49</ele>
        <time>2011-12-11T08:35:28Z</time>
      </trkpt>
      <trkpt lat="47.01067" lon="-1.07141">
        <ele>49</ele>
        <time>2011-12-11T08:35:30Z</time>
      </trkpt>
      <trkpt lat="47.01067" lon="-1.0714">
        <ele>49</ele>
        <time>2011-12-11T08:35:39Z</time>
      </trkpt>
      <trkpt lat="47.01066" lon="-1.07139">
        <ele>49</ele>
        <time>2011-12-11T08:35:46Z</time>
      </trkpt>
      <trkpt lat="47.01065" lon="-1.07139">
        <ele>49</ele>
        <time>2011-12-11T08:35:51Z</time>
      </trkpt>
      <trkpt lat="47.01064" lon="-1.07139">
        <ele>49</ele>
        <time>2011-12-11T08:35:58Z</time>
      </trkpt>
      <trkpt lat="47.01063" lon="-1.0714">
        <ele>49</ele>
        <time>2011-12-11T08:35:59Z</time>
      </trkpt>
      <trkpt lat="47.01061" lon="-1.07141">
        <ele>49</ele>
        <time>2011-12-11T08:36:02Z</time>
      </trkpt>
      <trkpt lat="47.0106" lon="-1.07142">
        <ele>49</ele>
        <time>2011-12-11T08:36:06Z</time>
      </trkpt>
      <trkpt lat="47.01058" lon="-1.07143">
        <ele>49</ele>
        <time>2011-12-11T08:36:08Z</time>
      </trkpt>
      <trkpt lat="47.01056" lon="-1.07143">
        <ele>49</ele>
        <time>2011-12-11T08:36:09Z</time>
      </trkpt>
      <trkpt lat="47.01055" lon="-1.07144">
        <ele>49</ele>
        <time>2011-12-11T08:36:11Z</time>
      </trkpt>
      <trkpt lat="47.01053" lon="-1.07144">
        <ele>49</ele>
        <time>2011-12-11T08:36:12Z</time>
      </trkpt>
      <trkpt lat="47.01052" lon="-1.07144">
        <ele>49</ele>
        <time>2011-12-11T08:36:14Z</time>
      </trkpt>
      <trkpt lat="47.01051" lon="-1.07143">
        <ele>49</ele>
        <time>2011-12-11T08:36:15Z</time>
      </trkpt>
      <trkpt lat="47.01049" lon="-1.07143">
        <ele>49</ele>
        <time>2011-12-11T08:36:15Z</time>
      </trkpt>
      <trkpt lat="47.01047" lon="-1.07144">
        <ele>49</ele>
        <time>2011-12-11T08:36:17Z</time>
      </trkpt>
      <trkpt lat="47.01046" lon="-1.07143">
        <ele>49</ele>
        <time>2011-12-11T08:36:18Z</time>
      </trkpt>
      <trkpt lat="47.01044" lon="-1.07143">
        <ele>49</ele>
        <time>2011-12-11T08:36:19Z</time>
      </trkpt>
      <trkpt lat="47.01043" lon="-1.07143">
        <ele>49</ele>
        <time>2011-12-11T08:36:21Z</time>
      </trkpt>
      <trkpt lat="47.01041" lon="-1.07142">
        <ele>49</ele>
        <time>2011-12-11T08:36:21Z</time>
      </trkpt>
      <trkpt lat="47.0104" lon="-1.07142">
        <ele>49</ele>
        <time>2011-12-11T08:36:22Z</time>
      </trkpt>
      <trkpt lat="47.01039" lon="-1.07142">
        <ele>49</ele>
        <time>2011-12-11T08:36:24Z</time>
      </trkpt>
      <trkpt lat="47.01038" lon="-1.07142">
        <ele>49</ele>
        <time>2011-12-11T08:36:24Z</time>
      </trkpt>
      <trkpt lat="47.01036" lon="-1.07142">
        <ele>49</ele>
        <time>2011-12-11T08:36:25Z</time>
      </trkpt>
      <trkpt lat="47.01035" lon="-1.07142">
        <ele>49</ele>
        <time>2011-12-11T08:36:26Z</time>
      </trkpt>
      <trkpt lat="47.01034" lon="-1.07141">
        <ele>49</ele>
        <time>2011-12-11T08:36:27Z</time>
      </trkpt>
      <trkpt lat="47.01033" lon="-1.07141">
        <ele>49</ele>
        <time>2011-12-11T08:36:28Z</time>
      </trkpt>
      <trkpt lat="47.01032" lon="-1.0714">
        <ele>49</ele>
        <time>2011-12-11T08:36:30Z</time>
      </trkpt>
      <trkpt lat="47.0103" lon="-1.0714">
        <ele>49</ele>
        <time>2011-12-11T08:36:30Z</time>
      </trkpt>
      <trkpt lat="47.01028" lon="-1.07138">
        <ele>49</ele>
        <time>2011-12-11T08:36:33Z</time>
      </trkpt>
      <trkpt lat="47.01027" lon="-1.07138">
        <ele>49</ele>
        <time>2011-12-11T08:36:34Z</time>
      </trkpt>
      <trkpt lat="47.01025" lon="-1.07137">
        <ele>49</ele>
        <time>2011-12-11T08:36:36Z</time>
      </trkpt>
      <trkpt lat="47.01023" lon="-1.07137">
        <ele>49</ele>
        <time>2011-12-11T08:36:39Z</time>
      </trkpt>
      <trkpt lat="47.01021" lon="-1.07136">
        <ele>49</ele>
        <time>2011-12-11T08:36:40Z</time>
      </trkpt>
      <trkpt lat="47.01019" lon="-1.07136">
        <ele>49</ele>
        <time>2011-12-11T08:36:42Z</time>
      </trkpt>
      <trkpt lat="47.01017" lon="-1.07135">
        <ele>49</ele>
        <time>2011-12-11T08:36:43Z</time>
      </trkpt>
      <trkpt lat="47.01015" lon="-1.07135">
        <ele>49</ele>
        <time>2011-12-11T08:36:45Z</time>
      </trkpt>
      <trkpt lat="47.01014" lon="-1.07134">
        <ele>49</ele>
        <time>2011-12-11T08:36:46Z</time>
      </trkpt>
      <trkpt lat="47.01013" lon="-1.07134">
        <ele>49</ele>
        <time>2011-12-11T08:36:47Z</time>
      </trkpt>
      <trkpt lat="47.01012" lon="-1.07134">
        <ele>49</ele>
        <time>2011-12-11T08:36:49Z</time>
      </trkpt>
      <trkpt lat="47.01011" lon="-1.07134">
        <ele>49</ele>
        <time>2011-12-11T08:36:50Z</time>
      </trkpt>
      <trkpt lat="47.01009" lon="-1.07134">
        <ele>49</ele>
        <time>2011-12-11T08:36:50Z</time>
      </trkpt>
      <trkpt lat="47.01007" lon="-1.07133">
        <ele>49</ele>
        <time>2011-12-11T08:36:52Z</time>
      </trkpt>
      <trkpt lat="47.01006" lon="-1.07133">
        <ele>49</ele>
        <time>2011-12-11T08:36:54Z</time>
      </trkpt>
      <trkpt lat="47.01004" lon="-1.07132">
        <ele>49</ele>
        <time>2011-12-11T08:36:55Z</time>
      </trkpt>
      <trkpt lat="47.01001" lon="-1.07131">
        <ele>49</ele>
        <time>2011-12-11T08:36:58Z</time>
      </trkpt>
      <trkpt lat="47.01" lon="-1.0713">
        <ele>49</ele>
        <time>2011-12-11T08:36:58Z</time>
      </trkpt>
      <trkpt lat="47.00999" lon="-1.0713">
        <ele>49</ele>
        <time>2011-12-11T08:36:59Z</time>
      </trkpt>
      <trkpt lat="47.00997" lon="-1.07132">
        <ele>49</ele>
        <time>2011-12-11T08:37:02Z</time>
      </trkpt>
      <trkpt lat="47.00996" lon="-1.07132">
        <ele>49</ele>
        <time>2011-12-11T08:37:04Z</time>
      </trkpt>
      <trkpt lat="47.00994" lon="-1.07131">
        <ele>49</ele>
        <time>2011-12-11T08:37:06Z</time>
      </trkpt>
      <trkpt lat="47.00993" lon="-1.07132">
        <ele>49</ele>
        <time>2011-12-11T08:37:07Z</time>
      </trkpt>
      <trkpt lat="47.00991" lon="-1.07132">
        <ele>49</ele>
        <time>2011-12-11T08:37:10Z</time>
      </trkpt>
      <trkpt lat="47.00989" lon="-1.07132">
        <ele>49</ele>
        <time>2011-12-11T08:37:11Z</time>
      </trkpt>
      <trkpt lat="47.00988" lon="-1.07132">
        <ele>49</ele>
        <time>2011-12-11T08:37:13Z</time>
      </trkpt>
      <trkpt lat="47.00986" lon="-1.07133">
        <ele>49</ele>
        <time>2011-12-11T08:37:15Z</time>
      </trkpt>
      <trkpt lat="47.00984" lon="-1.07134">
        <ele>49</ele>
        <time>2011-12-11T08:37:17Z</time>
      </trkpt>
      <trkpt lat="47.00982" lon="-1.07134">
        <ele>49</ele>
        <time>2011-12-11T08:37:19Z</time>
      </trkpt>
      <trkpt lat="47.0098" lon="-1.07135">
        <ele>49</ele>
        <time>2011-12-11T08:37:22Z</time>
      </trkpt>
      <trkpt lat="47.00978" lon="-1.07136">
        <ele>49</ele>
        <time>2011-12-11T08:37:24Z</time>
      </trkpt>
      <trkpt lat="47.00977" lon="-1.07137">
        <ele>49</ele>
        <time>2011-12-11T08:37:25Z</time>
      </trkpt>
      <trkpt lat="47.00975" lon="-1.07138">
        <ele>49</ele>
        <time>2011-12-11T08:37:27Z</time>
      </trkpt>
      <trkpt lat="47.00974" lon="-1.07136">
        <ele>49</ele>
        <time>2011-12-11T08:37:34Z</time>
      </trkpt>
      <trkpt lat="47.00975" lon="-1.07133">
        <ele>50</ele>
        <time>2011-12-11T08:37:37Z</time>
      </trkpt>
      <trkpt lat="47.00976" lon="-1.07131">
        <ele>50</ele>
        <time>2011-12-11T08:37:38Z</time>
      </trkpt>
      <trkpt lat="47.00977" lon="-1.07129">
        <ele>50</ele>
        <time>2011-12-11T08:37:40Z</time>
      </trkpt>
      <trkpt lat="47.00978" lon="-1.07126">
        <ele>50</ele>
        <time>2011-12-11T08:37:42Z</time>
      </trkpt>
      <trkpt lat="47.00978" lon="-1.07124">
        <ele>50</ele>
        <time>2011-12-11T08:37:43Z</time>
      </trkpt>
      <trkpt lat="47.00978" lon="-1.07122">
        <ele>50</ele>
        <time>2011-12-11T08:37:45Z</time>
      </trkpt>
      <trkpt lat="47.00979" lon="-1.07121">
        <ele>50</ele>
        <time>2011-12-11T08:37:46Z</time>
      </trkpt>
      <trkpt lat="47.00979" lon="-1.07119">
        <ele>50</ele>
        <time>2011-12-11T08:37:46Z</time>
      </trkpt>
      <trkpt lat="47.00978" lon="-1.07117">
        <ele>50</ele>
        <time>2011-12-11T08:37:47Z</time>
      </trkpt>
      <trkpt lat="47.00977" lon="-1.07115">
        <ele>50</ele>
        <time>2011-12-11T08:37:48Z</time>
      </trkpt>
      <trkpt lat="47.00975" lon="-1.07113">
        <ele>50</ele>
        <time>2011-12-11T08:37:49Z</time>
      </trkpt>
      <trkpt lat="47.00974" lon="-1.07112">
        <ele>50</ele>
        <time>2011-12-11T08:37:50Z</time>
      </trkpt>
      <trkpt lat="47.00973" lon="-1.07109">
        <ele>50</ele>
        <time>2011-12-11T08:37:52Z</time>
      </trkpt>
      <trkpt lat="47.00972" lon="-1.07107">
        <ele>50</ele>
        <time>2011-12-11T08:37:54Z</time>
      </trkpt>
      <trkpt lat="47.00969" lon="-1.07105">
        <ele>50</ele>
        <time>2011-12-11T08:37:54Z</time>
      </trkpt>
      <trkpt lat="47.00968" lon="-1.07104">
        <ele>50</ele>
        <time>2011-12-11T08:37:55Z</time>
      </trkpt>
      <trkpt lat="47.00968" lon="-1.07102">
        <ele>50</ele>
        <time>2011-12-11T08:37:56Z</time>
      </trkpt>
      <trkpt lat="47.00967" lon="-1.07099">
        <ele>50</ele>
        <time>2011-12-11T08:37:58Z</time>
      </trkpt>
      <trkpt lat="47.00965" lon="-1.07097">
        <ele>50</ele>
        <time>2011-12-11T08:37:59Z</time>
      </trkpt>
      <trkpt lat="47.00965" lon="-1.07096">
        <ele>50</ele>
        <time>2011-12-11T08:38:00Z</time>
      </trkpt>
      <trkpt lat="47.00964" lon="-1.07094">
        <ele>50</ele>
        <time>2011-12-11T08:38:01Z</time>
      </trkpt>
      <trkpt lat="47.00964" lon="-1.07092">
        <ele>50</ele>
        <time>2011-12-11T08:38:02Z</time>
      </trkpt>
      <trkpt lat="47.00964" lon="-1.07089">
        <ele>50</ele>
        <time>2011-12-11T08:38:03Z</time>
      </trkpt>
      <trkpt lat="47.00963" lon="-1.07087">
        <ele>51</ele>
        <time>2011-12-11T08:38:04Z</time>
      </trkpt>
      <trkpt lat="47.00963" lon="-1.07085">
        <ele>52</ele>
        <time>2011-12-11T08:38:05Z</time>
      </trkpt>
      <trkpt lat="47.00962" lon="-1.07083">
        <ele>53</ele>
        <time>2011-12-11T08:38:07Z</time>
      </trkpt>
      <trkpt lat="47.00962" lon="-1.0708">
        <ele>54</ele>
        <time>2011-12-11T08:38:09Z</time>
      </trkpt>
      <trkpt lat="47.00961" lon="-1.07079">
        <ele>54</ele>
        <time>2011-12-11T08:38:09Z</time>
      </trkpt>
      <trkpt lat="47.00961" lon="-1.07077">
        <ele>55</ele>
        <time>2011-12-11T08:38:11Z</time>
      </trkpt>
      <trkpt lat="47.0096" lon="-1.07075">
        <ele>55</ele>
        <time>2011-12-11T08:38:12Z</time>
      </trkpt>
      <trkpt lat="47.00959" lon="-1.07071">
        <ele>55</ele>
        <time>2011-12-11T08:38:14Z</time>
      </trkpt>
      <trkpt lat="47.00959" lon="-1.0707">
        <ele>56</ele>
        <time>2011-12-11T08:38:15Z</time>
      </trkpt>
      <trkpt lat="47.00957" lon="-1.07068">
        <ele>56</ele>
        <time>2011-12-11T08:38:17Z</time>
      </trkpt>
      <trkpt lat="47.00956" lon="-1.07066">
        <ele>57</ele>
        <time>2011-12-11T08:38:18Z</time>
      </trkpt>
      <trkpt lat="47.00954" lon="-1.07064">
        <ele>57</ele>
        <time>2011-12-11T08:38:21Z</time>
      </trkpt>
      <trkpt lat="47.00953" lon="-1.07062">
        <ele>57</ele>
        <time>2011-12-11T08:38:22Z</time>
      </trkpt>
      <trkpt lat="47.00951" lon="-1.0706">
        <ele>57</ele>
        <time>2011-12-11T08:38:24Z</time>
      </trkpt>
      <trkpt lat="47.00949" lon="-1.07059">
        <ele>57</ele>
        <time>2011-12-11T08:38:26Z</time>
      </trkpt>
      <trkpt lat="47.00947" lon="-1.07056">
        <ele>57</ele>
        <time>2011-12-11T08:38:28Z</time>
      </trkpt>
      <trkpt lat="47.00945" lon="-1.07054">
        <ele>57</ele>
        <time>2011-12-11T08:38:30Z</time>
      </trkpt>
      <trkpt lat="47.00943" lon="-1.07052">
        <ele>57</ele>
        <time>2011-12-11T08:38:33Z</time>
      </trkpt>
      <trkpt lat="47.00941" lon="-1.07049">
        <ele>57</ele>
        <time>2011-12-11T08:38:34Z</time>
      </trkpt>
      <trkpt lat="47.0094" lon="-1.07048">
        <ele>57</ele>
        <time>2011-12-11T08:38:34Z</time>
      </trkpt>
      <trkpt lat="47.00939" lon="-1.07048">
        <ele>57</ele>
        <time>2011-12-11T08:38:36Z</time>
      </trkpt>
      <trkpt lat="47.00937" lon="-1.07047">
        <ele>57</ele>
        <time>2011-12-11T08:38:38Z</time>
      </trkpt>
      <trkpt lat="47.00935" lon="-1.07046">
        <ele>57</ele>
        <time>2011-12-11T08:38:40Z</time>
      </trkpt>
      <trkpt lat="47.00933" lon="-1.07045">
        <ele>57</ele>
        <time>2011-12-11T08:38:42Z</time>
      </trkpt>
      <trkpt lat="47.00932" lon="-1.07045">
        <ele>57</ele>
        <time>2011-12-11T08:38:42Z</time>
      </trkpt>
      <trkpt lat="47.0093" lon="-1.07044">
        <ele>57</ele>
        <time>2011-12-11T08:38:44Z</time>
      </trkpt>
      <trkpt lat="47.00929" lon="-1.07043">
        <ele>57</ele>
        <time>2011-12-11T08:38:45Z</time>
      </trkpt>
      <trkpt lat="47.00927" lon="-1.07042">
        <ele>57</ele>
        <time>2011-12-11T08:38:48Z</time>
      </trkpt>
      <trkpt lat="47.00926" lon="-1.07042">
        <ele>57</ele>
        <time>2011-12-11T08:38:48Z</time>
      </trkpt>
      <trkpt lat="47.00924" lon="-1.07041">
        <ele>57</ele>
        <time>2011-12-11T08:38:51Z</time>
      </trkpt>
      <trkpt lat="47.00922" lon="-1.07041">
        <ele>57</ele>
        <time>2011-12-11T08:38:51Z</time>
      </trkpt>
      <trkpt lat="47.00921" lon="-1.0704">
        <ele>57</ele>
        <time>2011-12-11T08:38:52Z</time>
      </trkpt>
      <trkpt lat="47.0092" lon="-1.0704">
        <ele>57</ele>
        <time>2011-12-11T08:38:54Z</time>
      </trkpt>
      <trkpt lat="47.00918" lon="-1.07039">
        <ele>57</ele>
        <time>2011-12-11T08:38:55Z</time>
      </trkpt>
      <trkpt lat="47.00916" lon="-1.07039">
        <ele>57</ele>
        <time>2011-12-11T08:38:57Z</time>
      </trkpt>
      <trkpt lat="47.00914" lon="-1.07038">
        <ele>57</ele>
        <time>2011-12-11T08:38:58Z</time>
      </trkpt>
      <trkpt lat="47.00913" lon="-1.07038">
        <ele>57</ele>
        <time>2011-12-11T08:39:00Z</time>
      </trkpt>
      <trkpt lat="47.00912" lon="-1.07038">
        <ele>57</ele>
        <time>2011-12-11T08:39:00Z</time>
      </trkpt>
      <trkpt lat="47.00911" lon="-1.07038">
        <ele>57</ele>
        <time>2011-12-11T08:39:01Z</time>
      </trkpt>
      <trkpt lat="47.00909" lon="-1.07038">
        <ele>57</ele>
        <time>2011-12-11T08:39:03Z</time>
      </trkpt>
      <trkpt lat="47.00908" lon="-1.07038">
        <ele>57</ele>
        <time>2011-12-11T08:39:03Z</time>
      </trkpt>
      <trkpt lat="47.00907" lon="-1.07038">
        <ele>57</ele>
        <time>2011-12-11T08:39:04Z</time>
      </trkpt>
      <trkpt lat="47.00905" lon="-1.07038">
        <ele>57</ele>
        <time>2011-12-11T08:39:06Z</time>
      </trkpt>
      <trkpt lat="47.00903" lon="-1.07038">
        <ele>57</ele>
        <time>2011-12-11T08:39:08Z</time>
      </trkpt>
      <trkpt lat="47.00902" lon="-1.07038">
        <ele>57</ele>
        <time>2011-12-11T08:39:10Z</time>
      </trkpt>
      <trkpt lat="47.00901" lon="-1.07038">
        <ele>57</ele>
        <time>2011-12-11T08:39:10Z</time>
      </trkpt>
      <trkpt lat="47.00899" lon="-1.07038">
        <ele>57</ele>
        <time>2011-12-11T08:39:12Z</time>
      </trkpt>
      <trkpt lat="47.00898" lon="-1.07038">
        <ele>57</ele>
        <time>2011-12-11T08:39:13Z</time>
      </trkpt>
      <trkpt lat="47.00897" lon="-1.07038">
        <ele>57</ele>
        <time>2011-12-11T08:39:13Z</time>
      </trkpt>
      <trkpt lat="47.00896" lon="-1.07038">
        <ele>57</ele>
        <time>2011-12-11T08:39:15Z</time>
      </trkpt>
      <trkpt lat="47.00894" lon="-1.07038">
        <ele>57</ele>
        <time>2011-12-11T08:39:16Z</time>
      </trkpt>
      <trkpt lat="47.00893" lon="-1.07038">
        <ele>57</ele>
        <time>2011-12-11T08:39:16Z</time>
      </trkpt>
      <trkpt lat="47.00892" lon="-1.07039">
        <ele>57</ele>
        <time>2011-12-11T08:39:17Z</time>
      </trkpt>
      <trkpt lat="47.0089" lon="-1.07039">
        <ele>57</ele>
        <time>2011-12-11T08:39:18Z</time>
      </trkpt>
      <trkpt lat="47.00889" lon="-1.07039">
        <ele>57</ele>
        <time>2011-12-11T08:39:20Z</time>
      </trkpt>
      <trkpt lat="47.00887" lon="-1.07039">
        <ele>57</ele>
        <time>2011-12-11T08:39:22Z</time>
      </trkpt>
      <trkpt lat="47.00886" lon="-1.07039">
        <ele>57</ele>
        <time>2011-12-11T08:39:23Z</time>
      </trkpt>
      <trkpt lat="47.00884" lon="-1.07039">
        <ele>57</ele>
        <time>2011-12-11T08:39:24Z</time>
      </trkpt>
      <trkpt lat="47.00883" lon="-1.07039">
        <ele>57</ele>
        <time>2011-12-11T08:39:25Z</time>
      </trkpt>
      <trkpt lat="47.00882" lon="-1.07039">
        <ele>57</ele>
        <time>2011-12-11T08:39:27Z</time>
      </trkpt>
      <trkpt lat="47.0088" lon="-1.07039">
        <ele>57</ele>
        <time>2011-12-11T08:39:27Z</time>
      </trkpt>
      <trkpt lat="47.00879" lon="-1.07039">
        <ele>57</ele>
        <time>2011-12-11T08:39:29Z</time>
      </trkpt>
      <trkpt lat="47.00878" lon="-1.0704">
        <ele>58</ele>
        <time>2011-12-11T08:39:44Z</time>
      </trkpt>
      <trkpt lat="47.00877" lon="-1.0704">
        <ele>58</ele>
        <time>2011-12-11T08:39:45Z</time>
      </trkpt>
      <trkpt lat="47.00875" lon="-1.0704">
        <ele>58</ele>
        <time>2011-12-11T08:39:46Z</time>
      </trkpt>
      <trkpt lat="47.00874" lon="-1.0704">
        <ele>58</ele>
        <time>2011-12-11T08:39:48Z</time>
      </trkpt>
      <trkpt lat="47.00873" lon="-1.07041">
        <ele>58</ele>
        <time>2011-12-11T08:39:51Z</time>
      </trkpt>
      <trkpt lat="47.00872" lon="-1.0704">
        <ele>58</ele>
        <time>2011-12-11T08:39:52Z</time>
      </trkpt>
      <trkpt lat="47.0087" lon="-1.0704">
        <ele>58</ele>
        <time>2011-12-11T08:39:54Z</time>
      </trkpt>
      <trkpt lat="47.00869" lon="-1.0704">
        <ele>58</ele>
        <time>2011-12-11T08:39:56Z</time>
      </trkpt>
      <trkpt lat="47.00867" lon="-1.0704">
        <ele>58</ele>
        <time>2011-12-11T08:39:57Z</time>
      </trkpt>
      <trkpt lat="47.00866" lon="-1.0704">
        <ele>58</ele>
        <time>2011-12-11T08:39:58Z</time>
      </trkpt>
      <trkpt lat="47.00865" lon="-1.0704">
        <ele>58</ele>
        <time>2011-12-11T08:39:58Z</time>
      </trkpt>
      <trkpt lat="47.00863" lon="-1.07039">
        <ele>58</ele>
        <time>2011-12-11T08:39:59Z</time>
      </trkpt>
      <trkpt lat="47.00862" lon="-1.07039">
        <ele>58</ele>
        <time>2011-12-11T08:40:00Z</time>
      </trkpt>
      <trkpt lat="47.00861" lon="-1.07039">
        <ele>58</ele>
        <time>2011-12-11T08:40:01Z</time>
      </trkpt>
      <trkpt lat="47.00859" lon="-1.07039">
        <ele>58</ele>
        <time>2011-12-11T08:40:02Z</time>
      </trkpt>
      <trkpt lat="47.00857" lon="-1.07038">
        <ele>58</ele>
        <time>2011-12-11T08:40:04Z</time>
      </trkpt>
      <trkpt lat="47.00856" lon="-1.07039">
        <ele>58</ele>
        <time>2011-12-11T08:40:05Z</time>
      </trkpt>
      <trkpt lat="47.00855" lon="-1.07039">
        <ele>58</ele>
        <time>2011-12-11T08:40:06Z</time>
      </trkpt>
      <trkpt lat="47.00853" lon="-1.07039">
        <ele>58</ele>
        <time>2011-12-11T08:40:08Z</time>
      </trkpt>
      <trkpt lat="47.00852" lon="-1.07038">
        <ele>58</ele>
        <time>2011-12-11T08:40:08Z</time>
      </trkpt>
      <trkpt lat="47.00851" lon="-1.07038">
        <ele>58</ele>
        <time>2011-12-11T08:40:09Z</time>
      </trkpt>
      <trkpt lat="47.0085" lon="-1.07038">
        <ele>58</ele>
        <time>2011-12-11T08:40:11Z</time>
      </trkpt>
      <trkpt lat="47.00848" lon="-1.07038">
        <ele>58</ele>
        <time>2011-12-11T08:40:12Z</time>
      </trkpt>
      <trkpt lat="47.00847" lon="-1.07038">
        <ele>58</ele>
        <time>2011-12-11T08:40:13Z</time>
      </trkpt>
      <trkpt lat="47.00845" lon="-1.07038">
        <ele>58</ele>
        <time>2011-12-11T08:40:14Z</time>
      </trkpt>
      <trkpt lat="47.00844" lon="-1.07037">
        <ele>58</ele>
        <time>2011-12-11T08:40:15Z</time>
      </trkpt>
      <trkpt lat="47.00843" lon="-1.07037">
        <ele>58</ele>
        <time>2011-12-11T08:40:16Z</time>
      </trkpt>
      <trkpt lat="47.00842" lon="-1.07036">
        <ele>58</ele>
        <time>2011-12-11T08:40:17Z</time>
      </trkpt>
      <trkpt lat="47.0084" lon="-1.07036">
        <ele>58</ele>
        <time>2011-12-11T08:40:19Z</time>
      </trkpt>
      <trkpt lat="47.00839" lon="-1.07036">
        <ele>59</ele>
        <time>2011-12-11T08:40:19Z</time>
      </trkpt>
      <trkpt lat="47.00838" lon="-1.07036">
        <ele>59</ele>
        <time>2011-12-11T08:40:20Z</time>
      </trkpt>
      <trkpt lat="47.00837" lon="-1.07036">
        <ele>59</ele>
        <time>2011-12-11T08:40:22Z</time>
      </trkpt>
      <trkpt lat="47.00835" lon="-1.07036">
        <ele>60</ele>
        <time>2011-12-11T08:40:22Z</time>
      </trkpt>
      <trkpt lat="47.00834" lon="-1.07035">
        <ele>60</ele>
        <time>2011-12-11T08:40:23Z</time>
      </trkpt>
      <trkpt lat="47.00833" lon="-1.07035">
        <ele>60</ele>
        <time>2011-12-11T08:40:24Z</time>
      </trkpt>
      <trkpt lat="47.00832" lon="-1.07036">
        <ele>60</ele>
        <time>2011-12-11T08:40:26Z</time>
      </trkpt>
      <trkpt lat="47.00831" lon="-1.07036">
        <ele>60</ele>
        <time>2011-12-11T08:40:27Z</time>
      </trkpt>
      <trkpt lat="47.00829" lon="-1.07036">
        <ele>60</ele>
        <time>2011-12-11T08:40:28Z</time>
      </trkpt>
      <trkpt lat="47.00827" lon="-1.07036">
        <ele>60</ele>
        <time>2011-12-11T08:40:29Z</time>
      </trkpt>
      <trkpt lat="47.00826" lon="-1.07036">
        <ele>60</ele>
        <time>2011-12-11T08:40:30Z</time>
      </trkpt>
      <trkpt lat="47.00824" lon="-1.07036">
        <ele>61</ele>
        <time>2011-12-11T08:40:33Z</time>
      </trkpt>
      <trkpt lat="47.00822" lon="-1.07036">
        <ele>61</ele>
        <time>2011-12-11T08:40:34Z</time>
      </trkpt>
      <trkpt lat="47.0082" lon="-1.07036">
        <ele>61</ele>
        <time>2011-12-11T08:40:35Z</time>
      </trkpt>
      <trkpt lat="47.00819" lon="-1.07036">
        <ele>61</ele>
        <time>2011-12-11T08:40:36Z</time>
      </trkpt>
      <trkpt lat="47.00818" lon="-1.07036">
        <ele>61</ele>
        <time>2011-12-11T08:40:37Z</time>
      </trkpt>
      <trkpt lat="47.00817" lon="-1.07035">
        <ele>61</ele>
        <time>2011-12-11T08:40:38Z</time>
      </trkpt>
      <trkpt lat="47.00816" lon="-1.07035">
        <ele>61</ele>
        <time>2011-12-11T08:40:39Z</time>
      </trkpt>
      <trkpt lat="47.00813" lon="-1.07034">
        <ele>62</ele>
        <time>2011-12-11T08:40:42Z</time>
      </trkpt>
      <trkpt lat="47.00812" lon="-1.07034">
        <ele>62</ele>
        <time>2011-12-11T08:40:43Z</time>
      </trkpt>
      <trkpt lat="47.00811" lon="-1.07034">
        <ele>62</ele>
        <time>2011-12-11T08:40:43Z</time>
      </trkpt>
      <trkpt lat="47.0081" lon="-1.07034">
        <ele>63</ele>
        <time>2011-12-11T08:40:44Z</time>
      </trkpt>
      <trkpt lat="47.00808" lon="-1.07033">
        <ele>63</ele>
        <time>2011-12-11T08:40:45Z</time>
      </trkpt>
      <trkpt lat="47.00807" lon="-1.07033">
        <ele>63</ele>
        <time>2011-12-11T08:40:46Z</time>
      </trkpt>
      <trkpt lat="47.00806" lon="-1.07033">
        <ele>63</ele>
        <time>2011-12-11T08:40:47Z</time>
      </trkpt>
      <trkpt lat="47.00805" lon="-1.07032">
        <ele>63</ele>
        <time>2011-12-11T08:40:48Z</time>
      </trkpt>
      <trkpt lat="47.00803" lon="-1.07031">
        <ele>64</ele>
        <time>2011-12-11T08:40:49Z</time>
      </trkpt>
      <trkpt lat="47.00801" lon="-1.0703">
        <ele>65</ele>
        <time>2011-12-11T08:40:50Z</time>
      </trkpt>
      <trkpt lat="47.008" lon="-1.07029">
        <ele>66</ele>
        <time>2011-12-11T08:40:51Z</time>
      </trkpt>
      <trkpt lat="47.00798" lon="-1.07029">
        <ele>67</ele>
        <time>2011-12-11T08:40:53Z</time>
      </trkpt>
      <trkpt lat="47.00796" lon="-1.07029">
        <ele>68</ele>
        <time>2011-12-11T08:40:55Z</time>
      </trkpt>
      <trkpt lat="47.00794" lon="-1.07029">
        <ele>68</ele>
        <time>2011-12-11T08:40:57Z</time>
      </trkpt>
      <trkpt lat="47.00793" lon="-1.07028">
        <ele>68</ele>
        <time>2011-12-11T08:40:58Z</time>
      </trkpt>
      <trkpt lat="47.00791" lon="-1.07028">
        <ele>68</ele>
        <time>2011-12-11T08:41:01Z</time>
      </trkpt>
      <trkpt lat="47.0079" lon="-1.07027">
        <ele>68</ele>
        <time>2011-12-11T08:41:01Z</time>
      </trkpt>
      <trkpt lat="47.00788" lon="-1.07026">
        <ele>68</ele>
        <time>2011-12-11T08:41:03Z</time>
      </trkpt>
      <trkpt lat="47.00786" lon="-1.07026">
        <ele>68</ele>
        <time>2011-12-11T08:41:05Z</time>
      </trkpt>
      <trkpt lat="47.00785" lon="-1.07025">
        <ele>68</ele>
        <time>2011-12-11T08:41:05Z</time>
      </trkpt>
      <trkpt lat="47.00783" lon="-1.07025">
        <ele>68</ele>
        <time>2011-12-11T08:41:06Z</time>
      </trkpt>
      <trkpt lat="47.00781" lon="-1.07024">
        <ele>68</ele>
        <time>2011-12-11T08:41:08Z</time>
      </trkpt>
      <trkpt lat="47.0078" lon="-1.07024">
        <ele>69</ele>
        <time>2011-12-11T08:41:09Z</time>
      </trkpt>
      <trkpt lat="47.00779" lon="-1.07023">
        <ele>69</ele>
        <time>2011-12-11T08:41:10Z</time>
      </trkpt>
      <trkpt lat="47.00777" lon="-1.07023">
        <ele>69</ele>
        <time>2011-12-11T08:41:12Z</time>
      </trkpt>
      <trkpt lat="47.00775" lon="-1.07022">
        <ele>69</ele>
        <time>2011-12-11T08:41:14Z</time>
      </trkpt>
      <trkpt lat="47.00774" lon="-1.07022">
        <ele>69</ele>
        <time>2011-12-11T08:41:15Z</time>
      </trkpt>
      <trkpt lat="47.00772" lon="-1.07022">
        <ele>69</ele>
        <time>2011-12-11T08:41:17Z</time>
      </trkpt>
      <trkpt lat="47.0077" lon="-1.07021">
        <ele>69</ele>
        <time>2011-12-11T08:41:19Z</time>
      </trkpt>
      <trkpt lat="47.00768" lon="-1.07021">
        <ele>69</ele>
        <time>2011-12-11T08:41:21Z</time>
      </trkpt>
      <trkpt lat="47.00766" lon="-1.07021">
        <ele>69</ele>
        <time>2011-12-11T08:41:23Z</time>
      </trkpt>
      <trkpt lat="47.00764" lon="-1.07021">
        <ele>69</ele>
        <time>2011-12-11T08:41:24Z</time>
      </trkpt>
      <trkpt lat="47.00763" lon="-1.0702">
        <ele>70</ele>
        <time>2011-12-11T08:41:26Z</time>
      </trkpt>
      <trkpt lat="47.00761" lon="-1.07019">
        <ele>70</ele>
        <time>2011-12-11T08:41:27Z</time>
      </trkpt>
      <trkpt lat="47.0076" lon="-1.07019">
        <ele>70</ele>
        <time>2011-12-11T08:41:29Z</time>
      </trkpt>
      <trkpt lat="47.00759" lon="-1.07019">
        <ele>70</ele>
        <time>2011-12-11T08:41:30Z</time>
      </trkpt>
      <trkpt lat="47.00758" lon="-1.07019">
        <ele>70</ele>
        <time>2011-12-11T08:41:30Z</time>
      </trkpt>
      <trkpt lat="47.00756" lon="-1.07019">
        <ele>71</ele>
        <time>2011-12-11T08:41:31Z</time>
      </trkpt>
      <trkpt lat="47.00754" lon="-1.07019">
        <ele>71</ele>
        <time>2011-12-11T08:41:34Z</time>
      </trkpt>
      <trkpt lat="47.00753" lon="-1.07019">
        <ele>72</ele>
        <time>2011-12-11T08:41:34Z</time>
      </trkpt>
      <trkpt lat="47.00752" lon="-1.07019">
        <ele>72</ele>
        <time>2011-12-11T08:41:35Z</time>
      </trkpt>
      <trkpt lat="47.0075" lon="-1.07019">
        <ele>72</ele>
        <time>2011-12-11T08:41:38Z</time>
      </trkpt>
      <trkpt lat="47.00748" lon="-1.07019">
        <ele>72</ele>
        <time>2011-12-11T08:41:40Z</time>
      </trkpt>
      <trkpt lat="47.00746" lon="-1.0702">
        <ele>72</ele>
        <time>2011-12-11T08:41:41Z</time>
      </trkpt>
      <trkpt lat="47.00744" lon="-1.0702">
        <ele>72</ele>
        <time>2011-12-11T08:41:43Z</time>
      </trkpt>
      <trkpt lat="47.00742" lon="-1.0702">
        <ele>72</ele>
        <time>2011-12-11T08:41:46Z</time>
      </trkpt>
      <trkpt lat="47.00741" lon="-1.0702">
        <ele>72</ele>
        <time>2011-12-11T08:41:46Z</time>
      </trkpt>
      <trkpt lat="47.00739" lon="-1.0702">
        <ele>72</ele>
        <time>2011-12-11T08:41:48Z</time>
      </trkpt>
      <trkpt lat="47.00737" lon="-1.07019">
        <ele>72</ele>
        <time>2011-12-11T08:41:51Z</time>
      </trkpt>
      <trkpt lat="47.00735" lon="-1.0702">
        <ele>72</ele>
        <time>2011-12-11T08:41:53Z</time>
      </trkpt>
      <trkpt lat="47.00733" lon="-1.07019">
        <ele>72</ele>
        <time>2011-12-11T08:41:54Z</time>
      </trkpt>
      <trkpt lat="47.00732" lon="-1.07018">
        <ele>72</ele>
        <time>2011-12-11T08:41:55Z</time>
      </trkpt>
      <trkpt lat="47.00731" lon="-1.07018">
        <ele>72</ele>
        <time>2011-12-11T08:41:56Z</time>
      </trkpt>
      <trkpt lat="47.00729" lon="-1.07017">
        <ele>72</ele>
        <time>2011-12-11T08:41:57Z</time>
      </trkpt>
      <trkpt lat="47.00728" lon="-1.07017">
        <ele>72</ele>
        <time>2011-12-11T08:41:58Z</time>
      </trkpt>
      <trkpt lat="47.00727" lon="-1.07017">
        <ele>72</ele>
        <time>2011-12-11T08:41:59Z</time>
      </trkpt>
      <trkpt lat="47.00724" lon="-1.07016">
        <ele>73</ele>
        <time>2011-12-11T08:42:02Z</time>
      </trkpt>
      <trkpt lat="47.00723" lon="-1.07015">
        <ele>73</ele>
        <time>2011-12-11T08:42:03Z</time>
      </trkpt>
      <trkpt lat="47.00721" lon="-1.07015">
        <ele>73</ele>
        <time>2011-12-11T08:42:04Z</time>
      </trkpt>
      <trkpt lat="47.0072" lon="-1.07014">
        <ele>74</ele>
        <time>2011-12-11T08:42:05Z</time>
      </trkpt>
      <trkpt lat="47.00719" lon="-1.07014">
        <ele>74</ele>
        <time>2011-12-11T08:42:06Z</time>
      </trkpt>
      <trkpt lat="47.00717" lon="-1.07013">
        <ele>74</ele>
        <time>2011-12-11T08:42:08Z</time>
      </trkpt>
      <trkpt lat="47.00715" lon="-1.07012">
        <ele>74</ele>
        <time>2011-12-11T08:42:10Z</time>
      </trkpt>
      <trkpt lat="47.00713" lon="-1.07012">
        <ele>74</ele>
        <time>2011-12-11T08:42:12Z</time>
      </trkpt>
      <trkpt lat="47.00712" lon="-1.07011">
        <ele>74</ele>
        <time>2011-12-11T08:42:15Z</time>
      </trkpt>
      <trkpt lat="47.0071" lon="-1.07011">
        <ele>74</ele>
        <time>2011-12-11T08:42:16Z</time>
      </trkpt>
      <trkpt lat="47.00708" lon="-1.07011">
        <ele>74</ele>
        <time>2011-12-11T08:42:18Z</time>
      </trkpt>
      <trkpt lat="47.00706" lon="-1.0701">
        <ele>74</ele>
        <time>2011-12-11T08:42:21Z</time>
      </trkpt>
      <trkpt lat="47.00705" lon="-1.0701">
        <ele>74</ele>
        <time>2011-12-11T08:42:22Z</time>
      </trkpt>
      <trkpt lat="47.00703" lon="-1.0701">
        <ele>74</ele>
        <time>2011-12-11T08:42:23Z</time>
      </trkpt>
      <trkpt lat="47.00701" lon="-1.07009">
        <ele>75</ele>
        <time>2011-12-11T08:42:25Z</time>
      </trkpt>
      <trkpt lat="47.007" lon="-1.07009">
        <ele>75</ele>
        <time>2011-12-11T08:42:27Z</time>
      </trkpt>
      <trkpt lat="47.00699" lon="-1.07009">
        <ele>76</ele>
        <time>2011-12-11T08:42:27Z</time>
      </trkpt>
      <trkpt lat="47.00697" lon="-1.07009">
        <ele>76</ele>
        <time>2011-12-11T08:42:29Z</time>
      </trkpt>
      <trkpt lat="47.00696" lon="-1.07009">
        <ele>76</ele>
        <time>2011-12-11T08:42:30Z</time>
      </trkpt>
      <trkpt lat="47.00695" lon="-1.07009">
        <ele>76</ele>
        <time>2011-12-11T08:42:32Z</time>
      </trkpt>
      <trkpt lat="47.00692" lon="-1.07009">
        <ele>77</ele>
        <time>2011-12-11T08:42:33Z</time>
      </trkpt>
      <trkpt lat="47.0069" lon="-1.07008">
        <ele>77</ele>
        <time>2011-12-11T08:42:35Z</time>
      </trkpt>
      <trkpt lat="47.00689" lon="-1.07008">
        <ele>78</ele>
        <time>2011-12-11T08:42:38Z</time>
      </trkpt>
      <trkpt lat="47.00687" lon="-1.07008">
        <ele>78</ele>
        <time>2011-12-11T08:42:40Z</time>
      </trkpt>
      <trkpt lat="47.00686" lon="-1.07008">
        <ele>78</ele>
        <time>2011-12-11T08:42:41Z</time>
      </trkpt>
      <trkpt lat="47.00684" lon="-1.07008">
        <ele>79</ele>
        <time>2011-12-11T08:42:43Z</time>
      </trkpt>
      <trkpt lat="47.00682" lon="-1.07007">
        <ele>80</ele>
        <time>2011-12-11T08:42:46Z</time>
      </trkpt>
      <trkpt lat="47.00681" lon="-1.07007">
        <ele>81</ele>
        <time>2011-12-11T08:42:48Z</time>
      </trkpt>
      <trkpt lat="47.00679" lon="-1.07007">
        <ele>81</ele>
        <time>2011-12-11T08:42:49Z</time>
      </trkpt>
      <trkpt lat="47.00678" lon="-1.07006">
        <ele>82</ele>
        <time>2011-12-11T08:42:51Z</time>
      </trkpt>
      <trkpt lat="47.00676" lon="-1.07006">
        <ele>82</ele>
        <time>2011-12-11T08:42:53Z</time>
      </trkpt>
      <trkpt lat="47.00675" lon="-1.07005">
        <ele>82</ele>
        <time>2011-12-11T08:42:54Z</time>
      </trkpt>
      <trkpt lat="47.00674" lon="-1.07004">
        <ele>83</ele>
        <time>2011-12-11T08:42:55Z</time>
      </trkpt>
      <trkpt lat="47.00672" lon="-1.07004">
        <ele>83</ele>
        <time>2011-12-11T08:42:58Z</time>
      </trkpt>
      <trkpt lat="47.00671" lon="-1.07004">
        <ele>84</ele>
        <time>2011-12-11T08:42:59Z</time>
      </trkpt>
      <trkpt lat="47.00669" lon="-1.07003">
        <ele>85</ele>
        <time>2011-12-11T08:43:01Z</time>
      </trkpt>
      <trkpt lat="47.00668" lon="-1.07001">
        <ele>85</ele>
        <time>2011-12-11T08:43:04Z</time>
      </trkpt>
      <trkpt lat="47.00667" lon="-1.06998">
        <ele>85</ele>
        <time>2011-12-11T08:43:05Z</time>
      </trkpt>
      <trkpt lat="47.00666" lon="-1.06995">
        <ele>85</ele>
        <time>2011-12-11T08:43:07Z</time>
      </trkpt>
      <trkpt lat="47.00665" lon="-1.06993">
        <ele>85</ele>
        <time>2011-12-11T08:43:08Z</time>
      </trkpt>
      <trkpt lat="47.00664" lon="-1.06992">
        <ele>85</ele>
        <time>2011-12-11T08:43:10Z</time>
      </trkpt>
      <trkpt lat="47.00663" lon="-1.06989">
        <ele>85</ele>
        <time>2011-12-11T08:43:11Z</time>
      </trkpt>
      <trkpt lat="47.00662" lon="-1.06988">
        <ele>85</ele>
        <time>2011-12-11T08:43:12Z</time>
      </trkpt>
      <trkpt lat="47.0066" lon="-1.06985">
        <ele>85</ele>
        <time>2011-12-11T08:43:15Z</time>
      </trkpt>
      <trkpt lat="47.0066" lon="-1.06984">
        <ele>85</ele>
        <time>2011-12-11T08:43:16Z</time>
      </trkpt>
      <trkpt lat="47.00659" lon="-1.06982">
        <ele>85</ele>
        <time>2011-12-11T08:43:16Z</time>
      </trkpt>
      <trkpt lat="47.00658" lon="-1.06981">
        <ele>85</ele>
        <time>2011-12-11T08:43:17Z</time>
      </trkpt>
      <trkpt lat="47.00658" lon="-1.06979">
        <ele>86</ele>
        <time>2011-12-11T08:43:18Z</time>
      </trkpt>
      <trkpt lat="47.00658" lon="-1.06978">
        <ele>86</ele>
        <time>2011-12-11T08:43:19Z</time>
      </trkpt>
      <trkpt lat="47.00657" lon="-1.06976">
        <ele>86</ele>
        <time>2011-12-11T08:43:21Z</time>
      </trkpt>
      <trkpt lat="47.00657" lon="-1.06974">
        <ele>86</ele>
        <time>2011-12-11T08:43:22Z</time>
      </trkpt>
      <trkpt lat="47.00656" lon="-1.06973">
        <ele>86</ele>
        <time>2011-12-11T08:43:22Z</time>
      </trkpt>
      <trkpt lat="47.00656" lon="-1.06971">
        <ele>86</ele>
        <time>2011-12-11T08:43:23Z</time>
      </trkpt>
      <trkpt lat="47.00656" lon="-1.06969">
        <ele>86</ele>
        <time>2011-12-11T08:43:24Z</time>
      </trkpt>
      <trkpt lat="47.00655" lon="-1.06968">
        <ele>86</ele>
        <time>2011-12-11T08:43:25Z</time>
      </trkpt>
      <trkpt lat="47.00655" lon="-1.06966">
        <ele>86</ele>
        <time>2011-12-11T08:43:27Z</time>
      </trkpt>
      <trkpt lat="47.00655" lon="-1.06964">
        <ele>86</ele>
        <time>2011-12-11T08:43:27Z</time>
      </trkpt>
      <trkpt lat="47.00655" lon="-1.06962">
        <ele>86</ele>
        <time>2011-12-11T08:43:28Z</time>
      </trkpt>
      <trkpt lat="47.00655" lon="-1.0696">
        <ele>86</ele>
        <time>2011-12-11T08:43:29Z</time>
      </trkpt>
      <trkpt lat="47.00654" lon="-1.06958">
        <ele>86</ele>
        <time>2011-12-11T08:43:30Z</time>
      </trkpt>
      <trkpt lat="47.00654" lon="-1.06957">
        <ele>86</ele>
        <time>2011-12-11T08:43:31Z</time>
      </trkpt>
      <trkpt lat="47.00654" lon="-1.06955">
        <ele>86</ele>
        <time>2011-12-11T08:43:33Z</time>
      </trkpt>
      <trkpt lat="47.00653" lon="-1.06953">
        <ele>86</ele>
        <time>2011-12-11T08:43:33Z</time>
      </trkpt>
      <trkpt lat="47.00653" lon="-1.06952">
        <ele>86</ele>
        <time>2011-12-11T08:43:34Z</time>
      </trkpt>
      <trkpt lat="47.00653" lon="-1.0695">
        <ele>86</ele>
        <time>2011-12-11T08:43:36Z</time>
      </trkpt>
      <trkpt lat="47.00652" lon="-1.06948">
        <ele>86</ele>
        <time>2011-12-11T08:43:37Z</time>
      </trkpt>
      <trkpt lat="47.00652" lon="-1.06946">
        <ele>86</ele>
        <time>2011-12-11T08:43:37Z</time>
      </trkpt>
      <trkpt lat="47.00652" lon="-1.06945">
        <ele>86</ele>
        <time>2011-12-11T08:43:39Z</time>
      </trkpt>
      <trkpt lat="47.00652" lon="-1.06943">
        <ele>86</ele>
        <time>2011-12-11T08:43:40Z</time>
      </trkpt>
      <trkpt lat="47.00651" lon="-1.06941">
        <ele>86</ele>
        <time>2011-12-11T08:43:40Z</time>
      </trkpt>
      <trkpt lat="47.0065" lon="-1.06939">
        <ele>86</ele>
        <time>2011-12-11T08:43:41Z</time>
      </trkpt>
      <trkpt lat="47.0065" lon="-1.06938">
        <ele>86</ele>
        <time>2011-12-11T08:43:42Z</time>
      </trkpt>
      <trkpt lat="47.0065" lon="-1.06936">
        <ele>86</ele>
        <time>2011-12-11T08:43:43Z</time>
      </trkpt>
      <trkpt lat="47.0065" lon="-1.06934">
        <ele>86</ele>
        <time>2011-12-11T08:43:45Z</time>
      </trkpt>
      <trkpt lat="47.00649" lon="-1.06932">
        <ele>86</ele>
        <time>2011-12-11T08:43:45Z</time>
      </trkpt>
      <trkpt lat="47.00649" lon="-1.0693">
        <ele>86</ele>
        <time>2011-12-11T08:43:46Z</time>
      </trkpt>
      <trkpt lat="47.00648" lon="-1.06929">
        <ele>86</ele>
        <time>2011-12-11T08:43:47Z</time>
      </trkpt>
      <trkpt lat="47.00648" lon="-1.06927">
        <ele>86</ele>
        <time>2011-12-11T08:43:48Z</time>
      </trkpt>
      <trkpt lat="47.00647" lon="-1.06925">
        <ele>86</ele>
        <time>2011-12-11T08:43:49Z</time>
      </trkpt>
      <trkpt lat="47.00647" lon="-1.06923">
        <ele>86</ele>
        <time>2011-12-11T08:43:51Z</time>
      </trkpt>
      <trkpt lat="47.00647" lon="-1.06922">
        <ele>86</ele>
        <time>2011-12-11T08:43:52Z</time>
      </trkpt>
      <trkpt lat="47.00646" lon="-1.0692">
        <ele>86</ele>
        <time>2011-12-11T08:43:52Z</time>
      </trkpt>
      <trkpt lat="47.00646" lon="-1.06918">
        <ele>86</ele>
        <time>2011-12-11T08:43:53Z</time>
      </trkpt>
      <trkpt lat="47.00646" lon="-1.06916">
        <ele>86</ele>
        <time>2011-12-11T08:43:55Z</time>
      </trkpt>
      <trkpt lat="47.00645" lon="-1.06914">
        <ele>86</ele>
        <time>2011-12-11T08:43:55Z</time>
      </trkpt>
      <trkpt lat="47.00645" lon="-1.06913">
        <ele>86</ele>
        <time>2011-12-11T08:43:57Z</time>
      </trkpt>
      <trkpt lat="47.00645" lon="-1.06911">
        <ele>86</ele>
        <time>2011-12-11T08:43:58Z</time>
      </trkpt>
      <trkpt lat="47.00644" lon="-1.06909">
        <ele>86</ele>
        <time>2011-12-11T08:43:58Z</time>
      </trkpt>
      <trkpt lat="47.00644" lon="-1.06907">
        <ele>86</ele>
        <time>2011-12-11T08:43:59Z</time>
      </trkpt>
      <trkpt lat="47.00644" lon="-1.06906">
        <ele>86</ele>
        <time>2011-12-11T08:44:00Z</time>
      </trkpt>
      <trkpt lat="47.00643" lon="-1.06904">
        <ele>86</ele>
        <time>2011-12-11T08:44:02Z</time>
      </trkpt>
      <trkpt lat="47.00642" lon="-1.06903">
        <ele>86</ele>
        <time>2011-12-11T08:44:03Z</time>
      </trkpt>
      <trkpt lat="47.00642" lon="-1.06901">
        <ele>86</ele>
        <time>2011-12-11T08:44:04Z</time>
      </trkpt>
      <trkpt lat="47.00642" lon="-1.06899">
        <ele>87</ele>
        <time>2011-12-11T08:44:05Z</time>
      </trkpt>
      <trkpt lat="47.00641" lon="-1.06897">
        <ele>87</ele>
        <time>2011-12-11T08:44:06Z</time>
      </trkpt>
      <trkpt lat="47.00641" lon="-1.06895">
        <ele>87</ele>
        <time>2011-12-11T08:44:07Z</time>
      </trkpt>
      <trkpt lat="47.00641" lon="-1.06894">
        <ele>87</ele>
        <time>2011-12-11T08:44:08Z</time>
      </trkpt>
      <trkpt lat="47.0064" lon="-1.06892">
        <ele>87</ele>
        <time>2011-12-11T08:44:09Z</time>
      </trkpt>
      <trkpt lat="47.0064" lon="-1.0689">
        <ele>87</ele>
        <time>2011-12-11T08:44:10Z</time>
      </trkpt>
      <trkpt lat="47.00639" lon="-1.06888">
        <ele>87</ele>
        <time>2011-12-11T08:44:11Z</time>
      </trkpt>
      <trkpt lat="47.00639" lon="-1.06886">
        <ele>87</ele>
        <time>2011-12-11T08:44:12Z</time>
      </trkpt>
      <trkpt lat="47.00639" lon="-1.06885">
        <ele>87</ele>
        <time>2011-12-11T08:44:13Z</time>
      </trkpt>
      <trkpt lat="47.00639" lon="-1.06883">
        <ele>87</ele>
        <time>2011-12-11T08:44:14Z</time>
      </trkpt>
      <trkpt lat="47.00638" lon="-1.06881">
        <ele>87</ele>
        <time>2011-12-11T08:44:15Z</time>
      </trkpt>
      <trkpt lat="47.00638" lon="-1.0688">
        <ele>87</ele>
        <time>2011-12-11T08:44:15Z</time>
      </trkpt>
      <trkpt lat="47.00637" lon="-1.06878">
        <ele>87</ele>
        <time>2011-12-11T08:44:16Z</time>
      </trkpt>
      <trkpt lat="47.00637" lon="-1.06876">
        <ele>87</ele>
        <time>2011-12-11T08:44:18Z</time>
      </trkpt>
      <trkpt lat="47.00637" lon="-1.06874">
        <ele>87</ele>
        <time>2011-12-11T08:44:19Z</time>
      </trkpt>
      <trkpt lat="47.00636" lon="-1.06872">
        <ele>87</ele>
        <time>2011-12-11T08:44:20Z</time>
      </trkpt>
      <trkpt lat="47.00636" lon="-1.0687">
        <ele>87</ele>
        <time>2011-12-11T08:44:21Z</time>
      </trkpt>
      <trkpt lat="47.00635" lon="-1.06869">
        <ele>87</ele>
        <time>2011-12-11T08:44:22Z</time>
      </trkpt>
      <trkpt lat="47.00635" lon="-1.06867">
        <ele>87</ele>
        <time>2011-12-11T08:44:23Z</time>
      </trkpt>
      <trkpt lat="47.00634" lon="-1.06865">
        <ele>87</ele>
        <time>2011-12-11T08:44:24Z</time>
      </trkpt>
      <trkpt lat="47.00634" lon="-1.06863">
        <ele>87</ele>
        <time>2011-12-11T08:44:25Z</time>
      </trkpt>
      <trkpt lat="47.00634" lon="-1.06862">
        <ele>87</ele>
        <time>2011-12-11T08:44:26Z</time>
      </trkpt>
      <trkpt lat="47.00633" lon="-1.0686">
        <ele>88</ele>
        <time>2011-12-11T08:44:26Z</time>
      </trkpt>
      <trkpt lat="47.00632" lon="-1.06858">
        <ele>88</ele>
        <time>2011-12-11T08:44:27Z</time>
      </trkpt>
      <trkpt lat="47.00632" lon="-1.06857">
        <ele>88</ele>
        <time>2011-12-11T08:44:28Z</time>
      </trkpt>
      <trkpt lat="47.00632" lon="-1.06855">
        <ele>88</ele>
        <time>2011-12-11T08:44:30Z</time>
      </trkpt>
      <trkpt lat="47.00631" lon="-1.06853">
        <ele>88</ele>
        <time>2011-12-11T08:44:31Z</time>
      </trkpt>
      <trkpt lat="47.00631" lon="-1.06851">
        <ele>88</ele>
        <time>2011-12-11T08:44:32Z</time>
      </trkpt>
      <trkpt lat="47.0063" lon="-1.0685">
        <ele>88</ele>
        <time>2011-12-11T08:44:32Z</time>
      </trkpt>
      <trkpt lat="47.0063" lon="-1.06848">
        <ele>88</ele>
        <time>2011-12-11T08:44:34Z</time>
      </trkpt>
      <trkpt lat="47.00629" lon="-1.06846">
        <ele>88</ele>
        <time>2011-12-11T08:44:35Z</time>
      </trkpt>
      <trkpt lat="47.00629" lon="-1.06844">
        <ele>88</ele>
        <time>2011-12-11T08:44:36Z</time>
      </trkpt>
      <trkpt lat="47.00629" lon="-1.06842">
        <ele>88</ele>
        <time>2011-12-11T08:44:37Z</time>
      </trkpt>
      <trkpt lat="47.00628" lon="-1.06841">
        <ele>88</ele>
        <time>2011-12-11T08:44:38Z</time>
      </trkpt>
      <trkpt lat="47.00628" lon="-1.06839">
        <ele>88</ele>
        <time>2011-12-11T08:44:38Z</time>
      </trkpt>
      <trkpt lat="47.00627" lon="-1.06837">
        <ele>88</ele>
        <time>2011-12-11T08:44:40Z</time>
      </trkpt>
      <trkpt lat="47.00626" lon="-1.06835">
        <ele>88</ele>
        <time>2011-12-11T08:44:41Z</time>
      </trkpt>
      <trkpt lat="47.00626" lon="-1.06834">
        <ele>88</ele>
        <time>2011-12-11T08:44:42Z</time>
      </trkpt>
      <trkpt lat="47.00625" lon="-1.06832">
        <ele>88</ele>
        <time>2011-12-11T08:44:43Z</time>
      </trkpt>
      <trkpt lat="47.00625" lon="-1.0683">
        <ele>88</ele>
        <time>2011-12-11T08:44:43Z</time>
      </trkpt>
      <trkpt lat="47.00624" lon="-1.06828">
        <ele>88</ele>
        <time>2011-12-11T08:44:45Z</time>
      </trkpt>
      <trkpt lat="47.00624" lon="-1.06826">
        <ele>88</ele>
        <time>2011-12-11T08:44:46Z</time>
      </trkpt>
      <trkpt lat="47.00623" lon="-1.06825">
        <ele>88</ele>
        <time>2011-12-11T08:44:47Z</time>
      </trkpt>
      <trkpt lat="47.00622" lon="-1.06823">
        <ele>88</ele>
        <time>2011-12-11T08:44:48Z</time>
      </trkpt>
      <trkpt lat="47.00622" lon="-1.06822">
        <ele>88</ele>
        <time>2011-12-11T08:44:49Z</time>
      </trkpt>
      <trkpt lat="47.00621" lon="-1.0682">
        <ele>88</ele>
        <time>2011-12-11T08:44:49Z</time>
      </trkpt>
      <trkpt lat="47.00621" lon="-1.06818">
        <ele>88</ele>
        <time>2011-12-11T08:44:51Z</time>
      </trkpt>
      <trkpt lat="47.0062" lon="-1.06816">
        <ele>88</ele>
        <time>2011-12-11T08:44:52Z</time>
      </trkpt>
      <trkpt lat="47.0062" lon="-1.06815">
        <ele>88</ele>
        <time>2011-12-11T08:44:53Z</time>
      </trkpt>
      <trkpt lat="47.00619" lon="-1.06813">
        <ele>88</ele>
        <time>2011-12-11T08:44:54Z</time>
      </trkpt>
      <trkpt lat="47.00618" lon="-1.06811">
        <ele>88</ele>
        <time>2011-12-11T08:44:55Z</time>
      </trkpt>
      <trkpt lat="47.00618" lon="-1.0681">
        <ele>88</ele>
        <time>2011-12-11T08:44:56Z</time>
      </trkpt>
      <trkpt lat="47.00617" lon="-1.06808">
        <ele>88</ele>
        <time>2011-12-11T08:44:57Z</time>
      </trkpt>
      <trkpt lat="47.00616" lon="-1.06806">
        <ele>88</ele>
        <time>2011-12-11T08:44:58Z</time>
      </trkpt>
      <trkpt lat="47.00616" lon="-1.06804">
        <ele>88</ele>
        <time>2011-12-11T08:44:59Z</time>
      </trkpt>
      <trkpt lat="47.00615" lon="-1.06803">
        <ele>88</ele>
        <time>2011-12-11T08:45:00Z</time>
      </trkpt>
      <trkpt lat="47.00615" lon="-1.06801">
        <ele>88</ele>
        <time>2011-12-11T08:45:01Z</time>
      </trkpt>
      <trkpt lat="47.00614" lon="-1.068">
        <ele>88</ele>
        <time>2011-12-11T08:45:02Z</time>
      </trkpt>
      <trkpt lat="47.00613" lon="-1.06798">
        <ele>88</ele>
        <time>2011-12-11T08:45:03Z</time>
      </trkpt>
      <trkpt lat="47.00613" lon="-1.06797">
        <ele>88</ele>
        <time>2011-12-11T08:45:04Z</time>
      </trkpt>
      <trkpt lat="47.00612" lon="-1.06795">
        <ele>88</ele>
        <time>2011-12-11T08:45:05Z</time>
      </trkpt>
      <trkpt lat="47.00611" lon="-1.06793">
        <ele>88</ele>
        <time>2011-12-11T08:45:06Z</time>
      </trkpt>
      <trkpt lat="47.00611" lon="-1.06792">
        <ele>88</ele>
        <time>2011-12-11T08:45:07Z</time>
      </trkpt>
      <trkpt lat="47.0061" lon="-1.0679">
        <ele>88</ele>
        <time>2011-12-11T08:45:08Z</time>
      </trkpt>
      <trkpt lat="47.0061" lon="-1.06789">
        <ele>88</ele>
        <time>2011-12-11T08:45:09Z</time>
      </trkpt>
      <trkpt lat="47.00609" lon="-1.06787">
        <ele>88</ele>
        <time>2011-12-11T08:45:10Z</time>
      </trkpt>
      <trkpt lat="47.00608" lon="-1.06785">
        <ele>88</ele>
        <time>2011-12-11T08:45:11Z</time>
      </trkpt>
      <trkpt lat="47.00608" lon="-1.06784">
        <ele>88</ele>
        <time>2011-12-11T08:45:11Z</time>
      </trkpt>
      <trkpt lat="47.00607" lon="-1.06782">
        <ele>88</ele>
        <time>2011-12-11T08:45:12Z</time>
      </trkpt>
      <trkpt lat="47.00606" lon="-1.06781">
        <ele>88</ele>
        <time>2011-12-11T08:45:14Z</time>
      </trkpt>
      <trkpt lat="47.00606" lon="-1.06779">
        <ele>88</ele>
        <time>2011-12-11T08:45:15Z</time>
      </trkpt>
      <trkpt lat="47.00605" lon="-1.06777">
        <ele>88</ele>
        <time>2011-12-11T08:45:16Z</time>
      </trkpt>
      <trkpt lat="47.00604" lon="-1.06776">
        <ele>88</ele>
        <time>2011-12-11T08:45:16Z</time>
      </trkpt>
      <trkpt lat="47.00603" lon="-1.06773">
        <ele>88</ele>
        <time>2011-12-11T08:45:19Z</time>
      </trkpt>
      <trkpt lat="47.00602" lon="-1.0677">
        <ele>88</ele>
        <time>2011-12-11T08:45:21Z</time>
      </trkpt>
      <trkpt lat="47.006" lon="-1.06767">
        <ele>88</ele>
        <time>2011-12-11T08:45:22Z</time>
      </trkpt>
      <trkpt lat="47.00599" lon="-1.06764">
        <ele>88</ele>
        <time>2011-12-11T08:45:25Z</time>
      </trkpt>
      <trkpt lat="47.00598" lon="-1.06762">
        <ele>88</ele>
        <time>2011-12-11T08:45:26Z</time>
      </trkpt>
      <trkpt lat="47.00597" lon="-1.0676">
        <ele>88</ele>
        <time>2011-12-11T08:45:27Z</time>
      </trkpt>
      <trkpt lat="47.00597" lon="-1.06759">
        <ele>88</ele>
        <time>2011-12-11T08:45:28Z</time>
      </trkpt>
      <trkpt lat="47.00595" lon="-1.06756">
        <ele>88</ele>
        <time>2011-12-11T08:45:30Z</time>
      </trkpt>
      <trkpt lat="47.00594" lon="-1.06753">
        <ele>88</ele>
        <time>2011-12-11T08:45:32Z</time>
      </trkpt>
      <trkpt lat="47.00594" lon="-1.06751">
        <ele>88</ele>
        <time>2011-12-11T08:45:32Z</time>
      </trkpt>
      <trkpt lat="47.00593" lon="-1.06749">
        <ele>88</ele>
        <time>2011-12-11T08:45:34Z</time>
      </trkpt>
      <trkpt lat="47.00592" lon="-1.06748">
        <ele>88</ele>
        <time>2011-12-11T08:45:35Z</time>
      </trkpt>
      <trkpt lat="47.00592" lon="-1.06746">
        <ele>88</ele>
        <time>2011-12-11T08:45:35Z</time>
      </trkpt>
      <trkpt lat="47.00591" lon="-1.06745">
        <ele>88</ele>
        <time>2011-12-11T08:45:37Z</time>
      </trkpt>
      <trkpt lat="47.0059" lon="-1.06743">
        <ele>88</ele>
        <time>2011-12-11T08:45:38Z</time>
      </trkpt>
      <trkpt lat="47.00589" lon="-1.06741">
        <ele>88</ele>
        <time>2011-12-11T08:45:39Z</time>
      </trkpt>
      <trkpt lat="47.00589" lon="-1.06739">
        <ele>88</ele>
        <time>2011-12-11T08:45:39Z</time>
      </trkpt>
      <trkpt lat="47.00588" lon="-1.06738">
        <ele>88</ele>
        <time>2011-12-11T08:45:41Z</time>
      </trkpt>
      <trkpt lat="47.00587" lon="-1.06736">
        <ele>88</ele>
        <time>2011-12-11T08:45:42Z</time>
      </trkpt>
      <trkpt lat="47.00587" lon="-1.06735">
        <ele>88</ele>
        <time>2011-12-11T08:45:43Z</time>
      </trkpt>
      <trkpt lat="47.00586" lon="-1.06733">
        <ele>88</ele>
        <time>2011-12-11T08:45:43Z</time>
      </trkpt>
      <trkpt lat="47.00585" lon="-1.06731">
        <ele>88</ele>
        <time>2011-12-11T08:45:45Z</time>
      </trkpt>
      <trkpt lat="47.00585" lon="-1.0673">
        <ele>88</ele>
        <time>2011-12-11T08:45:46Z</time>
      </trkpt>
      <trkpt lat="47.00584" lon="-1.06728">
        <ele>88</ele>
        <time>2011-12-11T08:45:47Z</time>
      </trkpt>
      <trkpt lat="47.00583" lon="-1.06726">
        <ele>88</ele>
        <time>2011-12-11T08:45:47Z</time>
      </trkpt>
      <trkpt lat="47.00583" lon="-1.06725">
        <ele>88</ele>
        <time>2011-12-11T08:45:49Z</time>
      </trkpt>
      <trkpt lat="47.00582" lon="-1.06723">
        <ele>88</ele>
        <time>2011-12-11T08:45:50Z</time>
      </trkpt>
      <trkpt lat="47.00581" lon="-1.06721">
        <ele>88</ele>
        <time>2011-12-11T08:45:51Z</time>
      </trkpt>
      <trkpt lat="47.0058" lon="-1.0672">
        <ele>88</ele>
        <time>2011-12-11T08:45:51Z</time>
      </trkpt>
      <trkpt lat="47.0058" lon="-1.06718">
        <ele>88</ele>
        <time>2011-12-11T08:45:53Z</time>
      </trkpt>
      <trkpt lat="47.00579" lon="-1.06717">
        <ele>88</ele>
        <time>2011-12-11T08:45:54Z</time>
      </trkpt>
      <trkpt lat="47.00578" lon="-1.06715">
        <ele>88</ele>
        <time>2011-12-11T08:45:55Z</time>
      </trkpt>
      <trkpt lat="47.00578" lon="-1.06713">
        <ele>88</ele>
        <time>2011-12-11T08:45:55Z</time>
      </trkpt>
      <trkpt lat="47.00577" lon="-1.06711">
        <ele>88</ele>
        <time>2011-12-11T08:45:57Z</time>
      </trkpt>
      <trkpt lat="47.00576" lon="-1.0671">
        <ele>88</ele>
        <time>2011-12-11T08:45:58Z</time>
      </trkpt>
      <trkpt lat="47.00576" lon="-1.06708">
        <ele>88</ele>
        <time>2011-12-11T08:45:59Z</time>
      </trkpt>
      <trkpt lat="47.00575" lon="-1.06707">
        <ele>88</ele>
        <time>2011-12-11T08:45:59Z</time>
      </trkpt>
      <trkpt lat="47.00574" lon="-1.06705">
        <ele>88</ele>
        <time>2011-12-11T08:46:01Z</time>
      </trkpt>
      <trkpt lat="47.00573" lon="-1.06704">
        <ele>88</ele>
        <time>2011-12-11T08:46:01Z</time>
      </trkpt>
      <trkpt lat="47.00573" lon="-1.06702">
        <ele>88</ele>
        <time>2011-12-11T08:46:02Z</time>
      </trkpt>
      <trkpt lat="47.00572" lon="-1.067">
        <ele>88</ele>
        <time>2011-12-11T08:46:04Z</time>
      </trkpt>
      <trkpt lat="47.00571" lon="-1.06699">
        <ele>88</ele>
        <time>2011-12-11T08:46:05Z</time>
      </trkpt>
      <trkpt lat="47.0057" lon="-1.06697">
        <ele>88</ele>
        <time>2011-12-11T08:46:06Z</time>
      </trkpt>
      <trkpt lat="47.0057" lon="-1.06695">
        <ele>88</ele>
        <time>2011-12-11T08:46:07Z</time>
      </trkpt>
      <trkpt lat="47.00569" lon="-1.06694">
        <ele>88</ele>
        <time>2011-12-11T08:46:07Z</time>
      </trkpt>
      <trkpt lat="47.00568" lon="-1.06692">
        <ele>88</ele>
        <time>2011-12-11T08:46:09Z</time>
      </trkpt>
      <trkpt lat="47.00568" lon="-1.06691">
        <ele>88</ele>
        <time>2011-12-11T08:46:10Z</time>
      </trkpt>
      <trkpt lat="47.00567" lon="-1.06689">
        <ele>88</ele>
        <time>2011-12-11T08:46:11Z</time>
      </trkpt>
      <trkpt lat="47.00566" lon="-1.06687">
        <ele>88</ele>
        <time>2011-12-11T08:46:11Z</time>
      </trkpt>
      <trkpt lat="47.00566" lon="-1.06686">
        <ele>88</ele>
        <time>2011-12-11T08:46:13Z</time>
      </trkpt>
      <trkpt lat="47.00565" lon="-1.06684">
        <ele>88</ele>
        <time>2011-12-11T08:46:14Z</time>
      </trkpt>
      <trkpt lat="47.00564" lon="-1.06683">
        <ele>88</ele>
        <time>2011-12-11T08:46:15Z</time>
      </trkpt>
      <trkpt lat="47.00564" lon="-1.06681">
        <ele>88</ele>
        <time>2011-12-11T08:46:15Z</time>
      </trkpt>
      <trkpt lat="47.00563" lon="-1.06679">
        <ele>88</ele>
        <time>2011-12-11T08:46:17Z</time>
      </trkpt>
      <trkpt lat="47.00562" lon="-1.06677">
        <ele>88</ele>
        <time>2011-12-11T08:46:18Z</time>
      </trkpt>
      <trkpt lat="47.00561" lon="-1.06676">
        <ele>88</ele>
        <time>2011-12-11T08:46:19Z</time>
      </trkpt>
      <trkpt lat="47.0056" lon="-1.06674">
        <ele>88</ele>
        <time>2011-12-11T08:46:19Z</time>
      </trkpt>
      <trkpt lat="47.0056" lon="-1.06673">
        <ele>88</ele>
        <time>2011-12-11T08:46:20Z</time>
      </trkpt>
      <trkpt lat="47.00558" lon="-1.06671">
        <ele>88</ele>
        <time>2011-12-11T08:46:21Z</time>
      </trkpt>
      <trkpt lat="47.00557" lon="-1.0667">
        <ele>88</ele>
        <time>2011-12-11T08:46:23Z</time>
      </trkpt>
      <trkpt lat="47.00556" lon="-1.06668">
        <ele>88</ele>
        <time>2011-12-11T08:46:23Z</time>
      </trkpt>
      <trkpt lat="47.00555" lon="-1.06667">
        <ele>88</ele>
        <time>2011-12-11T08:46:25Z</time>
      </trkpt>
      <trkpt lat="47.00554" lon="-1.06666">
        <ele>88</ele>
        <time>2011-12-11T08:46:25Z</time>
      </trkpt>
      <trkpt lat="47.00553" lon="-1.06665">
        <ele>88</ele>
        <time>2011-12-11T08:46:27Z</time>
      </trkpt>
      <trkpt lat="47.00552" lon="-1.06664">
        <ele>88</ele>
        <time>2011-12-11T08:46:27Z</time>
      </trkpt>
      <trkpt lat="47.0055" lon="-1.06664">
        <ele>88</ele>
        <time>2011-12-11T08:46:28Z</time>
      </trkpt>
      <trkpt lat="47.00549" lon="-1.06663">
        <ele>88</ele>
        <time>2011-12-11T08:46:29Z</time>
      </trkpt>
      <trkpt lat="47.00548" lon="-1.06662">
        <ele>88</ele>
        <time>2011-12-11T08:46:30Z</time>
      </trkpt>
      <trkpt lat="47.00547" lon="-1.06661">
        <ele>88</ele>
        <time>2011-12-11T08:46:32Z</time>
      </trkpt>
      <trkpt lat="47.00545" lon="-1.06661">
        <ele>88</ele>
        <time>2011-12-11T08:46:33Z</time>
      </trkpt>
      <trkpt lat="47.00544" lon="-1.0666">
        <ele>88</ele>
        <time>2011-12-11T08:46:34Z</time>
      </trkpt>
      <trkpt lat="47.00543" lon="-1.06659">
        <ele>88</ele>
        <time>2011-12-11T08:46:35Z</time>
      </trkpt>
      <trkpt lat="47.00542" lon="-1.06658">
        <ele>88</ele>
        <time>2011-12-11T08:46:35Z</time>
      </trkpt>
      <trkpt lat="47.00541" lon="-1.06658">
        <ele>88</ele>
        <time>2011-12-11T08:46:37Z</time>
      </trkpt>
      <trkpt lat="47.00539" lon="-1.06657">
        <ele>88</ele>
        <time>2011-12-11T08:46:38Z</time>
      </trkpt>
      <trkpt lat="47.00538" lon="-1.06656">
        <ele>88</ele>
        <time>2011-12-11T08:46:38Z</time>
      </trkpt>
      <trkpt lat="47.00537" lon="-1.06655">
        <ele>88</ele>
        <time>2011-12-11T08:46:40Z</time>
      </trkpt>
      <trkpt lat="47.00535" lon="-1.06654">
        <ele>88</ele>
        <time>2011-12-11T08:46:41Z</time>
      </trkpt>
      <trkpt lat="47.00534" lon="-1.06653">
        <ele>88</ele>
        <time>2011-12-11T08:46:42Z</time>
      </trkpt>
      <trkpt lat="47.00533" lon="-1.06652">
        <ele>88</ele>
        <time>2011-12-11T08:46:43Z</time>
      </trkpt>
      <trkpt lat="47.00531" lon="-1.06651">
        <ele>88</ele>
        <time>2011-12-11T08:46:43Z</time>
      </trkpt>
      <trkpt lat="47.0053" lon="-1.0665">
        <ele>88</ele>
        <time>2011-12-11T08:46:45Z</time>
      </trkpt>
      <trkpt lat="47.00529" lon="-1.0665">
        <ele>88</ele>
        <time>2011-12-11T08:46:46Z</time>
      </trkpt>
      <trkpt lat="47.00528" lon="-1.06649">
        <ele>88</ele>
        <time>2011-12-11T08:46:47Z</time>
      </trkpt>
      <trkpt lat="47.00527" lon="-1.06648">
        <ele>88</ele>
        <time>2011-12-11T08:46:47Z</time>
      </trkpt>
      <trkpt lat="47.00525" lon="-1.06647">
        <ele>88</ele>
        <time>2011-12-11T08:46:49Z</time>
      </trkpt>
      <trkpt lat="47.00524" lon="-1.06646">
        <ele>88</ele>
        <time>2011-12-11T08:46:50Z</time>
      </trkpt>
      <trkpt lat="47.00523" lon="-1.06645">
        <ele>88</ele>
        <time>2011-12-11T08:46:50Z</time>
      </trkpt>
      <trkpt lat="47.00522" lon="-1.06644">
        <ele>88</ele>
        <time>2011-12-11T08:46:52Z</time>
      </trkpt>
      <trkpt lat="47.0052" lon="-1.06643">
        <ele>88</ele>
        <time>2011-12-11T08:46:53Z</time>
      </trkpt>
      <trkpt lat="47.00519" lon="-1.06642">
        <ele>88</ele>
        <time>2011-12-11T08:46:54Z</time>
      </trkpt>
      <trkpt lat="47.00518" lon="-1.06641">
        <ele>88</ele>
        <time>2011-12-11T08:46:55Z</time>
      </trkpt>
      <trkpt lat="47.00517" lon="-1.0664">
        <ele>88</ele>
        <time>2011-12-11T08:46:55Z</time>
      </trkpt>
      <trkpt lat="47.00516" lon="-1.06639">
        <ele>88</ele>
        <time>2011-12-11T08:46:56Z</time>
      </trkpt>
      <trkpt lat="47.00515" lon="-1.06638">
        <ele>88</ele>
        <time>2011-12-11T08:46:58Z</time>
      </trkpt>
      <trkpt lat="47.00513" lon="-1.06637">
        <ele>88</ele>
        <time>2011-12-11T08:46:59Z</time>
      </trkpt>
      <trkpt lat="47.00512" lon="-1.06636">
        <ele>88</ele>
        <time>2011-12-11T08:46:59Z</time>
      </trkpt>
      <trkpt lat="47.0051" lon="-1.06634">
        <ele>88</ele>
        <time>2011-12-11T08:47:02Z</time>
      </trkpt>
      <trkpt lat="47.00509" lon="-1.06633">
        <ele>88</ele>
        <time>2011-12-11T08:47:02Z</time>
      </trkpt>
      <trkpt lat="47.00507" lon="-1.06633">
        <ele>88</ele>
        <time>2011-12-11T08:47:04Z</time>
      </trkpt>
      <trkpt lat="47.00506" lon="-1.06632">
        <ele>88</ele>
        <time>2011-12-11T08:47:05Z</time>
      </trkpt>
      <trkpt lat="47.00505" lon="-1.06631">
        <ele>88</ele>
        <time>2011-12-11T08:47:06Z</time>
      </trkpt>
      <trkpt lat="47.00504" lon="-1.0663">
        <ele>88</ele>
        <time>2011-12-11T08:47:07Z</time>
      </trkpt>
      <trkpt lat="47.00503" lon="-1.06629">
        <ele>88</ele>
        <time>2011-12-11T08:47:08Z</time>
      </trkpt>
      <trkpt lat="47.00502" lon="-1.06629">
        <ele>88</ele>
        <time>2011-12-11T08:47:09Z</time>
      </trkpt>
      <trkpt lat="47.005" lon="-1.06628">
        <ele>88</ele>
        <time>2011-12-11T08:47:10Z</time>
      </trkpt>
      <trkpt lat="47.00499" lon="-1.06627">
        <ele>88</ele>
        <time>2011-12-11T08:47:11Z</time>
      </trkpt>
      <trkpt lat="47.00498" lon="-1.06626">
        <ele>88</ele>
        <time>2011-12-11T08:47:11Z</time>
      </trkpt>
      <trkpt lat="47.00496" lon="-1.06624">
        <ele>88</ele>
        <time>2011-12-11T08:47:14Z</time>
      </trkpt>
      <trkpt lat="47.00494" lon="-1.06622">
        <ele>88</ele>
        <time>2011-12-11T08:47:15Z</time>
      </trkpt>
      <trkpt lat="47.00493" lon="-1.06621">
        <ele>88</ele>
        <time>2011-12-11T08:47:17Z</time>
      </trkpt>
      <trkpt lat="47.00491" lon="-1.0662">
        <ele>88</ele>
        <time>2011-12-11T08:47:18Z</time>
      </trkpt>
      <trkpt lat="47.0049" lon="-1.0662">
        <ele>88</ele>
        <time>2011-12-11T08:47:19Z</time>
      </trkpt>
      <trkpt lat="47.00488" lon="-1.06618">
        <ele>88</ele>
        <time>2011-12-11T08:47:21Z</time>
      </trkpt>
      <trkpt lat="47.00487" lon="-1.06617">
        <ele>88</ele>
        <time>2011-12-11T08:47:21Z</time>
      </trkpt>
      <trkpt lat="47.00486" lon="-1.06616">
        <ele>88</ele>
        <time>2011-12-11T08:47:22Z</time>
      </trkpt>
      <trkpt lat="47.00484" lon="-1.06615">
        <ele>88</ele>
        <time>2011-12-11T08:47:24Z</time>
      </trkpt>
      <trkpt lat="47.00483" lon="-1.06614">
        <ele>88</ele>
        <time>2011-12-11T08:47:25Z</time>
      </trkpt>
      <trkpt lat="47.00482" lon="-1.06613">
        <ele>88</ele>
        <time>2011-12-11T08:47:25Z</time>
      </trkpt>
      <trkpt lat="47.00481" lon="-1.06612">
        <ele>88</ele>
        <time>2011-12-11T08:47:27Z</time>
      </trkpt>
      <trkpt lat="47.00479" lon="-1.06612">
        <ele>88</ele>
        <time>2011-12-11T08:47:27Z</time>
      </trkpt>
      <trkpt lat="47.00478" lon="-1.06611">
        <ele>88</ele>
        <time>2011-12-11T08:47:28Z</time>
      </trkpt>
      <trkpt lat="47.00477" lon="-1.0661">
        <ele>88</ele>
        <time>2011-12-11T08:47:29Z</time>
      </trkpt>
      <trkpt lat="47.00475" lon="-1.06608">
        <ele>88</ele>
        <time>2011-12-11T08:47:31Z</time>
      </trkpt>
      <trkpt lat="47.00473" lon="-1.06607">
        <ele>88</ele>
        <time>2011-12-11T08:47:34Z</time>
      </trkpt>
      <trkpt lat="47.00471" lon="-1.06606">
        <ele>88</ele>
        <time>2011-12-11T08:47:34Z</time>
      </trkpt>
      <trkpt lat="47.0047" lon="-1.06605">
        <ele>88</ele>
        <time>2011-12-11T08:47:36Z</time>
      </trkpt>
      <trkpt lat="47.00469" lon="-1.06604">
        <ele>88</ele>
        <time>2011-12-11T08:47:37Z</time>
      </trkpt>
      <trkpt lat="47.00468" lon="-1.06603">
        <ele>88</ele>
        <time>2011-12-11T08:47:37Z</time>
      </trkpt>
      <trkpt lat="47.00466" lon="-1.06602">
        <ele>88</ele>
        <time>2011-12-11T08:47:39Z</time>
      </trkpt>
      <trkpt lat="47.00465" lon="-1.06601">
        <ele>88</ele>
        <time>2011-12-11T08:47:40Z</time>
      </trkpt>
      <trkpt lat="47.00464" lon="-1.066">
        <ele>88</ele>
        <time>2011-12-11T08:47:41Z</time>
      </trkpt>
      <trkpt lat="47.00463" lon="-1.06599">
        <ele>88</ele>
        <time>2011-12-11T08:47:42Z</time>
      </trkpt>
      <trkpt lat="47.00462" lon="-1.06598">
        <ele>88</ele>
        <time>2011-12-11T08:47:43Z</time>
      </trkpt>
      <trkpt lat="47.0046" lon="-1.06596">
        <ele>88</ele>
        <time>2011-12-11T08:47:45Z</time>
      </trkpt>
      <trkpt lat="47.00458" lon="-1.06595">
        <ele>88</ele>
        <time>2011-12-11T08:47:45Z</time>
      </trkpt>
      <trkpt lat="47.00457" lon="-1.06594">
        <ele>88</ele>
        <time>2011-12-11T08:47:46Z</time>
      </trkpt>
      <trkpt lat="47.00456" lon="-1.06593">
        <ele>88</ele>
        <time>2011-12-11T08:47:48Z</time>
      </trkpt>
      <trkpt lat="47.00455" lon="-1.06592">
        <ele>88</ele>
        <time>2011-12-11T08:47:49Z</time>
      </trkpt>
      <trkpt lat="47.00454" lon="-1.06591">
        <ele>88</ele>
        <time>2011-12-11T08:47:50Z</time>
      </trkpt>
      <trkpt lat="47.00452" lon="-1.0659">
        <ele>88</ele>
        <time>2011-12-11T08:47:50Z</time>
      </trkpt>
      <trkpt lat="47.00451" lon="-1.06589">
        <ele>88</ele>
        <time>2011-12-11T08:47:52Z</time>
      </trkpt>
      <trkpt lat="47.00449" lon="-1.06587">
        <ele>88</ele>
        <time>2011-12-11T08:47:54Z</time>
      </trkpt>
      <trkpt lat="47.00447" lon="-1.06586">
        <ele>88</ele>
        <time>2011-12-11T08:47:55Z</time>
      </trkpt>
      <trkpt lat="47.00445" lon="-1.06584">
        <ele>88</ele>
        <time>2011-12-11T08:47:58Z</time>
      </trkpt>
      <trkpt lat="47.00443" lon="-1.06582">
        <ele>88</ele>
        <time>2011-12-11T08:48:00Z</time>
      </trkpt>
      <trkpt lat="47.0044" lon="-1.0658">
        <ele>88</ele>
        <time>2011-12-11T08:48:02Z</time>
      </trkpt>
      <trkpt lat="47.00439" lon="-1.06579">
        <ele>88</ele>
        <time>2011-12-11T08:48:03Z</time>
      </trkpt>
      <trkpt lat="47.00438" lon="-1.06579">
        <ele>88</ele>
        <time>2011-12-11T08:48:04Z</time>
      </trkpt>
      <trkpt lat="47.00437" lon="-1.06578">
        <ele>88</ele>
        <time>2011-12-11T08:48:04Z</time>
      </trkpt>
      <trkpt lat="47.00434" lon="-1.06576">
        <ele>88</ele>
        <time>2011-12-11T08:48:07Z</time>
      </trkpt>
      <trkpt lat="47.00433" lon="-1.06575">
        <ele>88</ele>
        <time>2011-12-11T08:48:07Z</time>
      </trkpt>
      <trkpt lat="47.00431" lon="-1.06573">
        <ele>88</ele>
        <time>2011-12-11T08:48:09Z</time>
      </trkpt>
      <trkpt lat="47.00429" lon="-1.06571">
        <ele>88</ele>
        <time>2011-12-11T08:48:12Z</time>
      </trkpt>
      <trkpt lat="47.00428" lon="-1.06571">
        <ele>88</ele>
        <time>2011-12-11T08:48:12Z</time>
      </trkpt>
      <trkpt lat="47.00426" lon="-1.06569">
        <ele>88</ele>
        <time>2011-12-11T08:48:15Z</time>
      </trkpt>
      <trkpt lat="47.00425" lon="-1.06568">
        <ele>88</ele>
        <time>2011-12-11T08:48:16Z</time>
      </trkpt>
      <trkpt lat="47.00423" lon="-1.06567">
        <ele>88</ele>
        <time>2011-12-11T08:48:16Z</time>
      </trkpt>
      <trkpt lat="47.00422" lon="-1.06566">
        <ele>88</ele>
        <time>2011-12-11T08:48:18Z</time>
      </trkpt>
      <trkpt lat="47.00421" lon="-1.06565">
        <ele>88</ele>
        <time>2011-12-11T08:48:19Z</time>
      </trkpt>
      <trkpt lat="47.0042" lon="-1.06565">
        <ele>88</ele>
        <time>2011-12-11T08:48:20Z</time>
      </trkpt>
      <trkpt lat="47.00418" lon="-1.06563">
        <ele>88</ele>
        <time>2011-12-11T08:48:22Z</time>
      </trkpt>
      <trkpt lat="47.00416" lon="-1.06562">
        <ele>88</ele>
        <time>2011-12-11T08:48:24Z</time>
      </trkpt>
      <trkpt lat="47.00414" lon="-1.0656">
        <ele>88</ele>
        <time>2011-12-11T08:48:26Z</time>
      </trkpt>
      <trkpt lat="47.00413" lon="-1.06559">
        <ele>88</ele>
        <time>2011-12-11T08:48:26Z</time>
      </trkpt>
      <trkpt lat="47.0041" lon="-1.06557">
        <ele>88</ele>
        <time>2011-12-11T08:48:29Z</time>
      </trkpt>
      <trkpt lat="47.00409" lon="-1.06556">
        <ele>88</ele>
        <time>2011-12-11T08:48:30Z</time>
      </trkpt>
      <trkpt lat="47.00408" lon="-1.06555">
        <ele>88</ele>
        <time>2011-12-11T08:48:31Z</time>
      </trkpt>
      <trkpt lat="47.00407" lon="-1.06554">
        <ele>88</ele>
        <time>2011-12-11T08:48:32Z</time>
      </trkpt>
      <trkpt lat="47.00406" lon="-1.06553">
        <ele>88</ele>
        <time>2011-12-11T08:48:33Z</time>
      </trkpt>
      <trkpt lat="47.00404" lon="-1.06553">
        <ele>88</ele>
        <time>2011-12-11T08:48:34Z</time>
      </trkpt>
      <trkpt lat="47.00403" lon="-1.06552">
        <ele>88</ele>
        <time>2011-12-11T08:48:35Z</time>
      </trkpt>
      <trkpt lat="47.00402" lon="-1.06551">
        <ele>88</ele>
        <time>2011-12-11T08:48:36Z</time>
      </trkpt>
      <trkpt lat="47.00401" lon="-1.0655">
        <ele>88</ele>
        <time>2011-12-11T08:48:37Z</time>
      </trkpt>
      <trkpt lat="47.004" lon="-1.06549">
        <ele>88</ele>
        <time>2011-12-11T08:48:38Z</time>
      </trkpt>
      <trkpt lat="47.00398" lon="-1.06547">
        <ele>88</ele>
        <time>2011-12-11T08:48:40Z</time>
      </trkpt>
      <trkpt lat="47.00396" lon="-1.06545">
        <ele>88</ele>
        <time>2011-12-11T08:48:42Z</time>
      </trkpt>
      <trkpt lat="47.00394" lon="-1.06544">
        <ele>88</ele>
        <time>2011-12-11T08:48:43Z</time>
      </trkpt>
      <trkpt lat="47.00393" lon="-1.06543">
        <ele>88</ele>
        <time>2011-12-11T08:48:44Z</time>
      </trkpt>
      <trkpt lat="47.00392" lon="-1.06542">
        <ele>88</ele>
        <time>2011-12-11T08:48:45Z</time>
      </trkpt>
      <trkpt lat="47.0039" lon="-1.0654">
        <ele>88</ele>
        <time>2011-12-11T08:48:47Z</time>
      </trkpt>
      <trkpt lat="47.00389" lon="-1.06539">
        <ele>88</ele>
        <time>2011-12-11T08:48:48Z</time>
      </trkpt>
      <trkpt lat="47.00388" lon="-1.06538">
        <ele>88</ele>
        <time>2011-12-11T08:48:49Z</time>
      </trkpt>
      <trkpt lat="47.00386" lon="-1.06537">
        <ele>88</ele>
        <time>2011-12-11T08:48:50Z</time>
      </trkpt>
      <trkpt lat="47.00385" lon="-1.06536">
        <ele>88</ele>
        <time>2011-12-11T08:48:50Z</time>
      </trkpt>
      <trkpt lat="47.00384" lon="-1.06536">
        <ele>88</ele>
        <time>2011-12-11T08:48:52Z</time>
      </trkpt>
      <trkpt lat="47.00383" lon="-1.06535">
        <ele>88</ele>
        <time>2011-12-11T08:48:53Z</time>
      </trkpt>
      <trkpt lat="47.00381" lon="-1.06534">
        <ele>88</ele>
        <time>2011-12-11T08:48:54Z</time>
      </trkpt>
      <trkpt lat="47.0038" lon="-1.06533">
        <ele>88</ele>
        <time>2011-12-11T08:48:55Z</time>
      </trkpt>
      <trkpt lat="47.00379" lon="-1.06532">
        <ele>88</ele>
        <time>2011-12-11T08:48:56Z</time>
      </trkpt>
      <trkpt lat="47.00378" lon="-1.06531">
        <ele>88</ele>
        <time>2011-12-11T08:48:56Z</time>
      </trkpt>
      <trkpt lat="47.00377" lon="-1.0653">
        <ele>88</ele>
        <time>2011-12-11T08:48:58Z</time>
      </trkpt>
      <trkpt lat="47.00375" lon="-1.06529">
        <ele>88</ele>
        <time>2011-12-11T08:48:59Z</time>
      </trkpt>
      <trkpt lat="47.00373" lon="-1.06528">
        <ele>88</ele>
        <time>2011-12-11T08:49:00Z</time>
      </trkpt>
      <trkpt lat="47.00372" lon="-1.06527">
        <ele>88</ele>
        <time>2011-12-11T08:49:01Z</time>
      </trkpt>
      <trkpt lat="47.0037" lon="-1.06525">
        <ele>88</ele>
        <time>2011-12-11T08:49:02Z</time>
      </trkpt>
      <trkpt lat="47.00369" lon="-1.06524">
        <ele>88</ele>
        <time>2011-12-11T08:49:03Z</time>
      </trkpt>
      <trkpt lat="47.00368" lon="-1.06524">
        <ele>88</ele>
        <time>2011-12-11T08:49:04Z</time>
      </trkpt>
      <trkpt lat="47.00367" lon="-1.06523">
        <ele>88</ele>
        <time>2011-12-11T08:49:06Z</time>
      </trkpt>
      <trkpt lat="47.00365" lon="-1.06521">
        <ele>88</ele>
        <time>2011-12-11T08:49:07Z</time>
      </trkpt>
      <trkpt lat="47.00362" lon="-1.06519">
        <ele>88</ele>
        <time>2011-12-11T08:49:10Z</time>
      </trkpt>
      <trkpt lat="47.00361" lon="-1.06519">
        <ele>88</ele>
        <time>2011-12-11T08:49:10Z</time>
      </trkpt>
      <trkpt lat="47.0036" lon="-1.06518">
        <ele>88</ele>
        <time>2011-12-11T08:49:11Z</time>
      </trkpt>
      <trkpt lat="47.00359" lon="-1.06517">
        <ele>88</ele>
        <time>2011-12-11T08:49:13Z</time>
      </trkpt>
      <trkpt lat="47.00358" lon="-1.06516">
        <ele>88</ele>
        <time>2011-12-11T08:49:14Z</time>
      </trkpt>
      <trkpt lat="47.00357" lon="-1.06515">
        <ele>88</ele>
        <time>2011-12-11T08:49:15Z</time>
      </trkpt>
      <trkpt lat="47.00355" lon="-1.06514">
        <ele>88</ele>
        <time>2011-12-11T08:49:16Z</time>
      </trkpt>
      <trkpt lat="47.00353" lon="-1.06512">
        <ele>88</ele>
        <time>2011-12-11T08:49:18Z</time>
      </trkpt>
      <trkpt lat="47.00352" lon="-1.06511">
        <ele>88</ele>
        <time>2011-12-11T08:49:19Z</time>
      </trkpt>
      <trkpt lat="47.00351" lon="-1.0651">
        <ele>88</ele>
        <time>2011-12-11T08:49:19Z</time>
      </trkpt>
      <trkpt lat="47.00349" lon="-1.0651">
        <ele>88</ele>
        <time>2011-12-11T08:49:21Z</time>
      </trkpt>
      <trkpt lat="47.00348" lon="-1.06509">
        <ele>88</ele>
        <time>2011-12-11T08:49:22Z</time>
      </trkpt>
      <trkpt lat="47.00347" lon="-1.06508">
        <ele>88</ele>
        <time>2011-12-11T08:49:23Z</time>
      </trkpt>
      <trkpt lat="47.00346" lon="-1.06507">
        <ele>88</ele>
        <time>2011-12-11T08:49:23Z</time>
      </trkpt>
      <trkpt lat="47.00344" lon="-1.06507">
        <ele>88</ele>
        <time>2011-12-11T08:49:25Z</time>
      </trkpt>
      <trkpt lat="47.00343" lon="-1.06506">
        <ele>88</ele>
        <time>2011-12-11T08:49:26Z</time>
      </trkpt>
      <trkpt lat="47.00342" lon="-1.06505">
        <ele>88</ele>
        <time>2011-12-11T08:49:27Z</time>
      </trkpt>
      <trkpt lat="47.00341" lon="-1.06504">
        <ele>88</ele>
        <time>2011-12-11T08:49:27Z</time>
      </trkpt>
      <trkpt lat="47.00339" lon="-1.06502">
        <ele>88</ele>
        <time>2011-12-11T08:49:29Z</time>
      </trkpt>
      <trkpt lat="47.00338" lon="-1.06501">
        <ele>88</ele>
        <time>2011-12-11T08:49:31Z</time>
      </trkpt>
      <trkpt lat="47.00337" lon="-1.065">
        <ele>88</ele>
        <time>2011-12-11T08:49:31Z</time>
      </trkpt>
      <trkpt lat="47.00335" lon="-1.065">
        <ele>88</ele>
        <time>2011-12-11T08:49:33Z</time>
      </trkpt>
      <trkpt lat="47.00334" lon="-1.06499">
        <ele>88</ele>
        <time>2011-12-11T08:49:34Z</time>
      </trkpt>
      <trkpt lat="47.00332" lon="-1.06498">
        <ele>88</ele>
        <time>2011-12-11T08:49:35Z</time>
      </trkpt>
      <trkpt lat="47.00331" lon="-1.06497">
        <ele>88</ele>
        <time>2011-12-11T08:49:37Z</time>
      </trkpt>
      <trkpt lat="47.0033" lon="-1.06496">
        <ele>88</ele>
        <time>2011-12-11T08:49:38Z</time>
      </trkpt>
      <trkpt lat="47.00328" lon="-1.06495">
        <ele>88</ele>
        <time>2011-12-11T08:49:38Z</time>
      </trkpt>
      <trkpt lat="47.00327" lon="-1.06494">
        <ele>88</ele>
        <time>2011-12-11T08:49:40Z</time>
      </trkpt>
      <trkpt lat="47.00326" lon="-1.06494">
        <ele>88</ele>
        <time>2011-12-11T08:49:41Z</time>
      </trkpt>
      <trkpt lat="47.00325" lon="-1.06493">
        <ele>88</ele>
        <time>2011-12-11T08:49:42Z</time>
      </trkpt>
      <trkpt lat="47.00324" lon="-1.06492">
        <ele>88</ele>
        <time>2011-12-11T08:49:43Z</time>
      </trkpt>
      <trkpt lat="47.00322" lon="-1.06491">
        <ele>88</ele>
        <time>2011-12-11T08:49:43Z</time>
      </trkpt>
      <trkpt lat="47.0032" lon="-1.0649">
        <ele>88</ele>
        <time>2011-12-11T08:49:45Z</time>
      </trkpt>
      <trkpt lat="47.00319" lon="-1.06489">
        <ele>88</ele>
        <time>2011-12-11T08:49:46Z</time>
      </trkpt>
      <trkpt lat="47.00318" lon="-1.06488">
        <ele>88</ele>
        <time>2011-12-11T08:49:47Z</time>
      </trkpt>
      <trkpt lat="47.00317" lon="-1.06488">
        <ele>88</ele>
        <time>2011-12-11T08:49:49Z</time>
      </trkpt>
      <trkpt lat="47.00315" lon="-1.06486">
        <ele>88</ele>
        <time>2011-12-11T08:49:50Z</time>
      </trkpt>
      <trkpt lat="47.00314" lon="-1.06486">
        <ele>88</ele>
        <time>2011-12-11T08:49:51Z</time>
      </trkpt>
      <trkpt lat="47.00313" lon="-1.06485">
        <ele>88</ele>
        <time>2011-12-11T08:49:52Z</time>
      </trkpt>
      <trkpt lat="47.00312" lon="-1.06484">
        <ele>88</ele>
        <time>2011-12-11T08:49:53Z</time>
      </trkpt>
      <trkpt lat="47.00311" lon="-1.06483">
        <ele>88</ele>
        <time>2011-12-11T08:49:54Z</time>
      </trkpt>
      <trkpt lat="47.00309" lon="-1.06483">
        <ele>88</ele>
        <time>2011-12-11T08:49:55Z</time>
      </trkpt>
      <trkpt lat="47.00308" lon="-1.06482">
        <ele>88</ele>
        <time>2011-12-11T08:49:55Z</time>
      </trkpt>
      <trkpt lat="47.00306" lon="-1.0648">
        <ele>88</ele>
        <time>2011-12-11T08:49:58Z</time>
      </trkpt>
      <trkpt lat="47.00305" lon="-1.06479">
        <ele>88</ele>
        <time>2011-12-11T08:49:58Z</time>
      </trkpt>
      <trkpt lat="47.00303" lon="-1.06478">
        <ele>88</ele>
        <time>2011-12-11T08:50:01Z</time>
      </trkpt>
      <trkpt lat="47.00301" lon="-1.06477">
        <ele>88</ele>
        <time>2011-12-11T08:50:02Z</time>
      </trkpt>
      <trkpt lat="47.003" lon="-1.06476">
        <ele>88</ele>
        <time>2011-12-11T08:50:02Z</time>
      </trkpt>
      <trkpt lat="47.00299" lon="-1.06475">
        <ele>88</ele>
        <time>2011-12-11T08:50:04Z</time>
      </trkpt>
      <trkpt lat="47.00298" lon="-1.06474">
        <ele>88</ele>
        <time>2011-12-11T08:50:05Z</time>
      </trkpt>
      <trkpt lat="47.00297" lon="-1.06474">
        <ele>88</ele>
        <time>2011-12-11T08:50:06Z</time>
      </trkpt>
      <trkpt lat="47.00296" lon="-1.06473">
        <ele>88</ele>
        <time>2011-12-11T08:50:06Z</time>
      </trkpt>
      <trkpt lat="47.00294" lon="-1.06472">
        <ele>88</ele>
        <time>2011-12-11T08:50:08Z</time>
      </trkpt>
      <trkpt lat="47.00292" lon="-1.06471">
        <ele>88</ele>
        <time>2011-12-11T08:50:10Z</time>
      </trkpt>
      <trkpt lat="47.00291" lon="-1.0647">
        <ele>88</ele>
        <time>2011-12-11T08:50:11Z</time>
      </trkpt>
      <trkpt lat="47.0029" lon="-1.06469">
        <ele>88</ele>
        <time>2011-12-11T08:50:11Z</time>
      </trkpt>
      <trkpt lat="47.00289" lon="-1.06468">
        <ele>88</ele>
        <time>2011-12-11T08:50:13Z</time>
      </trkpt>
      <trkpt lat="47.00288" lon="-1.06468">
        <ele>88</ele>
        <time>2011-12-11T08:50:14Z</time>
      </trkpt>
      <trkpt lat="47.00286" lon="-1.06467">
        <ele>88</ele>
        <time>2011-12-11T08:50:15Z</time>
      </trkpt>
      <trkpt lat="47.00285" lon="-1.06466">
        <ele>88</ele>
        <time>2011-12-11T08:50:15Z</time>
      </trkpt>
      <trkpt lat="47.00284" lon="-1.06465">
        <ele>88</ele>
        <time>2011-12-11T08:50:17Z</time>
      </trkpt>
      <trkpt lat="47.00283" lon="-1.06465">
        <ele>88</ele>
        <time>2011-12-11T08:50:18Z</time>
      </trkpt>
      <trkpt lat="47.00282" lon="-1.06464">
        <ele>88</ele>
        <time>2011-12-11T08:50:18Z</time>
      </trkpt>
      <trkpt lat="47.0028" lon="-1.06463">
        <ele>88</ele>
        <time>2011-12-11T08:50:19Z</time>
      </trkpt>
      <trkpt lat="47.00279" lon="-1.06462">
        <ele>88</ele>
        <time>2011-12-11T08:50:20Z</time>
      </trkpt>
      <trkpt lat="47.00278" lon="-1.06462">
        <ele>88</ele>
        <time>2011-12-11T08:50:22Z</time>
      </trkpt>
      <trkpt lat="47.00277" lon="-1.06461">
        <ele>88</ele>
        <time>2011-12-11T08:50:23Z</time>
      </trkpt>
      <trkpt lat="47.00275" lon="-1.0646">
        <ele>88</ele>
        <time>2011-12-11T08:50:24Z</time>
      </trkpt>
      <trkpt lat="47.00274" lon="-1.06459">
        <ele>88</ele>
        <time>2011-12-11T08:50:24Z</time>
      </trkpt>
      <trkpt lat="47.00273" lon="-1.06458">
        <ele>88</ele>
        <time>2011-12-11T08:50:25Z</time>
      </trkpt>
      <trkpt lat="47.00272" lon="-1.06457">
        <ele>88</ele>
        <time>2011-12-11T08:50:27Z</time>
      </trkpt>
      <trkpt lat="47.0027" lon="-1.06456">
        <ele>88</ele>
        <time>2011-12-11T08:50:27Z</time>
      </trkpt>
      <trkpt lat="47.00269" lon="-1.06456">
        <ele>88</ele>
        <time>2011-12-11T08:50:29Z</time>
      </trkpt>
      <trkpt lat="47.00268" lon="-1.06455">
        <ele>88</ele>
        <time>2011-12-11T08:50:29Z</time>
      </trkpt>
      <trkpt lat="47.00267" lon="-1.06454">
        <ele>88</ele>
        <time>2011-12-11T08:50:30Z</time>
      </trkpt>
      <trkpt lat="47.00266" lon="-1.06453">
        <ele>88</ele>
        <time>2011-12-11T08:50:32Z</time>
      </trkpt>
      <trkpt lat="47.00264" lon="-1.06453">
        <ele>88</ele>
        <time>2011-12-11T08:50:33Z</time>
      </trkpt>
      <trkpt lat="47.00263" lon="-1.06452">
        <ele>88</ele>
        <time>2011-12-11T08:50:34Z</time>
      </trkpt>
      <trkpt lat="47.00262" lon="-1.06451">
        <ele>88</ele>
        <time>2011-12-11T08:50:35Z</time>
      </trkpt>
      <trkpt lat="47.00261" lon="-1.0645">
        <ele>88</ele>
        <time>2011-12-11T08:50:35Z</time>
      </trkpt>
      <trkpt lat="47.00259" lon="-1.06449">
        <ele>88</ele>
        <time>2011-12-11T08:50:37Z</time>
      </trkpt>
      <trkpt lat="47.00258" lon="-1.06448">
        <ele>88</ele>
        <time>2011-12-11T08:50:38Z</time>
      </trkpt>
      <trkpt lat="47.00257" lon="-1.06448">
        <ele>88</ele>
        <time>2011-12-11T08:50:39Z</time>
      </trkpt>
      <trkpt lat="47.00256" lon="-1.06447">
        <ele>88</ele>
        <time>2011-12-11T08:50:39Z</time>
      </trkpt>
      <trkpt lat="47.00255" lon="-1.06446">
        <ele>88</ele>
        <time>2011-12-11T08:50:41Z</time>
      </trkpt>
      <trkpt lat="47.00254" lon="-1.06445">
        <ele>88</ele>
        <time>2011-12-11T08:50:42Z</time>
      </trkpt>
      <trkpt lat="47.00252" lon="-1.06445">
        <ele>88</ele>
        <time>2011-12-11T08:50:43Z</time>
      </trkpt>
      <trkpt lat="47.00251" lon="-1.06444">
        <ele>88</ele>
        <time>2011-12-11T08:50:43Z</time>
      </trkpt>
      <trkpt lat="47.0025" lon="-1.06443">
        <ele>88</ele>
        <time>2011-12-11T08:50:45Z</time>
      </trkpt>
      <trkpt lat="47.00248" lon="-1.06442">
        <ele>88</ele>
        <time>2011-12-11T08:50:46Z</time>
      </trkpt>
      <trkpt lat="47.00247" lon="-1.06442">
        <ele>88</ele>
        <time>2011-12-11T08:50:47Z</time>
      </trkpt>
      <trkpt lat="47.00246" lon="-1.06441">
        <ele>88</ele>
        <time>2011-12-11T08:50:47Z</time>
      </trkpt>
      <trkpt lat="47.00245" lon="-1.0644">
        <ele>88</ele>
        <time>2011-12-11T08:50:49Z</time>
      </trkpt>
      <trkpt lat="47.00243" lon="-1.06439">
        <ele>88</ele>
        <time>2011-12-11T08:50:50Z</time>
      </trkpt>
      <trkpt lat="47.00242" lon="-1.06439">
        <ele>88</ele>
        <time>2011-12-11T08:50:51Z</time>
      </trkpt>
      <trkpt lat="47.00241" lon="-1.06438">
        <ele>88</ele>
        <time>2011-12-11T08:50:51Z</time>
      </trkpt>
      <trkpt lat="47.0024" lon="-1.06438">
        <ele>88</ele>
        <time>2011-12-11T08:50:53Z</time>
      </trkpt>
      <trkpt lat="47.00238" lon="-1.06437">
        <ele>88</ele>
        <time>2011-12-11T08:50:54Z</time>
      </trkpt>
      <trkpt lat="47.00237" lon="-1.06437">
        <ele>88</ele>
        <time>2011-12-11T08:50:55Z</time>
      </trkpt>
      <trkpt lat="47.00236" lon="-1.06436">
        <ele>88</ele>
        <time>2011-12-11T08:50:55Z</time>
      </trkpt>
      <trkpt lat="47.00234" lon="-1.06435">
        <ele>88</ele>
        <time>2011-12-11T08:50:58Z</time>
      </trkpt>
      <trkpt lat="47.00232" lon="-1.06434">
        <ele>88</ele>
        <time>2011-12-11T08:50:59Z</time>
      </trkpt>
      <trkpt lat="47.00231" lon="-1.06433">
        <ele>88</ele>
        <time>2011-12-11T08:50:59Z</time>
      </trkpt>
      <trkpt lat="47.0023" lon="-1.06432">
        <ele>88</ele>
        <time>2011-12-11T08:51:01Z</time>
      </trkpt>
      <trkpt lat="47.00229" lon="-1.06432">
        <ele>88</ele>
        <time>2011-12-11T08:51:02Z</time>
      </trkpt>
      <trkpt lat="47.00227" lon="-1.06431">
        <ele>88</ele>
        <time>2011-12-11T08:51:03Z</time>
      </trkpt>
      <trkpt lat="47.00226" lon="-1.06431">
        <ele>88</ele>
        <time>2011-12-11T08:51:03Z</time>
      </trkpt>
      <trkpt lat="47.00225" lon="-1.0643">
        <ele>88</ele>
        <time>2011-12-11T08:51:05Z</time>
      </trkpt>
      <trkpt lat="47.00224" lon="-1.0643">
        <ele>88</ele>
        <time>2011-12-11T08:51:06Z</time>
      </trkpt>
      <trkpt lat="47.00222" lon="-1.06429">
        <ele>88</ele>
        <time>2011-12-11T08:51:07Z</time>
      </trkpt>
      <trkpt lat="47.00221" lon="-1.06428">
        <ele>88</ele>
        <time>2011-12-11T08:51:07Z</time>
      </trkpt>
      <trkpt lat="47.0022" lon="-1.06427">
        <ele>88</ele>
        <time>2011-12-11T08:51:08Z</time>
      </trkpt>
      <trkpt lat="47.00219" lon="-1.06427">
        <ele>88</ele>
        <time>2011-12-11T08:51:10Z</time>
      </trkpt>
      <trkpt lat="47.00218" lon="-1.06427">
        <ele>88</ele>
        <time>2011-12-11T08:51:10Z</time>
      </trkpt>
      <trkpt lat="47.00217" lon="-1.06426">
        <ele>88</ele>
        <time>2011-12-11T08:51:12Z</time>
      </trkpt>
      <trkpt lat="47.00215" lon="-1.06425">
        <ele>88</ele>
        <time>2011-12-11T08:51:13Z</time>
      </trkpt>
      <trkpt lat="47.00214" lon="-1.06425">
        <ele>88</ele>
        <time>2011-12-11T08:51:14Z</time>
      </trkpt>
      <trkpt lat="47.00213" lon="-1.06424">
        <ele>88</ele>
        <time>2011-12-11T08:51:15Z</time>
      </trkpt>
      <trkpt lat="47.00211" lon="-1.06423">
        <ele>88</ele>
        <time>2011-12-11T08:51:15Z</time>
      </trkpt>
      <trkpt lat="47.0021" lon="-1.06423">
        <ele>88</ele>
        <time>2011-12-11T08:51:17Z</time>
      </trkpt>
      <trkpt lat="47.00209" lon="-1.06422">
        <ele>88</ele>
        <time>2011-12-11T08:51:18Z</time>
      </trkpt>
      <trkpt lat="47.00208" lon="-1.06422">
        <ele>88</ele>
        <time>2011-12-11T08:51:19Z</time>
      </trkpt>
      <trkpt lat="47.00206" lon="-1.06421">
        <ele>88</ele>
        <time>2011-12-11T08:51:19Z</time>
      </trkpt>
      <trkpt lat="47.00205" lon="-1.06421">
        <ele>88</ele>
        <time>2011-12-11T08:51:20Z</time>
      </trkpt>
      <trkpt lat="47.00204" lon="-1.0642">
        <ele>88</ele>
        <time>2011-12-11T08:51:22Z</time>
      </trkpt>
      <trkpt lat="47.00202" lon="-1.06419">
        <ele>88</ele>
        <time>2011-12-11T08:51:23Z</time>
      </trkpt>
      <trkpt lat="47.00201" lon="-1.06419">
        <ele>88</ele>
        <time>2011-12-11T08:51:24Z</time>
      </trkpt>
      <trkpt lat="47.002" lon="-1.06418">
        <ele>88</ele>
        <time>2011-12-11T08:51:24Z</time>
      </trkpt>
      <trkpt lat="47.00199" lon="-1.06418">
        <ele>88</ele>
        <time>2011-12-11T08:51:26Z</time>
      </trkpt>
      <trkpt lat="47.00198" lon="-1.06417">
        <ele>88</ele>
        <time>2011-12-11T08:51:27Z</time>
      </trkpt>
      <trkpt lat="47.00196" lon="-1.06416">
        <ele>88</ele>
        <time>2011-12-11T08:51:27Z</time>
      </trkpt>
      <trkpt lat="47.00195" lon="-1.06415">
        <ele>88</ele>
        <time>2011-12-11T08:51:29Z</time>
      </trkpt>
      <trkpt lat="47.00194" lon="-1.06415">
        <ele>88</ele>
        <time>2011-12-11T08:51:30Z</time>
      </trkpt>
      <trkpt lat="47.00192" lon="-1.06414">
        <ele>88</ele>
        <time>2011-12-11T08:51:31Z</time>
      </trkpt>
      <trkpt lat="47.00191" lon="-1.06414">
        <ele>88</ele>
        <time>2011-12-11T08:51:32Z</time>
      </trkpt>
      <trkpt lat="47.0019" lon="-1.06413">
        <ele>88</ele>
        <time>2011-12-11T08:51:32Z</time>
      </trkpt>
      <trkpt lat="47.00188" lon="-1.06413">
        <ele>88</ele>
        <time>2011-12-11T08:51:34Z</time>
      </trkpt>
      <trkpt lat="47.00187" lon="-1.06412">
        <ele>88</ele>
        <time>2011-12-11T08:51:35Z</time>
      </trkpt>
      <trkpt lat="47.00186" lon="-1.06412">
        <ele>88</ele>
        <time>2011-12-11T08:51:35Z</time>
      </trkpt>
      <trkpt lat="47.00184" lon="-1.06411">
        <ele>88</ele>
        <time>2011-12-11T08:51:38Z</time>
      </trkpt>
      <trkpt lat="47.00182" lon="-1.0641">
        <ele>88</ele>
        <time>2011-12-11T08:51:39Z</time>
      </trkpt>
      <trkpt lat="47.00181" lon="-1.0641">
        <ele>88</ele>
        <time>2011-12-11T08:51:40Z</time>
      </trkpt>
      <trkpt lat="47.0018" lon="-1.06409">
        <ele>88</ele>
        <time>2011-12-11T08:51:41Z</time>
      </trkpt>
      <trkpt lat="47.00179" lon="-1.06408">
        <ele>88</ele>
        <time>2011-12-11T08:51:42Z</time>
      </trkpt>
      <trkpt lat="47.00178" lon="-1.06408">
        <ele>88</ele>
        <time>2011-12-11T08:51:43Z</time>
      </trkpt>
      <trkpt lat="47.00176" lon="-1.06407">
        <ele>88</ele>
        <time>2011-12-11T08:51:43Z</time>
      </trkpt>
      <trkpt lat="47.00175" lon="-1.06407">
        <ele>88</ele>
        <time>2011-12-11T08:51:45Z</time>
      </trkpt>
      <trkpt lat="47.00174" lon="-1.06406">
        <ele>88</ele>
        <time>2011-12-11T08:51:46Z</time>
      </trkpt>
      <trkpt lat="47.00173" lon="-1.06406">
        <ele>88</ele>
        <time>2011-12-11T08:51:47Z</time>
      </trkpt>
      <trkpt lat="47.0017" lon="-1.06405">
        <ele>88</ele>
        <time>2011-12-11T08:51:49Z</time>
      </trkpt>
      <trkpt lat="47.00169" lon="-1.06404">
        <ele>88</ele>
        <time>2011-12-11T08:51:50Z</time>
      </trkpt>
      <trkpt lat="47.00168" lon="-1.06404">
        <ele>88</ele>
        <time>2011-12-11T08:51:50Z</time>
      </trkpt>
      <trkpt lat="47.00167" lon="-1.06403">
        <ele>88</ele>
        <time>2011-12-11T08:51:52Z</time>
      </trkpt>
      <trkpt lat="47.00165" lon="-1.06402">
        <ele>88</ele>
        <time>2011-12-11T08:51:52Z</time>
      </trkpt>
      <trkpt lat="47.00164" lon="-1.06402">
        <ele>88</ele>
        <time>2011-12-11T08:51:53Z</time>
      </trkpt>
      <trkpt lat="47.00163" lon="-1.06401">
        <ele>88</ele>
        <time>2011-12-11T08:51:54Z</time>
      </trkpt>
      <trkpt lat="47.00161" lon="-1.06401">
        <ele>88</ele>
        <time>2011-12-11T08:51:56Z</time>
      </trkpt>
      <trkpt lat="47.0016" lon="-1.064">
        <ele>88</ele>
        <time>2011-12-11T08:51:57Z</time>
      </trkpt>
      <trkpt lat="47.00159" lon="-1.064">
        <ele>88</ele>
        <time>2011-12-11T08:51:58Z</time>
      </trkpt>
      <trkpt lat="47.00158" lon="-1.06399">
        <ele>88</ele>
        <time>2011-12-11T08:51:59Z</time>
      </trkpt>
      <trkpt lat="47.00156" lon="-1.06399">
        <ele>88</ele>
        <time>2011-12-11T08:51:59Z</time>
      </trkpt>
      <trkpt lat="47.00155" lon="-1.06398">
        <ele>88</ele>
        <time>2011-12-11T08:52:01Z</time>
      </trkpt>
      <trkpt lat="47.00154" lon="-1.06397">
        <ele>88</ele>
        <time>2011-12-11T08:52:02Z</time>
      </trkpt>
      <trkpt lat="47.00153" lon="-1.06397">
        <ele>88</ele>
        <time>2011-12-11T08:52:02Z</time>
      </trkpt>
      <trkpt lat="47.00151" lon="-1.06396">
        <ele>88</ele>
        <time>2011-12-11T08:52:04Z</time>
      </trkpt>
      <trkpt lat="47.0015" lon="-1.06396">
        <ele>88</ele>
        <time>2011-12-11T08:52:05Z</time>
      </trkpt>
      <trkpt lat="47.00149" lon="-1.06395">
        <ele>88</ele>
        <time>2011-12-11T08:52:06Z</time>
      </trkpt>
      <trkpt lat="47.00148" lon="-1.06395">
        <ele>88</ele>
        <time>2011-12-11T08:52:06Z</time>
      </trkpt>
      <trkpt lat="47.00146" lon="-1.06395">
        <ele>88</ele>
        <time>2011-12-11T08:52:08Z</time>
      </trkpt>
      <trkpt lat="47.00145" lon="-1.06394">
        <ele>88</ele>
        <time>2011-12-11T08:52:08Z</time>
      </trkpt>
      <trkpt lat="47.00144" lon="-1.06394">
        <ele>88</ele>
        <time>2011-12-11T08:52:09Z</time>
      </trkpt>
      <trkpt lat="47.00142" lon="-1.06393">
        <ele>88</ele>
        <time>2011-12-11T08:52:10Z</time>
      </trkpt>
      <trkpt lat="47.00141" lon="-1.06392">
        <ele>88</ele>
        <time>2011-12-11T08:52:11Z</time>
      </trkpt>
      <trkpt lat="47.0014" lon="-1.06392">
        <ele>88</ele>
        <time>2011-12-11T08:52:13Z</time>
      </trkpt>
      <trkpt lat="47.00138" lon="-1.06391">
        <ele>88</ele>
        <time>2011-12-11T08:52:14Z</time>
      </trkpt>
      <trkpt lat="47.00137" lon="-1.06391">
        <ele>88</ele>
        <time>2011-12-11T08:52:15Z</time>
      </trkpt>
      <trkpt lat="47.00136" lon="-1.0639">
        <ele>88</ele>
        <time>2011-12-11T08:52:15Z</time>
      </trkpt>
      <trkpt lat="47.00135" lon="-1.06389">
        <ele>88</ele>
        <time>2011-12-11T08:52:17Z</time>
      </trkpt>
      <trkpt lat="47.00133" lon="-1.06389">
        <ele>88</ele>
        <time>2011-12-11T08:52:18Z</time>
      </trkpt>
      <trkpt lat="47.00132" lon="-1.06388">
        <ele>88</ele>
        <time>2011-12-11T08:52:19Z</time>
      </trkpt>
      <trkpt lat="47.00131" lon="-1.06388">
        <ele>88</ele>
        <time>2011-12-11T08:52:19Z</time>
      </trkpt>
      <trkpt lat="47.0013" lon="-1.06388">
        <ele>88</ele>
        <time>2011-12-11T08:52:20Z</time>
      </trkpt>
      <trkpt lat="47.00128" lon="-1.06387">
        <ele>88</ele>
        <time>2011-12-11T08:52:22Z</time>
      </trkpt>
      <trkpt lat="47.00127" lon="-1.06387">
        <ele>88</ele>
        <time>2011-12-11T08:52:22Z</time>
      </trkpt>
      <trkpt lat="47.00126" lon="-1.06386">
        <ele>88</ele>
        <time>2011-12-11T08:52:23Z</time>
      </trkpt>
      <trkpt lat="47.00124" lon="-1.06386">
        <ele>88</ele>
        <time>2011-12-11T08:52:25Z</time>
      </trkpt>
      <trkpt lat="47.00123" lon="-1.06385">
        <ele>88</ele>
        <time>2011-12-11T08:52:26Z</time>
      </trkpt>
      <trkpt lat="47.00122" lon="-1.06385">
        <ele>88</ele>
        <time>2011-12-11T08:52:26Z</time>
      </trkpt>
      <trkpt lat="47.00121" lon="-1.06384">
        <ele>88</ele>
        <time>2011-12-11T08:52:28Z</time>
      </trkpt>
      <trkpt lat="47.00119" lon="-1.06384">
        <ele>88</ele>
        <time>2011-12-11T08:52:28Z</time>
      </trkpt>
      <trkpt lat="47.00118" lon="-1.06384">
        <ele>88</ele>
        <time>2011-12-11T08:52:30Z</time>
      </trkpt>
      <trkpt lat="47.00116" lon="-1.06383">
        <ele>88</ele>
        <time>2011-12-11T08:52:30Z</time>
      </trkpt>
      <trkpt lat="47.00115" lon="-1.06383">
        <ele>88</ele>
        <time>2011-12-11T08:52:31Z</time>
      </trkpt>
      <trkpt lat="47.00114" lon="-1.06382">
        <ele>88</ele>
        <time>2011-12-11T08:52:32Z</time>
      </trkpt>
      <trkpt lat="47.00113" lon="-1.06382">
        <ele>88</ele>
        <time>2011-12-11T08:52:34Z</time>
      </trkpt>
      <trkpt lat="47.00111" lon="-1.06381">
        <ele>88</ele>
        <time>2011-12-11T08:52:35Z</time>
      </trkpt>
      <trkpt lat="47.0011" lon="-1.06381">
        <ele>88</ele>
        <time>2011-12-11T08:52:35Z</time>
      </trkpt>
      <trkpt lat="47.00109" lon="-1.0638">
        <ele>88</ele>
        <time>2011-12-11T08:52:37Z</time>
      </trkpt>
      <trkpt lat="47.00107" lon="-1.0638">
        <ele>88</ele>
        <time>2011-12-11T08:52:38Z</time>
      </trkpt>
      <trkpt lat="47.00106" lon="-1.0638">
        <ele>88</ele>
        <time>2011-12-11T08:52:39Z</time>
      </trkpt>
      <trkpt lat="47.00105" lon="-1.0638">
        <ele>88</ele>
        <time>2011-12-11T08:52:39Z</time>
      </trkpt>
      <trkpt lat="47.00103" lon="-1.06379">
        <ele>88</ele>
        <time>2011-12-11T08:52:41Z</time>
      </trkpt>
      <trkpt lat="47.00102" lon="-1.06379">
        <ele>88</ele>
        <time>2011-12-11T08:52:42Z</time>
      </trkpt>
      <trkpt lat="47.001" lon="-1.06379">
        <ele>88</ele>
        <time>2011-12-11T08:52:42Z</time>
      </trkpt>
      <trkpt lat="47.00099" lon="-1.06379">
        <ele>88</ele>
        <time>2011-12-11T08:52:44Z</time>
      </trkpt>
      <trkpt lat="47.00098" lon="-1.06379">
        <ele>88</ele>
        <time>2011-12-11T08:52:45Z</time>
      </trkpt>
      <trkpt lat="47.00096" lon="-1.06379">
        <ele>88</ele>
        <time>2011-12-11T08:52:46Z</time>
      </trkpt>
      <trkpt lat="47.00095" lon="-1.06379">
        <ele>88</ele>
        <time>2011-12-11T08:52:47Z</time>
      </trkpt>
      <trkpt lat="47.00093" lon="-1.06379">
        <ele>88</ele>
        <time>2011-12-11T08:52:47Z</time>
      </trkpt>
      <trkpt lat="47.00092" lon="-1.0638">
        <ele>88</ele>
        <time>2011-12-11T08:52:49Z</time>
      </trkpt>
      <trkpt lat="47.0009" lon="-1.0638">
        <ele>88</ele>
        <time>2011-12-11T08:52:50Z</time>
      </trkpt>
      <trkpt lat="47.00089" lon="-1.0638">
        <ele>88</ele>
        <time>2011-12-11T08:52:50Z</time>
      </trkpt>
      <trkpt lat="47.00088" lon="-1.0638">
        <ele>88</ele>
        <time>2011-12-11T08:52:52Z</time>
      </trkpt>
      <trkpt lat="47.00087" lon="-1.0638">
        <ele>88</ele>
        <time>2011-12-11T08:52:53Z</time>
      </trkpt>
      <trkpt lat="47.00085" lon="-1.06381">
        <ele>88</ele>
        <time>2011-12-11T08:52:54Z</time>
      </trkpt>
      <trkpt lat="47.00084" lon="-1.06381">
        <ele>88</ele>
        <time>2011-12-11T08:52:55Z</time>
      </trkpt>
      <trkpt lat="47.00083" lon="-1.06382">
        <ele>88</ele>
        <time>2011-12-11T08:52:55Z</time>
      </trkpt>
      <trkpt lat="47.00081" lon="-1.06383">
        <ele>88</ele>
        <time>2011-12-11T08:52:56Z</time>
      </trkpt>
      <trkpt lat="47.0008" lon="-1.06383">
        <ele>88</ele>
        <time>2011-12-11T08:52:58Z</time>
      </trkpt>
      <trkpt lat="47.00079" lon="-1.06384">
        <ele>88</ele>
        <time>2011-12-11T08:52:59Z</time>
      </trkpt>
      <trkpt lat="47.00077" lon="-1.06385">
        <ele>88</ele>
        <time>2011-12-11T08:52:59Z</time>
      </trkpt>
      <trkpt lat="47.00076" lon="-1.06386">
        <ele>88</ele>
        <time>2011-12-11T08:53:01Z</time>
      </trkpt>
      <trkpt lat="47.00075" lon="-1.06386">
        <ele>88</ele>
        <time>2011-12-11T08:53:02Z</time>
      </trkpt>
      <trkpt lat="47.00073" lon="-1.06387">
        <ele>88</ele>
        <time>2011-12-11T08:53:02Z</time>
      </trkpt>
      <trkpt lat="47.00072" lon="-1.06388">
        <ele>88</ele>
        <time>2011-12-11T08:53:04Z</time>
      </trkpt>
      <trkpt lat="47.00071" lon="-1.06389">
        <ele>88</ele>
        <time>2011-12-11T08:53:04Z</time>
      </trkpt>
      <trkpt lat="47.00069" lon="-1.06391">
        <ele>88</ele>
        <time>2011-12-11T08:53:07Z</time>
      </trkpt>
      <trkpt lat="47.00067" lon="-1.06393">
        <ele>88</ele>
        <time>2011-12-11T08:53:09Z</time>
      </trkpt>
      <trkpt lat="47.00064" lon="-1.06395">
        <ele>88</ele>
        <time>2011-12-11T08:53:10Z</time>
      </trkpt>
      <trkpt lat="47.00062" lon="-1.06397">
        <ele>88</ele>
        <time>2011-12-11T08:53:12Z</time>
      </trkpt>
      <trkpt lat="47.00061" lon="-1.06398">
        <ele>88</ele>
        <time>2011-12-11T08:53:14Z</time>
      </trkpt>
      <trkpt lat="47.0006" lon="-1.06399">
        <ele>88</ele>
        <time>2011-12-11T08:53:14Z</time>
      </trkpt>
      <trkpt lat="47.00059" lon="-1.064">
        <ele>88</ele>
        <time>2011-12-11T08:53:15Z</time>
      </trkpt>
      <trkpt lat="47.00057" lon="-1.06401">
        <ele>88</ele>
        <time>2011-12-11T08:53:17Z</time>
      </trkpt>
      <trkpt lat="47.00056" lon="-1.06403">
        <ele>88</ele>
        <time>2011-12-11T08:53:18Z</time>
      </trkpt>
      <trkpt lat="47.00055" lon="-1.06403">
        <ele>88</ele>
        <time>2011-12-11T08:53:19Z</time>
      </trkpt>
      <trkpt lat="47.00054" lon="-1.06404">
        <ele>88</ele>
        <time>2011-12-11T08:53:19Z</time>
      </trkpt>
      <trkpt lat="47.00053" lon="-1.06405">
        <ele>88</ele>
        <time>2011-12-11T08:53:20Z</time>
      </trkpt>
      <trkpt lat="47.00051" lon="-1.06406">
        <ele>88</ele>
        <time>2011-12-11T08:53:21Z</time>
      </trkpt>
      <trkpt lat="47.0005" lon="-1.06407">
        <ele>88</ele>
        <time>2011-12-11T08:53:22Z</time>
      </trkpt>
      <trkpt lat="47.00049" lon="-1.06409">
        <ele>88</ele>
        <time>2011-12-11T08:53:24Z</time>
      </trkpt>
      <trkpt lat="47.00048" lon="-1.06409">
        <ele>88</ele>
        <time>2011-12-11T08:53:24Z</time>
      </trkpt>
      <trkpt lat="47.00046" lon="-1.06411">
        <ele>88</ele>
        <time>2011-12-11T08:53:26Z</time>
      </trkpt>
      <trkpt lat="47.00045" lon="-1.06412">
        <ele>88</ele>
        <time>2011-12-11T08:53:27Z</time>
      </trkpt>
      <trkpt lat="47.00043" lon="-1.06413">
        <ele>88</ele>
        <time>2011-12-11T08:53:29Z</time>
      </trkpt>
      <trkpt lat="47.00042" lon="-1.06414">
        <ele>88</ele>
        <time>2011-12-11T08:53:29Z</time>
      </trkpt>
      <trkpt lat="47.00041" lon="-1.06415">
        <ele>88</ele>
        <time>2011-12-11T08:53:30Z</time>
      </trkpt>
      <trkpt lat="47.0004" lon="-1.06416">
        <ele>88</ele>
        <time>2011-12-11T08:53:31Z</time>
      </trkpt>
      <trkpt lat="47.00039" lon="-1.06418">
        <ele>88</ele>
        <time>2011-12-11T08:53:32Z</time>
      </trkpt>
      <trkpt lat="47.00036" lon="-1.0642">
        <ele>88</ele>
        <time>2011-12-11T08:53:34Z</time>
      </trkpt>
      <trkpt lat="47.00035" lon="-1.06421">
        <ele>88</ele>
        <time>2011-12-11T08:53:36Z</time>
      </trkpt>
      <trkpt lat="47.00033" lon="-1.06422">
        <ele>88</ele>
        <time>2011-12-11T08:53:37Z</time>
      </trkpt>
      <trkpt lat="47.00032" lon="-1.06423">
        <ele>88</ele>
        <time>2011-12-11T08:53:39Z</time>
      </trkpt>
      <trkpt lat="47.00031" lon="-1.06424">
        <ele>88</ele>
        <time>2011-12-11T08:53:39Z</time>
      </trkpt>
      <trkpt lat="47.00029" lon="-1.06425">
        <ele>88</ele>
        <time>2011-12-11T08:53:40Z</time>
      </trkpt>
      <trkpt lat="47.00027" lon="-1.06427">
        <ele>88</ele>
        <time>2011-12-11T08:53:43Z</time>
      </trkpt>
      <trkpt lat="47.00026" lon="-1.06428">
        <ele>88</ele>
        <time>2011-12-11T08:53:43Z</time>
      </trkpt>
      <trkpt lat="47.00025" lon="-1.06429">
        <ele>88</ele>
        <time>2011-12-11T08:53:45Z</time>
      </trkpt>
      <trkpt lat="47.00024" lon="-1.0643">
        <ele>88</ele>
        <time>2011-12-11T08:53:46Z</time>
      </trkpt>
      <trkpt lat="47.00023" lon="-1.06431">
        <ele>88</ele>
        <time>2011-12-11T08:53:47Z</time>
      </trkpt>
      <trkpt lat="47.00022" lon="-1.06432">
        <ele>88</ele>
        <time>2011-12-11T08:53:47Z</time>
      </trkpt>
      <trkpt lat="47.00019" lon="-1.06433">
        <ele>88</ele>
        <time>2011-12-11T08:53:50Z</time>
      </trkpt>
      <trkpt lat="47.00018" lon="-1.06434">
        <ele>88</ele>
        <time>2011-12-11T08:53:51Z</time>
      </trkpt>
      <trkpt lat="47.00017" lon="-1.06435">
        <ele>88</ele>
        <time>2011-12-11T08:53:51Z</time>
      </trkpt>
      <trkpt lat="47.00016" lon="-1.06436">
        <ele>88</ele>
        <time>2011-12-11T08:53:53Z</time>
      </trkpt>
      <trkpt lat="47.00015" lon="-1.06437">
        <ele>88</ele>
        <time>2011-12-11T08:53:54Z</time>
      </trkpt>
      <trkpt lat="47.00013" lon="-1.06438">
        <ele>88</ele>
        <time>2011-12-11T08:53:55Z</time>
      </trkpt>
      <trkpt lat="47.00012" lon="-1.06438">
        <ele>89</ele>
        <time>2011-12-11T08:53:55Z</time>
      </trkpt>
      <trkpt lat="47.00011" lon="-1.06439">
        <ele>89</ele>
        <time>2011-12-11T08:53:57Z</time>
      </trkpt>
      <trkpt lat="47.0001" lon="-1.0644">
        <ele>89</ele>
        <time>2011-12-11T08:53:58Z</time>
      </trkpt>
      <trkpt lat="47.00008" lon="-1.06441">
        <ele>89</ele>
        <time>2011-12-11T08:53:59Z</time>
      </trkpt>
      <trkpt lat="47.00006" lon="-1.06443">
        <ele>89</ele>
        <time>2011-12-11T08:54:02Z</time>
      </trkpt>
      <trkpt lat="47.00005" lon="-1.06444">
        <ele>89</ele>
        <time>2011-12-11T08:54:03Z</time>
      </trkpt>
      <trkpt lat="47.00003" lon="-1.06446">
        <ele>89</ele>
        <time>2011-12-11T08:54:05Z</time>
      </trkpt>
      <trkpt lat="47.00002" lon="-1.06448">
        <ele>89</ele>
        <time>2011-12-11T08:54:07Z</time>
      </trkpt>
      <trkpt lat="47.00002" lon="-1.06449">
        <ele>89</ele>
        <time>2011-12-11T08:54:07Z</time>
      </trkpt>
      <trkpt lat="47.00002" lon="-1.06451">
        <ele>89</ele>
        <time>2011-12-11T08:54:09Z</time>
      </trkpt>
      <trkpt lat="47.00001" lon="-1.06453">
        <ele>89</ele>
        <time>2011-12-11T08:54:10Z</time>
      </trkpt>
      <trkpt lat="47.00001" lon="-1.06455">
        <ele>89</ele>
        <time>2011-12-11T08:54:10Z</time>
      </trkpt>
      <trkpt lat="47" lon="-1.06456">
        <ele>89</ele>
        <time>2011-12-11T08:54:11Z</time>
      </trkpt>
      <trkpt lat="47" lon="-1.06458">
        <ele>89</ele>
        <time>2011-12-11T08:54:12Z</time>
      </trkpt>
      <trkpt lat="46.99999" lon="-1.06459">
        <ele>89</ele>
        <time>2011-12-11T08:54:13Z</time>
      </trkpt>
      <trkpt lat="46.99999" lon="-1.06461">
        <ele>89</ele>
        <time>2011-12-11T08:54:14Z</time>
      </trkpt>
      <trkpt lat="46.99998" lon="-1.06463">
        <ele>89</ele>
        <time>2011-12-11T08:54:16Z</time>
      </trkpt>
      <trkpt lat="46.99998" lon="-1.06464">
        <ele>89</ele>
        <time>2011-12-11T08:54:17Z</time>
      </trkpt>
      <trkpt lat="46.99997" lon="-1.06467">
        <ele>89</ele>
        <time>2011-12-11T08:54:18Z</time>
      </trkpt>
      <trkpt lat="46.99996" lon="-1.06469">
        <ele>89</ele>
        <time>2011-12-11T08:54:21Z</time>
      </trkpt>
      <trkpt lat="46.99996" lon="-1.06471">
        <ele>89</ele>
        <time>2011-12-11T08:54:21Z</time>
      </trkpt>
      <trkpt lat="46.99995" lon="-1.06473">
        <ele>89</ele>
        <time>2011-12-11T08:54:23Z</time>
      </trkpt>
      <trkpt lat="46.99995" lon="-1.06475">
        <ele>89</ele>
        <time>2011-12-11T08:54:26Z</time>
      </trkpt>
      <trkpt lat="46.99994" lon="-1.06478">
        <ele>89</ele>
        <time>2011-12-11T08:54:27Z</time>
      </trkpt>
      <trkpt lat="46.99994" lon="-1.0648">
        <ele>89</ele>
        <time>2011-12-11T08:54:28Z</time>
      </trkpt>
      <trkpt lat="46.99993" lon="-1.06482">
        <ele>89</ele>
        <time>2011-12-11T08:54:30Z</time>
      </trkpt>
      <trkpt lat="46.99992" lon="-1.06483">
        <ele>89</ele>
        <time>2011-12-11T08:54:31Z</time>
      </trkpt>
      <trkpt lat="46.99992" lon="-1.06485">
        <ele>89</ele>
        <time>2011-12-11T08:54:31Z</time>
      </trkpt>
      <trkpt lat="46.99991" lon="-1.06486">
        <ele>89</ele>
        <time>2011-12-11T08:54:33Z</time>
      </trkpt>
      <trkpt lat="46.99991" lon="-1.06488">
        <ele>89</ele>
        <time>2011-12-11T08:54:34Z</time>
      </trkpt>
      <trkpt lat="46.9999" lon="-1.0649">
        <ele>89</ele>
        <time>2011-12-11T08:54:35Z</time>
      </trkpt>
      <trkpt lat="46.9999" lon="-1.06491">
        <ele>89</ele>
        <time>2011-12-11T08:54:35Z</time>
      </trkpt>
      <trkpt lat="46.99989" lon="-1.06493">
        <ele>89</ele>
        <time>2011-12-11T08:54:37Z</time>
      </trkpt>
      <trkpt lat="46.99989" lon="-1.06494">
        <ele>89</ele>
        <time>2011-12-11T08:54:38Z</time>
      </trkpt>
      <trkpt lat="46.99988" lon="-1.06496">
        <ele>89</ele>
        <time>2011-12-11T08:54:39Z</time>
      </trkpt>
      <trkpt lat="46.99988" lon="-1.06498">
        <ele>89</ele>
        <time>2011-12-11T08:54:39Z</time>
      </trkpt>
      <trkpt lat="46.99988" lon="-1.06499">
        <ele>89</ele>
        <time>2011-12-11T08:54:41Z</time>
      </trkpt>
      <trkpt lat="46.99987" lon="-1.06501">
        <ele>89</ele>
        <time>2011-12-11T08:54:42Z</time>
      </trkpt>
      <trkpt lat="46.99987" lon="-1.06503">
        <ele>89</ele>
        <time>2011-12-11T08:54:43Z</time>
      </trkpt>
      <trkpt lat="46.99986" lon="-1.06505">
        <ele>89</ele>
        <time>2011-12-11T08:54:43Z</time>
      </trkpt>
      <trkpt lat="46.99986" lon="-1.06507">
        <ele>89</ele>
        <time>2011-12-11T08:54:45Z</time>
      </trkpt>
      <trkpt lat="46.99986" lon="-1.06509">
        <ele>89</ele>
        <time>2011-12-11T08:54:46Z</time>
      </trkpt>
      <trkpt lat="46.99985" lon="-1.0651">
        <ele>89</ele>
        <time>2011-12-11T08:54:47Z</time>
      </trkpt>
      <trkpt lat="46.99985" lon="-1.06512">
        <ele>89</ele>
        <time>2011-12-11T08:54:47Z</time>
      </trkpt>
      <trkpt lat="46.99984" lon="-1.06514">
        <ele>89</ele>
        <time>2011-12-11T08:54:49Z</time>
      </trkpt>
      <trkpt lat="46.99984" lon="-1.06515">
        <ele>89</ele>
        <time>2011-12-11T08:54:50Z</time>
      </trkpt>
      <trkpt lat="46.99984" lon="-1.06517">
        <ele>89</ele>
        <time>2011-12-11T08:54:51Z</time>
      </trkpt>
      <trkpt lat="46.99983" lon="-1.06519">
        <ele>89</ele>
        <time>2011-12-11T08:54:51Z</time>
      </trkpt>
      <trkpt lat="46.99983" lon="-1.06521">
        <ele>89</ele>
        <time>2011-12-11T08:54:53Z</time>
      </trkpt>
      <trkpt lat="46.99982" lon="-1.06523">
        <ele>89</ele>
        <time>2011-12-11T08:54:53Z</time>
      </trkpt>
      <trkpt lat="46.99982" lon="-1.06525">
        <ele>89</ele>
        <time>2011-12-11T08:54:54Z</time>
      </trkpt>
      <trkpt lat="46.99981" lon="-1.06527">
        <ele>89</ele>
        <time>2011-12-11T08:54:56Z</time>
      </trkpt>
      <trkpt lat="46.99981" lon="-1.06529">
        <ele>89</ele>
        <time>2011-12-11T08:54:57Z</time>
      </trkpt>
      <trkpt lat="46.9998" lon="-1.0653">
        <ele>89</ele>
        <time>2011-12-11T08:54:58Z</time>
      </trkpt>
      <trkpt lat="46.9998" lon="-1.06532">
        <ele>89</ele>
        <time>2011-12-11T08:54:58Z</time>
      </trkpt>
      <trkpt lat="46.99979" lon="-1.06534">
        <ele>89</ele>
        <time>2011-12-11T08:55:00Z</time>
      </trkpt>
      <trkpt lat="46.99979" lon="-1.06535">
        <ele>89</ele>
        <time>2011-12-11T08:55:00Z</time>
      </trkpt>
      <trkpt lat="46.99978" lon="-1.06537">
        <ele>89</ele>
        <time>2011-12-11T08:55:01Z</time>
      </trkpt>
      <trkpt lat="46.99978" lon="-1.06539">
        <ele>89</ele>
        <time>2011-12-11T08:55:03Z</time>
      </trkpt>
      <trkpt lat="46.99977" lon="-1.06541">
        <ele>89</ele>
        <time>2011-12-11T08:55:03Z</time>
      </trkpt>
      <trkpt lat="46.99976" lon="-1.06542">
        <ele>89</ele>
        <time>2011-12-11T08:55:05Z</time>
      </trkpt>
      <trkpt lat="46.99976" lon="-1.06544">
        <ele>89</ele>
        <time>2011-12-11T08:55:06Z</time>
      </trkpt>
      <trkpt lat="46.99975" lon="-1.06546">
        <ele>89</ele>
        <time>2011-12-11T08:55:07Z</time>
      </trkpt>
      <trkpt lat="46.99974" lon="-1.06549">
        <ele>89</ele>
        <time>2011-12-11T08:55:09Z</time>
      </trkpt>
      <trkpt lat="46.99973" lon="-1.0655">
        <ele>89</ele>
        <time>2011-12-11T08:55:10Z</time>
      </trkpt>
      <trkpt lat="46.99972" lon="-1.06553">
        <ele>89</ele>
        <time>2011-12-11T08:55:11Z</time>
      </trkpt>
      <trkpt lat="46.99971" lon="-1.06556">
        <ele>89</ele>
        <time>2011-12-11T08:55:13Z</time>
      </trkpt>
      <trkpt lat="46.9997" lon="-1.06558">
        <ele>89</ele>
        <time>2011-12-11T08:55:14Z</time>
      </trkpt>
      <trkpt lat="46.99969" lon="-1.06561">
        <ele>89</ele>
        <time>2011-12-11T08:55:16Z</time>
      </trkpt>
      <trkpt lat="46.99968" lon="-1.06562">
        <ele>89</ele>
        <time>2011-12-11T08:55:17Z</time>
      </trkpt>
      <trkpt lat="46.99967" lon="-1.06564">
        <ele>89</ele>
        <time>2011-12-11T08:55:18Z</time>
      </trkpt>
      <trkpt lat="46.99967" lon="-1.06566">
        <ele>89</ele>
        <time>2011-12-11T08:55:20Z</time>
      </trkpt>
      <trkpt lat="46.99965" lon="-1.06569">
        <ele>89</ele>
        <time>2011-12-11T08:55:22Z</time>
      </trkpt>
      <trkpt lat="46.99964" lon="-1.0657">
        <ele>89</ele>
        <time>2011-12-11T08:55:23Z</time>
      </trkpt>
      <trkpt lat="46.99963" lon="-1.06573">
        <ele>89</ele>
        <time>2011-12-11T08:55:24Z</time>
      </trkpt>
      <trkpt lat="46.99961" lon="-1.06574">
        <ele>89</ele>
        <time>2011-12-11T08:55:25Z</time>
      </trkpt>
      <trkpt lat="46.99961" lon="-1.06576">
        <ele>89</ele>
        <time>2011-12-11T08:55:27Z</time>
      </trkpt>
      <trkpt lat="46.99959" lon="-1.06578">
        <ele>89</ele>
        <time>2011-12-11T08:55:29Z</time>
      </trkpt>
      <trkpt lat="46.99958" lon="-1.0658">
        <ele>89</ele>
        <time>2011-12-11T08:55:30Z</time>
      </trkpt>
      <trkpt lat="46.99956" lon="-1.06583">
        <ele>89</ele>
        <time>2011-12-11T08:55:33Z</time>
      </trkpt>
      <trkpt lat="46.99955" lon="-1.06585">
        <ele>89</ele>
        <time>2011-12-11T08:55:34Z</time>
      </trkpt>
      <trkpt lat="46.99954" lon="-1.06587">
        <ele>89</ele>
        <time>2011-12-11T08:55:35Z</time>
      </trkpt>
      <trkpt lat="46.99953" lon="-1.06589">
        <ele>89</ele>
        <time>2011-12-11T08:55:36Z</time>
      </trkpt>
      <trkpt lat="46.99951" lon="-1.06591">
        <ele>89</ele>
        <time>2011-12-11T08:55:39Z</time>
      </trkpt>
      <trkpt lat="46.9995" lon="-1.06594">
        <ele>89</ele>
        <time>2011-12-11T08:55:41Z</time>
      </trkpt>
      <trkpt lat="46.99948" lon="-1.06596">
        <ele>89</ele>
        <time>2011-12-11T08:55:43Z</time>
      </trkpt>
      <trkpt lat="46.99947" lon="-1.06598">
        <ele>89</ele>
        <time>2011-12-11T08:55:45Z</time>
      </trkpt>
      <trkpt lat="46.99945" lon="-1.066">
        <ele>89</ele>
        <time>2011-12-11T08:55:46Z</time>
      </trkpt>
      <trkpt lat="46.99944" lon="-1.06602">
        <ele>89</ele>
        <time>2011-12-11T08:55:48Z</time>
      </trkpt>
      <trkpt lat="46.99944" lon="-1.06603">
        <ele>89</ele>
        <time>2011-12-11T08:55:48Z</time>
      </trkpt>
      <trkpt lat="46.99943" lon="-1.06605">
        <ele>89</ele>
        <time>2011-12-11T08:55:49Z</time>
      </trkpt>
      <trkpt lat="46.99942" lon="-1.06607">
        <ele>89</ele>
        <time>2011-12-11T08:55:51Z</time>
      </trkpt>
      <trkpt lat="46.99941" lon="-1.06608">
        <ele>89</ele>
        <time>2011-12-11T08:55:51Z</time>
      </trkpt>
      <trkpt lat="46.9994" lon="-1.0661">
        <ele>89</ele>
        <time>2011-12-11T08:55:53Z</time>
      </trkpt>
      <trkpt lat="46.99939" lon="-1.06611">
        <ele>89</ele>
        <time>2011-12-11T08:55:54Z</time>
      </trkpt>
      <trkpt lat="46.99937" lon="-1.06614">
        <ele>89</ele>
        <time>2011-12-11T08:55:55Z</time>
      </trkpt>
      <trkpt lat="46.99937" lon="-1.06615">
        <ele>89</ele>
        <time>2011-12-11T08:55:57Z</time>
      </trkpt>
      <trkpt lat="46.99936" lon="-1.06616">
        <ele>89</ele>
        <time>2011-12-11T08:55:58Z</time>
      </trkpt>
      <trkpt lat="46.99934" lon="-1.06619">
        <ele>89</ele>
        <time>2011-12-11T08:56:00Z</time>
      </trkpt>
      <trkpt lat="46.99932" lon="-1.06622">
        <ele>89</ele>
        <time>2011-12-11T08:56:02Z</time>
      </trkpt>
      <trkpt lat="46.99931" lon="-1.06623">
        <ele>89</ele>
        <time>2011-12-11T08:56:03Z</time>
      </trkpt>
      <trkpt lat="46.9993" lon="-1.06626">
        <ele>89</ele>
        <time>2011-12-11T08:56:05Z</time>
      </trkpt>
      <trkpt lat="46.99929" lon="-1.06627">
        <ele>89</ele>
        <time>2011-12-11T08:56:06Z</time>
      </trkpt>
      <trkpt lat="46.99927" lon="-1.0663">
        <ele>89</ele>
        <time>2011-12-11T08:56:07Z</time>
      </trkpt>
      <trkpt lat="46.99926" lon="-1.06632">
        <ele>89</ele>
        <time>2011-12-11T08:56:08Z</time>
      </trkpt>
      <trkpt lat="46.99926" lon="-1.06633">
        <ele>89</ele>
        <time>2011-12-11T08:56:09Z</time>
      </trkpt>
      <trkpt lat="46.99924" lon="-1.06636">
        <ele>89</ele>
        <time>2011-12-11T08:56:11Z</time>
      </trkpt>
      <trkpt lat="46.99923" lon="-1.06638">
        <ele>89</ele>
        <time>2011-12-11T08:56:14Z</time>
      </trkpt>
      <trkpt lat="46.99922" lon="-1.06641">
        <ele>89</ele>
        <time>2011-12-11T08:56:16Z</time>
      </trkpt>
      <trkpt lat="46.99921" lon="-1.06642">
        <ele>89</ele>
        <time>2011-12-11T08:56:17Z</time>
      </trkpt>
      <trkpt lat="46.9992" lon="-1.06645">
        <ele>89</ele>
        <time>2011-12-11T08:56:18Z</time>
      </trkpt>
      <trkpt lat="46.99919" lon="-1.06647">
        <ele>89</ele>
        <time>2011-12-11T08:56:19Z</time>
      </trkpt>
      <trkpt lat="46.99918" lon="-1.06648">
        <ele>89</ele>
        <time>2011-12-11T08:56:20Z</time>
      </trkpt>
      <trkpt lat="46.99917" lon="-1.0665">
        <ele>89</ele>
        <time>2011-12-11T08:56:21Z</time>
      </trkpt>
      <trkpt lat="46.99916" lon="-1.06653">
        <ele>89</ele>
        <time>2011-12-11T08:56:23Z</time>
      </trkpt>
      <trkpt lat="46.99915" lon="-1.06654">
        <ele>89</ele>
        <time>2011-12-11T08:56:25Z</time>
      </trkpt>
      <trkpt lat="46.99914" lon="-1.06656">
        <ele>89</ele>
        <time>2011-12-11T08:56:26Z</time>
      </trkpt>
      <trkpt lat="46.99913" lon="-1.06658">
        <ele>89</ele>
        <time>2011-12-11T08:56:27Z</time>
      </trkpt>
      <trkpt lat="46.99912" lon="-1.06659">
        <ele>89</ele>
        <time>2011-12-11T08:56:27Z</time>
      </trkpt>
      <trkpt lat="46.99911" lon="-1.06661">
        <ele>89</ele>
        <time>2011-12-11T08:56:29Z</time>
      </trkpt>
      <trkpt lat="46.99911" lon="-1.06662">
        <ele>89</ele>
        <time>2011-12-11T08:56:30Z</time>
      </trkpt>
      <trkpt lat="46.9991" lon="-1.06664">
        <ele>89</ele>
        <time>2011-12-11T08:56:31Z</time>
      </trkpt>
      <trkpt lat="46.9991" lon="-1.06666">
        <ele>89</ele>
        <time>2011-12-11T08:56:31Z</time>
      </trkpt>
      <trkpt lat="46.99908" lon="-1.06668">
        <ele>89</ele>
        <time>2011-12-11T08:56:34Z</time>
      </trkpt>
      <trkpt lat="46.99908" lon="-1.0667">
        <ele>89</ele>
        <time>2011-12-11T08:56:35Z</time>
      </trkpt>
      <trkpt lat="46.99907" lon="-1.06672">
        <ele>89</ele>
        <time>2011-12-11T08:56:37Z</time>
      </trkpt>
      <trkpt lat="46.99906" lon="-1.06675">
        <ele>89</ele>
        <time>2011-12-11T08:56:38Z</time>
      </trkpt>
      <trkpt lat="46.99905" lon="-1.06677">
        <ele>89</ele>
        <time>2011-12-11T08:56:40Z</time>
      </trkpt>
      <trkpt lat="46.99904" lon="-1.0668">
        <ele>89</ele>
        <time>2011-12-11T08:56:42Z</time>
      </trkpt>
      <trkpt lat="46.99903" lon="-1.06682">
        <ele>89</ele>
        <time>2011-12-11T08:56:43Z</time>
      </trkpt>
      <trkpt lat="46.99902" lon="-1.06684">
        <ele>89</ele>
        <time>2011-12-11T08:56:45Z</time>
      </trkpt>
      <trkpt lat="46.99902" lon="-1.06685">
        <ele>89</ele>
        <time>2011-12-11T08:56:46Z</time>
      </trkpt>
      <trkpt lat="46.99901" lon="-1.06687">
        <ele>89</ele>
        <time>2011-12-11T08:56:46Z</time>
      </trkpt>
      <trkpt lat="46.999" lon="-1.06688">
        <ele>89</ele>
        <time>2011-12-11T08:56:48Z</time>
      </trkpt>
      <trkpt lat="46.999" lon="-1.0669">
        <ele>89</ele>
        <time>2011-12-11T08:56:48Z</time>
      </trkpt>
      <trkpt lat="46.99899" lon="-1.06691">
        <ele>89</ele>
        <time>2011-12-11T08:56:49Z</time>
      </trkpt>
      <trkpt lat="46.99899" lon="-1.06693">
        <ele>89</ele>
        <time>2011-12-11T08:56:51Z</time>
      </trkpt>
      <trkpt lat="46.99899" lon="-1.06695">
        <ele>89</ele>
        <time>2011-12-11T08:56:51Z</time>
      </trkpt>
      <trkpt lat="46.99898" lon="-1.06696">
        <ele>89</ele>
        <time>2011-12-11T08:56:53Z</time>
      </trkpt>
      <trkpt lat="46.99898" lon="-1.06698">
        <ele>89</ele>
        <time>2011-12-11T08:56:53Z</time>
      </trkpt>
      <trkpt lat="46.99898" lon="-1.067">
        <ele>89</ele>
        <time>2011-12-11T08:56:55Z</time>
      </trkpt>
      <trkpt lat="46.99898" lon="-1.06702">
        <ele>89</ele>
        <time>2011-12-11T08:56:55Z</time>
      </trkpt>
      <trkpt lat="46.99897" lon="-1.06703">
        <ele>89</ele>
        <time>2011-12-11T08:56:56Z</time>
      </trkpt>
      <trkpt lat="46.99897" lon="-1.06705">
        <ele>89</ele>
        <time>2011-12-11T08:56:57Z</time>
      </trkpt>
      <trkpt lat="46.99897" lon="-1.06707">
        <ele>89</ele>
        <time>2011-12-11T08:56:58Z</time>
      </trkpt>
      <trkpt lat="46.99896" lon="-1.06708">
        <ele>89</ele>
        <time>2011-12-11T08:56:59Z</time>
      </trkpt>
      <trkpt lat="46.99896" lon="-1.0671">
        <ele>89</ele>
        <time>2011-12-11T08:57:01Z</time>
      </trkpt>
      <trkpt lat="46.99896" lon="-1.06711">
        <ele>89</ele>
        <time>2011-12-11T08:57:01Z</time>
      </trkpt>
      <trkpt lat="46.99896" lon="-1.06713">
        <ele>88</ele>
        <time>2011-12-11T08:57:03Z</time>
      </trkpt>
      <trkpt lat="46.99896" lon="-1.06714">
        <ele>88</ele>
        <time>2011-12-11T08:57:03Z</time>
      </trkpt>
      <trkpt lat="46.99895" lon="-1.06716">
        <ele>88</ele>
        <time>2011-12-11T08:57:05Z</time>
      </trkpt>
      <trkpt lat="46.99895" lon="-1.06718">
        <ele>88</ele>
        <time>2011-12-11T08:57:06Z</time>
      </trkpt>
      <trkpt lat="46.99895" lon="-1.06719">
        <ele>88</ele>
        <time>2011-12-11T08:57:06Z</time>
      </trkpt>
      <trkpt lat="46.99895" lon="-1.06721">
        <ele>88</ele>
        <time>2011-12-11T08:57:07Z</time>
      </trkpt>
      <trkpt lat="46.99895" lon="-1.06724">
        <ele>87</ele>
        <time>2011-12-11T08:57:09Z</time>
      </trkpt>
      <trkpt lat="46.99895" lon="-1.06725">
        <ele>87</ele>
        <time>2011-12-11T08:57:10Z</time>
      </trkpt>
      <trkpt lat="46.99895" lon="-1.06727">
        <ele>87</ele>
        <time>2011-12-11T08:57:11Z</time>
      </trkpt>
      <trkpt lat="46.99895" lon="-1.06729">
        <ele>87</ele>
        <time>2011-12-11T08:57:12Z</time>
      </trkpt>
      <trkpt lat="46.99894" lon="-1.06731">
        <ele>87</ele>
        <time>2011-12-11T08:57:14Z</time>
      </trkpt>
      <trkpt lat="46.99894" lon="-1.06732">
        <ele>87</ele>
        <time>2011-12-11T08:57:15Z</time>
      </trkpt>
      <trkpt lat="46.99894" lon="-1.06734">
        <ele>87</ele>
        <time>2011-12-11T08:57:15Z</time>
      </trkpt>
      <trkpt lat="46.99894" lon="-1.06736">
        <ele>87</ele>
        <time>2011-12-11T08:57:16Z</time>
      </trkpt>
      <trkpt lat="46.99894" lon="-1.06738">
        <ele>87</ele>
        <time>2011-12-11T08:57:17Z</time>
      </trkpt>
      <trkpt lat="46.99894" lon="-1.0674">
        <ele>87</ele>
        <time>2011-12-11T08:57:18Z</time>
      </trkpt>
      <trkpt lat="46.99894" lon="-1.06742">
        <ele>87</ele>
        <time>2011-12-11T08:57:19Z</time>
      </trkpt>
      <trkpt lat="46.99893" lon="-1.06744">
        <ele>87</ele>
        <time>2011-12-11T08:57:21Z</time>
      </trkpt>
      <trkpt lat="46.99893" lon="-1.06745">
        <ele>87</ele>
        <time>2011-12-11T08:57:22Z</time>
      </trkpt>
      <trkpt lat="46.99893" lon="-1.06748">
        <ele>87</ele>
        <time>2011-12-11T08:57:23Z</time>
      </trkpt>
      <trkpt lat="46.99893" lon="-1.0675">
        <ele>87</ele>
        <time>2011-12-11T08:57:25Z</time>
      </trkpt>
      <trkpt lat="46.99892" lon="-1.06752">
        <ele>87</ele>
        <time>2011-12-11T08:57:26Z</time>
      </trkpt>
      <trkpt lat="46.99892" lon="-1.06753">
        <ele>87</ele>
        <time>2011-12-11T08:57:27Z</time>
      </trkpt>
      <trkpt lat="46.99892" lon="-1.06755">
        <ele>87</ele>
        <time>2011-12-11T08:57:27Z</time>
      </trkpt>
      <trkpt lat="46.99892" lon="-1.06757">
        <ele>87</ele>
        <time>2011-12-11T08:57:28Z</time>
      </trkpt>
      <trkpt lat="46.99892" lon="-1.06759">
        <ele>87</ele>
        <time>2011-12-11T08:57:30Z</time>
      </trkpt>
      <trkpt lat="46.99891" lon="-1.06761">
        <ele>87</ele>
        <time>2011-12-11T08:57:30Z</time>
      </trkpt>
      <trkpt lat="46.99891" lon="-1.06763">
        <ele>87</ele>
        <time>2011-12-11T08:57:31Z</time>
      </trkpt>
      <trkpt lat="46.99891" lon="-1.06764">
        <ele>87</ele>
        <time>2011-12-11T08:57:33Z</time>
      </trkpt>
      <trkpt lat="46.99891" lon="-1.06766">
        <ele>87</ele>
        <time>2011-12-11T08:57:34Z</time>
      </trkpt>
      <trkpt lat="46.99891" lon="-1.06768">
        <ele>87</ele>
        <time>2011-12-11T08:57:35Z</time>
      </trkpt>
      <trkpt lat="46.99891" lon="-1.0677">
        <ele>87</ele>
        <time>2011-12-11T08:57:37Z</time>
      </trkpt>
      <trkpt lat="46.9989" lon="-1.06771">
        <ele>87</ele>
        <time>2011-12-11T08:57:38Z</time>
      </trkpt>
      <trkpt lat="46.9989" lon="-1.06773">
        <ele>87</ele>
        <time>2011-12-11T08:57:38Z</time>
      </trkpt>
      <trkpt lat="46.99889" lon="-1.06775">
        <ele>86</ele>
        <time>2011-12-11T08:57:39Z</time>
      </trkpt>
      <trkpt lat="46.99889" lon="-1.06777">
        <ele>86</ele>
        <time>2011-12-11T08:57:40Z</time>
      </trkpt>
      <trkpt lat="46.99888" lon="-1.06779">
        <ele>86</ele>
        <time>2011-12-11T08:57:41Z</time>
      </trkpt>
      <trkpt lat="46.99887" lon="-1.06781">
        <ele>86</ele>
        <time>2011-12-11T08:57:42Z</time>
      </trkpt>
      <trkpt lat="46.99887" lon="-1.06783">
        <ele>86</ele>
        <time>2011-12-11T08:57:43Z</time>
      </trkpt>
      <trkpt lat="46.99887" lon="-1.06785">
        <ele>85</ele>
        <time>2011-12-11T08:57:45Z</time>
      </trkpt>
      <trkpt lat="46.99887" lon="-1.06787">
        <ele>85</ele>
        <time>2011-12-11T08:57:46Z</time>
      </trkpt>
      <trkpt lat="46.99887" lon="-1.06788">
        <ele>85</ele>
        <time>2011-12-11T08:57:46Z</time>
      </trkpt>
      <trkpt lat="46.99887" lon="-1.06792">
        <ele>85</ele>
        <time>2011-12-11T08:57:49Z</time>
      </trkpt>
      <trkpt lat="46.99887" lon="-1.06794">
        <ele>85</ele>
        <time>2011-12-11T08:57:50Z</time>
      </trkpt>
      <trkpt lat="46.99887" lon="-1.06796">
        <ele>85</ele>
        <time>2011-12-11T08:57:50Z</time>
      </trkpt>
      <trkpt lat="46.99887" lon="-1.06798">
        <ele>85</ele>
        <time>2011-12-11T08:57:52Z</time>
      </trkpt>
      <trkpt lat="46.99887" lon="-1.06799">
        <ele>85</ele>
        <time>2011-12-11T08:57:52Z</time>
      </trkpt>
      <trkpt lat="46.99887" lon="-1.06801">
        <ele>85</ele>
        <time>2011-12-11T08:57:53Z</time>
      </trkpt>
      <trkpt lat="46.99887" lon="-1.06804">
        <ele>85</ele>
        <time>2011-12-11T08:57:56Z</time>
      </trkpt>
      <trkpt lat="46.99887" lon="-1.06806">
        <ele>85</ele>
        <time>2011-12-11T08:57:57Z</time>
      </trkpt>
      <trkpt lat="46.99886" lon="-1.06807">
        <ele>85</ele>
        <time>2011-12-11T08:57:58Z</time>
      </trkpt>
      <trkpt lat="46.99886" lon="-1.0681">
        <ele>85</ele>
        <time>2011-12-11T08:57:59Z</time>
      </trkpt>
      <trkpt lat="46.99886" lon="-1.06812">
        <ele>85</ele>
        <time>2011-12-11T08:58:01Z</time>
      </trkpt>
      <trkpt lat="46.99886" lon="-1.06814">
        <ele>85</ele>
        <time>2011-12-11T08:58:01Z</time>
      </trkpt>
      <trkpt lat="46.99886" lon="-1.06816">
        <ele>85</ele>
        <time>2011-12-11T08:58:03Z</time>
      </trkpt>
      <trkpt lat="46.99885" lon="-1.06818">
        <ele>85</ele>
        <time>2011-12-11T08:58:03Z</time>
      </trkpt>
      <trkpt lat="46.99885" lon="-1.0682">
        <ele>85</ele>
        <time>2011-12-11T08:58:04Z</time>
      </trkpt>
      <trkpt lat="46.99884" lon="-1.06822">
        <ele>85</ele>
        <time>2011-12-11T08:58:06Z</time>
      </trkpt>
      <trkpt lat="46.99884" lon="-1.06824">
        <ele>85</ele>
        <time>2011-12-11T08:58:06Z</time>
      </trkpt>
      <trkpt lat="46.99884" lon="-1.06826">
        <ele>85</ele>
        <time>2011-12-11T08:58:09Z</time>
      </trkpt>
      <trkpt lat="46.99883" lon="-1.06829">
        <ele>85</ele>
        <time>2011-12-11T08:58:11Z</time>
      </trkpt>
      <trkpt lat="46.99883" lon="-1.0683">
        <ele>85</ele>
        <time>2011-12-11T08:58:11Z</time>
      </trkpt>
      <trkpt lat="46.99882" lon="-1.06833">
        <ele>85</ele>
        <time>2011-12-11T08:58:13Z</time>
      </trkpt>
      <trkpt lat="46.99881" lon="-1.06834">
        <ele>85</ele>
        <time>2011-12-11T08:58:16Z</time>
      </trkpt>
      <trkpt lat="46.99879" lon="-1.06837">
        <ele>85</ele>
        <time>2011-12-11T08:58:18Z</time>
      </trkpt>
      <trkpt lat="46.99879" lon="-1.06838">
        <ele>85</ele>
        <time>2011-12-11T08:58:18Z</time>
      </trkpt>
      <trkpt lat="46.99878" lon="-1.0684">
        <ele>85</ele>
        <time>2011-12-11T08:58:19Z</time>
      </trkpt>
      <trkpt lat="46.99877" lon="-1.06843">
        <ele>85</ele>
        <time>2011-12-11T08:58:22Z</time>
      </trkpt>
      <trkpt lat="46.99876" lon="-1.06844">
        <ele>85</ele>
        <time>2011-12-11T08:58:24Z</time>
      </trkpt>
      <trkpt lat="46.99875" lon="-1.06846">
        <ele>85</ele>
        <time>2011-12-11T08:58:26Z</time>
      </trkpt>
      <trkpt lat="46.99872" lon="-1.06849">
        <ele>85</ele>
        <time>2011-12-11T08:58:27Z</time>
      </trkpt>
      <trkpt lat="46.99871" lon="-1.06849">
        <ele>85</ele>
        <time>2011-12-11T08:58:29Z</time>
      </trkpt>
      <trkpt lat="46.9987" lon="-1.0685">
        <ele>85</ele>
        <time>2011-12-11T08:58:31Z</time>
      </trkpt>
      <trkpt lat="46.99868" lon="-1.06851">
        <ele>85</ele>
        <time>2011-12-11T08:58:33Z</time>
      </trkpt>
      <trkpt lat="46.99866" lon="-1.06852">
        <ele>84</ele>
        <time>2011-12-11T08:58:36Z</time>
      </trkpt>
      <trkpt lat="46.99864" lon="-1.06854">
        <ele>84</ele>
        <time>2011-12-11T08:58:37Z</time>
      </trkpt>
      <trkpt lat="46.99862" lon="-1.06855">
        <ele>84</ele>
        <time>2011-12-11T08:58:40Z</time>
      </trkpt>
      <trkpt lat="46.9986" lon="-1.06857">
        <ele>84</ele>
        <time>2011-12-11T08:58:41Z</time>
      </trkpt>
      <trkpt lat="46.99858" lon="-1.06858">
        <ele>83</ele>
        <time>2011-12-11T08:58:43Z</time>
      </trkpt>
      <trkpt lat="46.99857" lon="-1.06859">
        <ele>83</ele>
        <time>2011-12-11T08:58:45Z</time>
      </trkpt>
      <trkpt lat="46.99856" lon="-1.0686">
        <ele>83</ele>
        <time>2011-12-11T08:58:47Z</time>
      </trkpt>
      <trkpt lat="46.99854" lon="-1.06863">
        <ele>83</ele>
        <time>2011-12-11T08:58:48Z</time>
      </trkpt>
      <trkpt lat="46.99853" lon="-1.06865">
        <ele>82</ele>
        <time>2011-12-11T08:58:50Z</time>
      </trkpt>
      <trkpt lat="46.99852" lon="-1.06867">
        <ele>82</ele>
        <time>2011-12-11T08:58:51Z</time>
      </trkpt>
      <trkpt lat="46.99851" lon="-1.06869">
        <ele>82</ele>
        <time>2011-12-11T08:58:54Z</time>
      </trkpt>
      <trkpt lat="46.9985" lon="-1.06872">
        <ele>82</ele>
        <time>2011-12-11T08:58:55Z</time>
      </trkpt>
      <trkpt lat="46.99849" lon="-1.06875">
        <ele>82</ele>
        <time>2011-12-11T08:58:58Z</time>
      </trkpt>
      <trkpt lat="46.99848" lon="-1.06876">
        <ele>82</ele>
        <time>2011-12-11T08:58:59Z</time>
      </trkpt>
      <trkpt lat="46.99848" lon="-1.06878">
        <ele>82</ele>
        <time>2011-12-11T08:58:59Z</time>
      </trkpt>
      <trkpt lat="46.99847" lon="-1.06879">
        <ele>82</ele>
        <time>2011-12-11T08:59:01Z</time>
      </trkpt>
      <trkpt lat="46.99847" lon="-1.06882">
        <ele>82</ele>
        <time>2011-12-11T08:59:04Z</time>
      </trkpt>
      <trkpt lat="46.99847" lon="-1.06885">
        <ele>82</ele>
        <time>2011-12-11T08:59:05Z</time>
      </trkpt>
      <trkpt lat="46.99846" lon="-1.06888">
        <ele>82</ele>
        <time>2011-12-11T08:59:07Z</time>
      </trkpt>
      <trkpt lat="46.99846" lon="-1.0689">
        <ele>82</ele>
        <time>2011-12-11T08:59:10Z</time>
      </trkpt>
      <trkpt lat="46.99846" lon="-1.06892">
        <ele>82</ele>
        <time>2011-12-11T08:59:11Z</time>
      </trkpt>
      <trkpt lat="46.99846" lon="-1.06894">
        <ele>82</ele>
        <time>2011-12-11T08:59:13Z</time>
      </trkpt>
      <trkpt lat="46.99847" lon="-1.06896">
        <ele>82</ele>
        <time>2011-12-11T08:59:15Z</time>
      </trkpt>
      <trkpt lat="46.99847" lon="-1.06898">
        <ele>82</ele>
        <time>2011-12-11T08:59:19Z</time>
      </trkpt>
      <trkpt lat="46.99847" lon="-1.06899">
        <ele>82</ele>
        <time>2011-12-11T08:59:22Z</time>
      </trkpt>
      <trkpt lat="46.99847" lon="-1.06901">
        <ele>82</ele>
        <time>2011-12-11T08:59:24Z</time>
      </trkpt>
      <trkpt lat="46.99847" lon="-1.06902">
        <ele>82</ele>
        <time>2011-12-11T08:59:30Z</time>
      </trkpt>
      <trkpt lat="46.99847" lon="-1.06905">
        <ele>84</ele>
        <time>2011-12-11T08:59:43Z</time>
      </trkpt>
      <trkpt lat="46.99847" lon="-1.06906">
        <ele>84</ele>
        <time>2011-12-11T08:59:46Z</time>
      </trkpt>
      <trkpt lat="46.99846" lon="-1.06908">
        <ele>84</ele>
        <time>2011-12-11T08:59:48Z</time>
      </trkpt>
      <trkpt lat="46.99847" lon="-1.06906">
        <ele>84</ele>
        <time>2011-12-11T08:59:57Z</time>
      </trkpt>
      <trkpt lat="46.99847" lon="-1.06904">
        <ele>84</ele>
        <time>2011-12-11T09:00:03Z</time>
      </trkpt>
      <trkpt lat="46.99846" lon="-1.06903">
        <ele>84</ele>
        <time>2011-12-11T09:00:07Z</time>
      </trkpt>
      <trkpt lat="46.99847" lon="-1.06903">
        <ele>84</ele>
        <time>2011-12-11T09:00:10Z</time>
      </trkpt>
      <trkpt lat="46.99848" lon="-1.06902">
        <ele>84</ele>
        <time>2011-12-11T09:00:13Z</time>
      </trkpt>
      <trkpt lat="46.99847" lon="-1.069">
        <ele>85</ele>
        <time>2011-12-11T09:00:15Z</time>
      </trkpt>
      <trkpt lat="46.99847" lon="-1.06902">
        <ele>88</ele>
        <time>2011-12-11T09:00:21Z</time>
      </trkpt>
      <trkpt lat="46.99847" lon="-1.06903">
        <ele>88</ele>
        <time>2011-12-11T09:00:22Z</time>
      </trkpt>
      <trkpt lat="46.99846" lon="-1.06904">
        <ele>88</ele>
        <time>2011-12-11T09:00:30Z</time>
      </trkpt>
      <trkpt lat="46.99847" lon="-1.06905">
        <ele>88</ele>
        <time>2011-12-11T09:00:37Z</time>
      </trkpt>
      <trkpt lat="46.99846" lon="-1.06907">
        <ele>88</ele>
        <time>2011-12-11T09:00:44Z</time>
      </trkpt>
      <trkpt lat="46.99847" lon="-1.06907">
        <ele>88</ele>
        <time>2011-12-11T09:00:48Z</time>
      </trkpt>
      <trkpt lat="46.99849" lon="-1.06907">
        <ele>88</ele>
        <time>2011-12-11T09:00:50Z</time>
      </trkpt>
      <trkpt lat="46.99848" lon="-1.06908">
        <ele>88</ele>
        <time>2011-12-11T09:00:54Z</time>
      </trkpt>
      <trkpt lat="46.99848" lon="-1.0691">
        <ele>88</ele>
        <time>2011-12-11T09:00:59Z</time>
      </trkpt>
      <trkpt lat="46.99849" lon="-1.0691">
        <ele>88</ele>
        <time>2011-12-11T09:01:03Z</time>
      </trkpt>
      <trkpt lat="46.99848" lon="-1.06909">
        <ele>88</ele>
        <time>2011-12-11T09:01:09Z</time>
      </trkpt>
      <trkpt lat="46.99849" lon="-1.06908">
        <ele>88</ele>
        <time>2011-12-11T09:01:14Z</time>
      </trkpt>
      <trkpt lat="46.99851" lon="-1.06908">
        <ele>88</ele>
        <time>2011-12-11T09:01:26Z</time>
      </trkpt>
      <trkpt lat="46.9985" lon="-1.06906">
        <ele>88</ele>
        <time>2011-12-11T09:01:30Z</time>
      </trkpt>
      <trkpt lat="46.99851" lon="-1.06908">
        <ele>88</ele>
        <time>2011-12-11T09:01:33Z</time>
      </trkpt>
      <trkpt lat="46.99851" lon="-1.0691">
        <ele>88</ele>
        <time>2011-12-11T09:01:37Z</time>
      </trkpt>
      <trkpt lat="46.99852" lon="-1.0691">
        <ele>88</ele>
        <time>2011-12-11T09:01:39Z</time>
      </trkpt>
      <trkpt lat="46.99851" lon="-1.06908">
        <ele>89</ele>
        <time>2011-12-11T09:01:45Z</time>
      </trkpt>
      <trkpt lat="46.99853" lon="-1.06909">
        <ele>89</ele>
        <time>2011-12-11T09:01:48Z</time>
      </trkpt>
      <trkpt lat="46.99854" lon="-1.06909">
        <ele>89</ele>
        <time>2011-12-11T09:01:51Z</time>
      </trkpt>
      <trkpt lat="46.99852" lon="-1.06911">
        <ele>89</ele>
        <time>2011-12-11T09:01:55Z</time>
      </trkpt>
      <trkpt lat="46.99852" lon="-1.06909">
        <ele>89</ele>
        <time>2011-12-11T09:02:01Z</time>
      </trkpt>
      <trkpt lat="46.99851" lon="-1.0691">
        <ele>89</ele>
        <time>2011-12-11T09:02:08Z</time>
      </trkpt>
      <trkpt lat="46.99849" lon="-1.06911">
        <ele>87</ele>
        <time>2011-12-11T09:02:22Z</time>
      </trkpt>
      <trkpt lat="46.9985" lon="-1.06909">
        <ele>87</ele>
        <time>2011-12-11T09:02:33Z</time>
      </trkpt>
      <trkpt lat="46.99851" lon="-1.06907">
        <ele>87</ele>
        <time>2011-12-11T09:02:45Z</time>
      </trkpt>
      <trkpt lat="46.99852" lon="-1.0691">
        <ele>87</ele>
        <time>2011-12-11T09:03:17Z</time>
      </trkpt>
      <trkpt lat="46.99851" lon="-1.06909">
        <ele>87</ele>
        <time>2011-12-11T09:03:27Z</time>
      </trkpt>
      <trkpt lat="46.9985" lon="-1.06909">
        <ele>87</ele>
        <time>2011-12-11T09:03:29Z</time>
      </trkpt>
      <trkpt lat="46.99852" lon="-1.06909">
        <ele>87</ele>
        <time>2011-12-11T09:03:34Z</time>
      </trkpt>
      <trkpt lat="46.9985" lon="-1.06911">
        <ele>87</ele>
        <time>2011-12-11T09:03:40Z</time>
      </trkpt>
      <trkpt lat="46.99849" lon="-1.06912">
        <ele>87</ele>
        <time>2011-12-11T09:03:57Z</time>
      </trkpt>
      <trkpt lat="46.99848" lon="-1.06912">
        <ele>87</ele>
        <time>2011-12-11T09:04:01Z</time>
      </trkpt>
      <trkpt lat="46.99849" lon="-1.06913">
        <ele>87</ele>
        <time>2011-12-11T09:04:15Z</time>
      </trkpt>
      <trkpt lat="46.99848" lon="-1.06912">
        <ele>87</ele>
        <time>2011-12-11T09:04:20Z</time>
      </trkpt>
      <trkpt lat="46.99847" lon="-1.0691">
        <ele>87</ele>
        <time>2011-12-11T09:04:38Z</time>
      </trkpt>
      <trkpt lat="46.99847" lon="-1.06909">
        <ele>87</ele>
        <time>2011-12-11T09:04:40Z</time>
      </trkpt>
      <trkpt lat="46.99847" lon="-1.06906">
        <ele>87</ele>
        <time>2011-12-11T09:04:45Z</time>
      </trkpt>
      <trkpt lat="46.99847" lon="-1.06905">
        <ele>87</ele>
        <time>2011-12-11T09:04:47Z</time>
      </trkpt>
      <trkpt lat="46.99846" lon="-1.06902">
        <ele>87</ele>
        <time>2011-12-11T09:04:48Z</time>
      </trkpt>
      <trkpt lat="46.99845" lon="-1.06902">
        <ele>87</ele>
        <time>2011-12-11T09:04:52Z</time>
      </trkpt>
      <trkpt lat="46.99844" lon="-1.06904">
        <ele>87</ele>
        <time>2011-12-11T09:04:55Z</time>
      </trkpt>
      <trkpt lat="46.99845" lon="-1.06905">
        <ele>87</ele>
        <time>2011-12-11T09:04:57Z</time>
      </trkpt>
      <trkpt lat="46.99847" lon="-1.06906">
        <ele>87</ele>
        <time>2011-12-11T09:04:58Z</time>
      </trkpt>
      <trkpt lat="46.99846" lon="-1.06908">
        <ele>87</ele>
        <time>2011-12-11T09:05:04Z</time>
      </trkpt>
      <trkpt lat="46.99848" lon="-1.06908">
        <ele>87</ele>
        <time>2011-12-11T09:05:07Z</time>
      </trkpt>
      <trkpt lat="46.99849" lon="-1.06907">
        <ele>87</ele>
        <time>2011-12-11T09:05:11Z</time>
      </trkpt>
      <trkpt lat="46.9985" lon="-1.06907">
        <ele>87</ele>
        <time>2011-12-11T09:05:18Z</time>
      </trkpt>
      <trkpt lat="46.99851" lon="-1.06907">
        <ele>87</ele>
        <time>2011-12-11T09:05:21Z</time>
      </trkpt>
      <trkpt lat="46.99852" lon="-1.06907">
        <ele>88</ele>
        <time>2011-12-11T09:05:24Z</time>
      </trkpt>
      <trkpt lat="46.99854" lon="-1.06907">
        <ele>89</ele>
        <time>2011-12-11T09:05:24Z</time>
      </trkpt>
      <trkpt lat="46.99854" lon="-1.06909">
        <ele>89</ele>
        <time>2011-12-11T09:05:29Z</time>
      </trkpt>
      <trkpt lat="46.99852" lon="-1.06908">
        <ele>89</ele>
        <time>2011-12-11T09:05:35Z</time>
      </trkpt>
      <trkpt lat="46.9985" lon="-1.06908">
        <ele>89</ele>
        <time>2011-12-11T09:05:37Z</time>
      </trkpt>
      <trkpt lat="46.99849" lon="-1.06907">
        <ele>89</ele>
        <time>2011-12-11T09:05:44Z</time>
      </trkpt>
      <trkpt lat="46.99848" lon="-1.06907">
        <ele>89</ele>
        <time>2011-12-11T09:05:56Z</time>
      </trkpt>
      <trkpt lat="46.99847" lon="-1.06906">
        <ele>88</ele>
        <time>2011-12-11T09:06:01Z</time>
      </trkpt>
      <trkpt lat="46.99847" lon="-1.06905">
        <ele>88</ele>
        <time>2011-12-11T09:06:16Z</time>
      </trkpt>
      <trkpt lat="46.99848" lon="-1.06903">
        <ele>88</ele>
        <time>2011-12-11T09:06:21Z</time>
      </trkpt>
      <trkpt lat="46.99847" lon="-1.06904">
        <ele>92</ele>
        <time>2011-12-11T09:06:40Z</time>
      </trkpt>
      <trkpt lat="46.99845" lon="-1.06905">
        <ele>92</ele>
        <time>2011-12-11T09:06:50Z</time>
      </trkpt>
      <trkpt lat="46.99844" lon="-1.06906">
        <ele>92</ele>
        <time>2011-12-11T09:06:51Z</time>
      </trkpt>
      <trkpt lat="46.99845" lon="-1.06907">
        <ele>92</ele>
        <time>2011-12-11T09:07:03Z</time>
      </trkpt>
      <trkpt lat="46.99846" lon="-1.06909">
        <ele>92</ele>
        <time>2011-12-11T09:07:09Z</time>
      </trkpt>
      <trkpt lat="46.99845" lon="-1.06907">
        <ele>92</ele>
        <time>2011-12-11T09:07:20Z</time>
      </trkpt>
      <trkpt lat="46.99844" lon="-1.06906">
        <ele>92</ele>
        <time>2011-12-11T09:07:29Z</time>
      </trkpt>
      <trkpt lat="46.99846" lon="-1.06906">
        <ele>92</ele>
        <time>2011-12-11T09:07:41Z</time>
      </trkpt>
      <trkpt lat="46.99847" lon="-1.06904">
        <ele>92</ele>
        <time>2011-12-11T09:07:48Z</time>
      </trkpt>
      <trkpt lat="46.99848" lon="-1.06904">
        <ele>93</ele>
        <time>2011-12-11T09:07:57Z</time>
      </trkpt>
      <trkpt lat="46.99847" lon="-1.06905">
        <ele>97</ele>
        <time>2011-12-11T09:08:04Z</time>
      </trkpt>
      <trkpt lat="46.99846" lon="-1.06907">
        <ele>98</ele>
        <time>2011-12-11T09:08:29Z</time>
      </trkpt>
      <trkpt lat="46.99845" lon="-1.06906">
        <ele>98</ele>
        <time>2011-12-11T09:08:35Z</time>
      </trkpt>
      <trkpt lat="46.99846" lon="-1.06906">
        <ele>92</ele>
        <time>2011-12-11T09:08:48Z</time>
      </trkpt>
      <trkpt lat="46.99846" lon="-1.06907">
        <ele>87</ele>
        <time>2011-12-11T09:08:53Z</time>
      </trkpt>
      <trkpt lat="46.99844" lon="-1.06908">
        <ele>85</ele>
        <time>2011-12-11T09:08:59Z</time>
      </trkpt>
      <trkpt lat="46.99846" lon="-1.06909">
        <ele>85</ele>
        <time>2011-12-11T09:09:15Z</time>
      </trkpt>
      <trkpt lat="46.99846" lon="-1.06907">
        <ele>85</ele>
        <time>2011-12-11T09:09:19Z</time>
      </trkpt>
      <trkpt lat="46.99846" lon="-1.06905">
        <ele>85</ele>
        <time>2011-12-11T09:09:21Z</time>
      </trkpt>
      <trkpt lat="46.99844" lon="-1.06906">
        <ele>85</ele>
        <time>2011-12-11T09:09:26Z</time>
      </trkpt>
      <trkpt lat="46.99842" lon="-1.06907">
        <ele>85</ele>
        <time>2011-12-11T09:09:27Z</time>
      </trkpt>
      <trkpt lat="46.99843" lon="-1.06907">
        <ele>85</ele>
        <time>2011-12-11T09:09:29Z</time>
      </trkpt>
      <trkpt lat="46.99844" lon="-1.06907">
        <ele>85</ele>
        <time>2011-12-11T09:09:31Z</time>
      </trkpt>
      <trkpt lat="46.99846" lon="-1.06907">
        <ele>85</ele>
        <time>2011-12-11T09:09:34Z</time>
      </trkpt>
      <trkpt lat="46.99847" lon="-1.06906">
        <ele>87</ele>
        <time>2011-12-11T09:09:41Z</time>
      </trkpt>
      <trkpt lat="46.99846" lon="-1.06907">
        <ele>87</ele>
        <time>2011-12-11T09:09:49Z</time>
      </trkpt>
      <trkpt lat="46.99846" lon="-1.06905">
        <ele>87</ele>
        <time>2011-12-11T09:09:57Z</time>
      </trkpt>
      <trkpt lat="46.99846" lon="-1.06904">
        <ele>87</ele>
        <time>2011-12-11T09:10:00Z</time>
      </trkpt>
      <trkpt lat="46.99844" lon="-1.06903">
        <ele>88</ele>
        <time>2011-12-11T09:10:07Z</time>
      </trkpt>
      <trkpt lat="46.99843" lon="-1.06902">
        <ele>90</ele>
        <time>2011-12-11T09:10:11Z</time>
      </trkpt>
      <trkpt lat="46.99844" lon="-1.06902">
        <ele>93</ele>
        <time>2011-12-11T09:10:20Z</time>
      </trkpt>
      <trkpt lat="46.99846" lon="-1.06902">
        <ele>94</ele>
        <time>2011-12-11T09:10:23Z</time>
      </trkpt>
      <trkpt lat="46.99845" lon="-1.06903">
        <ele>94</ele>
        <time>2011-12-11T09:10:27Z</time>
      </trkpt>
      <trkpt lat="46.99847" lon="-1.06904">
        <ele>94</ele>
        <time>2011-12-11T09:10:33Z</time>
      </trkpt>
      <trkpt lat="46.99846" lon="-1.06905">
        <ele>93</ele>
        <time>2011-12-11T09:10:51Z</time>
      </trkpt>
      <trkpt lat="46.99847" lon="-1.06906">
        <ele>93</ele>
        <time>2011-12-11T09:11:05Z</time>
      </trkpt>
      <trkpt lat="46.99846" lon="-1.06907">
        <ele>91</ele>
        <time>2011-12-11T09:11:21Z</time>
      </trkpt>
      <trkpt lat="46.99846" lon="-1.06905">
        <ele>88</ele>
        <time>2011-12-11T09:11:45Z</time>
      </trkpt>
      <trkpt lat="46.99847" lon="-1.06905">
        <ele>87</ele>
        <time>2011-12-11T09:11:54Z</time>
      </trkpt>
      <trkpt lat="46.99847" lon="-1.06906">
        <ele>87</ele>
        <time>2011-12-11T09:12:00Z</time>
      </trkpt>
      <trkpt lat="46.99848" lon="-1.06907">
        <ele>87</ele>
        <time>2011-12-11T09:12:05Z</time>
      </trkpt>
      <trkpt lat="46.99847" lon="-1.06906">
        <ele>87</ele>
        <time>2011-12-11T09:12:25Z</time>
      </trkpt>
      <trkpt lat="46.99845" lon="-1.06906">
        <ele>87</ele>
        <time>2011-12-11T09:12:28Z</time>
      </trkpt>
      <trkpt lat="46.99846" lon="-1.06906">
        <ele>87</ele>
        <time>2011-12-11T09:12:40Z</time>
      </trkpt>
      <trkpt lat="46.99847" lon="-1.06907">
        <ele>87</ele>
        <time>2011-12-11T09:12:53Z</time>
      </trkpt>
      <trkpt lat="46.99849" lon="-1.06906">
        <ele>87</ele>
        <time>2011-12-11T09:12:56Z</time>
      </trkpt>
      <trkpt lat="46.99848" lon="-1.06907">
        <ele>87</ele>
        <time>2011-12-11T09:13:03Z</time>
      </trkpt>
      <trkpt lat="46.99846" lon="-1.06908">
        <ele>87</ele>
        <time>2011-12-11T09:13:18Z</time>
      </trkpt>
      <trkpt lat="46.99847" lon="-1.06907">
        <ele>87</ele>
        <time>2011-12-11T09:13:23Z</time>
      </trkpt>
      <trkpt lat="46.99847" lon="-1.06908">
        <ele>87</ele>
        <time>2011-12-11T09:13:26Z</time>
      </trkpt>
      <trkpt lat="46.99846" lon="-1.06907">
        <ele>87</ele>
        <time>2011-12-11T09:13:29Z</time>
      </trkpt>
      <trkpt lat="46.99845" lon="-1.06906">
        <ele>88</ele>
        <time>2011-12-11T09:13:32Z</time>
      </trkpt>
      <trkpt lat="46.99844" lon="-1.06906">
        <ele>90</ele>
        <time>2011-12-11T09:13:34Z</time>
      </trkpt>
      <trkpt lat="46.99844" lon="-1.06905">
        <ele>96</ele>
        <time>2011-12-11T09:13:42Z</time>
      </trkpt>
      <trkpt lat="46.99845" lon="-1.06904">
        <ele>96</ele>
        <time>2011-12-11T09:13:45Z</time>
      </trkpt>
      <trkpt lat="46.99846" lon="-1.06905">
        <ele>96</ele>
        <time>2011-12-11T09:13:48Z</time>
      </trkpt>
      <trkpt lat="46.99844" lon="-1.06906">
        <ele>93</ele>
        <time>2011-12-11T09:14:05Z</time>
      </trkpt>
      <trkpt lat="46.99843" lon="-1.06907">
        <ele>92</ele>
        <time>2011-12-11T09:14:12Z</time>
      </trkpt>
      <trkpt lat="46.99844" lon="-1.06906">
        <ele>90</ele>
        <time>2011-12-11T09:14:31Z</time>
      </trkpt>
      <trkpt lat="46.99845" lon="-1.06904">
        <ele>90</ele>
        <time>2011-12-11T09:14:36Z</time>
      </trkpt>
      <trkpt lat="46.99847" lon="-1.06903">
        <ele>90</ele>
        <time>2011-12-11T09:14:38Z</time>
      </trkpt>
      <trkpt lat="46.99846" lon="-1.06902">
        <ele>90</ele>
        <time>2011-12-11T09:14:41Z</time>
      </trkpt>
      <trkpt lat="46.99845" lon="-1.06904">
        <ele>90</ele>
        <time>2011-12-11T09:14:45Z</time>
      </trkpt>
      <trkpt lat="46.99846" lon="-1.06904">
        <ele>90</ele>
        <time>2011-12-11T09:14:52Z</time>
      </trkpt>
      <trkpt lat="46.99847" lon="-1.06903">
        <ele>90</ele>
        <time>2011-12-11T09:14:54Z</time>
      </trkpt>
      <trkpt lat="46.99847" lon="-1.06905">
        <ele>90</ele>
        <time>2011-12-11T09:14:57Z</time>
      </trkpt>
      <trkpt lat="46.99846" lon="-1.06907">
        <ele>90</ele>
        <time>2011-12-11T09:15:02Z</time>
      </trkpt>
      <trkpt lat="46.99845" lon="-1.06908">
        <ele>90</ele>
        <time>2011-12-11T09:15:04Z</time>
      </trkpt>
      <trkpt lat="46.99844" lon="-1.06908">
        <ele>90</ele>
        <time>2011-12-11T09:15:07Z</time>
      </trkpt>
      <trkpt lat="46.99846" lon="-1.06907">
        <ele>88</ele>
        <time>2011-12-11T09:15:20Z</time>
      </trkpt>
      <trkpt lat="46.99847" lon="-1.06906">
        <ele>87</ele>
        <time>2011-12-11T09:15:29Z</time>
      </trkpt>
      <trkpt lat="46.99846" lon="-1.06904">
        <ele>87</ele>
        <time>2011-12-11T09:15:37Z</time>
      </trkpt>
      <trkpt lat="46.99845" lon="-1.06905">
        <ele>87</ele>
        <time>2011-12-11T09:15:48Z</time>
      </trkpt>
      <trkpt lat="46.99846" lon="-1.06905">
        <ele>87</ele>
        <time>2011-12-11T09:15:52Z</time>
      </trkpt>
      <trkpt lat="46.99848" lon="-1.06903">
        <ele>87</ele>
        <time>2011-12-11T09:15:56Z</time>
      </trkpt>
      <trkpt lat="46.99847" lon="-1.06905">
        <ele>87</ele>
        <time>2011-12-11T09:16:00Z</time>
      </trkpt>
      <trkpt lat="46.99848" lon="-1.06904">
        <ele>87</ele>
        <time>2011-12-11T09:16:05Z</time>
      </trkpt>
      <trkpt lat="46.9985" lon="-1.06905">
        <ele>88</ele>
        <time>2011-12-11T09:16:16Z</time>
      </trkpt>
      <trkpt lat="46.9985" lon="-1.06907">
        <ele>88</ele>
        <time>2011-12-11T09:16:25Z</time>
      </trkpt>
      <trkpt lat="46.99849" lon="-1.06906">
        <ele>88</ele>
        <time>2011-12-11T09:16:30Z</time>
      </trkpt>
      <trkpt lat="46.99847" lon="-1.06906">
        <ele>88</ele>
        <time>2011-12-11T09:16:33Z</time>
      </trkpt>
      <trkpt lat="46.99846" lon="-1.06906">
        <ele>88</ele>
        <time>2011-12-11T09:16:36Z</time>
      </trkpt>
      <trkpt lat="46.99845" lon="-1.06907">
        <ele>88</ele>
        <time>2011-12-11T09:16:41Z</time>
      </trkpt>
      <trkpt lat="46.99846" lon="-1.06909">
        <ele>88</ele>
        <time>2011-12-11T09:16:46Z</time>
      </trkpt>
      <trkpt lat="46.99844" lon="-1.06908">
        <ele>88</ele>
        <time>2011-12-11T09:16:54Z</time>
      </trkpt>
      <trkpt lat="46.99843" lon="-1.06909">
        <ele>88</ele>
        <time>2011-12-11T09:17:00Z</time>
      </trkpt>
      <trkpt lat="46.99844" lon="-1.06908">
        <ele>89</ele>
        <time>2011-12-11T09:17:13Z</time>
      </trkpt>
      <trkpt lat="46.99843" lon="-1.06909">
        <ele>91</ele>
        <time>2011-12-11T09:17:15Z</time>
      </trkpt>
      <trkpt lat="46.99842" lon="-1.06909">
        <ele>93</ele>
        <time>2011-12-11T09:17:18Z</time>
      </trkpt>
      <trkpt lat="46.99843" lon="-1.06908">
        <ele>95</ele>
        <time>2011-12-11T09:17:22Z</time>
      </trkpt>
      <trkpt lat="46.99844" lon="-1.06909">
        <ele>95</ele>
        <time>2011-12-11T09:17:27Z</time>
      </trkpt>
      <trkpt lat="46.99845" lon="-1.06907">
        <ele>95</ele>
        <time>2011-12-11T09:17:34Z</time>
      </trkpt>
      <trkpt lat="46.99846" lon="-1.06905">
        <ele>95</ele>
        <time>2011-12-11T09:17:37Z</time>
      </trkpt>
      <trkpt lat="46.99847" lon="-1.06904">
        <ele>95</ele>
        <time>2011-12-11T09:17:40Z</time>
      </trkpt>
      <trkpt lat="46.99848" lon="-1.06905">
        <ele>95</ele>
        <time>2011-12-11T09:17:43Z</time>
      </trkpt>
      <trkpt lat="46.99849" lon="-1.06905">
        <ele>91</ele>
        <time>2011-12-11T09:17:51Z</time>
      </trkpt>
      <trkpt lat="46.99848" lon="-1.06904">
        <ele>91</ele>
        <time>2011-12-11T09:17:58Z</time>
      </trkpt>
      <trkpt lat="46.99848" lon="-1.06905">
        <ele>91</ele>
        <time>2011-12-11T09:18:01Z</time>
      </trkpt>
      <trkpt lat="46.99847" lon="-1.06905">
        <ele>91</ele>
        <time>2011-12-11T09:18:07Z</time>
      </trkpt>
      <trkpt lat="46.99846" lon="-1.06906">
        <ele>91</ele>
        <time>2011-12-11T09:18:11Z</time>
      </trkpt>
      <trkpt lat="46.99847" lon="-1.06907">
        <ele>90</ele>
        <time>2011-12-11T09:18:16Z</time>
      </trkpt>
      <trkpt lat="46.99846" lon="-1.06908">
        <ele>88</ele>
        <time>2011-12-11T09:18:19Z</time>
      </trkpt>
      <trkpt lat="46.99846" lon="-1.06906">
        <ele>88</ele>
        <time>2011-12-11T09:18:21Z</time>
      </trkpt>
      <trkpt lat="46.99848" lon="-1.06904">
        <ele>88</ele>
        <time>2011-12-11T09:18:28Z</time>
      </trkpt>
      <trkpt lat="46.99849" lon="-1.06903">
        <ele>88</ele>
        <time>2011-12-11T09:18:30Z</time>
      </trkpt>
      <trkpt lat="46.99848" lon="-1.06903">
        <ele>88</ele>
        <time>2011-12-11T09:18:34Z</time>
      </trkpt>
      <trkpt lat="46.99847" lon="-1.06904">
        <ele>88</ele>
        <time>2011-12-11T09:18:38Z</time>
      </trkpt>
      <trkpt lat="46.99846" lon="-1.06905">
        <ele>88</ele>
        <time>2011-12-11T09:18:40Z</time>
      </trkpt>
      <trkpt lat="46.99846" lon="-1.06906">
        <ele>87</ele>
        <time>2011-12-11T09:18:48Z</time>
      </trkpt>
      <trkpt lat="46.99847" lon="-1.06904">
        <ele>86</ele>
        <time>2011-12-11T09:18:53Z</time>
      </trkpt>
      <trkpt lat="46.99847" lon="-1.06903">
        <ele>86</ele>
        <time>2011-12-11T09:18:55Z</time>
      </trkpt>
      <trkpt lat="46.99847" lon="-1.06904">
        <ele>86</ele>
        <time>2011-12-11T09:19:11Z</time>
      </trkpt>
      <trkpt lat="46.99848" lon="-1.06904">
        <ele>86</ele>
        <time>2011-12-11T09:19:14Z</time>
      </trkpt>
      <trkpt lat="46.99849" lon="-1.06904">
        <ele>86</ele>
        <time>2011-12-11T09:19:17Z</time>
      </trkpt>
      <trkpt lat="46.99851" lon="-1.06904">
        <ele>86</ele>
        <time>2011-12-11T09:19:19Z</time>
      </trkpt>
      <trkpt lat="46.9985" lon="-1.06905">
        <ele>86</ele>
        <time>2011-12-11T09:19:23Z</time>
      </trkpt>
      <trkpt lat="46.99851" lon="-1.06905">
        <ele>86</ele>
        <time>2011-12-11T09:19:28Z</time>
      </trkpt>
      <trkpt lat="46.99849" lon="-1.06905">
        <ele>86</ele>
        <time>2011-12-11T09:19:31Z</time>
      </trkpt>
      <trkpt lat="46.99847" lon="-1.06906">
        <ele>86</ele>
        <time>2011-12-11T09:19:36Z</time>
      </trkpt>
      <trkpt lat="46.99847" lon="-1.06907">
        <ele>86</ele>
        <time>2011-12-11T09:19:41Z</time>
      </trkpt>
      <trkpt lat="46.99847" lon="-1.06909">
        <ele>88</ele>
        <time>2011-12-11T09:19:49Z</time>
      </trkpt>
      <trkpt lat="46.99848" lon="-1.06909">
        <ele>88</ele>
        <time>2011-12-11T09:19:52Z</time>
      </trkpt>
      <trkpt lat="46.99849" lon="-1.06908">
        <ele>88</ele>
        <time>2011-12-11T09:19:58Z</time>
      </trkpt>
      <trkpt lat="46.99851" lon="-1.06907">
        <ele>88</ele>
        <time>2011-12-11T09:20:05Z</time>
      </trkpt>
      <trkpt lat="46.99849" lon="-1.06907">
        <ele>88</ele>
        <time>2011-12-11T09:20:08Z</time>
      </trkpt>
      <trkpt lat="46.99847" lon="-1.06909">
        <ele>88</ele>
        <time>2011-12-11T09:20:10Z</time>
      </trkpt>
      <trkpt lat="46.99849" lon="-1.06909">
        <ele>88</ele>
        <time>2011-12-11T09:20:12Z</time>
      </trkpt>
      <trkpt lat="46.99847" lon="-1.06908">
        <ele>88</ele>
        <time>2011-12-11T09:20:15Z</time>
      </trkpt>
      <trkpt lat="46.99849" lon="-1.06907">
        <ele>88</ele>
        <time>2011-12-11T09:20:22Z</time>
      </trkpt>
      <trkpt lat="46.9985" lon="-1.06906">
        <ele>87</ele>
        <time>2011-12-11T09:20:29Z</time>
      </trkpt>
      <trkpt lat="46.99852" lon="-1.06906">
        <ele>85</ele>
        <time>2011-12-11T09:20:32Z</time>
      </trkpt>
      <trkpt lat="46.9985" lon="-1.06906">
        <ele>85</ele>
        <time>2011-12-11T09:20:45Z</time>
      </trkpt>
      <trkpt lat="46.99849" lon="-1.06908">
        <ele>83</ele>
        <time>2011-12-11T09:20:51Z</time>
      </trkpt>
      <trkpt lat="46.99848" lon="-1.06909">
        <ele>83</ele>
        <time>2011-12-11T09:20:56Z</time>
      </trkpt>
      <trkpt lat="46.99847" lon="-1.06909">
        <ele>83</ele>
        <time>2011-12-11T09:21:03Z</time>
      </trkpt>
      <trkpt lat="46.99848" lon="-1.06909">
        <ele>87</ele>
        <time>2011-12-11T09:21:11Z</time>
      </trkpt>
      <trkpt lat="46.99846" lon="-1.06908">
        <ele>88</ele>
        <time>2011-12-11T09:21:21Z</time>
      </trkpt>
      <trkpt lat="46.99847" lon="-1.06908">
        <ele>89</ele>
        <time>2011-12-11T09:21:34Z</time>
      </trkpt>
      <trkpt lat="46.99846" lon="-1.06907">
        <ele>90</ele>
        <time>2011-12-11T09:21:49Z</time>
      </trkpt>
      <trkpt lat="46.99847" lon="-1.06907">
        <ele>90</ele>
        <time>2011-12-11T09:22:01Z</time>
      </trkpt>
      <trkpt lat="46.99846" lon="-1.06909">
        <ele>90</ele>
        <time>2011-12-11T09:22:04Z</time>
      </trkpt>
      <trkpt lat="46.99847" lon="-1.06908">
        <ele>90</ele>
        <time>2011-12-11T09:22:07Z</time>
      </trkpt>
      <trkpt lat="46.99849" lon="-1.06907">
        <ele>89</ele>
        <time>2011-12-11T09:22:13Z</time>
      </trkpt>
      <trkpt lat="46.99848" lon="-1.06906">
        <ele>89</ele>
        <time>2011-12-11T09:22:20Z</time>
      </trkpt>
      <trkpt lat="46.99849" lon="-1.06906">
        <ele>87</ele>
        <time>2011-12-11T09:22:31Z</time>
      </trkpt>
      <trkpt lat="46.99848" lon="-1.06906">
        <ele>87</ele>
        <time>2011-12-11T09:22:35Z</time>
      </trkpt>
      <trkpt lat="46.99847" lon="-1.06905">
        <ele>87</ele>
        <time>2011-12-11T09:22:41Z</time>
      </trkpt>
      <trkpt lat="46.99845" lon="-1.06906">
        <ele>87</ele>
        <time>2011-12-11T09:22:44Z</time>
      </trkpt>
      <trkpt lat="46.99846" lon="-1.06906">
        <ele>87</ele>
        <time>2011-12-11T09:22:48Z</time>
      </trkpt>
      <trkpt lat="46.99847" lon="-1.06906">
        <ele>87</ele>
        <time>2011-12-11T09:22:53Z</time>
      </trkpt>
      <trkpt lat="46.99848" lon="-1.06908">
        <ele>87</ele>
        <time>2011-12-11T09:23:00Z</time>
      </trkpt>
      <trkpt lat="46.9985" lon="-1.06909">
        <ele>87</ele>
        <time>2011-12-11T09:23:12Z</time>
      </trkpt>
      <trkpt lat="46.99848" lon="-1.06908">
        <ele>87</ele>
        <time>2011-12-11T09:23:19Z</time>
      </trkpt>
      <trkpt lat="46.99847" lon="-1.06907">
        <ele>87</ele>
        <time>2011-12-11T09:23:22Z</time>
      </trkpt>
      <trkpt lat="46.99845" lon="-1.06908">
        <ele>87</ele>
        <time>2011-12-11T09:23:24Z</time>
      </trkpt>
      <trkpt lat="46.99845" lon="-1.06909">
        <ele>87</ele>
        <time>2011-12-11T09:23:35Z</time>
      </trkpt>
      <trkpt lat="46.99846" lon="-1.06909">
        <ele>87</ele>
        <time>2011-12-11T09:23:42Z</time>
      </trkpt>
      <trkpt lat="46.99846" lon="-1.06911">
        <ele>87</ele>
        <time>2011-12-11T09:23:44Z</time>
      </trkpt>
      <trkpt lat="46.99847" lon="-1.06911">
        <ele>87</ele>
        <time>2011-12-11T09:23:47Z</time>
      </trkpt>
      <trkpt lat="46.99849" lon="-1.0691">
        <ele>85</ele>
        <time>2011-12-11T09:23:52Z</time>
      </trkpt>
      <trkpt lat="46.99849" lon="-1.06908">
        <ele>85</ele>
        <time>2011-12-11T09:23:56Z</time>
      </trkpt>
      <trkpt lat="46.99849" lon="-1.06907">
        <ele>85</ele>
        <time>2011-12-11T09:24:07Z</time>
      </trkpt>
      <trkpt lat="46.99848" lon="-1.06907">
        <ele>85</ele>
        <time>2011-12-11T09:24:10Z</time>
      </trkpt>
      <trkpt lat="46.99849" lon="-1.06908">
        <ele>85</ele>
        <time>2011-12-11T09:24:18Z</time>
      </trkpt>
      <trkpt lat="46.99848" lon="-1.06907">
        <ele>85</ele>
        <time>2011-12-11T09:24:21Z</time>
      </trkpt>
      <trkpt lat="46.99847" lon="-1.06907">
        <ele>85</ele>
        <time>2011-12-11T09:24:22Z</time>
      </trkpt>
      <trkpt lat="46.99845" lon="-1.06908">
        <ele>86</ele>
        <time>2011-12-11T09:24:30Z</time>
      </trkpt>
      <trkpt lat="46.99846" lon="-1.06907">
        <ele>86</ele>
        <time>2011-12-11T09:24:34Z</time>
      </trkpt>
      <trkpt lat="46.99847" lon="-1.06906">
        <ele>86</ele>
        <time>2011-12-11T09:24:37Z</time>
      </trkpt>
      <trkpt lat="46.99849" lon="-1.06905">
        <ele>86</ele>
        <time>2011-12-11T09:24:40Z</time>
      </trkpt>
      <trkpt lat="46.99848" lon="-1.06905">
        <ele>89</ele>
        <time>2011-12-11T09:24:45Z</time>
      </trkpt>
      <trkpt lat="46.99847" lon="-1.06905">
        <ele>89</ele>
        <time>2011-12-11T09:24:51Z</time>
      </trkpt>
      <trkpt lat="46.99848" lon="-1.06905">
        <ele>89</ele>
        <time>2011-12-11T09:25:09Z</time>
      </trkpt>
      <trkpt lat="46.99849" lon="-1.06905">
        <ele>89</ele>
        <time>2011-12-11T09:25:15Z</time>
      </trkpt>
      <trkpt lat="46.99847" lon="-1.06907">
        <ele>94</ele>
        <time>2011-12-11T09:25:26Z</time>
      </trkpt>
      <trkpt lat="46.99849" lon="-1.06907">
        <ele>94</ele>
        <time>2011-12-11T09:25:28Z</time>
      </trkpt>
      <trkpt lat="46.99848" lon="-1.0691">
        <ele>96</ele>
        <time>2011-12-11T09:25:36Z</time>
      </trkpt>
      <trkpt lat="46.99849" lon="-1.06908">
        <ele>98</ele>
        <time>2011-12-11T09:25:40Z</time>
      </trkpt>
      <trkpt lat="46.99847" lon="-1.06908">
        <ele>99</ele>
        <time>2011-12-11T09:25:44Z</time>
      </trkpt>
      <trkpt lat="46.99846" lon="-1.06909">
        <ele>99</ele>
        <time>2011-12-11T09:25:46Z</time>
      </trkpt>
      <trkpt lat="46.99845" lon="-1.06909">
        <ele>99</ele>
        <time>2011-12-11T09:25:50Z</time>
      </trkpt>
      <trkpt lat="46.99846" lon="-1.06908">
        <ele>99</ele>
        <time>2011-12-11T09:25:52Z</time>
      </trkpt>
      <trkpt lat="46.99848" lon="-1.06907">
        <ele>99</ele>
        <time>2011-12-11T09:25:55Z</time>
      </trkpt>
      <trkpt lat="46.99849" lon="-1.06906">
        <ele>92</ele>
        <time>2011-12-11T09:26:16Z</time>
      </trkpt>
      <trkpt lat="46.99848" lon="-1.06907">
        <ele>91</ele>
        <time>2011-12-11T09:26:37Z</time>
      </trkpt>
      <trkpt lat="46.99846" lon="-1.06909">
        <ele>91</ele>
        <time>2011-12-11T09:26:41Z</time>
      </trkpt>
      <trkpt lat="46.99844" lon="-1.06911">
        <ele>90</ele>
        <time>2011-12-11T09:26:44Z</time>
      </trkpt>
      <trkpt lat="46.99845" lon="-1.06912">
        <ele>89</ele>
        <time>2011-12-11T09:26:48Z</time>
      </trkpt>
      <trkpt lat="46.99847" lon="-1.06912">
        <ele>89</ele>
        <time>2011-12-11T09:26:52Z</time>
      </trkpt>
      <trkpt lat="46.99848" lon="-1.06911">
        <ele>89</ele>
        <time>2011-12-11T09:27:00Z</time>
      </trkpt>
      <trkpt lat="46.99849" lon="-1.06909">
        <ele>86</ele>
        <time>2011-12-11T09:27:05Z</time>
      </trkpt>
      <trkpt lat="46.99849" lon="-1.06908">
        <ele>86</ele>
        <time>2011-12-11T09:27:08Z</time>
      </trkpt>
      <trkpt lat="46.99847" lon="-1.06907">
        <ele>85</ele>
        <time>2011-12-11T09:27:23Z</time>
      </trkpt>
      <trkpt lat="46.99847" lon="-1.06909">
        <ele>85</ele>
        <time>2011-12-11T09:27:27Z</time>
      </trkpt>
      <trkpt lat="46.99848" lon="-1.06907">
        <ele>85</ele>
        <time>2011-12-11T09:27:35Z</time>
      </trkpt>
      <trkpt lat="46.99847" lon="-1.06906">
        <ele>86</ele>
        <time>2011-12-11T09:27:45Z</time>
      </trkpt>
      <trkpt lat="46.99846" lon="-1.06906">
        <ele>86</ele>
        <time>2011-12-11T09:27:46Z</time>
      </trkpt>
      <trkpt lat="46.99848" lon="-1.06907">
        <ele>86</ele>
        <time>2011-12-11T09:27:56Z</time>
      </trkpt>
      <trkpt lat="46.99846" lon="-1.06907">
        <ele>86</ele>
        <time>2011-12-11T09:28:05Z</time>
      </trkpt>
      <trkpt lat="46.99847" lon="-1.06907">
        <ele>86</ele>
        <time>2011-12-11T09:28:08Z</time>
      </trkpt>
      <trkpt lat="46.99846" lon="-1.06906">
        <ele>86</ele>
        <time>2011-12-11T09:28:13Z</time>
      </trkpt>
      <trkpt lat="46.99846" lon="-1.06905">
        <ele>86</ele>
        <time>2011-12-11T09:28:18Z</time>
      </trkpt>
      <trkpt lat="46.99847" lon="-1.06903">
        <ele>88</ele>
        <time>2011-12-11T09:28:22Z</time>
      </trkpt>
      <trkpt lat="46.99846" lon="-1.06904">
        <ele>90</ele>
        <time>2011-12-11T09:28:24Z</time>
      </trkpt>
      <trkpt lat="46.99846" lon="-1.06906">
        <ele>93</ele>
        <time>2011-12-11T09:28:27Z</time>
      </trkpt>
      <trkpt lat="46.99844" lon="-1.06911">
        <ele>94</ele>
        <time>2011-12-11T09:28:39Z</time>
      </trkpt>
      <trkpt lat="46.99845" lon="-1.0691">
        <ele>94</ele>
        <time>2011-12-11T09:28:43Z</time>
      </trkpt>
      <trkpt lat="46.99847" lon="-1.06907">
        <ele>92</ele>
        <time>2011-12-11T09:28:56Z</time>
      </trkpt>
      <trkpt lat="46.99845" lon="-1.06907">
        <ele>88</ele>
        <time>2011-12-11T09:29:06Z</time>
      </trkpt>
      <trkpt lat="46.99846" lon="-1.06908">
        <ele>85</ele>
        <time>2011-12-11T09:29:13Z</time>
      </trkpt>
      <trkpt lat="46.99846" lon="-1.06906">
        <ele>85</ele>
        <time>2011-12-11T09:29:19Z</time>
      </trkpt>
      <trkpt lat="46.99846" lon="-1.06905">
        <ele>85</ele>
        <time>2011-12-11T09:29:21Z</time>
      </trkpt>
      <trkpt lat="46.99847" lon="-1.06902">
        <ele>85</ele>
        <time>2011-12-11T09:29:24Z</time>
      </trkpt>
      <trkpt lat="46.99846" lon="-1.069">
        <ele>85</ele>
        <time>2011-12-11T09:29:26Z</time>
      </trkpt>
      <trkpt lat="46.99846" lon="-1.06897">
        <ele>85</ele>
        <time>2011-12-11T09:29:28Z</time>
      </trkpt>
      <trkpt lat="46.99845" lon="-1.06895">
        <ele>85</ele>
        <time>2011-12-11T09:29:30Z</time>
      </trkpt>
      <trkpt lat="46.99844" lon="-1.06893">
        <ele>85</ele>
        <time>2011-12-11T09:29:32Z</time>
      </trkpt>
      <trkpt lat="46.99844" lon="-1.06891">
        <ele>85</ele>
        <time>2011-12-11T09:29:34Z</time>
      </trkpt>
      <trkpt lat="46.99843" lon="-1.06889">
        <ele>85</ele>
        <time>2011-12-11T09:29:36Z</time>
      </trkpt>
      <trkpt lat="46.99842" lon="-1.06888">
        <ele>85</ele>
        <time>2011-12-11T09:29:38Z</time>
      </trkpt>
      <trkpt lat="46.9984" lon="-1.06886">
        <ele>85</ele>
        <time>2011-12-11T09:29:40Z</time>
      </trkpt>
      <trkpt lat="46.99839" lon="-1.06885">
        <ele>85</ele>
        <time>2011-12-11T09:29:42Z</time>
      </trkpt>
      <trkpt lat="46.99836" lon="-1.06884">
        <ele>85</ele>
        <time>2011-12-11T09:29:44Z</time>
      </trkpt>
      <trkpt lat="46.99835" lon="-1.06883">
        <ele>85</ele>
        <time>2011-12-11T09:29:46Z</time>
      </trkpt>
      <trkpt lat="46.99833" lon="-1.06882">
        <ele>85</ele>
        <time>2011-12-11T09:29:48Z</time>
      </trkpt>
      <trkpt lat="46.99832" lon="-1.06882">
        <ele>85</ele>
        <time>2011-12-11T09:29:49Z</time>
      </trkpt>
      <trkpt lat="46.99831" lon="-1.06881">
        <ele>85</ele>
        <time>2011-12-11T09:29:50Z</time>
      </trkpt>
      <trkpt lat="46.99829" lon="-1.0688">
        <ele>85</ele>
        <time>2011-12-11T09:29:52Z</time>
      </trkpt>
      <trkpt lat="46.99827" lon="-1.0688">
        <ele>85</ele>
        <time>2011-12-11T09:29:54Z</time>
      </trkpt>
      <trkpt lat="46.99826" lon="-1.06879">
        <ele>85</ele>
        <time>2011-12-11T09:29:55Z</time>
      </trkpt>
      <trkpt lat="46.99824" lon="-1.06879">
        <ele>85</ele>
        <time>2011-12-11T09:29:57Z</time>
      </trkpt>
      <trkpt lat="46.99822" lon="-1.06878">
        <ele>85</ele>
        <time>2011-12-11T09:29:59Z</time>
      </trkpt>
      <trkpt lat="46.99821" lon="-1.06877">
        <ele>85</ele>
        <time>2011-12-11T09:30:00Z</time>
      </trkpt>
      <trkpt lat="46.99819" lon="-1.06876">
        <ele>85</ele>
        <time>2011-12-11T09:30:02Z</time>
      </trkpt>
      <trkpt lat="46.99817" lon="-1.06876">
        <ele>85</ele>
        <time>2011-12-11T09:30:04Z</time>
      </trkpt>
      <trkpt lat="46.99815" lon="-1.06875">
        <ele>85</ele>
        <time>2011-12-11T09:30:06Z</time>
      </trkpt>
      <trkpt lat="46.99813" lon="-1.06876">
        <ele>85</ele>
        <time>2011-12-11T09:30:08Z</time>
      </trkpt>
      <trkpt lat="46.99811" lon="-1.06875">
        <ele>85</ele>
        <time>2011-12-11T09:30:10Z</time>
      </trkpt>
      <trkpt lat="46.99809" lon="-1.06875">
        <ele>85</ele>
        <time>2011-12-11T09:30:12Z</time>
      </trkpt>
      <trkpt lat="46.99808" lon="-1.06875">
        <ele>85</ele>
        <time>2011-12-11T09:30:13Z</time>
      </trkpt>
      <trkpt lat="46.99807" lon="-1.06874">
        <ele>85</ele>
        <time>2011-12-11T09:30:14Z</time>
      </trkpt>
      <trkpt lat="46.99805" lon="-1.06874">
        <ele>85</ele>
        <time>2011-12-11T09:30:15Z</time>
      </trkpt>
      <trkpt lat="46.99804" lon="-1.06873">
        <ele>85</ele>
        <time>2011-12-11T09:30:16Z</time>
      </trkpt>
      <trkpt lat="46.99802" lon="-1.06873">
        <ele>85</ele>
        <time>2011-12-11T09:30:18Z</time>
      </trkpt>
      <trkpt lat="46.998" lon="-1.06872">
        <ele>85</ele>
        <time>2011-12-11T09:30:20Z</time>
      </trkpt>
      <trkpt lat="46.99798" lon="-1.06871">
        <ele>85</ele>
        <time>2011-12-11T09:30:22Z</time>
      </trkpt>
      <trkpt lat="46.99797" lon="-1.0687">
        <ele>85</ele>
        <time>2011-12-11T09:30:23Z</time>
      </trkpt>
      <trkpt lat="46.99796" lon="-1.0687">
        <ele>85</ele>
        <time>2011-12-11T09:30:24Z</time>
      </trkpt>
      <trkpt lat="46.99795" lon="-1.06869">
        <ele>85</ele>
        <time>2011-12-11T09:30:25Z</time>
      </trkpt>
      <trkpt lat="46.99794" lon="-1.06868">
        <ele>85</ele>
        <time>2011-12-11T09:30:26Z</time>
      </trkpt>
      <trkpt lat="46.99792" lon="-1.06868">
        <ele>85</ele>
        <time>2011-12-11T09:30:27Z</time>
      </trkpt>
      <trkpt lat="46.99791" lon="-1.06868">
        <ele>85</ele>
        <time>2011-12-11T09:30:28Z</time>
      </trkpt>
      <trkpt lat="46.9979" lon="-1.06867">
        <ele>85</ele>
        <time>2011-12-11T09:30:29Z</time>
      </trkpt>
      <trkpt lat="46.99788" lon="-1.06866">
        <ele>85</ele>
        <time>2011-12-11T09:30:31Z</time>
      </trkpt>
      <trkpt lat="46.99787" lon="-1.06866">
        <ele>85</ele>
        <time>2011-12-11T09:30:32Z</time>
      </trkpt>
      <trkpt lat="46.99785" lon="-1.06865">
        <ele>85</ele>
        <time>2011-12-11T09:30:33Z</time>
      </trkpt>
      <trkpt lat="46.99784" lon="-1.06865">
        <ele>85</ele>
        <time>2011-12-11T09:30:34Z</time>
      </trkpt>
      <trkpt lat="46.99783" lon="-1.06864">
        <ele>85</ele>
        <time>2011-12-11T09:30:35Z</time>
      </trkpt>
      <trkpt lat="46.99781" lon="-1.06864">
        <ele>85</ele>
        <time>2011-12-11T09:30:36Z</time>
      </trkpt>
      <trkpt lat="46.9978" lon="-1.06863">
        <ele>85</ele>
        <time>2011-12-11T09:30:38Z</time>
      </trkpt>
      <trkpt lat="46.99778" lon="-1.06863">
        <ele>85</ele>
        <time>2011-12-11T09:30:39Z</time>
      </trkpt>
      <trkpt lat="46.99777" lon="-1.06862">
        <ele>85</ele>
        <time>2011-12-11T09:30:40Z</time>
      </trkpt>
      <trkpt lat="46.99776" lon="-1.06862">
        <ele>85</ele>
        <time>2011-12-11T09:30:41Z</time>
      </trkpt>
      <trkpt lat="46.99774" lon="-1.06861">
        <ele>85</ele>
        <time>2011-12-11T09:30:43Z</time>
      </trkpt>
      <trkpt lat="46.99773" lon="-1.06861">
        <ele>85</ele>
        <time>2011-12-11T09:30:44Z</time>
      </trkpt>
      <trkpt lat="46.99771" lon="-1.06861">
        <ele>85</ele>
        <time>2011-12-11T09:30:45Z</time>
      </trkpt>
      <trkpt lat="46.9977" lon="-1.06861">
        <ele>85</ele>
        <time>2011-12-11T09:30:46Z</time>
      </trkpt>
      <trkpt lat="46.99768" lon="-1.06861">
        <ele>85</ele>
        <time>2011-12-11T09:30:48Z</time>
      </trkpt>
      <trkpt lat="46.99767" lon="-1.06861">
        <ele>85</ele>
        <time>2011-12-11T09:30:49Z</time>
      </trkpt>
      <trkpt lat="46.99765" lon="-1.06862">
        <ele>85</ele>
        <time>2011-12-11T09:30:51Z</time>
      </trkpt>
      <trkpt lat="46.99763" lon="-1.06864">
        <ele>85</ele>
        <time>2011-12-11T09:30:53Z</time>
      </trkpt>
      <trkpt lat="46.99762" lon="-1.06867">
        <ele>85</ele>
        <time>2011-12-11T09:30:55Z</time>
      </trkpt>
      <trkpt lat="46.99762" lon="-1.06868">
        <ele>85</ele>
        <time>2011-12-11T09:30:56Z</time>
      </trkpt>
      <trkpt lat="46.99761" lon="-1.0687">
        <ele>85</ele>
        <time>2011-12-11T09:30:57Z</time>
      </trkpt>
      <trkpt lat="46.99761" lon="-1.06871">
        <ele>85</ele>
        <time>2011-12-11T09:30:58Z</time>
      </trkpt>
      <trkpt lat="46.99761" lon="-1.06873">
        <ele>85</ele>
        <time>2011-12-11T09:30:59Z</time>
      </trkpt>
      <trkpt lat="46.99761" lon="-1.06875">
        <ele>85</ele>
        <time>2011-12-11T09:31:00Z</time>
      </trkpt>
      <trkpt lat="46.99761" lon="-1.06876">
        <ele>85</ele>
        <time>2011-12-11T09:31:01Z</time>
      </trkpt>
      <trkpt lat="46.99761" lon="-1.06878">
        <ele>85</ele>
        <time>2011-12-11T09:31:02Z</time>
      </trkpt>
      <trkpt lat="46.99761" lon="-1.06879">
        <ele>85</ele>
        <time>2011-12-11T09:31:03Z</time>
      </trkpt>
      <trkpt lat="46.99761" lon="-1.06881">
        <ele>85</ele>
        <time>2011-12-11T09:31:04Z</time>
      </trkpt>
      <trkpt lat="46.99761" lon="-1.06883">
        <ele>85</ele>
        <time>2011-12-11T09:31:05Z</time>
      </trkpt>
      <trkpt lat="46.99761" lon="-1.06885">
        <ele>85</ele>
        <time>2011-12-11T09:31:06Z</time>
      </trkpt>
      <trkpt lat="46.99761" lon="-1.06886">
        <ele>85</ele>
        <time>2011-12-11T09:31:07Z</time>
      </trkpt>
      <trkpt lat="46.99761" lon="-1.06888">
        <ele>85</ele>
        <time>2011-12-11T09:31:08Z</time>
      </trkpt>
      <trkpt lat="46.9976" lon="-1.06891">
        <ele>85</ele>
        <time>2011-12-11T09:31:09Z</time>
      </trkpt>
      <trkpt lat="46.9976" lon="-1.06893">
        <ele>85</ele>
        <time>2011-12-11T09:31:10Z</time>
      </trkpt>
      <trkpt lat="46.9976" lon="-1.06895">
        <ele>85</ele>
        <time>2011-12-11T09:31:11Z</time>
      </trkpt>
      <trkpt lat="46.9976" lon="-1.06897">
        <ele>85</ele>
        <time>2011-12-11T09:31:12Z</time>
      </trkpt>
      <trkpt lat="46.9976" lon="-1.06899">
        <ele>85</ele>
        <time>2011-12-11T09:31:13Z</time>
      </trkpt>
      <trkpt lat="46.9976" lon="-1.06901">
        <ele>85</ele>
        <time>2011-12-11T09:31:14Z</time>
      </trkpt>
      <trkpt lat="46.9976" lon="-1.06903">
        <ele>85</ele>
        <time>2011-12-11T09:31:15Z</time>
      </trkpt>
      <trkpt lat="46.9976" lon="-1.06905">
        <ele>85</ele>
        <time>2011-12-11T09:31:16Z</time>
      </trkpt>
      <trkpt lat="46.9976" lon="-1.06907">
        <ele>85</ele>
        <time>2011-12-11T09:31:17Z</time>
      </trkpt>
      <trkpt lat="46.9976" lon="-1.06909">
        <ele>85</ele>
        <time>2011-12-11T09:31:18Z</time>
      </trkpt>
      <trkpt lat="46.9976" lon="-1.06911">
        <ele>85</ele>
        <time>2011-12-11T09:31:19Z</time>
      </trkpt>
      <trkpt lat="46.99759" lon="-1.06913">
        <ele>85</ele>
        <time>2011-12-11T09:31:20Z</time>
      </trkpt>
      <trkpt lat="46.99759" lon="-1.06915">
        <ele>85</ele>
        <time>2011-12-11T09:31:21Z</time>
      </trkpt>
      <trkpt lat="46.99759" lon="-1.06918">
        <ele>85</ele>
        <time>2011-12-11T09:31:22Z</time>
      </trkpt>
      <trkpt lat="46.99759" lon="-1.0692">
        <ele>85</ele>
        <time>2011-12-11T09:31:23Z</time>
      </trkpt>
      <trkpt lat="46.99759" lon="-1.06922">
        <ele>85</ele>
        <time>2011-12-11T09:31:24Z</time>
      </trkpt>
      <trkpt lat="46.99759" lon="-1.06924">
        <ele>85</ele>
        <time>2011-12-11T09:31:25Z</time>
      </trkpt>
      <trkpt lat="46.99759" lon="-1.06926">
        <ele>85</ele>
        <time>2011-12-11T09:31:26Z</time>
      </trkpt>
      <trkpt lat="46.99759" lon="-1.06928">
        <ele>85</ele>
        <time>2011-12-11T09:31:27Z</time>
      </trkpt>
      <trkpt lat="46.99759" lon="-1.0693">
        <ele>85</ele>
        <time>2011-12-11T09:31:28Z</time>
      </trkpt>
      <trkpt lat="46.99759" lon="-1.06931">
        <ele>85</ele>
        <time>2011-12-11T09:31:29Z</time>
      </trkpt>
      <trkpt lat="46.99759" lon="-1.06933">
        <ele>85</ele>
        <time>2011-12-11T09:31:30Z</time>
      </trkpt>
      <trkpt lat="46.99759" lon="-1.06934">
        <ele>85</ele>
        <time>2011-12-11T09:31:31Z</time>
      </trkpt>
      <trkpt lat="46.99759" lon="-1.06937">
        <ele>85</ele>
        <time>2011-12-11T09:31:32Z</time>
      </trkpt>
      <trkpt lat="46.99759" lon="-1.06939">
        <ele>85</ele>
        <time>2011-12-11T09:31:33Z</time>
      </trkpt>
      <trkpt lat="46.99759" lon="-1.0694">
        <ele>85</ele>
        <time>2011-12-11T09:31:34Z</time>
      </trkpt>
      <trkpt lat="46.99759" lon="-1.06943">
        <ele>85</ele>
        <time>2011-12-11T09:31:35Z</time>
      </trkpt>
      <trkpt lat="46.99759" lon="-1.06945">
        <ele>85</ele>
        <time>2011-12-11T09:31:36Z</time>
      </trkpt>
      <trkpt lat="46.99759" lon="-1.06947">
        <ele>85</ele>
        <time>2011-12-11T09:31:37Z</time>
      </trkpt>
      <trkpt lat="46.99759" lon="-1.06948">
        <ele>85</ele>
        <time>2011-12-11T09:31:38Z</time>
      </trkpt>
      <trkpt lat="46.99759" lon="-1.0695">
        <ele>85</ele>
        <time>2011-12-11T09:31:39Z</time>
      </trkpt>
      <trkpt lat="46.9976" lon="-1.06952">
        <ele>85</ele>
        <time>2011-12-11T09:31:40Z</time>
      </trkpt>
      <trkpt lat="46.9976" lon="-1.06954">
        <ele>85</ele>
        <time>2011-12-11T09:31:41Z</time>
      </trkpt>
      <trkpt lat="46.9976" lon="-1.06956">
        <ele>85</ele>
        <time>2011-12-11T09:31:42Z</time>
      </trkpt>
      <trkpt lat="46.9976" lon="-1.06958">
        <ele>85</ele>
        <time>2011-12-11T09:31:43Z</time>
      </trkpt>
      <trkpt lat="46.99761" lon="-1.0696">
        <ele>85</ele>
        <time>2011-12-11T09:31:44Z</time>
      </trkpt>
      <trkpt lat="46.99761" lon="-1.06962">
        <ele>85</ele>
        <time>2011-12-11T09:31:45Z</time>
      </trkpt>
      <trkpt lat="46.99761" lon="-1.06964">
        <ele>85</ele>
        <time>2011-12-11T09:31:46Z</time>
      </trkpt>
      <trkpt lat="46.99762" lon="-1.06966">
        <ele>85</ele>
        <time>2011-12-11T09:31:47Z</time>
      </trkpt>
      <trkpt lat="46.99762" lon="-1.06968">
        <ele>85</ele>
        <time>2011-12-11T09:31:48Z</time>
      </trkpt>
      <trkpt lat="46.99763" lon="-1.0697">
        <ele>85</ele>
        <time>2011-12-11T09:31:49Z</time>
      </trkpt>
      <trkpt lat="46.99764" lon="-1.06972">
        <ele>85</ele>
        <time>2011-12-11T09:31:50Z</time>
      </trkpt>
      <trkpt lat="46.99765" lon="-1.06973">
        <ele>85</ele>
        <time>2011-12-11T09:31:51Z</time>
      </trkpt>
      <trkpt lat="46.99765" lon="-1.06975">
        <ele>85</ele>
        <time>2011-12-11T09:31:52Z</time>
      </trkpt>
      <trkpt lat="46.99766" lon="-1.06976">
        <ele>85</ele>
        <time>2011-12-11T09:31:53Z</time>
      </trkpt>
      <trkpt lat="46.99767" lon="-1.06978">
        <ele>85</ele>
        <time>2011-12-11T09:31:54Z</time>
      </trkpt>
      <trkpt lat="46.99768" lon="-1.0698">
        <ele>85</ele>
        <time>2011-12-11T09:31:55Z</time>
      </trkpt>
      <trkpt lat="46.99769" lon="-1.06982">
        <ele>85</ele>
        <time>2011-12-11T09:31:56Z</time>
      </trkpt>
      <trkpt lat="46.9977" lon="-1.06983">
        <ele>85</ele>
        <time>2011-12-11T09:31:57Z</time>
      </trkpt>
      <trkpt lat="46.99771" lon="-1.06985">
        <ele>85</ele>
        <time>2011-12-11T09:31:58Z</time>
      </trkpt>
      <trkpt lat="46.99772" lon="-1.06986">
        <ele>85</ele>
        <time>2011-12-11T09:31:59Z</time>
      </trkpt>
      <trkpt lat="46.99773" lon="-1.06988">
        <ele>85</ele>
        <time>2011-12-11T09:32:00Z</time>
      </trkpt>
      <trkpt lat="46.99775" lon="-1.06991">
        <ele>85</ele>
        <time>2011-12-11T09:32:02Z</time>
      </trkpt>
      <trkpt lat="46.99776" lon="-1.06992">
        <ele>85</ele>
        <time>2011-12-11T09:32:03Z</time>
      </trkpt>
      <trkpt lat="46.99778" lon="-1.06993">
        <ele>85</ele>
        <time>2011-12-11T09:32:04Z</time>
      </trkpt>
      <trkpt lat="46.99779" lon="-1.06995">
        <ele>85</ele>
        <time>2011-12-11T09:32:06Z</time>
      </trkpt>
      <trkpt lat="46.99781" lon="-1.06997">
        <ele>85</ele>
        <time>2011-12-11T09:32:08Z</time>
      </trkpt>
      <trkpt lat="46.99783" lon="-1.06998">
        <ele>85</ele>
        <time>2011-12-11T09:32:10Z</time>
      </trkpt>
      <trkpt lat="46.99785" lon="-1.06999">
        <ele>85</ele>
        <time>2011-12-11T09:32:11Z</time>
      </trkpt>
      <trkpt lat="46.99786" lon="-1.07">
        <ele>85</ele>
        <time>2011-12-11T09:32:12Z</time>
      </trkpt>
      <trkpt lat="46.99788" lon="-1.07001">
        <ele>85</ele>
        <time>2011-12-11T09:32:13Z</time>
      </trkpt>
      <trkpt lat="46.99789" lon="-1.07001">
        <ele>85</ele>
        <time>2011-12-11T09:32:14Z</time>
      </trkpt>
      <trkpt lat="46.99791" lon="-1.07002">
        <ele>85</ele>
        <time>2011-12-11T09:32:15Z</time>
      </trkpt>
      <trkpt lat="46.99792" lon="-1.07002">
        <ele>85</ele>
        <time>2011-12-11T09:32:16Z</time>
      </trkpt>
      <trkpt lat="46.99793" lon="-1.07003">
        <ele>85</ele>
        <time>2011-12-11T09:32:17Z</time>
      </trkpt>
      <trkpt lat="46.99794" lon="-1.07003">
        <ele>85</ele>
        <time>2011-12-11T09:32:18Z</time>
      </trkpt>
      <trkpt lat="46.99796" lon="-1.07004">
        <ele>85</ele>
        <time>2011-12-11T09:32:19Z</time>
      </trkpt>
      <trkpt lat="46.99797" lon="-1.07004">
        <ele>85</ele>
        <time>2011-12-11T09:32:20Z</time>
      </trkpt>
      <trkpt lat="46.99798" lon="-1.07004">
        <ele>85</ele>
        <time>2011-12-11T09:32:21Z</time>
      </trkpt>
      <trkpt lat="46.99799" lon="-1.07005">
        <ele>85</ele>
        <time>2011-12-11T09:32:22Z</time>
      </trkpt>
      <trkpt lat="46.99801" lon="-1.07005">
        <ele>85</ele>
        <time>2011-12-11T09:32:23Z</time>
      </trkpt>
      <trkpt lat="46.99802" lon="-1.07006">
        <ele>85</ele>
        <time>2011-12-11T09:32:24Z</time>
      </trkpt>
      <trkpt lat="46.99804" lon="-1.07006">
        <ele>85</ele>
        <time>2011-12-11T09:32:25Z</time>
      </trkpt>
      <trkpt lat="46.99805" lon="-1.07007">
        <ele>85</ele>
        <time>2011-12-11T09:32:26Z</time>
      </trkpt>
      <trkpt lat="46.99807" lon="-1.07007">
        <ele>85</ele>
        <time>2011-12-11T09:32:27Z</time>
      </trkpt>
      <trkpt lat="46.99808" lon="-1.07008">
        <ele>85</ele>
        <time>2011-12-11T09:32:28Z</time>
      </trkpt>
      <trkpt lat="46.99809" lon="-1.07008">
        <ele>85</ele>
        <time>2011-12-11T09:32:29Z</time>
      </trkpt>
      <trkpt lat="46.99811" lon="-1.07009">
        <ele>85</ele>
        <time>2011-12-11T09:32:30Z</time>
      </trkpt>
      <trkpt lat="46.99812" lon="-1.07009">
        <ele>85</ele>
        <time>2011-12-11T09:32:31Z</time>
      </trkpt>
      <trkpt lat="46.99813" lon="-1.0701">
        <ele>85</ele>
        <time>2011-12-11T09:32:32Z</time>
      </trkpt>
      <trkpt lat="46.99815" lon="-1.0701">
        <ele>85</ele>
        <time>2011-12-11T09:32:33Z</time>
      </trkpt>
      <trkpt lat="46.99816" lon="-1.07011">
        <ele>85</ele>
        <time>2011-12-11T09:32:34Z</time>
      </trkpt>
      <trkpt lat="46.99818" lon="-1.07011">
        <ele>85</ele>
        <time>2011-12-11T09:32:35Z</time>
      </trkpt>
      <trkpt lat="46.99819" lon="-1.07011">
        <ele>85</ele>
        <time>2011-12-11T09:32:36Z</time>
      </trkpt>
      <trkpt lat="46.9982" lon="-1.07012">
        <ele>84</ele>
        <time>2011-12-11T09:32:37Z</time>
      </trkpt>
      <trkpt lat="46.99821" lon="-1.07012">
        <ele>84</ele>
        <time>2011-12-11T09:32:38Z</time>
      </trkpt>
      <trkpt lat="46.99823" lon="-1.07013">
        <ele>84</ele>
        <time>2011-12-11T09:32:39Z</time>
      </trkpt>
      <trkpt lat="46.99824" lon="-1.07013">
        <ele>84</ele>
        <time>2011-12-11T09:32:40Z</time>
      </trkpt>
      <trkpt lat="46.99826" lon="-1.07014">
        <ele>84</ele>
        <time>2011-12-11T09:32:41Z</time>
      </trkpt>
      <trkpt lat="46.99827" lon="-1.07014">
        <ele>84</ele>
        <time>2011-12-11T09:32:42Z</time>
      </trkpt>
      <trkpt lat="46.99828" lon="-1.07015">
        <ele>84</ele>
        <time>2011-12-11T09:32:43Z</time>
      </trkpt>
      <trkpt lat="46.9983" lon="-1.07015">
        <ele>84</ele>
        <time>2011-12-11T09:32:44Z</time>
      </trkpt>
      <trkpt lat="46.99831" lon="-1.07015">
        <ele>84</ele>
        <time>2011-12-11T09:32:45Z</time>
      </trkpt>
      <trkpt lat="46.99832" lon="-1.07016">
        <ele>84</ele>
        <time>2011-12-11T09:32:46Z</time>
      </trkpt>
      <trkpt lat="46.99834" lon="-1.07016">
        <ele>84</ele>
        <time>2011-12-11T09:32:47Z</time>
      </trkpt>
      <trkpt lat="46.99835" lon="-1.07017">
        <ele>84</ele>
        <time>2011-12-11T09:32:48Z</time>
      </trkpt>
      <trkpt lat="46.99836" lon="-1.07017">
        <ele>84</ele>
        <time>2011-12-11T09:32:49Z</time>
      </trkpt>
      <trkpt lat="46.99837" lon="-1.07018">
        <ele>84</ele>
        <time>2011-12-11T09:32:50Z</time>
      </trkpt>
      <trkpt lat="46.99839" lon="-1.07018">
        <ele>84</ele>
        <time>2011-12-11T09:32:51Z</time>
      </trkpt>
      <trkpt lat="46.9984" lon="-1.07019">
        <ele>83</ele>
        <time>2011-12-11T09:32:53Z</time>
      </trkpt>
      <trkpt lat="46.99841" lon="-1.07019">
        <ele>83</ele>
        <time>2011-12-11T09:32:54Z</time>
      </trkpt>
      <trkpt lat="46.99843" lon="-1.0702">
        <ele>83</ele>
        <time>2011-12-11T09:32:55Z</time>
      </trkpt>
      <trkpt lat="46.99844" lon="-1.0702">
        <ele>83</ele>
        <time>2011-12-11T09:32:56Z</time>
      </trkpt>
      <trkpt lat="46.99845" lon="-1.0702">
        <ele>83</ele>
        <time>2011-12-11T09:32:57Z</time>
      </trkpt>
      <trkpt lat="46.99847" lon="-1.07021">
        <ele>83</ele>
        <time>2011-12-11T09:32:58Z</time>
      </trkpt>
      <trkpt lat="46.99848" lon="-1.07021">
        <ele>83</ele>
        <time>2011-12-11T09:32:59Z</time>
      </trkpt>
      <trkpt lat="46.99849" lon="-1.07021">
        <ele>83</ele>
        <time>2011-12-11T09:33:00Z</time>
      </trkpt>
      <trkpt lat="46.99851" lon="-1.07022">
        <ele>83</ele>
        <time>2011-12-11T09:33:01Z</time>
      </trkpt>
      <trkpt lat="46.99852" lon="-1.07022">
        <ele>83</ele>
        <time>2011-12-11T09:33:02Z</time>
      </trkpt>
      <trkpt lat="46.99853" lon="-1.07023">
        <ele>83</ele>
        <time>2011-12-11T09:33:03Z</time>
      </trkpt>
      <trkpt lat="46.99855" lon="-1.07023">
        <ele>83</ele>
        <time>2011-12-11T09:33:04Z</time>
      </trkpt>
      <trkpt lat="46.99856" lon="-1.07024">
        <ele>83</ele>
        <time>2011-12-11T09:33:05Z</time>
      </trkpt>
      <trkpt lat="46.99858" lon="-1.07024">
        <ele>83</ele>
        <time>2011-12-11T09:33:06Z</time>
      </trkpt>
      <trkpt lat="46.99859" lon="-1.07025">
        <ele>83</ele>
        <time>2011-12-11T09:33:07Z</time>
      </trkpt>
      <trkpt lat="46.99861" lon="-1.07025">
        <ele>83</ele>
        <time>2011-12-11T09:33:08Z</time>
      </trkpt>
      <trkpt lat="46.99862" lon="-1.07026">
        <ele>83</ele>
        <time>2011-12-11T09:33:09Z</time>
      </trkpt>
      <trkpt lat="46.99863" lon="-1.07026">
        <ele>83</ele>
        <time>2011-12-11T09:33:10Z</time>
      </trkpt>
      <trkpt lat="46.99865" lon="-1.07027">
        <ele>83</ele>
        <time>2011-12-11T09:33:11Z</time>
      </trkpt>
      <trkpt lat="46.99866" lon="-1.07027">
        <ele>83</ele>
        <time>2011-12-11T09:33:12Z</time>
      </trkpt>
      <trkpt lat="46.99867" lon="-1.07027">
        <ele>83</ele>
        <time>2011-12-11T09:33:13Z</time>
      </trkpt>
      <trkpt lat="46.99868" lon="-1.07028">
        <ele>83</ele>
        <time>2011-12-11T09:33:14Z</time>
      </trkpt>
      <trkpt lat="46.9987" lon="-1.07029">
        <ele>83</ele>
        <time>2011-12-11T09:33:15Z</time>
      </trkpt>
      <trkpt lat="46.99871" lon="-1.07029">
        <ele>83</ele>
        <time>2011-12-11T09:33:16Z</time>
      </trkpt>
      <trkpt lat="46.99872" lon="-1.0703">
        <ele>83</ele>
        <time>2011-12-11T09:33:17Z</time>
      </trkpt>
      <trkpt lat="46.99873" lon="-1.0703">
        <ele>83</ele>
        <time>2011-12-11T09:33:18Z</time>
      </trkpt>
      <trkpt lat="46.99874" lon="-1.07032">
        <ele>83</ele>
        <time>2011-12-11T09:33:19Z</time>
      </trkpt>
      <trkpt lat="46.99876" lon="-1.07032">
        <ele>83</ele>
        <time>2011-12-11T09:33:20Z</time>
      </trkpt>
      <trkpt lat="46.99878" lon="-1.07034">
        <ele>83</ele>
        <time>2011-12-11T09:33:22Z</time>
      </trkpt>
      <trkpt lat="46.99879" lon="-1.07035">
        <ele>83</ele>
        <time>2011-12-11T09:33:23Z</time>
      </trkpt>
      <trkpt lat="46.9988" lon="-1.07035">
        <ele>83</ele>
        <time>2011-12-11T09:33:24Z</time>
      </trkpt>
      <trkpt lat="46.99881" lon="-1.07036">
        <ele>83</ele>
        <time>2011-12-11T09:33:25Z</time>
      </trkpt>
      <trkpt lat="46.99882" lon="-1.07038">
        <ele>83</ele>
        <time>2011-12-11T09:33:26Z</time>
      </trkpt>
      <trkpt lat="46.99883" lon="-1.07039">
        <ele>83</ele>
        <time>2011-12-11T09:33:27Z</time>
      </trkpt>
      <trkpt lat="46.99885" lon="-1.07041">
        <ele>83</ele>
        <time>2011-12-11T09:33:29Z</time>
      </trkpt>
      <trkpt lat="46.99887" lon="-1.07043">
        <ele>83</ele>
        <time>2011-12-11T09:33:31Z</time>
      </trkpt>
      <trkpt lat="46.99889" lon="-1.07045">
        <ele>82</ele>
        <time>2011-12-11T09:33:33Z</time>
      </trkpt>
      <trkpt lat="46.9989" lon="-1.07047">
        <ele>82</ele>
        <time>2011-12-11T09:33:34Z</time>
      </trkpt>
      <trkpt lat="46.99892" lon="-1.07049">
        <ele>82</ele>
        <time>2011-12-11T09:33:36Z</time>
      </trkpt>
      <trkpt lat="46.99894" lon="-1.07052">
        <ele>82</ele>
        <time>2011-12-11T09:33:38Z</time>
      </trkpt>
      <trkpt lat="46.99895" lon="-1.07054">
        <ele>82</ele>
        <time>2011-12-11T09:33:40Z</time>
      </trkpt>
      <trkpt lat="46.99897" lon="-1.07057">
        <ele>81</ele>
        <time>2011-12-11T09:33:42Z</time>
      </trkpt>
      <trkpt lat="46.99897" lon="-1.07058">
        <ele>81</ele>
        <time>2011-12-11T09:33:43Z</time>
      </trkpt>
      <trkpt lat="46.99898" lon="-1.0706">
        <ele>81</ele>
        <time>2011-12-11T09:33:44Z</time>
      </trkpt>
      <trkpt lat="46.999" lon="-1.07062">
        <ele>80</ele>
        <time>2011-12-11T09:33:46Z</time>
      </trkpt>
      <trkpt lat="46.99901" lon="-1.07065">
        <ele>80</ele>
        <time>2011-12-11T09:33:48Z</time>
      </trkpt>
      <trkpt lat="46.99902" lon="-1.07068">
        <ele>80</ele>
        <time>2011-12-11T09:33:50Z</time>
      </trkpt>
      <trkpt lat="46.99903" lon="-1.0707">
        <ele>80</ele>
        <time>2011-12-11T09:33:51Z</time>
      </trkpt>
      <trkpt lat="46.99903" lon="-1.07071">
        <ele>80</ele>
        <time>2011-12-11T09:33:52Z</time>
      </trkpt>
      <trkpt lat="46.99903" lon="-1.07073">
        <ele>79</ele>
        <time>2011-12-11T09:33:53Z</time>
      </trkpt>
      <trkpt lat="46.99904" lon="-1.07074">
        <ele>79</ele>
        <time>2011-12-11T09:33:54Z</time>
      </trkpt>
      <trkpt lat="46.99904" lon="-1.07076">
        <ele>79</ele>
        <time>2011-12-11T09:33:55Z</time>
      </trkpt>
      <trkpt lat="46.99905" lon="-1.07079">
        <ele>79</ele>
        <time>2011-12-11T09:33:57Z</time>
      </trkpt>
      <trkpt lat="46.99905" lon="-1.07081">
        <ele>79</ele>
        <time>2011-12-11T09:33:58Z</time>
      </trkpt>
      <trkpt lat="46.99906" lon="-1.07084">
        <ele>79</ele>
        <time>2011-12-11T09:33:59Z</time>
      </trkpt>
      <trkpt lat="46.99906" lon="-1.07086">
        <ele>79</ele>
        <time>2011-12-11T09:34:00Z</time>
      </trkpt>
      <trkpt lat="46.99906" lon="-1.07088">
        <ele>79</ele>
        <time>2011-12-11T09:34:01Z</time>
      </trkpt>
      <trkpt lat="46.99907" lon="-1.07089">
        <ele>79</ele>
        <time>2011-12-11T09:34:02Z</time>
      </trkpt>
      <trkpt lat="46.99907" lon="-1.07091">
        <ele>79</ele>
        <time>2011-12-11T09:34:03Z</time>
      </trkpt>
      <trkpt lat="46.99907" lon="-1.07093">
        <ele>78</ele>
        <time>2011-12-11T09:34:04Z</time>
      </trkpt>
      <trkpt lat="46.99907" lon="-1.07095">
        <ele>78</ele>
        <time>2011-12-11T09:34:05Z</time>
      </trkpt>
      <trkpt lat="46.99908" lon="-1.07097">
        <ele>78</ele>
        <time>2011-12-11T09:34:06Z</time>
      </trkpt>
      <trkpt lat="46.99908" lon="-1.07098">
        <ele>78</ele>
        <time>2011-12-11T09:34:07Z</time>
      </trkpt>
      <trkpt lat="46.99908" lon="-1.071">
        <ele>78</ele>
        <time>2011-12-11T09:34:08Z</time>
      </trkpt>
      <trkpt lat="46.99909" lon="-1.07102">
        <ele>78</ele>
        <time>2011-12-11T09:34:09Z</time>
      </trkpt>
      <trkpt lat="46.99909" lon="-1.07103">
        <ele>77</ele>
        <time>2011-12-11T09:34:10Z</time>
      </trkpt>
      <trkpt lat="46.9991" lon="-1.07105">
        <ele>77</ele>
        <time>2011-12-11T09:34:11Z</time>
      </trkpt>
      <trkpt lat="46.9991" lon="-1.07107">
        <ele>77</ele>
        <time>2011-12-11T09:34:12Z</time>
      </trkpt>
      <trkpt lat="46.9991" lon="-1.07108">
        <ele>77</ele>
        <time>2011-12-11T09:34:13Z</time>
      </trkpt>
      <trkpt lat="46.9991" lon="-1.0711">
        <ele>77</ele>
        <time>2011-12-11T09:34:14Z</time>
      </trkpt>
      <trkpt lat="46.9991" lon="-1.07112">
        <ele>77</ele>
        <time>2011-12-11T09:34:15Z</time>
      </trkpt>
      <trkpt lat="46.9991" lon="-1.07114">
        <ele>77</ele>
        <time>2011-12-11T09:34:16Z</time>
      </trkpt>
      <trkpt lat="46.9991" lon="-1.07116">
        <ele>77</ele>
        <time>2011-12-11T09:34:17Z</time>
      </trkpt>
      <trkpt lat="46.99911" lon="-1.07118">
        <ele>77</ele>
        <time>2011-12-11T09:34:18Z</time>
      </trkpt>
      <trkpt lat="46.99911" lon="-1.0712">
        <ele>77</ele>
        <time>2011-12-11T09:34:19Z</time>
      </trkpt>
      <trkpt lat="46.99911" lon="-1.07122">
        <ele>77</ele>
        <time>2011-12-11T09:34:20Z</time>
      </trkpt>
      <trkpt lat="46.99911" lon="-1.07123">
        <ele>77</ele>
        <time>2011-12-11T09:34:21Z</time>
      </trkpt>
      <trkpt lat="46.99911" lon="-1.07125">
        <ele>77</ele>
        <time>2011-12-11T09:34:22Z</time>
      </trkpt>
      <trkpt lat="46.99911" lon="-1.07127">
        <ele>77</ele>
        <time>2011-12-11T09:34:23Z</time>
      </trkpt>
      <trkpt lat="46.99911" lon="-1.07129">
        <ele>77</ele>
        <time>2011-12-11T09:34:24Z</time>
      </trkpt>
      <trkpt lat="46.99911" lon="-1.07131">
        <ele>77</ele>
        <time>2011-12-11T09:34:25Z</time>
      </trkpt>
      <trkpt lat="46.99911" lon="-1.07133">
        <ele>77</ele>
        <time>2011-12-11T09:34:26Z</time>
      </trkpt>
      <trkpt lat="46.99911" lon="-1.07135">
        <ele>76</ele>
        <time>2011-12-11T09:34:27Z</time>
      </trkpt>
      <trkpt lat="46.99912" lon="-1.07137">
        <ele>76</ele>
        <time>2011-12-11T09:34:28Z</time>
      </trkpt>
      <trkpt lat="46.99912" lon="-1.07138">
        <ele>76</ele>
        <time>2011-12-11T09:34:29Z</time>
      </trkpt>
      <trkpt lat="46.99912" lon="-1.0714">
        <ele>76</ele>
        <time>2011-12-11T09:34:30Z</time>
      </trkpt>
      <trkpt lat="46.99912" lon="-1.07142">
        <ele>76</ele>
        <time>2011-12-11T09:34:31Z</time>
      </trkpt>
      <trkpt lat="46.99912" lon="-1.07143">
        <ele>76</ele>
        <time>2011-12-11T09:34:32Z</time>
      </trkpt>
      <trkpt lat="46.99912" lon="-1.07145">
        <ele>76</ele>
        <time>2011-12-11T09:34:33Z</time>
      </trkpt>
      <trkpt lat="46.99913" lon="-1.07147">
        <ele>76</ele>
        <time>2011-12-11T09:34:34Z</time>
      </trkpt>
      <trkpt lat="46.99913" lon="-1.07149">
        <ele>75</ele>
        <time>2011-12-11T09:34:35Z</time>
      </trkpt>
      <trkpt lat="46.99913" lon="-1.0715">
        <ele>75</ele>
        <time>2011-12-11T09:34:36Z</time>
      </trkpt>
      <trkpt lat="46.99913" lon="-1.07152">
        <ele>75</ele>
        <time>2011-12-11T09:34:37Z</time>
      </trkpt>
      <trkpt lat="46.99913" lon="-1.07154">
        <ele>75</ele>
        <time>2011-12-11T09:34:38Z</time>
      </trkpt>
      <trkpt lat="46.99913" lon="-1.07156">
        <ele>75</ele>
        <time>2011-12-11T09:34:39Z</time>
      </trkpt>
      <trkpt lat="46.99914" lon="-1.07158">
        <ele>75</ele>
        <time>2011-12-11T09:34:40Z</time>
      </trkpt>
      <trkpt lat="46.99914" lon="-1.0716">
        <ele>75</ele>
        <time>2011-12-11T09:34:41Z</time>
      </trkpt>
      <trkpt lat="46.99914" lon="-1.07161">
        <ele>75</ele>
        <time>2011-12-11T09:34:42Z</time>
      </trkpt>
      <trkpt lat="46.99914" lon="-1.07163">
        <ele>75</ele>
        <time>2011-12-11T09:34:43Z</time>
      </trkpt>
      <trkpt lat="46.99914" lon="-1.07165">
        <ele>75</ele>
        <time>2011-12-11T09:34:44Z</time>
      </trkpt>
      <trkpt lat="46.99914" lon="-1.07167">
        <ele>75</ele>
        <time>2011-12-11T09:34:45Z</time>
      </trkpt>
      <trkpt lat="46.99914" lon="-1.07169">
        <ele>75</ele>
        <time>2011-12-11T09:34:46Z</time>
      </trkpt>
      <trkpt lat="46.99915" lon="-1.0717">
        <ele>75</ele>
        <time>2011-12-11T09:34:47Z</time>
      </trkpt>
      <trkpt lat="46.99915" lon="-1.07172">
        <ele>75</ele>
        <time>2011-12-11T09:34:48Z</time>
      </trkpt>
      <trkpt lat="46.99915" lon="-1.07174">
        <ele>75</ele>
        <time>2011-12-11T09:34:49Z</time>
      </trkpt>
      <trkpt lat="46.99915" lon="-1.07176">
        <ele>75</ele>
        <time>2011-12-11T09:34:50Z</time>
      </trkpt>
      <trkpt lat="46.99915" lon="-1.07177">
        <ele>75</ele>
        <time>2011-12-11T09:34:51Z</time>
      </trkpt>
      <trkpt lat="46.99915" lon="-1.07179">
        <ele>75</ele>
        <time>2011-12-11T09:34:52Z</time>
      </trkpt>
      <trkpt lat="46.99915" lon="-1.07181">
        <ele>75</ele>
        <time>2011-12-11T09:34:53Z</time>
      </trkpt>
      <trkpt lat="46.99915" lon="-1.07183">
        <ele>74</ele>
        <time>2011-12-11T09:34:54Z</time>
      </trkpt>
      <trkpt lat="46.99915" lon="-1.07185">
        <ele>74</ele>
        <time>2011-12-11T09:34:55Z</time>
      </trkpt>
      <trkpt lat="46.99915" lon="-1.07187">
        <ele>74</ele>
        <time>2011-12-11T09:34:56Z</time>
      </trkpt>
      <trkpt lat="46.99915" lon="-1.07189">
        <ele>74</ele>
        <time>2011-12-11T09:34:57Z</time>
      </trkpt>
      <trkpt lat="46.99916" lon="-1.07191">
        <ele>74</ele>
        <time>2011-12-11T09:34:58Z</time>
      </trkpt>
      <trkpt lat="46.99916" lon="-1.07193">
        <ele>74</ele>
        <time>2011-12-11T09:34:59Z</time>
      </trkpt>
      <trkpt lat="46.99916" lon="-1.07194">
        <ele>74</ele>
        <time>2011-12-11T09:35:00Z</time>
      </trkpt>
      <trkpt lat="46.99916" lon="-1.07196">
        <ele>74</ele>
        <time>2011-12-11T09:35:01Z</time>
      </trkpt>
      <trkpt lat="46.99916" lon="-1.07198">
        <ele>74</ele>
        <time>2011-12-11T09:35:02Z</time>
      </trkpt>
      <trkpt lat="46.99916" lon="-1.072">
        <ele>74</ele>
        <time>2011-12-11T09:35:03Z</time>
      </trkpt>
      <trkpt lat="46.99916" lon="-1.07202">
        <ele>74</ele>
        <time>2011-12-11T09:35:04Z</time>
      </trkpt>
      <trkpt lat="46.99916" lon="-1.07204">
        <ele>74</ele>
        <time>2011-12-11T09:35:05Z</time>
      </trkpt>
      <trkpt lat="46.99916" lon="-1.07205">
        <ele>74</ele>
        <time>2011-12-11T09:35:06Z</time>
      </trkpt>
      <trkpt lat="46.99916" lon="-1.07207">
        <ele>74</ele>
        <time>2011-12-11T09:35:07Z</time>
      </trkpt>
      <trkpt lat="46.99916" lon="-1.07209">
        <ele>74</ele>
        <time>2011-12-11T09:35:08Z</time>
      </trkpt>
      <trkpt lat="46.99917" lon="-1.07211">
        <ele>74</ele>
        <time>2011-12-11T09:35:09Z</time>
      </trkpt>
      <trkpt lat="46.99917" lon="-1.07213">
        <ele>73</ele>
        <time>2011-12-11T09:35:10Z</time>
      </trkpt>
      <trkpt lat="46.99917" lon="-1.07216">
        <ele>73</ele>
        <time>2011-12-11T09:35:11Z</time>
      </trkpt>
      <trkpt lat="46.99917" lon="-1.07218">
        <ele>73</ele>
        <time>2011-12-11T09:35:12Z</time>
      </trkpt>
      <trkpt lat="46.99917" lon="-1.0722">
        <ele>73</ele>
        <time>2011-12-11T09:35:13Z</time>
      </trkpt>
      <trkpt lat="46.99917" lon="-1.07221">
        <ele>73</ele>
        <time>2011-12-11T09:35:14Z</time>
      </trkpt>
      <trkpt lat="46.99917" lon="-1.07223">
        <ele>73</ele>
        <time>2011-12-11T09:35:15Z</time>
      </trkpt>
      <trkpt lat="46.99917" lon="-1.07225">
        <ele>73</ele>
        <time>2011-12-11T09:35:16Z</time>
      </trkpt>
      <trkpt lat="46.99917" lon="-1.07227">
        <ele>73</ele>
        <time>2011-12-11T09:35:17Z</time>
      </trkpt>
      <trkpt lat="46.99917" lon="-1.07228">
        <ele>73</ele>
        <time>2011-12-11T09:35:18Z</time>
      </trkpt>
      <trkpt lat="46.99918" lon="-1.0723">
        <ele>73</ele>
        <time>2011-12-11T09:35:19Z</time>
      </trkpt>
      <trkpt lat="46.99918" lon="-1.07232">
        <ele>73</ele>
        <time>2011-12-11T09:35:20Z</time>
      </trkpt>
      <trkpt lat="46.99917" lon="-1.07234">
        <ele>73</ele>
        <time>2011-12-11T09:35:21Z</time>
      </trkpt>
      <trkpt lat="46.99917" lon="-1.07236">
        <ele>73</ele>
        <time>2011-12-11T09:35:22Z</time>
      </trkpt>
      <trkpt lat="46.99917" lon="-1.07238">
        <ele>73</ele>
        <time>2011-12-11T09:35:23Z</time>
      </trkpt>
      <trkpt lat="46.99917" lon="-1.07239">
        <ele>73</ele>
        <time>2011-12-11T09:35:24Z</time>
      </trkpt>
      <trkpt lat="46.99918" lon="-1.07241">
        <ele>73</ele>
        <time>2011-12-11T09:35:25Z</time>
      </trkpt>
      <trkpt lat="46.99918" lon="-1.07243">
        <ele>73</ele>
        <time>2011-12-11T09:35:26Z</time>
      </trkpt>
      <trkpt lat="46.99918" lon="-1.07245">
        <ele>73</ele>
        <time>2011-12-11T09:35:27Z</time>
      </trkpt>
      <trkpt lat="46.99918" lon="-1.07247">
        <ele>73</ele>
        <time>2011-12-11T09:35:28Z</time>
      </trkpt>
      <trkpt lat="46.99918" lon="-1.07249">
        <ele>73</ele>
        <time>2011-12-11T09:35:29Z</time>
      </trkpt>
      <trkpt lat="46.99918" lon="-1.0725">
        <ele>73</ele>
        <time>2011-12-11T09:35:30Z</time>
      </trkpt>
      <trkpt lat="46.99918" lon="-1.07252">
        <ele>73</ele>
        <time>2011-12-11T09:35:31Z</time>
      </trkpt>
      <trkpt lat="46.99918" lon="-1.07254">
        <ele>72</ele>
        <time>2011-12-11T09:35:32Z</time>
      </trkpt>
      <trkpt lat="46.99919" lon="-1.07255">
        <ele>72</ele>
        <time>2011-12-11T09:35:33Z</time>
      </trkpt>
      <trkpt lat="46.99919" lon="-1.07257">
        <ele>72</ele>
        <time>2011-12-11T09:35:34Z</time>
      </trkpt>
      <trkpt lat="46.99919" lon="-1.07259">
        <ele>72</ele>
        <time>2011-12-11T09:35:35Z</time>
      </trkpt>
      <trkpt lat="46.99919" lon="-1.07261">
        <ele>72</ele>
        <time>2011-12-11T09:35:36Z</time>
      </trkpt>
      <trkpt lat="46.99919" lon="-1.07262">
        <ele>72</ele>
        <time>2011-12-11T09:35:37Z</time>
      </trkpt>
      <trkpt lat="46.99919" lon="-1.07264">
        <ele>71</ele>
        <time>2011-12-11T09:35:38Z</time>
      </trkpt>
      <trkpt lat="46.99919" lon="-1.07265">
        <ele>71</ele>
        <time>2011-12-11T09:35:39Z</time>
      </trkpt>
      <trkpt lat="46.99919" lon="-1.07267">
        <ele>71</ele>
        <time>2011-12-11T09:35:40Z</time>
      </trkpt>
      <trkpt lat="46.9992" lon="-1.07269">
        <ele>71</ele>
        <time>2011-12-11T09:35:41Z</time>
      </trkpt>
      <trkpt lat="46.9992" lon="-1.07271">
        <ele>71</ele>
        <time>2011-12-11T09:35:42Z</time>
      </trkpt>
      <trkpt lat="46.9992" lon="-1.07272">
        <ele>71</ele>
        <time>2011-12-11T09:35:43Z</time>
      </trkpt>
      <trkpt lat="46.9992" lon="-1.07274">
        <ele>71</ele>
        <time>2011-12-11T09:35:44Z</time>
      </trkpt>
      <trkpt lat="46.9992" lon="-1.07275">
        <ele>71</ele>
        <time>2011-12-11T09:35:45Z</time>
      </trkpt>
      <trkpt lat="46.9992" lon="-1.07277">
        <ele>71</ele>
        <time>2011-12-11T09:35:46Z</time>
      </trkpt>
      <trkpt lat="46.99921" lon="-1.07279">
        <ele>71</ele>
        <time>2011-12-11T09:35:47Z</time>
      </trkpt>
      <trkpt lat="46.99921" lon="-1.07281">
        <ele>71</ele>
        <time>2011-12-11T09:35:48Z</time>
      </trkpt>
      <trkpt lat="46.99921" lon="-1.07283">
        <ele>71</ele>
        <time>2011-12-11T09:35:49Z</time>
      </trkpt>
      <trkpt lat="46.99921" lon="-1.07284">
        <ele>71</ele>
        <time>2011-12-11T09:35:50Z</time>
      </trkpt>
      <trkpt lat="46.99921" lon="-1.07286">
        <ele>71</ele>
        <time>2011-12-11T09:35:51Z</time>
      </trkpt>
      <trkpt lat="46.99921" lon="-1.07288">
        <ele>71</ele>
        <time>2011-12-11T09:35:52Z</time>
      </trkpt>
      <trkpt lat="46.99921" lon="-1.0729">
        <ele>71</ele>
        <time>2011-12-11T09:35:53Z</time>
      </trkpt>
      <trkpt lat="46.99922" lon="-1.07291">
        <ele>71</ele>
        <time>2011-12-11T09:35:54Z</time>
      </trkpt>
      <trkpt lat="46.99922" lon="-1.07293">
        <ele>71</ele>
        <time>2011-12-11T09:35:55Z</time>
      </trkpt>
      <trkpt lat="46.99922" lon="-1.07295">
        <ele>71</ele>
        <time>2011-12-11T09:35:56Z</time>
      </trkpt>
      <trkpt lat="46.99922" lon="-1.07297">
        <ele>71</ele>
        <time>2011-12-11T09:35:57Z</time>
      </trkpt>
      <trkpt lat="46.99922" lon="-1.07299">
        <ele>71</ele>
        <time>2011-12-11T09:35:58Z</time>
      </trkpt>
      <trkpt lat="46.99922" lon="-1.07301">
        <ele>71</ele>
        <time>2011-12-11T09:35:59Z</time>
      </trkpt>
      <trkpt lat="46.99922" lon="-1.07303">
        <ele>71</ele>
        <time>2011-12-11T09:36:00Z</time>
      </trkpt>
      <trkpt lat="46.99922" lon="-1.07305">
        <ele>71</ele>
        <time>2011-12-11T09:36:01Z</time>
      </trkpt>
      <trkpt lat="46.99922" lon="-1.07306">
        <ele>71</ele>
        <time>2011-12-11T09:36:02Z</time>
      </trkpt>
      <trkpt lat="46.99922" lon="-1.07308">
        <ele>71</ele>
        <time>2011-12-11T09:36:03Z</time>
      </trkpt>
      <trkpt lat="46.99922" lon="-1.07309">
        <ele>71</ele>
        <time>2011-12-11T09:36:04Z</time>
      </trkpt>
      <trkpt lat="46.99922" lon="-1.07311">
        <ele>71</ele>
        <time>2011-12-11T09:36:05Z</time>
      </trkpt>
      <trkpt lat="46.99922" lon="-1.07313">
        <ele>71</ele>
        <time>2011-12-11T09:36:06Z</time>
      </trkpt>
      <trkpt lat="46.99922" lon="-1.07315">
        <ele>71</ele>
        <time>2011-12-11T09:36:07Z</time>
      </trkpt>
      <trkpt lat="46.99922" lon="-1.07317">
        <ele>71</ele>
        <time>2011-12-11T09:36:08Z</time>
      </trkpt>
      <trkpt lat="46.99921" lon="-1.07318">
        <ele>71</ele>
        <time>2011-12-11T09:36:09Z</time>
      </trkpt>
      <trkpt lat="46.99921" lon="-1.0732">
        <ele>71</ele>
        <time>2011-12-11T09:36:10Z</time>
      </trkpt>
      <trkpt lat="46.99921" lon="-1.07322">
        <ele>71</ele>
        <time>2011-12-11T09:36:11Z</time>
      </trkpt>
      <trkpt lat="46.99921" lon="-1.07325">
        <ele>71</ele>
        <time>2011-12-11T09:36:13Z</time>
      </trkpt>
      <trkpt lat="46.99921" lon="-1.07326">
        <ele>70</ele>
        <time>2011-12-11T09:36:14Z</time>
      </trkpt>
      <trkpt lat="46.99921" lon="-1.07328">
        <ele>70</ele>
        <time>2011-12-11T09:36:15Z</time>
      </trkpt>
      <trkpt lat="46.99921" lon="-1.0733">
        <ele>70</ele>
        <time>2011-12-11T09:36:16Z</time>
      </trkpt>
      <trkpt lat="46.9992" lon="-1.07333">
        <ele>70</ele>
        <time>2011-12-11T09:36:17Z</time>
      </trkpt>
      <trkpt lat="46.9992" lon="-1.07335">
        <ele>70</ele>
        <time>2011-12-11T09:36:18Z</time>
      </trkpt>
      <trkpt lat="46.9992" lon="-1.07337">
        <ele>70</ele>
        <time>2011-12-11T09:36:19Z</time>
      </trkpt>
      <trkpt lat="46.99919" lon="-1.07339">
        <ele>70</ele>
        <time>2011-12-11T09:36:20Z</time>
      </trkpt>
      <trkpt lat="46.99919" lon="-1.0734">
        <ele>70</ele>
        <time>2011-12-11T09:36:21Z</time>
      </trkpt>
      <trkpt lat="46.99919" lon="-1.07342">
        <ele>70</ele>
        <time>2011-12-11T09:36:22Z</time>
      </trkpt>
      <trkpt lat="46.99918" lon="-1.07344">
        <ele>70</ele>
        <time>2011-12-11T09:36:23Z</time>
      </trkpt>
      <trkpt lat="46.99918" lon="-1.07346">
        <ele>70</ele>
        <time>2011-12-11T09:36:24Z</time>
      </trkpt>
      <trkpt lat="46.99918" lon="-1.07348">
        <ele>69</ele>
        <time>2011-12-11T09:36:25Z</time>
      </trkpt>
      <trkpt lat="46.99917" lon="-1.0735">
        <ele>69</ele>
        <time>2011-12-11T09:36:26Z</time>
      </trkpt>
      <trkpt lat="46.99917" lon="-1.07351">
        <ele>69</ele>
        <time>2011-12-11T09:36:27Z</time>
      </trkpt>
      <trkpt lat="46.99916" lon="-1.07353">
        <ele>69</ele>
        <time>2011-12-11T09:36:28Z</time>
      </trkpt>
      <trkpt lat="46.99915" lon="-1.07354">
        <ele>68</ele>
        <time>2011-12-11T09:36:29Z</time>
      </trkpt>
      <trkpt lat="46.99915" lon="-1.07356">
        <ele>68</ele>
        <time>2011-12-11T09:36:30Z</time>
      </trkpt>
      <trkpt lat="46.99914" lon="-1.07358">
        <ele>68</ele>
        <time>2011-12-11T09:36:31Z</time>
      </trkpt>
      <trkpt lat="46.99914" lon="-1.0736">
        <ele>68</ele>
        <time>2011-12-11T09:36:32Z</time>
      </trkpt>
      <trkpt lat="46.99913" lon="-1.07361">
        <ele>68</ele>
        <time>2011-12-11T09:36:33Z</time>
      </trkpt>
      <trkpt lat="46.99913" lon="-1.07363">
        <ele>68</ele>
        <time>2011-12-11T09:36:34Z</time>
      </trkpt>
      <trkpt lat="46.99912" lon="-1.07365">
        <ele>68</ele>
        <time>2011-12-11T09:36:35Z</time>
      </trkpt>
      <trkpt lat="46.99911" lon="-1.07367">
        <ele>67</ele>
        <time>2011-12-11T09:36:36Z</time>
      </trkpt>
      <trkpt lat="46.9991" lon="-1.07369">
        <ele>67</ele>
        <time>2011-12-11T09:36:37Z</time>
      </trkpt>
      <trkpt lat="46.9991" lon="-1.07371">
        <ele>67</ele>
        <time>2011-12-11T09:36:38Z</time>
      </trkpt>
      <trkpt lat="46.99909" lon="-1.07372">
        <ele>67</ele>
        <time>2011-12-11T09:36:39Z</time>
      </trkpt>
      <trkpt lat="46.99908" lon="-1.07374">
        <ele>67</ele>
        <time>2011-12-11T09:36:40Z</time>
      </trkpt>
      <trkpt lat="46.99908" lon="-1.07376">
        <ele>66</ele>
        <time>2011-12-11T09:36:41Z</time>
      </trkpt>
      <trkpt lat="46.99907" lon="-1.07378">
        <ele>66</ele>
        <time>2011-12-11T09:36:42Z</time>
      </trkpt>
      <trkpt lat="46.99906" lon="-1.0738">
        <ele>66</ele>
        <time>2011-12-11T09:36:43Z</time>
      </trkpt>
      <trkpt lat="46.99905" lon="-1.07382">
        <ele>66</ele>
        <time>2011-12-11T09:36:44Z</time>
      </trkpt>
      <trkpt lat="46.99905" lon="-1.07383">
        <ele>66</ele>
        <time>2011-12-11T09:36:45Z</time>
      </trkpt>
      <trkpt lat="46.99904" lon="-1.07385">
        <ele>66</ele>
        <time>2011-12-11T09:36:46Z</time>
      </trkpt>
      <trkpt lat="46.99903" lon="-1.07386">
        <ele>66</ele>
        <time>2011-12-11T09:36:47Z</time>
      </trkpt>
      <trkpt lat="46.99902" lon="-1.07388">
        <ele>66</ele>
        <time>2011-12-11T09:36:48Z</time>
      </trkpt>
      <trkpt lat="46.99901" lon="-1.07389">
        <ele>66</ele>
        <time>2011-12-11T09:36:49Z</time>
      </trkpt>
      <trkpt lat="46.999" lon="-1.07391">
        <ele>65</ele>
        <time>2011-12-11T09:36:50Z</time>
      </trkpt>
      <trkpt lat="46.999" lon="-1.07392">
        <ele>65</ele>
        <time>2011-12-11T09:36:51Z</time>
      </trkpt>
      <trkpt lat="46.99898" lon="-1.07395">
        <ele>65</ele>
        <time>2011-12-11T09:36:53Z</time>
      </trkpt>
      <trkpt lat="46.99897" lon="-1.07397">
        <ele>65</ele>
        <time>2011-12-11T09:36:54Z</time>
      </trkpt>
      <trkpt lat="46.99897" lon="-1.07399">
        <ele>65</ele>
        <time>2011-12-11T09:36:55Z</time>
      </trkpt>
      <trkpt lat="46.99897" lon="-1.07402">
        <ele>65</ele>
        <time>2011-12-11T09:36:56Z</time>
      </trkpt>
      <trkpt lat="46.99897" lon="-1.07405">
        <ele>64</ele>
        <time>2011-12-11T09:36:57Z</time>
      </trkpt>
      <trkpt lat="46.99897" lon="-1.07407">
        <ele>64</ele>
        <time>2011-12-11T09:36:58Z</time>
      </trkpt>
      <trkpt lat="46.999" lon="-1.0741">
        <ele>64</ele>
        <time>2011-12-11T09:37:00Z</time>
      </trkpt>
      <trkpt lat="46.99901" lon="-1.07412">
        <ele>64</ele>
        <time>2011-12-11T09:37:02Z</time>
      </trkpt>
      <trkpt lat="46.99902" lon="-1.07414">
        <ele>64</ele>
        <time>2011-12-11T09:37:04Z</time>
      </trkpt>
      <trkpt lat="46.99903" lon="-1.07415">
        <ele>64</ele>
        <time>2011-12-11T09:37:06Z</time>
      </trkpt>
      <trkpt lat="46.99905" lon="-1.07416">
        <ele>64</ele>
        <time>2011-12-11T09:37:07Z</time>
      </trkpt>
      <trkpt lat="46.99906" lon="-1.07416">
        <ele>64</ele>
        <time>2011-12-11T09:37:08Z</time>
      </trkpt>
      <trkpt lat="46.99908" lon="-1.07416">
        <ele>64</ele>
        <time>2011-12-11T09:37:09Z</time>
      </trkpt>
      <trkpt lat="46.9991" lon="-1.07417">
        <ele>64</ele>
        <time>2011-12-11T09:37:11Z</time>
      </trkpt>
      <trkpt lat="46.99911" lon="-1.07418">
        <ele>64</ele>
        <time>2011-12-11T09:37:12Z</time>
      </trkpt>
      <trkpt lat="46.99912" lon="-1.07417">
        <ele>64</ele>
        <time>2011-12-11T09:37:13Z</time>
      </trkpt>
      <trkpt lat="46.99913" lon="-1.07419">
        <ele>64</ele>
        <time>2011-12-11T09:37:15Z</time>
      </trkpt>
      <trkpt lat="46.99913" lon="-1.07421">
        <ele>64</ele>
        <time>2011-12-11T09:37:16Z</time>
      </trkpt>
      <trkpt lat="46.99914" lon="-1.07422">
        <ele>64</ele>
        <time>2011-12-11T09:37:17Z</time>
      </trkpt>
      <trkpt lat="46.99916" lon="-1.07423">
        <ele>64</ele>
        <time>2011-12-11T09:37:18Z</time>
      </trkpt>
      <trkpt lat="46.99918" lon="-1.07424">
        <ele>64</ele>
        <time>2011-12-11T09:37:20Z</time>
      </trkpt>
      <trkpt lat="46.9992" lon="-1.07424">
        <ele>64</ele>
        <time>2011-12-11T09:37:21Z</time>
      </trkpt>
      <trkpt lat="46.99921" lon="-1.07425">
        <ele>64</ele>
        <time>2011-12-11T09:37:23Z</time>
      </trkpt>
      <trkpt lat="46.99923" lon="-1.07427">
        <ele>64</ele>
        <time>2011-12-11T09:37:25Z</time>
      </trkpt>
      <trkpt lat="46.99926" lon="-1.07428">
        <ele>64</ele>
        <time>2011-12-11T09:37:27Z</time>
      </trkpt>
      <trkpt lat="46.99928" lon="-1.07428">
        <ele>64</ele>
        <time>2011-12-11T09:37:28Z</time>
      </trkpt>
      <trkpt lat="46.99929" lon="-1.07428">
        <ele>64</ele>
        <time>2011-12-11T09:37:29Z</time>
      </trkpt>
      <trkpt lat="46.99931" lon="-1.07428">
        <ele>64</ele>
        <time>2011-12-11T09:37:30Z</time>
      </trkpt>
      <trkpt lat="46.99933" lon="-1.07429">
        <ele>64</ele>
        <time>2011-12-11T09:37:31Z</time>
      </trkpt>
      <trkpt lat="46.99935" lon="-1.07429">
        <ele>64</ele>
        <time>2011-12-11T09:37:33Z</time>
      </trkpt>
      <trkpt lat="46.99936" lon="-1.07429">
        <ele>64</ele>
        <time>2011-12-11T09:37:34Z</time>
      </trkpt>
      <trkpt lat="46.99938" lon="-1.0743">
        <ele>64</ele>
        <time>2011-12-11T09:37:36Z</time>
      </trkpt>
      <trkpt lat="46.9994" lon="-1.07431">
        <ele>64</ele>
        <time>2011-12-11T09:37:38Z</time>
      </trkpt>
      <trkpt lat="46.99941" lon="-1.07431">
        <ele>63</ele>
        <time>2011-12-11T09:37:39Z</time>
      </trkpt>
      <trkpt lat="46.99943" lon="-1.07431">
        <ele>63</ele>
        <time>2011-12-11T09:37:41Z</time>
      </trkpt>
      <trkpt lat="46.99946" lon="-1.07432">
        <ele>62</ele>
        <time>2011-12-11T09:37:43Z</time>
      </trkpt>
      <trkpt lat="46.99947" lon="-1.07432">
        <ele>62</ele>
        <time>2011-12-11T09:37:44Z</time>
      </trkpt>
      <trkpt lat="46.99948" lon="-1.07432">
        <ele>62</ele>
        <time>2011-12-11T09:37:45Z</time>
      </trkpt>
      <trkpt lat="46.9995" lon="-1.07432">
        <ele>62</ele>
        <time>2011-12-11T09:37:46Z</time>
      </trkpt>
      <trkpt lat="46.99951" lon="-1.07433">
        <ele>62</ele>
        <time>2011-12-11T09:37:47Z</time>
      </trkpt>
      <trkpt lat="46.99952" lon="-1.07433">
        <ele>62</ele>
        <time>2011-12-11T09:37:48Z</time>
      </trkpt>
      <trkpt lat="46.99953" lon="-1.07433">
        <ele>62</ele>
        <time>2011-12-11T09:37:49Z</time>
      </trkpt>
      <trkpt lat="46.99956" lon="-1.07433">
        <ele>62</ele>
        <time>2011-12-11T09:37:50Z</time>
      </trkpt>
      <trkpt lat="46.99959" lon="-1.07434">
        <ele>62</ele>
        <time>2011-12-11T09:37:51Z</time>
      </trkpt>
      <trkpt lat="46.99961" lon="-1.07434">
        <ele>62</ele>
        <time>2011-12-11T09:37:52Z</time>
      </trkpt>
      <trkpt lat="46.99962" lon="-1.07433">
        <ele>62</ele>
        <time>2011-12-11T09:37:53Z</time>
      </trkpt>
      <trkpt lat="46.99965" lon="-1.07433">
        <ele>62</ele>
        <time>2011-12-11T09:37:54Z</time>
      </trkpt>
      <trkpt lat="46.99967" lon="-1.07433">
        <ele>62</ele>
        <time>2011-12-11T09:37:55Z</time>
      </trkpt>
      <trkpt lat="46.99969" lon="-1.07433">
        <ele>62</ele>
        <time>2011-12-11T09:37:56Z</time>
      </trkpt>
      <trkpt lat="46.9997" lon="-1.07432">
        <ele>62</ele>
        <time>2011-12-11T09:37:57Z</time>
      </trkpt>
      <trkpt lat="46.99972" lon="-1.07432">
        <ele>62</ele>
        <time>2011-12-11T09:37:59Z</time>
      </trkpt>
      <trkpt lat="46.99974" lon="-1.07432">
        <ele>62</ele>
        <time>2011-12-11T09:38:01Z</time>
      </trkpt>
      <trkpt lat="46.99976" lon="-1.07431">
        <ele>62</ele>
        <time>2011-12-11T09:38:03Z</time>
      </trkpt>
      <trkpt lat="46.99977" lon="-1.0743">
        <ele>62</ele>
        <time>2011-12-11T09:38:04Z</time>
      </trkpt>
      <trkpt lat="46.99979" lon="-1.07429">
        <ele>62</ele>
        <time>2011-12-11T09:38:06Z</time>
      </trkpt>
      <trkpt lat="46.9998" lon="-1.07428">
        <ele>62</ele>
        <time>2011-12-11T09:38:07Z</time>
      </trkpt>
      <trkpt lat="46.99982" lon="-1.07427">
        <ele>62</ele>
        <time>2011-12-11T09:38:09Z</time>
      </trkpt>
      <trkpt lat="46.99984" lon="-1.07425">
        <ele>62</ele>
        <time>2011-12-11T09:38:11Z</time>
      </trkpt>
      <trkpt lat="46.99985" lon="-1.07424">
        <ele>62</ele>
        <time>2011-12-11T09:38:12Z</time>
      </trkpt>
      <trkpt lat="46.99987" lon="-1.07423">
        <ele>62</ele>
        <time>2011-12-11T09:38:13Z</time>
      </trkpt>
      <trkpt lat="46.99988" lon="-1.07421">
        <ele>62</ele>
        <time>2011-12-11T09:38:15Z</time>
      </trkpt>
      <trkpt lat="46.9999" lon="-1.0742">
        <ele>62</ele>
        <time>2011-12-11T09:38:17Z</time>
      </trkpt>
      <trkpt lat="46.99992" lon="-1.07418">
        <ele>62</ele>
        <time>2011-12-11T09:38:19Z</time>
      </trkpt>
      <trkpt lat="46.99994" lon="-1.07416">
        <ele>62</ele>
        <time>2011-12-11T09:38:21Z</time>
      </trkpt>
      <trkpt lat="46.99996" lon="-1.07415">
        <ele>62</ele>
        <time>2011-12-11T09:38:23Z</time>
      </trkpt>
      <trkpt lat="46.99998" lon="-1.07413">
        <ele>62</ele>
        <time>2011-12-11T09:38:25Z</time>
      </trkpt>
      <trkpt lat="46.99999" lon="-1.07413">
        <ele>62</ele>
        <time>2011-12-11T09:38:26Z</time>
      </trkpt>
      <trkpt lat="47" lon="-1.07411">
        <ele>62</ele>
        <time>2011-12-11T09:38:28Z</time>
      </trkpt>
      <trkpt lat="47.00002" lon="-1.0741">
        <ele>62</ele>
        <time>2011-12-11T09:38:30Z</time>
      </trkpt>
      <trkpt lat="47.00004" lon="-1.07408">
        <ele>62</ele>
        <time>2011-12-11T09:38:32Z</time>
      </trkpt>
      <trkpt lat="47.00006" lon="-1.07406">
        <ele>62</ele>
        <time>2011-12-11T09:38:34Z</time>
      </trkpt>
      <trkpt lat="47.00008" lon="-1.07405">
        <ele>62</ele>
        <time>2011-12-11T09:38:35Z</time>
      </trkpt>
      <trkpt lat="47.00009" lon="-1.07404">
        <ele>62</ele>
        <time>2011-12-11T09:38:37Z</time>
      </trkpt>
      <trkpt lat="47.00011" lon="-1.07402">
        <ele>62</ele>
        <time>2011-12-11T09:38:39Z</time>
      </trkpt>
      <trkpt lat="47.00013" lon="-1.074">
        <ele>62</ele>
        <time>2011-12-11T09:38:41Z</time>
      </trkpt>
      <trkpt lat="47.00014" lon="-1.07399">
        <ele>62</ele>
        <time>2011-12-11T09:38:42Z</time>
      </trkpt>
      <trkpt lat="47.00016" lon="-1.07398">
        <ele>62</ele>
        <time>2011-12-11T09:38:44Z</time>
      </trkpt>
      <trkpt lat="47.00018" lon="-1.07398">
        <ele>62</ele>
        <time>2011-12-11T09:38:45Z</time>
      </trkpt>
      <trkpt lat="47.00019" lon="-1.07396">
        <ele>62</ele>
        <time>2011-12-11T09:38:47Z</time>
      </trkpt>
      <trkpt lat="47.00021" lon="-1.07395">
        <ele>62</ele>
        <time>2011-12-11T09:38:48Z</time>
      </trkpt>
      <trkpt lat="47.00023" lon="-1.07393">
        <ele>62</ele>
        <time>2011-12-11T09:38:50Z</time>
      </trkpt>
      <trkpt lat="47.00025" lon="-1.07392">
        <ele>62</ele>
        <time>2011-12-11T09:38:52Z</time>
      </trkpt>
      <trkpt lat="47.00026" lon="-1.07391">
        <ele>62</ele>
        <time>2011-12-11T09:38:53Z</time>
      </trkpt>
      <trkpt lat="47.00028" lon="-1.0739">
        <ele>62</ele>
        <time>2011-12-11T09:38:54Z</time>
      </trkpt>
      <trkpt lat="47.0003" lon="-1.07388">
        <ele>62</ele>
        <time>2011-12-11T09:38:56Z</time>
      </trkpt>
      <trkpt lat="47.00032" lon="-1.07387">
        <ele>62</ele>
        <time>2011-12-11T09:38:58Z</time>
      </trkpt>
      <trkpt lat="47.00033" lon="-1.07386">
        <ele>62</ele>
        <time>2011-12-11T09:38:59Z</time>
      </trkpt>
      <trkpt lat="47.00035" lon="-1.07385">
        <ele>62</ele>
        <time>2011-12-11T09:39:01Z</time>
      </trkpt>
      <trkpt lat="47.00038" lon="-1.07384">
        <ele>62</ele>
        <time>2011-12-11T09:39:03Z</time>
      </trkpt>
      <trkpt lat="47.0004" lon="-1.07382">
        <ele>62</ele>
        <time>2011-12-11T09:39:05Z</time>
      </trkpt>
      <trkpt lat="47.00041" lon="-1.07381">
        <ele>62</ele>
        <time>2011-12-11T09:39:06Z</time>
      </trkpt>
      <trkpt lat="47.00042" lon="-1.0738">
        <ele>62</ele>
        <time>2011-12-11T09:39:07Z</time>
      </trkpt>
      <trkpt lat="47.00043" lon="-1.0738">
        <ele>62</ele>
        <time>2011-12-11T09:39:08Z</time>
      </trkpt>
      <trkpt lat="47.00045" lon="-1.07379">
        <ele>62</ele>
        <time>2011-12-11T09:39:09Z</time>
      </trkpt>
      <trkpt lat="47.00046" lon="-1.07378">
        <ele>62</ele>
        <time>2011-12-11T09:39:10Z</time>
      </trkpt>
      <trkpt lat="47.00048" lon="-1.07376">
        <ele>62</ele>
        <time>2011-12-11T09:39:12Z</time>
      </trkpt>
      <trkpt lat="47.00049" lon="-1.07376">
        <ele>62</ele>
        <time>2011-12-11T09:39:13Z</time>
      </trkpt>
      <trkpt lat="47.0005" lon="-1.07375">
        <ele>62</ele>
        <time>2011-12-11T09:39:14Z</time>
      </trkpt>
      <trkpt lat="47.00052" lon="-1.07373">
        <ele>62</ele>
        <time>2011-12-11T09:39:16Z</time>
      </trkpt>
      <trkpt lat="47.00053" lon="-1.07372">
        <ele>62</ele>
        <time>2011-12-11T09:39:17Z</time>
      </trkpt>
      <trkpt lat="47.00056" lon="-1.0737">
        <ele>62</ele>
        <time>2011-12-11T09:39:19Z</time>
      </trkpt>
      <trkpt lat="47.00058" lon="-1.07369">
        <ele>62</ele>
        <time>2011-12-11T09:39:21Z</time>
      </trkpt>
      <trkpt lat="47.0006" lon="-1.07367">
        <ele>63</ele>
        <time>2011-12-11T09:39:23Z</time>
      </trkpt>
      <trkpt lat="47.00062" lon="-1.07366">
        <ele>63</ele>
        <time>2011-12-11T09:39:25Z</time>
      </trkpt>
      <trkpt lat="47.00064" lon="-1.07364">
        <ele>63</ele>
        <time>2011-12-11T09:39:27Z</time>
      </trkpt>
      <trkpt lat="47.00065" lon="-1.07363">
        <ele>63</ele>
        <time>2011-12-11T09:39:28Z</time>
      </trkpt>
      <trkpt lat="47.00066" lon="-1.07363">
        <ele>63</ele>
        <time>2011-12-11T09:39:29Z</time>
      </trkpt>
      <trkpt lat="47.00068" lon="-1.07362">
        <ele>63</ele>
        <time>2011-12-11T09:39:30Z</time>
      </trkpt>
      <trkpt lat="47.00069" lon="-1.07361">
        <ele>63</ele>
        <time>2011-12-11T09:39:31Z</time>
      </trkpt>
      <trkpt lat="47.0007" lon="-1.0736">
        <ele>63</ele>
        <time>2011-12-11T09:39:32Z</time>
      </trkpt>
      <trkpt lat="47.00072" lon="-1.07359">
        <ele>64</ele>
        <time>2011-12-11T09:39:34Z</time>
      </trkpt>
      <trkpt lat="47.00074" lon="-1.07358">
        <ele>64</ele>
        <time>2011-12-11T09:39:36Z</time>
      </trkpt>
      <trkpt lat="47.00076" lon="-1.07356">
        <ele>64</ele>
        <time>2011-12-11T09:39:38Z</time>
      </trkpt>
      <trkpt lat="47.00078" lon="-1.07354">
        <ele>64</ele>
        <time>2011-12-11T09:39:40Z</time>
      </trkpt>
      <trkpt lat="47.0008" lon="-1.07353">
        <ele>64</ele>
        <time>2011-12-11T09:39:42Z</time>
      </trkpt>
      <trkpt lat="47.00082" lon="-1.07352">
        <ele>64</ele>
        <time>2011-12-11T09:39:44Z</time>
      </trkpt>
      <trkpt lat="47.00085" lon="-1.0735">
        <ele>64</ele>
        <time>2011-12-11T09:39:46Z</time>
      </trkpt>
      <trkpt lat="47.00087" lon="-1.07349">
        <ele>64</ele>
        <time>2011-12-11T09:39:48Z</time>
      </trkpt>
      <trkpt lat="47.00088" lon="-1.07348">
        <ele>64</ele>
        <time>2011-12-11T09:39:49Z</time>
      </trkpt>
      <trkpt lat="47.0009" lon="-1.07347">
        <ele>64</ele>
        <time>2011-12-11T09:39:51Z</time>
      </trkpt>
      <trkpt lat="47.00091" lon="-1.07346">
        <ele>64</ele>
        <time>2011-12-11T09:39:52Z</time>
      </trkpt>
      <trkpt lat="47.00093" lon="-1.07344">
        <ele>64</ele>
        <time>2011-12-11T09:39:54Z</time>
      </trkpt>
      <trkpt lat="47.00095" lon="-1.07343">
        <ele>64</ele>
        <time>2011-12-11T09:39:56Z</time>
      </trkpt>
      <trkpt lat="47.00097" lon="-1.07342">
        <ele>64</ele>
        <time>2011-12-11T09:39:58Z</time>
      </trkpt>
      <trkpt lat="47.00098" lon="-1.07341">
        <ele>64</ele>
        <time>2011-12-11T09:39:59Z</time>
      </trkpt>
      <trkpt lat="47.001" lon="-1.07341">
        <ele>64</ele>
        <time>2011-12-11T09:40:00Z</time>
      </trkpt>
      <trkpt lat="47.00101" lon="-1.0734">
        <ele>64</ele>
        <time>2011-12-11T09:40:01Z</time>
      </trkpt>
      <trkpt lat="47.00102" lon="-1.07339">
        <ele>64</ele>
        <time>2011-12-11T09:40:02Z</time>
      </trkpt>
      <trkpt lat="47.00103" lon="-1.07338">
        <ele>64</ele>
        <time>2011-12-11T09:40:03Z</time>
      </trkpt>
      <trkpt lat="47.00105" lon="-1.07337">
        <ele>64</ele>
        <time>2011-12-11T09:40:05Z</time>
      </trkpt>
      <trkpt lat="47.00107" lon="-1.07336">
        <ele>65</ele>
        <time>2011-12-11T09:40:07Z</time>
      </trkpt>
      <trkpt lat="47.0011" lon="-1.07334">
        <ele>65</ele>
        <time>2011-12-11T09:40:09Z</time>
      </trkpt>
      <trkpt lat="47.00111" lon="-1.07334">
        <ele>65</ele>
        <time>2011-12-11T09:40:10Z</time>
      </trkpt>
      <trkpt lat="47.00112" lon="-1.07333">
        <ele>65</ele>
        <time>2011-12-11T09:40:11Z</time>
      </trkpt>
      <trkpt lat="47.00114" lon="-1.07332">
        <ele>65</ele>
        <time>2011-12-11T09:40:13Z</time>
      </trkpt>
      <trkpt lat="47.00116" lon="-1.07331">
        <ele>65</ele>
        <time>2011-12-11T09:40:14Z</time>
      </trkpt>
      <trkpt lat="47.00117" lon="-1.0733">
        <ele>65</ele>
        <time>2011-12-11T09:40:16Z</time>
      </trkpt>
      <trkpt lat="47.00118" lon="-1.07329">
        <ele>65</ele>
        <time>2011-12-11T09:40:17Z</time>
      </trkpt>
      <trkpt lat="47.0012" lon="-1.07328">
        <ele>65</ele>
        <time>2011-12-11T09:40:19Z</time>
      </trkpt>
      <trkpt lat="47.00122" lon="-1.07326">
        <ele>65</ele>
        <time>2011-12-11T09:40:21Z</time>
      </trkpt>
      <trkpt lat="47.00123" lon="-1.07326">
        <ele>65</ele>
        <time>2011-12-11T09:40:22Z</time>
      </trkpt>
      <trkpt lat="47.00124" lon="-1.07326">
        <ele>65</ele>
        <time>2011-12-11T09:40:23Z</time>
      </trkpt>
      <trkpt lat="47.00127" lon="-1.07325">
        <ele>65</ele>
        <time>2011-12-11T09:40:25Z</time>
      </trkpt>
      <trkpt lat="47.00128" lon="-1.07324">
        <ele>65</ele>
        <time>2011-12-11T09:40:26Z</time>
      </trkpt>
      <trkpt lat="47.00129" lon="-1.07323">
        <ele>65</ele>
        <time>2011-12-11T09:40:27Z</time>
      </trkpt>
      <trkpt lat="47.0013" lon="-1.07323">
        <ele>65</ele>
        <time>2011-12-11T09:40:28Z</time>
      </trkpt>
      <trkpt lat="47.00132" lon="-1.07322">
        <ele>65</ele>
        <time>2011-12-11T09:40:29Z</time>
      </trkpt>
      <trkpt lat="47.00133" lon="-1.07321">
        <ele>65</ele>
        <time>2011-12-11T09:40:30Z</time>
      </trkpt>
      <trkpt lat="47.00134" lon="-1.07321">
        <ele>65</ele>
        <time>2011-12-11T09:40:31Z</time>
      </trkpt>
      <trkpt lat="47.00137" lon="-1.0732">
        <ele>65</ele>
        <time>2011-12-11T09:40:33Z</time>
      </trkpt>
      <trkpt lat="47.00138" lon="-1.07319">
        <ele>65</ele>
        <time>2011-12-11T09:40:34Z</time>
      </trkpt>
      <trkpt lat="47.00139" lon="-1.07319">
        <ele>65</ele>
        <time>2011-12-11T09:40:35Z</time>
      </trkpt>
      <trkpt lat="47.00141" lon="-1.07318">
        <ele>65</ele>
        <time>2011-12-11T09:40:36Z</time>
      </trkpt>
      <trkpt lat="47.00142" lon="-1.07318">
        <ele>66</ele>
        <time>2011-12-11T09:40:37Z</time>
      </trkpt>
      <trkpt lat="47.00143" lon="-1.07317">
        <ele>66</ele>
        <time>2011-12-11T09:40:38Z</time>
      </trkpt>
      <trkpt lat="47.00145" lon="-1.07316">
        <ele>66</ele>
        <time>2011-12-11T09:40:40Z</time>
      </trkpt>
      <trkpt lat="47.00146" lon="-1.07316">
        <ele>66</ele>
        <time>2011-12-11T09:40:41Z</time>
      </trkpt>
      <trkpt lat="47.00148" lon="-1.07315">
        <ele>66</ele>
        <time>2011-12-11T09:40:42Z</time>
      </trkpt>
      <trkpt lat="47.00149" lon="-1.07315">
        <ele>66</ele>
        <time>2011-12-11T09:40:43Z</time>
      </trkpt>
      <trkpt lat="47.0015" lon="-1.07314">
        <ele>66</ele>
        <time>2011-12-11T09:40:44Z</time>
      </trkpt>
      <trkpt lat="47.00151" lon="-1.07314">
        <ele>66</ele>
        <time>2011-12-11T09:40:45Z</time>
      </trkpt>
      <trkpt lat="47.00153" lon="-1.07314">
        <ele>66</ele>
        <time>2011-12-11T09:40:46Z</time>
      </trkpt>
      <trkpt lat="47.00154" lon="-1.07313">
        <ele>67</ele>
        <time>2011-12-11T09:40:47Z</time>
      </trkpt>
      <trkpt lat="47.00156" lon="-1.07313">
        <ele>67</ele>
        <time>2011-12-11T09:40:48Z</time>
      </trkpt>
      <trkpt lat="47.00157" lon="-1.07312">
        <ele>67</ele>
        <time>2011-12-11T09:40:49Z</time>
      </trkpt>
      <trkpt lat="47.00158" lon="-1.07312">
        <ele>67</ele>
        <time>2011-12-11T09:40:50Z</time>
      </trkpt>
      <trkpt lat="47.00159" lon="-1.07311">
        <ele>68</ele>
        <time>2011-12-11T09:40:51Z</time>
      </trkpt>
      <trkpt lat="47.00161" lon="-1.07311">
        <ele>68</ele>
        <time>2011-12-11T09:40:52Z</time>
      </trkpt>
      <trkpt lat="47.00162" lon="-1.0731">
        <ele>68</ele>
        <time>2011-12-11T09:40:53Z</time>
      </trkpt>
      <trkpt lat="47.00163" lon="-1.0731">
        <ele>68</ele>
        <time>2011-12-11T09:40:54Z</time>
      </trkpt>
      <trkpt lat="47.00164" lon="-1.07309">
        <ele>68</ele>
        <time>2011-12-11T09:40:55Z</time>
      </trkpt>
      <trkpt lat="47.00165" lon="-1.07309">
        <ele>68</ele>
        <time>2011-12-11T09:40:56Z</time>
      </trkpt>
      <trkpt lat="47.00167" lon="-1.07308">
        <ele>68</ele>
        <time>2011-12-11T09:40:57Z</time>
      </trkpt>
      <trkpt lat="47.00168" lon="-1.07308">
        <ele>69</ele>
        <time>2011-12-11T09:40:58Z</time>
      </trkpt>
      <trkpt lat="47.00169" lon="-1.07308">
        <ele>69</ele>
        <time>2011-12-11T09:40:59Z</time>
      </trkpt>
      <trkpt lat="47.00172" lon="-1.07307">
        <ele>69</ele>
        <time>2011-12-11T09:41:01Z</time>
      </trkpt>
      <trkpt lat="47.00173" lon="-1.07306">
        <ele>69</ele>
        <time>2011-12-11T09:41:02Z</time>
      </trkpt>
      <trkpt lat="47.00174" lon="-1.07305">
        <ele>69</ele>
        <time>2011-12-11T09:41:03Z</time>
      </trkpt>
      <trkpt lat="47.00175" lon="-1.07305">
        <ele>69</ele>
        <time>2011-12-11T09:41:04Z</time>
      </trkpt>
      <trkpt lat="47.00177" lon="-1.07305">
        <ele>70</ele>
        <time>2011-12-11T09:41:05Z</time>
      </trkpt>
      <trkpt lat="47.00178" lon="-1.07304">
        <ele>70</ele>
        <time>2011-12-11T09:41:06Z</time>
      </trkpt>
      <trkpt lat="47.00179" lon="-1.07304">
        <ele>70</ele>
        <time>2011-12-11T09:41:07Z</time>
      </trkpt>
      <trkpt lat="47.0018" lon="-1.07303">
        <ele>70</ele>
        <time>2011-12-11T09:41:08Z</time>
      </trkpt>
      <trkpt lat="47.00182" lon="-1.07302">
        <ele>71</ele>
        <time>2011-12-11T09:41:09Z</time>
      </trkpt>
      <trkpt lat="47.00183" lon="-1.07301">
        <ele>71</ele>
        <time>2011-12-11T09:41:10Z</time>
      </trkpt>
      <trkpt lat="47.00185" lon="-1.07301">
        <ele>71</ele>
        <time>2011-12-11T09:41:11Z</time>
      </trkpt>
      <trkpt lat="47.00186" lon="-1.07301">
        <ele>71</ele>
        <time>2011-12-11T09:41:12Z</time>
      </trkpt>
      <trkpt lat="47.00188" lon="-1.073">
        <ele>72</ele>
        <time>2011-12-11T09:41:13Z</time>
      </trkpt>
      <trkpt lat="47.00189" lon="-1.073">
        <ele>72</ele>
        <time>2011-12-11T09:41:14Z</time>
      </trkpt>
      <trkpt lat="47.00191" lon="-1.07299">
        <ele>72</ele>
        <time>2011-12-11T09:41:15Z</time>
      </trkpt>
      <trkpt lat="47.00192" lon="-1.07299">
        <ele>72</ele>
        <time>2011-12-11T09:41:16Z</time>
      </trkpt>
      <trkpt lat="47.00193" lon="-1.07298">
        <ele>72</ele>
        <time>2011-12-11T09:41:17Z</time>
      </trkpt>
      <trkpt lat="47.00195" lon="-1.07297">
        <ele>73</ele>
        <time>2011-12-11T09:41:19Z</time>
      </trkpt>
      <trkpt lat="47.00196" lon="-1.07297">
        <ele>73</ele>
        <time>2011-12-11T09:41:20Z</time>
      </trkpt>
      <trkpt lat="47.00198" lon="-1.07296">
        <ele>73</ele>
        <time>2011-12-11T09:41:21Z</time>
      </trkpt>
      <trkpt lat="47.00199" lon="-1.07295">
        <ele>73</ele>
        <time>2011-12-11T09:41:23Z</time>
      </trkpt>
      <trkpt lat="47.002" lon="-1.07295">
        <ele>73</ele>
        <time>2011-12-11T09:41:24Z</time>
      </trkpt>
      <trkpt lat="47.00201" lon="-1.07294">
        <ele>73</ele>
        <time>2011-12-11T09:41:25Z</time>
      </trkpt>
      <trkpt lat="47.00203" lon="-1.07293">
        <ele>73</ele>
        <time>2011-12-11T09:41:27Z</time>
      </trkpt>
      <trkpt lat="47.00204" lon="-1.07293">
        <ele>73</ele>
        <time>2011-12-11T09:41:29Z</time>
      </trkpt>
      <trkpt lat="47.00206" lon="-1.07293">
        <ele>74</ele>
        <time>2011-12-11T09:41:31Z</time>
      </trkpt>
      <trkpt lat="47.00208" lon="-1.07292">
        <ele>74</ele>
        <time>2011-12-11T09:41:33Z</time>
      </trkpt>
      <trkpt lat="47.00209" lon="-1.07291">
        <ele>74</ele>
        <time>2011-12-11T09:41:34Z</time>
      </trkpt>
      <trkpt lat="47.00211" lon="-1.0729">
        <ele>74</ele>
        <time>2011-12-11T09:41:36Z</time>
      </trkpt>
      <trkpt lat="47.00213" lon="-1.0729">
        <ele>74</ele>
        <time>2011-12-11T09:41:37Z</time>
      </trkpt>
      <trkpt lat="47.00214" lon="-1.0729">
        <ele>74</ele>
        <time>2011-12-11T09:41:38Z</time>
      </trkpt>
      <trkpt lat="47.00215" lon="-1.07289">
        <ele>74</ele>
        <time>2011-12-11T09:41:39Z</time>
      </trkpt>
      <trkpt lat="47.00216" lon="-1.07288">
        <ele>74</ele>
        <time>2011-12-11T09:41:40Z</time>
      </trkpt>
      <trkpt lat="47.00218" lon="-1.07288">
        <ele>74</ele>
        <time>2011-12-11T09:41:42Z</time>
      </trkpt>
      <trkpt lat="47.00219" lon="-1.07287">
        <ele>74</ele>
        <time>2011-12-11T09:41:44Z</time>
      </trkpt>
      <trkpt lat="47.0022" lon="-1.07286">
        <ele>74</ele>
        <time>2011-12-11T09:41:45Z</time>
      </trkpt>
      <trkpt lat="47.00223" lon="-1.07286">
        <ele>74</ele>
        <time>2011-12-11T09:41:47Z</time>
      </trkpt>
      <trkpt lat="47.00225" lon="-1.07285">
        <ele>75</ele>
        <time>2011-12-11T09:41:49Z</time>
      </trkpt>
      <trkpt lat="47.00226" lon="-1.07285">
        <ele>75</ele>
        <time>2011-12-11T09:41:50Z</time>
      </trkpt>
      <trkpt lat="47.00228" lon="-1.07284">
        <ele>75</ele>
        <time>2011-12-11T09:41:52Z</time>
      </trkpt>
      <trkpt lat="47.0023" lon="-1.07284">
        <ele>75</ele>
        <time>2011-12-11T09:41:55Z</time>
      </trkpt>
      <trkpt lat="47.00232" lon="-1.07283">
        <ele>75</ele>
        <time>2011-12-11T09:41:57Z</time>
      </trkpt>
      <trkpt lat="47.00234" lon="-1.07282">
        <ele>75</ele>
        <time>2011-12-11T09:41:59Z</time>
      </trkpt>
      <trkpt lat="47.00235" lon="-1.07282">
        <ele>75</ele>
        <time>2011-12-11T09:42:01Z</time>
      </trkpt>
      <trkpt lat="47.00237" lon="-1.07282">
        <ele>75</ele>
        <time>2011-12-11T09:42:04Z</time>
      </trkpt>
      <trkpt lat="47.00238" lon="-1.07281">
        <ele>75</ele>
        <time>2011-12-11T09:42:06Z</time>
      </trkpt>
      <trkpt lat="47.0024" lon="-1.07281">
        <ele>75</ele>
        <time>2011-12-11T09:42:08Z</time>
      </trkpt>
      <trkpt lat="47.00243" lon="-1.0728">
        <ele>75</ele>
        <time>2011-12-11T09:42:10Z</time>
      </trkpt>
      <trkpt lat="47.00245" lon="-1.07279">
        <ele>75</ele>
        <time>2011-12-11T09:42:12Z</time>
      </trkpt>
      <trkpt lat="47.00247" lon="-1.07278">
        <ele>75</ele>
        <time>2011-12-11T09:42:14Z</time>
      </trkpt>
      <trkpt lat="47.00249" lon="-1.07277">
        <ele>75</ele>
        <time>2011-12-11T09:42:16Z</time>
      </trkpt>
      <trkpt lat="47.00251" lon="-1.07276">
        <ele>75</ele>
        <time>2011-12-11T09:42:18Z</time>
      </trkpt>
      <trkpt lat="47.00252" lon="-1.07275">
        <ele>75</ele>
        <time>2011-12-11T09:42:19Z</time>
      </trkpt>
      <trkpt lat="47.00254" lon="-1.07275">
        <ele>75</ele>
        <time>2011-12-11T09:42:20Z</time>
      </trkpt>
      <trkpt lat="47.00255" lon="-1.07274">
        <ele>75</ele>
        <time>2011-12-11T09:42:21Z</time>
      </trkpt>
      <trkpt lat="47.00256" lon="-1.07274">
        <ele>75</ele>
        <time>2011-12-11T09:42:22Z</time>
      </trkpt>
      <trkpt lat="47.00258" lon="-1.07274">
        <ele>75</ele>
        <time>2011-12-11T09:42:23Z</time>
      </trkpt>
      <trkpt lat="47.00259" lon="-1.07273">
        <ele>75</ele>
        <time>2011-12-11T09:42:24Z</time>
      </trkpt>
      <trkpt lat="47.00261" lon="-1.07273">
        <ele>75</ele>
        <time>2011-12-11T09:42:25Z</time>
      </trkpt>
      <trkpt lat="47.00262" lon="-1.07273">
        <ele>75</ele>
        <time>2011-12-11T09:42:26Z</time>
      </trkpt>
      <trkpt lat="47.00264" lon="-1.07273">
        <ele>75</ele>
        <time>2011-12-11T09:42:27Z</time>
      </trkpt>
      <trkpt lat="47.00265" lon="-1.07273">
        <ele>75</ele>
        <time>2011-12-11T09:42:28Z</time>
      </trkpt>
      <trkpt lat="47.00267" lon="-1.07272">
        <ele>75</ele>
        <time>2011-12-11T09:42:29Z</time>
      </trkpt>
      <trkpt lat="47.00268" lon="-1.07272">
        <ele>75</ele>
        <time>2011-12-11T09:42:30Z</time>
      </trkpt>
      <trkpt lat="47.00269" lon="-1.07272">
        <ele>75</ele>
        <time>2011-12-11T09:42:31Z</time>
      </trkpt>
      <trkpt lat="47.00271" lon="-1.07272">
        <ele>75</ele>
        <time>2011-12-11T09:42:32Z</time>
      </trkpt>
      <trkpt lat="47.00272" lon="-1.07272">
        <ele>76</ele>
        <time>2011-12-11T09:42:33Z</time>
      </trkpt>
      <trkpt lat="47.00274" lon="-1.07271">
        <ele>76</ele>
        <time>2011-12-11T09:42:34Z</time>
      </trkpt>
      <trkpt lat="47.00275" lon="-1.07271">
        <ele>76</ele>
        <time>2011-12-11T09:42:35Z</time>
      </trkpt>
      <trkpt lat="47.00276" lon="-1.07271">
        <ele>76</ele>
        <time>2011-12-11T09:42:36Z</time>
      </trkpt>
      <trkpt lat="47.00277" lon="-1.0727">
        <ele>76</ele>
        <time>2011-12-11T09:42:37Z</time>
      </trkpt>
      <trkpt lat="47.00278" lon="-1.0727">
        <ele>76</ele>
        <time>2011-12-11T09:42:38Z</time>
      </trkpt>
      <trkpt lat="47.0028" lon="-1.0727">
        <ele>76</ele>
        <time>2011-12-11T09:42:39Z</time>
      </trkpt>
      <trkpt lat="47.00281" lon="-1.0727">
        <ele>76</ele>
        <time>2011-12-11T09:42:40Z</time>
      </trkpt>
      <trkpt lat="47.00282" lon="-1.07269">
        <ele>76</ele>
        <time>2011-12-11T09:42:41Z</time>
      </trkpt>
      <trkpt lat="47.00283" lon="-1.07269">
        <ele>76</ele>
        <time>2011-12-11T09:42:42Z</time>
      </trkpt>
      <trkpt lat="47.00285" lon="-1.07269">
        <ele>76</ele>
        <time>2011-12-11T09:42:43Z</time>
      </trkpt>
      <trkpt lat="47.00286" lon="-1.07269">
        <ele>76</ele>
        <time>2011-12-11T09:42:44Z</time>
      </trkpt>
      <trkpt lat="47.00287" lon="-1.07269">
        <ele>76</ele>
        <time>2011-12-11T09:42:45Z</time>
      </trkpt>
      <trkpt lat="47.00288" lon="-1.07268">
        <ele>76</ele>
        <time>2011-12-11T09:42:46Z</time>
      </trkpt>
      <trkpt lat="47.0029" lon="-1.07268">
        <ele>76</ele>
        <time>2011-12-11T09:42:47Z</time>
      </trkpt>
      <trkpt lat="47.00291" lon="-1.07268">
        <ele>76</ele>
        <time>2011-12-11T09:42:48Z</time>
      </trkpt>
      <trkpt lat="47.00292" lon="-1.07268">
        <ele>76</ele>
        <time>2011-12-11T09:42:49Z</time>
      </trkpt>
      <trkpt lat="47.00293" lon="-1.07267">
        <ele>76</ele>
        <time>2011-12-11T09:42:50Z</time>
      </trkpt>
      <trkpt lat="47.00295" lon="-1.07267">
        <ele>76</ele>
        <time>2011-12-11T09:42:51Z</time>
      </trkpt>
      <trkpt lat="47.00296" lon="-1.07267">
        <ele>76</ele>
        <time>2011-12-11T09:42:52Z</time>
      </trkpt>
      <trkpt lat="47.00297" lon="-1.07267">
        <ele>76</ele>
        <time>2011-12-11T09:42:53Z</time>
      </trkpt>
      <trkpt lat="47.00298" lon="-1.07267">
        <ele>76</ele>
        <time>2011-12-11T09:42:54Z</time>
      </trkpt>
      <trkpt lat="47.00299" lon="-1.07266">
        <ele>76</ele>
        <time>2011-12-11T09:42:55Z</time>
      </trkpt>
      <trkpt lat="47.00301" lon="-1.07266">
        <ele>76</ele>
        <time>2011-12-11T09:42:56Z</time>
      </trkpt>
      <trkpt lat="47.00302" lon="-1.07266">
        <ele>76</ele>
        <time>2011-12-11T09:42:57Z</time>
      </trkpt>
      <trkpt lat="47.00303" lon="-1.07266">
        <ele>76</ele>
        <time>2011-12-11T09:42:58Z</time>
      </trkpt>
      <trkpt lat="47.00305" lon="-1.07266">
        <ele>76</ele>
        <time>2011-12-11T09:43:00Z</time>
      </trkpt>
      <trkpt lat="47.00306" lon="-1.07266">
        <ele>76</ele>
        <time>2011-12-11T09:43:00Z</time>
      </trkpt>
      <trkpt lat="47.00307" lon="-1.07266">
        <ele>76</ele>
        <time>2011-12-11T09:43:01Z</time>
      </trkpt>
      <trkpt lat="47.00309" lon="-1.07265">
        <ele>76</ele>
        <time>2011-12-11T09:43:02Z</time>
      </trkpt>
      <trkpt lat="47.0031" lon="-1.07265">
        <ele>76</ele>
        <time>2011-12-11T09:43:03Z</time>
      </trkpt>
      <trkpt lat="47.00312" lon="-1.07265">
        <ele>76</ele>
        <time>2011-12-11T09:43:04Z</time>
      </trkpt>
      <trkpt lat="47.00313" lon="-1.07265">
        <ele>76</ele>
        <time>2011-12-11T09:43:05Z</time>
      </trkpt>
      <trkpt lat="47.00314" lon="-1.07265">
        <ele>76</ele>
        <time>2011-12-11T09:43:06Z</time>
      </trkpt>
      <trkpt lat="47.00316" lon="-1.07265">
        <ele>76</ele>
        <time>2011-12-11T09:43:07Z</time>
      </trkpt>
      <trkpt lat="47.00317" lon="-1.07265">
        <ele>76</ele>
        <time>2011-12-11T09:43:08Z</time>
      </trkpt>
      <trkpt lat="47.00319" lon="-1.07265">
        <ele>76</ele>
        <time>2011-12-11T09:43:09Z</time>
      </trkpt>
      <trkpt lat="47.0032" lon="-1.07264">
        <ele>76</ele>
        <time>2011-12-11T09:43:10Z</time>
      </trkpt>
      <trkpt lat="47.00321" lon="-1.07264">
        <ele>76</ele>
        <time>2011-12-11T09:43:11Z</time>
      </trkpt>
      <trkpt lat="47.00322" lon="-1.07264">
        <ele>76</ele>
        <time>2011-12-11T09:43:12Z</time>
      </trkpt>
      <trkpt lat="47.00323" lon="-1.07264">
        <ele>76</ele>
        <time>2011-12-11T09:43:13Z</time>
      </trkpt>
      <trkpt lat="47.00325" lon="-1.07264">
        <ele>76</ele>
        <time>2011-12-11T09:43:14Z</time>
      </trkpt>
      <trkpt lat="47.00326" lon="-1.07264">
        <ele>76</ele>
        <time>2011-12-11T09:43:15Z</time>
      </trkpt>
      <trkpt lat="47.00328" lon="-1.07264">
        <ele>76</ele>
        <time>2011-12-11T09:43:16Z</time>
      </trkpt>
      <trkpt lat="47.00329" lon="-1.07264">
        <ele>76</ele>
        <time>2011-12-11T09:43:17Z</time>
      </trkpt>
      <trkpt lat="47.0033" lon="-1.07264">
        <ele>76</ele>
        <time>2011-12-11T09:43:18Z</time>
      </trkpt>
      <trkpt lat="47.00332" lon="-1.07264">
        <ele>76</ele>
        <time>2011-12-11T09:43:19Z</time>
      </trkpt>
      <trkpt lat="47.00333" lon="-1.07264">
        <ele>76</ele>
        <time>2011-12-11T09:43:20Z</time>
      </trkpt>
      <trkpt lat="47.00335" lon="-1.07264">
        <ele>76</ele>
        <time>2011-12-11T09:43:21Z</time>
      </trkpt>
      <trkpt lat="47.00336" lon="-1.07264">
        <ele>76</ele>
        <time>2011-12-11T09:43:22Z</time>
      </trkpt>
      <trkpt lat="47.00337" lon="-1.07264">
        <ele>76</ele>
        <time>2011-12-11T09:43:23Z</time>
      </trkpt>
      <trkpt lat="47.00338" lon="-1.07263">
        <ele>76</ele>
        <time>2011-12-11T09:43:24Z</time>
      </trkpt>
      <trkpt lat="47.0034" lon="-1.07263">
        <ele>76</ele>
        <time>2011-12-11T09:43:25Z</time>
      </trkpt>
      <trkpt lat="47.00341" lon="-1.07263">
        <ele>76</ele>
        <time>2011-12-11T09:43:26Z</time>
      </trkpt>
      <trkpt lat="47.00342" lon="-1.07263">
        <ele>76</ele>
        <time>2011-12-11T09:43:27Z</time>
      </trkpt>
      <trkpt lat="47.00344" lon="-1.07263">
        <ele>76</ele>
        <time>2011-12-11T09:43:28Z</time>
      </trkpt>
      <trkpt lat="47.00345" lon="-1.07263">
        <ele>76</ele>
        <time>2011-12-11T09:43:29Z</time>
      </trkpt>
      <trkpt lat="47.00346" lon="-1.07263">
        <ele>76</ele>
        <time>2011-12-11T09:43:30Z</time>
      </trkpt>
      <trkpt lat="47.00348" lon="-1.07263">
        <ele>76</ele>
        <time>2011-12-11T09:43:31Z</time>
      </trkpt>
      <trkpt lat="47.00349" lon="-1.07263">
        <ele>76</ele>
        <time>2011-12-11T09:43:32Z</time>
      </trkpt>
      <trkpt lat="47.00351" lon="-1.07263">
        <ele>76</ele>
        <time>2011-12-11T09:43:33Z</time>
      </trkpt>
      <trkpt lat="47.00352" lon="-1.07263">
        <ele>76</ele>
        <time>2011-12-11T09:43:34Z</time>
      </trkpt>
      <trkpt lat="47.00354" lon="-1.07263">
        <ele>76</ele>
        <time>2011-12-11T09:43:35Z</time>
      </trkpt>
      <trkpt lat="47.00355" lon="-1.07263">
        <ele>76</ele>
        <time>2011-12-11T09:43:36Z</time>
      </trkpt>
      <trkpt lat="47.00357" lon="-1.07262">
        <ele>76</ele>
        <time>2011-12-11T09:43:37Z</time>
      </trkpt>
      <trkpt lat="47.00358" lon="-1.07262">
        <ele>76</ele>
        <time>2011-12-11T09:43:38Z</time>
      </trkpt>
      <trkpt lat="47.00359" lon="-1.07262">
        <ele>76</ele>
        <time>2011-12-11T09:43:39Z</time>
      </trkpt>
      <trkpt lat="47.00361" lon="-1.07262">
        <ele>76</ele>
        <time>2011-12-11T09:43:40Z</time>
      </trkpt>
      <trkpt lat="47.00362" lon="-1.07262">
        <ele>76</ele>
        <time>2011-12-11T09:43:41Z</time>
      </trkpt>
      <trkpt lat="47.00363" lon="-1.07261">
        <ele>76</ele>
        <time>2011-12-11T09:43:42Z</time>
      </trkpt>
      <trkpt lat="47.00365" lon="-1.07261">
        <ele>76</ele>
        <time>2011-12-11T09:43:43Z</time>
      </trkpt>
      <trkpt lat="47.00366" lon="-1.07261">
        <ele>76</ele>
        <time>2011-12-11T09:43:44Z</time>
      </trkpt>
      <trkpt lat="47.00367" lon="-1.07261">
        <ele>76</ele>
        <time>2011-12-11T09:43:45Z</time>
      </trkpt>
      <trkpt lat="47.00368" lon="-1.07261">
        <ele>76</ele>
        <time>2011-12-11T09:43:46Z</time>
      </trkpt>
      <trkpt lat="47.0037" lon="-1.07261">
        <ele>76</ele>
        <time>2011-12-11T09:43:47Z</time>
      </trkpt>
      <trkpt lat="47.00372" lon="-1.07261">
        <ele>76</ele>
        <time>2011-12-11T09:43:48Z</time>
      </trkpt>
      <trkpt lat="47.00373" lon="-1.07261">
        <ele>76</ele>
        <time>2011-12-11T09:43:49Z</time>
      </trkpt>
      <trkpt lat="47.00375" lon="-1.07261">
        <ele>76</ele>
        <time>2011-12-11T09:43:50Z</time>
      </trkpt>
      <trkpt lat="47.00376" lon="-1.07261">
        <ele>76</ele>
        <time>2011-12-11T09:43:51Z</time>
      </trkpt>
      <trkpt lat="47.00377" lon="-1.07261">
        <ele>76</ele>
        <time>2011-12-11T09:43:52Z</time>
      </trkpt>
      <trkpt lat="47.00379" lon="-1.07261">
        <ele>76</ele>
        <time>2011-12-11T09:43:53Z</time>
      </trkpt>
      <trkpt lat="47.0038" lon="-1.07261">
        <ele>76</ele>
        <time>2011-12-11T09:43:54Z</time>
      </trkpt>
      <trkpt lat="47.00382" lon="-1.0726">
        <ele>76</ele>
        <time>2011-12-11T09:43:56Z</time>
      </trkpt>
      <trkpt lat="47.00383" lon="-1.0726">
        <ele>76</ele>
        <time>2011-12-11T09:43:57Z</time>
      </trkpt>
      <trkpt lat="47.00385" lon="-1.0726">
        <ele>76</ele>
        <time>2011-12-11T09:43:58Z</time>
      </trkpt>
      <trkpt lat="47.00387" lon="-1.07259">
        <ele>76</ele>
        <time>2011-12-11T09:44:00Z</time>
      </trkpt>
      <trkpt lat="47.00388" lon="-1.07259">
        <ele>76</ele>
        <time>2011-12-11T09:44:01Z</time>
      </trkpt>
      <trkpt lat="47.00389" lon="-1.07258">
        <ele>76</ele>
        <time>2011-12-11T09:44:02Z</time>
      </trkpt>
      <trkpt lat="47.00391" lon="-1.07258">
        <ele>76</ele>
        <time>2011-12-11T09:44:03Z</time>
      </trkpt>
      <trkpt lat="47.00392" lon="-1.07258">
        <ele>76</ele>
        <time>2011-12-11T09:44:04Z</time>
      </trkpt>
      <trkpt lat="47.00394" lon="-1.07258">
        <ele>76</ele>
        <time>2011-12-11T09:44:05Z</time>
      </trkpt>
      <trkpt lat="47.00396" lon="-1.07258">
        <ele>76</ele>
        <time>2011-12-11T09:44:06Z</time>
      </trkpt>
      <trkpt lat="47.00397" lon="-1.07258">
        <ele>76</ele>
        <time>2011-12-11T09:44:07Z</time>
      </trkpt>
      <trkpt lat="47.00398" lon="-1.07258">
        <ele>76</ele>
        <time>2011-12-11T09:44:08Z</time>
      </trkpt>
      <trkpt lat="47.004" lon="-1.07258">
        <ele>76</ele>
        <time>2011-12-11T09:44:09Z</time>
      </trkpt>
      <trkpt lat="47.00401" lon="-1.07258">
        <ele>76</ele>
        <time>2011-12-11T09:44:10Z</time>
      </trkpt>
      <trkpt lat="47.00402" lon="-1.07258">
        <ele>76</ele>
        <time>2011-12-11T09:44:11Z</time>
      </trkpt>
      <trkpt lat="47.00404" lon="-1.07258">
        <ele>76</ele>
        <time>2011-12-11T09:44:12Z</time>
      </trkpt>
      <trkpt lat="47.00405" lon="-1.07258">
        <ele>76</ele>
        <time>2011-12-11T09:44:13Z</time>
      </trkpt>
      <trkpt lat="47.00406" lon="-1.07258">
        <ele>76</ele>
        <time>2011-12-11T09:44:14Z</time>
      </trkpt>
      <trkpt lat="47.00407" lon="-1.07258">
        <ele>76</ele>
        <time>2011-12-11T09:44:15Z</time>
      </trkpt>
      <trkpt lat="47.00409" lon="-1.07257">
        <ele>76</ele>
        <time>2011-12-11T09:44:16Z</time>
      </trkpt>
      <trkpt lat="47.0041" lon="-1.07258">
        <ele>76</ele>
        <time>2011-12-11T09:44:17Z</time>
      </trkpt>
      <trkpt lat="47.00411" lon="-1.07258">
        <ele>76</ele>
        <time>2011-12-11T09:44:18Z</time>
      </trkpt>
      <trkpt lat="47.00412" lon="-1.07257">
        <ele>76</ele>
        <time>2011-12-11T09:44:19Z</time>
      </trkpt>
      <trkpt lat="47.00414" lon="-1.07257">
        <ele>76</ele>
        <time>2011-12-11T09:44:20Z</time>
      </trkpt>
      <trkpt lat="47.00415" lon="-1.07258">
        <ele>76</ele>
        <time>2011-12-11T09:44:21Z</time>
      </trkpt>
      <trkpt lat="47.00417" lon="-1.07258">
        <ele>76</ele>
        <time>2011-12-11T09:44:22Z</time>
      </trkpt>
      <trkpt lat="47.00418" lon="-1.07258">
        <ele>76</ele>
        <time>2011-12-11T09:44:23Z</time>
      </trkpt>
      <trkpt lat="47.00419" lon="-1.07258">
        <ele>76</ele>
        <time>2011-12-11T09:44:24Z</time>
      </trkpt>
      <trkpt lat="47.0042" lon="-1.07259">
        <ele>76</ele>
        <time>2011-12-11T09:44:25Z</time>
      </trkpt>
      <trkpt lat="47.00422" lon="-1.07259">
        <ele>76</ele>
        <time>2011-12-11T09:44:26Z</time>
      </trkpt>
      <trkpt lat="47.00423" lon="-1.07259">
        <ele>76</ele>
        <time>2011-12-11T09:44:27Z</time>
      </trkpt>
      <trkpt lat="47.00425" lon="-1.07258">
        <ele>76</ele>
        <time>2011-12-11T09:44:28Z</time>
      </trkpt>
      <trkpt lat="47.00426" lon="-1.07258">
        <ele>76</ele>
        <time>2011-12-11T09:44:29Z</time>
      </trkpt>
      <trkpt lat="47.00427" lon="-1.07257">
        <ele>76</ele>
        <time>2011-12-11T09:44:30Z</time>
      </trkpt>
      <trkpt lat="47.00428" lon="-1.07257">
        <ele>76</ele>
        <time>2011-12-11T09:44:31Z</time>
      </trkpt>
      <trkpt lat="47.0043" lon="-1.07256">
        <ele>76</ele>
        <time>2011-12-11T09:44:32Z</time>
      </trkpt>
      <trkpt lat="47.00431" lon="-1.07256">
        <ele>76</ele>
        <time>2011-12-11T09:44:33Z</time>
      </trkpt>
      <trkpt lat="47.00432" lon="-1.07255">
        <ele>76</ele>
        <time>2011-12-11T09:44:34Z</time>
      </trkpt>
      <trkpt lat="47.00433" lon="-1.07255">
        <ele>76</ele>
        <time>2011-12-11T09:44:35Z</time>
      </trkpt>
      <trkpt lat="47.00437" lon="-1.07253">
        <ele>76</ele>
        <time>2011-12-11T09:44:37Z</time>
      </trkpt>
      <trkpt lat="47.00438" lon="-1.07251">
        <ele>76</ele>
        <time>2011-12-11T09:44:38Z</time>
      </trkpt>
      <trkpt lat="47.0044" lon="-1.0725">
        <ele>76</ele>
        <time>2011-12-11T09:44:40Z</time>
      </trkpt>
      <trkpt lat="47.00441" lon="-1.07249">
        <ele>76</ele>
        <time>2011-12-11T09:44:41Z</time>
      </trkpt>
      <trkpt lat="47.00444" lon="-1.07246">
        <ele>76</ele>
        <time>2011-12-11T09:44:43Z</time>
      </trkpt>
      <trkpt lat="47.00445" lon="-1.07245">
        <ele>76</ele>
        <time>2011-12-11T09:44:44Z</time>
      </trkpt>
      <trkpt lat="47.00447" lon="-1.07243">
        <ele>76</ele>
        <time>2011-12-11T09:44:46Z</time>
      </trkpt>
      <trkpt lat="47.00449" lon="-1.07241">
        <ele>76</ele>
        <time>2011-12-11T09:44:48Z</time>
      </trkpt>
      <trkpt lat="47.00451" lon="-1.07238">
        <ele>76</ele>
        <time>2011-12-11T09:44:50Z</time>
      </trkpt>
      <trkpt lat="47.00452" lon="-1.07237">
        <ele>76</ele>
        <time>2011-12-11T09:44:51Z</time>
      </trkpt>
      <trkpt lat="47.00454" lon="-1.07235">
        <ele>76</ele>
        <time>2011-12-11T09:44:53Z</time>
      </trkpt>
      <trkpt lat="47.00455" lon="-1.07233">
        <ele>76</ele>
        <time>2011-12-11T09:44:55Z</time>
      </trkpt>
      <trkpt lat="47.00457" lon="-1.0723">
        <ele>76</ele>
        <time>2011-12-11T09:44:57Z</time>
      </trkpt>
      <trkpt lat="47.0046" lon="-1.07228">
        <ele>76</ele>
        <time>2011-12-11T09:44:59Z</time>
      </trkpt>
      <trkpt lat="47.00462" lon="-1.07226">
        <ele>76</ele>
        <time>2011-12-11T09:45:01Z</time>
      </trkpt>
      <trkpt lat="47.00463" lon="-1.07223">
        <ele>76</ele>
        <time>2011-12-11T09:45:03Z</time>
      </trkpt>
      <trkpt lat="47.00465" lon="-1.07221">
        <ele>76</ele>
        <time>2011-12-11T09:45:05Z</time>
      </trkpt>
      <trkpt lat="47.00467" lon="-1.07219">
        <ele>76</ele>
        <time>2011-12-11T09:45:07Z</time>
      </trkpt>
      <trkpt lat="47.00468" lon="-1.07218">
        <ele>76</ele>
        <time>2011-12-11T09:45:08Z</time>
      </trkpt>
      <trkpt lat="47.0047" lon="-1.07215">
        <ele>76</ele>
        <time>2011-12-11T09:45:10Z</time>
      </trkpt>
      <trkpt lat="47.00471" lon="-1.07214">
        <ele>76</ele>
        <time>2011-12-11T09:45:11Z</time>
      </trkpt>
      <trkpt lat="47.00473" lon="-1.07211">
        <ele>76</ele>
        <time>2011-12-11T09:45:13Z</time>
      </trkpt>
      <trkpt lat="47.00475" lon="-1.07209">
        <ele>76</ele>
        <time>2011-12-11T09:45:15Z</time>
      </trkpt>
      <trkpt lat="47.00478" lon="-1.07206">
        <ele>76</ele>
        <time>2011-12-11T09:45:17Z</time>
      </trkpt>
      <trkpt lat="47.00479" lon="-1.07205">
        <ele>76</ele>
        <time>2011-12-11T09:45:18Z</time>
      </trkpt>
      <trkpt lat="47.00481" lon="-1.07203">
        <ele>76</ele>
        <time>2011-12-11T09:45:20Z</time>
      </trkpt>
      <trkpt lat="47.00483" lon="-1.07201">
        <ele>76</ele>
        <time>2011-12-11T09:45:22Z</time>
      </trkpt>
      <trkpt lat="47.00485" lon="-1.07198">
        <ele>76</ele>
        <time>2011-12-11T09:45:24Z</time>
      </trkpt>
      <trkpt lat="47.00487" lon="-1.07195">
        <ele>76</ele>
        <time>2011-12-11T09:45:26Z</time>
      </trkpt>
      <trkpt lat="47.00489" lon="-1.07193">
        <ele>76</ele>
        <time>2011-12-11T09:45:28Z</time>
      </trkpt>
      <trkpt lat="47.00491" lon="-1.07192">
        <ele>76</ele>
        <time>2011-12-11T09:45:29Z</time>
      </trkpt>
      <trkpt lat="47.00492" lon="-1.07191">
        <ele>76</ele>
        <time>2011-12-11T09:45:30Z</time>
      </trkpt>
      <trkpt lat="47.00493" lon="-1.0719">
        <ele>76</ele>
        <time>2011-12-11T09:45:31Z</time>
      </trkpt>
      <trkpt lat="47.00495" lon="-1.07187">
        <ele>76</ele>
        <time>2011-12-11T09:45:33Z</time>
      </trkpt>
      <trkpt lat="47.00497" lon="-1.07185">
        <ele>76</ele>
        <time>2011-12-11T09:45:35Z</time>
      </trkpt>
      <trkpt lat="47.00499" lon="-1.07183">
        <ele>76</ele>
        <time>2011-12-11T09:45:37Z</time>
      </trkpt>
      <trkpt lat="47.00501" lon="-1.0718">
        <ele>76</ele>
        <time>2011-12-11T09:45:39Z</time>
      </trkpt>
      <trkpt lat="47.00503" lon="-1.07178">
        <ele>76</ele>
        <time>2011-12-11T09:45:41Z</time>
      </trkpt>
      <trkpt lat="47.00505" lon="-1.07175">
        <ele>76</ele>
        <time>2011-12-11T09:45:43Z</time>
      </trkpt>
      <trkpt lat="47.00506" lon="-1.07174">
        <ele>76</ele>
        <time>2011-12-11T09:45:44Z</time>
      </trkpt>
      <trkpt lat="47.00508" lon="-1.07172">
        <ele>76</ele>
        <time>2011-12-11T09:45:46Z</time>
      </trkpt>
      <trkpt lat="47.0051" lon="-1.0717">
        <ele>76</ele>
        <time>2011-12-11T09:45:47Z</time>
      </trkpt>
      <trkpt lat="47.00511" lon="-1.07169">
        <ele>76</ele>
        <time>2011-12-11T09:45:49Z</time>
      </trkpt>
      <trkpt lat="47.00513" lon="-1.07167">
        <ele>77</ele>
        <time>2011-12-11T09:45:51Z</time>
      </trkpt>
      <trkpt lat="47.00515" lon="-1.07166">
        <ele>77</ele>
        <time>2011-12-11T09:45:52Z</time>
      </trkpt>
      <trkpt lat="47.00516" lon="-1.07164">
        <ele>77</ele>
        <time>2011-12-11T09:45:53Z</time>
      </trkpt>
      <trkpt lat="47.00518" lon="-1.07162">
        <ele>77</ele>
        <time>2011-12-11T09:45:55Z</time>
      </trkpt>
      <trkpt lat="47.00519" lon="-1.0716">
        <ele>78</ele>
        <time>2011-12-11T09:45:57Z</time>
      </trkpt>
      <trkpt lat="47.00521" lon="-1.07158">
        <ele>78</ele>
        <time>2011-12-11T09:45:59Z</time>
      </trkpt>
      <trkpt lat="47.00523" lon="-1.07155">
        <ele>78</ele>
        <time>2011-12-11T09:46:01Z</time>
      </trkpt>
      <trkpt lat="47.00525" lon="-1.07154">
        <ele>78</ele>
        <time>2011-12-11T09:46:02Z</time>
      </trkpt>
      <trkpt lat="47.00526" lon="-1.07153">
        <ele>78</ele>
        <time>2011-12-11T09:46:03Z</time>
      </trkpt>
      <trkpt lat="47.00527" lon="-1.07152">
        <ele>78</ele>
        <time>2011-12-11T09:46:04Z</time>
      </trkpt>
      <trkpt lat="47.00528" lon="-1.07151">
        <ele>78</ele>
        <time>2011-12-11T09:46:05Z</time>
      </trkpt>
      <trkpt lat="47.0053" lon="-1.07149">
        <ele>79</ele>
        <time>2011-12-11T09:46:07Z</time>
      </trkpt>
      <trkpt lat="47.00532" lon="-1.07147">
        <ele>79</ele>
        <time>2011-12-11T09:46:09Z</time>
      </trkpt>
      <trkpt lat="47.00533" lon="-1.07144">
        <ele>79</ele>
        <time>2011-12-11T09:46:11Z</time>
      </trkpt>
      <trkpt lat="47.00536" lon="-1.07142">
        <ele>79</ele>
        <time>2011-12-11T09:46:13Z</time>
      </trkpt>
      <trkpt lat="47.00537" lon="-1.0714">
        <ele>79</ele>
        <time>2011-12-11T09:46:15Z</time>
      </trkpt>
      <trkpt lat="47.00539" lon="-1.07138">
        <ele>79</ele>
        <time>2011-12-11T09:46:17Z</time>
      </trkpt>
      <trkpt lat="47.00542" lon="-1.07135">
        <ele>79</ele>
        <time>2011-12-11T09:46:19Z</time>
      </trkpt>
      <trkpt lat="47.00544" lon="-1.07133">
        <ele>80</ele>
        <time>2011-12-11T09:46:21Z</time>
      </trkpt>
      <trkpt lat="47.00546" lon="-1.0713">
        <ele>80</ele>
        <time>2011-12-11T09:46:23Z</time>
      </trkpt>
      <trkpt lat="47.00547" lon="-1.07128">
        <ele>80</ele>
        <time>2011-12-11T09:46:25Z</time>
      </trkpt>
      <trkpt lat="47.00549" lon="-1.07126">
        <ele>80</ele>
        <time>2011-12-11T09:46:27Z</time>
      </trkpt>
      <trkpt lat="47.00551" lon="-1.07123">
        <ele>80</ele>
        <time>2011-12-11T09:46:29Z</time>
      </trkpt>
      <trkpt lat="47.00553" lon="-1.07121">
        <ele>80</ele>
        <time>2011-12-11T09:46:31Z</time>
      </trkpt>
      <trkpt lat="47.00555" lon="-1.07119">
        <ele>80</ele>
        <time>2011-12-11T09:46:33Z</time>
      </trkpt>
      <trkpt lat="47.00557" lon="-1.07116">
        <ele>80</ele>
        <time>2011-12-11T09:46:35Z</time>
      </trkpt>
      <trkpt lat="47.00558" lon="-1.07114">
        <ele>80</ele>
        <time>2011-12-11T09:46:37Z</time>
      </trkpt>
      <trkpt lat="47.0056" lon="-1.07112">
        <ele>80</ele>
        <time>2011-12-11T09:46:39Z</time>
      </trkpt>
      <trkpt lat="47.00562" lon="-1.0711">
        <ele>80</ele>
        <time>2011-12-11T09:46:41Z</time>
      </trkpt>
      <trkpt lat="47.00564" lon="-1.07108">
        <ele>80</ele>
        <time>2011-12-11T09:46:42Z</time>
      </trkpt>
      <trkpt lat="47.00566" lon="-1.07107">
        <ele>80</ele>
        <time>2011-12-11T09:46:43Z</time>
      </trkpt>
      <trkpt lat="47.00568" lon="-1.07105">
        <ele>80</ele>
        <time>2011-12-11T09:46:45Z</time>
      </trkpt>
      <trkpt lat="47.00569" lon="-1.07104">
        <ele>80</ele>
        <time>2011-12-11T09:46:46Z</time>
      </trkpt>
      <trkpt lat="47.0057" lon="-1.07103">
        <ele>80</ele>
        <time>2011-12-11T09:46:47Z</time>
      </trkpt>
      <trkpt lat="47.00572" lon="-1.071">
        <ele>80</ele>
        <time>2011-12-11T09:46:49Z</time>
      </trkpt>
      <trkpt lat="47.00574" lon="-1.07098">
        <ele>81</ele>
        <time>2011-12-11T09:46:51Z</time>
      </trkpt>
      <trkpt lat="47.00575" lon="-1.07097">
        <ele>81</ele>
        <time>2011-12-11T09:46:52Z</time>
      </trkpt>
      <trkpt lat="47.00577" lon="-1.07095">
        <ele>81</ele>
        <time>2011-12-11T09:46:54Z</time>
      </trkpt>
      <trkpt lat="47.00579" lon="-1.07092">
        <ele>81</ele>
        <time>2011-12-11T09:46:56Z</time>
      </trkpt>
      <trkpt lat="47.0058" lon="-1.07091">
        <ele>81</ele>
        <time>2011-12-11T09:46:57Z</time>
      </trkpt>
      <trkpt lat="47.00581" lon="-1.07089">
        <ele>81</ele>
        <time>2011-12-11T09:46:59Z</time>
      </trkpt>
      <trkpt lat="47.00583" lon="-1.07088">
        <ele>81</ele>
        <time>2011-12-11T09:47:00Z</time>
      </trkpt>
      <trkpt lat="47.00584" lon="-1.07087">
        <ele>81</ele>
        <time>2011-12-11T09:47:01Z</time>
      </trkpt>
      <trkpt lat="47.00586" lon="-1.07085">
        <ele>81</ele>
        <time>2011-12-11T09:47:03Z</time>
      </trkpt>
      <trkpt lat="47.00589" lon="-1.07082">
        <ele>81</ele>
        <time>2011-12-11T09:47:05Z</time>
      </trkpt>
      <trkpt lat="47.00591" lon="-1.0708">
        <ele>81</ele>
        <time>2011-12-11T09:47:07Z</time>
      </trkpt>
      <trkpt lat="47.00592" lon="-1.07078">
        <ele>81</ele>
        <time>2011-12-11T09:47:09Z</time>
      </trkpt>
      <trkpt lat="47.00594" lon="-1.07075">
        <ele>81</ele>
        <time>2011-12-11T09:47:11Z</time>
      </trkpt>
      <trkpt lat="47.00596" lon="-1.07073">
        <ele>81</ele>
        <time>2011-12-11T09:47:13Z</time>
      </trkpt>
      <trkpt lat="47.00598" lon="-1.07071">
        <ele>81</ele>
        <time>2011-12-11T09:47:15Z</time>
      </trkpt>
      <trkpt lat="47.006" lon="-1.07069">
        <ele>81</ele>
        <time>2011-12-11T09:47:17Z</time>
      </trkpt>
      <trkpt lat="47.00602" lon="-1.07066">
        <ele>81</ele>
        <time>2011-12-11T09:47:19Z</time>
      </trkpt>
      <trkpt lat="47.00604" lon="-1.07064">
        <ele>81</ele>
        <time>2011-12-11T09:47:21Z</time>
      </trkpt>
      <trkpt lat="47.00605" lon="-1.07063">
        <ele>81</ele>
        <time>2011-12-11T09:47:22Z</time>
      </trkpt>
      <trkpt lat="47.00607" lon="-1.07062">
        <ele>81</ele>
        <time>2011-12-11T09:47:23Z</time>
      </trkpt>
      <trkpt lat="47.00609" lon="-1.07059">
        <ele>81</ele>
        <time>2011-12-11T09:47:25Z</time>
      </trkpt>
      <trkpt lat="47.0061" lon="-1.07058">
        <ele>81</ele>
        <time>2011-12-11T09:47:26Z</time>
      </trkpt>
      <trkpt lat="47.00612" lon="-1.07055">
        <ele>81</ele>
        <time>2011-12-11T09:47:28Z</time>
      </trkpt>
      <trkpt lat="47.00614" lon="-1.07053">
        <ele>81</ele>
        <time>2011-12-11T09:47:30Z</time>
      </trkpt>
      <trkpt lat="47.00616" lon="-1.0705">
        <ele>81</ele>
        <time>2011-12-11T09:47:32Z</time>
      </trkpt>
      <trkpt lat="47.00618" lon="-1.07048">
        <ele>81</ele>
        <time>2011-12-11T09:47:34Z</time>
      </trkpt>
      <trkpt lat="47.00619" lon="-1.07047">
        <ele>81</ele>
        <time>2011-12-11T09:47:35Z</time>
      </trkpt>
      <trkpt lat="47.0062" lon="-1.07046">
        <ele>81</ele>
        <time>2011-12-11T09:47:36Z</time>
      </trkpt>
      <trkpt lat="47.00622" lon="-1.07043">
        <ele>81</ele>
        <time>2011-12-11T09:47:38Z</time>
      </trkpt>
      <trkpt lat="47.00624" lon="-1.07041">
        <ele>81</ele>
        <time>2011-12-11T09:47:40Z</time>
      </trkpt>
      <trkpt lat="47.00626" lon="-1.07038">
        <ele>81</ele>
        <time>2011-12-11T09:47:42Z</time>
      </trkpt>
      <trkpt lat="47.00628" lon="-1.07036">
        <ele>81</ele>
        <time>2011-12-11T09:47:44Z</time>
      </trkpt>
      <trkpt lat="47.0063" lon="-1.07033">
        <ele>81</ele>
        <time>2011-12-11T09:47:46Z</time>
      </trkpt>
      <trkpt lat="47.00632" lon="-1.0703">
        <ele>81</ele>
        <time>2011-12-11T09:47:48Z</time>
      </trkpt>
      <trkpt lat="47.00634" lon="-1.07028">
        <ele>81</ele>
        <time>2011-12-11T09:47:50Z</time>
      </trkpt>
      <trkpt lat="47.00636" lon="-1.07025">
        <ele>81</ele>
        <time>2011-12-11T09:47:52Z</time>
      </trkpt>
      <trkpt lat="47.00637" lon="-1.07023">
        <ele>81</ele>
        <time>2011-12-11T09:47:54Z</time>
      </trkpt>
      <trkpt lat="47.00639" lon="-1.0702">
        <ele>81</ele>
        <time>2011-12-11T09:47:56Z</time>
      </trkpt>
      <trkpt lat="47.00641" lon="-1.07017">
        <ele>81</ele>
        <time>2011-12-11T09:47:58Z</time>
      </trkpt>
      <trkpt lat="47.00642" lon="-1.07016">
        <ele>81</ele>
        <time>2011-12-11T09:47:59Z</time>
      </trkpt>
      <trkpt lat="47.00645" lon="-1.07013">
        <ele>81</ele>
        <time>2011-12-11T09:48:01Z</time>
      </trkpt>
      <trkpt lat="47.00646" lon="-1.07012">
        <ele>81</ele>
        <time>2011-12-11T09:48:02Z</time>
      </trkpt>
      <trkpt lat="47.00647" lon="-1.0701">
        <ele>81</ele>
        <time>2011-12-11T09:48:03Z</time>
      </trkpt>
      <trkpt lat="47.00649" lon="-1.07009">
        <ele>82</ele>
        <time>2011-12-11T09:48:04Z</time>
      </trkpt>
      <trkpt lat="47.0065" lon="-1.07008">
        <ele>82</ele>
        <time>2011-12-11T09:48:05Z</time>
      </trkpt>
      <trkpt lat="47.0065" lon="-1.07007">
        <ele>83</ele>
        <time>2011-12-11T09:48:06Z</time>
      </trkpt>
      <trkpt lat="47.00651" lon="-1.07005">
        <ele>83</ele>
        <time>2011-12-11T09:48:07Z</time>
      </trkpt>
      <trkpt lat="47.00652" lon="-1.07003">
        <ele>84</ele>
        <time>2011-12-11T09:48:08Z</time>
      </trkpt>
      <trkpt lat="47.00653" lon="-1.07001">
        <ele>84</ele>
        <time>2011-12-11T09:48:09Z</time>
      </trkpt>
      <trkpt lat="47.00654" lon="-1.07">
        <ele>84</ele>
        <time>2011-12-11T09:48:10Z</time>
      </trkpt>
      <trkpt lat="47.00655" lon="-1.06998">
        <ele>84</ele>
        <time>2011-12-11T09:48:11Z</time>
      </trkpt>
      <trkpt lat="47.00656" lon="-1.06996">
        <ele>85</ele>
        <time>2011-12-11T09:48:12Z</time>
      </trkpt>
      <trkpt lat="47.00657" lon="-1.06995">
        <ele>85</ele>
        <time>2011-12-11T09:48:13Z</time>
      </trkpt>
      <trkpt lat="47.00658" lon="-1.06993">
        <ele>85</ele>
        <time>2011-12-11T09:48:14Z</time>
      </trkpt>
      <trkpt lat="47.00659" lon="-1.06992">
        <ele>85</ele>
        <time>2011-12-11T09:48:15Z</time>
      </trkpt>
      <trkpt lat="47.00661" lon="-1.06992">
        <ele>85</ele>
        <time>2011-12-11T09:48:17Z</time>
      </trkpt>
      <trkpt lat="47.00663" lon="-1.06993">
        <ele>85</ele>
        <time>2011-12-11T09:48:19Z</time>
      </trkpt>
      <trkpt lat="47.00664" lon="-1.06995">
        <ele>85</ele>
        <time>2011-12-11T09:48:21Z</time>
      </trkpt>
      <trkpt lat="47.00664" lon="-1.06997">
        <ele>85</ele>
        <time>2011-12-11T09:48:22Z</time>
      </trkpt>
      <trkpt lat="47.00665" lon="-1.06998">
        <ele>85</ele>
        <time>2011-12-11T09:48:23Z</time>
      </trkpt>
      <trkpt lat="47.00666" lon="-1.07">
        <ele>85</ele>
        <time>2011-12-11T09:48:24Z</time>
      </trkpt>
      <trkpt lat="47.00666" lon="-1.07001">
        <ele>85</ele>
        <time>2011-12-11T09:48:25Z</time>
      </trkpt>
      <trkpt lat="47.00666" lon="-1.07003">
        <ele>85</ele>
        <time>2011-12-11T09:48:26Z</time>
      </trkpt>
      <trkpt lat="47.00666" lon="-1.07006">
        <ele>85</ele>
        <time>2011-12-11T09:48:28Z</time>
      </trkpt>
      <trkpt lat="47.00666" lon="-1.07007">
        <ele>85</ele>
        <time>2011-12-11T09:48:29Z</time>
      </trkpt>
      <trkpt lat="47.00666" lon="-1.07009">
        <ele>85</ele>
        <time>2011-12-11T09:48:30Z</time>
      </trkpt>
      <trkpt lat="47.00666" lon="-1.0701">
        <ele>85</ele>
        <time>2011-12-11T09:48:31Z</time>
      </trkpt>
      <trkpt lat="47.00667" lon="-1.07012">
        <ele>85</ele>
        <time>2011-12-11T09:48:32Z</time>
      </trkpt>
      <trkpt lat="47.00667" lon="-1.07014">
        <ele>85</ele>
        <time>2011-12-11T09:48:33Z</time>
      </trkpt>
      <trkpt lat="47.00667" lon="-1.07016">
        <ele>85</ele>
        <time>2011-12-11T09:48:34Z</time>
      </trkpt>
      <trkpt lat="47.00668" lon="-1.07018">
        <ele>85</ele>
        <time>2011-12-11T09:48:35Z</time>
      </trkpt>
      <trkpt lat="47.00668" lon="-1.07019">
        <ele>85</ele>
        <time>2011-12-11T09:48:36Z</time>
      </trkpt>
      <trkpt lat="47.00668" lon="-1.07021">
        <ele>85</ele>
        <time>2011-12-11T09:48:37Z</time>
      </trkpt>
      <trkpt lat="47.00668" lon="-1.07023">
        <ele>85</ele>
        <time>2011-12-11T09:48:38Z</time>
      </trkpt>
      <trkpt lat="47.00668" lon="-1.07025">
        <ele>85</ele>
        <time>2011-12-11T09:48:39Z</time>
      </trkpt>
      <trkpt lat="47.00668" lon="-1.07027">
        <ele>85</ele>
        <time>2011-12-11T09:48:40Z</time>
      </trkpt>
      <trkpt lat="47.00668" lon="-1.07028">
        <ele>85</ele>
        <time>2011-12-11T09:48:41Z</time>
      </trkpt>
      <trkpt lat="47.00668" lon="-1.0703">
        <ele>85</ele>
        <time>2011-12-11T09:48:42Z</time>
      </trkpt>
      <trkpt lat="47.00669" lon="-1.07032">
        <ele>85</ele>
        <time>2011-12-11T09:48:43Z</time>
      </trkpt>
      <trkpt lat="47.00669" lon="-1.07034">
        <ele>85</ele>
        <time>2011-12-11T09:48:44Z</time>
      </trkpt>
      <trkpt lat="47.0067" lon="-1.07035">
        <ele>85</ele>
        <time>2011-12-11T09:48:45Z</time>
      </trkpt>
      <trkpt lat="47.0067" lon="-1.07037">
        <ele>85</ele>
        <time>2011-12-11T09:48:47Z</time>
      </trkpt>
      <trkpt lat="47.0067" lon="-1.07039">
        <ele>85</ele>
        <time>2011-12-11T09:48:48Z</time>
      </trkpt>
      <trkpt lat="47.0067" lon="-1.07041">
        <ele>85</ele>
        <time>2011-12-11T09:48:49Z</time>
      </trkpt>
      <trkpt lat="47.0067" lon="-1.07043">
        <ele>85</ele>
        <time>2011-12-11T09:48:50Z</time>
      </trkpt>
      <trkpt lat="47.00669" lon="-1.07045">
        <ele>85</ele>
        <time>2011-12-11T09:48:51Z</time>
      </trkpt>
      <trkpt lat="47.00669" lon="-1.07047">
        <ele>85</ele>
        <time>2011-12-11T09:48:52Z</time>
      </trkpt>
      <trkpt lat="47.00669" lon="-1.07049">
        <ele>85</ele>
        <time>2011-12-11T09:48:53Z</time>
      </trkpt>
      <trkpt lat="47.00669" lon="-1.07052">
        <ele>85</ele>
        <time>2011-12-11T09:48:54Z</time>
      </trkpt>
      <trkpt lat="47.00669" lon="-1.07054">
        <ele>85</ele>
        <time>2011-12-11T09:48:55Z</time>
      </trkpt>
      <trkpt lat="47.00669" lon="-1.07055">
        <ele>85</ele>
        <time>2011-12-11T09:48:56Z</time>
      </trkpt>
      <trkpt lat="47.00669" lon="-1.07057">
        <ele>85</ele>
        <time>2011-12-11T09:48:57Z</time>
      </trkpt>
      <trkpt lat="47.00669" lon="-1.0706">
        <ele>85</ele>
        <time>2011-12-11T09:48:58Z</time>
      </trkpt>
      <trkpt lat="47.00669" lon="-1.07062">
        <ele>85</ele>
        <time>2011-12-11T09:48:59Z</time>
      </trkpt>
      <trkpt lat="47.00669" lon="-1.07063">
        <ele>85</ele>
        <time>2011-12-11T09:49:00Z</time>
      </trkpt>
      <trkpt lat="47.0067" lon="-1.07065">
        <ele>85</ele>
        <time>2011-12-11T09:49:01Z</time>
      </trkpt>
      <trkpt lat="47.0067" lon="-1.07067">
        <ele>85</ele>
        <time>2011-12-11T09:49:02Z</time>
      </trkpt>
      <trkpt lat="47.00669" lon="-1.07069">
        <ele>85</ele>
        <time>2011-12-11T09:49:03Z</time>
      </trkpt>
      <trkpt lat="47.00669" lon="-1.07071">
        <ele>85</ele>
        <time>2011-12-11T09:49:04Z</time>
      </trkpt>
      <trkpt lat="47.00669" lon="-1.07072">
        <ele>85</ele>
        <time>2011-12-11T09:49:05Z</time>
      </trkpt>
      <trkpt lat="47.00669" lon="-1.07074">
        <ele>85</ele>
        <time>2011-12-11T09:49:06Z</time>
      </trkpt>
      <trkpt lat="47.00669" lon="-1.07077">
        <ele>85</ele>
        <time>2011-12-11T09:49:07Z</time>
      </trkpt>
      <trkpt lat="47.00669" lon="-1.07079">
        <ele>85</ele>
        <time>2011-12-11T09:49:08Z</time>
      </trkpt>
      <trkpt lat="47.00669" lon="-1.0708">
        <ele>85</ele>
        <time>2011-12-11T09:49:09Z</time>
      </trkpt>
      <trkpt lat="47.00669" lon="-1.07082">
        <ele>85</ele>
        <time>2011-12-11T09:49:10Z</time>
      </trkpt>
      <trkpt lat="47.00669" lon="-1.07084">
        <ele>85</ele>
        <time>2011-12-11T09:49:11Z</time>
      </trkpt>
      <trkpt lat="47.00669" lon="-1.07086">
        <ele>85</ele>
        <time>2011-12-11T09:49:12Z</time>
      </trkpt>
      <trkpt lat="47.00669" lon="-1.07088">
        <ele>85</ele>
        <time>2011-12-11T09:49:13Z</time>
      </trkpt>
      <trkpt lat="47.0067" lon="-1.0709">
        <ele>85</ele>
        <time>2011-12-11T09:49:14Z</time>
      </trkpt>
      <trkpt lat="47.0067" lon="-1.07091">
        <ele>85</ele>
        <time>2011-12-11T09:49:15Z</time>
      </trkpt>
      <trkpt lat="47.0067" lon="-1.07093">
        <ele>85</ele>
        <time>2011-12-11T09:49:16Z</time>
      </trkpt>
      <trkpt lat="47.0067" lon="-1.07095">
        <ele>85</ele>
        <time>2011-12-11T09:49:17Z</time>
      </trkpt>
      <trkpt lat="47.00671" lon="-1.07097">
        <ele>85</ele>
        <time>2011-12-11T09:49:18Z</time>
      </trkpt>
      <trkpt lat="47.00671" lon="-1.07099">
        <ele>85</ele>
        <time>2011-12-11T09:49:19Z</time>
      </trkpt>
      <trkpt lat="47.00671" lon="-1.07101">
        <ele>85</ele>
        <time>2011-12-11T09:49:20Z</time>
      </trkpt>
      <trkpt lat="47.00671" lon="-1.07103">
        <ele>85</ele>
        <time>2011-12-11T09:49:21Z</time>
      </trkpt>
      <trkpt lat="47.00671" lon="-1.07105">
        <ele>85</ele>
        <time>2011-12-11T09:49:22Z</time>
      </trkpt>
      <trkpt lat="47.00671" lon="-1.07106">
        <ele>85</ele>
        <time>2011-12-11T09:49:23Z</time>
      </trkpt>
      <trkpt lat="47.00671" lon="-1.07108">
        <ele>85</ele>
        <time>2011-12-11T09:49:24Z</time>
      </trkpt>
      <trkpt lat="47.00672" lon="-1.07111">
        <ele>85</ele>
        <time>2011-12-11T09:49:25Z</time>
      </trkpt>
      <trkpt lat="47.00672" lon="-1.07113">
        <ele>85</ele>
        <time>2011-12-11T09:49:26Z</time>
      </trkpt>
      <trkpt lat="47.00672" lon="-1.07115">
        <ele>85</ele>
        <time>2011-12-11T09:49:27Z</time>
      </trkpt>
      <trkpt lat="47.00673" lon="-1.07116">
        <ele>85</ele>
        <time>2011-12-11T09:49:28Z</time>
      </trkpt>
      <trkpt lat="47.00673" lon="-1.07118">
        <ele>85</ele>
        <time>2011-12-11T09:49:29Z</time>
      </trkpt>
      <trkpt lat="47.00673" lon="-1.0712">
        <ele>85</ele>
        <time>2011-12-11T09:49:30Z</time>
      </trkpt>
      <trkpt lat="47.00673" lon="-1.07122">
        <ele>85</ele>
        <time>2011-12-11T09:49:31Z</time>
      </trkpt>
      <trkpt lat="47.00673" lon="-1.07124">
        <ele>85</ele>
        <time>2011-12-11T09:49:32Z</time>
      </trkpt>
      <trkpt lat="47.00674" lon="-1.07126">
        <ele>85</ele>
        <time>2011-12-11T09:49:33Z</time>
      </trkpt>
      <trkpt lat="47.00674" lon="-1.07127">
        <ele>85</ele>
        <time>2011-12-11T09:49:34Z</time>
      </trkpt>
      <trkpt lat="47.00674" lon="-1.07129">
        <ele>85</ele>
        <time>2011-12-11T09:49:35Z</time>
      </trkpt>
      <trkpt lat="47.00674" lon="-1.07131">
        <ele>85</ele>
        <time>2011-12-11T09:49:36Z</time>
      </trkpt>
      <trkpt lat="47.00674" lon="-1.07133">
        <ele>85</ele>
        <time>2011-12-11T09:49:37Z</time>
      </trkpt>
      <trkpt lat="47.00675" lon="-1.07135">
        <ele>85</ele>
        <time>2011-12-11T09:49:38Z</time>
      </trkpt>
      <trkpt lat="47.00675" lon="-1.07136">
        <ele>85</ele>
        <time>2011-12-11T09:49:39Z</time>
      </trkpt>
      <trkpt lat="47.00675" lon="-1.07138">
        <ele>85</ele>
        <time>2011-12-11T09:49:40Z</time>
      </trkpt>
      <trkpt lat="47.00676" lon="-1.0714">
        <ele>85</ele>
        <time>2011-12-11T09:49:41Z</time>
      </trkpt>
      <trkpt lat="47.00676" lon="-1.07142">
        <ele>85</ele>
        <time>2011-12-11T09:49:42Z</time>
      </trkpt>
      <trkpt lat="47.00676" lon="-1.07144">
        <ele>85</ele>
        <time>2011-12-11T09:49:43Z</time>
      </trkpt>
      <trkpt lat="47.00677" lon="-1.07147">
        <ele>85</ele>
        <time>2011-12-11T09:49:44Z</time>
      </trkpt>
      <trkpt lat="47.00678" lon="-1.07148">
        <ele>85</ele>
        <time>2011-12-11T09:49:45Z</time>
      </trkpt>
      <trkpt lat="47.00679" lon="-1.0715">
        <ele>85</ele>
        <time>2011-12-11T09:49:46Z</time>
      </trkpt>
      <trkpt lat="47.00679" lon="-1.07152">
        <ele>85</ele>
        <time>2011-12-11T09:49:47Z</time>
      </trkpt>
      <trkpt lat="47.00679" lon="-1.07155">
        <ele>85</ele>
        <time>2011-12-11T09:49:49Z</time>
      </trkpt>
      <trkpt lat="47.00679" lon="-1.07157">
        <ele>85</ele>
        <time>2011-12-11T09:49:50Z</time>
      </trkpt>
      <trkpt lat="47.00681" lon="-1.07159">
        <ele>85</ele>
        <time>2011-12-11T09:49:52Z</time>
      </trkpt>
      <trkpt lat="47.00681" lon="-1.07161">
        <ele>85</ele>
        <time>2011-12-11T09:49:53Z</time>
      </trkpt>
      <trkpt lat="47.00682" lon="-1.07163">
        <ele>85</ele>
        <time>2011-12-11T09:49:54Z</time>
      </trkpt>
      <trkpt lat="47.00682" lon="-1.07165">
        <ele>85</ele>
        <time>2011-12-11T09:49:55Z</time>
      </trkpt>
      <trkpt lat="47.00683" lon="-1.07167">
        <ele>85</ele>
        <time>2011-12-11T09:49:56Z</time>
      </trkpt>
      <trkpt lat="47.00683" lon="-1.07169">
        <ele>85</ele>
        <time>2011-12-11T09:49:57Z</time>
      </trkpt>
      <trkpt lat="47.00683" lon="-1.07171">
        <ele>85</ele>
        <time>2011-12-11T09:49:58Z</time>
      </trkpt>
      <trkpt lat="47.00684" lon="-1.07173">
        <ele>85</ele>
        <time>2011-12-11T09:49:59Z</time>
      </trkpt>
      <trkpt lat="47.00684" lon="-1.07175">
        <ele>85</ele>
        <time>2011-12-11T09:50:00Z</time>
      </trkpt>
      <trkpt lat="47.00685" lon="-1.07176">
        <ele>85</ele>
        <time>2011-12-11T09:50:01Z</time>
      </trkpt>
      <trkpt lat="47.00686" lon="-1.07179">
        <ele>85</ele>
        <time>2011-12-11T09:50:03Z</time>
      </trkpt>
      <trkpt lat="47.00687" lon="-1.07181">
        <ele>85</ele>
        <time>2011-12-11T09:50:04Z</time>
      </trkpt>
      <trkpt lat="47.00687" lon="-1.07183">
        <ele>85</ele>
        <time>2011-12-11T09:50:05Z</time>
      </trkpt>
      <trkpt lat="47.00687" lon="-1.07184">
        <ele>85</ele>
        <time>2011-12-11T09:50:06Z</time>
      </trkpt>
      <trkpt lat="47.00688" lon="-1.07186">
        <ele>85</ele>
        <time>2011-12-11T09:50:07Z</time>
      </trkpt>
      <trkpt lat="47.00688" lon="-1.07187">
        <ele>85</ele>
        <time>2011-12-11T09:50:08Z</time>
      </trkpt>
      <trkpt lat="47.00688" lon="-1.07189">
        <ele>85</ele>
        <time>2011-12-11T09:50:09Z</time>
      </trkpt>
      <trkpt lat="47.00689" lon="-1.07191">
        <ele>85</ele>
        <time>2011-12-11T09:50:10Z</time>
      </trkpt>
      <trkpt lat="47.00689" lon="-1.07193">
        <ele>85</ele>
        <time>2011-12-11T09:50:11Z</time>
      </trkpt>
      <trkpt lat="47.00689" lon="-1.07195">
        <ele>85</ele>
        <time>2011-12-11T09:50:12Z</time>
      </trkpt>
      <trkpt lat="47.00689" lon="-1.07197">
        <ele>85</ele>
        <time>2011-12-11T09:50:13Z</time>
      </trkpt>
      <trkpt lat="47.00689" lon="-1.07199">
        <ele>85</ele>
        <time>2011-12-11T09:50:14Z</time>
      </trkpt>
      <trkpt lat="47.0069" lon="-1.07201">
        <ele>85</ele>
        <time>2011-12-11T09:50:15Z</time>
      </trkpt>
      <trkpt lat="47.0069" lon="-1.07202">
        <ele>85</ele>
        <time>2011-12-11T09:50:16Z</time>
      </trkpt>
      <trkpt lat="47.00691" lon="-1.07206">
        <ele>85</ele>
        <time>2011-12-11T09:50:18Z</time>
      </trkpt>
      <trkpt lat="47.00691" lon="-1.07207">
        <ele>85</ele>
        <time>2011-12-11T09:50:19Z</time>
      </trkpt>
      <trkpt lat="47.00691" lon="-1.0721">
        <ele>85</ele>
        <time>2011-12-11T09:50:20Z</time>
      </trkpt>
      <trkpt lat="47.00692" lon="-1.07211">
        <ele>85</ele>
        <time>2011-12-11T09:50:21Z</time>
      </trkpt>
      <trkpt lat="47.00692" lon="-1.07213">
        <ele>85</ele>
        <time>2011-12-11T09:50:22Z</time>
      </trkpt>
      <trkpt lat="47.00692" lon="-1.07215">
        <ele>85</ele>
        <time>2011-12-11T09:50:23Z</time>
      </trkpt>
      <trkpt lat="47.00692" lon="-1.07217">
        <ele>85</ele>
        <time>2011-12-11T09:50:24Z</time>
      </trkpt>
      <trkpt lat="47.00693" lon="-1.07219">
        <ele>85</ele>
        <time>2011-12-11T09:50:25Z</time>
      </trkpt>
      <trkpt lat="47.00694" lon="-1.07221">
        <ele>85</ele>
        <time>2011-12-11T09:50:26Z</time>
      </trkpt>
      <trkpt lat="47.00694" lon="-1.07222">
        <ele>85</ele>
        <time>2011-12-11T09:50:27Z</time>
      </trkpt>
      <trkpt lat="47.00694" lon="-1.07224">
        <ele>85</ele>
        <time>2011-12-11T09:50:28Z</time>
      </trkpt>
      <trkpt lat="47.00695" lon="-1.07226">
        <ele>85</ele>
        <time>2011-12-11T09:50:29Z</time>
      </trkpt>
      <trkpt lat="47.00695" lon="-1.07228">
        <ele>85</ele>
        <time>2011-12-11T09:50:30Z</time>
      </trkpt>
      <trkpt lat="47.00695" lon="-1.0723">
        <ele>85</ele>
        <time>2011-12-11T09:50:32Z</time>
      </trkpt>
      <trkpt lat="47.00695" lon="-1.07232">
        <ele>85</ele>
        <time>2011-12-11T09:50:33Z</time>
      </trkpt>
      <trkpt lat="47.00695" lon="-1.07235">
        <ele>85</ele>
        <time>2011-12-11T09:50:34Z</time>
      </trkpt>
      <trkpt lat="47.00695" lon="-1.07236">
        <ele>85</ele>
        <time>2011-12-11T09:50:35Z</time>
      </trkpt>
      <trkpt lat="47.00695" lon="-1.07238">
        <ele>85</ele>
        <time>2011-12-11T09:50:36Z</time>
      </trkpt>
      <trkpt lat="47.00695" lon="-1.0724">
        <ele>85</ele>
        <time>2011-12-11T09:50:37Z</time>
      </trkpt>
      <trkpt lat="47.00696" lon="-1.07242">
        <ele>85</ele>
        <time>2011-12-11T09:50:38Z</time>
      </trkpt>
      <trkpt lat="47.00697" lon="-1.07244">
        <ele>85</ele>
        <time>2011-12-11T09:50:39Z</time>
      </trkpt>
      <trkpt lat="47.00697" lon="-1.07246">
        <ele>85</ele>
        <time>2011-12-11T09:50:40Z</time>
      </trkpt>
      <trkpt lat="47.00697" lon="-1.07249">
        <ele>85</ele>
        <time>2011-12-11T09:50:41Z</time>
      </trkpt>
      <trkpt lat="47.00697" lon="-1.0725">
        <ele>85</ele>
        <time>2011-12-11T09:50:42Z</time>
      </trkpt>
      <trkpt lat="47.00698" lon="-1.07252">
        <ele>85</ele>
        <time>2011-12-11T09:50:43Z</time>
      </trkpt>
      <trkpt lat="47.00698" lon="-1.07254">
        <ele>85</ele>
        <time>2011-12-11T09:50:44Z</time>
      </trkpt>
      <trkpt lat="47.00699" lon="-1.07256">
        <ele>85</ele>
        <time>2011-12-11T09:50:45Z</time>
      </trkpt>
      <trkpt lat="47.00699" lon="-1.07258">
        <ele>85</ele>
        <time>2011-12-11T09:50:46Z</time>
      </trkpt>
      <trkpt lat="47.007" lon="-1.07261">
        <ele>85</ele>
        <time>2011-12-11T09:50:47Z</time>
      </trkpt>
      <trkpt lat="47.007" lon="-1.07263">
        <ele>85</ele>
        <time>2011-12-11T09:50:48Z</time>
      </trkpt>
      <trkpt lat="47.00701" lon="-1.07264">
        <ele>85</ele>
        <time>2011-12-11T09:50:49Z</time>
      </trkpt>
      <trkpt lat="47.00701" lon="-1.07266">
        <ele>85</ele>
        <time>2011-12-11T09:50:50Z</time>
      </trkpt>
      <trkpt lat="47.00702" lon="-1.07267">
        <ele>85</ele>
        <time>2011-12-11T09:50:51Z</time>
      </trkpt>
      <trkpt lat="47.00703" lon="-1.07269">
        <ele>85</ele>
        <time>2011-12-11T09:50:52Z</time>
      </trkpt>
      <trkpt lat="47.00703" lon="-1.07271">
        <ele>85</ele>
        <time>2011-12-11T09:50:53Z</time>
      </trkpt>
      <trkpt lat="47.00704" lon="-1.07273">
        <ele>85</ele>
        <time>2011-12-11T09:50:54Z</time>
      </trkpt>
      <trkpt lat="47.00705" lon="-1.07275">
        <ele>85</ele>
        <time>2011-12-11T09:50:55Z</time>
      </trkpt>
      <trkpt lat="47.00706" lon="-1.07277">
        <ele>85</ele>
        <time>2011-12-11T09:50:56Z</time>
      </trkpt>
      <trkpt lat="47.00706" lon="-1.07279">
        <ele>85</ele>
        <time>2011-12-11T09:50:57Z</time>
      </trkpt>
      <trkpt lat="47.00707" lon="-1.07281">
        <ele>85</ele>
        <time>2011-12-11T09:50:58Z</time>
      </trkpt>
      <trkpt lat="47.00708" lon="-1.07282">
        <ele>85</ele>
        <time>2011-12-11T09:50:59Z</time>
      </trkpt>
      <trkpt lat="47.00709" lon="-1.07284">
        <ele>85</ele>
        <time>2011-12-11T09:51:00Z</time>
      </trkpt>
      <trkpt lat="47.00709" lon="-1.07286">
        <ele>85</ele>
        <time>2011-12-11T09:51:01Z</time>
      </trkpt>
      <trkpt lat="47.0071" lon="-1.07288">
        <ele>85</ele>
        <time>2011-12-11T09:51:02Z</time>
      </trkpt>
      <trkpt lat="47.00711" lon="-1.0729">
        <ele>85</ele>
        <time>2011-12-11T09:51:03Z</time>
      </trkpt>
      <trkpt lat="47.00712" lon="-1.07292">
        <ele>85</ele>
        <time>2011-12-11T09:51:04Z</time>
      </trkpt>
      <trkpt lat="47.00712" lon="-1.07293">
        <ele>85</ele>
        <time>2011-12-11T09:51:05Z</time>
      </trkpt>
      <trkpt lat="47.00713" lon="-1.07295">
        <ele>85</ele>
        <time>2011-12-11T09:51:06Z</time>
      </trkpt>
      <trkpt lat="47.00714" lon="-1.07297">
        <ele>85</ele>
        <time>2011-12-11T09:51:07Z</time>
      </trkpt>
      <trkpt lat="47.00714" lon="-1.07298">
        <ele>85</ele>
        <time>2011-12-11T09:51:08Z</time>
      </trkpt>
      <trkpt lat="47.00715" lon="-1.073">
        <ele>85</ele>
        <time>2011-12-11T09:51:09Z</time>
      </trkpt>
      <trkpt lat="47.00716" lon="-1.07302">
        <ele>85</ele>
        <time>2011-12-11T09:51:10Z</time>
      </trkpt>
      <trkpt lat="47.00716" lon="-1.07303">
        <ele>85</ele>
        <time>2011-12-11T09:51:11Z</time>
      </trkpt>
      <trkpt lat="47.00716" lon="-1.07305">
        <ele>85</ele>
        <time>2011-12-11T09:51:12Z</time>
      </trkpt>
      <trkpt lat="47.00717" lon="-1.07307">
        <ele>85</ele>
        <time>2011-12-11T09:51:13Z</time>
      </trkpt>
      <trkpt lat="47.00718" lon="-1.07308">
        <ele>85</ele>
        <time>2011-12-11T09:51:14Z</time>
      </trkpt>
      <trkpt lat="47.00719" lon="-1.0731">
        <ele>85</ele>
        <time>2011-12-11T09:51:15Z</time>
      </trkpt>
      <trkpt lat="47.00719" lon="-1.07312">
        <ele>85</ele>
        <time>2011-12-11T09:51:16Z</time>
      </trkpt>
      <trkpt lat="47.0072" lon="-1.07314">
        <ele>85</ele>
        <time>2011-12-11T09:51:17Z</time>
      </trkpt>
      <trkpt lat="47.00721" lon="-1.07316">
        <ele>85</ele>
        <time>2011-12-11T09:51:18Z</time>
      </trkpt>
      <trkpt lat="47.00722" lon="-1.07317">
        <ele>85</ele>
        <time>2011-12-11T09:51:19Z</time>
      </trkpt>
      <trkpt lat="47.00722" lon="-1.07319">
        <ele>85</ele>
        <time>2011-12-11T09:51:20Z</time>
      </trkpt>
      <trkpt lat="47.00723" lon="-1.07321">
        <ele>85</ele>
        <time>2011-12-11T09:51:21Z</time>
      </trkpt>
      <trkpt lat="47.00724" lon="-1.07323">
        <ele>85</ele>
        <time>2011-12-11T09:51:22Z</time>
      </trkpt>
      <trkpt lat="47.00724" lon="-1.07324">
        <ele>85</ele>
        <time>2011-12-11T09:51:23Z</time>
      </trkpt>
      <trkpt lat="47.00725" lon="-1.07326">
        <ele>85</ele>
        <time>2011-12-11T09:51:24Z</time>
      </trkpt>
      <trkpt lat="47.00727" lon="-1.07328">
        <ele>85</ele>
        <time>2011-12-11T09:51:26Z</time>
      </trkpt>
      <trkpt lat="47.00727" lon="-1.07331">
        <ele>85</ele>
        <time>2011-12-11T09:51:27Z</time>
      </trkpt>
      <trkpt lat="47.00727" lon="-1.07333">
        <ele>85</ele>
        <time>2011-12-11T09:51:28Z</time>
      </trkpt>
      <trkpt lat="47.00729" lon="-1.07336">
        <ele>85</ele>
        <time>2011-12-11T09:51:30Z</time>
      </trkpt>
      <trkpt lat="47.00729" lon="-1.07337">
        <ele>85</ele>
        <time>2011-12-11T09:51:31Z</time>
      </trkpt>
      <trkpt lat="47.00731" lon="-1.0734">
        <ele>85</ele>
        <time>2011-12-11T09:51:33Z</time>
      </trkpt>
      <trkpt lat="47.00732" lon="-1.07343">
        <ele>85</ele>
        <time>2011-12-11T09:51:35Z</time>
      </trkpt>
      <trkpt lat="47.00732" lon="-1.07345">
        <ele>85</ele>
        <time>2011-12-11T09:51:36Z</time>
      </trkpt>
      <trkpt lat="47.00732" lon="-1.07346">
        <ele>85</ele>
        <time>2011-12-11T09:51:37Z</time>
      </trkpt>
      <trkpt lat="47.00733" lon="-1.07348">
        <ele>85</ele>
        <time>2011-12-11T09:51:38Z</time>
      </trkpt>
      <trkpt lat="47.00734" lon="-1.0735">
        <ele>85</ele>
        <time>2011-12-11T09:51:39Z</time>
      </trkpt>
      <trkpt lat="47.00734" lon="-1.07351">
        <ele>85</ele>
        <time>2011-12-11T09:51:40Z</time>
      </trkpt>
      <trkpt lat="47.00735" lon="-1.07353">
        <ele>85</ele>
        <time>2011-12-11T09:51:41Z</time>
      </trkpt>
      <trkpt lat="47.00737" lon="-1.07356">
        <ele>85</ele>
        <time>2011-12-11T09:51:43Z</time>
      </trkpt>
      <trkpt lat="47.00737" lon="-1.07357">
        <ele>85</ele>
        <time>2011-12-11T09:51:44Z</time>
      </trkpt>
      <trkpt lat="47.00738" lon="-1.07359">
        <ele>85</ele>
        <time>2011-12-11T09:51:45Z</time>
      </trkpt>
      <trkpt lat="47.00739" lon="-1.07361">
        <ele>85</ele>
        <time>2011-12-11T09:51:46Z</time>
      </trkpt>
      <trkpt lat="47.00739" lon="-1.07362">
        <ele>85</ele>
        <time>2011-12-11T09:51:47Z</time>
      </trkpt>
      <trkpt lat="47.0074" lon="-1.07364">
        <ele>85</ele>
        <time>2011-12-11T09:51:48Z</time>
      </trkpt>
      <trkpt lat="47.00741" lon="-1.07366">
        <ele>85</ele>
        <time>2011-12-11T09:51:49Z</time>
      </trkpt>
      <trkpt lat="47.00742" lon="-1.07368">
        <ele>85</ele>
        <time>2011-12-11T09:51:50Z</time>
      </trkpt>
      <trkpt lat="47.00742" lon="-1.0737">
        <ele>85</ele>
        <time>2011-12-11T09:51:51Z</time>
      </trkpt>
      <trkpt lat="47.00743" lon="-1.07371">
        <ele>85</ele>
        <time>2011-12-11T09:51:52Z</time>
      </trkpt>
      <trkpt lat="47.00744" lon="-1.07373">
        <ele>85</ele>
        <time>2011-12-11T09:51:53Z</time>
      </trkpt>
      <trkpt lat="47.00745" lon="-1.07376">
        <ele>85</ele>
        <time>2011-12-11T09:51:55Z</time>
      </trkpt>
      <trkpt lat="47.00747" lon="-1.07378">
        <ele>85</ele>
        <time>2011-12-11T09:51:57Z</time>
      </trkpt>
      <trkpt lat="47.00749" lon="-1.07381">
        <ele>85</ele>
        <time>2011-12-11T09:51:59Z</time>
      </trkpt>
      <trkpt lat="47.0075" lon="-1.07384">
        <ele>85</ele>
        <time>2011-12-11T09:52:01Z</time>
      </trkpt>
      <trkpt lat="47.00751" lon="-1.07386">
        <ele>85</ele>
        <time>2011-12-11T09:52:02Z</time>
      </trkpt>
      <trkpt lat="47.00752" lon="-1.07388">
        <ele>85</ele>
        <time>2011-12-11T09:52:03Z</time>
      </trkpt>
      <trkpt lat="47.00752" lon="-1.07389">
        <ele>85</ele>
        <time>2011-12-11T09:52:04Z</time>
      </trkpt>
      <trkpt lat="47.00754" lon="-1.07392">
        <ele>85</ele>
        <time>2011-12-11T09:52:06Z</time>
      </trkpt>
      <trkpt lat="47.00754" lon="-1.07394">
        <ele>85</ele>
        <time>2011-12-11T09:52:07Z</time>
      </trkpt>
      <trkpt lat="47.00754" lon="-1.07396">
        <ele>85</ele>
        <time>2011-12-11T09:52:08Z</time>
      </trkpt>
      <trkpt lat="47.00755" lon="-1.07397">
        <ele>85</ele>
        <time>2011-12-11T09:52:09Z</time>
      </trkpt>
      <trkpt lat="47.00756" lon="-1.07398">
        <ele>85</ele>
        <time>2011-12-11T09:52:10Z</time>
      </trkpt>
      <trkpt lat="47.00756" lon="-1.074">
        <ele>85</ele>
        <time>2011-12-11T09:52:11Z</time>
      </trkpt>
      <trkpt lat="47.00757" lon="-1.07402">
        <ele>85</ele>
        <time>2011-12-11T09:52:12Z</time>
      </trkpt>
      <trkpt lat="47.00758" lon="-1.07404">
        <ele>85</ele>
        <time>2011-12-11T09:52:14Z</time>
      </trkpt>
      <trkpt lat="47.00759" lon="-1.07406">
        <ele>85</ele>
        <time>2011-12-11T09:52:15Z</time>
      </trkpt>
      <trkpt lat="47.0076" lon="-1.07409">
        <ele>85</ele>
        <time>2011-12-11T09:52:17Z</time>
      </trkpt>
      <trkpt lat="47.00761" lon="-1.07411">
        <ele>85</ele>
        <time>2011-12-11T09:52:18Z</time>
      </trkpt>
      <trkpt lat="47.00762" lon="-1.07413">
        <ele>85</ele>
        <time>2011-12-11T09:52:19Z</time>
      </trkpt>
      <trkpt lat="47.00763" lon="-1.07414">
        <ele>85</ele>
        <time>2011-12-11T09:52:20Z</time>
      </trkpt>
      <trkpt lat="47.00764" lon="-1.07416">
        <ele>85</ele>
        <time>2011-12-11T09:52:21Z</time>
      </trkpt>
      <trkpt lat="47.00765" lon="-1.07418">
        <ele>85</ele>
        <time>2011-12-11T09:52:22Z</time>
      </trkpt>
      <trkpt lat="47.00765" lon="-1.07422">
        <ele>85</ele>
        <time>2011-12-11T09:52:24Z</time>
      </trkpt>
      <trkpt lat="47.00766" lon="-1.07423">
        <ele>85</ele>
        <time>2011-12-11T09:52:25Z</time>
      </trkpt>
      <trkpt lat="47.00766" lon="-1.07425">
        <ele>85</ele>
        <time>2011-12-11T09:52:26Z</time>
      </trkpt>
      <trkpt lat="47.00767" lon="-1.07426">
        <ele>85</ele>
        <time>2011-12-11T09:52:27Z</time>
      </trkpt>
      <trkpt lat="47.00768" lon="-1.07428">
        <ele>85</ele>
        <time>2011-12-11T09:52:28Z</time>
      </trkpt>
      <trkpt lat="47.00769" lon="-1.0743">
        <ele>85</ele>
        <time>2011-12-11T09:52:29Z</time>
      </trkpt>
      <trkpt lat="47.00769" lon="-1.07432">
        <ele>85</ele>
        <time>2011-12-11T09:52:30Z</time>
      </trkpt>
      <trkpt lat="47.00769" lon="-1.07434">
        <ele>85</ele>
        <time>2011-12-11T09:52:31Z</time>
      </trkpt>
      <trkpt lat="47.0077" lon="-1.07436">
        <ele>85</ele>
        <time>2011-12-11T09:52:32Z</time>
      </trkpt>
      <trkpt lat="47.00772" lon="-1.07439">
        <ele>85</ele>
        <time>2011-12-11T09:52:34Z</time>
      </trkpt>
      <trkpt lat="47.00772" lon="-1.0744">
        <ele>85</ele>
        <time>2011-12-11T09:52:35Z</time>
      </trkpt>
      <trkpt lat="47.00773" lon="-1.07442">
        <ele>85</ele>
        <time>2011-12-11T09:52:36Z</time>
      </trkpt>
      <trkpt lat="47.00773" lon="-1.07445">
        <ele>85</ele>
        <time>2011-12-11T09:52:37Z</time>
      </trkpt>
      <trkpt lat="47.00773" lon="-1.07447">
        <ele>85</ele>
        <time>2011-12-11T09:52:38Z</time>
      </trkpt>
      <trkpt lat="47.00774" lon="-1.07449">
        <ele>85</ele>
        <time>2011-12-11T09:52:39Z</time>
      </trkpt>
      <trkpt lat="47.00774" lon="-1.07451">
        <ele>85</ele>
        <time>2011-12-11T09:52:40Z</time>
      </trkpt>
      <trkpt lat="47.00774" lon="-1.07453">
        <ele>85</ele>
        <time>2011-12-11T09:52:41Z</time>
      </trkpt>
      <trkpt lat="47.00775" lon="-1.07455">
        <ele>85</ele>
        <time>2011-12-11T09:52:42Z</time>
      </trkpt>
      <trkpt lat="47.00776" lon="-1.07456">
        <ele>85</ele>
        <time>2011-12-11T09:52:43Z</time>
      </trkpt>
      <trkpt lat="47.00776" lon="-1.07458">
        <ele>85</ele>
        <time>2011-12-11T09:52:44Z</time>
      </trkpt>
      <trkpt lat="47.00778" lon="-1.07461">
        <ele>85</ele>
        <time>2011-12-11T09:52:46Z</time>
      </trkpt>
      <trkpt lat="47.00779" lon="-1.07463">
        <ele>85</ele>
        <time>2011-12-11T09:52:48Z</time>
      </trkpt>
      <trkpt lat="47.0078" lon="-1.07464">
        <ele>85</ele>
        <time>2011-12-11T09:52:49Z</time>
      </trkpt>
      <trkpt lat="47.00782" lon="-1.07467">
        <ele>85</ele>
        <time>2011-12-11T09:52:51Z</time>
      </trkpt>
      <trkpt lat="47.00783" lon="-1.07468">
        <ele>85</ele>
        <time>2011-12-11T09:52:52Z</time>
      </trkpt>
      <trkpt lat="47.00783" lon="-1.07471">
        <ele>85</ele>
        <time>2011-12-11T09:52:53Z</time>
      </trkpt>
      <trkpt lat="47.00783" lon="-1.07473">
        <ele>85</ele>
        <time>2011-12-11T09:52:54Z</time>
      </trkpt>
      <trkpt lat="47.00784" lon="-1.07475">
        <ele>85</ele>
        <time>2011-12-11T09:52:56Z</time>
      </trkpt>
      <trkpt lat="47.00785" lon="-1.07477">
        <ele>85</ele>
        <time>2011-12-11T09:52:58Z</time>
      </trkpt>
      <trkpt lat="47.00787" lon="-1.07479">
        <ele>85</ele>
        <time>2011-12-11T09:53:00Z</time>
      </trkpt>
      <trkpt lat="47.00787" lon="-1.07481">
        <ele>85</ele>
        <time>2011-12-11T09:53:01Z</time>
      </trkpt>
      <trkpt lat="47.00787" lon="-1.07483">
        <ele>85</ele>
        <time>2011-12-11T09:53:02Z</time>
      </trkpt>
      <trkpt lat="47.00788" lon="-1.07485">
        <ele>85</ele>
        <time>2011-12-11T09:53:03Z</time>
      </trkpt>
      <trkpt lat="47.00788" lon="-1.07487">
        <ele>85</ele>
        <time>2011-12-11T09:53:04Z</time>
      </trkpt>
      <trkpt lat="47.00789" lon="-1.07489">
        <ele>85</ele>
        <time>2011-12-11T09:53:05Z</time>
      </trkpt>
      <trkpt lat="47.0079" lon="-1.07492">
        <ele>85</ele>
        <time>2011-12-11T09:53:07Z</time>
      </trkpt>
      <trkpt lat="47.0079" lon="-1.07494">
        <ele>85</ele>
        <time>2011-12-11T09:53:08Z</time>
      </trkpt>
      <trkpt lat="47.0079" lon="-1.07496">
        <ele>85</ele>
        <time>2011-12-11T09:53:09Z</time>
      </trkpt>
      <trkpt lat="47.0079" lon="-1.07499">
        <ele>85</ele>
        <time>2011-12-11T09:53:10Z</time>
      </trkpt>
      <trkpt lat="47.00792" lon="-1.07501">
        <ele>85</ele>
        <time>2011-12-11T09:53:11Z</time>
      </trkpt>
      <trkpt lat="47.00792" lon="-1.07503">
        <ele>85</ele>
        <time>2011-12-11T09:53:12Z</time>
      </trkpt>
      <trkpt lat="47.00793" lon="-1.07504">
        <ele>85</ele>
        <time>2011-12-11T09:53:13Z</time>
      </trkpt>
      <trkpt lat="47.00795" lon="-1.07505">
        <ele>85</ele>
        <time>2011-12-11T09:53:14Z</time>
      </trkpt>
      <trkpt lat="47.00796" lon="-1.07507">
        <ele>85</ele>
        <time>2011-12-11T09:53:15Z</time>
      </trkpt>
      <trkpt lat="47.00797" lon="-1.07508">
        <ele>85</ele>
        <time>2011-12-11T09:53:16Z</time>
      </trkpt>
      <trkpt lat="47.00799" lon="-1.07509">
        <ele>85</ele>
        <time>2011-12-11T09:53:17Z</time>
      </trkpt>
      <trkpt lat="47.00799" lon="-1.07512">
        <ele>85</ele>
        <time>2011-12-11T09:53:18Z</time>
      </trkpt>
      <trkpt lat="47.00799" lon="-1.07514">
        <ele>85</ele>
        <time>2011-12-11T09:53:19Z</time>
      </trkpt>
      <trkpt lat="47.008" lon="-1.07517">
        <ele>85</ele>
        <time>2011-12-11T09:53:20Z</time>
      </trkpt>
      <trkpt lat="47.008" lon="-1.0752">
        <ele>85</ele>
        <time>2011-12-11T09:53:21Z</time>
      </trkpt>
      <trkpt lat="47.00801" lon="-1.07521">
        <ele>85</ele>
        <time>2011-12-11T09:53:22Z</time>
      </trkpt>
      <trkpt lat="47.00801" lon="-1.07523">
        <ele>85</ele>
        <time>2011-12-11T09:53:23Z</time>
      </trkpt>
      <trkpt lat="47.00803" lon="-1.07525">
        <ele>85</ele>
        <time>2011-12-11T09:53:24Z</time>
      </trkpt>
      <trkpt lat="47.00803" lon="-1.07527">
        <ele>85</ele>
        <time>2011-12-11T09:53:25Z</time>
      </trkpt>
      <trkpt lat="47.00805" lon="-1.07528">
        <ele>85</ele>
        <time>2011-12-11T09:53:26Z</time>
      </trkpt>
      <trkpt lat="47.00805" lon="-1.0753">
        <ele>85</ele>
        <time>2011-12-11T09:53:27Z</time>
      </trkpt>
      <trkpt lat="47.00806" lon="-1.07532">
        <ele>85</ele>
        <time>2011-12-11T09:53:28Z</time>
      </trkpt>
      <trkpt lat="47.00806" lon="-1.07534">
        <ele>85</ele>
        <time>2011-12-11T09:53:29Z</time>
      </trkpt>
      <trkpt lat="47.00808" lon="-1.07536">
        <ele>85</ele>
        <time>2011-12-11T09:53:30Z</time>
      </trkpt>
      <trkpt lat="47.00808" lon="-1.07539">
        <ele>85</ele>
        <time>2011-12-11T09:53:31Z</time>
      </trkpt>
      <trkpt lat="47.00809" lon="-1.07541">
        <ele>85</ele>
        <time>2011-12-11T09:53:32Z</time>
      </trkpt>
      <trkpt lat="47.0081" lon="-1.07543">
        <ele>85</ele>
        <time>2011-12-11T09:53:33Z</time>
      </trkpt>
      <trkpt lat="47.00811" lon="-1.07545">
        <ele>86</ele>
        <time>2011-12-11T09:53:34Z</time>
      </trkpt>
      <trkpt lat="47.00811" lon="-1.07546">
        <ele>86</ele>
        <time>2011-12-11T09:53:35Z</time>
      </trkpt>
      <trkpt lat="47.00811" lon="-1.07548">
        <ele>86</ele>
        <time>2011-12-11T09:53:36Z</time>
      </trkpt>
      <trkpt lat="47.00812" lon="-1.0755">
        <ele>86</ele>
        <time>2011-12-11T09:53:37Z</time>
      </trkpt>
      <trkpt lat="47.00813" lon="-1.07552">
        <ele>86</ele>
        <time>2011-12-11T09:53:38Z</time>
      </trkpt>
      <trkpt lat="47.00813" lon="-1.07554">
        <ele>86</ele>
        <time>2011-12-11T09:53:39Z</time>
      </trkpt>
      <trkpt lat="47.00814" lon="-1.07556">
        <ele>86</ele>
        <time>2011-12-11T09:53:40Z</time>
      </trkpt>
      <trkpt lat="47.00814" lon="-1.07557">
        <ele>86</ele>
        <time>2011-12-11T09:53:41Z</time>
      </trkpt>
      <trkpt lat="47.00814" lon="-1.07559">
        <ele>86</ele>
        <time>2011-12-11T09:53:42Z</time>
      </trkpt>
      <trkpt lat="47.00815" lon="-1.07561">
        <ele>86</ele>
        <time>2011-12-11T09:53:43Z</time>
      </trkpt>
      <trkpt lat="47.00815" lon="-1.07563">
        <ele>86</ele>
        <time>2011-12-11T09:53:44Z</time>
      </trkpt>
      <trkpt lat="47.00816" lon="-1.07565">
        <ele>86</ele>
        <time>2011-12-11T09:53:45Z</time>
      </trkpt>
      <trkpt lat="47.00816" lon="-1.07567">
        <ele>86</ele>
        <time>2011-12-11T09:53:46Z</time>
      </trkpt>
      <trkpt lat="47.00817" lon="-1.07569">
        <ele>86</ele>
        <time>2011-12-11T09:53:47Z</time>
      </trkpt>
      <trkpt lat="47.00817" lon="-1.07571">
        <ele>86</ele>
        <time>2011-12-11T09:53:48Z</time>
      </trkpt>
      <trkpt lat="47.00818" lon="-1.07572">
        <ele>86</ele>
        <time>2011-12-11T09:53:49Z</time>
      </trkpt>
      <trkpt lat="47.00819" lon="-1.07574">
        <ele>86</ele>
        <time>2011-12-11T09:53:50Z</time>
      </trkpt>
      <trkpt lat="47.0082" lon="-1.07576">
        <ele>86</ele>
        <time>2011-12-11T09:53:51Z</time>
      </trkpt>
      <trkpt lat="47.00821" lon="-1.07577">
        <ele>86</ele>
        <time>2011-12-11T09:53:52Z</time>
      </trkpt>
      <trkpt lat="47.00822" lon="-1.0758">
        <ele>86</ele>
        <time>2011-12-11T09:53:54Z</time>
      </trkpt>
      <trkpt lat="47.00823" lon="-1.07582">
        <ele>86</ele>
        <time>2011-12-11T09:53:55Z</time>
      </trkpt>
      <trkpt lat="47.00823" lon="-1.07583">
        <ele>86</ele>
        <time>2011-12-11T09:53:56Z</time>
      </trkpt>
      <trkpt lat="47.00822" lon="-1.07587">
        <ele>86</ele>
        <time>2011-12-11T09:53:57Z</time>
      </trkpt>
      <trkpt lat="47.00823" lon="-1.07589">
        <ele>86</ele>
        <time>2011-12-11T09:53:59Z</time>
      </trkpt>
      <trkpt lat="47.00824" lon="-1.07593">
        <ele>86</ele>
        <time>2011-12-11T09:54:01Z</time>
      </trkpt>
      <trkpt lat="47.00824" lon="-1.07594">
        <ele>86</ele>
        <time>2011-12-11T09:54:02Z</time>
      </trkpt>
      <trkpt lat="47.00824" lon="-1.07596">
        <ele>86</ele>
        <time>2011-12-11T09:54:03Z</time>
      </trkpt>
      <trkpt lat="47.00825" lon="-1.07599">
        <ele>86</ele>
        <time>2011-12-11T09:54:05Z</time>
      </trkpt>
      <trkpt lat="47.00826" lon="-1.07602">
        <ele>86</ele>
        <time>2011-12-11T09:54:07Z</time>
      </trkpt>
      <trkpt lat="47.00828" lon="-1.07604">
        <ele>86</ele>
        <time>2011-12-11T09:54:09Z</time>
      </trkpt>
      <trkpt lat="47.00829" lon="-1.07606">
        <ele>86</ele>
        <time>2011-12-11T09:54:10Z</time>
      </trkpt>
      <trkpt lat="47.00831" lon="-1.07607">
        <ele>86</ele>
        <time>2011-12-11T09:54:11Z</time>
      </trkpt>
      <trkpt lat="47.00832" lon="-1.07608">
        <ele>86</ele>
        <time>2011-12-11T09:54:13Z</time>
      </trkpt>
      <trkpt lat="47.00834" lon="-1.07608">
        <ele>86</ele>
        <time>2011-12-11T09:54:14Z</time>
      </trkpt>
      <trkpt lat="47.00835" lon="-1.07608">
        <ele>86</ele>
        <time>2011-12-11T09:54:15Z</time>
      </trkpt>
      <trkpt lat="47.00836" lon="-1.07609">
        <ele>86</ele>
        <time>2011-12-11T09:54:16Z</time>
      </trkpt>
      <trkpt lat="47.00837" lon="-1.07609">
        <ele>86</ele>
        <time>2011-12-11T09:54:17Z</time>
      </trkpt>
      <trkpt lat="47.00839" lon="-1.0761">
        <ele>86</ele>
        <time>2011-12-11T09:54:18Z</time>
      </trkpt>
      <trkpt lat="47.0084" lon="-1.0761">
        <ele>86</ele>
        <time>2011-12-11T09:54:19Z</time>
      </trkpt>
      <trkpt lat="47.00841" lon="-1.07611">
        <ele>86</ele>
        <time>2011-12-11T09:54:20Z</time>
      </trkpt>
      <trkpt lat="47.00842" lon="-1.07612">
        <ele>86</ele>
        <time>2011-12-11T09:54:21Z</time>
      </trkpt>
      <trkpt lat="47.00844" lon="-1.07613">
        <ele>86</ele>
        <time>2011-12-11T09:54:22Z</time>
      </trkpt>
      <trkpt lat="47.00845" lon="-1.07614">
        <ele>86</ele>
        <time>2011-12-11T09:54:23Z</time>
      </trkpt>
      <trkpt lat="47.00847" lon="-1.07615">
        <ele>86</ele>
        <time>2011-12-11T09:54:24Z</time>
      </trkpt>
      <trkpt lat="47.00848" lon="-1.07616">
        <ele>86</ele>
        <time>2011-12-11T09:54:25Z</time>
      </trkpt>
      <trkpt lat="47.00849" lon="-1.07617">
        <ele>86</ele>
        <time>2011-12-11T09:54:26Z</time>
      </trkpt>
      <trkpt lat="47.00851" lon="-1.07617">
        <ele>86</ele>
        <time>2011-12-11T09:54:27Z</time>
      </trkpt>
      <trkpt lat="47.00852" lon="-1.07619">
        <ele>86</ele>
        <time>2011-12-11T09:54:28Z</time>
      </trkpt>
      <trkpt lat="47.00853" lon="-1.0762">
        <ele>86</ele>
        <time>2011-12-11T09:54:29Z</time>
      </trkpt>
      <trkpt lat="47.00855" lon="-1.07622">
        <ele>86</ele>
        <time>2011-12-11T09:54:31Z</time>
      </trkpt>
      <trkpt lat="47.00858" lon="-1.07624">
        <ele>86</ele>
        <time>2011-12-11T09:54:33Z</time>
      </trkpt>
      <trkpt lat="47.00859" lon="-1.07626">
        <ele>86</ele>
        <time>2011-12-11T09:54:34Z</time>
      </trkpt>
      <trkpt lat="47.0086" lon="-1.07627">
        <ele>86</ele>
        <time>2011-12-11T09:54:35Z</time>
      </trkpt>
      <trkpt lat="47.00861" lon="-1.07628">
        <ele>86</ele>
        <time>2011-12-11T09:54:36Z</time>
      </trkpt>
      <trkpt lat="47.00863" lon="-1.07629">
        <ele>86</ele>
        <time>2011-12-11T09:54:37Z</time>
      </trkpt>
      <trkpt lat="47.00864" lon="-1.0763">
        <ele>86</ele>
        <time>2011-12-11T09:54:38Z</time>
      </trkpt>
      <trkpt lat="47.00865" lon="-1.07631">
        <ele>86</ele>
        <time>2011-12-11T09:54:39Z</time>
      </trkpt>
      <trkpt lat="47.00866" lon="-1.07634">
        <ele>85</ele>
        <time>2011-12-11T09:54:41Z</time>
      </trkpt>
      <trkpt lat="47.00868" lon="-1.07635">
        <ele>85</ele>
        <time>2011-12-11T09:54:43Z</time>
      </trkpt>
      <trkpt lat="47.0087" lon="-1.07636">
        <ele>85</ele>
        <time>2011-12-11T09:54:45Z</time>
      </trkpt>
      <trkpt lat="47.00871" lon="-1.07639">
        <ele>84</ele>
        <time>2011-12-11T09:54:47Z</time>
      </trkpt>
      <trkpt lat="47.00873" lon="-1.07641">
        <ele>83</ele>
        <time>2011-12-11T09:54:49Z</time>
      </trkpt>
      <trkpt lat="47.00875" lon="-1.07644">
        <ele>83</ele>
        <time>2011-12-11T09:54:51Z</time>
      </trkpt>
      <trkpt lat="47.00877" lon="-1.07647">
        <ele>83</ele>
        <time>2011-12-11T09:54:53Z</time>
      </trkpt>
      <trkpt lat="47.00878" lon="-1.07649">
        <ele>83</ele>
        <time>2011-12-11T09:54:55Z</time>
      </trkpt>
      <trkpt lat="47.00879" lon="-1.0765">
        <ele>83</ele>
        <time>2011-12-11T09:54:56Z</time>
      </trkpt>
      <trkpt lat="47.0088" lon="-1.07652">
        <ele>83</ele>
        <time>2011-12-11T09:54:57Z</time>
      </trkpt>
      <trkpt lat="47.00881" lon="-1.07654">
        <ele>83</ele>
        <time>2011-12-11T09:54:58Z</time>
      </trkpt>
      <trkpt lat="47.00882" lon="-1.07656">
        <ele>83</ele>
        <time>2011-12-11T09:54:59Z</time>
      </trkpt>
      <trkpt lat="47.00883" lon="-1.07657">
        <ele>83</ele>
        <time>2011-12-11T09:55:00Z</time>
      </trkpt>
      <trkpt lat="47.00883" lon="-1.07659">
        <ele>83</ele>
        <time>2011-12-11T09:55:01Z</time>
      </trkpt>
      <trkpt lat="47.00885" lon="-1.07661">
        <ele>83</ele>
        <time>2011-12-11T09:55:03Z</time>
      </trkpt>
      <trkpt lat="47.00886" lon="-1.07664">
        <ele>83</ele>
        <time>2011-12-11T09:55:05Z</time>
      </trkpt>
      <trkpt lat="47.00886" lon="-1.07666">
        <ele>83</ele>
        <time>2011-12-11T09:55:06Z</time>
      </trkpt>
      <trkpt lat="47.00887" lon="-1.07668">
        <ele>83</ele>
        <time>2011-12-11T09:55:07Z</time>
      </trkpt>
      <trkpt lat="47.00887" lon="-1.07669">
        <ele>83</ele>
        <time>2011-12-11T09:55:08Z</time>
      </trkpt>
      <trkpt lat="47.00888" lon="-1.07671">
        <ele>83</ele>
        <time>2011-12-11T09:55:09Z</time>
      </trkpt>
      <trkpt lat="47.00888" lon="-1.07673">
        <ele>83</ele>
        <time>2011-12-11T09:55:10Z</time>
      </trkpt>
      <trkpt lat="47.00889" lon="-1.07674">
        <ele>83</ele>
        <time>2011-12-11T09:55:11Z</time>
      </trkpt>
      <trkpt lat="47.00889" lon="-1.07676">
        <ele>83</ele>
        <time>2011-12-11T09:55:12Z</time>
      </trkpt>
      <trkpt lat="47.0089" lon="-1.07678">
        <ele>83</ele>
        <time>2011-12-11T09:55:13Z</time>
      </trkpt>
      <trkpt lat="47.0089" lon="-1.07679">
        <ele>83</ele>
        <time>2011-12-11T09:55:14Z</time>
      </trkpt>
      <trkpt lat="47.00891" lon="-1.07681">
        <ele>83</ele>
        <time>2011-12-11T09:55:15Z</time>
      </trkpt>
      <trkpt lat="47.00891" lon="-1.07683">
        <ele>83</ele>
        <time>2011-12-11T09:55:16Z</time>
      </trkpt>
      <trkpt lat="47.00892" lon="-1.07684">
        <ele>83</ele>
        <time>2011-12-11T09:55:17Z</time>
      </trkpt>
      <trkpt lat="47.00893" lon="-1.07686">
        <ele>83</ele>
        <time>2011-12-11T09:55:18Z</time>
      </trkpt>
      <trkpt lat="47.00893" lon="-1.07687">
        <ele>83</ele>
        <time>2011-12-11T09:55:19Z</time>
      </trkpt>
      <trkpt lat="47.00894" lon="-1.07689">
        <ele>83</ele>
        <time>2011-12-11T09:55:20Z</time>
      </trkpt>
      <trkpt lat="47.00894" lon="-1.07692">
        <ele>83</ele>
        <time>2011-12-11T09:55:21Z</time>
      </trkpt>
      <trkpt lat="47.00895" lon="-1.07694">
        <ele>83</ele>
        <time>2011-12-11T09:55:22Z</time>
      </trkpt>
      <trkpt lat="47.00895" lon="-1.07695">
        <ele>83</ele>
        <time>2011-12-11T09:55:23Z</time>
      </trkpt>
      <trkpt lat="47.00896" lon="-1.07697">
        <ele>83</ele>
        <time>2011-12-11T09:55:24Z</time>
      </trkpt>
      <trkpt lat="47.00897" lon="-1.07699">
        <ele>83</ele>
        <time>2011-12-11T09:55:25Z</time>
      </trkpt>
      <trkpt lat="47.00897" lon="-1.07701">
        <ele>83</ele>
        <time>2011-12-11T09:55:26Z</time>
      </trkpt>
      <trkpt lat="47.00898" lon="-1.07702">
        <ele>83</ele>
        <time>2011-12-11T09:55:27Z</time>
      </trkpt>
      <trkpt lat="47.00899" lon="-1.07704">
        <ele>83</ele>
        <time>2011-12-11T09:55:28Z</time>
      </trkpt>
      <trkpt lat="47.009" lon="-1.07705">
        <ele>83</ele>
        <time>2011-12-11T09:55:29Z</time>
      </trkpt>
      <trkpt lat="47.00901" lon="-1.07707">
        <ele>83</ele>
        <time>2011-12-11T09:55:30Z</time>
      </trkpt>
      <trkpt lat="47.00901" lon="-1.07708">
        <ele>83</ele>
        <time>2011-12-11T09:55:31Z</time>
      </trkpt>
      <trkpt lat="47.00903" lon="-1.07711">
        <ele>83</ele>
        <time>2011-12-11T09:55:33Z</time>
      </trkpt>
      <trkpt lat="47.00904" lon="-1.07713">
        <ele>83</ele>
        <time>2011-12-11T09:55:34Z</time>
      </trkpt>
      <trkpt lat="47.00905" lon="-1.07715">
        <ele>83</ele>
        <time>2011-12-11T09:55:35Z</time>
      </trkpt>
      <trkpt lat="47.00906" lon="-1.07716">
        <ele>83</ele>
        <time>2011-12-11T09:55:36Z</time>
      </trkpt>
      <trkpt lat="47.00907" lon="-1.07717">
        <ele>83</ele>
        <time>2011-12-11T09:55:37Z</time>
      </trkpt>
      <trkpt lat="47.00908" lon="-1.07718">
        <ele>83</ele>
        <time>2011-12-11T09:55:38Z</time>
      </trkpt>
      <trkpt lat="47.00909" lon="-1.07719">
        <ele>83</ele>
        <time>2011-12-11T09:55:39Z</time>
      </trkpt>
      <trkpt lat="47.00911" lon="-1.0772">
        <ele>83</ele>
        <time>2011-12-11T09:55:40Z</time>
      </trkpt>
      <trkpt lat="47.00913" lon="-1.07722">
        <ele>83</ele>
        <time>2011-12-11T09:55:42Z</time>
      </trkpt>
      <trkpt lat="47.00914" lon="-1.07723">
        <ele>83</ele>
        <time>2011-12-11T09:55:43Z</time>
      </trkpt>
      <trkpt lat="47.00916" lon="-1.07725">
        <ele>83</ele>
        <time>2011-12-11T09:55:45Z</time>
      </trkpt>
      <trkpt lat="47.00918" lon="-1.07727">
        <ele>83</ele>
        <time>2011-12-11T09:55:47Z</time>
      </trkpt>
      <trkpt lat="47.0092" lon="-1.07729">
        <ele>83</ele>
        <time>2011-12-11T09:55:49Z</time>
      </trkpt>
      <trkpt lat="47.00922" lon="-1.07731">
        <ele>82</ele>
        <time>2011-12-11T09:55:51Z</time>
      </trkpt>
      <trkpt lat="47.00923" lon="-1.07733">
        <ele>82</ele>
        <time>2011-12-11T09:55:52Z</time>
      </trkpt>
      <trkpt lat="47.00924" lon="-1.07734">
        <ele>82</ele>
        <time>2011-12-11T09:55:53Z</time>
      </trkpt>
      <trkpt lat="47.00926" lon="-1.07737">
        <ele>82</ele>
        <time>2011-12-11T09:55:55Z</time>
      </trkpt>
      <trkpt lat="47.00927" lon="-1.07738">
        <ele>82</ele>
        <time>2011-12-11T09:55:56Z</time>
      </trkpt>
      <trkpt lat="47.0093" lon="-1.0774">
        <ele>82</ele>
        <time>2011-12-11T09:55:58Z</time>
      </trkpt>
      <trkpt lat="47.00932" lon="-1.07743">
        <ele>82</ele>
        <time>2011-12-11T09:56:00Z</time>
      </trkpt>
      <trkpt lat="47.00932" lon="-1.07744">
        <ele>82</ele>
        <time>2011-12-11T09:56:01Z</time>
      </trkpt>
      <trkpt lat="47.00933" lon="-1.07746">
        <ele>82</ele>
        <time>2011-12-11T09:56:02Z</time>
      </trkpt>
      <trkpt lat="47.00934" lon="-1.07747">
        <ele>82</ele>
        <time>2011-12-11T09:56:03Z</time>
      </trkpt>
      <trkpt lat="47.00935" lon="-1.07749">
        <ele>82</ele>
        <time>2011-12-11T09:56:04Z</time>
      </trkpt>
      <trkpt lat="47.00935" lon="-1.0775">
        <ele>82</ele>
        <time>2011-12-11T09:56:05Z</time>
      </trkpt>
      <trkpt lat="47.00936" lon="-1.07752">
        <ele>82</ele>
        <time>2011-12-11T09:56:06Z</time>
      </trkpt>
      <trkpt lat="47.00936" lon="-1.07754">
        <ele>82</ele>
        <time>2011-12-11T09:56:07Z</time>
      </trkpt>
      <trkpt lat="47.00936" lon="-1.07756">
        <ele>82</ele>
        <time>2011-12-11T09:56:08Z</time>
      </trkpt>
      <trkpt lat="47.00937" lon="-1.07758">
        <ele>82</ele>
        <time>2011-12-11T09:56:09Z</time>
      </trkpt>
      <trkpt lat="47.00937" lon="-1.07761">
        <ele>82</ele>
        <time>2011-12-11T09:56:10Z</time>
      </trkpt>
      <trkpt lat="47.00938" lon="-1.07763">
        <ele>82</ele>
        <time>2011-12-11T09:56:11Z</time>
      </trkpt>
      <trkpt lat="47.00938" lon="-1.07765">
        <ele>82</ele>
        <time>2011-12-11T09:56:12Z</time>
      </trkpt>
      <trkpt lat="47.00939" lon="-1.07766">
        <ele>82</ele>
        <time>2011-12-11T09:56:13Z</time>
      </trkpt>
      <trkpt lat="47.0094" lon="-1.07768">
        <ele>82</ele>
        <time>2011-12-11T09:56:14Z</time>
      </trkpt>
      <trkpt lat="47.0094" lon="-1.0777">
        <ele>82</ele>
        <time>2011-12-11T09:56:15Z</time>
      </trkpt>
      <trkpt lat="47.0094" lon="-1.07772">
        <ele>81</ele>
        <time>2011-12-11T09:56:16Z</time>
      </trkpt>
      <trkpt lat="47.00941" lon="-1.07774">
        <ele>81</ele>
        <time>2011-12-11T09:56:17Z</time>
      </trkpt>
      <trkpt lat="47.00941" lon="-1.07776">
        <ele>81</ele>
        <time>2011-12-11T09:56:18Z</time>
      </trkpt>
      <trkpt lat="47.00942" lon="-1.07778">
        <ele>81</ele>
        <time>2011-12-11T09:56:19Z</time>
      </trkpt>
      <trkpt lat="47.00943" lon="-1.0778">
        <ele>81</ele>
        <time>2011-12-11T09:56:20Z</time>
      </trkpt>
      <trkpt lat="47.00943" lon="-1.07781">
        <ele>81</ele>
        <time>2011-12-11T09:56:21Z</time>
      </trkpt>
      <trkpt lat="47.00943" lon="-1.07783">
        <ele>80</ele>
        <time>2011-12-11T09:56:22Z</time>
      </trkpt>
      <trkpt lat="47.00944" lon="-1.07785">
        <ele>80</ele>
        <time>2011-12-11T09:56:23Z</time>
      </trkpt>
      <trkpt lat="47.00944" lon="-1.07787">
        <ele>80</ele>
        <time>2011-12-11T09:56:24Z</time>
      </trkpt>
      <trkpt lat="47.00945" lon="-1.07789">
        <ele>80</ele>
        <time>2011-12-11T09:56:25Z</time>
      </trkpt>
      <trkpt lat="47.00945" lon="-1.0779">
        <ele>80</ele>
        <time>2011-12-11T09:56:26Z</time>
      </trkpt>
      <trkpt lat="47.00946" lon="-1.07792">
        <ele>80</ele>
        <time>2011-12-11T09:56:27Z</time>
      </trkpt>
      <trkpt lat="47.00946" lon="-1.07794">
        <ele>80</ele>
        <time>2011-12-11T09:56:28Z</time>
      </trkpt>
      <trkpt lat="47.00947" lon="-1.07796">
        <ele>80</ele>
        <time>2011-12-11T09:56:29Z</time>
      </trkpt>
      <trkpt lat="47.00947" lon="-1.07798">
        <ele>80</ele>
        <time>2011-12-11T09:56:30Z</time>
      </trkpt>
      <trkpt lat="47.00948" lon="-1.078">
        <ele>80</ele>
        <time>2011-12-11T09:56:31Z</time>
      </trkpt>
      <trkpt lat="47.00948" lon="-1.07802">
        <ele>80</ele>
        <time>2011-12-11T09:56:32Z</time>
      </trkpt>
      <trkpt lat="47.00949" lon="-1.07804">
        <ele>80</ele>
        <time>2011-12-11T09:56:33Z</time>
      </trkpt>
      <trkpt lat="47.00949" lon="-1.07806">
        <ele>80</ele>
        <time>2011-12-11T09:56:34Z</time>
      </trkpt>
      <trkpt lat="47.0095" lon="-1.07808">
        <ele>80</ele>
        <time>2011-12-11T09:56:35Z</time>
      </trkpt>
      <trkpt lat="47.0095" lon="-1.0781">
        <ele>80</ele>
        <time>2011-12-11T09:56:36Z</time>
      </trkpt>
      <trkpt lat="47.00951" lon="-1.07812">
        <ele>80</ele>
        <time>2011-12-11T09:56:37Z</time>
      </trkpt>
      <trkpt lat="47.00951" lon="-1.07814">
        <ele>80</ele>
        <time>2011-12-11T09:56:38Z</time>
      </trkpt>
      <trkpt lat="47.00952" lon="-1.07816">
        <ele>80</ele>
        <time>2011-12-11T09:56:39Z</time>
      </trkpt>
      <trkpt lat="47.00952" lon="-1.07818">
        <ele>80</ele>
        <time>2011-12-11T09:56:40Z</time>
      </trkpt>
      <trkpt lat="47.00953" lon="-1.07819">
        <ele>80</ele>
        <time>2011-12-11T09:56:41Z</time>
      </trkpt>
      <trkpt lat="47.00953" lon="-1.07821">
        <ele>80</ele>
        <time>2011-12-11T09:56:42Z</time>
      </trkpt>
      <trkpt lat="47.00954" lon="-1.07823">
        <ele>80</ele>
        <time>2011-12-11T09:56:43Z</time>
      </trkpt>
      <trkpt lat="47.00954" lon="-1.07824">
        <ele>80</ele>
        <time>2011-12-11T09:56:44Z</time>
      </trkpt>
      <trkpt lat="47.00955" lon="-1.07826">
        <ele>80</ele>
        <time>2011-12-11T09:56:45Z</time>
      </trkpt>
      <trkpt lat="47.00955" lon="-1.07828">
        <ele>80</ele>
        <time>2011-12-11T09:56:46Z</time>
      </trkpt>
      <trkpt lat="47.00956" lon="-1.0783">
        <ele>80</ele>
        <time>2011-12-11T09:56:47Z</time>
      </trkpt>
      <trkpt lat="47.00956" lon="-1.07831">
        <ele>80</ele>
        <time>2011-12-11T09:56:48Z</time>
      </trkpt>
      <trkpt lat="47.00957" lon="-1.07833">
        <ele>80</ele>
        <time>2011-12-11T09:56:49Z</time>
      </trkpt>
      <trkpt lat="47.00957" lon="-1.07835">
        <ele>80</ele>
        <time>2011-12-11T09:56:50Z</time>
      </trkpt>
      <trkpt lat="47.00958" lon="-1.07836">
        <ele>80</ele>
        <time>2011-12-11T09:56:51Z</time>
      </trkpt>
      <trkpt lat="47.00959" lon="-1.07838">
        <ele>80</ele>
        <time>2011-12-11T09:56:52Z</time>
      </trkpt>
      <trkpt lat="47.00959" lon="-1.0784">
        <ele>80</ele>
        <time>2011-12-11T09:56:53Z</time>
      </trkpt>
      <trkpt lat="47.0096" lon="-1.07842">
        <ele>80</ele>
        <time>2011-12-11T09:56:54Z</time>
      </trkpt>
      <trkpt lat="47.0096" lon="-1.07843">
        <ele>80</ele>
        <time>2011-12-11T09:56:55Z</time>
      </trkpt>
      <trkpt lat="47.00961" lon="-1.07845">
        <ele>79</ele>
        <time>2011-12-11T09:56:56Z</time>
      </trkpt>
      <trkpt lat="47.00962" lon="-1.07847">
        <ele>79</ele>
        <time>2011-12-11T09:56:57Z</time>
      </trkpt>
      <trkpt lat="47.00962" lon="-1.0785">
        <ele>79</ele>
        <time>2011-12-11T09:56:59Z</time>
      </trkpt>
      <trkpt lat="47.00964" lon="-1.07852">
        <ele>79</ele>
        <time>2011-12-11T09:57:01Z</time>
      </trkpt>
      <trkpt lat="47.00964" lon="-1.07854">
        <ele>79</ele>
        <time>2011-12-11T09:57:02Z</time>
      </trkpt>
      <trkpt lat="47.00964" lon="-1.07855">
        <ele>79</ele>
        <time>2011-12-11T09:57:03Z</time>
      </trkpt>
      <trkpt lat="47.00965" lon="-1.07857">
        <ele>79</ele>
        <time>2011-12-11T09:57:04Z</time>
      </trkpt>
      <trkpt lat="47.00965" lon="-1.07859">
        <ele>79</ele>
        <time>2011-12-11T09:57:05Z</time>
      </trkpt>
      <trkpt lat="47.00966" lon="-1.07861">
        <ele>79</ele>
        <time>2011-12-11T09:57:06Z</time>
      </trkpt>
      <trkpt lat="47.00966" lon="-1.07862">
        <ele>79</ele>
        <time>2011-12-11T09:57:07Z</time>
      </trkpt>
      <trkpt lat="47.00967" lon="-1.07864">
        <ele>79</ele>
        <time>2011-12-11T09:57:08Z</time>
      </trkpt>
      <trkpt lat="47.00967" lon="-1.07866">
        <ele>79</ele>
        <time>2011-12-11T09:57:09Z</time>
      </trkpt>
      <trkpt lat="47.00967" lon="-1.07868">
        <ele>79</ele>
        <time>2011-12-11T09:57:10Z</time>
      </trkpt>
      <trkpt lat="47.00968" lon="-1.0787">
        <ele>78</ele>
        <time>2011-12-11T09:57:11Z</time>
      </trkpt>
      <trkpt lat="47.00968" lon="-1.07871">
        <ele>78</ele>
        <time>2011-12-11T09:57:12Z</time>
      </trkpt>
      <trkpt lat="47.00969" lon="-1.07873">
        <ele>78</ele>
        <time>2011-12-11T09:57:13Z</time>
      </trkpt>
      <trkpt lat="47.00969" lon="-1.07875">
        <ele>78</ele>
        <time>2011-12-11T09:57:14Z</time>
      </trkpt>
      <trkpt lat="47.0097" lon="-1.07877">
        <ele>78</ele>
        <time>2011-12-11T09:57:15Z</time>
      </trkpt>
      <trkpt lat="47.0097" lon="-1.07879">
        <ele>78</ele>
        <time>2011-12-11T09:57:16Z</time>
      </trkpt>
      <trkpt lat="47.00971" lon="-1.0788">
        <ele>78</ele>
        <time>2011-12-11T09:57:17Z</time>
      </trkpt>
      <trkpt lat="47.00972" lon="-1.07882">
        <ele>78</ele>
        <time>2011-12-11T09:57:18Z</time>
      </trkpt>
      <trkpt lat="47.00972" lon="-1.07884">
        <ele>78</ele>
        <time>2011-12-11T09:57:19Z</time>
      </trkpt>
      <trkpt lat="47.00972" lon="-1.07886">
        <ele>78</ele>
        <time>2011-12-11T09:57:20Z</time>
      </trkpt>
      <trkpt lat="47.00973" lon="-1.07888">
        <ele>77</ele>
        <time>2011-12-11T09:57:21Z</time>
      </trkpt>
      <trkpt lat="47.00974" lon="-1.0789">
        <ele>77</ele>
        <time>2011-12-11T09:57:22Z</time>
      </trkpt>
      <trkpt lat="47.00974" lon="-1.07892">
        <ele>77</ele>
        <time>2011-12-11T09:57:23Z</time>
      </trkpt>
      <trkpt lat="47.00975" lon="-1.07894">
        <ele>77</ele>
        <time>2011-12-11T09:57:24Z</time>
      </trkpt>
      <trkpt lat="47.00976" lon="-1.07896">
        <ele>77</ele>
        <time>2011-12-11T09:57:25Z</time>
      </trkpt>
      <trkpt lat="47.00977" lon="-1.07897">
        <ele>77</ele>
        <time>2011-12-11T09:57:26Z</time>
      </trkpt>
      <trkpt lat="47.00977" lon="-1.07899">
        <ele>77</ele>
        <time>2011-12-11T09:57:27Z</time>
      </trkpt>
      <trkpt lat="47.00977" lon="-1.07901">
        <ele>77</ele>
        <time>2011-12-11T09:57:28Z</time>
      </trkpt>
      <trkpt lat="47.00978" lon="-1.07903">
        <ele>76</ele>
        <time>2011-12-11T09:57:29Z</time>
      </trkpt>
      <trkpt lat="47.00978" lon="-1.07905">
        <ele>76</ele>
        <time>2011-12-11T09:57:30Z</time>
      </trkpt>
      <trkpt lat="47.00979" lon="-1.07906">
        <ele>76</ele>
        <time>2011-12-11T09:57:31Z</time>
      </trkpt>
      <trkpt lat="47.00979" lon="-1.07908">
        <ele>76</ele>
        <time>2011-12-11T09:57:32Z</time>
      </trkpt>
      <trkpt lat="47.0098" lon="-1.0791">
        <ele>76</ele>
        <time>2011-12-11T09:57:33Z</time>
      </trkpt>
      <trkpt lat="47.0098" lon="-1.07912">
        <ele>75</ele>
        <time>2011-12-11T09:57:34Z</time>
      </trkpt>
      <trkpt lat="47.0098" lon="-1.07914">
        <ele>75</ele>
        <time>2011-12-11T09:57:35Z</time>
      </trkpt>
      <trkpt lat="47.00981" lon="-1.07916">
        <ele>75</ele>
        <time>2011-12-11T09:57:36Z</time>
      </trkpt>
      <trkpt lat="47.00982" lon="-1.07917">
        <ele>75</ele>
        <time>2011-12-11T09:57:37Z</time>
      </trkpt>
      <trkpt lat="47.00982" lon="-1.07919">
        <ele>74</ele>
        <time>2011-12-11T09:57:38Z</time>
      </trkpt>
      <trkpt lat="47.00982" lon="-1.07921">
        <ele>74</ele>
        <time>2011-12-11T09:57:39Z</time>
      </trkpt>
      <trkpt lat="47.00983" lon="-1.07923">
        <ele>74</ele>
        <time>2011-12-11T09:57:40Z</time>
      </trkpt>
      <trkpt lat="47.00983" lon="-1.07925">
        <ele>74</ele>
        <time>2011-12-11T09:57:41Z</time>
      </trkpt>
      <trkpt lat="47.00984" lon="-1.07926">
        <ele>73</ele>
        <time>2011-12-11T09:57:42Z</time>
      </trkpt>
      <trkpt lat="47.00984" lon="-1.07928">
        <ele>73</ele>
        <time>2011-12-11T09:57:43Z</time>
      </trkpt>
      <trkpt lat="47.00985" lon="-1.0793">
        <ele>73</ele>
        <time>2011-12-11T09:57:44Z</time>
      </trkpt>
      <trkpt lat="47.00985" lon="-1.07932">
        <ele>73</ele>
        <time>2011-12-11T09:57:45Z</time>
      </trkpt>
      <trkpt lat="47.00985" lon="-1.07933">
        <ele>72</ele>
        <time>2011-12-11T09:57:46Z</time>
      </trkpt>
      <trkpt lat="47.00986" lon="-1.07935">
        <ele>72</ele>
        <time>2011-12-11T09:57:47Z</time>
      </trkpt>
      <trkpt lat="47.00987" lon="-1.07938">
        <ele>72</ele>
        <time>2011-12-11T09:57:49Z</time>
      </trkpt>
      <trkpt lat="47.00987" lon="-1.07939">
        <ele>72</ele>
        <time>2011-12-11T09:57:50Z</time>
      </trkpt>
      <trkpt lat="47.00987" lon="-1.07941">
        <ele>72</ele>
        <time>2011-12-11T09:57:51Z</time>
      </trkpt>
      <trkpt lat="47.00987" lon="-1.07942">
        <ele>72</ele>
        <time>2011-12-11T09:57:53Z</time>
      </trkpt>
      <trkpt lat="47.00986" lon="-1.07944">
        <ele>72</ele>
        <time>2011-12-11T09:57:56Z</time>
      </trkpt>
      <trkpt lat="47.00988" lon="-1.07946">
        <ele>72</ele>
        <time>2011-12-11T09:57:58Z</time>
      </trkpt>
      <trkpt lat="47.00989" lon="-1.07949">
        <ele>71</ele>
        <time>2011-12-11T09:58:00Z</time>
      </trkpt>
      <trkpt lat="47.0099" lon="-1.0795">
        <ele>71</ele>
        <time>2011-12-11T09:58:01Z</time>
      </trkpt>
      <trkpt lat="47.00991" lon="-1.07952">
        <ele>71</ele>
        <time>2011-12-11T09:58:02Z</time>
      </trkpt>
      <trkpt lat="47.00991" lon="-1.07953">
        <ele>71</ele>
        <time>2011-12-11T09:58:03Z</time>
      </trkpt>
      <trkpt lat="47.00993" lon="-1.07955">
        <ele>71</ele>
        <time>2011-12-11T09:58:05Z</time>
      </trkpt>
      <trkpt lat="47.00994" lon="-1.07957">
        <ele>70</ele>
        <time>2011-12-11T09:58:08Z</time>
      </trkpt>
      <trkpt lat="47.00995" lon="-1.0796">
        <ele>70</ele>
        <time>2011-12-11T09:58:10Z</time>
      </trkpt>
      <trkpt lat="47.00996" lon="-1.07962">
        <ele>70</ele>
        <time>2011-12-11T09:58:12Z</time>
      </trkpt>
      <trkpt lat="47.00998" lon="-1.07964">
        <ele>69</ele>
        <time>2011-12-11T09:58:14Z</time>
      </trkpt>
      <trkpt lat="47.00999" lon="-1.07967">
        <ele>69</ele>
        <time>2011-12-11T09:58:16Z</time>
      </trkpt>
      <trkpt lat="47.01" lon="-1.07969">
        <ele>68</ele>
        <time>2011-12-11T09:58:18Z</time>
      </trkpt>
      <trkpt lat="47.01001" lon="-1.07971">
        <ele>68</ele>
        <time>2011-12-11T09:58:19Z</time>
      </trkpt>
      <trkpt lat="47.01002" lon="-1.07974">
        <ele>67</ele>
        <time>2011-12-11T09:58:21Z</time>
      </trkpt>
      <trkpt lat="47.01004" lon="-1.07976">
        <ele>67</ele>
        <time>2011-12-11T09:58:23Z</time>
      </trkpt>
      <trkpt lat="47.01005" lon="-1.07979">
        <ele>67</ele>
        <time>2011-12-11T09:58:25Z</time>
      </trkpt>
      <trkpt lat="47.01006" lon="-1.0798">
        <ele>66</ele>
        <time>2011-12-11T09:58:26Z</time>
      </trkpt>
      <trkpt lat="47.01007" lon="-1.07983">
        <ele>66</ele>
        <time>2011-12-11T09:58:28Z</time>
      </trkpt>
      <trkpt lat="47.01008" lon="-1.07985">
        <ele>66</ele>
        <time>2011-12-11T09:58:30Z</time>
      </trkpt>
      <trkpt lat="47.01009" lon="-1.07987">
        <ele>66</ele>
        <time>2011-12-11T09:58:31Z</time>
      </trkpt>
      <trkpt lat="47.0101" lon="-1.0799">
        <ele>65</ele>
        <time>2011-12-11T09:58:33Z</time>
      </trkpt>
      <trkpt lat="47.01012" lon="-1.07992">
        <ele>65</ele>
        <time>2011-12-11T09:58:35Z</time>
      </trkpt>
      <trkpt lat="47.01012" lon="-1.07994">
        <ele>65</ele>
        <time>2011-12-11T09:58:36Z</time>
      </trkpt>
      <trkpt lat="47.01014" lon="-1.07997">
        <ele>65</ele>
        <time>2011-12-11T09:58:38Z</time>
      </trkpt>
      <trkpt lat="47.01014" lon="-1.07998">
        <ele>64</ele>
        <time>2011-12-11T09:58:39Z</time>
      </trkpt>
      <trkpt lat="47.01015" lon="-1.08">
        <ele>64</ele>
        <time>2011-12-11T09:58:40Z</time>
      </trkpt>
      <trkpt lat="47.01015" lon="-1.08001">
        <ele>64</ele>
        <time>2011-12-11T09:58:41Z</time>
      </trkpt>
      <trkpt lat="47.01016" lon="-1.08003">
        <ele>64</ele>
        <time>2011-12-11T09:58:42Z</time>
      </trkpt>
      <trkpt lat="47.01017" lon="-1.08006">
        <ele>64</ele>
        <time>2011-12-11T09:58:44Z</time>
      </trkpt>
      <trkpt lat="47.01018" lon="-1.08008">
        <ele>64</ele>
        <time>2011-12-11T09:58:45Z</time>
      </trkpt>
      <trkpt lat="47.01019" lon="-1.08009">
        <ele>63</ele>
        <time>2011-12-11T09:58:46Z</time>
      </trkpt>
      <trkpt lat="47.01019" lon="-1.08011">
        <ele>63</ele>
        <time>2011-12-11T09:58:47Z</time>
      </trkpt>
      <trkpt lat="47.01019" lon="-1.08012">
        <ele>63</ele>
        <time>2011-12-11T09:58:48Z</time>
      </trkpt>
      <trkpt lat="47.0102" lon="-1.08014">
        <ele>63</ele>
        <time>2011-12-11T09:58:49Z</time>
      </trkpt>
      <trkpt lat="47.0102" lon="-1.08015">
        <ele>63</ele>
        <time>2011-12-11T09:58:50Z</time>
      </trkpt>
      <trkpt lat="47.0102" lon="-1.08017">
        <ele>62</ele>
        <time>2011-12-11T09:58:51Z</time>
      </trkpt>
      <trkpt lat="47.01021" lon="-1.08019">
        <ele>62</ele>
        <time>2011-12-11T09:58:52Z</time>
      </trkpt>
      <trkpt lat="47.01021" lon="-1.0802">
        <ele>62</ele>
        <time>2011-12-11T09:58:53Z</time>
      </trkpt>
      <trkpt lat="47.01021" lon="-1.08021">
        <ele>62</ele>
        <time>2011-12-11T09:58:54Z</time>
      </trkpt>
      <trkpt lat="47.01022" lon="-1.08023">
        <ele>61</ele>
        <time>2011-12-11T09:58:55Z</time>
      </trkpt>
      <trkpt lat="47.01022" lon="-1.08025">
        <ele>61</ele>
        <time>2011-12-11T09:58:56Z</time>
      </trkpt>
      <trkpt lat="47.01022" lon="-1.08027">
        <ele>61</ele>
        <time>2011-12-11T09:58:57Z</time>
      </trkpt>
      <trkpt lat="47.01022" lon="-1.08028">
        <ele>61</ele>
        <time>2011-12-11T09:58:58Z</time>
      </trkpt>
      <trkpt lat="47.01022" lon="-1.0803">
        <ele>60</ele>
        <time>2011-12-11T09:58:59Z</time>
      </trkpt>
      <trkpt lat="47.01022" lon="-1.08032">
        <ele>60</ele>
        <time>2011-12-11T09:59:00Z</time>
      </trkpt>
      <trkpt lat="47.01023" lon="-1.08033">
        <ele>60</ele>
        <time>2011-12-11T09:59:01Z</time>
      </trkpt>
      <trkpt lat="47.01023" lon="-1.08035">
        <ele>60</ele>
        <time>2011-12-11T09:59:02Z</time>
      </trkpt>
      <trkpt lat="47.01023" lon="-1.08036">
        <ele>60</ele>
        <time>2011-12-11T09:59:03Z</time>
      </trkpt>
      <trkpt lat="47.01023" lon="-1.08038">
        <ele>59</ele>
        <time>2011-12-11T09:59:04Z</time>
      </trkpt>
      <trkpt lat="47.01023" lon="-1.0804">
        <ele>59</ele>
        <time>2011-12-11T09:59:05Z</time>
      </trkpt>
      <trkpt lat="47.01023" lon="-1.08042">
        <ele>59</ele>
        <time>2011-12-11T09:59:06Z</time>
      </trkpt>
      <trkpt lat="47.01024" lon="-1.08043">
        <ele>59</ele>
        <time>2011-12-11T09:59:07Z</time>
      </trkpt>
      <trkpt lat="47.01024" lon="-1.08045">
        <ele>59</ele>
        <time>2011-12-11T09:59:08Z</time>
      </trkpt>
      <trkpt lat="47.01024" lon="-1.08047">
        <ele>59</ele>
        <time>2011-12-11T09:59:09Z</time>
      </trkpt>
      <trkpt lat="47.01024" lon="-1.08049">
        <ele>58</ele>
        <time>2011-12-11T09:59:10Z</time>
      </trkpt>
      <trkpt lat="47.01024" lon="-1.08051">
        <ele>58</ele>
        <time>2011-12-11T09:59:11Z</time>
      </trkpt>
      <trkpt lat="47.01024" lon="-1.08053">
        <ele>58</ele>
        <time>2011-12-11T09:59:12Z</time>
      </trkpt>
      <trkpt lat="47.01024" lon="-1.08055">
        <ele>58</ele>
        <time>2011-12-11T09:59:13Z</time>
      </trkpt>
      <trkpt lat="47.01024" lon="-1.08056">
        <ele>58</ele>
        <time>2011-12-11T09:59:14Z</time>
      </trkpt>
      <trkpt lat="47.01024" lon="-1.08058">
        <ele>58</ele>
        <time>2011-12-11T09:59:15Z</time>
      </trkpt>
      <trkpt lat="47.01025" lon="-1.0806">
        <ele>58</ele>
        <time>2011-12-11T09:59:16Z</time>
      </trkpt>
      <trkpt lat="47.01025" lon="-1.08062">
        <ele>58</ele>
        <time>2011-12-11T09:59:17Z</time>
      </trkpt>
      <trkpt lat="47.01024" lon="-1.08063">
        <ele>58</ele>
        <time>2011-12-11T09:59:18Z</time>
      </trkpt>
      <trkpt lat="47.01024" lon="-1.08065">
        <ele>58</ele>
        <time>2011-12-11T09:59:19Z</time>
      </trkpt>
      <trkpt lat="47.01024" lon="-1.08068">
        <ele>58</ele>
        <time>2011-12-11T09:59:20Z</time>
      </trkpt>
      <trkpt lat="47.01024" lon="-1.0807">
        <ele>57</ele>
        <time>2011-12-11T09:59:21Z</time>
      </trkpt>
      <trkpt lat="47.01024" lon="-1.08071">
        <ele>57</ele>
        <time>2011-12-11T09:59:22Z</time>
      </trkpt>
      <trkpt lat="47.01023" lon="-1.08073">
        <ele>57</ele>
        <time>2011-12-11T09:59:23Z</time>
      </trkpt>
      <trkpt lat="47.01023" lon="-1.08075">
        <ele>57</ele>
        <time>2011-12-11T09:59:24Z</time>
      </trkpt>
      <trkpt lat="47.01023" lon="-1.08077">
        <ele>57</ele>
        <time>2011-12-11T09:59:25Z</time>
      </trkpt>
      <trkpt lat="47.01023" lon="-1.08079">
        <ele>57</ele>
        <time>2011-12-11T09:59:26Z</time>
      </trkpt>
      <trkpt lat="47.01023" lon="-1.0808">
        <ele>56</ele>
        <time>2011-12-11T09:59:27Z</time>
      </trkpt>
      <trkpt lat="47.01022" lon="-1.08082">
        <ele>56</ele>
        <time>2011-12-11T09:59:28Z</time>
      </trkpt>
      <trkpt lat="47.01022" lon="-1.08084">
        <ele>56</ele>
        <time>2011-12-11T09:59:29Z</time>
      </trkpt>
      <trkpt lat="47.01022" lon="-1.08086">
        <ele>56</ele>
        <time>2011-12-11T09:59:30Z</time>
      </trkpt>
      <trkpt lat="47.01022" lon="-1.08087">
        <ele>55</ele>
        <time>2011-12-11T09:59:31Z</time>
      </trkpt>
      <trkpt lat="47.01022" lon="-1.08089">
        <ele>55</ele>
        <time>2011-12-11T09:59:32Z</time>
      </trkpt>
      <trkpt lat="47.01021" lon="-1.0809">
        <ele>55</ele>
        <time>2011-12-11T09:59:33Z</time>
      </trkpt>
      <trkpt lat="47.01021" lon="-1.08092">
        <ele>55</ele>
        <time>2011-12-11T09:59:34Z</time>
      </trkpt>
      <trkpt lat="47.01021" lon="-1.08093">
        <ele>54</ele>
        <time>2011-12-11T09:59:35Z</time>
      </trkpt>
      <trkpt lat="47.0102" lon="-1.08096">
        <ele>54</ele>
        <time>2011-12-11T09:59:37Z</time>
      </trkpt>
      <trkpt lat="47.0102" lon="-1.08098">
        <ele>54</ele>
        <time>2011-12-11T09:59:38Z</time>
      </trkpt>
      <trkpt lat="47.0102" lon="-1.081">
        <ele>53</ele>
        <time>2011-12-11T09:59:39Z</time>
      </trkpt>
      <trkpt lat="47.0102" lon="-1.08101">
        <ele>53</ele>
        <time>2011-12-11T09:59:40Z</time>
      </trkpt>
      <trkpt lat="47.01019" lon="-1.08103">
        <ele>53</ele>
        <time>2011-12-11T09:59:41Z</time>
      </trkpt>
      <trkpt lat="47.01019" lon="-1.08105">
        <ele>53</ele>
        <time>2011-12-11T09:59:42Z</time>
      </trkpt>
      <trkpt lat="47.01019" lon="-1.08107">
        <ele>53</ele>
        <time>2011-12-11T09:59:43Z</time>
      </trkpt>
      <trkpt lat="47.01019" lon="-1.08109">
        <ele>53</ele>
        <time>2011-12-11T09:59:44Z</time>
      </trkpt>
      <trkpt lat="47.01018" lon="-1.08111">
        <ele>53</ele>
        <time>2011-12-11T09:59:45Z</time>
      </trkpt>
      <trkpt lat="47.01018" lon="-1.08112">
        <ele>52</ele>
        <time>2011-12-11T09:59:46Z</time>
      </trkpt>
      <trkpt lat="47.01017" lon="-1.08114">
        <ele>52</ele>
        <time>2011-12-11T09:59:47Z</time>
      </trkpt>
      <trkpt lat="47.01017" lon="-1.08116">
        <ele>52</ele>
        <time>2011-12-11T09:59:48Z</time>
      </trkpt>
      <trkpt lat="47.01017" lon="-1.08117">
        <ele>52</ele>
        <time>2011-12-11T09:59:49Z</time>
      </trkpt>
      <trkpt lat="47.01016" lon="-1.08119">
        <ele>52</ele>
        <time>2011-12-11T09:59:50Z</time>
      </trkpt>
      <trkpt lat="47.01016" lon="-1.08121">
        <ele>52</ele>
        <time>2011-12-11T09:59:51Z</time>
      </trkpt>
      <trkpt lat="47.01015" lon="-1.08123">
        <ele>52</ele>
        <time>2011-12-11T09:59:52Z</time>
      </trkpt>
      <trkpt lat="47.01015" lon="-1.08124">
        <ele>52</ele>
        <time>2011-12-11T09:59:53Z</time>
      </trkpt>
      <trkpt lat="47.01014" lon="-1.08126">
        <ele>52</ele>
        <time>2011-12-11T09:59:54Z</time>
      </trkpt>
      <trkpt lat="47.01014" lon="-1.08127">
        <ele>52</ele>
        <time>2011-12-11T09:59:55Z</time>
      </trkpt>
      <trkpt lat="47.01013" lon="-1.08129">
        <ele>52</ele>
        <time>2011-12-11T09:59:56Z</time>
      </trkpt>
      <trkpt lat="47.01013" lon="-1.08131">
        <ele>52</ele>
        <time>2011-12-11T09:59:57Z</time>
      </trkpt>
      <trkpt lat="47.01012" lon="-1.08133">
        <ele>52</ele>
        <time>2011-12-11T09:59:59Z</time>
      </trkpt>
      <trkpt lat="47.01011" lon="-1.08135">
        <ele>52</ele>
        <time>2011-12-11T10:00:00Z</time>
      </trkpt>
      <trkpt lat="47.0101" lon="-1.08136">
        <ele>52</ele>
        <time>2011-12-11T10:00:01Z</time>
      </trkpt>
      <trkpt lat="47.01009" lon="-1.08138">
        <ele>52</ele>
        <time>2011-12-11T10:00:02Z</time>
      </trkpt>
      <trkpt lat="47.01009" lon="-1.0814">
        <ele>52</ele>
        <time>2011-12-11T10:00:03Z</time>
      </trkpt>
      <trkpt lat="47.01008" lon="-1.08141">
        <ele>51</ele>
        <time>2011-12-11T10:00:04Z</time>
      </trkpt>
      <trkpt lat="47.01008" lon="-1.08143">
        <ele>51</ele>
        <time>2011-12-11T10:00:05Z</time>
      </trkpt>
      <trkpt lat="47.01008" lon="-1.08144">
        <ele>51</ele>
        <time>2011-12-11T10:00:06Z</time>
      </trkpt>
      <trkpt lat="47.01008" lon="-1.08146">
        <ele>51</ele>
        <time>2011-12-11T10:00:07Z</time>
      </trkpt>
      <trkpt lat="47.01009" lon="-1.08148">
        <ele>51</ele>
        <time>2011-12-11T10:00:08Z</time>
      </trkpt>
      <trkpt lat="47.01009" lon="-1.0815">
        <ele>51</ele>
        <time>2011-12-11T10:00:09Z</time>
      </trkpt>
      <trkpt lat="47.01009" lon="-1.08151">
        <ele>51</ele>
        <time>2011-12-11T10:00:10Z</time>
      </trkpt>
      <trkpt lat="47.01009" lon="-1.08152">
        <ele>51</ele>
        <time>2011-12-11T10:00:11Z</time>
      </trkpt>
      <trkpt lat="47.0101" lon="-1.08154">
        <ele>51</ele>
        <time>2011-12-11T10:00:12Z</time>
      </trkpt>
      <trkpt lat="47.0101" lon="-1.08156">
        <ele>51</ele>
        <time>2011-12-11T10:00:13Z</time>
      </trkpt>
      <trkpt lat="47.01011" lon="-1.08158">
        <ele>51</ele>
        <time>2011-12-11T10:00:14Z</time>
      </trkpt>
      <trkpt lat="47.01011" lon="-1.08159">
        <ele>51</ele>
        <time>2011-12-11T10:00:15Z</time>
      </trkpt>
      <trkpt lat="47.01012" lon="-1.0816">
        <ele>51</ele>
        <time>2011-12-11T10:00:16Z</time>
      </trkpt>
      <trkpt lat="47.01012" lon="-1.08162">
        <ele>51</ele>
        <time>2011-12-11T10:00:17Z</time>
      </trkpt>
      <trkpt lat="47.01013" lon="-1.08165">
        <ele>51</ele>
        <time>2011-12-11T10:00:19Z</time>
      </trkpt>
      <trkpt lat="47.01014" lon="-1.08167">
        <ele>51</ele>
        <time>2011-12-11T10:00:21Z</time>
      </trkpt>
      <trkpt lat="47.01015" lon="-1.08168">
        <ele>51</ele>
        <time>2011-12-11T10:00:22Z</time>
      </trkpt>
      <trkpt lat="47.01016" lon="-1.08171">
        <ele>51</ele>
        <time>2011-12-11T10:00:24Z</time>
      </trkpt>
      <trkpt lat="47.01017" lon="-1.08174">
        <ele>51</ele>
        <time>2011-12-11T10:00:26Z</time>
      </trkpt>
      <trkpt lat="47.01018" lon="-1.08176">
        <ele>51</ele>
        <time>2011-12-11T10:00:28Z</time>
      </trkpt>
      <trkpt lat="47.01019" lon="-1.08178">
        <ele>51</ele>
        <time>2011-12-11T10:00:29Z</time>
      </trkpt>
      <trkpt lat="47.01019" lon="-1.08179">
        <ele>51</ele>
        <time>2011-12-11T10:00:30Z</time>
      </trkpt>
      <trkpt lat="47.01019" lon="-1.08181">
        <ele>51</ele>
        <time>2011-12-11T10:00:31Z</time>
      </trkpt>
      <trkpt lat="47.0102" lon="-1.08184">
        <ele>51</ele>
        <time>2011-12-11T10:00:33Z</time>
      </trkpt>
      <trkpt lat="47.01022" lon="-1.08186">
        <ele>51</ele>
        <time>2011-12-11T10:00:35Z</time>
      </trkpt>
      <trkpt lat="47.01023" lon="-1.08189">
        <ele>51</ele>
        <time>2011-12-11T10:00:37Z</time>
      </trkpt>
      <trkpt lat="47.01024" lon="-1.08191">
        <ele>51</ele>
        <time>2011-12-11T10:00:39Z</time>
      </trkpt>
      <trkpt lat="47.01025" lon="-1.08194">
        <ele>51</ele>
        <time>2011-12-11T10:00:41Z</time>
      </trkpt>
      <trkpt lat="47.01026" lon="-1.08195">
        <ele>51</ele>
        <time>2011-12-11T10:00:42Z</time>
      </trkpt>
      <trkpt lat="47.01027" lon="-1.08197">
        <ele>51</ele>
        <time>2011-12-11T10:00:44Z</time>
      </trkpt>
      <trkpt lat="47.01028" lon="-1.08198">
        <ele>51</ele>
        <time>2011-12-11T10:00:46Z</time>
      </trkpt>
      <trkpt lat="47.0103" lon="-1.08198">
        <ele>51</ele>
        <time>2011-12-11T10:00:48Z</time>
      </trkpt>
      <trkpt lat="47.01031" lon="-1.082">
        <ele>51</ele>
        <time>2011-12-11T10:00:52Z</time>
      </trkpt>
      <trkpt lat="47.01032" lon="-1.08201">
        <ele>51</ele>
        <time>2011-12-11T10:00:57Z</time>
      </trkpt>
      <trkpt lat="47.01034" lon="-1.08202">
        <ele>51</ele>
        <time>2011-12-11T10:00:59Z</time>
      </trkpt>
      <trkpt lat="47.01035" lon="-1.08203">
        <ele>51</ele>
        <time>2011-12-11T10:01:03Z</time>
      </trkpt>
      <trkpt lat="47.01036" lon="-1.08205">
        <ele>51</ele>
        <time>2011-12-11T10:01:06Z</time>
      </trkpt>
      <trkpt lat="47.01038" lon="-1.08206">
        <ele>51</ele>
        <time>2011-12-11T10:01:08Z</time>
      </trkpt>
      <trkpt lat="47.01039" lon="-1.08207">
        <ele>51</ele>
        <time>2011-12-11T10:01:10Z</time>
      </trkpt>
      <trkpt lat="47.0104" lon="-1.0821">
        <ele>51</ele>
        <time>2011-12-11T10:01:13Z</time>
      </trkpt>
      <trkpt lat="47.01042" lon="-1.08212">
        <ele>51</ele>
        <time>2011-12-11T10:01:15Z</time>
      </trkpt>
      <trkpt lat="47.01043" lon="-1.08213">
        <ele>51</ele>
        <time>2011-12-11T10:01:17Z</time>
      </trkpt>
      <trkpt lat="47.01043" lon="-1.08215">
        <ele>51</ele>
        <time>2011-12-11T10:01:18Z</time>
      </trkpt>
      <trkpt lat="47.01044" lon="-1.08217">
        <ele>51</ele>
        <time>2011-12-11T10:01:19Z</time>
      </trkpt>
      <trkpt lat="47.01045" lon="-1.08219">
        <ele>51</ele>
        <time>2011-12-11T10:01:21Z</time>
      </trkpt>
      <trkpt lat="47.01045" lon="-1.0822">
        <ele>51</ele>
        <time>2011-12-11T10:01:22Z</time>
      </trkpt>
      <trkpt lat="47.01046" lon="-1.08222">
        <ele>51</ele>
        <time>2011-12-11T10:01:23Z</time>
      </trkpt>
      <trkpt lat="47.01046" lon="-1.08223">
        <ele>51</ele>
        <time>2011-12-11T10:01:24Z</time>
      </trkpt>
      <trkpt lat="47.01046" lon="-1.08225">
        <ele>51</ele>
        <time>2011-12-11T10:01:25Z</time>
      </trkpt>
      <trkpt lat="47.01046" lon="-1.08227">
        <ele>51</ele>
        <time>2011-12-11T10:01:26Z</time>
      </trkpt>
      <trkpt lat="47.01046" lon="-1.08228">
        <ele>51</ele>
        <time>2011-12-11T10:01:27Z</time>
      </trkpt>
      <trkpt lat="47.01046" lon="-1.0823">
        <ele>51</ele>
        <time>2011-12-11T10:01:29Z</time>
      </trkpt>
      <trkpt lat="47.01046" lon="-1.08233">
        <ele>51</ele>
        <time>2011-12-11T10:01:31Z</time>
      </trkpt>
      <trkpt lat="47.01047" lon="-1.08235">
        <ele>51</ele>
        <time>2011-12-11T10:01:32Z</time>
      </trkpt>
      <trkpt lat="47.01047" lon="-1.08238">
        <ele>51</ele>
        <time>2011-12-11T10:01:34Z</time>
      </trkpt>
      <trkpt lat="47.01048" lon="-1.08241">
        <ele>51</ele>
        <time>2011-12-11T10:01:36Z</time>
      </trkpt>
      <trkpt lat="47.01048" lon="-1.08242">
        <ele>51</ele>
        <time>2011-12-11T10:01:37Z</time>
      </trkpt>
      <trkpt lat="47.01048" lon="-1.08244">
        <ele>51</ele>
        <time>2011-12-11T10:01:38Z</time>
      </trkpt>
      <trkpt lat="47.01048" lon="-1.08245">
        <ele>51</ele>
        <time>2011-12-11T10:01:39Z</time>
      </trkpt>
      <trkpt lat="47.01048" lon="-1.08247">
        <ele>51</ele>
        <time>2011-12-11T10:01:40Z</time>
      </trkpt>
      <trkpt lat="47.01049" lon="-1.08248">
        <ele>51</ele>
        <time>2011-12-11T10:01:41Z</time>
      </trkpt>
      <trkpt lat="47.01049" lon="-1.0825">
        <ele>51</ele>
        <time>2011-12-11T10:01:42Z</time>
      </trkpt>
      <trkpt lat="47.01049" lon="-1.08251">
        <ele>51</ele>
        <time>2011-12-11T10:01:43Z</time>
      </trkpt>
      <trkpt lat="47.01049" lon="-1.08253">
        <ele>51</ele>
        <time>2011-12-11T10:01:44Z</time>
      </trkpt>
      <trkpt lat="47.01049" lon="-1.08254">
        <ele>51</ele>
        <time>2011-12-11T10:01:45Z</time>
      </trkpt>
      <trkpt lat="47.01049" lon="-1.08256">
        <ele>51</ele>
        <time>2011-12-11T10:01:46Z</time>
      </trkpt>
      <trkpt lat="47.0105" lon="-1.08258">
        <ele>51</ele>
        <time>2011-12-11T10:01:48Z</time>
      </trkpt>
      <trkpt lat="47.0105" lon="-1.08261">
        <ele>51</ele>
        <time>2011-12-11T10:01:50Z</time>
      </trkpt>
      <trkpt lat="47.0105" lon="-1.08263">
        <ele>52</ele>
        <time>2011-12-11T10:01:51Z</time>
      </trkpt>
      <trkpt lat="47.01051" lon="-1.08265">
        <ele>52</ele>
        <time>2011-12-11T10:01:53Z</time>
      </trkpt>
      <trkpt lat="47.01051" lon="-1.08268">
        <ele>52</ele>
        <time>2011-12-11T10:01:55Z</time>
      </trkpt>
      <trkpt lat="47.01051" lon="-1.08271">
        <ele>53</ele>
        <time>2011-12-11T10:01:57Z</time>
      </trkpt>
      <trkpt lat="47.01052" lon="-1.08273">
        <ele>53</ele>
        <time>2011-12-11T10:01:59Z</time>
      </trkpt>
      <trkpt lat="47.01052" lon="-1.08276">
        <ele>53</ele>
        <time>2011-12-11T10:02:01Z</time>
      </trkpt>
      <trkpt lat="47.01053" lon="-1.08279">
        <ele>53</ele>
        <time>2011-12-11T10:02:03Z</time>
      </trkpt>
      <trkpt lat="47.01053" lon="-1.08282">
        <ele>53</ele>
        <time>2011-12-11T10:02:05Z</time>
      </trkpt>
      <trkpt lat="47.01054" lon="-1.08283">
        <ele>53</ele>
        <time>2011-12-11T10:02:06Z</time>
      </trkpt>
      <trkpt lat="47.01054" lon="-1.08286">
        <ele>53</ele>
        <time>2011-12-11T10:02:08Z</time>
      </trkpt>
      <trkpt lat="47.01054" lon="-1.08288">
        <ele>53</ele>
        <time>2011-12-11T10:02:09Z</time>
      </trkpt>
      <trkpt lat="47.01055" lon="-1.08289">
        <ele>54</ele>
        <time>2011-12-11T10:02:10Z</time>
      </trkpt>
      <trkpt lat="47.01055" lon="-1.08292">
        <ele>54</ele>
        <time>2011-12-11T10:02:12Z</time>
      </trkpt>
      <trkpt lat="47.01056" lon="-1.08293">
        <ele>54</ele>
        <time>2011-12-11T10:02:13Z</time>
      </trkpt>
      <trkpt lat="47.01056" lon="-1.08296">
        <ele>54</ele>
        <time>2011-12-11T10:02:15Z</time>
      </trkpt>
      <trkpt lat="47.01057" lon="-1.08298">
        <ele>54</ele>
        <time>2011-12-11T10:02:16Z</time>
      </trkpt>
      <trkpt lat="47.01057" lon="-1.083">
        <ele>54</ele>
        <time>2011-12-11T10:02:18Z</time>
      </trkpt>
      <trkpt lat="47.01058" lon="-1.08303">
        <ele>54</ele>
        <time>2011-12-11T10:02:20Z</time>
      </trkpt>
      <trkpt lat="47.01058" lon="-1.08305">
        <ele>55</ele>
        <time>2011-12-11T10:02:21Z</time>
      </trkpt>
      <trkpt lat="47.01059" lon="-1.08307">
        <ele>55</ele>
        <time>2011-12-11T10:02:23Z</time>
      </trkpt>
      <trkpt lat="47.01059" lon="-1.08309">
        <ele>55</ele>
        <time>2011-12-11T10:02:24Z</time>
      </trkpt>
      <trkpt lat="47.01059" lon="-1.0831">
        <ele>55</ele>
        <time>2011-12-11T10:02:25Z</time>
      </trkpt>
      <trkpt lat="47.0106" lon="-1.08312">
        <ele>55</ele>
        <time>2011-12-11T10:02:26Z</time>
      </trkpt>
      <trkpt lat="47.0106" lon="-1.08313">
        <ele>55</ele>
        <time>2011-12-11T10:02:27Z</time>
      </trkpt>
      <trkpt lat="47.01061" lon="-1.08315">
        <ele>56</ele>
        <time>2011-12-11T10:02:28Z</time>
      </trkpt>
      <trkpt lat="47.01061" lon="-1.08317">
        <ele>56</ele>
        <time>2011-12-11T10:02:29Z</time>
      </trkpt>
      <trkpt lat="47.01061" lon="-1.08318">
        <ele>56</ele>
        <time>2011-12-11T10:02:30Z</time>
      </trkpt>
      <trkpt lat="47.01062" lon="-1.0832">
        <ele>56</ele>
        <time>2011-12-11T10:02:31Z</time>
      </trkpt>
      <trkpt lat="47.01062" lon="-1.08321">
        <ele>56</ele>
        <time>2011-12-11T10:02:32Z</time>
      </trkpt>
      <trkpt lat="47.01062" lon="-1.08323">
        <ele>56</ele>
        <time>2011-12-11T10:02:33Z</time>
      </trkpt>
      <trkpt lat="47.01063" lon="-1.08325">
        <ele>56</ele>
        <time>2011-12-11T10:02:34Z</time>
      </trkpt>
      <trkpt lat="47.01063" lon="-1.08326">
        <ele>56</ele>
        <time>2011-12-11T10:02:35Z</time>
      </trkpt>
      <trkpt lat="47.01063" lon="-1.08328">
        <ele>56</ele>
        <time>2011-12-11T10:02:36Z</time>
      </trkpt>
      <trkpt lat="47.01064" lon="-1.08329">
        <ele>57</ele>
        <time>2011-12-11T10:02:37Z</time>
      </trkpt>
      <trkpt lat="47.01064" lon="-1.08331">
        <ele>57</ele>
        <time>2011-12-11T10:02:38Z</time>
      </trkpt>
      <trkpt lat="47.01065" lon="-1.08333">
        <ele>57</ele>
        <time>2011-12-11T10:02:39Z</time>
      </trkpt>
      <trkpt lat="47.01065" lon="-1.08334">
        <ele>57</ele>
        <time>2011-12-11T10:02:40Z</time>
      </trkpt>
      <trkpt lat="47.01065" lon="-1.08336">
        <ele>57</ele>
        <time>2011-12-11T10:02:41Z</time>
      </trkpt>
      <trkpt lat="47.01066" lon="-1.08337">
        <ele>57</ele>
        <time>2011-12-11T10:02:42Z</time>
      </trkpt>
      <trkpt lat="47.01066" lon="-1.08339">
        <ele>57</ele>
        <time>2011-12-11T10:02:43Z</time>
      </trkpt>
      <trkpt lat="47.01067" lon="-1.08341">
        <ele>58</ele>
        <time>2011-12-11T10:02:44Z</time>
      </trkpt>
      <trkpt lat="47.01067" lon="-1.08342">
        <ele>58</ele>
        <time>2011-12-11T10:02:45Z</time>
      </trkpt>
      <trkpt lat="47.01067" lon="-1.08344">
        <ele>58</ele>
        <time>2011-12-11T10:02:46Z</time>
      </trkpt>
      <trkpt lat="47.01068" lon="-1.08345">
        <ele>58</ele>
        <time>2011-12-11T10:02:47Z</time>
      </trkpt>
      <trkpt lat="47.01068" lon="-1.08347">
        <ele>58</ele>
        <time>2011-12-11T10:02:48Z</time>
      </trkpt>
      <trkpt lat="47.01069" lon="-1.08349">
        <ele>58</ele>
        <time>2011-12-11T10:02:49Z</time>
      </trkpt>
      <trkpt lat="47.01069" lon="-1.0835">
        <ele>58</ele>
        <time>2011-12-11T10:02:50Z</time>
      </trkpt>
      <trkpt lat="47.01069" lon="-1.08352">
        <ele>58</ele>
        <time>2011-12-11T10:02:51Z</time>
      </trkpt>
      <trkpt lat="47.0107" lon="-1.08353">
        <ele>59</ele>
        <time>2011-12-11T10:02:52Z</time>
      </trkpt>
      <trkpt lat="47.0107" lon="-1.08355">
        <ele>59</ele>
        <time>2011-12-11T10:02:53Z</time>
      </trkpt>
      <trkpt lat="47.0107" lon="-1.08357">
        <ele>59</ele>
        <time>2011-12-11T10:02:54Z</time>
      </trkpt>
      <trkpt lat="47.01071" lon="-1.08358">
        <ele>59</ele>
        <time>2011-12-11T10:02:55Z</time>
      </trkpt>
      <trkpt lat="47.01072" lon="-1.0836">
        <ele>59</ele>
        <time>2011-12-11T10:02:56Z</time>
      </trkpt>
      <trkpt lat="47.01072" lon="-1.08361">
        <ele>59</ele>
        <time>2011-12-11T10:02:57Z</time>
      </trkpt>
      <trkpt lat="47.01072" lon="-1.08363">
        <ele>59</ele>
        <time>2011-12-11T10:02:58Z</time>
      </trkpt>
      <trkpt lat="47.01072" lon="-1.08365">
        <ele>59</ele>
        <time>2011-12-11T10:02:59Z</time>
      </trkpt>
      <trkpt lat="47.01073" lon="-1.08366">
        <ele>59</ele>
        <time>2011-12-11T10:03:00Z</time>
      </trkpt>
      <trkpt lat="47.01074" lon="-1.08369">
        <ele>59</ele>
        <time>2011-12-11T10:03:02Z</time>
      </trkpt>
      <trkpt lat="47.01074" lon="-1.08371">
        <ele>59</ele>
        <time>2011-12-11T10:03:03Z</time>
      </trkpt>
      <trkpt lat="47.01074" lon="-1.08373">
        <ele>59</ele>
        <time>2011-12-11T10:03:04Z</time>
      </trkpt>
      <trkpt lat="47.01074" lon="-1.08375">
        <ele>59</ele>
        <time>2011-12-11T10:03:05Z</time>
      </trkpt>
      <trkpt lat="47.01075" lon="-1.08376">
        <ele>60</ele>
        <time>2011-12-11T10:03:06Z</time>
      </trkpt>
      <trkpt lat="47.01075" lon="-1.08378">
        <ele>60</ele>
        <time>2011-12-11T10:03:07Z</time>
      </trkpt>
      <trkpt lat="47.01075" lon="-1.08379">
        <ele>60</ele>
        <time>2011-12-11T10:03:08Z</time>
      </trkpt>
      <trkpt lat="47.01075" lon="-1.08381">
        <ele>60</ele>
        <time>2011-12-11T10:03:09Z</time>
      </trkpt>
      <trkpt lat="47.01075" lon="-1.08383">
        <ele>60</ele>
        <time>2011-12-11T10:03:10Z</time>
      </trkpt>
      <trkpt lat="47.01075" lon="-1.08385">
        <ele>60</ele>
        <time>2011-12-11T10:03:11Z</time>
      </trkpt>
      <trkpt lat="47.01075" lon="-1.08387">
        <ele>61</ele>
        <time>2011-12-11T10:03:12Z</time>
      </trkpt>
      <trkpt lat="47.01075" lon="-1.08388">
        <ele>61</ele>
        <time>2011-12-11T10:03:13Z</time>
      </trkpt>
      <trkpt lat="47.01075" lon="-1.0839">
        <ele>61</ele>
        <time>2011-12-11T10:03:14Z</time>
      </trkpt>
      <trkpt lat="47.01075" lon="-1.08391">
        <ele>61</ele>
        <time>2011-12-11T10:03:15Z</time>
      </trkpt>
      <trkpt lat="47.01075" lon="-1.08393">
        <ele>62</ele>
        <time>2011-12-11T10:03:16Z</time>
      </trkpt>
      <trkpt lat="47.01075" lon="-1.08395">
        <ele>62</ele>
        <time>2011-12-11T10:03:17Z</time>
      </trkpt>
      <trkpt lat="47.01076" lon="-1.08396">
        <ele>62</ele>
        <time>2011-12-11T10:03:18Z</time>
      </trkpt>
      <trkpt lat="47.01076" lon="-1.08397">
        <ele>62</ele>
        <time>2011-12-11T10:03:19Z</time>
      </trkpt>
      <trkpt lat="47.01077" lon="-1.08399">
        <ele>62</ele>
        <time>2011-12-11T10:03:20Z</time>
      </trkpt>
      <trkpt lat="47.01077" lon="-1.084">
        <ele>62</ele>
        <time>2011-12-11T10:03:21Z</time>
      </trkpt>
      <trkpt lat="47.01078" lon="-1.08402">
        <ele>62</ele>
        <time>2011-12-11T10:03:22Z</time>
      </trkpt>
      <trkpt lat="47.01078" lon="-1.08404">
        <ele>62</ele>
        <time>2011-12-11T10:03:23Z</time>
      </trkpt>
      <trkpt lat="47.01079" lon="-1.08406">
        <ele>62</ele>
        <time>2011-12-11T10:03:24Z</time>
      </trkpt>
      <trkpt lat="47.01079" lon="-1.08407">
        <ele>62</ele>
        <time>2011-12-11T10:03:25Z</time>
      </trkpt>
      <trkpt lat="47.01079" lon="-1.08409">
        <ele>62</ele>
        <time>2011-12-11T10:03:26Z</time>
      </trkpt>
      <trkpt lat="47.01079" lon="-1.08411">
        <ele>62</ele>
        <time>2011-12-11T10:03:27Z</time>
      </trkpt>
      <trkpt lat="47.01078" lon="-1.08412">
        <ele>62</ele>
        <time>2011-12-11T10:03:28Z</time>
      </trkpt>
      <trkpt lat="47.01078" lon="-1.08414">
        <ele>63</ele>
        <time>2011-12-11T10:03:29Z</time>
      </trkpt>
      <trkpt lat="47.01078" lon="-1.08415">
        <ele>63</ele>
        <time>2011-12-11T10:03:30Z</time>
      </trkpt>
      <trkpt lat="47.01077" lon="-1.08417">
        <ele>63</ele>
        <time>2011-12-11T10:03:31Z</time>
      </trkpt>
      <trkpt lat="47.01076" lon="-1.08419">
        <ele>63</ele>
        <time>2011-12-11T10:03:32Z</time>
      </trkpt>
      <trkpt lat="47.01075" lon="-1.0842">
        <ele>63</ele>
        <time>2011-12-11T10:03:33Z</time>
      </trkpt>
      <trkpt lat="47.01075" lon="-1.08422">
        <ele>63</ele>
        <time>2011-12-11T10:03:34Z</time>
      </trkpt>
      <trkpt lat="47.01074" lon="-1.08423">
        <ele>63</ele>
        <time>2011-12-11T10:03:35Z</time>
      </trkpt>
      <trkpt lat="47.01074" lon="-1.08425">
        <ele>63</ele>
        <time>2011-12-11T10:03:36Z</time>
      </trkpt>
      <trkpt lat="47.01073" lon="-1.08426">
        <ele>64</ele>
        <time>2011-12-11T10:03:37Z</time>
      </trkpt>
      <trkpt lat="47.01073" lon="-1.08428">
        <ele>64</ele>
        <time>2011-12-11T10:03:38Z</time>
      </trkpt>
      <trkpt lat="47.01073" lon="-1.0843">
        <ele>64</ele>
        <time>2011-12-11T10:03:39Z</time>
      </trkpt>
      <trkpt lat="47.01073" lon="-1.08432">
        <ele>64</ele>
        <time>2011-12-11T10:03:40Z</time>
      </trkpt>
      <trkpt lat="47.01073" lon="-1.08433">
        <ele>64</ele>
        <time>2011-12-11T10:03:41Z</time>
      </trkpt>
      <trkpt lat="47.01075" lon="-1.08435">
        <ele>64</ele>
        <time>2011-12-11T10:03:43Z</time>
      </trkpt>
      <trkpt lat="47.01077" lon="-1.08434">
        <ele>64</ele>
        <time>2011-12-11T10:03:45Z</time>
      </trkpt>
      <trkpt lat="47.01078" lon="-1.08432">
        <ele>64</ele>
        <time>2011-12-11T10:03:46Z</time>
      </trkpt>
      <trkpt lat="47.01078" lon="-1.08431">
        <ele>64</ele>
        <time>2011-12-11T10:03:47Z</time>
      </trkpt>
      <trkpt lat="47.01079" lon="-1.08429">
        <ele>64</ele>
        <time>2011-12-11T10:03:48Z</time>
      </trkpt>
      <trkpt lat="47.0108" lon="-1.08428">
        <ele>64</ele>
        <time>2011-12-11T10:03:49Z</time>
      </trkpt>
      <trkpt lat="47.01081" lon="-1.08426">
        <ele>64</ele>
        <time>2011-12-11T10:03:50Z</time>
      </trkpt>
      <trkpt lat="47.01081" lon="-1.08425">
        <ele>64</ele>
        <time>2011-12-11T10:03:51Z</time>
      </trkpt>
      <trkpt lat="47.01083" lon="-1.08423">
        <ele>64</ele>
        <time>2011-12-11T10:03:52Z</time>
      </trkpt>
      <trkpt lat="47.01084" lon="-1.08421">
        <ele>64</ele>
        <time>2011-12-11T10:03:54Z</time>
      </trkpt>
      <trkpt lat="47.01085" lon="-1.08419">
        <ele>64</ele>
        <time>2011-12-11T10:03:55Z</time>
      </trkpt>
      <trkpt lat="47.01086" lon="-1.08418">
        <ele>64</ele>
        <time>2011-12-11T10:03:56Z</time>
      </trkpt>
      <trkpt lat="47.01087" lon="-1.08416">
        <ele>64</ele>
        <time>2011-12-11T10:03:57Z</time>
      </trkpt>
      <trkpt lat="47.01088" lon="-1.08415">
        <ele>64</ele>
        <time>2011-12-11T10:03:58Z</time>
      </trkpt>
      <trkpt lat="47.01089" lon="-1.08413">
        <ele>64</ele>
        <time>2011-12-11T10:03:59Z</time>
      </trkpt>
      <trkpt lat="47.0109" lon="-1.08412">
        <ele>64</ele>
        <time>2011-12-11T10:04:00Z</time>
      </trkpt>
      <trkpt lat="47.01091" lon="-1.08409">
        <ele>64</ele>
        <time>2011-12-11T10:04:02Z</time>
      </trkpt>
      <trkpt lat="47.01092" lon="-1.08407">
        <ele>64</ele>
        <time>2011-12-11T10:04:03Z</time>
      </trkpt>
      <trkpt lat="47.01093" lon="-1.08405">
        <ele>64</ele>
        <time>2011-12-11T10:04:05Z</time>
      </trkpt>
      <trkpt lat="47.01095" lon="-1.08403">
        <ele>64</ele>
        <time>2011-12-11T10:04:07Z</time>
      </trkpt>
      <trkpt lat="47.01097" lon="-1.084">
        <ele>64</ele>
        <time>2011-12-11T10:04:09Z</time>
      </trkpt>
      <trkpt lat="47.01099" lon="-1.08398">
        <ele>64</ele>
        <time>2011-12-11T10:04:11Z</time>
      </trkpt>
      <trkpt lat="47.01101" lon="-1.08396">
        <ele>63</ele>
        <time>2011-12-11T10:04:13Z</time>
      </trkpt>
      <trkpt lat="47.01102" lon="-1.08394">
        <ele>62</ele>
        <time>2011-12-11T10:04:14Z</time>
      </trkpt>
      <trkpt lat="47.01104" lon="-1.08393">
        <ele>62</ele>
        <time>2011-12-11T10:04:16Z</time>
      </trkpt>
      <trkpt lat="47.01104" lon="-1.08391">
        <ele>61</ele>
        <time>2011-12-11T10:04:17Z</time>
      </trkpt>
      <trkpt lat="47.01106" lon="-1.08388">
        <ele>61</ele>
        <time>2011-12-11T10:04:19Z</time>
      </trkpt>
      <trkpt lat="47.01108" lon="-1.08386">
        <ele>61</ele>
        <time>2011-12-11T10:04:21Z</time>
      </trkpt>
      <trkpt lat="47.0111" lon="-1.08384">
        <ele>61</ele>
        <time>2011-12-11T10:04:23Z</time>
      </trkpt>
      <trkpt lat="47.01111" lon="-1.08383">
        <ele>61</ele>
        <time>2011-12-11T10:04:24Z</time>
      </trkpt>
      <trkpt lat="47.01112" lon="-1.08381">
        <ele>61</ele>
        <time>2011-12-11T10:04:25Z</time>
      </trkpt>
      <trkpt lat="47.01113" lon="-1.0838">
        <ele>61</ele>
        <time>2011-12-11T10:04:26Z</time>
      </trkpt>
      <trkpt lat="47.01115" lon="-1.08377">
        <ele>61</ele>
        <time>2011-12-11T10:04:28Z</time>
      </trkpt>
      <trkpt lat="47.01116" lon="-1.08376">
        <ele>61</ele>
        <time>2011-12-11T10:04:29Z</time>
      </trkpt>
      <trkpt lat="47.01118" lon="-1.08374">
        <ele>61</ele>
        <time>2011-12-11T10:04:30Z</time>
      </trkpt>
      <trkpt lat="47.01119" lon="-1.08373">
        <ele>61</ele>
        <time>2011-12-11T10:04:31Z</time>
      </trkpt>
      <trkpt lat="47.01121" lon="-1.0837">
        <ele>61</ele>
        <time>2011-12-11T10:04:33Z</time>
      </trkpt>
      <trkpt lat="47.01122" lon="-1.08369">
        <ele>61</ele>
        <time>2011-12-11T10:04:34Z</time>
      </trkpt>
      <trkpt lat="47.01125" lon="-1.08366">
        <ele>61</ele>
        <time>2011-12-11T10:04:36Z</time>
      </trkpt>
      <trkpt lat="47.01126" lon="-1.08364">
        <ele>61</ele>
        <time>2011-12-11T10:04:37Z</time>
      </trkpt>
      <trkpt lat="47.01128" lon="-1.08362">
        <ele>61</ele>
        <time>2011-12-11T10:04:39Z</time>
      </trkpt>
      <trkpt lat="47.0113" lon="-1.08359">
        <ele>61</ele>
        <time>2011-12-11T10:04:41Z</time>
      </trkpt>
      <trkpt lat="47.01131" lon="-1.08358">
        <ele>61</ele>
        <time>2011-12-11T10:04:42Z</time>
      </trkpt>
      <trkpt lat="47.01132" lon="-1.08357">
        <ele>61</ele>
        <time>2011-12-11T10:04:43Z</time>
      </trkpt>
      <trkpt lat="47.01134" lon="-1.08354">
        <ele>61</ele>
        <time>2011-12-11T10:04:45Z</time>
      </trkpt>
      <trkpt lat="47.01135" lon="-1.08353">
        <ele>60</ele>
        <time>2011-12-11T10:04:46Z</time>
      </trkpt>
      <trkpt lat="47.01137" lon="-1.08351">
        <ele>60</ele>
        <time>2011-12-11T10:04:48Z</time>
      </trkpt>
      <trkpt lat="47.01139" lon="-1.08349">
        <ele>60</ele>
        <time>2011-12-11T10:04:50Z</time>
      </trkpt>
      <trkpt lat="47.01141" lon="-1.08346">
        <ele>59</ele>
        <time>2011-12-11T10:04:52Z</time>
      </trkpt>
      <trkpt lat="47.01142" lon="-1.08344">
        <ele>59</ele>
        <time>2011-12-11T10:04:54Z</time>
      </trkpt>
      <trkpt lat="47.01144" lon="-1.08342">
        <ele>59</ele>
        <time>2011-12-11T10:04:56Z</time>
      </trkpt>
      <trkpt lat="47.01146" lon="-1.08339">
        <ele>58</ele>
        <time>2011-12-11T10:04:58Z</time>
      </trkpt>
      <trkpt lat="47.01147" lon="-1.08338">
        <ele>58</ele>
        <time>2011-12-11T10:04:59Z</time>
      </trkpt>
      <trkpt lat="47.01149" lon="-1.08336">
        <ele>58</ele>
        <time>2011-12-11T10:05:01Z</time>
      </trkpt>
      <trkpt lat="47.01151" lon="-1.08333">
        <ele>58</ele>
        <time>2011-12-11T10:05:03Z</time>
      </trkpt>
      <trkpt lat="47.01153" lon="-1.08331">
        <ele>58</ele>
        <time>2011-12-11T10:05:05Z</time>
      </trkpt>
      <trkpt lat="47.01155" lon="-1.08329">
        <ele>58</ele>
        <time>2011-12-11T10:05:07Z</time>
      </trkpt>
      <trkpt lat="47.01157" lon="-1.08327">
        <ele>58</ele>
        <time>2011-12-11T10:05:09Z</time>
      </trkpt>
      <trkpt lat="47.01158" lon="-1.08326">
        <ele>58</ele>
        <time>2011-12-11T10:05:10Z</time>
      </trkpt>
      <trkpt lat="47.0116" lon="-1.08324">
        <ele>58</ele>
        <time>2011-12-11T10:05:12Z</time>
      </trkpt>
      <trkpt lat="47.01162" lon="-1.08323">
        <ele>57</ele>
        <time>2011-12-11T10:05:14Z</time>
      </trkpt>
      <trkpt lat="47.01164" lon="-1.0832">
        <ele>57</ele>
        <time>2011-12-11T10:05:16Z</time>
      </trkpt>
      <trkpt lat="47.01165" lon="-1.0832">
        <ele>57</ele>
        <time>2011-12-11T10:05:17Z</time>
      </trkpt>
      <trkpt lat="47.01168" lon="-1.08318">
        <ele>56</ele>
        <time>2011-12-11T10:05:19Z</time>
      </trkpt>
      <trkpt lat="47.01169" lon="-1.08317">
        <ele>56</ele>
        <time>2011-12-11T10:05:20Z</time>
      </trkpt>
      <trkpt lat="47.0117" lon="-1.08317">
        <ele>56</ele>
        <time>2011-12-11T10:05:21Z</time>
      </trkpt>
      <trkpt lat="47.01171" lon="-1.08316">
        <ele>56</ele>
        <time>2011-12-11T10:05:22Z</time>
      </trkpt>
      <trkpt lat="47.01173" lon="-1.08315">
        <ele>56</ele>
        <time>2011-12-11T10:05:23Z</time>
      </trkpt>
      <trkpt lat="47.01175" lon="-1.08314">
        <ele>55</ele>
        <time>2011-12-11T10:05:25Z</time>
      </trkpt>
      <trkpt lat="47.01176" lon="-1.08313">
        <ele>55</ele>
        <time>2011-12-11T10:05:26Z</time>
      </trkpt>
      <trkpt lat="47.01178" lon="-1.08311">
        <ele>55</ele>
        <time>2011-12-11T10:05:28Z</time>
      </trkpt>
      <trkpt lat="47.0118" lon="-1.0831">
        <ele>54</ele>
        <time>2011-12-11T10:05:30Z</time>
      </trkpt>
      <trkpt lat="47.01181" lon="-1.08308">
        <ele>53</ele>
        <time>2011-12-11T10:05:32Z</time>
      </trkpt>
      <trkpt lat="47.01183" lon="-1.08308">
        <ele>53</ele>
        <time>2011-12-11T10:05:33Z</time>
      </trkpt>
      <trkpt lat="47.01184" lon="-1.08306">
        <ele>52</ele>
        <time>2011-12-11T10:05:35Z</time>
      </trkpt>
      <trkpt lat="47.01186" lon="-1.08305">
        <ele>52</ele>
        <time>2011-12-11T10:05:37Z</time>
      </trkpt>
      <trkpt lat="47.01188" lon="-1.08303">
        <ele>52</ele>
        <time>2011-12-11T10:05:39Z</time>
      </trkpt>
      <trkpt lat="47.01189" lon="-1.08303">
        <ele>52</ele>
        <time>2011-12-11T10:05:40Z</time>
      </trkpt>
      <trkpt lat="47.01191" lon="-1.08302">
        <ele>51</ele>
        <time>2011-12-11T10:05:42Z</time>
      </trkpt>
      <trkpt lat="47.01192" lon="-1.08301">
        <ele>51</ele>
        <time>2011-12-11T10:05:43Z</time>
      </trkpt>
      <trkpt lat="47.01194" lon="-1.08301">
        <ele>51</ele>
        <time>2011-12-11T10:05:45Z</time>
      </trkpt>
      <trkpt lat="47.01196" lon="-1.083">
        <ele>51</ele>
        <time>2011-12-11T10:05:47Z</time>
      </trkpt>
      <trkpt lat="47.01198" lon="-1.083">
        <ele>51</ele>
        <time>2011-12-11T10:05:49Z</time>
      </trkpt>
      <trkpt lat="47.012" lon="-1.083">
        <ele>51</ele>
        <time>2011-12-11T10:05:51Z</time>
      </trkpt>
      <trkpt lat="47.01202" lon="-1.083">
        <ele>50</ele>
        <time>2011-12-11T10:05:53Z</time>
      </trkpt>
      <trkpt lat="47.01203" lon="-1.083">
        <ele>50</ele>
        <time>2011-12-11T10:05:55Z</time>
      </trkpt>
      <trkpt lat="47.01205" lon="-1.08301">
        <ele>50</ele>
        <time>2011-12-11T10:05:57Z</time>
      </trkpt>
      <trkpt lat="47.01207" lon="-1.08303">
        <ele>50</ele>
        <time>2011-12-11T10:05:59Z</time>
      </trkpt>
      <trkpt lat="47.01208" lon="-1.08303">
        <ele>50</ele>
        <time>2011-12-11T10:06:00Z</time>
      </trkpt>
      <trkpt lat="47.0121" lon="-1.08303">
        <ele>50</ele>
        <time>2011-12-11T10:06:02Z</time>
      </trkpt>
      <trkpt lat="47.01212" lon="-1.08303">
        <ele>49</ele>
        <time>2011-12-11T10:06:04Z</time>
      </trkpt>
      <trkpt lat="47.01213" lon="-1.08304">
        <ele>49</ele>
        <time>2011-12-11T10:06:06Z</time>
      </trkpt>
      <trkpt lat="47.01214" lon="-1.08304">
        <ele>49</ele>
        <time>2011-12-11T10:06:10Z</time>
      </trkpt>
      <trkpt lat="47.01214" lon="-1.08305">
        <ele>48</ele>
        <time>2011-12-11T10:06:25Z</time>
      </trkpt>
      <trkpt lat="47.01215" lon="-1.08307">
        <ele>48</ele>
        <time>2011-12-11T10:06:28Z</time>
      </trkpt>
      <trkpt lat="47.01216" lon="-1.08308">
        <ele>48</ele>
        <time>2011-12-11T10:06:31Z</time>
      </trkpt>
      <trkpt lat="47.01215" lon="-1.08307">
        <ele>48</ele>
        <time>2011-12-11T10:06:39Z</time>
      </trkpt>
      <trkpt lat="47.01217" lon="-1.08308">
        <ele>48</ele>
        <time>2011-12-11T10:06:43Z</time>
      </trkpt>
      <trkpt lat="47.01218" lon="-1.08306">
        <ele>48</ele>
        <time>2011-12-11T10:06:46Z</time>
      </trkpt>
      <trkpt lat="47.01218" lon="-1.08304">
        <ele>48</ele>
        <time>2011-12-11T10:06:50Z</time>
      </trkpt>
      <trkpt lat="47.01219" lon="-1.08302">
        <ele>48</ele>
        <time>2011-12-11T10:06:56Z</time>
      </trkpt>
      <trkpt lat="47.0122" lon="-1.08302">
        <ele>48</ele>
        <time>2011-12-11T10:07:01Z</time>
      </trkpt>
      <trkpt lat="47.01221" lon="-1.08301">
        <ele>48</ele>
        <time>2011-12-11T10:07:04Z</time>
      </trkpt>
      <trkpt lat="47.01223" lon="-1.08299">
        <ele>48</ele>
        <time>2011-12-11T10:07:06Z</time>
      </trkpt>
      <trkpt lat="47.01224" lon="-1.08299">
        <ele>48</ele>
        <time>2011-12-11T10:07:08Z</time>
      </trkpt>
      <trkpt lat="47.01226" lon="-1.08299">
        <ele>48</ele>
        <time>2011-12-11T10:07:10Z</time>
      </trkpt>
      <trkpt lat="47.01227" lon="-1.08299">
        <ele>48</ele>
        <time>2011-12-11T10:07:12Z</time>
      </trkpt>
      <trkpt lat="47.01229" lon="-1.08299">
        <ele>48</ele>
        <time>2011-12-11T10:07:14Z</time>
      </trkpt>
      <trkpt lat="47.01231" lon="-1.08299">
        <ele>48</ele>
        <time>2011-12-11T10:07:15Z</time>
      </trkpt>
      <trkpt lat="47.01233" lon="-1.083">
        <ele>48</ele>
        <time>2011-12-11T10:07:17Z</time>
      </trkpt>
      <trkpt lat="47.01234" lon="-1.08301">
        <ele>48</ele>
        <time>2011-12-11T10:07:19Z</time>
      </trkpt>
      <trkpt lat="47.01236" lon="-1.08301">
        <ele>48</ele>
        <time>2011-12-11T10:07:21Z</time>
      </trkpt>
      <trkpt lat="47.01238" lon="-1.08302">
        <ele>48</ele>
        <time>2011-12-11T10:07:23Z</time>
      </trkpt>
      <trkpt lat="47.0124" lon="-1.08303">
        <ele>48</ele>
        <time>2011-12-11T10:07:25Z</time>
      </trkpt>
      <trkpt lat="47.01242" lon="-1.08304">
        <ele>47</ele>
        <time>2011-12-11T10:07:27Z</time>
      </trkpt>
      <trkpt lat="47.01243" lon="-1.08306">
        <ele>47</ele>
        <time>2011-12-11T10:07:29Z</time>
      </trkpt>
      <trkpt lat="47.01244" lon="-1.08308">
        <ele>47</ele>
        <time>2011-12-11T10:07:31Z</time>
      </trkpt>
      <trkpt lat="47.01245" lon="-1.08309">
        <ele>47</ele>
        <time>2011-12-11T10:07:32Z</time>
      </trkpt>
      <trkpt lat="47.01245" lon="-1.08312">
        <ele>47</ele>
        <time>2011-12-11T10:07:34Z</time>
      </trkpt>
      <trkpt lat="47.01245" lon="-1.08315">
        <ele>47</ele>
        <time>2011-12-11T10:07:36Z</time>
      </trkpt>
      <trkpt lat="47.01246" lon="-1.08317">
        <ele>47</ele>
        <time>2011-12-11T10:07:37Z</time>
      </trkpt>
      <trkpt lat="47.01246" lon="-1.08318">
        <ele>47</ele>
        <time>2011-12-11T10:07:38Z</time>
      </trkpt>
      <trkpt lat="47.01246" lon="-1.0832">
        <ele>47</ele>
        <time>2011-12-11T10:07:39Z</time>
      </trkpt>
      <trkpt lat="47.01246" lon="-1.08322">
        <ele>47</ele>
        <time>2011-12-11T10:07:41Z</time>
      </trkpt>
      <trkpt lat="47.01245" lon="-1.08324">
        <ele>47</ele>
        <time>2011-12-11T10:07:42Z</time>
      </trkpt>
      <trkpt lat="47.01245" lon="-1.08325">
        <ele>47</ele>
        <time>2011-12-11T10:07:43Z</time>
      </trkpt>
      <trkpt lat="47.01245" lon="-1.08327">
        <ele>47</ele>
        <time>2011-12-11T10:07:44Z</time>
      </trkpt>
      <trkpt lat="47.01244" lon="-1.08328">
        <ele>47</ele>
        <time>2011-12-11T10:07:45Z</time>
      </trkpt>
      <trkpt lat="47.01244" lon="-1.0833">
        <ele>47</ele>
        <time>2011-12-11T10:07:47Z</time>
      </trkpt>
      <trkpt lat="47.01244" lon="-1.08332">
        <ele>47</ele>
        <time>2011-12-11T10:07:50Z</time>
      </trkpt>
      <trkpt lat="47.01244" lon="-1.08334">
        <ele>47</ele>
        <time>2011-12-11T10:07:55Z</time>
      </trkpt>
      <trkpt lat="47.01245" lon="-1.08335">
        <ele>47</ele>
        <time>2011-12-11T10:07:57Z</time>
      </trkpt>
      <trkpt lat="47.01246" lon="-1.08338">
        <ele>47</ele>
        <time>2011-12-11T10:07:59Z</time>
      </trkpt>
      <trkpt lat="47.01247" lon="-1.08341">
        <ele>47</ele>
        <time>2011-12-11T10:08:01Z</time>
      </trkpt>
      <trkpt lat="47.01247" lon="-1.08342">
        <ele>47</ele>
        <time>2011-12-11T10:08:02Z</time>
      </trkpt>
      <trkpt lat="47.01247" lon="-1.08344">
        <ele>47</ele>
        <time>2011-12-11T10:08:03Z</time>
      </trkpt>
      <trkpt lat="47.01248" lon="-1.08346">
        <ele>47</ele>
        <time>2011-12-11T10:08:05Z</time>
      </trkpt>
      <trkpt lat="47.01249" lon="-1.08348">
        <ele>47</ele>
        <time>2011-12-11T10:08:06Z</time>
      </trkpt>
      <trkpt lat="47.0125" lon="-1.0835">
        <ele>47</ele>
        <time>2011-12-11T10:08:08Z</time>
      </trkpt>
      <trkpt lat="47.01251" lon="-1.08352">
        <ele>47</ele>
        <time>2011-12-11T10:08:09Z</time>
      </trkpt>
      <trkpt lat="47.01251" lon="-1.08354">
        <ele>47</ele>
        <time>2011-12-11T10:08:10Z</time>
      </trkpt>
      <trkpt lat="47.01252" lon="-1.08356">
        <ele>47</ele>
        <time>2011-12-11T10:08:11Z</time>
      </trkpt>
      <trkpt lat="47.01253" lon="-1.08357">
        <ele>47</ele>
        <time>2011-12-11T10:08:13Z</time>
      </trkpt>
      <trkpt lat="47.01254" lon="-1.08361">
        <ele>47</ele>
        <time>2011-12-11T10:08:15Z</time>
      </trkpt>
      <trkpt lat="47.01255" lon="-1.08363">
        <ele>47</ele>
        <time>2011-12-11T10:08:17Z</time>
      </trkpt>
      <trkpt lat="47.01255" lon="-1.08365">
        <ele>47</ele>
        <time>2011-12-11T10:08:18Z</time>
      </trkpt>
      <trkpt lat="47.01256" lon="-1.08368">
        <ele>48</ele>
        <time>2011-12-11T10:08:20Z</time>
      </trkpt>
      <trkpt lat="47.01257" lon="-1.0837">
        <ele>48</ele>
        <time>2011-12-11T10:08:22Z</time>
      </trkpt>
      <trkpt lat="47.01258" lon="-1.08373">
        <ele>49</ele>
        <time>2011-12-11T10:08:24Z</time>
      </trkpt>
      <trkpt lat="47.0126" lon="-1.08374">
        <ele>49</ele>
        <time>2011-12-11T10:08:26Z</time>
      </trkpt>
      <trkpt lat="47.01261" lon="-1.08375">
        <ele>50</ele>
        <time>2011-12-11T10:08:30Z</time>
      </trkpt>
      <trkpt lat="47.0126" lon="-1.08377">
        <ele>51</ele>
        <time>2011-12-11T10:08:36Z</time>
      </trkpt>
      <trkpt lat="47.0126" lon="-1.08379">
        <ele>51</ele>
        <time>2011-12-11T10:08:38Z</time>
      </trkpt>
      <trkpt lat="47.0126" lon="-1.08381">
        <ele>51</ele>
        <time>2011-12-11T10:08:40Z</time>
      </trkpt>
      <trkpt lat="47.01259" lon="-1.08383">
        <ele>51</ele>
        <time>2011-12-11T10:08:42Z</time>
      </trkpt>
      <trkpt lat="47.01258" lon="-1.08384">
        <ele>51</ele>
        <time>2011-12-11T10:08:44Z</time>
      </trkpt>
      <trkpt lat="47.01257" lon="-1.08386">
        <ele>51</ele>
        <time>2011-12-11T10:08:46Z</time>
      </trkpt>
      <trkpt lat="47.01256" lon="-1.08387">
        <ele>52</ele>
        <time>2011-12-11T10:08:50Z</time>
      </trkpt>
      <trkpt lat="47.01255" lon="-1.08388">
        <ele>52</ele>
        <time>2011-12-11T10:08:52Z</time>
      </trkpt>
      <trkpt lat="47.01253" lon="-1.08391">
        <ele>52</ele>
        <time>2011-12-11T10:08:54Z</time>
      </trkpt>
      <trkpt lat="47.01251" lon="-1.08393">
        <ele>52</ele>
        <time>2011-12-11T10:08:56Z</time>
      </trkpt>
      <trkpt lat="47.0125" lon="-1.08396">
        <ele>52</ele>
        <time>2011-12-11T10:08:58Z</time>
      </trkpt>
      <trkpt lat="47.01248" lon="-1.08397">
        <ele>52</ele>
        <time>2011-12-11T10:09:01Z</time>
      </trkpt>
      <trkpt lat="47.01247" lon="-1.08398">
        <ele>52</ele>
        <time>2011-12-11T10:09:03Z</time>
      </trkpt>
      <trkpt lat="47.01245" lon="-1.08399">
        <ele>52</ele>
        <time>2011-12-11T10:09:05Z</time>
      </trkpt>
      <trkpt lat="47.01244" lon="-1.08401">
        <ele>52</ele>
        <time>2011-12-11T10:09:07Z</time>
      </trkpt>
      <trkpt lat="47.01243" lon="-1.08403">
        <ele>52</ele>
        <time>2011-12-11T10:09:09Z</time>
      </trkpt>
      <trkpt lat="47.01242" lon="-1.08404">
        <ele>52</ele>
        <time>2011-12-11T10:09:12Z</time>
      </trkpt>
      <trkpt lat="47.01241" lon="-1.08405">
        <ele>52</ele>
        <time>2011-12-11T10:09:14Z</time>
      </trkpt>
      <trkpt lat="47.01239" lon="-1.08407">
        <ele>52</ele>
        <time>2011-12-11T10:09:16Z</time>
      </trkpt>
      <trkpt lat="47.01237" lon="-1.08409">
        <ele>52</ele>
        <time>2011-12-11T10:09:18Z</time>
      </trkpt>
      <trkpt lat="47.01236" lon="-1.08412">
        <ele>52</ele>
        <time>2011-12-11T10:09:20Z</time>
      </trkpt>
      <trkpt lat="47.01235" lon="-1.08414">
        <ele>52</ele>
        <time>2011-12-11T10:09:22Z</time>
      </trkpt>
      <trkpt lat="47.01234" lon="-1.08417">
        <ele>52</ele>
        <time>2011-12-11T10:09:24Z</time>
      </trkpt>
      <trkpt lat="47.01234" lon="-1.08419">
        <ele>52</ele>
        <time>2011-12-11T10:09:26Z</time>
      </trkpt>
      <trkpt lat="47.01233" lon="-1.08422">
        <ele>51</ele>
        <time>2011-12-11T10:09:28Z</time>
      </trkpt>
      <trkpt lat="47.01232" lon="-1.08424">
        <ele>51</ele>
        <time>2011-12-11T10:09:30Z</time>
      </trkpt>
      <trkpt lat="47.01232" lon="-1.08426">
        <ele>50</ele>
        <time>2011-12-11T10:09:31Z</time>
      </trkpt>
      <trkpt lat="47.01231" lon="-1.08428">
        <ele>50</ele>
        <time>2011-12-11T10:09:32Z</time>
      </trkpt>
      <trkpt lat="47.01231" lon="-1.08429">
        <ele>50</ele>
        <time>2011-12-11T10:09:33Z</time>
      </trkpt>
      <trkpt lat="47.01231" lon="-1.08431">
        <ele>50</ele>
        <time>2011-12-11T10:09:34Z</time>
      </trkpt>
      <trkpt lat="47.0123" lon="-1.08433">
        <ele>50</ele>
        <time>2011-12-11T10:09:35Z</time>
      </trkpt>
      <trkpt lat="47.01229" lon="-1.08435">
        <ele>50</ele>
        <time>2011-12-11T10:09:36Z</time>
      </trkpt>
      <trkpt lat="47.01229" lon="-1.08437">
        <ele>50</ele>
        <time>2011-12-11T10:09:37Z</time>
      </trkpt>
      <trkpt lat="47.01229" lon="-1.08439">
        <ele>50</ele>
        <time>2011-12-11T10:09:38Z</time>
      </trkpt>
      <trkpt lat="47.01228" lon="-1.0844">
        <ele>50</ele>
        <time>2011-12-11T10:09:39Z</time>
      </trkpt>
      <trkpt lat="47.01228" lon="-1.08442">
        <ele>50</ele>
        <time>2011-12-11T10:09:40Z</time>
      </trkpt>
      <trkpt lat="47.01228" lon="-1.08444">
        <ele>50</ele>
        <time>2011-12-11T10:09:41Z</time>
      </trkpt>
      <trkpt lat="47.01227" lon="-1.08446">
        <ele>50</ele>
        <time>2011-12-11T10:09:42Z</time>
      </trkpt>
      <trkpt lat="47.01227" lon="-1.08447">
        <ele>50</ele>
        <time>2011-12-11T10:09:43Z</time>
      </trkpt>
      <trkpt lat="47.01227" lon="-1.08449">
        <ele>50</ele>
        <time>2011-12-11T10:09:44Z</time>
      </trkpt>
      <trkpt lat="47.01226" lon="-1.08451">
        <ele>50</ele>
        <time>2011-12-11T10:09:45Z</time>
      </trkpt>
      <trkpt lat="47.01226" lon="-1.08452">
        <ele>50</ele>
        <time>2011-12-11T10:09:46Z</time>
      </trkpt>
      <trkpt lat="47.01226" lon="-1.08454">
        <ele>50</ele>
        <time>2011-12-11T10:09:47Z</time>
      </trkpt>
      <trkpt lat="47.01226" lon="-1.08457">
        <ele>50</ele>
        <time>2011-12-11T10:09:49Z</time>
      </trkpt>
      <trkpt lat="47.01226" lon="-1.08458">
        <ele>50</ele>
        <time>2011-12-11T10:09:50Z</time>
      </trkpt>
      <trkpt lat="47.01226" lon="-1.08461">
        <ele>50</ele>
        <time>2011-12-11T10:09:51Z</time>
      </trkpt>
      <trkpt lat="47.01226" lon="-1.08462">
        <ele>50</ele>
        <time>2011-12-11T10:09:52Z</time>
      </trkpt>
      <trkpt lat="47.01226" lon="-1.08464">
        <ele>50</ele>
        <time>2011-12-11T10:09:53Z</time>
      </trkpt>
      <trkpt lat="47.01226" lon="-1.08465">
        <ele>50</ele>
        <time>2011-12-11T10:09:54Z</time>
      </trkpt>
      <trkpt lat="47.01227" lon="-1.08467">
        <ele>50</ele>
        <time>2011-12-11T10:09:55Z</time>
      </trkpt>
      <trkpt lat="47.01226" lon="-1.0847">
        <ele>50</ele>
        <time>2011-12-11T10:09:57Z</time>
      </trkpt>
      <trkpt lat="47.01226" lon="-1.08472">
        <ele>50</ele>
        <time>2011-12-11T10:09:58Z</time>
      </trkpt>
      <trkpt lat="47.01226" lon="-1.08474">
        <ele>50</ele>
        <time>2011-12-11T10:09:59Z</time>
      </trkpt>
      <trkpt lat="47.01226" lon="-1.08475">
        <ele>50</ele>
        <time>2011-12-11T10:10:00Z</time>
      </trkpt>
      <trkpt lat="47.01226" lon="-1.08477">
        <ele>50</ele>
        <time>2011-12-11T10:10:01Z</time>
      </trkpt>
      <trkpt lat="47.01226" lon="-1.08479">
        <ele>50</ele>
        <time>2011-12-11T10:10:02Z</time>
      </trkpt>
      <trkpt lat="47.01227" lon="-1.08481">
        <ele>50</ele>
        <time>2011-12-11T10:10:03Z</time>
      </trkpt>
      <trkpt lat="47.01227" lon="-1.08483">
        <ele>50</ele>
        <time>2011-12-11T10:10:04Z</time>
      </trkpt>
      <trkpt lat="47.01227" lon="-1.08485">
        <ele>50</ele>
        <time>2011-12-11T10:10:05Z</time>
      </trkpt>
      <trkpt lat="47.01228" lon="-1.08486">
        <ele>50</ele>
        <time>2011-12-11T10:10:06Z</time>
      </trkpt>
      <trkpt lat="47.01228" lon="-1.08489">
        <ele>50</ele>
        <time>2011-12-11T10:10:08Z</time>
      </trkpt>
      <trkpt lat="47.01228" lon="-1.08492">
        <ele>50</ele>
        <time>2011-12-11T10:10:09Z</time>
      </trkpt>
      <trkpt lat="47.01228" lon="-1.08494">
        <ele>50</ele>
        <time>2011-12-11T10:10:10Z</time>
      </trkpt>
      <trkpt lat="47.01229" lon="-1.08496">
        <ele>50</ele>
        <time>2011-12-11T10:10:11Z</time>
      </trkpt>
      <trkpt lat="47.0123" lon="-1.08498">
        <ele>50</ele>
        <time>2011-12-11T10:10:13Z</time>
      </trkpt>
      <trkpt lat="47.01231" lon="-1.085">
        <ele>50</ele>
        <time>2011-12-11T10:10:14Z</time>
      </trkpt>
      <trkpt lat="47.01231" lon="-1.08501">
        <ele>50</ele>
        <time>2011-12-11T10:10:15Z</time>
      </trkpt>
      <trkpt lat="47.01231" lon="-1.08503">
        <ele>50</ele>
        <time>2011-12-11T10:10:16Z</time>
      </trkpt>
      <trkpt lat="47.01232" lon="-1.08505">
        <ele>50</ele>
        <time>2011-12-11T10:10:17Z</time>
      </trkpt>
      <trkpt lat="47.01233" lon="-1.08507">
        <ele>50</ele>
        <time>2011-12-11T10:10:18Z</time>
      </trkpt>
      <trkpt lat="47.01234" lon="-1.08509">
        <ele>51</ele>
        <time>2011-12-11T10:10:20Z</time>
      </trkpt>
      <trkpt lat="47.01236" lon="-1.08511">
        <ele>51</ele>
        <time>2011-12-11T10:10:22Z</time>
      </trkpt>
      <trkpt lat="47.01238" lon="-1.08512">
        <ele>51</ele>
        <time>2011-12-11T10:10:24Z</time>
      </trkpt>
      <trkpt lat="47.01239" lon="-1.08516">
        <ele>51</ele>
        <time>2011-12-11T10:10:26Z</time>
      </trkpt>
      <trkpt lat="47.01241" lon="-1.08517">
        <ele>51</ele>
        <time>2011-12-11T10:10:28Z</time>
      </trkpt>
      <trkpt lat="47.01242" lon="-1.08518">
        <ele>51</ele>
        <time>2011-12-11T10:10:29Z</time>
      </trkpt>
      <trkpt lat="47.01243" lon="-1.08519">
        <ele>51</ele>
        <time>2011-12-11T10:10:30Z</time>
      </trkpt>
      <trkpt lat="47.01244" lon="-1.08521">
        <ele>51</ele>
        <time>2011-12-11T10:10:31Z</time>
      </trkpt>
      <trkpt lat="47.01245" lon="-1.08523">
        <ele>51</ele>
        <time>2011-12-11T10:10:32Z</time>
      </trkpt>
      <trkpt lat="47.01246" lon="-1.08525">
        <ele>51</ele>
        <time>2011-12-11T10:10:33Z</time>
      </trkpt>
      <trkpt lat="47.01248" lon="-1.08527">
        <ele>51</ele>
        <time>2011-12-11T10:10:35Z</time>
      </trkpt>
      <trkpt lat="47.01248" lon="-1.08529">
        <ele>52</ele>
        <time>2011-12-11T10:10:36Z</time>
      </trkpt>
      <trkpt lat="47.01249" lon="-1.08531">
        <ele>53</ele>
        <time>2011-12-11T10:10:38Z</time>
      </trkpt>
      <trkpt lat="47.01251" lon="-1.08532">
        <ele>53</ele>
        <time>2011-12-11T10:10:40Z</time>
      </trkpt>
      <trkpt lat="47.01253" lon="-1.08533">
        <ele>53</ele>
        <time>2011-12-11T10:10:42Z</time>
      </trkpt>
      <trkpt lat="47.01254" lon="-1.08535">
        <ele>54</ele>
        <time>2011-12-11T10:10:44Z</time>
      </trkpt>
      <trkpt lat="47.01254" lon="-1.08537">
        <ele>54</ele>
        <time>2011-12-11T10:10:46Z</time>
      </trkpt>
      <trkpt lat="47.01255" lon="-1.08538">
        <ele>54</ele>
        <time>2011-12-11T10:10:48Z</time>
      </trkpt>
      <trkpt lat="47.01256" lon="-1.0854">
        <ele>54</ele>
        <time>2011-12-11T10:10:50Z</time>
      </trkpt>
      <trkpt lat="47.01258" lon="-1.08541">
        <ele>54</ele>
        <time>2011-12-11T10:10:52Z</time>
      </trkpt>
      <trkpt lat="47.01259" lon="-1.08543">
        <ele>54</ele>
        <time>2011-12-11T10:10:54Z</time>
      </trkpt>
      <trkpt lat="47.0126" lon="-1.08545">
        <ele>54</ele>
        <time>2011-12-11T10:10:56Z</time>
      </trkpt>
      <trkpt lat="47.01262" lon="-1.08547">
        <ele>54</ele>
        <time>2011-12-11T10:10:58Z</time>
      </trkpt>
      <trkpt lat="47.01263" lon="-1.08549">
        <ele>54</ele>
        <time>2011-12-11T10:10:59Z</time>
      </trkpt>
      <trkpt lat="47.01264" lon="-1.08551">
        <ele>54</ele>
        <time>2011-12-11T10:11:01Z</time>
      </trkpt>
      <trkpt lat="47.01265" lon="-1.08554">
        <ele>54</ele>
        <time>2011-12-11T10:11:03Z</time>
      </trkpt>
      <trkpt lat="47.01266" lon="-1.08556">
        <ele>54</ele>
        <time>2011-12-11T10:11:04Z</time>
      </trkpt>
      <trkpt lat="47.01267" lon="-1.08557">
        <ele>54</ele>
        <time>2011-12-11T10:11:05Z</time>
      </trkpt>
      <trkpt lat="47.01268" lon="-1.0856">
        <ele>54</ele>
        <time>2011-12-11T10:11:07Z</time>
      </trkpt>
      <trkpt lat="47.0127" lon="-1.08563">
        <ele>54</ele>
        <time>2011-12-11T10:11:09Z</time>
      </trkpt>
      <trkpt lat="47.01271" lon="-1.08566">
        <ele>54</ele>
        <time>2011-12-11T10:11:11Z</time>
      </trkpt>
      <trkpt lat="47.01273" lon="-1.08568">
        <ele>54</ele>
        <time>2011-12-11T10:11:12Z</time>
      </trkpt>
      <trkpt lat="47.01273" lon="-1.0857">
        <ele>54</ele>
        <time>2011-12-11T10:11:13Z</time>
      </trkpt>
      <trkpt lat="47.01274" lon="-1.08572">
        <ele>54</ele>
        <time>2011-12-11T10:11:14Z</time>
      </trkpt>
      <trkpt lat="47.01275" lon="-1.08573">
        <ele>54</ele>
        <time>2011-12-11T10:11:15Z</time>
      </trkpt>
      <trkpt lat="47.01275" lon="-1.08576">
        <ele>54</ele>
        <time>2011-12-11T10:11:17Z</time>
      </trkpt>
      <trkpt lat="47.01276" lon="-1.08579">
        <ele>54</ele>
        <time>2011-12-11T10:11:19Z</time>
      </trkpt>
      <trkpt lat="47.01277" lon="-1.08581">
        <ele>54</ele>
        <time>2011-12-11T10:11:21Z</time>
      </trkpt>
      <trkpt lat="47.01278" lon="-1.08582">
        <ele>54</ele>
        <time>2011-12-11T10:11:22Z</time>
      </trkpt>
      <trkpt lat="47.01279" lon="-1.08585">
        <ele>54</ele>
        <time>2011-12-11T10:11:24Z</time>
      </trkpt>
      <trkpt lat="47.0128" lon="-1.08587">
        <ele>54</ele>
        <time>2011-12-11T10:11:26Z</time>
      </trkpt>
      <trkpt lat="47.01281" lon="-1.0859">
        <ele>54</ele>
        <time>2011-12-11T10:11:28Z</time>
      </trkpt>
      <trkpt lat="47.01281" lon="-1.08591">
        <ele>54</ele>
        <time>2011-12-11T10:11:29Z</time>
      </trkpt>
      <trkpt lat="47.01281" lon="-1.08594">
        <ele>54</ele>
        <time>2011-12-11T10:11:30Z</time>
      </trkpt>
      <trkpt lat="47.01283" lon="-1.08596">
        <ele>54</ele>
        <time>2011-12-11T10:11:32Z</time>
      </trkpt>
      <trkpt lat="47.01283" lon="-1.08598">
        <ele>54</ele>
        <time>2011-12-11T10:11:33Z</time>
      </trkpt>
      <trkpt lat="47.01284" lon="-1.086">
        <ele>54</ele>
        <time>2011-12-11T10:11:34Z</time>
      </trkpt>
      <trkpt lat="47.01284" lon="-1.08602">
        <ele>54</ele>
        <time>2011-12-11T10:11:35Z</time>
      </trkpt>
      <trkpt lat="47.01284" lon="-1.08605">
        <ele>54</ele>
        <time>2011-12-11T10:11:37Z</time>
      </trkpt>
      <trkpt lat="47.01284" lon="-1.08607">
        <ele>54</ele>
        <time>2011-12-11T10:11:38Z</time>
      </trkpt>
      <trkpt lat="47.01284" lon="-1.08608">
        <ele>53</ele>
        <time>2011-12-11T10:11:39Z</time>
      </trkpt>
      <trkpt lat="47.01284" lon="-1.0861">
        <ele>52</ele>
        <time>2011-12-11T10:11:40Z</time>
      </trkpt>
      <trkpt lat="47.01284" lon="-1.08612">
        <ele>52</ele>
        <time>2011-12-11T10:11:41Z</time>
      </trkpt>
      <trkpt lat="47.01284" lon="-1.08614">
        <ele>51</ele>
        <time>2011-12-11T10:11:42Z</time>
      </trkpt>
      <trkpt lat="47.01284" lon="-1.08616">
        <ele>51</ele>
        <time>2011-12-11T10:11:43Z</time>
      </trkpt>
      <trkpt lat="47.01284" lon="-1.08617">
        <ele>50</ele>
        <time>2011-12-11T10:11:44Z</time>
      </trkpt>
      <trkpt lat="47.01284" lon="-1.08619">
        <ele>50</ele>
        <time>2011-12-11T10:11:45Z</time>
      </trkpt>
      <trkpt lat="47.01285" lon="-1.08621">
        <ele>49</ele>
        <time>2011-12-11T10:11:46Z</time>
      </trkpt>
      <trkpt lat="47.01285" lon="-1.08623">
        <ele>49</ele>
        <time>2011-12-11T10:11:47Z</time>
      </trkpt>
      <trkpt lat="47.01286" lon="-1.08624">
        <ele>49</ele>
        <time>2011-12-11T10:11:48Z</time>
      </trkpt>
      <trkpt lat="47.01287" lon="-1.08627">
        <ele>48</ele>
        <time>2011-12-11T10:11:50Z</time>
      </trkpt>
      <trkpt lat="47.01287" lon="-1.08629">
        <ele>48</ele>
        <time>2011-12-11T10:11:51Z</time>
      </trkpt>
      <trkpt lat="47.01287" lon="-1.08631">
        <ele>48</ele>
        <time>2011-12-11T10:11:52Z</time>
      </trkpt>
      <trkpt lat="47.01287" lon="-1.08633">
        <ele>48</ele>
        <time>2011-12-11T10:11:54Z</time>
      </trkpt>
      <trkpt lat="47.01288" lon="-1.08634">
        <ele>48</ele>
        <time>2011-12-11T10:11:56Z</time>
      </trkpt>
      <trkpt lat="47.01289" lon="-1.08635">
        <ele>48</ele>
        <time>2011-12-11T10:12:00Z</time>
      </trkpt>
      <trkpt lat="47.01291" lon="-1.08636">
        <ele>48</ele>
        <time>2011-12-11T10:12:04Z</time>
      </trkpt>
      <trkpt lat="47.01292" lon="-1.08637">
        <ele>48</ele>
        <time>2011-12-11T10:12:06Z</time>
      </trkpt>
      <trkpt lat="47.01291" lon="-1.08636">
        <ele>48</ele>
        <time>2011-12-11T10:12:09Z</time>
      </trkpt>
      <trkpt lat="47.01289" lon="-1.08634">
        <ele>48</ele>
        <time>2011-12-11T10:12:11Z</time>
      </trkpt>
      <trkpt lat="47.01288" lon="-1.08635">
        <ele>48</ele>
        <time>2011-12-11T10:12:20Z</time>
      </trkpt>
      <trkpt lat="47.01287" lon="-1.08635">
        <ele>48</ele>
        <time>2011-12-11T10:12:29Z</time>
      </trkpt>
      <trkpt lat="47.01286" lon="-1.08634">
        <ele>48</ele>
        <time>2011-12-11T10:12:32Z</time>
      </trkpt>
      <trkpt lat="47.01287" lon="-1.08634">
        <ele>48</ele>
        <time>2011-12-11T10:12:48Z</time>
      </trkpt>
      <trkpt lat="47.01288" lon="-1.08634">
        <ele>48</ele>
        <time>2011-12-11T10:12:49Z</time>
      </trkpt>
      <trkpt lat="47.0129" lon="-1.08635">
        <ele>48</ele>
        <time>2011-12-11T10:12:51Z</time>
      </trkpt>
      <trkpt lat="47.01291" lon="-1.08634">
        <ele>48</ele>
        <time>2011-12-11T10:13:02Z</time>
      </trkpt>
      <trkpt lat="47.01292" lon="-1.08634">
        <ele>48</ele>
        <time>2011-12-11T10:13:04Z</time>
      </trkpt>
      <trkpt lat="47.01292" lon="-1.08635">
        <ele>48</ele>
        <time>2011-12-11T10:13:16Z</time>
      </trkpt>
      <trkpt lat="47.0129" lon="-1.08635">
        <ele>48</ele>
        <time>2011-12-11T10:13:18Z</time>
      </trkpt>
      <trkpt lat="47.01289" lon="-1.08634">
        <ele>47</ele>
        <time>2011-12-11T10:13:31Z</time>
      </trkpt>
      <trkpt lat="47.01287" lon="-1.08635">
        <ele>46</ele>
        <time>2011-12-11T10:13:33Z</time>
      </trkpt>
      <trkpt lat="47.01289" lon="-1.08635">
        <ele>46</ele>
        <time>2011-12-11T10:13:41Z</time>
      </trkpt>
      <trkpt lat="47.01291" lon="-1.08636">
        <ele>46</ele>
        <time>2011-12-11T10:13:43Z</time>
      </trkpt>
      <trkpt lat="47.01293" lon="-1.08637">
        <ele>46</ele>
        <time>2011-12-11T10:13:45Z</time>
      </trkpt>
      <trkpt lat="47.01295" lon="-1.08639">
        <ele>46</ele>
        <time>2011-12-11T10:13:47Z</time>
      </trkpt>
      <trkpt lat="47.01297" lon="-1.08641">
        <ele>46</ele>
        <time>2011-12-11T10:13:49Z</time>
      </trkpt>
      <trkpt lat="47.01299" lon="-1.08643">
        <ele>46</ele>
        <time>2011-12-11T10:13:51Z</time>
      </trkpt>
      <trkpt lat="47.013" lon="-1.08644">
        <ele>46</ele>
        <time>2011-12-11T10:13:52Z</time>
      </trkpt>
      <trkpt lat="47.01301" lon="-1.08646">
        <ele>46</ele>
        <time>2011-12-11T10:13:54Z</time>
      </trkpt>
      <trkpt lat="47.01303" lon="-1.08648">
        <ele>46</ele>
        <time>2011-12-11T10:13:56Z</time>
      </trkpt>
      <trkpt lat="47.01305" lon="-1.0865">
        <ele>46</ele>
        <time>2011-12-11T10:13:58Z</time>
      </trkpt>
      <trkpt lat="47.01307" lon="-1.08652">
        <ele>46</ele>
        <time>2011-12-11T10:14:00Z</time>
      </trkpt>
      <trkpt lat="47.01308" lon="-1.08654">
        <ele>46</ele>
        <time>2011-12-11T10:14:02Z</time>
      </trkpt>
      <trkpt lat="47.0131" lon="-1.08656">
        <ele>46</ele>
        <time>2011-12-11T10:14:04Z</time>
      </trkpt>
      <trkpt lat="47.01311" lon="-1.08657">
        <ele>46</ele>
        <time>2011-12-11T10:14:06Z</time>
      </trkpt>
      <trkpt lat="47.01313" lon="-1.0866">
        <ele>46</ele>
        <time>2011-12-11T10:14:08Z</time>
      </trkpt>
      <trkpt lat="47.01314" lon="-1.08662">
        <ele>46</ele>
        <time>2011-12-11T10:14:10Z</time>
      </trkpt>
      <trkpt lat="47.01315" lon="-1.08665">
        <ele>45</ele>
        <time>2011-12-11T10:14:12Z</time>
      </trkpt>
      <trkpt lat="47.01316" lon="-1.08667">
        <ele>45</ele>
        <time>2011-12-11T10:14:13Z</time>
      </trkpt>
      <trkpt lat="47.01317" lon="-1.08669">
        <ele>45</ele>
        <time>2011-12-11T10:14:15Z</time>
      </trkpt>
      <trkpt lat="47.01318" lon="-1.08672">
        <ele>45</ele>
        <time>2011-12-11T10:14:17Z</time>
      </trkpt>
      <trkpt lat="47.01319" lon="-1.08675">
        <ele>45</ele>
        <time>2011-12-11T10:14:19Z</time>
      </trkpt>
      <trkpt lat="47.01321" lon="-1.08677">
        <ele>45</ele>
        <time>2011-12-11T10:14:21Z</time>
      </trkpt>
      <trkpt lat="47.01322" lon="-1.08679">
        <ele>45</ele>
        <time>2011-12-11T10:14:23Z</time>
      </trkpt>
      <trkpt lat="47.01324" lon="-1.08682">
        <ele>45</ele>
        <time>2011-12-11T10:14:25Z</time>
      </trkpt>
      <trkpt lat="47.01326" lon="-1.08684">
        <ele>44</ele>
        <time>2011-12-11T10:14:27Z</time>
      </trkpt>
      <trkpt lat="47.01327" lon="-1.08686">
        <ele>44</ele>
        <time>2011-12-11T10:14:29Z</time>
      </trkpt>
      <trkpt lat="47.01329" lon="-1.08687">
        <ele>44</ele>
        <time>2011-12-11T10:14:31Z</time>
      </trkpt>
      <trkpt lat="47.01332" lon="-1.08688">
        <ele>44</ele>
        <time>2011-12-11T10:14:33Z</time>
      </trkpt>
      <trkpt lat="47.01334" lon="-1.0869">
        <ele>43</ele>
        <time>2011-12-11T10:14:35Z</time>
      </trkpt>
      <trkpt lat="47.01336" lon="-1.08691">
        <ele>43</ele>
        <time>2011-12-11T10:14:37Z</time>
      </trkpt>
      <trkpt lat="47.01338" lon="-1.08693">
        <ele>42</ele>
        <time>2011-12-11T10:14:39Z</time>
      </trkpt>
      <trkpt lat="47.01339" lon="-1.08694">
        <ele>42</ele>
        <time>2011-12-11T10:14:40Z</time>
      </trkpt>
      <trkpt lat="47.0134" lon="-1.08696">
        <ele>42</ele>
        <time>2011-12-11T10:14:42Z</time>
      </trkpt>
      <trkpt lat="47.01342" lon="-1.08698">
        <ele>42</ele>
        <time>2011-12-11T10:14:44Z</time>
      </trkpt>
      <trkpt lat="47.01344" lon="-1.08701">
        <ele>42</ele>
        <time>2011-12-11T10:14:46Z</time>
      </trkpt>
      <trkpt lat="47.01345" lon="-1.08703">
        <ele>42</ele>
        <time>2011-12-11T10:14:48Z</time>
      </trkpt>
      <trkpt lat="47.01347" lon="-1.08705">
        <ele>42</ele>
        <time>2011-12-11T10:14:50Z</time>
      </trkpt>
      <trkpt lat="47.01349" lon="-1.08708">
        <ele>42</ele>
        <time>2011-12-11T10:14:52Z</time>
      </trkpt>
      <trkpt lat="47.0135" lon="-1.0871">
        <ele>42</ele>
        <time>2011-12-11T10:14:54Z</time>
      </trkpt>
      <trkpt lat="47.01352" lon="-1.08712">
        <ele>41</ele>
        <time>2011-12-11T10:14:56Z</time>
      </trkpt>
      <trkpt lat="47.01354" lon="-1.08714">
        <ele>41</ele>
        <time>2011-12-11T10:14:58Z</time>
      </trkpt>
      <trkpt lat="47.01355" lon="-1.08716">
        <ele>41</ele>
        <time>2011-12-11T10:15:00Z</time>
      </trkpt>
      <trkpt lat="47.01356" lon="-1.08718">
        <ele>41</ele>
        <time>2011-12-11T10:15:01Z</time>
      </trkpt>
      <trkpt lat="47.01357" lon="-1.08721">
        <ele>41</ele>
        <time>2011-12-11T10:15:03Z</time>
      </trkpt>
      <trkpt lat="47.01358" lon="-1.08722">
        <ele>41</ele>
        <time>2011-12-11T10:15:04Z</time>
      </trkpt>
      <trkpt lat="47.0136" lon="-1.08725">
        <ele>41</ele>
        <time>2011-12-11T10:15:06Z</time>
      </trkpt>
      <trkpt lat="47.01362" lon="-1.08727">
        <ele>41</ele>
        <time>2011-12-11T10:15:08Z</time>
      </trkpt>
      <trkpt lat="47.01363" lon="-1.08729">
        <ele>41</ele>
        <time>2011-12-11T10:15:10Z</time>
      </trkpt>
      <trkpt lat="47.01365" lon="-1.08731">
        <ele>41</ele>
        <time>2011-12-11T10:15:12Z</time>
      </trkpt>
      <trkpt lat="47.01366" lon="-1.08734">
        <ele>41</ele>
        <time>2011-12-11T10:15:14Z</time>
      </trkpt>
      <trkpt lat="47.01367" lon="-1.08736">
        <ele>41</ele>
        <time>2011-12-11T10:15:16Z</time>
      </trkpt>
      <trkpt lat="47.01368" lon="-1.08738">
        <ele>41</ele>
        <time>2011-12-11T10:15:17Z</time>
      </trkpt>
      <trkpt lat="47.0137" lon="-1.0874">
        <ele>41</ele>
        <time>2011-12-11T10:15:19Z</time>
      </trkpt>
      <trkpt lat="47.01372" lon="-1.08741">
        <ele>41</ele>
        <time>2011-12-11T10:15:21Z</time>
      </trkpt>
      <trkpt lat="47.01374" lon="-1.08742">
        <ele>41</ele>
        <time>2011-12-11T10:15:23Z</time>
      </trkpt>
      <trkpt lat="47.01376" lon="-1.08743">
        <ele>41</ele>
        <time>2011-12-11T10:15:25Z</time>
      </trkpt>
      <trkpt lat="47.01378" lon="-1.08744">
        <ele>41</ele>
        <time>2011-12-11T10:15:27Z</time>
      </trkpt>
      <trkpt lat="47.0138" lon="-1.08745">
        <ele>41</ele>
        <time>2011-12-11T10:15:29Z</time>
      </trkpt>
      <trkpt lat="47.01382" lon="-1.08746">
        <ele>41</ele>
        <time>2011-12-11T10:15:31Z</time>
      </trkpt>
      <trkpt lat="47.01384" lon="-1.08748">
        <ele>41</ele>
        <time>2011-12-11T10:15:33Z</time>
      </trkpt>
      <trkpt lat="47.01385" lon="-1.08748">
        <ele>41</ele>
        <time>2011-12-11T10:15:34Z</time>
      </trkpt>
      <trkpt lat="47.01387" lon="-1.08749">
        <ele>40</ele>
        <time>2011-12-11T10:15:36Z</time>
      </trkpt>
      <trkpt lat="47.01389" lon="-1.0875">
        <ele>40</ele>
        <time>2011-12-11T10:15:38Z</time>
      </trkpt>
      <trkpt lat="47.01391" lon="-1.08753">
        <ele>40</ele>
        <time>2011-12-11T10:15:40Z</time>
      </trkpt>
      <trkpt lat="47.01392" lon="-1.08753">
        <ele>40</ele>
        <time>2011-12-11T10:15:41Z</time>
      </trkpt>
      <trkpt lat="47.01394" lon="-1.08756">
        <ele>40</ele>
        <time>2011-12-11T10:15:43Z</time>
      </trkpt>
      <trkpt lat="47.01396" lon="-1.08758">
        <ele>40</ele>
        <time>2011-12-11T10:15:45Z</time>
      </trkpt>
      <trkpt lat="47.01398" lon="-1.08762">
        <ele>40</ele>
        <time>2011-12-11T10:15:47Z</time>
      </trkpt>
      <trkpt lat="47.01398" lon="-1.08763">
        <ele>40</ele>
        <time>2011-12-11T10:15:48Z</time>
      </trkpt>
      <trkpt lat="47.014" lon="-1.08765">
        <ele>40</ele>
        <time>2011-12-11T10:15:50Z</time>
      </trkpt>
      <trkpt lat="47.014" lon="-1.08767">
        <ele>40</ele>
        <time>2011-12-11T10:15:51Z</time>
      </trkpt>
      <trkpt lat="47.01401" lon="-1.08769">
        <ele>40</ele>
        <time>2011-12-11T10:15:52Z</time>
      </trkpt>
      <trkpt lat="47.01403" lon="-1.08771">
        <ele>40</ele>
        <time>2011-12-11T10:15:54Z</time>
      </trkpt>
      <trkpt lat="47.01404" lon="-1.08773">
        <ele>40</ele>
        <time>2011-12-11T10:15:56Z</time>
      </trkpt>
      <trkpt lat="47.01405" lon="-1.08775">
        <ele>40</ele>
        <time>2011-12-11T10:15:58Z</time>
      </trkpt>
      <trkpt lat="47.01406" lon="-1.08777">
        <ele>40</ele>
        <time>2011-12-11T10:16:00Z</time>
      </trkpt>
      <trkpt lat="47.01408" lon="-1.08778">
        <ele>40</ele>
        <time>2011-12-11T10:16:02Z</time>
      </trkpt>
      <trkpt lat="47.0141" lon="-1.0878">
        <ele>40</ele>
        <time>2011-12-11T10:16:04Z</time>
      </trkpt>
      <trkpt lat="47.01411" lon="-1.08782">
        <ele>40</ele>
        <time>2011-12-11T10:16:06Z</time>
      </trkpt>
      <trkpt lat="47.01413" lon="-1.08784">
        <ele>40</ele>
        <time>2011-12-11T10:16:08Z</time>
      </trkpt>
      <trkpt lat="47.01413" lon="-1.08786">
        <ele>40</ele>
        <time>2011-12-11T10:16:09Z</time>
      </trkpt>
      <trkpt lat="47.01414" lon="-1.08788">
        <ele>40</ele>
        <time>2011-12-11T10:16:10Z</time>
      </trkpt>
      <trkpt lat="47.01416" lon="-1.08791">
        <ele>40</ele>
        <time>2011-12-11T10:16:12Z</time>
      </trkpt>
      <trkpt lat="47.01417" lon="-1.08793">
        <ele>40</ele>
        <time>2011-12-11T10:16:13Z</time>
      </trkpt>
      <trkpt lat="47.01418" lon="-1.08795">
        <ele>40</ele>
        <time>2011-12-11T10:16:15Z</time>
      </trkpt>
      <trkpt lat="47.0142" lon="-1.08796">
        <ele>40</ele>
        <time>2011-12-11T10:16:17Z</time>
      </trkpt>
      <trkpt lat="47.01421" lon="-1.08798">
        <ele>40</ele>
        <time>2011-12-11T10:16:19Z</time>
      </trkpt>
      <trkpt lat="47.01423" lon="-1.08799">
        <ele>40</ele>
        <time>2011-12-11T10:16:21Z</time>
      </trkpt>
      <trkpt lat="47.01425" lon="-1.08801">
        <ele>40</ele>
        <time>2011-12-11T10:16:23Z</time>
      </trkpt>
      <trkpt lat="47.01427" lon="-1.08803">
        <ele>40</ele>
        <time>2011-12-11T10:16:25Z</time>
      </trkpt>
      <trkpt lat="47.01429" lon="-1.08806">
        <ele>40</ele>
        <time>2011-12-11T10:16:27Z</time>
      </trkpt>
      <trkpt lat="47.0143" lon="-1.08807">
        <ele>40</ele>
        <time>2011-12-11T10:16:29Z</time>
      </trkpt>
      <trkpt lat="47.01432" lon="-1.08809">
        <ele>40</ele>
        <time>2011-12-11T10:16:31Z</time>
      </trkpt>
      <trkpt lat="47.01434" lon="-1.0881">
        <ele>40</ele>
        <time>2011-12-11T10:16:33Z</time>
      </trkpt>
      <trkpt lat="47.01435" lon="-1.08812">
        <ele>40</ele>
        <time>2011-12-11T10:16:35Z</time>
      </trkpt>
      <trkpt lat="47.01437" lon="-1.08815">
        <ele>40</ele>
        <time>2011-12-11T10:16:37Z</time>
      </trkpt>
      <trkpt lat="47.01438" lon="-1.08817">
        <ele>40</ele>
        <time>2011-12-11T10:16:38Z</time>
      </trkpt>
      <trkpt lat="47.01439" lon="-1.08819">
        <ele>40</ele>
        <time>2011-12-11T10:16:39Z</time>
      </trkpt>
      <trkpt lat="47.0144" lon="-1.08821">
        <ele>40</ele>
        <time>2011-12-11T10:16:41Z</time>
      </trkpt>
      <trkpt lat="47.01441" lon="-1.08824">
        <ele>40</ele>
        <time>2011-12-11T10:16:42Z</time>
      </trkpt>
      <trkpt lat="47.01442" lon="-1.08825">
        <ele>40</ele>
        <time>2011-12-11T10:16:43Z</time>
      </trkpt>
      <trkpt lat="47.01443" lon="-1.08827">
        <ele>40</ele>
        <time>2011-12-11T10:16:45Z</time>
      </trkpt>
      <trkpt lat="47.01445" lon="-1.08828">
        <ele>40</ele>
        <time>2011-12-11T10:16:47Z</time>
      </trkpt>
      <trkpt lat="47.01447" lon="-1.0883">
        <ele>40</ele>
        <time>2011-12-11T10:16:49Z</time>
      </trkpt>
      <trkpt lat="47.01448" lon="-1.08834">
        <ele>40</ele>
        <time>2011-12-11T10:16:51Z</time>
      </trkpt>
      <trkpt lat="47.0145" lon="-1.08835">
        <ele>40</ele>
        <time>2011-12-11T10:16:53Z</time>
      </trkpt>
      <trkpt lat="47.01451" lon="-1.08838">
        <ele>40</ele>
        <time>2011-12-11T10:16:55Z</time>
      </trkpt>
      <trkpt lat="47.01453" lon="-1.08838">
        <ele>41</ele>
        <time>2011-12-11T10:16:57Z</time>
      </trkpt>
      <trkpt lat="47.01455" lon="-1.08839">
        <ele>42</ele>
        <time>2011-12-11T10:16:59Z</time>
      </trkpt>
      <trkpt lat="47.01456" lon="-1.0884">
        <ele>42</ele>
        <time>2011-12-11T10:17:01Z</time>
      </trkpt>
      <trkpt lat="47.01458" lon="-1.08841">
        <ele>42</ele>
        <time>2011-12-11T10:17:03Z</time>
      </trkpt>
      <trkpt lat="47.01459" lon="-1.08843">
        <ele>42</ele>
        <time>2011-12-11T10:17:05Z</time>
      </trkpt>
      <trkpt lat="47.01461" lon="-1.08845">
        <ele>42</ele>
        <time>2011-12-11T10:17:07Z</time>
      </trkpt>
      <trkpt lat="47.01462" lon="-1.08847">
        <ele>42</ele>
        <time>2011-12-11T10:17:08Z</time>
      </trkpt>
      <trkpt lat="47.01463" lon="-1.08849">
        <ele>42</ele>
        <time>2011-12-11T10:17:09Z</time>
      </trkpt>
      <trkpt lat="47.01464" lon="-1.0885">
        <ele>42</ele>
        <time>2011-12-11T10:17:10Z</time>
      </trkpt>
      <trkpt lat="47.01465" lon="-1.08852">
        <ele>42</ele>
        <time>2011-12-11T10:17:12Z</time>
      </trkpt>
      <trkpt lat="47.01466" lon="-1.08853">
        <ele>43</ele>
        <time>2011-12-11T10:17:13Z</time>
      </trkpt>
      <trkpt lat="47.01468" lon="-1.08856">
        <ele>43</ele>
        <time>2011-12-11T10:17:15Z</time>
      </trkpt>
      <trkpt lat="47.01468" lon="-1.08858">
        <ele>43</ele>
        <time>2011-12-11T10:17:16Z</time>
      </trkpt>
      <trkpt lat="47.01469" lon="-1.08861">
        <ele>43</ele>
        <time>2011-12-11T10:17:18Z</time>
      </trkpt>
      <trkpt lat="47.01469" lon="-1.08862">
        <ele>43</ele>
        <time>2011-12-11T10:17:19Z</time>
      </trkpt>
      <trkpt lat="47.0147" lon="-1.08864">
        <ele>43</ele>
        <time>2011-12-11T10:17:20Z</time>
      </trkpt>
      <trkpt lat="47.01471" lon="-1.08865">
        <ele>43</ele>
        <time>2011-12-11T10:17:21Z</time>
      </trkpt>
      <trkpt lat="47.01471" lon="-1.08867">
        <ele>43</ele>
        <time>2011-12-11T10:17:22Z</time>
      </trkpt>
      <trkpt lat="47.01473" lon="-1.0887">
        <ele>43</ele>
        <time>2011-12-11T10:17:24Z</time>
      </trkpt>
      <trkpt lat="47.01474" lon="-1.08872">
        <ele>43</ele>
        <time>2011-12-11T10:17:26Z</time>
      </trkpt>
      <trkpt lat="47.01475" lon="-1.08875">
        <ele>43</ele>
        <time>2011-12-11T10:17:28Z</time>
      </trkpt>
      <trkpt lat="47.01476" lon="-1.08877">
        <ele>43</ele>
        <time>2011-12-11T10:17:29Z</time>
      </trkpt>
      <trkpt lat="47.01476" lon="-1.08878">
        <ele>43</ele>
        <time>2011-12-11T10:17:30Z</time>
      </trkpt>
      <trkpt lat="47.01478" lon="-1.08881">
        <ele>43</ele>
        <time>2011-12-11T10:17:32Z</time>
      </trkpt>
      <trkpt lat="47.01478" lon="-1.08883">
        <ele>43</ele>
        <time>2011-12-11T10:17:33Z</time>
      </trkpt>
      <trkpt lat="47.01479" lon="-1.08885">
        <ele>43</ele>
        <time>2011-12-11T10:17:34Z</time>
      </trkpt>
      <trkpt lat="47.01479" lon="-1.08886">
        <ele>43</ele>
        <time>2011-12-11T10:17:35Z</time>
      </trkpt>
      <trkpt lat="47.01479" lon="-1.08888">
        <ele>43</ele>
        <time>2011-12-11T10:17:36Z</time>
      </trkpt>
      <trkpt lat="47.01481" lon="-1.08891">
        <ele>43</ele>
        <time>2011-12-11T10:17:38Z</time>
      </trkpt>
      <trkpt lat="47.01481" lon="-1.08892">
        <ele>43</ele>
        <time>2011-12-11T10:17:39Z</time>
      </trkpt>
      <trkpt lat="47.01482" lon="-1.08894">
        <ele>43</ele>
        <time>2011-12-11T10:17:40Z</time>
      </trkpt>
      <trkpt lat="47.01484" lon="-1.08896">
        <ele>43</ele>
        <time>2011-12-11T10:17:41Z</time>
      </trkpt>
      <trkpt lat="47.01485" lon="-1.08898">
        <ele>43</ele>
        <time>2011-12-11T10:17:43Z</time>
      </trkpt>
      <trkpt lat="47.01486" lon="-1.089">
        <ele>43</ele>
        <time>2011-12-11T10:17:44Z</time>
      </trkpt>
      <trkpt lat="47.01488" lon="-1.08902">
        <ele>43</ele>
        <time>2011-12-11T10:17:46Z</time>
      </trkpt>
      <trkpt lat="47.01489" lon="-1.08904">
        <ele>43</ele>
        <time>2011-12-11T10:17:48Z</time>
      </trkpt>
      <trkpt lat="47.01491" lon="-1.08906">
        <ele>43</ele>
        <time>2011-12-11T10:17:50Z</time>
      </trkpt>
      <trkpt lat="47.01493" lon="-1.08908">
        <ele>43</ele>
        <time>2011-12-11T10:17:52Z</time>
      </trkpt>
      <trkpt lat="47.01495" lon="-1.0891">
        <ele>43</ele>
        <time>2011-12-11T10:17:54Z</time>
      </trkpt>
      <trkpt lat="47.01497" lon="-1.08912">
        <ele>43</ele>
        <time>2011-12-11T10:17:56Z</time>
      </trkpt>
      <trkpt lat="47.01498" lon="-1.08913">
        <ele>43</ele>
        <time>2011-12-11T10:17:58Z</time>
      </trkpt>
      <trkpt lat="47.015" lon="-1.08915">
        <ele>42</ele>
        <time>2011-12-11T10:18:00Z</time>
      </trkpt>
      <trkpt lat="47.01502" lon="-1.08917">
        <ele>42</ele>
        <time>2011-12-11T10:18:02Z</time>
      </trkpt>
      <trkpt lat="47.01503" lon="-1.08919">
        <ele>42</ele>
        <time>2011-12-11T10:18:03Z</time>
      </trkpt>
      <trkpt lat="47.01505" lon="-1.08922">
        <ele>42</ele>
        <time>2011-12-11T10:18:05Z</time>
      </trkpt>
      <trkpt lat="47.01506" lon="-1.08924">
        <ele>42</ele>
        <time>2011-12-11T10:18:06Z</time>
      </trkpt>
      <trkpt lat="47.01507" lon="-1.08925">
        <ele>42</ele>
        <time>2011-12-11T10:18:07Z</time>
      </trkpt>
      <trkpt lat="47.01508" lon="-1.08927">
        <ele>42</ele>
        <time>2011-12-11T10:18:08Z</time>
      </trkpt>
      <trkpt lat="47.01509" lon="-1.08928">
        <ele>42</ele>
        <time>2011-12-11T10:18:09Z</time>
      </trkpt>
      <trkpt lat="47.0151" lon="-1.0893">
        <ele>42</ele>
        <time>2011-12-11T10:18:10Z</time>
      </trkpt>
      <trkpt lat="47.01511" lon="-1.08932">
        <ele>42</ele>
        <time>2011-12-11T10:18:12Z</time>
      </trkpt>
      <trkpt lat="47.01512" lon="-1.08934">
        <ele>42</ele>
        <time>2011-12-11T10:18:13Z</time>
      </trkpt>
      <trkpt lat="47.01513" lon="-1.08935">
        <ele>42</ele>
        <time>2011-12-11T10:18:14Z</time>
      </trkpt>
      <trkpt lat="47.01514" lon="-1.08937">
        <ele>42</ele>
        <time>2011-12-11T10:18:15Z</time>
      </trkpt>
      <trkpt lat="47.01515" lon="-1.08939">
        <ele>42</ele>
        <time>2011-12-11T10:18:16Z</time>
      </trkpt>
      <trkpt lat="47.01516" lon="-1.0894">
        <ele>42</ele>
        <time>2011-12-11T10:18:17Z</time>
      </trkpt>
      <trkpt lat="47.01517" lon="-1.08942">
        <ele>42</ele>
        <time>2011-12-11T10:18:18Z</time>
      </trkpt>
      <trkpt lat="47.01518" lon="-1.08944">
        <ele>42</ele>
        <time>2011-12-11T10:18:19Z</time>
      </trkpt>
      <trkpt lat="47.01519" lon="-1.08946">
        <ele>42</ele>
        <time>2011-12-11T10:18:20Z</time>
      </trkpt>
      <trkpt lat="47.0152" lon="-1.08948">
        <ele>42</ele>
        <time>2011-12-11T10:18:21Z</time>
      </trkpt>
      <trkpt lat="47.01521" lon="-1.0895">
        <ele>42</ele>
        <time>2011-12-11T10:18:22Z</time>
      </trkpt>
      <trkpt lat="47.01521" lon="-1.08951">
        <ele>42</ele>
        <time>2011-12-11T10:18:23Z</time>
      </trkpt>
      <trkpt lat="47.01522" lon="-1.08953">
        <ele>42</ele>
        <time>2011-12-11T10:18:24Z</time>
      </trkpt>
      <trkpt lat="47.01522" lon="-1.08955">
        <ele>42</ele>
        <time>2011-12-11T10:18:25Z</time>
      </trkpt>
      <trkpt lat="47.01523" lon="-1.08957">
        <ele>42</ele>
        <time>2011-12-11T10:18:26Z</time>
      </trkpt>
      <trkpt lat="47.01524" lon="-1.08959">
        <ele>42</ele>
        <time>2011-12-11T10:18:27Z</time>
      </trkpt>
      <trkpt lat="47.01524" lon="-1.0896">
        <ele>42</ele>
        <time>2011-12-11T10:18:28Z</time>
      </trkpt>
      <trkpt lat="47.01525" lon="-1.08962">
        <ele>42</ele>
        <time>2011-12-11T10:18:29Z</time>
      </trkpt>
      <trkpt lat="47.01526" lon="-1.08964">
        <ele>42</ele>
        <time>2011-12-11T10:18:30Z</time>
      </trkpt>
      <trkpt lat="47.01527" lon="-1.08965">
        <ele>42</ele>
        <time>2011-12-11T10:18:31Z</time>
      </trkpt>
      <trkpt lat="47.01527" lon="-1.08967">
        <ele>42</ele>
        <time>2011-12-11T10:18:32Z</time>
      </trkpt>
      <trkpt lat="47.01529" lon="-1.08969">
        <ele>42</ele>
        <time>2011-12-11T10:18:34Z</time>
      </trkpt>
      <trkpt lat="47.0153" lon="-1.08972">
        <ele>42</ele>
        <time>2011-12-11T10:18:36Z</time>
      </trkpt>
      <trkpt lat="47.01532" lon="-1.08974">
        <ele>42</ele>
        <time>2011-12-11T10:18:38Z</time>
      </trkpt>
      <trkpt lat="47.01534" lon="-1.08976">
        <ele>42</ele>
        <time>2011-12-11T10:18:40Z</time>
      </trkpt>
      <trkpt lat="47.01535" lon="-1.08978">
        <ele>42</ele>
        <time>2011-12-11T10:18:41Z</time>
      </trkpt>
      <trkpt lat="47.01537" lon="-1.08981">
        <ele>42</ele>
        <time>2011-12-11T10:18:43Z</time>
      </trkpt>
      <trkpt lat="47.01539" lon="-1.08983">
        <ele>42</ele>
        <time>2011-12-11T10:18:45Z</time>
      </trkpt>
      <trkpt lat="47.0154" lon="-1.08985">
        <ele>42</ele>
        <time>2011-12-11T10:18:47Z</time>
      </trkpt>
      <trkpt lat="47.01542" lon="-1.08987">
        <ele>42</ele>
        <time>2011-12-11T10:18:49Z</time>
      </trkpt>
      <trkpt lat="47.01543" lon="-1.0899">
        <ele>42</ele>
        <time>2011-12-11T10:18:51Z</time>
      </trkpt>
      <trkpt lat="47.01545" lon="-1.08992">
        <ele>42</ele>
        <time>2011-12-11T10:18:53Z</time>
      </trkpt>
      <trkpt lat="47.01546" lon="-1.08995">
        <ele>42</ele>
        <time>2011-12-11T10:18:55Z</time>
      </trkpt>
      <trkpt lat="47.01547" lon="-1.08997">
        <ele>42</ele>
        <time>2011-12-11T10:18:56Z</time>
      </trkpt>
      <trkpt lat="47.01548" lon="-1.08999">
        <ele>42</ele>
        <time>2011-12-11T10:18:57Z</time>
      </trkpt>
      <trkpt lat="47.0155" lon="-1.09001">
        <ele>42</ele>
        <time>2011-12-11T10:18:59Z</time>
      </trkpt>
      <trkpt lat="47.01551" lon="-1.09002">
        <ele>42</ele>
        <time>2011-12-11T10:19:01Z</time>
      </trkpt>
      <trkpt lat="47.01553" lon="-1.09004">
        <ele>42</ele>
        <time>2011-12-11T10:19:03Z</time>
      </trkpt>
      <trkpt lat="47.01555" lon="-1.09004">
        <ele>42</ele>
        <time>2011-12-11T10:19:05Z</time>
      </trkpt>
      <trkpt lat="47.01557" lon="-1.09005">
        <ele>42</ele>
        <time>2011-12-11T10:19:07Z</time>
      </trkpt>
      <trkpt lat="47.01558" lon="-1.09005">
        <ele>42</ele>
        <time>2011-12-11T10:19:08Z</time>
      </trkpt>
      <trkpt lat="47.01559" lon="-1.09006">
        <ele>42</ele>
        <time>2011-12-11T10:19:09Z</time>
      </trkpt>
      <trkpt lat="47.0156" lon="-1.09009">
        <ele>42</ele>
        <time>2011-12-11T10:19:10Z</time>
      </trkpt>
      <trkpt lat="47.01562" lon="-1.09009">
        <ele>43</ele>
        <time>2011-12-11T10:19:12Z</time>
      </trkpt>
      <trkpt lat="47.01563" lon="-1.0901">
        <ele>43</ele>
        <time>2011-12-11T10:19:13Z</time>
      </trkpt>
      <trkpt lat="47.01565" lon="-1.09011">
        <ele>44</ele>
        <time>2011-12-11T10:19:15Z</time>
      </trkpt>
      <trkpt lat="47.01566" lon="-1.09012">
        <ele>45</ele>
        <time>2011-12-11T10:19:17Z</time>
      </trkpt>
      <trkpt lat="47.01568" lon="-1.09012">
        <ele>46</ele>
        <time>2011-12-11T10:19:19Z</time>
      </trkpt>
      <trkpt lat="47.0157" lon="-1.09012">
        <ele>47</ele>
        <time>2011-12-11T10:19:21Z</time>
      </trkpt>
      <trkpt lat="47.01571" lon="-1.09011">
        <ele>47</ele>
        <time>2011-12-11T10:19:23Z</time>
      </trkpt>
      <trkpt lat="47.01572" lon="-1.0901">
        <ele>47</ele>
        <time>2011-12-11T10:19:25Z</time>
      </trkpt>
      <trkpt lat="47.01574" lon="-1.09008">
        <ele>47</ele>
        <time>2011-12-11T10:19:27Z</time>
      </trkpt>
      <trkpt lat="47.01575" lon="-1.09006">
        <ele>47</ele>
        <time>2011-12-11T10:19:29Z</time>
      </trkpt>
      <trkpt lat="47.01577" lon="-1.09005">
        <ele>47</ele>
        <time>2011-12-11T10:19:31Z</time>
      </trkpt>
      <trkpt lat="47.01579" lon="-1.09003">
        <ele>48</ele>
        <time>2011-12-11T10:19:33Z</time>
      </trkpt>
      <trkpt lat="47.01581" lon="-1.09001">
        <ele>48</ele>
        <time>2011-12-11T10:19:34Z</time>
      </trkpt>
      <trkpt lat="47.01582" lon="-1.08999">
        <ele>49</ele>
        <time>2011-12-11T10:19:36Z</time>
      </trkpt>
      <trkpt lat="47.01582" lon="-1.08996">
        <ele>49</ele>
        <time>2011-12-11T10:19:38Z</time>
      </trkpt>
      <trkpt lat="47.01582" lon="-1.08995">
        <ele>49</ele>
        <time>2011-12-11T10:19:39Z</time>
      </trkpt>
      <trkpt lat="47.01582" lon="-1.08993">
        <ele>50</ele>
        <time>2011-12-11T10:19:40Z</time>
      </trkpt>
      <trkpt lat="47.01582" lon="-1.08992">
        <ele>50</ele>
        <time>2011-12-11T10:19:41Z</time>
      </trkpt>
      <trkpt lat="47.01582" lon="-1.0899">
        <ele>50</ele>
        <time>2011-12-11T10:19:42Z</time>
      </trkpt>
      <trkpt lat="47.01582" lon="-1.08988">
        <ele>50</ele>
        <time>2011-12-11T10:19:43Z</time>
      </trkpt>
      <trkpt lat="47.01582" lon="-1.08986">
        <ele>50</ele>
        <time>2011-12-11T10:19:45Z</time>
      </trkpt>
      <trkpt lat="47.01581" lon="-1.08984">
        <ele>50</ele>
        <time>2011-12-11T10:19:47Z</time>
      </trkpt>
      <trkpt lat="47.0158" lon="-1.08982">
        <ele>50</ele>
        <time>2011-12-11T10:19:49Z</time>
      </trkpt>
      <trkpt lat="47.01581" lon="-1.08979">
        <ele>51</ele>
        <time>2011-12-11T10:19:51Z</time>
      </trkpt>
      <trkpt lat="47.01581" lon="-1.08977">
        <ele>51</ele>
        <time>2011-12-11T10:19:52Z</time>
      </trkpt>
      <trkpt lat="47.01581" lon="-1.08976">
        <ele>51</ele>
        <time>2011-12-11T10:19:53Z</time>
      </trkpt>
      <trkpt lat="47.01581" lon="-1.08974">
        <ele>51</ele>
        <time>2011-12-11T10:19:54Z</time>
      </trkpt>
      <trkpt lat="47.01581" lon="-1.08972">
        <ele>51</ele>
        <time>2011-12-11T10:19:55Z</time>
      </trkpt>
      <trkpt lat="47.01581" lon="-1.08969">
        <ele>51</ele>
        <time>2011-12-11T10:19:57Z</time>
      </trkpt>
      <trkpt lat="47.01581" lon="-1.08968">
        <ele>51</ele>
        <time>2011-12-11T10:19:58Z</time>
      </trkpt>
      <trkpt lat="47.01581" lon="-1.08966">
        <ele>51</ele>
        <time>2011-12-11T10:19:59Z</time>
      </trkpt>
      <trkpt lat="47.01581" lon="-1.08965">
        <ele>51</ele>
        <time>2011-12-11T10:20:00Z</time>
      </trkpt>
      <trkpt lat="47.01581" lon="-1.08963">
        <ele>51</ele>
        <time>2011-12-11T10:20:01Z</time>
      </trkpt>
      <trkpt lat="47.0158" lon="-1.0896">
        <ele>51</ele>
        <time>2011-12-11T10:20:03Z</time>
      </trkpt>
      <trkpt lat="47.0158" lon="-1.08957">
        <ele>51</ele>
        <time>2011-12-11T10:20:05Z</time>
      </trkpt>
      <trkpt lat="47.01579" lon="-1.08954">
        <ele>51</ele>
        <time>2011-12-11T10:20:07Z</time>
      </trkpt>
      <trkpt lat="47.01579" lon="-1.08952">
        <ele>51</ele>
        <time>2011-12-11T10:20:09Z</time>
      </trkpt>
      <trkpt lat="47.01577" lon="-1.0895">
        <ele>51</ele>
        <time>2011-12-11T10:20:11Z</time>
      </trkpt>
      <trkpt lat="47.01577" lon="-1.08948">
        <ele>51</ele>
        <time>2011-12-11T10:20:13Z</time>
      </trkpt>
      <trkpt lat="47.01577" lon="-1.08946">
        <ele>51</ele>
        <time>2011-12-11T10:20:15Z</time>
      </trkpt>
      <trkpt lat="47.01576" lon="-1.08944">
        <ele>51</ele>
        <time>2011-12-11T10:20:16Z</time>
      </trkpt>
      <trkpt lat="47.01576" lon="-1.08942">
        <ele>51</ele>
        <time>2011-12-11T10:20:17Z</time>
      </trkpt>
      <trkpt lat="47.01575" lon="-1.0894">
        <ele>51</ele>
        <time>2011-12-11T10:20:18Z</time>
      </trkpt>
      <trkpt lat="47.01575" lon="-1.08938">
        <ele>51</ele>
        <time>2011-12-11T10:20:19Z</time>
      </trkpt>
      <trkpt lat="47.01575" lon="-1.08935">
        <ele>51</ele>
        <time>2011-12-11T10:20:21Z</time>
      </trkpt>
      <trkpt lat="47.01574" lon="-1.08933">
        <ele>51</ele>
        <time>2011-12-11T10:20:23Z</time>
      </trkpt>
      <trkpt lat="47.01574" lon="-1.08931">
        <ele>51</ele>
        <time>2011-12-11T10:20:24Z</time>
      </trkpt>
      <trkpt lat="47.01574" lon="-1.08929">
        <ele>51</ele>
        <time>2011-12-11T10:20:25Z</time>
      </trkpt>
      <trkpt lat="47.01574" lon="-1.08927">
        <ele>51</ele>
        <time>2011-12-11T10:20:26Z</time>
      </trkpt>
      <trkpt lat="47.01574" lon="-1.08925">
        <ele>51</ele>
        <time>2011-12-11T10:20:27Z</time>
      </trkpt>
      <trkpt lat="47.01574" lon="-1.08923">
        <ele>51</ele>
        <time>2011-12-11T10:20:28Z</time>
      </trkpt>
      <trkpt lat="47.01574" lon="-1.08921">
        <ele>51</ele>
        <time>2011-12-11T10:20:29Z</time>
      </trkpt>
      <trkpt lat="47.01574" lon="-1.08919">
        <ele>51</ele>
        <time>2011-12-11T10:20:30Z</time>
      </trkpt>
      <trkpt lat="47.01574" lon="-1.08917">
        <ele>52</ele>
        <time>2011-12-11T10:20:31Z</time>
      </trkpt>
      <trkpt lat="47.01574" lon="-1.08915">
        <ele>52</ele>
        <time>2011-12-11T10:20:32Z</time>
      </trkpt>
      <trkpt lat="47.01574" lon="-1.08913">
        <ele>52</ele>
        <time>2011-12-11T10:20:33Z</time>
      </trkpt>
      <trkpt lat="47.01573" lon="-1.08911">
        <ele>52</ele>
        <time>2011-12-11T10:20:34Z</time>
      </trkpt>
      <trkpt lat="47.01573" lon="-1.08909">
        <ele>52</ele>
        <time>2011-12-11T10:20:35Z</time>
      </trkpt>
      <trkpt lat="47.01573" lon="-1.08908">
        <ele>52</ele>
        <time>2011-12-11T10:20:36Z</time>
      </trkpt>
      <trkpt lat="47.01574" lon="-1.08906">
        <ele>52</ele>
        <time>2011-12-11T10:20:37Z</time>
      </trkpt>
      <trkpt lat="47.01574" lon="-1.08904">
        <ele>53</ele>
        <time>2011-12-11T10:20:38Z</time>
      </trkpt>
      <trkpt lat="47.01574" lon="-1.08902">
        <ele>53</ele>
        <time>2011-12-11T10:20:39Z</time>
      </trkpt>
      <trkpt lat="47.01574" lon="-1.089">
        <ele>53</ele>
        <time>2011-12-11T10:20:40Z</time>
      </trkpt>
      <trkpt lat="47.01574" lon="-1.08898">
        <ele>54</ele>
        <time>2011-12-11T10:20:41Z</time>
      </trkpt>
      <trkpt lat="47.01574" lon="-1.08897">
        <ele>54</ele>
        <time>2011-12-11T10:20:42Z</time>
      </trkpt>
      <trkpt lat="47.01574" lon="-1.08895">
        <ele>54</ele>
        <time>2011-12-11T10:20:43Z</time>
      </trkpt>
      <trkpt lat="47.01574" lon="-1.08893">
        <ele>54</ele>
        <time>2011-12-11T10:20:44Z</time>
      </trkpt>
      <trkpt lat="47.01574" lon="-1.08892">
        <ele>54</ele>
        <time>2011-12-11T10:20:45Z</time>
      </trkpt>
      <trkpt lat="47.01574" lon="-1.0889">
        <ele>54</ele>
        <time>2011-12-11T10:20:46Z</time>
      </trkpt>
      <trkpt lat="47.01573" lon="-1.08888">
        <ele>54</ele>
        <time>2011-12-11T10:20:47Z</time>
      </trkpt>
      <trkpt lat="47.01573" lon="-1.08887">
        <ele>55</ele>
        <time>2011-12-11T10:20:48Z</time>
      </trkpt>
      <trkpt lat="47.01574" lon="-1.08885">
        <ele>55</ele>
        <time>2011-12-11T10:20:49Z</time>
      </trkpt>
      <trkpt lat="47.01573" lon="-1.08882">
        <ele>55</ele>
        <time>2011-12-11T10:20:51Z</time>
      </trkpt>
      <trkpt lat="47.01573" lon="-1.0888">
        <ele>55</ele>
        <time>2011-12-11T10:20:52Z</time>
      </trkpt>
      <trkpt lat="47.01573" lon="-1.08878">
        <ele>55</ele>
        <time>2011-12-11T10:20:54Z</time>
      </trkpt>
      <trkpt lat="47.01573" lon="-1.08876">
        <ele>55</ele>
        <time>2011-12-11T10:20:56Z</time>
      </trkpt>
      <trkpt lat="47.01573" lon="-1.08874">
        <ele>55</ele>
        <time>2011-12-11T10:20:58Z</time>
      </trkpt>
      <trkpt lat="47.01573" lon="-1.08871">
        <ele>56</ele>
        <time>2011-12-11T10:21:00Z</time>
      </trkpt>
      <trkpt lat="47.01573" lon="-1.08868">
        <ele>56</ele>
        <time>2011-12-11T10:21:02Z</time>
      </trkpt>
      <trkpt lat="47.01573" lon="-1.08867">
        <ele>56</ele>
        <time>2011-12-11T10:21:03Z</time>
      </trkpt>
      <trkpt lat="47.01573" lon="-1.08864">
        <ele>56</ele>
        <time>2011-12-11T10:21:04Z</time>
      </trkpt>
      <trkpt lat="47.01573" lon="-1.08863">
        <ele>56</ele>
        <time>2011-12-11T10:21:05Z</time>
      </trkpt>
      <trkpt lat="47.01573" lon="-1.08861">
        <ele>57</ele>
        <time>2011-12-11T10:21:06Z</time>
      </trkpt>
      <trkpt lat="47.01574" lon="-1.08859">
        <ele>57</ele>
        <time>2011-12-11T10:21:07Z</time>
      </trkpt>
      <trkpt lat="47.01574" lon="-1.08858">
        <ele>57</ele>
        <time>2011-12-11T10:21:08Z</time>
      </trkpt>
      <trkpt lat="47.01574" lon="-1.08856">
        <ele>57</ele>
        <time>2011-12-11T10:21:09Z</time>
      </trkpt>
      <trkpt lat="47.01574" lon="-1.08854">
        <ele>57</ele>
        <time>2011-12-11T10:21:10Z</time>
      </trkpt>
      <trkpt lat="47.01574" lon="-1.08852">
        <ele>57</ele>
        <time>2011-12-11T10:21:12Z</time>
      </trkpt>
      <trkpt lat="47.01574" lon="-1.0885">
        <ele>57</ele>
        <time>2011-12-11T10:21:13Z</time>
      </trkpt>
      <trkpt lat="47.01574" lon="-1.08848">
        <ele>58</ele>
        <time>2011-12-11T10:21:14Z</time>
      </trkpt>
      <trkpt lat="47.01574" lon="-1.08846">
        <ele>58</ele>
        <time>2011-12-11T10:21:15Z</time>
      </trkpt>
      <trkpt lat="47.01574" lon="-1.08844">
        <ele>58</ele>
        <time>2011-12-11T10:21:16Z</time>
      </trkpt>
      <trkpt lat="47.01574" lon="-1.08842">
        <ele>58</ele>
        <time>2011-12-11T10:21:17Z</time>
      </trkpt>
      <trkpt lat="47.01574" lon="-1.08841">
        <ele>58</ele>
        <time>2011-12-11T10:21:18Z</time>
      </trkpt>
      <trkpt lat="47.01575" lon="-1.08839">
        <ele>59</ele>
        <time>2011-12-11T10:21:20Z</time>
      </trkpt>
      <trkpt lat="47.01575" lon="-1.08836">
        <ele>59</ele>
        <time>2011-12-11T10:21:22Z</time>
      </trkpt>
      <trkpt lat="47.01575" lon="-1.08835">
        <ele>59</ele>
        <time>2011-12-11T10:21:23Z</time>
      </trkpt>
      <trkpt lat="47.01575" lon="-1.08833">
        <ele>59</ele>
        <time>2011-12-11T10:21:24Z</time>
      </trkpt>
      <trkpt lat="47.01575" lon="-1.08831">
        <ele>59</ele>
        <time>2011-12-11T10:21:25Z</time>
      </trkpt>
      <trkpt lat="47.01575" lon="-1.08829">
        <ele>59</ele>
        <time>2011-12-11T10:21:26Z</time>
      </trkpt>
      <trkpt lat="47.01575" lon="-1.08827">
        <ele>59</ele>
        <time>2011-12-11T10:21:27Z</time>
      </trkpt>
      <trkpt lat="47.01575" lon="-1.08825">
        <ele>59</ele>
        <time>2011-12-11T10:21:28Z</time>
      </trkpt>
      <trkpt lat="47.01575" lon="-1.08824">
        <ele>59</ele>
        <time>2011-12-11T10:21:29Z</time>
      </trkpt>
      <trkpt lat="47.01575" lon="-1.08821">
        <ele>59</ele>
        <time>2011-12-11T10:21:30Z</time>
      </trkpt>
      <trkpt lat="47.01575" lon="-1.08819">
        <ele>59</ele>
        <time>2011-12-11T10:21:31Z</time>
      </trkpt>
      <trkpt lat="47.01575" lon="-1.08818">
        <ele>59</ele>
        <time>2011-12-11T10:21:32Z</time>
      </trkpt>
      <trkpt lat="47.01575" lon="-1.08816">
        <ele>59</ele>
        <time>2011-12-11T10:21:33Z</time>
      </trkpt>
      <trkpt lat="47.01575" lon="-1.08815">
        <ele>59</ele>
        <time>2011-12-11T10:21:34Z</time>
      </trkpt>
      <trkpt lat="47.01575" lon="-1.08813">
        <ele>59</ele>
        <time>2011-12-11T10:21:35Z</time>
      </trkpt>
      <trkpt lat="47.01575" lon="-1.08811">
        <ele>60</ele>
        <time>2011-12-11T10:21:36Z</time>
      </trkpt>
      <trkpt lat="47.01575" lon="-1.08809">
        <ele>60</ele>
        <time>2011-12-11T10:21:37Z</time>
      </trkpt>
      <trkpt lat="47.01575" lon="-1.08807">
        <ele>60</ele>
        <time>2011-12-11T10:21:38Z</time>
      </trkpt>
      <trkpt lat="47.01575" lon="-1.08806">
        <ele>60</ele>
        <time>2011-12-11T10:21:39Z</time>
      </trkpt>
      <trkpt lat="47.01575" lon="-1.08803">
        <ele>60</ele>
        <time>2011-12-11T10:21:41Z</time>
      </trkpt>
      <trkpt lat="47.01575" lon="-1.08801">
        <ele>60</ele>
        <time>2011-12-11T10:21:42Z</time>
      </trkpt>
      <trkpt lat="47.01575" lon="-1.088">
        <ele>61</ele>
        <time>2011-12-11T10:21:43Z</time>
      </trkpt>
      <trkpt lat="47.01575" lon="-1.08798">
        <ele>61</ele>
        <time>2011-12-11T10:21:44Z</time>
      </trkpt>
      <trkpt lat="47.01575" lon="-1.08796">
        <ele>61</ele>
        <time>2011-12-11T10:21:45Z</time>
      </trkpt>
      <trkpt lat="47.01575" lon="-1.08794">
        <ele>61</ele>
        <time>2011-12-11T10:21:46Z</time>
      </trkpt>
      <trkpt lat="47.01575" lon="-1.08792">
        <ele>61</ele>
        <time>2011-12-11T10:21:47Z</time>
      </trkpt>
      <trkpt lat="47.01575" lon="-1.08791">
        <ele>61</ele>
        <time>2011-12-11T10:21:48Z</time>
      </trkpt>
      <trkpt lat="47.01575" lon="-1.08789">
        <ele>61</ele>
        <time>2011-12-11T10:21:49Z</time>
      </trkpt>
      <trkpt lat="47.01575" lon="-1.08787">
        <ele>61</ele>
        <time>2011-12-11T10:21:50Z</time>
      </trkpt>
      <trkpt lat="47.01575" lon="-1.08785">
        <ele>61</ele>
        <time>2011-12-11T10:21:51Z</time>
      </trkpt>
      <trkpt lat="47.01575" lon="-1.08783">
        <ele>61</ele>
        <time>2011-12-11T10:21:52Z</time>
      </trkpt>
      <trkpt lat="47.01575" lon="-1.08781">
        <ele>61</ele>
        <time>2011-12-11T10:21:53Z</time>
      </trkpt>
      <trkpt lat="47.01575" lon="-1.0878">
        <ele>61</ele>
        <time>2011-12-11T10:21:54Z</time>
      </trkpt>
      <trkpt lat="47.01575" lon="-1.08778">
        <ele>61</ele>
        <time>2011-12-11T10:21:55Z</time>
      </trkpt>
      <trkpt lat="47.01575" lon="-1.08776">
        <ele>61</ele>
        <time>2011-12-11T10:21:56Z</time>
      </trkpt>
      <trkpt lat="47.01575" lon="-1.08774">
        <ele>61</ele>
        <time>2011-12-11T10:21:57Z</time>
      </trkpt>
      <trkpt lat="47.01574" lon="-1.08772">
        <ele>61</ele>
        <time>2011-12-11T10:21:58Z</time>
      </trkpt>
      <trkpt lat="47.01574" lon="-1.08771">
        <ele>62</ele>
        <time>2011-12-11T10:21:59Z</time>
      </trkpt>
      <trkpt lat="47.01574" lon="-1.08769">
        <ele>62</ele>
        <time>2011-12-11T10:22:00Z</time>
      </trkpt>
      <trkpt lat="47.01574" lon="-1.08767">
        <ele>62</ele>
        <time>2011-12-11T10:22:01Z</time>
      </trkpt>
      <trkpt lat="47.01574" lon="-1.08765">
        <ele>62</ele>
        <time>2011-12-11T10:22:02Z</time>
      </trkpt>
      <trkpt lat="47.01574" lon="-1.08764">
        <ele>62</ele>
        <time>2011-12-11T10:22:03Z</time>
      </trkpt>
      <trkpt lat="47.01574" lon="-1.08762">
        <ele>63</ele>
        <time>2011-12-11T10:22:04Z</time>
      </trkpt>
      <trkpt lat="47.01574" lon="-1.08759">
        <ele>63</ele>
        <time>2011-12-11T10:22:05Z</time>
      </trkpt>
      <trkpt lat="47.01574" lon="-1.08757">
        <ele>63</ele>
        <time>2011-12-11T10:22:06Z</time>
      </trkpt>
      <trkpt lat="47.01574" lon="-1.08755">
        <ele>64</ele>
        <time>2011-12-11T10:22:07Z</time>
      </trkpt>
      <trkpt lat="47.01575" lon="-1.08753">
        <ele>64</ele>
        <time>2011-12-11T10:22:08Z</time>
      </trkpt>
      <trkpt lat="47.01575" lon="-1.08752">
        <ele>64</ele>
        <time>2011-12-11T10:22:09Z</time>
      </trkpt>
      <trkpt lat="47.01574" lon="-1.0875">
        <ele>65</ele>
        <time>2011-12-11T10:22:10Z</time>
      </trkpt>
      <trkpt lat="47.01574" lon="-1.08748">
        <ele>65</ele>
        <time>2011-12-11T10:22:11Z</time>
      </trkpt>
      <trkpt lat="47.01574" lon="-1.08746">
        <ele>65</ele>
        <time>2011-12-11T10:22:12Z</time>
      </trkpt>
      <trkpt lat="47.01574" lon="-1.08744">
        <ele>65</ele>
        <time>2011-12-11T10:22:13Z</time>
      </trkpt>
      <trkpt lat="47.01574" lon="-1.08742">
        <ele>65</ele>
        <time>2011-12-11T10:22:14Z</time>
      </trkpt>
      <trkpt lat="47.01574" lon="-1.08741">
        <ele>66</ele>
        <time>2011-12-11T10:22:15Z</time>
      </trkpt>
      <trkpt lat="47.01573" lon="-1.08739">
        <ele>66</ele>
        <time>2011-12-11T10:22:16Z</time>
      </trkpt>
      <trkpt lat="47.01573" lon="-1.08737">
        <ele>66</ele>
        <time>2011-12-11T10:22:17Z</time>
      </trkpt>
      <trkpt lat="47.01573" lon="-1.08735">
        <ele>66</ele>
        <time>2011-12-11T10:22:18Z</time>
      </trkpt>
      <trkpt lat="47.01572" lon="-1.08734">
        <ele>66</ele>
        <time>2011-12-11T10:22:19Z</time>
      </trkpt>
      <trkpt lat="47.01572" lon="-1.08732">
        <ele>66</ele>
        <time>2011-12-11T10:22:20Z</time>
      </trkpt>
      <trkpt lat="47.01572" lon="-1.0873">
        <ele>66</ele>
        <time>2011-12-11T10:22:21Z</time>
      </trkpt>
      <trkpt lat="47.01572" lon="-1.08728">
        <ele>66</ele>
        <time>2011-12-11T10:22:22Z</time>
      </trkpt>
      <trkpt lat="47.01571" lon="-1.08727">
        <ele>67</ele>
        <time>2011-12-11T10:22:23Z</time>
      </trkpt>
      <trkpt lat="47.01571" lon="-1.08725">
        <ele>67</ele>
        <time>2011-12-11T10:22:24Z</time>
      </trkpt>
      <trkpt lat="47.01571" lon="-1.08723">
        <ele>67</ele>
        <time>2011-12-11T10:22:25Z</time>
      </trkpt>
      <trkpt lat="47.01571" lon="-1.08721">
        <ele>67</ele>
        <time>2011-12-11T10:22:26Z</time>
      </trkpt>
      <trkpt lat="47.01571" lon="-1.0872">
        <ele>67</ele>
        <time>2011-12-11T10:22:27Z</time>
      </trkpt>
      <trkpt lat="47.01571" lon="-1.08718">
        <ele>67</ele>
        <time>2011-12-11T10:22:28Z</time>
      </trkpt>
      <trkpt lat="47.01571" lon="-1.08715">
        <ele>68</ele>
        <time>2011-12-11T10:22:29Z</time>
      </trkpt>
      <trkpt lat="47.01571" lon="-1.08713">
        <ele>68</ele>
        <time>2011-12-11T10:22:30Z</time>
      </trkpt>
      <trkpt lat="47.0157" lon="-1.08711">
        <ele>68</ele>
        <time>2011-12-11T10:22:31Z</time>
      </trkpt>
      <trkpt lat="47.0157" lon="-1.08709">
        <ele>69</ele>
        <time>2011-12-11T10:22:32Z</time>
      </trkpt>
      <trkpt lat="47.0157" lon="-1.08707">
        <ele>69</ele>
        <time>2011-12-11T10:22:33Z</time>
      </trkpt>
      <trkpt lat="47.0157" lon="-1.08705">
        <ele>69</ele>
        <time>2011-12-11T10:22:34Z</time>
      </trkpt>
      <trkpt lat="47.01569" lon="-1.08704">
        <ele>69</ele>
        <time>2011-12-11T10:22:35Z</time>
      </trkpt>
      <trkpt lat="47.01569" lon="-1.08702">
        <ele>70</ele>
        <time>2011-12-11T10:22:36Z</time>
      </trkpt>
      <trkpt lat="47.01569" lon="-1.08701">
        <ele>70</ele>
        <time>2011-12-11T10:22:37Z</time>
      </trkpt>
      <trkpt lat="47.01568" lon="-1.08699">
        <ele>70</ele>
        <time>2011-12-11T10:22:38Z</time>
      </trkpt>
      <trkpt lat="47.01568" lon="-1.08697">
        <ele>70</ele>
        <time>2011-12-11T10:22:39Z</time>
      </trkpt>
      <trkpt lat="47.01567" lon="-1.08695">
        <ele>70</ele>
        <time>2011-12-11T10:22:40Z</time>
      </trkpt>
      <trkpt lat="47.01567" lon="-1.08694">
        <ele>70</ele>
        <time>2011-12-11T10:22:41Z</time>
      </trkpt>
      <trkpt lat="47.01567" lon="-1.08692">
        <ele>70</ele>
        <time>2011-12-11T10:22:42Z</time>
      </trkpt>
      <trkpt lat="47.01567" lon="-1.08691">
        <ele>70</ele>
        <time>2011-12-11T10:22:43Z</time>
      </trkpt>
      <trkpt lat="47.01566" lon="-1.08689">
        <ele>70</ele>
        <time>2011-12-11T10:22:44Z</time>
      </trkpt>
      <trkpt lat="47.01566" lon="-1.08687">
        <ele>70</ele>
        <time>2011-12-11T10:22:45Z</time>
      </trkpt>
      <trkpt lat="47.01566" lon="-1.08685">
        <ele>70</ele>
        <time>2011-12-11T10:22:46Z</time>
      </trkpt>
      <trkpt lat="47.01566" lon="-1.08684">
        <ele>70</ele>
        <time>2011-12-11T10:22:47Z</time>
      </trkpt>
      <trkpt lat="47.01566" lon="-1.08682">
        <ele>70</ele>
        <time>2011-12-11T10:22:48Z</time>
      </trkpt>
      <trkpt lat="47.01566" lon="-1.08681">
        <ele>70</ele>
        <time>2011-12-11T10:22:49Z</time>
      </trkpt>
      <trkpt lat="47.01566" lon="-1.08679">
        <ele>70</ele>
        <time>2011-12-11T10:22:50Z</time>
      </trkpt>
      <trkpt lat="47.01566" lon="-1.08678">
        <ele>70</ele>
        <time>2011-12-11T10:22:51Z</time>
      </trkpt>
      <trkpt lat="47.01565" lon="-1.08676">
        <ele>70</ele>
        <time>2011-12-11T10:22:52Z</time>
      </trkpt>
      <trkpt lat="47.01565" lon="-1.08674">
        <ele>70</ele>
        <time>2011-12-11T10:22:53Z</time>
      </trkpt>
      <trkpt lat="47.01565" lon="-1.08672">
        <ele>70</ele>
        <time>2011-12-11T10:22:54Z</time>
      </trkpt>
      <trkpt lat="47.01566" lon="-1.08671">
        <ele>70</ele>
        <time>2011-12-11T10:22:55Z</time>
      </trkpt>
      <trkpt lat="47.01566" lon="-1.08669">
        <ele>70</ele>
        <time>2011-12-11T10:22:56Z</time>
      </trkpt>
      <trkpt lat="47.01566" lon="-1.08668">
        <ele>70</ele>
        <time>2011-12-11T10:22:57Z</time>
      </trkpt>
      <trkpt lat="47.01566" lon="-1.08666">
        <ele>70</ele>
        <time>2011-12-11T10:22:58Z</time>
      </trkpt>
      <trkpt lat="47.01566" lon="-1.08664">
        <ele>70</ele>
        <time>2011-12-11T10:22:59Z</time>
      </trkpt>
      <trkpt lat="47.01566" lon="-1.08662">
        <ele>70</ele>
        <time>2011-12-11T10:23:00Z</time>
      </trkpt>
      <trkpt lat="47.01566" lon="-1.0866">
        <ele>70</ele>
        <time>2011-12-11T10:23:01Z</time>
      </trkpt>
      <trkpt lat="47.01566" lon="-1.08658">
        <ele>70</ele>
        <time>2011-12-11T10:23:02Z</time>
      </trkpt>
      <trkpt lat="47.01566" lon="-1.08656">
        <ele>70</ele>
        <time>2011-12-11T10:23:03Z</time>
      </trkpt>
      <trkpt lat="47.01566" lon="-1.08654">
        <ele>70</ele>
        <time>2011-12-11T10:23:04Z</time>
      </trkpt>
      <trkpt lat="47.01566" lon="-1.08652">
        <ele>70</ele>
        <time>2011-12-11T10:23:05Z</time>
      </trkpt>
      <trkpt lat="47.01566" lon="-1.08651">
        <ele>70</ele>
        <time>2011-12-11T10:23:06Z</time>
      </trkpt>
      <trkpt lat="47.01566" lon="-1.08649">
        <ele>70</ele>
        <time>2011-12-11T10:23:07Z</time>
      </trkpt>
      <trkpt lat="47.01566" lon="-1.08647">
        <ele>71</ele>
        <time>2011-12-11T10:23:08Z</time>
      </trkpt>
      <trkpt lat="47.01566" lon="-1.08645">
        <ele>71</ele>
        <time>2011-12-11T10:23:09Z</time>
      </trkpt>
      <trkpt lat="47.01566" lon="-1.08643">
        <ele>71</ele>
        <time>2011-12-11T10:23:10Z</time>
      </trkpt>
      <trkpt lat="47.01566" lon="-1.08641">
        <ele>71</ele>
        <time>2011-12-11T10:23:11Z</time>
      </trkpt>
      <trkpt lat="47.01565" lon="-1.08639">
        <ele>71</ele>
        <time>2011-12-11T10:23:12Z</time>
      </trkpt>
      <trkpt lat="47.01565" lon="-1.08637">
        <ele>72</ele>
        <time>2011-12-11T10:23:13Z</time>
      </trkpt>
      <trkpt lat="47.01565" lon="-1.08635">
        <ele>72</ele>
        <time>2011-12-11T10:23:14Z</time>
      </trkpt>
      <trkpt lat="47.01565" lon="-1.08633">
        <ele>72</ele>
        <time>2011-12-11T10:23:16Z</time>
      </trkpt>
      <trkpt lat="47.01563" lon="-1.08633">
        <ele>73</ele>
        <time>2011-12-11T10:23:20Z</time>
      </trkpt>
      <trkpt lat="47.01562" lon="-1.08633">
        <ele>73</ele>
        <time>2011-12-11T10:23:22Z</time>
      </trkpt>
      <trkpt lat="47.01561" lon="-1.08632">
        <ele>73</ele>
        <time>2011-12-11T10:23:25Z</time>
      </trkpt>
      <trkpt lat="47.01559" lon="-1.0863">
        <ele>73</ele>
        <time>2011-12-11T10:23:27Z</time>
      </trkpt>
      <trkpt lat="47.01557" lon="-1.08628">
        <ele>74</ele>
        <time>2011-12-11T10:23:29Z</time>
      </trkpt>
      <trkpt lat="47.01556" lon="-1.08627">
        <ele>74</ele>
        <time>2011-12-11T10:23:32Z</time>
      </trkpt>
      <trkpt lat="47.01553" lon="-1.08625">
        <ele>74</ele>
        <time>2011-12-11T10:23:34Z</time>
      </trkpt>
      <trkpt lat="47.01551" lon="-1.08624">
        <ele>74</ele>
        <time>2011-12-11T10:23:36Z</time>
      </trkpt>
      <trkpt lat="47.0155" lon="-1.08623">
        <ele>74</ele>
        <time>2011-12-11T10:23:37Z</time>
      </trkpt>
      <trkpt lat="47.01548" lon="-1.08621">
        <ele>74</ele>
        <time>2011-12-11T10:23:39Z</time>
      </trkpt>
      <trkpt lat="47.01546" lon="-1.08618">
        <ele>74</ele>
        <time>2011-12-11T10:23:41Z</time>
      </trkpt>
      <trkpt lat="47.01544" lon="-1.08616">
        <ele>74</ele>
        <time>2011-12-11T10:23:43Z</time>
      </trkpt>
      <trkpt lat="47.01542" lon="-1.08613">
        <ele>74</ele>
        <time>2011-12-11T10:23:45Z</time>
      </trkpt>
      <trkpt lat="47.0154" lon="-1.08611">
        <ele>74</ele>
        <time>2011-12-11T10:23:47Z</time>
      </trkpt>
      <trkpt lat="47.01538" lon="-1.08608">
        <ele>74</ele>
        <time>2011-12-11T10:23:49Z</time>
      </trkpt>
      <trkpt lat="47.01536" lon="-1.08606">
        <ele>74</ele>
        <time>2011-12-11T10:23:51Z</time>
      </trkpt>
      <trkpt lat="47.01535" lon="-1.08603">
        <ele>74</ele>
        <time>2011-12-11T10:23:53Z</time>
      </trkpt>
      <trkpt lat="47.01532" lon="-1.086">
        <ele>74</ele>
        <time>2011-12-11T10:23:55Z</time>
      </trkpt>
      <trkpt lat="47.01531" lon="-1.08597">
        <ele>74</ele>
        <time>2011-12-11T10:23:57Z</time>
      </trkpt>
      <trkpt lat="47.0153" lon="-1.08596">
        <ele>74</ele>
        <time>2011-12-11T10:23:58Z</time>
      </trkpt>
      <trkpt lat="47.0153" lon="-1.08594">
        <ele>74</ele>
        <time>2011-12-11T10:23:59Z</time>
      </trkpt>
      <trkpt lat="47.01529" lon="-1.08592">
        <ele>74</ele>
        <time>2011-12-11T10:24:00Z</time>
      </trkpt>
      <trkpt lat="47.01529" lon="-1.0859">
        <ele>74</ele>
        <time>2011-12-11T10:24:01Z</time>
      </trkpt>
      <trkpt lat="47.01529" lon="-1.08588">
        <ele>74</ele>
        <time>2011-12-11T10:24:02Z</time>
      </trkpt>
      <trkpt lat="47.01528" lon="-1.08586">
        <ele>74</ele>
        <time>2011-12-11T10:24:03Z</time>
      </trkpt>
      <trkpt lat="47.01528" lon="-1.08584">
        <ele>74</ele>
        <time>2011-12-11T10:24:04Z</time>
      </trkpt>
      <trkpt lat="47.01528" lon="-1.08582">
        <ele>74</ele>
        <time>2011-12-11T10:24:05Z</time>
      </trkpt>
      <trkpt lat="47.01528" lon="-1.0858">
        <ele>74</ele>
        <time>2011-12-11T10:24:06Z</time>
      </trkpt>
      <trkpt lat="47.01528" lon="-1.08578">
        <ele>74</ele>
        <time>2011-12-11T10:24:07Z</time>
      </trkpt>
      <trkpt lat="47.01528" lon="-1.08576">
        <ele>74</ele>
        <time>2011-12-11T10:24:08Z</time>
      </trkpt>
      <trkpt lat="47.01528" lon="-1.08574">
        <ele>74</ele>
        <time>2011-12-11T10:24:09Z</time>
      </trkpt>
      <trkpt lat="47.01528" lon="-1.08572">
        <ele>75</ele>
        <time>2011-12-11T10:24:10Z</time>
      </trkpt>
      <trkpt lat="47.01529" lon="-1.08571">
        <ele>75</ele>
        <time>2011-12-11T10:24:11Z</time>
      </trkpt>
      <trkpt lat="47.01529" lon="-1.08569">
        <ele>75</ele>
        <time>2011-12-11T10:24:12Z</time>
      </trkpt>
      <trkpt lat="47.01529" lon="-1.08567">
        <ele>75</ele>
        <time>2011-12-11T10:24:13Z</time>
      </trkpt>
      <trkpt lat="47.01529" lon="-1.08565">
        <ele>75</ele>
        <time>2011-12-11T10:24:14Z</time>
      </trkpt>
      <trkpt lat="47.01529" lon="-1.08563">
        <ele>75</ele>
        <time>2011-12-11T10:24:15Z</time>
      </trkpt>
      <trkpt lat="47.01529" lon="-1.08561">
        <ele>75</ele>
        <time>2011-12-11T10:24:16Z</time>
      </trkpt>
      <trkpt lat="47.01529" lon="-1.0856">
        <ele>75</ele>
        <time>2011-12-11T10:24:17Z</time>
      </trkpt>
      <trkpt lat="47.01529" lon="-1.08557">
        <ele>75</ele>
        <time>2011-12-11T10:24:18Z</time>
      </trkpt>
      <trkpt lat="47.01529" lon="-1.08556">
        <ele>75</ele>
        <time>2011-12-11T10:24:19Z</time>
      </trkpt>
      <trkpt lat="47.01529" lon="-1.08554">
        <ele>75</ele>
        <time>2011-12-11T10:24:20Z</time>
      </trkpt>
      <trkpt lat="47.01529" lon="-1.08552">
        <ele>75</ele>
        <time>2011-12-11T10:24:21Z</time>
      </trkpt>
      <trkpt lat="47.0153" lon="-1.0855">
        <ele>75</ele>
        <time>2011-12-11T10:24:22Z</time>
      </trkpt>
      <trkpt lat="47.0153" lon="-1.08548">
        <ele>75</ele>
        <time>2011-12-11T10:24:23Z</time>
      </trkpt>
      <trkpt lat="47.0153" lon="-1.08546">
        <ele>75</ele>
        <time>2011-12-11T10:24:24Z</time>
      </trkpt>
      <trkpt lat="47.0153" lon="-1.08545">
        <ele>75</ele>
        <time>2011-12-11T10:24:25Z</time>
      </trkpt>
      <trkpt lat="47.0153" lon="-1.08543">
        <ele>75</ele>
        <time>2011-12-11T10:24:26Z</time>
      </trkpt>
      <trkpt lat="47.0153" lon="-1.08541">
        <ele>75</ele>
        <time>2011-12-11T10:24:27Z</time>
      </trkpt>
      <trkpt lat="47.01531" lon="-1.08539">
        <ele>75</ele>
        <time>2011-12-11T10:24:28Z</time>
      </trkpt>
      <trkpt lat="47.01531" lon="-1.08537">
        <ele>75</ele>
        <time>2011-12-11T10:24:29Z</time>
      </trkpt>
      <trkpt lat="47.01531" lon="-1.08535">
        <ele>75</ele>
        <time>2011-12-11T10:24:30Z</time>
      </trkpt>
      <trkpt lat="47.01531" lon="-1.08533">
        <ele>75</ele>
        <time>2011-12-11T10:24:31Z</time>
      </trkpt>
      <trkpt lat="47.01531" lon="-1.08531">
        <ele>75</ele>
        <time>2011-12-11T10:24:32Z</time>
      </trkpt>
      <trkpt lat="47.01531" lon="-1.08529">
        <ele>75</ele>
        <time>2011-12-11T10:24:33Z</time>
      </trkpt>
      <trkpt lat="47.01531" lon="-1.08527">
        <ele>75</ele>
        <time>2011-12-11T10:24:34Z</time>
      </trkpt>
      <trkpt lat="47.01531" lon="-1.08526">
        <ele>75</ele>
        <time>2011-12-11T10:24:35Z</time>
      </trkpt>
      <trkpt lat="47.01532" lon="-1.08524">
        <ele>75</ele>
        <time>2011-12-11T10:24:36Z</time>
      </trkpt>
      <trkpt lat="47.01532" lon="-1.08522">
        <ele>75</ele>
        <time>2011-12-11T10:24:37Z</time>
      </trkpt>
      <trkpt lat="47.01532" lon="-1.0852">
        <ele>75</ele>
        <time>2011-12-11T10:24:38Z</time>
      </trkpt>
      <trkpt lat="47.01532" lon="-1.08518">
        <ele>75</ele>
        <time>2011-12-11T10:24:39Z</time>
      </trkpt>
      <trkpt lat="47.01532" lon="-1.08516">
        <ele>75</ele>
        <time>2011-12-11T10:24:40Z</time>
      </trkpt>
      <trkpt lat="47.01532" lon="-1.08514">
        <ele>75</ele>
        <time>2011-12-11T10:24:41Z</time>
      </trkpt>
      <trkpt lat="47.01532" lon="-1.08513">
        <ele>75</ele>
        <time>2011-12-11T10:24:42Z</time>
      </trkpt>
      <trkpt lat="47.01532" lon="-1.08511">
        <ele>75</ele>
        <time>2011-12-11T10:24:43Z</time>
      </trkpt>
      <trkpt lat="47.01532" lon="-1.08509">
        <ele>75</ele>
        <time>2011-12-11T10:24:44Z</time>
      </trkpt>
      <trkpt lat="47.01532" lon="-1.08507">
        <ele>75</ele>
        <time>2011-12-11T10:24:45Z</time>
      </trkpt>
      <trkpt lat="47.01532" lon="-1.08505">
        <ele>75</ele>
        <time>2011-12-11T10:24:46Z</time>
      </trkpt>
      <trkpt lat="47.01533" lon="-1.08504">
        <ele>75</ele>
        <time>2011-12-11T10:24:47Z</time>
      </trkpt>
      <trkpt lat="47.01533" lon="-1.08502">
        <ele>75</ele>
        <time>2011-12-11T10:24:48Z</time>
      </trkpt>
      <trkpt lat="47.01533" lon="-1.08501">
        <ele>75</ele>
        <time>2011-12-11T10:24:49Z</time>
      </trkpt>
      <trkpt lat="47.01533" lon="-1.08499">
        <ele>75</ele>
        <time>2011-12-11T10:24:50Z</time>
      </trkpt>
      <trkpt lat="47.01533" lon="-1.08497">
        <ele>75</ele>
        <time>2011-12-11T10:24:51Z</time>
      </trkpt>
      <trkpt lat="47.01533" lon="-1.08496">
        <ele>75</ele>
        <time>2011-12-11T10:24:52Z</time>
      </trkpt>
      <trkpt lat="47.01533" lon="-1.08494">
        <ele>75</ele>
        <time>2011-12-11T10:24:53Z</time>
      </trkpt>
      <trkpt lat="47.01533" lon="-1.08492">
        <ele>75</ele>
        <time>2011-12-11T10:24:54Z</time>
      </trkpt>
      <trkpt lat="47.01533" lon="-1.0849">
        <ele>75</ele>
        <time>2011-12-11T10:24:55Z</time>
      </trkpt>
      <trkpt lat="47.01534" lon="-1.08488">
        <ele>75</ele>
        <time>2011-12-11T10:24:56Z</time>
      </trkpt>
      <trkpt lat="47.01534" lon="-1.08486">
        <ele>75</ele>
        <time>2011-12-11T10:24:57Z</time>
      </trkpt>
      <trkpt lat="47.01534" lon="-1.08485">
        <ele>75</ele>
        <time>2011-12-11T10:24:58Z</time>
      </trkpt>
      <trkpt lat="47.01535" lon="-1.08483">
        <ele>75</ele>
        <time>2011-12-11T10:24:59Z</time>
      </trkpt>
      <trkpt lat="47.01535" lon="-1.08481">
        <ele>75</ele>
        <time>2011-12-11T10:25:00Z</time>
      </trkpt>
      <trkpt lat="47.01535" lon="-1.08479">
        <ele>75</ele>
        <time>2011-12-11T10:25:01Z</time>
      </trkpt>
      <trkpt lat="47.01536" lon="-1.08477">
        <ele>75</ele>
        <time>2011-12-11T10:25:02Z</time>
      </trkpt>
      <trkpt lat="47.01536" lon="-1.08475">
        <ele>75</ele>
        <time>2011-12-11T10:25:03Z</time>
      </trkpt>
      <trkpt lat="47.01536" lon="-1.08473">
        <ele>75</ele>
        <time>2011-12-11T10:25:04Z</time>
      </trkpt>
      <trkpt lat="47.01536" lon="-1.08472">
        <ele>75</ele>
        <time>2011-12-11T10:25:05Z</time>
      </trkpt>
      <trkpt lat="47.01537" lon="-1.0847">
        <ele>75</ele>
        <time>2011-12-11T10:25:06Z</time>
      </trkpt>
      <trkpt lat="47.01537" lon="-1.08468">
        <ele>75</ele>
        <time>2011-12-11T10:25:07Z</time>
      </trkpt>
      <trkpt lat="47.01538" lon="-1.08466">
        <ele>75</ele>
        <time>2011-12-11T10:25:08Z</time>
      </trkpt>
      <trkpt lat="47.01538" lon="-1.08464">
        <ele>75</ele>
        <time>2011-12-11T10:25:09Z</time>
      </trkpt>
      <trkpt lat="47.01538" lon="-1.08463">
        <ele>75</ele>
        <time>2011-12-11T10:25:10Z</time>
      </trkpt>
      <trkpt lat="47.01539" lon="-1.08461">
        <ele>75</ele>
        <time>2011-12-11T10:25:11Z</time>
      </trkpt>
      <trkpt lat="47.01539" lon="-1.08459">
        <ele>75</ele>
        <time>2011-12-11T10:25:12Z</time>
      </trkpt>
      <trkpt lat="47.0154" lon="-1.08457">
        <ele>75</ele>
        <time>2011-12-11T10:25:13Z</time>
      </trkpt>
      <trkpt lat="47.0154" lon="-1.08455">
        <ele>75</ele>
        <time>2011-12-11T10:25:14Z</time>
      </trkpt>
      <trkpt lat="47.01541" lon="-1.08454">
        <ele>75</ele>
        <time>2011-12-11T10:25:15Z</time>
      </trkpt>
      <trkpt lat="47.01541" lon="-1.08452">
        <ele>75</ele>
        <time>2011-12-11T10:25:16Z</time>
      </trkpt>
      <trkpt lat="47.01542" lon="-1.0845">
        <ele>75</ele>
        <time>2011-12-11T10:25:17Z</time>
      </trkpt>
      <trkpt lat="47.01542" lon="-1.08448">
        <ele>75</ele>
        <time>2011-12-11T10:25:18Z</time>
      </trkpt>
      <trkpt lat="47.01543" lon="-1.08447">
        <ele>75</ele>
        <time>2011-12-11T10:25:19Z</time>
      </trkpt>
      <trkpt lat="47.01543" lon="-1.08445">
        <ele>75</ele>
        <time>2011-12-11T10:25:20Z</time>
      </trkpt>
      <trkpt lat="47.01543" lon="-1.08443">
        <ele>75</ele>
        <time>2011-12-11T10:25:21Z</time>
      </trkpt>
      <trkpt lat="47.01544" lon="-1.08441">
        <ele>75</ele>
        <time>2011-12-11T10:25:22Z</time>
      </trkpt>
      <trkpt lat="47.01544" lon="-1.08439">
        <ele>75</ele>
        <time>2011-12-11T10:25:23Z</time>
      </trkpt>
      <trkpt lat="47.01545" lon="-1.08437">
        <ele>75</ele>
        <time>2011-12-11T10:25:24Z</time>
      </trkpt>
      <trkpt lat="47.01545" lon="-1.08435">
        <ele>75</ele>
        <time>2011-12-11T10:25:25Z</time>
      </trkpt>
      <trkpt lat="47.01545" lon="-1.08433">
        <ele>75</ele>
        <time>2011-12-11T10:25:26Z</time>
      </trkpt>
      <trkpt lat="47.01545" lon="-1.08431">
        <ele>75</ele>
        <time>2011-12-11T10:25:27Z</time>
      </trkpt>
      <trkpt lat="47.01546" lon="-1.0843">
        <ele>75</ele>
        <time>2011-12-11T10:25:28Z</time>
      </trkpt>
      <trkpt lat="47.01546" lon="-1.08428">
        <ele>75</ele>
        <time>2011-12-11T10:25:29Z</time>
      </trkpt>
      <trkpt lat="47.01546" lon="-1.08426">
        <ele>75</ele>
        <time>2011-12-11T10:25:30Z</time>
      </trkpt>
      <trkpt lat="47.01546" lon="-1.08424">
        <ele>75</ele>
        <time>2011-12-11T10:25:31Z</time>
      </trkpt>
      <trkpt lat="47.01546" lon="-1.08423">
        <ele>75</ele>
        <time>2011-12-11T10:25:32Z</time>
      </trkpt>
      <trkpt lat="47.01546" lon="-1.08421">
        <ele>75</ele>
        <time>2011-12-11T10:25:33Z</time>
      </trkpt>
      <trkpt lat="47.01546" lon="-1.08419">
        <ele>75</ele>
        <time>2011-12-11T10:25:34Z</time>
      </trkpt>
      <trkpt lat="47.01547" lon="-1.08417">
        <ele>75</ele>
        <time>2011-12-11T10:25:35Z</time>
      </trkpt>
      <trkpt lat="47.01548" lon="-1.08415">
        <ele>75</ele>
        <time>2011-12-11T10:25:36Z</time>
      </trkpt>
      <trkpt lat="47.01548" lon="-1.08413">
        <ele>75</ele>
        <time>2011-12-11T10:25:37Z</time>
      </trkpt>
      <trkpt lat="47.01548" lon="-1.08411">
        <ele>75</ele>
        <time>2011-12-11T10:25:38Z</time>
      </trkpt>
      <trkpt lat="47.01549" lon="-1.08409">
        <ele>75</ele>
        <time>2011-12-11T10:25:39Z</time>
      </trkpt>
      <trkpt lat="47.01549" lon="-1.08407">
        <ele>75</ele>
        <time>2011-12-11T10:25:40Z</time>
      </trkpt>
      <trkpt lat="47.0155" lon="-1.08405">
        <ele>75</ele>
        <time>2011-12-11T10:25:41Z</time>
      </trkpt>
      <trkpt lat="47.0155" lon="-1.08403">
        <ele>75</ele>
        <time>2011-12-11T10:25:42Z</time>
      </trkpt>
      <trkpt lat="47.0155" lon="-1.08402">
        <ele>75</ele>
        <time>2011-12-11T10:25:43Z</time>
      </trkpt>
      <trkpt lat="47.01551" lon="-1.084">
        <ele>75</ele>
        <time>2011-12-11T10:25:44Z</time>
      </trkpt>
      <trkpt lat="47.01551" lon="-1.08398">
        <ele>75</ele>
        <time>2011-12-11T10:25:45Z</time>
      </trkpt>
      <trkpt lat="47.01551" lon="-1.08397">
        <ele>75</ele>
        <time>2011-12-11T10:25:46Z</time>
      </trkpt>
      <trkpt lat="47.01552" lon="-1.08395">
        <ele>75</ele>
        <time>2011-12-11T10:25:47Z</time>
      </trkpt>
      <trkpt lat="47.01553" lon="-1.08394">
        <ele>75</ele>
        <time>2011-12-11T10:25:48Z</time>
      </trkpt>
      <trkpt lat="47.01553" lon="-1.08392">
        <ele>75</ele>
        <time>2011-12-11T10:25:49Z</time>
      </trkpt>
      <trkpt lat="47.01554" lon="-1.0839">
        <ele>75</ele>
        <time>2011-12-11T10:25:50Z</time>
      </trkpt>
      <trkpt lat="47.01555" lon="-1.08389">
        <ele>75</ele>
        <time>2011-12-11T10:25:51Z</time>
      </trkpt>
      <trkpt lat="47.01556" lon="-1.08387">
        <ele>75</ele>
        <time>2011-12-11T10:25:52Z</time>
      </trkpt>
      <trkpt lat="47.01556" lon="-1.08385">
        <ele>75</ele>
        <time>2011-12-11T10:25:53Z</time>
      </trkpt>
      <trkpt lat="47.01557" lon="-1.08384">
        <ele>75</ele>
        <time>2011-12-11T10:25:54Z</time>
      </trkpt>
      <trkpt lat="47.01558" lon="-1.08382">
        <ele>75</ele>
        <time>2011-12-11T10:25:55Z</time>
      </trkpt>
      <trkpt lat="47.01559" lon="-1.0838">
        <ele>75</ele>
        <time>2011-12-11T10:25:56Z</time>
      </trkpt>
      <trkpt lat="47.01559" lon="-1.08379">
        <ele>75</ele>
        <time>2011-12-11T10:25:57Z</time>
      </trkpt>
      <trkpt lat="47.0156" lon="-1.08377">
        <ele>75</ele>
        <time>2011-12-11T10:25:58Z</time>
      </trkpt>
      <trkpt lat="47.01561" lon="-1.08376">
        <ele>75</ele>
        <time>2011-12-11T10:25:59Z</time>
      </trkpt>
      <trkpt lat="47.01561" lon="-1.08374">
        <ele>75</ele>
        <time>2011-12-11T10:26:00Z</time>
      </trkpt>
      <trkpt lat="47.01562" lon="-1.08372">
        <ele>75</ele>
        <time>2011-12-11T10:26:01Z</time>
      </trkpt>
      <trkpt lat="47.01563" lon="-1.0837">
        <ele>75</ele>
        <time>2011-12-11T10:26:03Z</time>
      </trkpt>
      <trkpt lat="47.01566" lon="-1.08367">
        <ele>75</ele>
        <time>2011-12-11T10:26:05Z</time>
      </trkpt>
      <trkpt lat="47.01567" lon="-1.08365">
        <ele>75</ele>
        <time>2011-12-11T10:26:07Z</time>
      </trkpt>
      <trkpt lat="47.01569" lon="-1.08362">
        <ele>75</ele>
        <time>2011-12-11T10:26:09Z</time>
      </trkpt>
      <trkpt lat="47.01569" lon="-1.08361">
        <ele>75</ele>
        <time>2011-12-11T10:26:10Z</time>
      </trkpt>
      <trkpt lat="47.0157" lon="-1.08359">
        <ele>75</ele>
        <time>2011-12-11T10:26:11Z</time>
      </trkpt>
      <trkpt lat="47.01571" lon="-1.08358">
        <ele>75</ele>
        <time>2011-12-11T10:26:12Z</time>
      </trkpt>
      <trkpt lat="47.01572" lon="-1.08356">
        <ele>75</ele>
        <time>2011-12-11T10:26:13Z</time>
      </trkpt>
      <trkpt lat="47.01573" lon="-1.08355">
        <ele>75</ele>
        <time>2011-12-11T10:26:14Z</time>
      </trkpt>
      <trkpt lat="47.01573" lon="-1.08353">
        <ele>75</ele>
        <time>2011-12-11T10:26:15Z</time>
      </trkpt>
      <trkpt lat="47.01574" lon="-1.08351">
        <ele>75</ele>
        <time>2011-12-11T10:26:16Z</time>
      </trkpt>
      <trkpt lat="47.01575" lon="-1.08349">
        <ele>75</ele>
        <time>2011-12-11T10:26:17Z</time>
      </trkpt>
      <trkpt lat="47.01576" lon="-1.08347">
        <ele>75</ele>
        <time>2011-12-11T10:26:18Z</time>
      </trkpt>
      <trkpt lat="47.01577" lon="-1.08346">
        <ele>75</ele>
        <time>2011-12-11T10:26:19Z</time>
      </trkpt>
      <trkpt lat="47.01577" lon="-1.08344">
        <ele>75</ele>
        <time>2011-12-11T10:26:20Z</time>
      </trkpt>
      <trkpt lat="47.01577" lon="-1.08342">
        <ele>75</ele>
        <time>2011-12-11T10:26:21Z</time>
      </trkpt>
      <trkpt lat="47.01578" lon="-1.08341">
        <ele>75</ele>
        <time>2011-12-11T10:26:22Z</time>
      </trkpt>
      <trkpt lat="47.01578" lon="-1.08339">
        <ele>75</ele>
        <time>2011-12-11T10:26:23Z</time>
      </trkpt>
      <trkpt lat="47.01579" lon="-1.08337">
        <ele>75</ele>
        <time>2011-12-11T10:26:24Z</time>
      </trkpt>
      <trkpt lat="47.0158" lon="-1.08335">
        <ele>75</ele>
        <time>2011-12-11T10:26:25Z</time>
      </trkpt>
      <trkpt lat="47.01581" lon="-1.08333">
        <ele>75</ele>
        <time>2011-12-11T10:26:26Z</time>
      </trkpt>
      <trkpt lat="47.01582" lon="-1.08331">
        <ele>75</ele>
        <time>2011-12-11T10:26:27Z</time>
      </trkpt>
      <trkpt lat="47.01582" lon="-1.08329">
        <ele>75</ele>
        <time>2011-12-11T10:26:28Z</time>
      </trkpt>
      <trkpt lat="47.01583" lon="-1.08327">
        <ele>75</ele>
        <time>2011-12-11T10:26:29Z</time>
      </trkpt>
      <trkpt lat="47.01583" lon="-1.08325">
        <ele>75</ele>
        <time>2011-12-11T10:26:30Z</time>
      </trkpt>
      <trkpt lat="47.01584" lon="-1.08323">
        <ele>75</ele>
        <time>2011-12-11T10:26:31Z</time>
      </trkpt>
      <trkpt lat="47.01585" lon="-1.08321">
        <ele>75</ele>
        <time>2011-12-11T10:26:32Z</time>
      </trkpt>
      <trkpt lat="47.01585" lon="-1.0832">
        <ele>75</ele>
        <time>2011-12-11T10:26:33Z</time>
      </trkpt>
      <trkpt lat="47.01586" lon="-1.08318">
        <ele>75</ele>
        <time>2011-12-11T10:26:34Z</time>
      </trkpt>
      <trkpt lat="47.01587" lon="-1.08316">
        <ele>75</ele>
        <time>2011-12-11T10:26:35Z</time>
      </trkpt>
      <trkpt lat="47.01587" lon="-1.08314">
        <ele>75</ele>
        <time>2011-12-11T10:26:36Z</time>
      </trkpt>
      <trkpt lat="47.01588" lon="-1.08312">
        <ele>75</ele>
        <time>2011-12-11T10:26:37Z</time>
      </trkpt>
      <trkpt lat="47.01588" lon="-1.0831">
        <ele>75</ele>
        <time>2011-12-11T10:26:38Z</time>
      </trkpt>
      <trkpt lat="47.01589" lon="-1.08308">
        <ele>75</ele>
        <time>2011-12-11T10:26:39Z</time>
      </trkpt>
      <trkpt lat="47.0159" lon="-1.08307">
        <ele>75</ele>
        <time>2011-12-11T10:26:40Z</time>
      </trkpt>
      <trkpt lat="47.01591" lon="-1.08305">
        <ele>75</ele>
        <time>2011-12-11T10:26:41Z</time>
      </trkpt>
      <trkpt lat="47.01592" lon="-1.08303">
        <ele>75</ele>
        <time>2011-12-11T10:26:42Z</time>
      </trkpt>
      <trkpt lat="47.01593" lon="-1.08301">
        <ele>75</ele>
        <time>2011-12-11T10:26:43Z</time>
      </trkpt>
      <trkpt lat="47.01593" lon="-1.08299">
        <ele>75</ele>
        <time>2011-12-11T10:26:44Z</time>
      </trkpt>
      <trkpt lat="47.01594" lon="-1.08298">
        <ele>75</ele>
        <time>2011-12-11T10:26:45Z</time>
      </trkpt>
      <trkpt lat="47.01594" lon="-1.08296">
        <ele>75</ele>
        <time>2011-12-11T10:26:46Z</time>
      </trkpt>
      <trkpt lat="47.01595" lon="-1.08294">
        <ele>75</ele>
        <time>2011-12-11T10:26:47Z</time>
      </trkpt>
      <trkpt lat="47.01595" lon="-1.08292">
        <ele>75</ele>
        <time>2011-12-11T10:26:48Z</time>
      </trkpt>
      <trkpt lat="47.01596" lon="-1.0829">
        <ele>75</ele>
        <time>2011-12-11T10:26:49Z</time>
      </trkpt>
      <trkpt lat="47.01596" lon="-1.08288">
        <ele>75</ele>
        <time>2011-12-11T10:26:50Z</time>
      </trkpt>
      <trkpt lat="47.01596" lon="-1.08286">
        <ele>76</ele>
        <time>2011-12-11T10:26:51Z</time>
      </trkpt>
      <trkpt lat="47.01596" lon="-1.08284">
        <ele>76</ele>
        <time>2011-12-11T10:26:52Z</time>
      </trkpt>
      <trkpt lat="47.01596" lon="-1.08282">
        <ele>76</ele>
        <time>2011-12-11T10:26:53Z</time>
      </trkpt>
      <trkpt lat="47.01596" lon="-1.0828">
        <ele>76</ele>
        <time>2011-12-11T10:26:54Z</time>
      </trkpt>
      <trkpt lat="47.01597" lon="-1.08279">
        <ele>76</ele>
        <time>2011-12-11T10:26:55Z</time>
      </trkpt>
      <trkpt lat="47.01597" lon="-1.08277">
        <ele>76</ele>
        <time>2011-12-11T10:26:56Z</time>
      </trkpt>
      <trkpt lat="47.01597" lon="-1.08275">
        <ele>76</ele>
        <time>2011-12-11T10:26:57Z</time>
      </trkpt>
      <trkpt lat="47.01597" lon="-1.08273">
        <ele>76</ele>
        <time>2011-12-11T10:26:58Z</time>
      </trkpt>
      <trkpt lat="47.01597" lon="-1.08271">
        <ele>76</ele>
        <time>2011-12-11T10:26:59Z</time>
      </trkpt>
      <trkpt lat="47.01598" lon="-1.08269">
        <ele>77</ele>
        <time>2011-12-11T10:27:00Z</time>
      </trkpt>
      <trkpt lat="47.01598" lon="-1.08267">
        <ele>77</ele>
        <time>2011-12-11T10:27:01Z</time>
      </trkpt>
      <trkpt lat="47.01598" lon="-1.08265">
        <ele>77</ele>
        <time>2011-12-11T10:27:02Z</time>
      </trkpt>
      <trkpt lat="47.01598" lon="-1.08263">
        <ele>77</ele>
        <time>2011-12-11T10:27:03Z</time>
      </trkpt>
      <trkpt lat="47.01598" lon="-1.08261">
        <ele>77</ele>
        <time>2011-12-11T10:27:04Z</time>
      </trkpt>
      <trkpt lat="47.01599" lon="-1.08259">
        <ele>77</ele>
        <time>2011-12-11T10:27:05Z</time>
      </trkpt>
      <trkpt lat="47.01599" lon="-1.08258">
        <ele>77</ele>
        <time>2011-12-11T10:27:06Z</time>
      </trkpt>
      <trkpt lat="47.016" lon="-1.08256">
        <ele>77</ele>
        <time>2011-12-11T10:27:07Z</time>
      </trkpt>
      <trkpt lat="47.016" lon="-1.08254">
        <ele>77</ele>
        <time>2011-12-11T10:27:08Z</time>
      </trkpt>
      <trkpt lat="47.01601" lon="-1.08253">
        <ele>77</ele>
        <time>2011-12-11T10:27:09Z</time>
      </trkpt>
      <trkpt lat="47.01601" lon="-1.08251">
        <ele>78</ele>
        <time>2011-12-11T10:27:10Z</time>
      </trkpt>
      <trkpt lat="47.01601" lon="-1.08249">
        <ele>78</ele>
        <time>2011-12-11T10:27:11Z</time>
      </trkpt>
      <trkpt lat="47.01602" lon="-1.08247">
        <ele>78</ele>
        <time>2011-12-11T10:27:12Z</time>
      </trkpt>
      <trkpt lat="47.01602" lon="-1.08245">
        <ele>78</ele>
        <time>2011-12-11T10:27:13Z</time>
      </trkpt>
      <trkpt lat="47.01603" lon="-1.08244">
        <ele>78</ele>
        <time>2011-12-11T10:27:14Z</time>
      </trkpt>
      <trkpt lat="47.01603" lon="-1.08242">
        <ele>78</ele>
        <time>2011-12-11T10:27:15Z</time>
      </trkpt>
      <trkpt lat="47.01603" lon="-1.0824">
        <ele>78</ele>
        <time>2011-12-11T10:27:16Z</time>
      </trkpt>
      <trkpt lat="47.01604" lon="-1.08238">
        <ele>78</ele>
        <time>2011-12-11T10:27:17Z</time>
      </trkpt>
      <trkpt lat="47.01604" lon="-1.08237">
        <ele>78</ele>
        <time>2011-12-11T10:27:18Z</time>
      </trkpt>
      <trkpt lat="47.01604" lon="-1.08235">
        <ele>78</ele>
        <time>2011-12-11T10:27:19Z</time>
      </trkpt>
      <trkpt lat="47.01605" lon="-1.08233">
        <ele>78</ele>
        <time>2011-12-11T10:27:20Z</time>
      </trkpt>
      <trkpt lat="47.01606" lon="-1.08231">
        <ele>78</ele>
        <time>2011-12-11T10:27:21Z</time>
      </trkpt>
      <trkpt lat="47.01606" lon="-1.08229">
        <ele>78</ele>
        <time>2011-12-11T10:27:22Z</time>
      </trkpt>
      <trkpt lat="47.01606" lon="-1.08228">
        <ele>78</ele>
        <time>2011-12-11T10:27:23Z</time>
      </trkpt>
      <trkpt lat="47.01606" lon="-1.08226">
        <ele>78</ele>
        <time>2011-12-11T10:27:24Z</time>
      </trkpt>
      <trkpt lat="47.01606" lon="-1.08224">
        <ele>78</ele>
        <time>2011-12-11T10:27:25Z</time>
      </trkpt>
      <trkpt lat="47.01607" lon="-1.08222">
        <ele>78</ele>
        <time>2011-12-11T10:27:26Z</time>
      </trkpt>
      <trkpt lat="47.01607" lon="-1.0822">
        <ele>78</ele>
        <time>2011-12-11T10:27:27Z</time>
      </trkpt>
      <trkpt lat="47.01607" lon="-1.08218">
        <ele>78</ele>
        <time>2011-12-11T10:27:28Z</time>
      </trkpt>
      <trkpt lat="47.01608" lon="-1.08216">
        <ele>78</ele>
        <time>2011-12-11T10:27:29Z</time>
      </trkpt>
      <trkpt lat="47.01608" lon="-1.08214">
        <ele>78</ele>
        <time>2011-12-11T10:27:30Z</time>
      </trkpt>
      <trkpt lat="47.01609" lon="-1.08212">
        <ele>78</ele>
        <time>2011-12-11T10:27:31Z</time>
      </trkpt>
      <trkpt lat="47.01609" lon="-1.0821">
        <ele>78</ele>
        <time>2011-12-11T10:27:32Z</time>
      </trkpt>
      <trkpt lat="47.0161" lon="-1.08208">
        <ele>78</ele>
        <time>2011-12-11T10:27:33Z</time>
      </trkpt>
      <trkpt lat="47.0161" lon="-1.08206">
        <ele>78</ele>
        <time>2011-12-11T10:27:34Z</time>
      </trkpt>
      <trkpt lat="47.01611" lon="-1.08204">
        <ele>78</ele>
        <time>2011-12-11T10:27:35Z</time>
      </trkpt>
      <trkpt lat="47.01611" lon="-1.08203">
        <ele>78</ele>
        <time>2011-12-11T10:27:36Z</time>
      </trkpt>
      <trkpt lat="47.01612" lon="-1.08201">
        <ele>78</ele>
        <time>2011-12-11T10:27:37Z</time>
      </trkpt>
      <trkpt lat="47.01612" lon="-1.08199">
        <ele>78</ele>
        <time>2011-12-11T10:27:38Z</time>
      </trkpt>
      <trkpt lat="47.01613" lon="-1.08197">
        <ele>78</ele>
        <time>2011-12-11T10:27:39Z</time>
      </trkpt>
      <trkpt lat="47.01613" lon="-1.08195">
        <ele>78</ele>
        <time>2011-12-11T10:27:40Z</time>
      </trkpt>
      <trkpt lat="47.01614" lon="-1.08194">
        <ele>78</ele>
        <time>2011-12-11T10:27:41Z</time>
      </trkpt>
      <trkpt lat="47.01614" lon="-1.08192">
        <ele>78</ele>
        <time>2011-12-11T10:27:42Z</time>
      </trkpt>
      <trkpt lat="47.01615" lon="-1.0819">
        <ele>78</ele>
        <time>2011-12-11T10:27:43Z</time>
      </trkpt>
      <trkpt lat="47.01615" lon="-1.08188">
        <ele>78</ele>
        <time>2011-12-11T10:27:44Z</time>
      </trkpt>
      <trkpt lat="47.01616" lon="-1.08186">
        <ele>78</ele>
        <time>2011-12-11T10:27:45Z</time>
      </trkpt>
      <trkpt lat="47.01616" lon="-1.08184">
        <ele>78</ele>
        <time>2011-12-11T10:27:46Z</time>
      </trkpt>
      <trkpt lat="47.01617" lon="-1.08183">
        <ele>79</ele>
        <time>2011-12-11T10:27:47Z</time>
      </trkpt>
      <trkpt lat="47.01617" lon="-1.08181">
        <ele>79</ele>
        <time>2011-12-11T10:27:48Z</time>
      </trkpt>
      <trkpt lat="47.01618" lon="-1.08179">
        <ele>79</ele>
        <time>2011-12-11T10:27:49Z</time>
      </trkpt>
      <trkpt lat="47.01618" lon="-1.08177">
        <ele>79</ele>
        <time>2011-12-11T10:27:50Z</time>
      </trkpt>
      <trkpt lat="47.01619" lon="-1.08175">
        <ele>79</ele>
        <time>2011-12-11T10:27:51Z</time>
      </trkpt>
      <trkpt lat="47.01619" lon="-1.08173">
        <ele>79</ele>
        <time>2011-12-11T10:27:52Z</time>
      </trkpt>
      <trkpt lat="47.0162" lon="-1.08171">
        <ele>79</ele>
        <time>2011-12-11T10:27:53Z</time>
      </trkpt>
      <trkpt lat="47.0162" lon="-1.0817">
        <ele>79</ele>
        <time>2011-12-11T10:27:54Z</time>
      </trkpt>
      <trkpt lat="47.0162" lon="-1.08168">
        <ele>79</ele>
        <time>2011-12-11T10:27:55Z</time>
      </trkpt>
      <trkpt lat="47.01621" lon="-1.08166">
        <ele>79</ele>
        <time>2011-12-11T10:27:56Z</time>
      </trkpt>
      <trkpt lat="47.01622" lon="-1.08164">
        <ele>79</ele>
        <time>2011-12-11T10:27:57Z</time>
      </trkpt>
      <trkpt lat="47.01622" lon="-1.08162">
        <ele>79</ele>
        <time>2011-12-11T10:27:58Z</time>
      </trkpt>
      <trkpt lat="47.01622" lon="-1.0816">
        <ele>79</ele>
        <time>2011-12-11T10:27:59Z</time>
      </trkpt>
      <trkpt lat="47.01623" lon="-1.08159">
        <ele>79</ele>
        <time>2011-12-11T10:28:00Z</time>
      </trkpt>
      <trkpt lat="47.01623" lon="-1.08157">
        <ele>79</ele>
        <time>2011-12-11T10:28:01Z</time>
      </trkpt>
      <trkpt lat="47.01624" lon="-1.08155">
        <ele>79</ele>
        <time>2011-12-11T10:28:02Z</time>
      </trkpt>
      <trkpt lat="47.01624" lon="-1.08153">
        <ele>80</ele>
        <time>2011-12-11T10:28:03Z</time>
      </trkpt>
      <trkpt lat="47.01625" lon="-1.08151">
        <ele>80</ele>
        <time>2011-12-11T10:28:04Z</time>
      </trkpt>
      <trkpt lat="47.01625" lon="-1.08149">
        <ele>80</ele>
        <time>2011-12-11T10:28:05Z</time>
      </trkpt>
      <trkpt lat="47.01626" lon="-1.08147">
        <ele>80</ele>
        <time>2011-12-11T10:28:06Z</time>
      </trkpt>
      <trkpt lat="47.01626" lon="-1.08145">
        <ele>80</ele>
        <time>2011-12-11T10:28:07Z</time>
      </trkpt>
      <trkpt lat="47.01627" lon="-1.08143">
        <ele>80</ele>
        <time>2011-12-11T10:28:08Z</time>
      </trkpt>
      <trkpt lat="47.01627" lon="-1.08142">
        <ele>80</ele>
        <time>2011-12-11T10:28:09Z</time>
      </trkpt>
      <trkpt lat="47.01628" lon="-1.0814">
        <ele>80</ele>
        <time>2011-12-11T10:28:10Z</time>
      </trkpt>
      <trkpt lat="47.01628" lon="-1.08138">
        <ele>80</ele>
        <time>2011-12-11T10:28:11Z</time>
      </trkpt>
      <trkpt lat="47.01629" lon="-1.08137">
        <ele>80</ele>
        <time>2011-12-11T10:28:12Z</time>
      </trkpt>
      <trkpt lat="47.01629" lon="-1.08135">
        <ele>80</ele>
        <time>2011-12-11T10:28:13Z</time>
      </trkpt>
      <trkpt lat="47.01629" lon="-1.08133">
        <ele>80</ele>
        <time>2011-12-11T10:28:14Z</time>
      </trkpt>
      <trkpt lat="47.0163" lon="-1.08131">
        <ele>80</ele>
        <time>2011-12-11T10:28:15Z</time>
      </trkpt>
      <trkpt lat="47.0163" lon="-1.08129">
        <ele>80</ele>
        <time>2011-12-11T10:28:16Z</time>
      </trkpt>
      <trkpt lat="47.0163" lon="-1.08127">
        <ele>80</ele>
        <time>2011-12-11T10:28:17Z</time>
      </trkpt>
      <trkpt lat="47.01631" lon="-1.08125">
        <ele>80</ele>
        <time>2011-12-11T10:28:18Z</time>
      </trkpt>
      <trkpt lat="47.01631" lon="-1.08124">
        <ele>80</ele>
        <time>2011-12-11T10:28:19Z</time>
      </trkpt>
      <trkpt lat="47.01632" lon="-1.08122">
        <ele>80</ele>
        <time>2011-12-11T10:28:20Z</time>
      </trkpt>
      <trkpt lat="47.01632" lon="-1.0812">
        <ele>80</ele>
        <time>2011-12-11T10:28:21Z</time>
      </trkpt>
      <trkpt lat="47.01632" lon="-1.08118">
        <ele>80</ele>
        <time>2011-12-11T10:28:22Z</time>
      </trkpt>
      <trkpt lat="47.01633" lon="-1.08116">
        <ele>80</ele>
        <time>2011-12-11T10:28:23Z</time>
      </trkpt>
      <trkpt lat="47.01633" lon="-1.08115">
        <ele>80</ele>
        <time>2011-12-11T10:28:24Z</time>
      </trkpt>
      <trkpt lat="47.01633" lon="-1.08113">
        <ele>80</ele>
        <time>2011-12-11T10:28:25Z</time>
      </trkpt>
      <trkpt lat="47.01634" lon="-1.08111">
        <ele>80</ele>
        <time>2011-12-11T10:28:26Z</time>
      </trkpt>
      <trkpt lat="47.01634" lon="-1.0811">
        <ele>80</ele>
        <time>2011-12-11T10:28:27Z</time>
      </trkpt>
      <trkpt lat="47.01634" lon="-1.08108">
        <ele>80</ele>
        <time>2011-12-11T10:28:28Z</time>
      </trkpt>
      <trkpt lat="47.01635" lon="-1.08106">
        <ele>80</ele>
        <time>2011-12-11T10:28:29Z</time>
      </trkpt>
      <trkpt lat="47.01635" lon="-1.08105">
        <ele>80</ele>
        <time>2011-12-11T10:28:30Z</time>
      </trkpt>
      <trkpt lat="47.01635" lon="-1.08103">
        <ele>80</ele>
        <time>2011-12-11T10:28:31Z</time>
      </trkpt>
      <trkpt lat="47.01635" lon="-1.08101">
        <ele>80</ele>
        <time>2011-12-11T10:28:32Z</time>
      </trkpt>
      <trkpt lat="47.01636" lon="-1.08099">
        <ele>80</ele>
        <time>2011-12-11T10:28:33Z</time>
      </trkpt>
      <trkpt lat="47.01636" lon="-1.08098">
        <ele>80</ele>
        <time>2011-12-11T10:28:34Z</time>
      </trkpt>
      <trkpt lat="47.01637" lon="-1.08096">
        <ele>80</ele>
        <time>2011-12-11T10:28:35Z</time>
      </trkpt>
      <trkpt lat="47.01637" lon="-1.08094">
        <ele>80</ele>
        <time>2011-12-11T10:28:36Z</time>
      </trkpt>
      <trkpt lat="47.01638" lon="-1.08092">
        <ele>80</ele>
        <time>2011-12-11T10:28:37Z</time>
      </trkpt>
      <trkpt lat="47.01638" lon="-1.0809">
        <ele>80</ele>
        <time>2011-12-11T10:28:39Z</time>
      </trkpt>
      <trkpt lat="47.01639" lon="-1.08088">
        <ele>80</ele>
        <time>2011-12-11T10:28:40Z</time>
      </trkpt>
      <trkpt lat="47.01639" lon="-1.08087">
        <ele>80</ele>
        <time>2011-12-11T10:28:41Z</time>
      </trkpt>
      <trkpt lat="47.0164" lon="-1.08085">
        <ele>80</ele>
        <time>2011-12-11T10:28:42Z</time>
      </trkpt>
      <trkpt lat="47.0164" lon="-1.08083">
        <ele>80</ele>
        <time>2011-12-11T10:28:43Z</time>
      </trkpt>
      <trkpt lat="47.0164" lon="-1.08081">
        <ele>80</ele>
        <time>2011-12-11T10:28:44Z</time>
      </trkpt>
      <trkpt lat="47.01641" lon="-1.0808">
        <ele>80</ele>
        <time>2011-12-11T10:28:45Z</time>
      </trkpt>
      <trkpt lat="47.01641" lon="-1.08078">
        <ele>80</ele>
        <time>2011-12-11T10:28:46Z</time>
      </trkpt>
      <trkpt lat="47.01641" lon="-1.08076">
        <ele>80</ele>
        <time>2011-12-11T10:28:47Z</time>
      </trkpt>
      <trkpt lat="47.01642" lon="-1.08074">
        <ele>80</ele>
        <time>2011-12-11T10:28:48Z</time>
      </trkpt>
      <trkpt lat="47.01642" lon="-1.08073">
        <ele>80</ele>
        <time>2011-12-11T10:28:49Z</time>
      </trkpt>
      <trkpt lat="47.01642" lon="-1.08071">
        <ele>80</ele>
        <time>2011-12-11T10:28:50Z</time>
      </trkpt>
      <trkpt lat="47.01643" lon="-1.0807">
        <ele>80</ele>
        <time>2011-12-11T10:28:51Z</time>
      </trkpt>
      <trkpt lat="47.01643" lon="-1.08068">
        <ele>80</ele>
        <time>2011-12-11T10:28:52Z</time>
      </trkpt>
      <trkpt lat="47.01644" lon="-1.08066">
        <ele>80</ele>
        <time>2011-12-11T10:28:53Z</time>
      </trkpt>
      <trkpt lat="47.01644" lon="-1.08064">
        <ele>80</ele>
        <time>2011-12-11T10:28:54Z</time>
      </trkpt>
      <trkpt lat="47.01645" lon="-1.08063">
        <ele>80</ele>
        <time>2011-12-11T10:28:55Z</time>
      </trkpt>
      <trkpt lat="47.01645" lon="-1.0806">
        <ele>80</ele>
        <time>2011-12-11T10:28:57Z</time>
      </trkpt>
      <trkpt lat="47.01646" lon="-1.08057">
        <ele>81</ele>
        <time>2011-12-11T10:28:59Z</time>
      </trkpt>
      <trkpt lat="47.01646" lon="-1.08055">
        <ele>81</ele>
        <time>2011-12-11T10:29:00Z</time>
      </trkpt>
      <trkpt lat="47.01647" lon="-1.08054">
        <ele>81</ele>
        <time>2011-12-11T10:29:01Z</time>
      </trkpt>
      <trkpt lat="47.01647" lon="-1.08052">
        <ele>81</ele>
        <time>2011-12-11T10:29:02Z</time>
      </trkpt>
      <trkpt lat="47.01648" lon="-1.0805">
        <ele>82</ele>
        <time>2011-12-11T10:29:03Z</time>
      </trkpt>
      <trkpt lat="47.01648" lon="-1.08048">
        <ele>82</ele>
        <time>2011-12-11T10:29:04Z</time>
      </trkpt>
      <trkpt lat="47.01649" lon="-1.08047">
        <ele>82</ele>
        <time>2011-12-11T10:29:05Z</time>
      </trkpt>
      <trkpt lat="47.01649" lon="-1.08045">
        <ele>82</ele>
        <time>2011-12-11T10:29:06Z</time>
      </trkpt>
      <trkpt lat="47.0165" lon="-1.08043">
        <ele>82</ele>
        <time>2011-12-11T10:29:07Z</time>
      </trkpt>
      <trkpt lat="47.01651" lon="-1.08042">
        <ele>82</ele>
        <time>2011-12-11T10:29:08Z</time>
      </trkpt>
      <trkpt lat="47.01651" lon="-1.0804">
        <ele>82</ele>
        <time>2011-12-11T10:29:09Z</time>
      </trkpt>
      <trkpt lat="47.01651" lon="-1.08038">
        <ele>82</ele>
        <time>2011-12-11T10:29:10Z</time>
      </trkpt>
      <trkpt lat="47.01652" lon="-1.08037">
        <ele>82</ele>
        <time>2011-12-11T10:29:11Z</time>
      </trkpt>
      <trkpt lat="47.01652" lon="-1.08035">
        <ele>83</ele>
        <time>2011-12-11T10:29:12Z</time>
      </trkpt>
      <trkpt lat="47.01653" lon="-1.08033">
        <ele>83</ele>
        <time>2011-12-11T10:29:13Z</time>
      </trkpt>
      <trkpt lat="47.01653" lon="-1.08031">
        <ele>83</ele>
        <time>2011-12-11T10:29:14Z</time>
      </trkpt>
      <trkpt lat="47.01654" lon="-1.08029">
        <ele>83</ele>
        <time>2011-12-11T10:29:15Z</time>
      </trkpt>
      <trkpt lat="47.01654" lon="-1.08028">
        <ele>83</ele>
        <time>2011-12-11T10:29:16Z</time>
      </trkpt>
      <trkpt lat="47.01654" lon="-1.08026">
        <ele>83</ele>
        <time>2011-12-11T10:29:17Z</time>
      </trkpt>
      <trkpt lat="47.01655" lon="-1.08024">
        <ele>83</ele>
        <time>2011-12-11T10:29:18Z</time>
      </trkpt>
      <trkpt lat="47.01655" lon="-1.08022">
        <ele>83</ele>
        <time>2011-12-11T10:29:19Z</time>
      </trkpt>
      <trkpt lat="47.01656" lon="-1.08021">
        <ele>83</ele>
        <time>2011-12-11T10:29:20Z</time>
      </trkpt>
      <trkpt lat="47.01656" lon="-1.08019">
        <ele>83</ele>
        <time>2011-12-11T10:29:21Z</time>
      </trkpt>
      <trkpt lat="47.01656" lon="-1.08016">
        <ele>84</ele>
        <time>2011-12-11T10:29:23Z</time>
      </trkpt>
      <trkpt lat="47.01657" lon="-1.08015">
        <ele>84</ele>
        <time>2011-12-11T10:29:24Z</time>
      </trkpt>
      <trkpt lat="47.01657" lon="-1.08013">
        <ele>84</ele>
        <time>2011-12-11T10:29:25Z</time>
      </trkpt>
      <trkpt lat="47.01658" lon="-1.08011">
        <ele>84</ele>
        <time>2011-12-11T10:29:26Z</time>
      </trkpt>
      <trkpt lat="47.01658" lon="-1.0801">
        <ele>84</ele>
        <time>2011-12-11T10:29:27Z</time>
      </trkpt>
      <trkpt lat="47.01658" lon="-1.08008">
        <ele>84</ele>
        <time>2011-12-11T10:29:28Z</time>
      </trkpt>
      <trkpt lat="47.01659" lon="-1.08006">
        <ele>84</ele>
        <time>2011-12-11T10:29:29Z</time>
      </trkpt>
      <trkpt lat="47.01659" lon="-1.08004">
        <ele>84</ele>
        <time>2011-12-11T10:29:30Z</time>
      </trkpt>
      <trkpt lat="47.01659" lon="-1.08002">
        <ele>84</ele>
        <time>2011-12-11T10:29:31Z</time>
      </trkpt>
      <trkpt lat="47.0166" lon="-1.08001">
        <ele>84</ele>
        <time>2011-12-11T10:29:32Z</time>
      </trkpt>
      <trkpt lat="47.0166" lon="-1.07999">
        <ele>84</ele>
        <time>2011-12-11T10:29:33Z</time>
      </trkpt>
      <trkpt lat="47.01661" lon="-1.07997">
        <ele>84</ele>
        <time>2011-12-11T10:29:34Z</time>
      </trkpt>
      <trkpt lat="47.01661" lon="-1.07996">
        <ele>84</ele>
        <time>2011-12-11T10:29:35Z</time>
      </trkpt>
      <trkpt lat="47.01662" lon="-1.07994">
        <ele>84</ele>
        <time>2011-12-11T10:29:36Z</time>
      </trkpt>
      <trkpt lat="47.01662" lon="-1.07992">
        <ele>84</ele>
        <time>2011-12-11T10:29:37Z</time>
      </trkpt>
      <trkpt lat="47.01662" lon="-1.07991">
        <ele>85</ele>
        <time>2011-12-11T10:29:38Z</time>
      </trkpt>
      <trkpt lat="47.01662" lon="-1.07989">
        <ele>85</ele>
        <time>2011-12-11T10:29:39Z</time>
      </trkpt>
      <trkpt lat="47.01663" lon="-1.07987">
        <ele>85</ele>
        <time>2011-12-11T10:29:40Z</time>
      </trkpt>
      <trkpt lat="47.01663" lon="-1.07985">
        <ele>85</ele>
        <time>2011-12-11T10:29:41Z</time>
      </trkpt>
      <trkpt lat="47.01664" lon="-1.07984">
        <ele>85</ele>
        <time>2011-12-11T10:29:42Z</time>
      </trkpt>
      <trkpt lat="47.01664" lon="-1.07982">
        <ele>85</ele>
        <time>2011-12-11T10:29:43Z</time>
      </trkpt>
      <trkpt lat="47.01664" lon="-1.0798">
        <ele>85</ele>
        <time>2011-12-11T10:29:44Z</time>
      </trkpt>
      <trkpt lat="47.01665" lon="-1.07978">
        <ele>85</ele>
        <time>2011-12-11T10:29:45Z</time>
      </trkpt>
      <trkpt lat="47.01665" lon="-1.07976">
        <ele>85</ele>
        <time>2011-12-11T10:29:46Z</time>
      </trkpt>
      <trkpt lat="47.01666" lon="-1.07975">
        <ele>85</ele>
        <time>2011-12-11T10:29:47Z</time>
      </trkpt>
      <trkpt lat="47.01666" lon="-1.07973">
        <ele>85</ele>
        <time>2011-12-11T10:29:48Z</time>
      </trkpt>
      <trkpt lat="47.01667" lon="-1.07971">
        <ele>85</ele>
        <time>2011-12-11T10:29:49Z</time>
      </trkpt>
      <trkpt lat="47.01667" lon="-1.07969">
        <ele>85</ele>
        <time>2011-12-11T10:29:50Z</time>
      </trkpt>
      <trkpt lat="47.01667" lon="-1.07967">
        <ele>85</ele>
        <time>2011-12-11T10:29:51Z</time>
      </trkpt>
      <trkpt lat="47.01668" lon="-1.07966">
        <ele>85</ele>
        <time>2011-12-11T10:29:52Z</time>
      </trkpt>
      <trkpt lat="47.01668" lon="-1.07964">
        <ele>86</ele>
        <time>2011-12-11T10:29:53Z</time>
      </trkpt>
      <trkpt lat="47.01669" lon="-1.07963">
        <ele>86</ele>
        <time>2011-12-11T10:29:54Z</time>
      </trkpt>
      <trkpt lat="47.01669" lon="-1.07961">
        <ele>86</ele>
        <time>2011-12-11T10:29:55Z</time>
      </trkpt>
      <trkpt lat="47.01669" lon="-1.07959">
        <ele>86</ele>
        <time>2011-12-11T10:29:56Z</time>
      </trkpt>
      <trkpt lat="47.0167" lon="-1.07958">
        <ele>86</ele>
        <time>2011-12-11T10:29:57Z</time>
      </trkpt>
      <trkpt lat="47.0167" lon="-1.07956">
        <ele>86</ele>
        <time>2011-12-11T10:29:58Z</time>
      </trkpt>
      <trkpt lat="47.01671" lon="-1.07955">
        <ele>86</ele>
        <time>2011-12-11T10:29:59Z</time>
      </trkpt>
      <trkpt lat="47.01671" lon="-1.07953">
        <ele>86</ele>
        <time>2011-12-11T10:30:00Z</time>
      </trkpt>
      <trkpt lat="47.01672" lon="-1.07951">
        <ele>86</ele>
        <time>2011-12-11T10:30:01Z</time>
      </trkpt>
      <trkpt lat="47.01672" lon="-1.07949">
        <ele>86</ele>
        <time>2011-12-11T10:30:02Z</time>
      </trkpt>
      <trkpt lat="47.01672" lon="-1.07948">
        <ele>86</ele>
        <time>2011-12-11T10:30:03Z</time>
      </trkpt>
      <trkpt lat="47.01673" lon="-1.07946">
        <ele>86</ele>
        <time>2011-12-11T10:30:04Z</time>
      </trkpt>
      <trkpt lat="47.01673" lon="-1.07945">
        <ele>87</ele>
        <time>2011-12-11T10:30:05Z</time>
      </trkpt>
      <trkpt lat="47.01674" lon="-1.07943">
        <ele>87</ele>
        <time>2011-12-11T10:30:06Z</time>
      </trkpt>
      <trkpt lat="47.01674" lon="-1.07941">
        <ele>87</ele>
        <time>2011-12-11T10:30:07Z</time>
      </trkpt>
      <trkpt lat="47.01674" lon="-1.07939">
        <ele>87</ele>
        <time>2011-12-11T10:30:08Z</time>
      </trkpt>
      <trkpt lat="47.01675" lon="-1.07938">
        <ele>87</ele>
        <time>2011-12-11T10:30:09Z</time>
      </trkpt>
      <trkpt lat="47.01675" lon="-1.07936">
        <ele>87</ele>
        <time>2011-12-11T10:30:10Z</time>
      </trkpt>
      <trkpt lat="47.01675" lon="-1.07933">
        <ele>87</ele>
        <time>2011-12-11T10:30:11Z</time>
      </trkpt>
      <trkpt lat="47.01676" lon="-1.07931">
        <ele>87</ele>
        <time>2011-12-11T10:30:12Z</time>
      </trkpt>
      <trkpt lat="47.01676" lon="-1.0793">
        <ele>87</ele>
        <time>2011-12-11T10:30:13Z</time>
      </trkpt>
      <trkpt lat="47.01676" lon="-1.07928">
        <ele>87</ele>
        <time>2011-12-11T10:30:14Z</time>
      </trkpt>
      <trkpt lat="47.01677" lon="-1.07926">
        <ele>87</ele>
        <time>2011-12-11T10:30:15Z</time>
      </trkpt>
      <trkpt lat="47.01677" lon="-1.07925">
        <ele>87</ele>
        <time>2011-12-11T10:30:16Z</time>
      </trkpt>
      <trkpt lat="47.01678" lon="-1.07922">
        <ele>87</ele>
        <time>2011-12-11T10:30:18Z</time>
      </trkpt>
      <trkpt lat="47.01678" lon="-1.0792">
        <ele>87</ele>
        <time>2011-12-11T10:30:19Z</time>
      </trkpt>
      <trkpt lat="47.01679" lon="-1.07919">
        <ele>87</ele>
        <time>2011-12-11T10:30:20Z</time>
      </trkpt>
      <trkpt lat="47.01679" lon="-1.07917">
        <ele>87</ele>
        <time>2011-12-11T10:30:21Z</time>
      </trkpt>
      <trkpt lat="47.01679" lon="-1.07915">
        <ele>87</ele>
        <time>2011-12-11T10:30:22Z</time>
      </trkpt>
      <trkpt lat="47.0168" lon="-1.07914">
        <ele>87</ele>
        <time>2011-12-11T10:30:23Z</time>
      </trkpt>
      <trkpt lat="47.0168" lon="-1.07912">
        <ele>87</ele>
        <time>2011-12-11T10:30:24Z</time>
      </trkpt>
      <trkpt lat="47.0168" lon="-1.0791">
        <ele>87</ele>
        <time>2011-12-11T10:30:25Z</time>
      </trkpt>
      <trkpt lat="47.01681" lon="-1.07908">
        <ele>87</ele>
        <time>2011-12-11T10:30:26Z</time>
      </trkpt>
      <trkpt lat="47.01681" lon="-1.07907">
        <ele>87</ele>
        <time>2011-12-11T10:30:27Z</time>
      </trkpt>
      <trkpt lat="47.01682" lon="-1.07905">
        <ele>87</ele>
        <time>2011-12-11T10:30:28Z</time>
      </trkpt>
      <trkpt lat="47.01682" lon="-1.07904">
        <ele>87</ele>
        <time>2011-12-11T10:30:29Z</time>
      </trkpt>
      <trkpt lat="47.01683" lon="-1.07902">
        <ele>87</ele>
        <time>2011-12-11T10:30:30Z</time>
      </trkpt>
      <trkpt lat="47.01683" lon="-1.079">
        <ele>87</ele>
        <time>2011-12-11T10:30:31Z</time>
      </trkpt>
      <trkpt lat="47.01683" lon="-1.07898">
        <ele>87</ele>
        <time>2011-12-11T10:30:32Z</time>
      </trkpt>
      <trkpt lat="47.01684" lon="-1.07896">
        <ele>87</ele>
        <time>2011-12-11T10:30:33Z</time>
      </trkpt>
      <trkpt lat="47.01684" lon="-1.07895">
        <ele>87</ele>
        <time>2011-12-11T10:30:34Z</time>
      </trkpt>
      <trkpt lat="47.01685" lon="-1.07893">
        <ele>87</ele>
        <time>2011-12-11T10:30:35Z</time>
      </trkpt>
      <trkpt lat="47.01685" lon="-1.07891">
        <ele>87</ele>
        <time>2011-12-11T10:30:36Z</time>
      </trkpt>
      <trkpt lat="47.01685" lon="-1.07889">
        <ele>87</ele>
        <time>2011-12-11T10:30:37Z</time>
      </trkpt>
      <trkpt lat="47.01686" lon="-1.07887">
        <ele>87</ele>
        <time>2011-12-11T10:30:38Z</time>
      </trkpt>
      <trkpt lat="47.01686" lon="-1.07886">
        <ele>87</ele>
        <time>2011-12-11T10:30:39Z</time>
      </trkpt>
      <trkpt lat="47.01687" lon="-1.07884">
        <ele>87</ele>
        <time>2011-12-11T10:30:40Z</time>
      </trkpt>
      <trkpt lat="47.01687" lon="-1.07882">
        <ele>87</ele>
        <time>2011-12-11T10:30:41Z</time>
      </trkpt>
      <trkpt lat="47.01688" lon="-1.0788">
        <ele>87</ele>
        <time>2011-12-11T10:30:42Z</time>
      </trkpt>
      <trkpt lat="47.01688" lon="-1.07879">
        <ele>87</ele>
        <time>2011-12-11T10:30:43Z</time>
      </trkpt>
      <trkpt lat="47.01688" lon="-1.07877">
        <ele>87</ele>
        <time>2011-12-11T10:30:44Z</time>
      </trkpt>
      <trkpt lat="47.01689" lon="-1.07875">
        <ele>87</ele>
        <time>2011-12-11T10:30:45Z</time>
      </trkpt>
      <trkpt lat="47.01689" lon="-1.07873">
        <ele>87</ele>
        <time>2011-12-11T10:30:46Z</time>
      </trkpt>
      <trkpt lat="47.01689" lon="-1.07871">
        <ele>87</ele>
        <time>2011-12-11T10:30:48Z</time>
      </trkpt>
      <trkpt lat="47.0169" lon="-1.07868">
        <ele>87</ele>
        <time>2011-12-11T10:30:50Z</time>
      </trkpt>
      <trkpt lat="47.0169" lon="-1.07867">
        <ele>87</ele>
        <time>2011-12-11T10:30:51Z</time>
      </trkpt>
      <trkpt lat="47.01691" lon="-1.07865">
        <ele>87</ele>
        <time>2011-12-11T10:30:52Z</time>
      </trkpt>
      <trkpt lat="47.01691" lon="-1.07863">
        <ele>87</ele>
        <time>2011-12-11T10:30:53Z</time>
      </trkpt>
      <trkpt lat="47.01691" lon="-1.07861">
        <ele>87</ele>
        <time>2011-12-11T10:30:54Z</time>
      </trkpt>
      <trkpt lat="47.01692" lon="-1.0786">
        <ele>87</ele>
        <time>2011-12-11T10:30:55Z</time>
      </trkpt>
      <trkpt lat="47.01692" lon="-1.07858">
        <ele>88</ele>
        <time>2011-12-11T10:30:56Z</time>
      </trkpt>
      <trkpt lat="47.01693" lon="-1.07856">
        <ele>88</ele>
        <time>2011-12-11T10:30:57Z</time>
      </trkpt>
      <trkpt lat="47.01693" lon="-1.07854">
        <ele>88</ele>
        <time>2011-12-11T10:30:58Z</time>
      </trkpt>
      <trkpt lat="47.01693" lon="-1.07852">
        <ele>88</ele>
        <time>2011-12-11T10:30:59Z</time>
      </trkpt>
      <trkpt lat="47.01694" lon="-1.07851">
        <ele>88</ele>
        <time>2011-12-11T10:31:00Z</time>
      </trkpt>
      <trkpt lat="47.01694" lon="-1.07849">
        <ele>88</ele>
        <time>2011-12-11T10:31:01Z</time>
      </trkpt>
      <trkpt lat="47.01695" lon="-1.07847">
        <ele>88</ele>
        <time>2011-12-11T10:31:02Z</time>
      </trkpt>
      <trkpt lat="47.01695" lon="-1.07845">
        <ele>88</ele>
        <time>2011-12-11T10:31:03Z</time>
      </trkpt>
      <trkpt lat="47.01696" lon="-1.07843">
        <ele>88</ele>
        <time>2011-12-11T10:31:04Z</time>
      </trkpt>
      <trkpt lat="47.01696" lon="-1.07842">
        <ele>88</ele>
        <time>2011-12-11T10:31:05Z</time>
      </trkpt>
      <trkpt lat="47.01697" lon="-1.0784">
        <ele>88</ele>
        <time>2011-12-11T10:31:06Z</time>
      </trkpt>
      <trkpt lat="47.01697" lon="-1.07839">
        <ele>88</ele>
        <time>2011-12-11T10:31:07Z</time>
      </trkpt>
      <trkpt lat="47.01698" lon="-1.07837">
        <ele>88</ele>
        <time>2011-12-11T10:31:08Z</time>
      </trkpt>
      <trkpt lat="47.01698" lon="-1.07835">
        <ele>88</ele>
        <time>2011-12-11T10:31:09Z</time>
      </trkpt>
      <trkpt lat="47.01699" lon="-1.07833">
        <ele>88</ele>
        <time>2011-12-11T10:31:10Z</time>
      </trkpt>
      <trkpt lat="47.01699" lon="-1.07832">
        <ele>88</ele>
        <time>2011-12-11T10:31:11Z</time>
      </trkpt>
      <trkpt lat="47.01699" lon="-1.0783">
        <ele>88</ele>
        <time>2011-12-11T10:31:12Z</time>
      </trkpt>
      <trkpt lat="47.017" lon="-1.07828">
        <ele>88</ele>
        <time>2011-12-11T10:31:13Z</time>
      </trkpt>
      <trkpt lat="47.017" lon="-1.07826">
        <ele>88</ele>
        <time>2011-12-11T10:31:14Z</time>
      </trkpt>
      <trkpt lat="47.017" lon="-1.07824">
        <ele>88</ele>
        <time>2011-12-11T10:31:15Z</time>
      </trkpt>
      <trkpt lat="47.01701" lon="-1.07823">
        <ele>88</ele>
        <time>2011-12-11T10:31:16Z</time>
      </trkpt>
      <trkpt lat="47.01701" lon="-1.07821">
        <ele>88</ele>
        <time>2011-12-11T10:31:17Z</time>
      </trkpt>
      <trkpt lat="47.01701" lon="-1.07819">
        <ele>88</ele>
        <time>2011-12-11T10:31:18Z</time>
      </trkpt>
      <trkpt lat="47.01702" lon="-1.07818">
        <ele>88</ele>
        <time>2011-12-11T10:31:19Z</time>
      </trkpt>
      <trkpt lat="47.01702" lon="-1.07816">
        <ele>88</ele>
        <time>2011-12-11T10:31:20Z</time>
      </trkpt>
      <trkpt lat="47.01703" lon="-1.07814">
        <ele>88</ele>
        <time>2011-12-11T10:31:21Z</time>
      </trkpt>
      <trkpt lat="47.01703" lon="-1.07812">
        <ele>88</ele>
        <time>2011-12-11T10:31:22Z</time>
      </trkpt>
      <trkpt lat="47.01704" lon="-1.07811">
        <ele>88</ele>
        <time>2011-12-11T10:31:23Z</time>
      </trkpt>
      <trkpt lat="47.01704" lon="-1.07809">
        <ele>88</ele>
        <time>2011-12-11T10:31:24Z</time>
      </trkpt>
      <trkpt lat="47.01704" lon="-1.07807">
        <ele>89</ele>
        <time>2011-12-11T10:31:25Z</time>
      </trkpt>
      <trkpt lat="47.01705" lon="-1.07806">
        <ele>89</ele>
        <time>2011-12-11T10:31:26Z</time>
      </trkpt>
      <trkpt lat="47.01706" lon="-1.07804">
        <ele>89</ele>
        <time>2011-12-11T10:31:27Z</time>
      </trkpt>
      <trkpt lat="47.01706" lon="-1.07802">
        <ele>89</ele>
        <time>2011-12-11T10:31:28Z</time>
      </trkpt>
      <trkpt lat="47.01706" lon="-1.078">
        <ele>89</ele>
        <time>2011-12-11T10:31:29Z</time>
      </trkpt>
      <trkpt lat="47.01707" lon="-1.07798">
        <ele>89</ele>
        <time>2011-12-11T10:31:30Z</time>
      </trkpt>
      <trkpt lat="47.01707" lon="-1.07796">
        <ele>89</ele>
        <time>2011-12-11T10:31:31Z</time>
      </trkpt>
      <trkpt lat="47.01707" lon="-1.07794">
        <ele>89</ele>
        <time>2011-12-11T10:31:32Z</time>
      </trkpt>
      <trkpt lat="47.01708" lon="-1.07793">
        <ele>89</ele>
        <time>2011-12-11T10:31:33Z</time>
      </trkpt>
      <trkpt lat="47.01708" lon="-1.07791">
        <ele>89</ele>
        <time>2011-12-11T10:31:34Z</time>
      </trkpt>
      <trkpt lat="47.01709" lon="-1.0779">
        <ele>89</ele>
        <time>2011-12-11T10:31:35Z</time>
      </trkpt>
      <trkpt lat="47.01709" lon="-1.07788">
        <ele>89</ele>
        <time>2011-12-11T10:31:36Z</time>
      </trkpt>
      <trkpt lat="47.01709" lon="-1.07786">
        <ele>89</ele>
        <time>2011-12-11T10:31:37Z</time>
      </trkpt>
      <trkpt lat="47.0171" lon="-1.07784">
        <ele>89</ele>
        <time>2011-12-11T10:31:38Z</time>
      </trkpt>
      <trkpt lat="47.0171" lon="-1.07783">
        <ele>89</ele>
        <time>2011-12-11T10:31:39Z</time>
      </trkpt>
      <trkpt lat="47.01711" lon="-1.07781">
        <ele>89</ele>
        <time>2011-12-11T10:31:40Z</time>
      </trkpt>
      <trkpt lat="47.01711" lon="-1.07779">
        <ele>89</ele>
        <time>2011-12-11T10:31:41Z</time>
      </trkpt>
      <trkpt lat="47.01711" lon="-1.07777">
        <ele>89</ele>
        <time>2011-12-11T10:31:42Z</time>
      </trkpt>
      <trkpt lat="47.01712" lon="-1.07775">
        <ele>89</ele>
        <time>2011-12-11T10:31:43Z</time>
      </trkpt>
      <trkpt lat="47.01712" lon="-1.07773">
        <ele>89</ele>
        <time>2011-12-11T10:31:44Z</time>
      </trkpt>
      <trkpt lat="47.01712" lon="-1.07772">
        <ele>89</ele>
        <time>2011-12-11T10:31:45Z</time>
      </trkpt>
      <trkpt lat="47.01713" lon="-1.07771">
        <ele>89</ele>
        <time>2011-12-11T10:31:46Z</time>
      </trkpt>
      <trkpt lat="47.01713" lon="-1.07769">
        <ele>89</ele>
        <time>2011-12-11T10:31:47Z</time>
      </trkpt>
      <trkpt lat="47.01713" lon="-1.07767">
        <ele>89</ele>
        <time>2011-12-11T10:31:48Z</time>
      </trkpt>
      <trkpt lat="47.01714" lon="-1.07765">
        <ele>89</ele>
        <time>2011-12-11T10:31:49Z</time>
      </trkpt>
      <trkpt lat="47.01714" lon="-1.07764">
        <ele>89</ele>
        <time>2011-12-11T10:31:50Z</time>
      </trkpt>
      <trkpt lat="47.01715" lon="-1.07762">
        <ele>89</ele>
        <time>2011-12-11T10:31:51Z</time>
      </trkpt>
      <trkpt lat="47.01715" lon="-1.0776">
        <ele>89</ele>
        <time>2011-12-11T10:31:52Z</time>
      </trkpt>
      <trkpt lat="47.01715" lon="-1.07758">
        <ele>89</ele>
        <time>2011-12-11T10:31:53Z</time>
      </trkpt>
      <trkpt lat="47.01716" lon="-1.07756">
        <ele>89</ele>
        <time>2011-12-11T10:31:54Z</time>
      </trkpt>
      <trkpt lat="47.01716" lon="-1.07755">
        <ele>89</ele>
        <time>2011-12-11T10:31:55Z</time>
      </trkpt>
      <trkpt lat="47.01717" lon="-1.07753">
        <ele>89</ele>
        <time>2011-12-11T10:31:56Z</time>
      </trkpt>
      <trkpt lat="47.01717" lon="-1.07751">
        <ele>89</ele>
        <time>2011-12-11T10:31:57Z</time>
      </trkpt>
      <trkpt lat="47.01717" lon="-1.07749">
        <ele>89</ele>
        <time>2011-12-11T10:31:58Z</time>
      </trkpt>
      <trkpt lat="47.01718" lon="-1.07747">
        <ele>89</ele>
        <time>2011-12-11T10:31:59Z</time>
      </trkpt>
      <trkpt lat="47.01718" lon="-1.07746">
        <ele>89</ele>
        <time>2011-12-11T10:32:00Z</time>
      </trkpt>
      <trkpt lat="47.01719" lon="-1.07744">
        <ele>89</ele>
        <time>2011-12-11T10:32:01Z</time>
      </trkpt>
      <trkpt lat="47.01719" lon="-1.07743">
        <ele>89</ele>
        <time>2011-12-11T10:32:02Z</time>
      </trkpt>
      <trkpt lat="47.01719" lon="-1.07741">
        <ele>89</ele>
        <time>2011-12-11T10:32:03Z</time>
      </trkpt>
      <trkpt lat="47.0172" lon="-1.07739">
        <ele>89</ele>
        <time>2011-12-11T10:32:04Z</time>
      </trkpt>
      <trkpt lat="47.0172" lon="-1.07738">
        <ele>89</ele>
        <time>2011-12-11T10:32:05Z</time>
      </trkpt>
      <trkpt lat="47.01721" lon="-1.07736">
        <ele>89</ele>
        <time>2011-12-11T10:32:06Z</time>
      </trkpt>
      <trkpt lat="47.01721" lon="-1.07734">
        <ele>89</ele>
        <time>2011-12-11T10:32:07Z</time>
      </trkpt>
      <trkpt lat="47.01722" lon="-1.07732">
        <ele>89</ele>
        <time>2011-12-11T10:32:08Z</time>
      </trkpt>
      <trkpt lat="47.01722" lon="-1.07731">
        <ele>89</ele>
        <time>2011-12-11T10:32:09Z</time>
      </trkpt>
      <trkpt lat="47.01722" lon="-1.07729">
        <ele>89</ele>
        <time>2011-12-11T10:32:10Z</time>
      </trkpt>
      <trkpt lat="47.01723" lon="-1.07727">
        <ele>89</ele>
        <time>2011-12-11T10:32:11Z</time>
      </trkpt>
      <trkpt lat="47.01723" lon="-1.07726">
        <ele>89</ele>
        <time>2011-12-11T10:32:12Z</time>
      </trkpt>
      <trkpt lat="47.01724" lon="-1.07724">
        <ele>89</ele>
        <time>2011-12-11T10:32:13Z</time>
      </trkpt>
      <trkpt lat="47.01724" lon="-1.07722">
        <ele>89</ele>
        <time>2011-12-11T10:32:14Z</time>
      </trkpt>
      <trkpt lat="47.01725" lon="-1.0772">
        <ele>89</ele>
        <time>2011-12-11T10:32:15Z</time>
      </trkpt>
      <trkpt lat="47.01725" lon="-1.07718">
        <ele>89</ele>
        <time>2011-12-11T10:32:16Z</time>
      </trkpt>
      <trkpt lat="47.01726" lon="-1.07717">
        <ele>89</ele>
        <time>2011-12-11T10:32:17Z</time>
      </trkpt>
      <trkpt lat="47.01726" lon="-1.07715">
        <ele>89</ele>
        <time>2011-12-11T10:32:18Z</time>
      </trkpt>
      <trkpt lat="47.01727" lon="-1.07713">
        <ele>89</ele>
        <time>2011-12-11T10:32:19Z</time>
      </trkpt>
      <trkpt lat="47.01727" lon="-1.07711">
        <ele>89</ele>
        <time>2011-12-11T10:32:20Z</time>
      </trkpt>
      <trkpt lat="47.01727" lon="-1.07709">
        <ele>89</ele>
        <time>2011-12-11T10:32:21Z</time>
      </trkpt>
      <trkpt lat="47.01728" lon="-1.07708">
        <ele>89</ele>
        <time>2011-12-11T10:32:22Z</time>
      </trkpt>
      <trkpt lat="47.01728" lon="-1.07706">
        <ele>89</ele>
        <time>2011-12-11T10:32:23Z</time>
      </trkpt>
      <trkpt lat="47.01729" lon="-1.07704">
        <ele>89</ele>
        <time>2011-12-11T10:32:24Z</time>
      </trkpt>
      <trkpt lat="47.01729" lon="-1.07702">
        <ele>89</ele>
        <time>2011-12-11T10:32:25Z</time>
      </trkpt>
      <trkpt lat="47.0173" lon="-1.07701">
        <ele>89</ele>
        <time>2011-12-11T10:32:26Z</time>
      </trkpt>
      <trkpt lat="47.0173" lon="-1.07699">
        <ele>89</ele>
        <time>2011-12-11T10:32:27Z</time>
      </trkpt>
      <trkpt lat="47.0173" lon="-1.07697">
        <ele>89</ele>
        <time>2011-12-11T10:32:28Z</time>
      </trkpt>
      <trkpt lat="47.01731" lon="-1.07695">
        <ele>89</ele>
        <time>2011-12-11T10:32:29Z</time>
      </trkpt>
      <trkpt lat="47.01732" lon="-1.07694">
        <ele>89</ele>
        <time>2011-12-11T10:32:30Z</time>
      </trkpt>
      <trkpt lat="47.01732" lon="-1.07692">
        <ele>89</ele>
        <time>2011-12-11T10:32:31Z</time>
      </trkpt>
      <trkpt lat="47.01733" lon="-1.0769">
        <ele>89</ele>
        <time>2011-12-11T10:32:32Z</time>
      </trkpt>
      <trkpt lat="47.01733" lon="-1.07688">
        <ele>89</ele>
        <time>2011-12-11T10:32:33Z</time>
      </trkpt>
      <trkpt lat="47.01734" lon="-1.07687">
        <ele>89</ele>
        <time>2011-12-11T10:32:34Z</time>
      </trkpt>
      <trkpt lat="47.01734" lon="-1.07685">
        <ele>89</ele>
        <time>2011-12-11T10:32:35Z</time>
      </trkpt>
      <trkpt lat="47.01735" lon="-1.07683">
        <ele>89</ele>
        <time>2011-12-11T10:32:36Z</time>
      </trkpt>
      <trkpt lat="47.01735" lon="-1.07681">
        <ele>89</ele>
        <time>2011-12-11T10:32:37Z</time>
      </trkpt>
      <trkpt lat="47.01736" lon="-1.07679">
        <ele>89</ele>
        <time>2011-12-11T10:32:38Z</time>
      </trkpt>
      <trkpt lat="47.01736" lon="-1.07678">
        <ele>89</ele>
        <time>2011-12-11T10:32:39Z</time>
      </trkpt>
      <trkpt lat="47.01736" lon="-1.07676">
        <ele>89</ele>
        <time>2011-12-11T10:32:40Z</time>
      </trkpt>
      <trkpt lat="47.01737" lon="-1.07674">
        <ele>89</ele>
        <time>2011-12-11T10:32:41Z</time>
      </trkpt>
      <trkpt lat="47.01737" lon="-1.07673">
        <ele>89</ele>
        <time>2011-12-11T10:32:42Z</time>
      </trkpt>
      <trkpt lat="47.01738" lon="-1.07671">
        <ele>89</ele>
        <time>2011-12-11T10:32:43Z</time>
      </trkpt>
      <trkpt lat="47.01738" lon="-1.07669">
        <ele>89</ele>
        <time>2011-12-11T10:32:44Z</time>
      </trkpt>
      <trkpt lat="47.01738" lon="-1.07668">
        <ele>89</ele>
        <time>2011-12-11T10:32:45Z</time>
      </trkpt>
      <trkpt lat="47.01739" lon="-1.07666">
        <ele>89</ele>
        <time>2011-12-11T10:32:46Z</time>
      </trkpt>
      <trkpt lat="47.01739" lon="-1.07664">
        <ele>89</ele>
        <time>2011-12-11T10:32:47Z</time>
      </trkpt>
      <trkpt lat="47.0174" lon="-1.07662">
        <ele>89</ele>
        <time>2011-12-11T10:32:48Z</time>
      </trkpt>
      <trkpt lat="47.0174" lon="-1.07661">
        <ele>89</ele>
        <time>2011-12-11T10:32:49Z</time>
      </trkpt>
      <trkpt lat="47.01741" lon="-1.07659">
        <ele>89</ele>
        <time>2011-12-11T10:32:50Z</time>
      </trkpt>
      <trkpt lat="47.01741" lon="-1.07657">
        <ele>89</ele>
        <time>2011-12-11T10:32:51Z</time>
      </trkpt>
      <trkpt lat="47.01742" lon="-1.07656">
        <ele>89</ele>
        <time>2011-12-11T10:32:52Z</time>
      </trkpt>
      <trkpt lat="47.01743" lon="-1.07654">
        <ele>89</ele>
        <time>2011-12-11T10:32:53Z</time>
      </trkpt>
      <trkpt lat="47.01743" lon="-1.07652">
        <ele>89</ele>
        <time>2011-12-11T10:32:54Z</time>
      </trkpt>
      <trkpt lat="47.01744" lon="-1.0765">
        <ele>89</ele>
        <time>2011-12-11T10:32:55Z</time>
      </trkpt>
      <trkpt lat="47.01744" lon="-1.07649">
        <ele>89</ele>
        <time>2011-12-11T10:32:56Z</time>
      </trkpt>
      <trkpt lat="47.01745" lon="-1.07647">
        <ele>89</ele>
        <time>2011-12-11T10:32:57Z</time>
      </trkpt>
      <trkpt lat="47.01746" lon="-1.07645">
        <ele>89</ele>
        <time>2011-12-11T10:32:58Z</time>
      </trkpt>
      <trkpt lat="47.01746" lon="-1.07643">
        <ele>89</ele>
        <time>2011-12-11T10:32:59Z</time>
      </trkpt>
      <trkpt lat="47.01747" lon="-1.07642">
        <ele>89</ele>
        <time>2011-12-11T10:33:00Z</time>
      </trkpt>
      <trkpt lat="47.01748" lon="-1.0764">
        <ele>89</ele>
        <time>2011-12-11T10:33:01Z</time>
      </trkpt>
      <trkpt lat="47.01748" lon="-1.07639">
        <ele>89</ele>
        <time>2011-12-11T10:33:02Z</time>
      </trkpt>
      <trkpt lat="47.01749" lon="-1.07637">
        <ele>89</ele>
        <time>2011-12-11T10:33:03Z</time>
      </trkpt>
      <trkpt lat="47.0175" lon="-1.07635">
        <ele>89</ele>
        <time>2011-12-11T10:33:04Z</time>
      </trkpt>
      <trkpt lat="47.0175" lon="-1.07633">
        <ele>89</ele>
        <time>2011-12-11T10:33:05Z</time>
      </trkpt>
      <trkpt lat="47.01751" lon="-1.07632">
        <ele>89</ele>
        <time>2011-12-11T10:33:06Z</time>
      </trkpt>
      <trkpt lat="47.01751" lon="-1.0763">
        <ele>89</ele>
        <time>2011-12-11T10:33:07Z</time>
      </trkpt>
      <trkpt lat="47.01752" lon="-1.07629">
        <ele>89</ele>
        <time>2011-12-11T10:33:08Z</time>
      </trkpt>
      <trkpt lat="47.01753" lon="-1.07627">
        <ele>89</ele>
        <time>2011-12-11T10:33:09Z</time>
      </trkpt>
      <trkpt lat="47.01753" lon="-1.07625">
        <ele>89</ele>
        <time>2011-12-11T10:33:10Z</time>
      </trkpt>
      <trkpt lat="47.01754" lon="-1.07623">
        <ele>89</ele>
        <time>2011-12-11T10:33:11Z</time>
      </trkpt>
      <trkpt lat="47.01754" lon="-1.07621">
        <ele>89</ele>
        <time>2011-12-11T10:33:12Z</time>
      </trkpt>
      <trkpt lat="47.01755" lon="-1.0762">
        <ele>89</ele>
        <time>2011-12-11T10:33:13Z</time>
      </trkpt>
      <trkpt lat="47.01756" lon="-1.07618">
        <ele>89</ele>
        <time>2011-12-11T10:33:14Z</time>
      </trkpt>
      <trkpt lat="47.01756" lon="-1.07616">
        <ele>89</ele>
        <time>2011-12-11T10:33:15Z</time>
      </trkpt>
      <trkpt lat="47.01757" lon="-1.07614">
        <ele>89</ele>
        <time>2011-12-11T10:33:16Z</time>
      </trkpt>
      <trkpt lat="47.01757" lon="-1.07612">
        <ele>90</ele>
        <time>2011-12-11T10:33:17Z</time>
      </trkpt>
      <trkpt lat="47.01758" lon="-1.0761">
        <ele>90</ele>
        <time>2011-12-11T10:33:18Z</time>
      </trkpt>
      <trkpt lat="47.01758" lon="-1.07608">
        <ele>90</ele>
        <time>2011-12-11T10:33:19Z</time>
      </trkpt>
      <trkpt lat="47.01759" lon="-1.07607">
        <ele>90</ele>
        <time>2011-12-11T10:33:20Z</time>
      </trkpt>
      <trkpt lat="47.01759" lon="-1.07605">
        <ele>90</ele>
        <time>2011-12-11T10:33:21Z</time>
      </trkpt>
      <trkpt lat="47.0176" lon="-1.07603">
        <ele>90</ele>
        <time>2011-12-11T10:33:22Z</time>
      </trkpt>
      <trkpt lat="47.0176" lon="-1.07601">
        <ele>90</ele>
        <time>2011-12-11T10:33:23Z</time>
      </trkpt>
      <trkpt lat="47.01761" lon="-1.076">
        <ele>90</ele>
        <time>2011-12-11T10:33:24Z</time>
      </trkpt>
      <trkpt lat="47.01762" lon="-1.07598">
        <ele>90</ele>
        <time>2011-12-11T10:33:25Z</time>
      </trkpt>
      <trkpt lat="47.01762" lon="-1.07596">
        <ele>91</ele>
        <time>2011-12-11T10:33:26Z</time>
      </trkpt>
      <trkpt lat="47.01763" lon="-1.07594">
        <ele>91</ele>
        <time>2011-12-11T10:33:27Z</time>
      </trkpt>
      <trkpt lat="47.01764" lon="-1.07592">
        <ele>91</ele>
        <time>2011-12-11T10:33:28Z</time>
      </trkpt>
      <trkpt lat="47.01764" lon="-1.0759">
        <ele>91</ele>
        <time>2011-12-11T10:33:29Z</time>
      </trkpt>
      <trkpt lat="47.01765" lon="-1.07588">
        <ele>91</ele>
        <time>2011-12-11T10:33:30Z</time>
      </trkpt>
      <trkpt lat="47.01765" lon="-1.07586">
        <ele>91</ele>
        <time>2011-12-11T10:33:31Z</time>
      </trkpt>
      <trkpt lat="47.01765" lon="-1.07584">
        <ele>91</ele>
        <time>2011-12-11T10:33:32Z</time>
      </trkpt>
      <trkpt lat="47.01766" lon="-1.07582">
        <ele>91</ele>
        <time>2011-12-11T10:33:33Z</time>
      </trkpt>
      <trkpt lat="47.01767" lon="-1.0758">
        <ele>91</ele>
        <time>2011-12-11T10:33:34Z</time>
      </trkpt>
      <trkpt lat="47.01767" lon="-1.07579">
        <ele>92</ele>
        <time>2011-12-11T10:33:35Z</time>
      </trkpt>
      <trkpt lat="47.01768" lon="-1.07577">
        <ele>92</ele>
        <time>2011-12-11T10:33:36Z</time>
      </trkpt>
      <trkpt lat="47.01768" lon="-1.07574">
        <ele>92</ele>
        <time>2011-12-11T10:33:37Z</time>
      </trkpt>
      <trkpt lat="47.01768" lon="-1.07573">
        <ele>92</ele>
        <time>2011-12-11T10:33:38Z</time>
      </trkpt>
      <trkpt lat="47.01769" lon="-1.07571">
        <ele>92</ele>
        <time>2011-12-11T10:33:39Z</time>
      </trkpt>
      <trkpt lat="47.01769" lon="-1.07569">
        <ele>92</ele>
        <time>2011-12-11T10:33:40Z</time>
      </trkpt>
      <trkpt lat="47.0177" lon="-1.07567">
        <ele>92</ele>
        <time>2011-12-11T10:33:41Z</time>
      </trkpt>
      <trkpt lat="47.0177" lon="-1.07565">
        <ele>92</ele>
        <time>2011-12-11T10:33:42Z</time>
      </trkpt>
      <trkpt lat="47.01771" lon="-1.07563">
        <ele>92</ele>
        <time>2011-12-11T10:33:43Z</time>
      </trkpt>
      <trkpt lat="47.01771" lon="-1.07561">
        <ele>92</ele>
        <time>2011-12-11T10:33:44Z</time>
      </trkpt>
      <trkpt lat="47.01772" lon="-1.07559">
        <ele>92</ele>
        <time>2011-12-11T10:33:45Z</time>
      </trkpt>
      <trkpt lat="47.01772" lon="-1.07557">
        <ele>92</ele>
        <time>2011-12-11T10:33:46Z</time>
      </trkpt>
      <trkpt lat="47.01773" lon="-1.07555">
        <ele>92</ele>
        <time>2011-12-11T10:33:47Z</time>
      </trkpt>
      <trkpt lat="47.01773" lon="-1.07553">
        <ele>92</ele>
        <time>2011-12-11T10:33:48Z</time>
      </trkpt>
      <trkpt lat="47.01774" lon="-1.07552">
        <ele>92</ele>
        <time>2011-12-11T10:33:49Z</time>
      </trkpt>
      <trkpt lat="47.01774" lon="-1.0755">
        <ele>92</ele>
        <time>2011-12-11T10:33:50Z</time>
      </trkpt>
      <trkpt lat="47.01775" lon="-1.07548">
        <ele>92</ele>
        <time>2011-12-11T10:33:51Z</time>
      </trkpt>
      <trkpt lat="47.01775" lon="-1.07546">
        <ele>92</ele>
        <time>2011-12-11T10:33:52Z</time>
      </trkpt>
      <trkpt lat="47.01775" lon="-1.07544">
        <ele>92</ele>
        <time>2011-12-11T10:33:53Z</time>
      </trkpt>
      <trkpt lat="47.01776" lon="-1.07543">
        <ele>92</ele>
        <time>2011-12-11T10:33:54Z</time>
      </trkpt>
      <trkpt lat="47.01776" lon="-1.07541">
        <ele>92</ele>
        <time>2011-12-11T10:33:55Z</time>
      </trkpt>
      <trkpt lat="47.01776" lon="-1.07539">
        <ele>92</ele>
        <time>2011-12-11T10:33:56Z</time>
      </trkpt>
      <trkpt lat="47.01777" lon="-1.07537">
        <ele>92</ele>
        <time>2011-12-11T10:33:57Z</time>
      </trkpt>
      <trkpt lat="47.01777" lon="-1.07535">
        <ele>92</ele>
        <time>2011-12-11T10:33:58Z</time>
      </trkpt>
      <trkpt lat="47.01777" lon="-1.07533">
        <ele>92</ele>
        <time>2011-12-11T10:33:59Z</time>
      </trkpt>
      <trkpt lat="47.01778" lon="-1.07531">
        <ele>92</ele>
        <time>2011-12-11T10:34:00Z</time>
      </trkpt>
      <trkpt lat="47.01778" lon="-1.07529">
        <ele>92</ele>
        <time>2011-12-11T10:34:01Z</time>
      </trkpt>
      <trkpt lat="47.01778" lon="-1.07527">
        <ele>92</ele>
        <time>2011-12-11T10:34:02Z</time>
      </trkpt>
      <trkpt lat="47.01779" lon="-1.07525">
        <ele>92</ele>
        <time>2011-12-11T10:34:03Z</time>
      </trkpt>
      <trkpt lat="47.01779" lon="-1.07523">
        <ele>92</ele>
        <time>2011-12-11T10:34:04Z</time>
      </trkpt>
      <trkpt lat="47.0178" lon="-1.07521">
        <ele>92</ele>
        <time>2011-12-11T10:34:05Z</time>
      </trkpt>
      <trkpt lat="47.0178" lon="-1.07519">
        <ele>92</ele>
        <time>2011-12-11T10:34:06Z</time>
      </trkpt>
      <trkpt lat="47.0178" lon="-1.07518">
        <ele>92</ele>
        <time>2011-12-11T10:34:07Z</time>
      </trkpt>
      <trkpt lat="47.0178" lon="-1.07516">
        <ele>92</ele>
        <time>2011-12-11T10:34:08Z</time>
      </trkpt>
      <trkpt lat="47.01781" lon="-1.07514">
        <ele>92</ele>
        <time>2011-12-11T10:34:09Z</time>
      </trkpt>
      <trkpt lat="47.01781" lon="-1.07512">
        <ele>92</ele>
        <time>2011-12-11T10:34:10Z</time>
      </trkpt>
      <trkpt lat="47.01781" lon="-1.0751">
        <ele>92</ele>
        <time>2011-12-11T10:34:11Z</time>
      </trkpt>
      <trkpt lat="47.01781" lon="-1.07509">
        <ele>92</ele>
        <time>2011-12-11T10:34:12Z</time>
      </trkpt>
      <trkpt lat="47.01781" lon="-1.07507">
        <ele>92</ele>
        <time>2011-12-11T10:34:13Z</time>
      </trkpt>
      <trkpt lat="47.01781" lon="-1.07505">
        <ele>92</ele>
        <time>2011-12-11T10:34:14Z</time>
      </trkpt>
      <trkpt lat="47.01781" lon="-1.07503">
        <ele>92</ele>
        <time>2011-12-11T10:34:15Z</time>
      </trkpt>
      <trkpt lat="47.01781" lon="-1.07501">
        <ele>92</ele>
        <time>2011-12-11T10:34:16Z</time>
      </trkpt>
      <trkpt lat="47.01782" lon="-1.07499">
        <ele>92</ele>
        <time>2011-12-11T10:34:17Z</time>
      </trkpt>
      <trkpt lat="47.01782" lon="-1.07497">
        <ele>92</ele>
        <time>2011-12-11T10:34:18Z</time>
      </trkpt>
      <trkpt lat="47.01782" lon="-1.07495">
        <ele>92</ele>
        <time>2011-12-11T10:34:19Z</time>
      </trkpt>
      <trkpt lat="47.01782" lon="-1.07493">
        <ele>92</ele>
        <time>2011-12-11T10:34:20Z</time>
      </trkpt>
      <trkpt lat="47.01782" lon="-1.07492">
        <ele>92</ele>
        <time>2011-12-11T10:34:21Z</time>
      </trkpt>
      <trkpt lat="47.01783" lon="-1.0749">
        <ele>92</ele>
        <time>2011-12-11T10:34:22Z</time>
      </trkpt>
      <trkpt lat="47.01783" lon="-1.07488">
        <ele>92</ele>
        <time>2011-12-11T10:34:23Z</time>
      </trkpt>
      <trkpt lat="47.01783" lon="-1.07486">
        <ele>92</ele>
        <time>2011-12-11T10:34:24Z</time>
      </trkpt>
      <trkpt lat="47.01783" lon="-1.07484">
        <ele>92</ele>
        <time>2011-12-11T10:34:25Z</time>
      </trkpt>
      <trkpt lat="47.01783" lon="-1.07483">
        <ele>92</ele>
        <time>2011-12-11T10:34:26Z</time>
      </trkpt>
      <trkpt lat="47.01783" lon="-1.07481">
        <ele>92</ele>
        <time>2011-12-11T10:34:27Z</time>
      </trkpt>
      <trkpt lat="47.01783" lon="-1.07479">
        <ele>92</ele>
        <time>2011-12-11T10:34:28Z</time>
      </trkpt>
      <trkpt lat="47.01783" lon="-1.07477">
        <ele>92</ele>
        <time>2011-12-11T10:34:29Z</time>
      </trkpt>
      <trkpt lat="47.01783" lon="-1.07475">
        <ele>92</ele>
        <time>2011-12-11T10:34:30Z</time>
      </trkpt>
      <trkpt lat="47.01783" lon="-1.07473">
        <ele>92</ele>
        <time>2011-12-11T10:34:31Z</time>
      </trkpt>
      <trkpt lat="47.01783" lon="-1.07471">
        <ele>92</ele>
        <time>2011-12-11T10:34:32Z</time>
      </trkpt>
      <trkpt lat="47.01784" lon="-1.07469">
        <ele>92</ele>
        <time>2011-12-11T10:34:33Z</time>
      </trkpt>
      <trkpt lat="47.01784" lon="-1.07467">
        <ele>92</ele>
        <time>2011-12-11T10:34:34Z</time>
      </trkpt>
      <trkpt lat="47.01784" lon="-1.07465">
        <ele>92</ele>
        <time>2011-12-11T10:34:35Z</time>
      </trkpt>
      <trkpt lat="47.01784" lon="-1.07463">
        <ele>92</ele>
        <time>2011-12-11T10:34:36Z</time>
      </trkpt>
      <trkpt lat="47.01784" lon="-1.07461">
        <ele>92</ele>
        <time>2011-12-11T10:34:37Z</time>
      </trkpt>
      <trkpt lat="47.01784" lon="-1.07459">
        <ele>92</ele>
        <time>2011-12-11T10:34:38Z</time>
      </trkpt>
      <trkpt lat="47.01784" lon="-1.07457">
        <ele>92</ele>
        <time>2011-12-11T10:34:39Z</time>
      </trkpt>
      <trkpt lat="47.01784" lon="-1.07455">
        <ele>92</ele>
        <time>2011-12-11T10:34:40Z</time>
      </trkpt>
      <trkpt lat="47.01784" lon="-1.07453">
        <ele>92</ele>
        <time>2011-12-11T10:34:41Z</time>
      </trkpt>
      <trkpt lat="47.01784" lon="-1.07451">
        <ele>92</ele>
        <time>2011-12-11T10:34:42Z</time>
      </trkpt>
      <trkpt lat="47.01784" lon="-1.0745">
        <ele>92</ele>
        <time>2011-12-11T10:34:43Z</time>
      </trkpt>
      <trkpt lat="47.01784" lon="-1.07448">
        <ele>92</ele>
        <time>2011-12-11T10:34:44Z</time>
      </trkpt>
      <trkpt lat="47.01784" lon="-1.07447">
        <ele>92</ele>
        <time>2011-12-11T10:34:45Z</time>
      </trkpt>
      <trkpt lat="47.01784" lon="-1.07445">
        <ele>92</ele>
        <time>2011-12-11T10:34:46Z</time>
      </trkpt>
      <trkpt lat="47.01784" lon="-1.07443">
        <ele>92</ele>
        <time>2011-12-11T10:34:47Z</time>
      </trkpt>
      <trkpt lat="47.01784" lon="-1.07441">
        <ele>92</ele>
        <time>2011-12-11T10:34:48Z</time>
      </trkpt>
      <trkpt lat="47.01784" lon="-1.07439">
        <ele>92</ele>
        <time>2011-12-11T10:34:49Z</time>
      </trkpt>
      <trkpt lat="47.01784" lon="-1.07438">
        <ele>92</ele>
        <time>2011-12-11T10:34:50Z</time>
      </trkpt>
      <trkpt lat="47.01784" lon="-1.07436">
        <ele>92</ele>
        <time>2011-12-11T10:34:51Z</time>
      </trkpt>
      <trkpt lat="47.01784" lon="-1.07434">
        <ele>92</ele>
        <time>2011-12-11T10:34:52Z</time>
      </trkpt>
      <trkpt lat="47.01784" lon="-1.07432">
        <ele>92</ele>
        <time>2011-12-11T10:34:53Z</time>
      </trkpt>
      <trkpt lat="47.01785" lon="-1.0743">
        <ele>92</ele>
        <time>2011-12-11T10:34:54Z</time>
      </trkpt>
      <trkpt lat="47.01785" lon="-1.07428">
        <ele>92</ele>
        <time>2011-12-11T10:34:55Z</time>
      </trkpt>
      <trkpt lat="47.01785" lon="-1.07426">
        <ele>92</ele>
        <time>2011-12-11T10:34:56Z</time>
      </trkpt>
      <trkpt lat="47.01785" lon="-1.07424">
        <ele>92</ele>
        <time>2011-12-11T10:34:57Z</time>
      </trkpt>
      <trkpt lat="47.01785" lon="-1.07422">
        <ele>92</ele>
        <time>2011-12-11T10:34:58Z</time>
      </trkpt>
      <trkpt lat="47.01785" lon="-1.0742">
        <ele>92</ele>
        <time>2011-12-11T10:34:59Z</time>
      </trkpt>
      <trkpt lat="47.01785" lon="-1.07419">
        <ele>92</ele>
        <time>2011-12-11T10:35:00Z</time>
      </trkpt>
      <trkpt lat="47.01786" lon="-1.07417">
        <ele>92</ele>
        <time>2011-12-11T10:35:01Z</time>
      </trkpt>
      <trkpt lat="47.01786" lon="-1.07415">
        <ele>92</ele>
        <time>2011-12-11T10:35:02Z</time>
      </trkpt>
      <trkpt lat="47.01786" lon="-1.07414">
        <ele>92</ele>
        <time>2011-12-11T10:35:03Z</time>
      </trkpt>
      <trkpt lat="47.01786" lon="-1.07412">
        <ele>92</ele>
        <time>2011-12-11T10:35:04Z</time>
      </trkpt>
      <trkpt lat="47.01786" lon="-1.0741">
        <ele>92</ele>
        <time>2011-12-11T10:35:05Z</time>
      </trkpt>
      <trkpt lat="47.01786" lon="-1.07408">
        <ele>92</ele>
        <time>2011-12-11T10:35:06Z</time>
      </trkpt>
      <trkpt lat="47.01786" lon="-1.07406">
        <ele>92</ele>
        <time>2011-12-11T10:35:07Z</time>
      </trkpt>
      <trkpt lat="47.01786" lon="-1.07404">
        <ele>92</ele>
        <time>2011-12-11T10:35:08Z</time>
      </trkpt>
      <trkpt lat="47.01787" lon="-1.07402">
        <ele>92</ele>
        <time>2011-12-11T10:35:09Z</time>
      </trkpt>
      <trkpt lat="47.01787" lon="-1.074">
        <ele>92</ele>
        <time>2011-12-11T10:35:10Z</time>
      </trkpt>
      <trkpt lat="47.01787" lon="-1.07398">
        <ele>92</ele>
        <time>2011-12-11T10:35:11Z</time>
      </trkpt>
      <trkpt lat="47.01787" lon="-1.07397">
        <ele>92</ele>
        <time>2011-12-11T10:35:12Z</time>
      </trkpt>
      <trkpt lat="47.01787" lon="-1.07395">
        <ele>92</ele>
        <time>2011-12-11T10:35:13Z</time>
      </trkpt>
      <trkpt lat="47.01787" lon="-1.07393">
        <ele>92</ele>
        <time>2011-12-11T10:35:14Z</time>
      </trkpt>
      <trkpt lat="47.01787" lon="-1.07391">
        <ele>92</ele>
        <time>2011-12-11T10:35:15Z</time>
      </trkpt>
      <trkpt lat="47.01787" lon="-1.07389">
        <ele>92</ele>
        <time>2011-12-11T10:35:16Z</time>
      </trkpt>
      <trkpt lat="47.01787" lon="-1.07387">
        <ele>92</ele>
        <time>2011-12-11T10:35:17Z</time>
      </trkpt>
      <trkpt lat="47.01787" lon="-1.07385">
        <ele>92</ele>
        <time>2011-12-11T10:35:18Z</time>
      </trkpt>
      <trkpt lat="47.01787" lon="-1.07383">
        <ele>92</ele>
        <time>2011-12-11T10:35:19Z</time>
      </trkpt>
      <trkpt lat="47.01787" lon="-1.07381">
        <ele>92</ele>
        <time>2011-12-11T10:35:20Z</time>
      </trkpt>
      <trkpt lat="47.01787" lon="-1.07379">
        <ele>92</ele>
        <time>2011-12-11T10:35:21Z</time>
      </trkpt>
      <trkpt lat="47.01787" lon="-1.07377">
        <ele>92</ele>
        <time>2011-12-11T10:35:22Z</time>
      </trkpt>
      <trkpt lat="47.01787" lon="-1.07376">
        <ele>92</ele>
        <time>2011-12-11T10:35:23Z</time>
      </trkpt>
      <trkpt lat="47.01787" lon="-1.07374">
        <ele>92</ele>
        <time>2011-12-11T10:35:24Z</time>
      </trkpt>
      <trkpt lat="47.01787" lon="-1.07372">
        <ele>92</ele>
        <time>2011-12-11T10:35:25Z</time>
      </trkpt>
      <trkpt lat="47.01787" lon="-1.0737">
        <ele>92</ele>
        <time>2011-12-11T10:35:26Z</time>
      </trkpt>
      <trkpt lat="47.01788" lon="-1.07368">
        <ele>92</ele>
        <time>2011-12-11T10:35:27Z</time>
      </trkpt>
      <trkpt lat="47.01788" lon="-1.07366">
        <ele>92</ele>
        <time>2011-12-11T10:35:28Z</time>
      </trkpt>
      <trkpt lat="47.01788" lon="-1.07364">
        <ele>92</ele>
        <time>2011-12-11T10:35:29Z</time>
      </trkpt>
      <trkpt lat="47.01788" lon="-1.07362">
        <ele>92</ele>
        <time>2011-12-11T10:35:30Z</time>
      </trkpt>
      <trkpt lat="47.01788" lon="-1.0736">
        <ele>92</ele>
        <time>2011-12-11T10:35:31Z</time>
      </trkpt>
      <trkpt lat="47.01788" lon="-1.07358">
        <ele>92</ele>
        <time>2011-12-11T10:35:32Z</time>
      </trkpt>
      <trkpt lat="47.01788" lon="-1.07356">
        <ele>92</ele>
        <time>2011-12-11T10:35:33Z</time>
      </trkpt>
      <trkpt lat="47.01788" lon="-1.07354">
        <ele>92</ele>
        <time>2011-12-11T10:35:34Z</time>
      </trkpt>
      <trkpt lat="47.01788" lon="-1.07352">
        <ele>92</ele>
        <time>2011-12-11T10:35:35Z</time>
      </trkpt>
      <trkpt lat="47.01788" lon="-1.0735">
        <ele>92</ele>
        <time>2011-12-11T10:35:36Z</time>
      </trkpt>
      <trkpt lat="47.01788" lon="-1.07349">
        <ele>92</ele>
        <time>2011-12-11T10:35:37Z</time>
      </trkpt>
      <trkpt lat="47.01788" lon="-1.07347">
        <ele>92</ele>
        <time>2011-12-11T10:35:38Z</time>
      </trkpt>
      <trkpt lat="47.01788" lon="-1.07345">
        <ele>92</ele>
        <time>2011-12-11T10:35:39Z</time>
      </trkpt>
      <trkpt lat="47.01788" lon="-1.07343">
        <ele>92</ele>
        <time>2011-12-11T10:35:40Z</time>
      </trkpt>
      <trkpt lat="47.01788" lon="-1.07341">
        <ele>92</ele>
        <time>2011-12-11T10:35:41Z</time>
      </trkpt>
      <trkpt lat="47.01788" lon="-1.0734">
        <ele>92</ele>
        <time>2011-12-11T10:35:42Z</time>
      </trkpt>
      <trkpt lat="47.01788" lon="-1.07338">
        <ele>92</ele>
        <time>2011-12-11T10:35:43Z</time>
      </trkpt>
      <trkpt lat="47.01788" lon="-1.07337">
        <ele>92</ele>
        <time>2011-12-11T10:35:44Z</time>
      </trkpt>
      <trkpt lat="47.0179" lon="-1.07329">
        <ele>92</ele>
        <time>2011-12-11T10:35:49Z</time>
      </trkpt>
      <trkpt lat="47.0179" lon="-1.07325">
        <ele>92</ele>
        <time>2011-12-11T10:35:50Z</time>
      </trkpt>
      <trkpt lat="47.0179" lon="-1.07321">
        <ele>92</ele>
        <time>2011-12-11T10:35:51Z</time>
      </trkpt>
      <trkpt lat="47.0179" lon="-1.07318">
        <ele>92</ele>
        <time>2011-12-11T10:35:53Z</time>
      </trkpt>
      <trkpt lat="47.0179" lon="-1.07316">
        <ele>92</ele>
        <time>2011-12-11T10:35:54Z</time>
      </trkpt>
      <trkpt lat="47.01789" lon="-1.07314">
        <ele>92</ele>
        <time>2011-12-11T10:35:55Z</time>
      </trkpt>
      <trkpt lat="47.0179" lon="-1.07311">
        <ele>92</ele>
        <time>2011-12-11T10:35:56Z</time>
      </trkpt>
      <trkpt lat="47.0179" lon="-1.07309">
        <ele>92</ele>
        <time>2011-12-11T10:35:57Z</time>
      </trkpt>
      <trkpt lat="47.0179" lon="-1.07307">
        <ele>92</ele>
        <time>2011-12-11T10:35:58Z</time>
      </trkpt>
      <trkpt lat="47.0179" lon="-1.07305">
        <ele>92</ele>
        <time>2011-12-11T10:35:59Z</time>
      </trkpt>
      <trkpt lat="47.0179" lon="-1.07303">
        <ele>92</ele>
        <time>2011-12-11T10:36:00Z</time>
      </trkpt>
      <trkpt lat="47.01791" lon="-1.07301">
        <ele>92</ele>
        <time>2011-12-11T10:36:01Z</time>
      </trkpt>
      <trkpt lat="47.01791" lon="-1.073">
        <ele>92</ele>
        <time>2011-12-11T10:36:02Z</time>
      </trkpt>
      <trkpt lat="47.01791" lon="-1.07298">
        <ele>92</ele>
        <time>2011-12-11T10:36:03Z</time>
      </trkpt>
      <trkpt lat="47.01791" lon="-1.07296">
        <ele>92</ele>
        <time>2011-12-11T10:36:04Z</time>
      </trkpt>
      <trkpt lat="47.01791" lon="-1.07294">
        <ele>92</ele>
        <time>2011-12-11T10:36:05Z</time>
      </trkpt>
      <trkpt lat="47.01791" lon="-1.07293">
        <ele>92</ele>
        <time>2011-12-11T10:36:06Z</time>
      </trkpt>
      <trkpt lat="47.01791" lon="-1.07291">
        <ele>92</ele>
        <time>2011-12-11T10:36:07Z</time>
      </trkpt>
      <trkpt lat="47.01791" lon="-1.07289">
        <ele>92</ele>
        <time>2011-12-11T10:36:08Z</time>
      </trkpt>
      <trkpt lat="47.01791" lon="-1.07287">
        <ele>92</ele>
        <time>2011-12-11T10:36:09Z</time>
      </trkpt>
      <trkpt lat="47.01791" lon="-1.07285">
        <ele>92</ele>
        <time>2011-12-11T10:36:10Z</time>
      </trkpt>
      <trkpt lat="47.01791" lon="-1.07283">
        <ele>92</ele>
        <time>2011-12-11T10:36:11Z</time>
      </trkpt>
      <trkpt lat="47.01791" lon="-1.07281">
        <ele>92</ele>
        <time>2011-12-11T10:36:12Z</time>
      </trkpt>
      <trkpt lat="47.01791" lon="-1.0728">
        <ele>92</ele>
        <time>2011-12-11T10:36:13Z</time>
      </trkpt>
      <trkpt lat="47.01791" lon="-1.07278">
        <ele>92</ele>
        <time>2011-12-11T10:36:14Z</time>
      </trkpt>
      <trkpt lat="47.01791" lon="-1.07276">
        <ele>92</ele>
        <time>2011-12-11T10:36:15Z</time>
      </trkpt>
      <trkpt lat="47.01791" lon="-1.07274">
        <ele>92</ele>
        <time>2011-12-11T10:36:16Z</time>
      </trkpt>
      <trkpt lat="47.01791" lon="-1.07272">
        <ele>92</ele>
        <time>2011-12-11T10:36:17Z</time>
      </trkpt>
      <trkpt lat="47.01791" lon="-1.0727">
        <ele>92</ele>
        <time>2011-12-11T10:36:18Z</time>
      </trkpt>
      <trkpt lat="47.01791" lon="-1.07269">
        <ele>92</ele>
        <time>2011-12-11T10:36:19Z</time>
      </trkpt>
      <trkpt lat="47.01791" lon="-1.07267">
        <ele>92</ele>
        <time>2011-12-11T10:36:20Z</time>
      </trkpt>
      <trkpt lat="47.01791" lon="-1.07265">
        <ele>92</ele>
        <time>2011-12-11T10:36:21Z</time>
      </trkpt>
      <trkpt lat="47.01791" lon="-1.07263">
        <ele>92</ele>
        <time>2011-12-11T10:36:22Z</time>
      </trkpt>
      <trkpt lat="47.01791" lon="-1.07261">
        <ele>92</ele>
        <time>2011-12-11T10:36:23Z</time>
      </trkpt>
      <trkpt lat="47.01791" lon="-1.07259">
        <ele>92</ele>
        <time>2011-12-11T10:36:24Z</time>
      </trkpt>
      <trkpt lat="47.01791" lon="-1.07257">
        <ele>92</ele>
        <time>2011-12-11T10:36:25Z</time>
      </trkpt>
      <trkpt lat="47.01791" lon="-1.07255">
        <ele>92</ele>
        <time>2011-12-11T10:36:26Z</time>
      </trkpt>
      <trkpt lat="47.01791" lon="-1.07253">
        <ele>92</ele>
        <time>2011-12-11T10:36:27Z</time>
      </trkpt>
      <trkpt lat="47.01791" lon="-1.07251">
        <ele>92</ele>
        <time>2011-12-11T10:36:28Z</time>
      </trkpt>
      <trkpt lat="47.01791" lon="-1.07249">
        <ele>92</ele>
        <time>2011-12-11T10:36:29Z</time>
      </trkpt>
      <trkpt lat="47.01791" lon="-1.07247">
        <ele>92</ele>
        <time>2011-12-11T10:36:30Z</time>
      </trkpt>
      <trkpt lat="47.01791" lon="-1.07246">
        <ele>92</ele>
        <time>2011-12-11T10:36:31Z</time>
      </trkpt>
      <trkpt lat="47.01791" lon="-1.07244">
        <ele>92</ele>
        <time>2011-12-11T10:36:32Z</time>
      </trkpt>
      <trkpt lat="47.01791" lon="-1.07242">
        <ele>92</ele>
        <time>2011-12-11T10:36:33Z</time>
      </trkpt>
      <trkpt lat="47.0179" lon="-1.0724">
        <ele>92</ele>
        <time>2011-12-11T10:36:34Z</time>
      </trkpt>
      <trkpt lat="47.0179" lon="-1.07238">
        <ele>92</ele>
        <time>2011-12-11T10:36:35Z</time>
      </trkpt>
      <trkpt lat="47.0179" lon="-1.07237">
        <ele>92</ele>
        <time>2011-12-11T10:36:36Z</time>
      </trkpt>
      <trkpt lat="47.0179" lon="-1.07235">
        <ele>92</ele>
        <time>2011-12-11T10:36:37Z</time>
      </trkpt>
      <trkpt lat="47.01789" lon="-1.07233">
        <ele>92</ele>
        <time>2011-12-11T10:36:39Z</time>
      </trkpt>
      <trkpt lat="47.01789" lon="-1.07232">
        <ele>92</ele>
        <time>2011-12-11T10:36:40Z</time>
      </trkpt>
      <trkpt lat="47.01789" lon="-1.0723">
        <ele>92</ele>
        <time>2011-12-11T10:36:42Z</time>
      </trkpt>
      <trkpt lat="47.01789" lon="-1.07229">
        <ele>92</ele>
        <time>2011-12-11T10:36:44Z</time>
      </trkpt>
      <trkpt lat="47.01791" lon="-1.07228">
        <ele>92</ele>
        <time>2011-12-11T10:36:46Z</time>
      </trkpt>
      <trkpt lat="47.01791" lon="-1.07225">
        <ele>92</ele>
        <time>2011-12-11T10:36:48Z</time>
      </trkpt>
      <trkpt lat="47.01791" lon="-1.07223">
        <ele>92</ele>
        <time>2011-12-11T10:36:49Z</time>
      </trkpt>
      <trkpt lat="47.01791" lon="-1.07221">
        <ele>92</ele>
        <time>2011-12-11T10:36:50Z</time>
      </trkpt>
      <trkpt lat="47.01791" lon="-1.07219">
        <ele>92</ele>
        <time>2011-12-11T10:36:51Z</time>
      </trkpt>
      <trkpt lat="47.0179" lon="-1.07218">
        <ele>92</ele>
        <time>2011-12-11T10:36:52Z</time>
      </trkpt>
      <trkpt lat="47.0179" lon="-1.07216">
        <ele>92</ele>
        <time>2011-12-11T10:36:53Z</time>
      </trkpt>
      <trkpt lat="47.01789" lon="-1.07214">
        <ele>92</ele>
        <time>2011-12-11T10:36:54Z</time>
      </trkpt>
      <trkpt lat="47.01789" lon="-1.07212">
        <ele>92</ele>
        <time>2011-12-11T10:36:55Z</time>
      </trkpt>
      <trkpt lat="47.01789" lon="-1.07211">
        <ele>92</ele>
        <time>2011-12-11T10:36:56Z</time>
      </trkpt>
      <trkpt lat="47.01789" lon="-1.07208">
        <ele>92</ele>
        <time>2011-12-11T10:36:57Z</time>
      </trkpt>
      <trkpt lat="47.01789" lon="-1.07206">
        <ele>92</ele>
        <time>2011-12-11T10:36:58Z</time>
      </trkpt>
      <trkpt lat="47.01789" lon="-1.07204">
        <ele>92</ele>
        <time>2011-12-11T10:36:59Z</time>
      </trkpt>
      <trkpt lat="47.01789" lon="-1.07202">
        <ele>92</ele>
        <time>2011-12-11T10:37:00Z</time>
      </trkpt>
      <trkpt lat="47.01789" lon="-1.07201">
        <ele>92</ele>
        <time>2011-12-11T10:37:01Z</time>
      </trkpt>
      <trkpt lat="47.01789" lon="-1.07199">
        <ele>92</ele>
        <time>2011-12-11T10:37:02Z</time>
      </trkpt>
      <trkpt lat="47.01789" lon="-1.07196">
        <ele>92</ele>
        <time>2011-12-11T10:37:03Z</time>
      </trkpt>
      <trkpt lat="47.01789" lon="-1.07194">
        <ele>92</ele>
        <time>2011-12-11T10:37:04Z</time>
      </trkpt>
      <trkpt lat="47.01789" lon="-1.07193">
        <ele>92</ele>
        <time>2011-12-11T10:37:05Z</time>
      </trkpt>
      <trkpt lat="47.01789" lon="-1.07191">
        <ele>92</ele>
        <time>2011-12-11T10:37:06Z</time>
      </trkpt>
      <trkpt lat="47.01789" lon="-1.07189">
        <ele>92</ele>
        <time>2011-12-11T10:37:07Z</time>
      </trkpt>
      <trkpt lat="47.01789" lon="-1.07187">
        <ele>92</ele>
        <time>2011-12-11T10:37:08Z</time>
      </trkpt>
      <trkpt lat="47.01789" lon="-1.07185">
        <ele>92</ele>
        <time>2011-12-11T10:37:09Z</time>
      </trkpt>
      <trkpt lat="47.01789" lon="-1.07183">
        <ele>92</ele>
        <time>2011-12-11T10:37:10Z</time>
      </trkpt>
      <trkpt lat="47.01789" lon="-1.07182">
        <ele>92</ele>
        <time>2011-12-11T10:37:11Z</time>
      </trkpt>
      <trkpt lat="47.01789" lon="-1.0718">
        <ele>92</ele>
        <time>2011-12-11T10:37:12Z</time>
      </trkpt>
      <trkpt lat="47.01789" lon="-1.07178">
        <ele>92</ele>
        <time>2011-12-11T10:37:13Z</time>
      </trkpt>
      <trkpt lat="47.01789" lon="-1.07176">
        <ele>92</ele>
        <time>2011-12-11T10:37:14Z</time>
      </trkpt>
      <trkpt lat="47.0179" lon="-1.07175">
        <ele>92</ele>
        <time>2011-12-11T10:37:15Z</time>
      </trkpt>
      <trkpt lat="47.01789" lon="-1.07173">
        <ele>92</ele>
        <time>2011-12-11T10:37:16Z</time>
      </trkpt>
      <trkpt lat="47.01789" lon="-1.07171">
        <ele>92</ele>
        <time>2011-12-11T10:37:17Z</time>
      </trkpt>
      <trkpt lat="47.01789" lon="-1.07169">
        <ele>92</ele>
        <time>2011-12-11T10:37:18Z</time>
      </trkpt>
      <trkpt lat="47.0179" lon="-1.07167">
        <ele>92</ele>
        <time>2011-12-11T10:37:19Z</time>
      </trkpt>
      <trkpt lat="47.0179" lon="-1.07165">
        <ele>92</ele>
        <time>2011-12-11T10:37:20Z</time>
      </trkpt>
      <trkpt lat="47.0179" lon="-1.07163">
        <ele>92</ele>
        <time>2011-12-11T10:37:21Z</time>
      </trkpt>
      <trkpt lat="47.0179" lon="-1.07161">
        <ele>92</ele>
        <time>2011-12-11T10:37:22Z</time>
      </trkpt>
      <trkpt lat="47.0179" lon="-1.0716">
        <ele>92</ele>
        <time>2011-12-11T10:37:23Z</time>
      </trkpt>
      <trkpt lat="47.0179" lon="-1.07158">
        <ele>92</ele>
        <time>2011-12-11T10:37:24Z</time>
      </trkpt>
      <trkpt lat="47.0179" lon="-1.07156">
        <ele>92</ele>
        <time>2011-12-11T10:37:25Z</time>
      </trkpt>
      <trkpt lat="47.0179" lon="-1.07154">
        <ele>92</ele>
        <time>2011-12-11T10:37:26Z</time>
      </trkpt>
      <trkpt lat="47.0179" lon="-1.07152">
        <ele>92</ele>
        <time>2011-12-11T10:37:27Z</time>
      </trkpt>
      <trkpt lat="47.0179" lon="-1.0715">
        <ele>92</ele>
        <time>2011-12-11T10:37:28Z</time>
      </trkpt>
      <trkpt lat="47.0179" lon="-1.07148">
        <ele>92</ele>
        <time>2011-12-11T10:37:29Z</time>
      </trkpt>
      <trkpt lat="47.0179" lon="-1.07146">
        <ele>92</ele>
        <time>2011-12-11T10:37:30Z</time>
      </trkpt>
      <trkpt lat="47.0179" lon="-1.07144">
        <ele>92</ele>
        <time>2011-12-11T10:37:31Z</time>
      </trkpt>
      <trkpt lat="47.0179" lon="-1.07142">
        <ele>92</ele>
        <time>2011-12-11T10:37:32Z</time>
      </trkpt>
      <trkpt lat="47.01791" lon="-1.0714">
        <ele>92</ele>
        <time>2011-12-11T10:37:33Z</time>
      </trkpt>
      <trkpt lat="47.01791" lon="-1.07138">
        <ele>92</ele>
        <time>2011-12-11T10:37:34Z</time>
      </trkpt>
      <trkpt lat="47.01791" lon="-1.07136">
        <ele>92</ele>
        <time>2011-12-11T10:37:35Z</time>
      </trkpt>
      <trkpt lat="47.01791" lon="-1.07134">
        <ele>92</ele>
        <time>2011-12-11T10:37:36Z</time>
      </trkpt>
      <trkpt lat="47.01791" lon="-1.07132">
        <ele>92</ele>
        <time>2011-12-11T10:37:37Z</time>
      </trkpt>
      <trkpt lat="47.01791" lon="-1.07131">
        <ele>92</ele>
        <time>2011-12-11T10:37:38Z</time>
      </trkpt>
      <trkpt lat="47.01791" lon="-1.07129">
        <ele>92</ele>
        <time>2011-12-11T10:37:39Z</time>
      </trkpt>
      <trkpt lat="47.01791" lon="-1.07127">
        <ele>92</ele>
        <time>2011-12-11T10:37:40Z</time>
      </trkpt>
      <trkpt lat="47.01791" lon="-1.07125">
        <ele>92</ele>
        <time>2011-12-11T10:37:41Z</time>
      </trkpt>
      <trkpt lat="47.01791" lon="-1.07123">
        <ele>92</ele>
        <time>2011-12-11T10:37:42Z</time>
      </trkpt>
      <trkpt lat="47.01791" lon="-1.07121">
        <ele>92</ele>
        <time>2011-12-11T10:37:43Z</time>
      </trkpt>
      <trkpt lat="47.01791" lon="-1.07119">
        <ele>92</ele>
        <time>2011-12-11T10:37:44Z</time>
      </trkpt>
      <trkpt lat="47.01791" lon="-1.07117">
        <ele>92</ele>
        <time>2011-12-11T10:37:45Z</time>
      </trkpt>
      <trkpt lat="47.01792" lon="-1.07115">
        <ele>92</ele>
        <time>2011-12-11T10:37:46Z</time>
      </trkpt>
      <trkpt lat="47.01792" lon="-1.07113">
        <ele>92</ele>
        <time>2011-12-11T10:37:47Z</time>
      </trkpt>
      <trkpt lat="47.01792" lon="-1.07111">
        <ele>92</ele>
        <time>2011-12-11T10:37:48Z</time>
      </trkpt>
      <trkpt lat="47.01792" lon="-1.07109">
        <ele>92</ele>
        <time>2011-12-11T10:37:49Z</time>
      </trkpt>
      <trkpt lat="47.01792" lon="-1.07107">
        <ele>92</ele>
        <time>2011-12-11T10:37:50Z</time>
      </trkpt>
      <trkpt lat="47.01792" lon="-1.07106">
        <ele>92</ele>
        <time>2011-12-11T10:37:51Z</time>
      </trkpt>
      <trkpt lat="47.01792" lon="-1.07104">
        <ele>92</ele>
        <time>2011-12-11T10:37:52Z</time>
      </trkpt>
      <trkpt lat="47.01792" lon="-1.07102">
        <ele>92</ele>
        <time>2011-12-11T10:37:53Z</time>
      </trkpt>
      <trkpt lat="47.01792" lon="-1.071">
        <ele>92</ele>
        <time>2011-12-11T10:37:54Z</time>
      </trkpt>
      <trkpt lat="47.01792" lon="-1.07098">
        <ele>92</ele>
        <time>2011-12-11T10:37:55Z</time>
      </trkpt>
      <trkpt lat="47.01793" lon="-1.07096">
        <ele>92</ele>
        <time>2011-12-11T10:37:56Z</time>
      </trkpt>
      <trkpt lat="47.01792" lon="-1.07094">
        <ele>92</ele>
        <time>2011-12-11T10:37:57Z</time>
      </trkpt>
      <trkpt lat="47.01792" lon="-1.07092">
        <ele>92</ele>
        <time>2011-12-11T10:37:58Z</time>
      </trkpt>
      <trkpt lat="47.01792" lon="-1.0709">
        <ele>92</ele>
        <time>2011-12-11T10:37:59Z</time>
      </trkpt>
      <trkpt lat="47.01792" lon="-1.07088">
        <ele>92</ele>
        <time>2011-12-11T10:38:00Z</time>
      </trkpt>
      <trkpt lat="47.01793" lon="-1.07086">
        <ele>92</ele>
        <time>2011-12-11T10:38:01Z</time>
      </trkpt>
      <trkpt lat="47.01793" lon="-1.07084">
        <ele>92</ele>
        <time>2011-12-11T10:38:02Z</time>
      </trkpt>
      <trkpt lat="47.01793" lon="-1.07082">
        <ele>92</ele>
        <time>2011-12-11T10:38:03Z</time>
      </trkpt>
      <trkpt lat="47.01793" lon="-1.0708">
        <ele>92</ele>
        <time>2011-12-11T10:38:04Z</time>
      </trkpt>
      <trkpt lat="47.01793" lon="-1.07078">
        <ele>92</ele>
        <time>2011-12-11T10:38:05Z</time>
      </trkpt>
      <trkpt lat="47.01793" lon="-1.07077">
        <ele>92</ele>
        <time>2011-12-11T10:38:06Z</time>
      </trkpt>
      <trkpt lat="47.01793" lon="-1.07075">
        <ele>92</ele>
        <time>2011-12-11T10:38:07Z</time>
      </trkpt>
      <trkpt lat="47.01793" lon="-1.07073">
        <ele>92</ele>
        <time>2011-12-11T10:38:08Z</time>
      </trkpt>
      <trkpt lat="47.01793" lon="-1.07071">
        <ele>92</ele>
        <time>2011-12-11T10:38:09Z</time>
      </trkpt>
      <trkpt lat="47.01794" lon="-1.07069">
        <ele>93</ele>
        <time>2011-12-11T10:38:10Z</time>
      </trkpt>
      <trkpt lat="47.01795" lon="-1.07067">
        <ele>93</ele>
        <time>2011-12-11T10:38:11Z</time>
      </trkpt>
      <trkpt lat="47.01795" lon="-1.07065">
        <ele>93</ele>
        <time>2011-12-11T10:38:12Z</time>
      </trkpt>
      <trkpt lat="47.01795" lon="-1.07063">
        <ele>93</ele>
        <time>2011-12-11T10:38:13Z</time>
      </trkpt>
      <trkpt lat="47.01796" lon="-1.07062">
        <ele>93</ele>
        <time>2011-12-11T10:38:14Z</time>
      </trkpt>
      <trkpt lat="47.01795" lon="-1.0706">
        <ele>93</ele>
        <time>2011-12-11T10:38:15Z</time>
      </trkpt>
      <trkpt lat="47.01795" lon="-1.07057">
        <ele>93</ele>
        <time>2011-12-11T10:38:17Z</time>
      </trkpt>
      <trkpt lat="47.01795" lon="-1.07055">
        <ele>94</ele>
        <time>2011-12-11T10:38:18Z</time>
      </trkpt>
      <trkpt lat="47.01795" lon="-1.07053">
        <ele>94</ele>
        <time>2011-12-11T10:38:19Z</time>
      </trkpt>
      <trkpt lat="47.01795" lon="-1.07051">
        <ele>94</ele>
        <time>2011-12-11T10:38:20Z</time>
      </trkpt>
      <trkpt lat="47.01795" lon="-1.07049">
        <ele>94</ele>
        <time>2011-12-11T10:38:21Z</time>
      </trkpt>
      <trkpt lat="47.01795" lon="-1.07047">
        <ele>94</ele>
        <time>2011-12-11T10:38:22Z</time>
      </trkpt>
      <trkpt lat="47.01795" lon="-1.07045">
        <ele>94</ele>
        <time>2011-12-11T10:38:23Z</time>
      </trkpt>
      <trkpt lat="47.01795" lon="-1.07044">
        <ele>94</ele>
        <time>2011-12-11T10:38:24Z</time>
      </trkpt>
      <trkpt lat="47.01795" lon="-1.07042">
        <ele>94</ele>
        <time>2011-12-11T10:38:25Z</time>
      </trkpt>
      <trkpt lat="47.01795" lon="-1.0704">
        <ele>94</ele>
        <time>2011-12-11T10:38:26Z</time>
      </trkpt>
      <trkpt lat="47.01795" lon="-1.07038">
        <ele>94</ele>
        <time>2011-12-11T10:38:27Z</time>
      </trkpt>
      <trkpt lat="47.01795" lon="-1.07036">
        <ele>94</ele>
        <time>2011-12-11T10:38:28Z</time>
      </trkpt>
      <trkpt lat="47.01795" lon="-1.07035">
        <ele>94</ele>
        <time>2011-12-11T10:38:29Z</time>
      </trkpt>
      <trkpt lat="47.01795" lon="-1.07033">
        <ele>94</ele>
        <time>2011-12-11T10:38:30Z</time>
      </trkpt>
      <trkpt lat="47.01795" lon="-1.0703">
        <ele>94</ele>
        <time>2011-12-11T10:38:31Z</time>
      </trkpt>
      <trkpt lat="47.01795" lon="-1.07029">
        <ele>94</ele>
        <time>2011-12-11T10:38:32Z</time>
      </trkpt>
      <trkpt lat="47.01795" lon="-1.07027">
        <ele>94</ele>
        <time>2011-12-11T10:38:33Z</time>
      </trkpt>
      <trkpt lat="47.01795" lon="-1.07025">
        <ele>94</ele>
        <time>2011-12-11T10:38:34Z</time>
      </trkpt>
      <trkpt lat="47.01795" lon="-1.07023">
        <ele>95</ele>
        <time>2011-12-11T10:38:35Z</time>
      </trkpt>
      <trkpt lat="47.01796" lon="-1.07021">
        <ele>95</ele>
        <time>2011-12-11T10:38:36Z</time>
      </trkpt>
      <trkpt lat="47.01796" lon="-1.07019">
        <ele>95</ele>
        <time>2011-12-11T10:38:37Z</time>
      </trkpt>
      <trkpt lat="47.01796" lon="-1.07018">
        <ele>95</ele>
        <time>2011-12-11T10:38:38Z</time>
      </trkpt>
      <trkpt lat="47.01796" lon="-1.07016">
        <ele>95</ele>
        <time>2011-12-11T10:38:39Z</time>
      </trkpt>
      <trkpt lat="47.01796" lon="-1.07014">
        <ele>95</ele>
        <time>2011-12-11T10:38:40Z</time>
      </trkpt>
      <trkpt lat="47.01796" lon="-1.07012">
        <ele>95</ele>
        <time>2011-12-11T10:38:41Z</time>
      </trkpt>
      <trkpt lat="47.01796" lon="-1.0701">
        <ele>95</ele>
        <time>2011-12-11T10:38:42Z</time>
      </trkpt>
      <trkpt lat="47.01796" lon="-1.07008">
        <ele>95</ele>
        <time>2011-12-11T10:38:43Z</time>
      </trkpt>
      <trkpt lat="47.01796" lon="-1.07006">
        <ele>95</ele>
        <time>2011-12-11T10:38:44Z</time>
      </trkpt>
      <trkpt lat="47.01796" lon="-1.07004">
        <ele>95</ele>
        <time>2011-12-11T10:38:45Z</time>
      </trkpt>
      <trkpt lat="47.01796" lon="-1.07003">
        <ele>95</ele>
        <time>2011-12-11T10:38:46Z</time>
      </trkpt>
      <trkpt lat="47.01796" lon="-1.07001">
        <ele>95</ele>
        <time>2011-12-11T10:38:47Z</time>
      </trkpt>
      <trkpt lat="47.01796" lon="-1.06999">
        <ele>95</ele>
        <time>2011-12-11T10:38:48Z</time>
      </trkpt>
      <trkpt lat="47.01796" lon="-1.06998">
        <ele>95</ele>
        <time>2011-12-11T10:38:49Z</time>
      </trkpt>
      <trkpt lat="47.01796" lon="-1.06995">
        <ele>95</ele>
        <time>2011-12-11T10:38:50Z</time>
      </trkpt>
      <trkpt lat="47.01796" lon="-1.06993">
        <ele>95</ele>
        <time>2011-12-11T10:38:51Z</time>
      </trkpt>
      <trkpt lat="47.01796" lon="-1.06992">
        <ele>95</ele>
        <time>2011-12-11T10:38:52Z</time>
      </trkpt>
      <trkpt lat="47.01796" lon="-1.0699">
        <ele>95</ele>
        <time>2011-12-11T10:38:53Z</time>
      </trkpt>
      <trkpt lat="47.01797" lon="-1.06988">
        <ele>95</ele>
        <time>2011-12-11T10:38:54Z</time>
      </trkpt>
      <trkpt lat="47.01797" lon="-1.06986">
        <ele>95</ele>
        <time>2011-12-11T10:38:55Z</time>
      </trkpt>
      <trkpt lat="47.01797" lon="-1.06984">
        <ele>95</ele>
        <time>2011-12-11T10:38:56Z</time>
      </trkpt>
      <trkpt lat="47.01797" lon="-1.06982">
        <ele>95</ele>
        <time>2011-12-11T10:38:57Z</time>
      </trkpt>
      <trkpt lat="47.01797" lon="-1.0698">
        <ele>95</ele>
        <time>2011-12-11T10:38:58Z</time>
      </trkpt>
      <trkpt lat="47.01797" lon="-1.06978">
        <ele>96</ele>
        <time>2011-12-11T10:38:59Z</time>
      </trkpt>
      <trkpt lat="47.01797" lon="-1.06976">
        <ele>96</ele>
        <time>2011-12-11T10:39:00Z</time>
      </trkpt>
      <trkpt lat="47.01796" lon="-1.06974">
        <ele>96</ele>
        <time>2011-12-11T10:39:01Z</time>
      </trkpt>
      <trkpt lat="47.01796" lon="-1.06972">
        <ele>96</ele>
        <time>2011-12-11T10:39:02Z</time>
      </trkpt>
      <trkpt lat="47.01796" lon="-1.0697">
        <ele>96</ele>
        <time>2011-12-11T10:39:03Z</time>
      </trkpt>
      <trkpt lat="47.01797" lon="-1.06968">
        <ele>96</ele>
        <time>2011-12-11T10:39:04Z</time>
      </trkpt>
      <trkpt lat="47.01797" lon="-1.06966">
        <ele>96</ele>
        <time>2011-12-11T10:39:05Z</time>
      </trkpt>
      <trkpt lat="47.01797" lon="-1.06965">
        <ele>96</ele>
        <time>2011-12-11T10:39:06Z</time>
      </trkpt>
      <trkpt lat="47.01797" lon="-1.06963">
        <ele>96</ele>
        <time>2011-12-11T10:39:07Z</time>
      </trkpt>
      <trkpt lat="47.01797" lon="-1.06961">
        <ele>96</ele>
        <time>2011-12-11T10:39:08Z</time>
      </trkpt>
      <trkpt lat="47.01797" lon="-1.06959">
        <ele>96</ele>
        <time>2011-12-11T10:39:09Z</time>
      </trkpt>
      <trkpt lat="47.01797" lon="-1.06957">
        <ele>96</ele>
        <time>2011-12-11T10:39:10Z</time>
      </trkpt>
      <trkpt lat="47.01797" lon="-1.06955">
        <ele>96</ele>
        <time>2011-12-11T10:39:11Z</time>
      </trkpt>
      <trkpt lat="47.01797" lon="-1.06953">
        <ele>96</ele>
        <time>2011-12-11T10:39:12Z</time>
      </trkpt>
      <trkpt lat="47.01797" lon="-1.06951">
        <ele>96</ele>
        <time>2011-12-11T10:39:13Z</time>
      </trkpt>
      <trkpt lat="47.01797" lon="-1.06949">
        <ele>96</ele>
        <time>2011-12-11T10:39:14Z</time>
      </trkpt>
      <trkpt lat="47.01798" lon="-1.06947">
        <ele>96</ele>
        <time>2011-12-11T10:39:15Z</time>
      </trkpt>
      <trkpt lat="47.01798" lon="-1.06945">
        <ele>96</ele>
        <time>2011-12-11T10:39:16Z</time>
      </trkpt>
      <trkpt lat="47.01799" lon="-1.06944">
        <ele>96</ele>
        <time>2011-12-11T10:39:17Z</time>
      </trkpt>
      <trkpt lat="47.01799" lon="-1.06942">
        <ele>96</ele>
        <time>2011-12-11T10:39:18Z</time>
      </trkpt>
      <trkpt lat="47.01799" lon="-1.0694">
        <ele>96</ele>
        <time>2011-12-11T10:39:19Z</time>
      </trkpt>
      <trkpt lat="47.018" lon="-1.06938">
        <ele>96</ele>
        <time>2011-12-11T10:39:20Z</time>
      </trkpt>
      <trkpt lat="47.018" lon="-1.06936">
        <ele>96</ele>
        <time>2011-12-11T10:39:21Z</time>
      </trkpt>
      <trkpt lat="47.018" lon="-1.06934">
        <ele>96</ele>
        <time>2011-12-11T10:39:22Z</time>
      </trkpt>
      <trkpt lat="47.01801" lon="-1.06933">
        <ele>96</ele>
        <time>2011-12-11T10:39:23Z</time>
      </trkpt>
      <trkpt lat="47.01801" lon="-1.06931">
        <ele>96</ele>
        <time>2011-12-11T10:39:24Z</time>
      </trkpt>
      <trkpt lat="47.01801" lon="-1.06929">
        <ele>96</ele>
        <time>2011-12-11T10:39:25Z</time>
      </trkpt>
      <trkpt lat="47.01801" lon="-1.06927">
        <ele>96</ele>
        <time>2011-12-11T10:39:26Z</time>
      </trkpt>
      <trkpt lat="47.01801" lon="-1.06925">
        <ele>96</ele>
        <time>2011-12-11T10:39:27Z</time>
      </trkpt>
      <trkpt lat="47.01801" lon="-1.06923">
        <ele>96</ele>
        <time>2011-12-11T10:39:28Z</time>
      </trkpt>
      <trkpt lat="47.01801" lon="-1.06921">
        <ele>96</ele>
        <time>2011-12-11T10:39:29Z</time>
      </trkpt>
      <trkpt lat="47.01801" lon="-1.06919">
        <ele>96</ele>
        <time>2011-12-11T10:39:30Z</time>
      </trkpt>
      <trkpt lat="47.01801" lon="-1.06917">
        <ele>96</ele>
        <time>2011-12-11T10:39:31Z</time>
      </trkpt>
      <trkpt lat="47.01801" lon="-1.06915">
        <ele>96</ele>
        <time>2011-12-11T10:39:32Z</time>
      </trkpt>
      <trkpt lat="47.01801" lon="-1.06914">
        <ele>96</ele>
        <time>2011-12-11T10:39:33Z</time>
      </trkpt>
      <trkpt lat="47.01801" lon="-1.06912">
        <ele>96</ele>
        <time>2011-12-11T10:39:34Z</time>
      </trkpt>
      <trkpt lat="47.01801" lon="-1.06911">
        <ele>96</ele>
        <time>2011-12-11T10:39:35Z</time>
      </trkpt>
      <trkpt lat="47.01801" lon="-1.06909">
        <ele>96</ele>
        <time>2011-12-11T10:39:36Z</time>
      </trkpt>
      <trkpt lat="47.01801" lon="-1.06907">
        <ele>96</ele>
        <time>2011-12-11T10:39:37Z</time>
      </trkpt>
      <trkpt lat="47.01801" lon="-1.06906">
        <ele>96</ele>
        <time>2011-12-11T10:39:38Z</time>
      </trkpt>
      <trkpt lat="47.01801" lon="-1.06904">
        <ele>96</ele>
        <time>2011-12-11T10:39:39Z</time>
      </trkpt>
      <trkpt lat="47.01801" lon="-1.06902">
        <ele>96</ele>
        <time>2011-12-11T10:39:40Z</time>
      </trkpt>
      <trkpt lat="47.01801" lon="-1.069">
        <ele>96</ele>
        <time>2011-12-11T10:39:41Z</time>
      </trkpt>
      <trkpt lat="47.01801" lon="-1.06898">
        <ele>96</ele>
        <time>2011-12-11T10:39:42Z</time>
      </trkpt>
      <trkpt lat="47.01801" lon="-1.06896">
        <ele>96</ele>
        <time>2011-12-11T10:39:43Z</time>
      </trkpt>
      <trkpt lat="47.01801" lon="-1.06895">
        <ele>96</ele>
        <time>2011-12-11T10:39:44Z</time>
      </trkpt>
      <trkpt lat="47.01801" lon="-1.06893">
        <ele>96</ele>
        <time>2011-12-11T10:39:45Z</time>
      </trkpt>
      <trkpt lat="47.01801" lon="-1.06891">
        <ele>96</ele>
        <time>2011-12-11T10:39:46Z</time>
      </trkpt>
      <trkpt lat="47.01801" lon="-1.0689">
        <ele>96</ele>
        <time>2011-12-11T10:39:47Z</time>
      </trkpt>
      <trkpt lat="47.01801" lon="-1.06888">
        <ele>96</ele>
        <time>2011-12-11T10:39:48Z</time>
      </trkpt>
      <trkpt lat="47.01801" lon="-1.06886">
        <ele>96</ele>
        <time>2011-12-11T10:39:49Z</time>
      </trkpt>
      <trkpt lat="47.01801" lon="-1.06884">
        <ele>96</ele>
        <time>2011-12-11T10:39:50Z</time>
      </trkpt>
      <trkpt lat="47.01802" lon="-1.06882">
        <ele>96</ele>
        <time>2011-12-11T10:39:51Z</time>
      </trkpt>
      <trkpt lat="47.01802" lon="-1.0688">
        <ele>96</ele>
        <time>2011-12-11T10:39:52Z</time>
      </trkpt>
      <trkpt lat="47.01802" lon="-1.06878">
        <ele>96</ele>
        <time>2011-12-11T10:39:53Z</time>
      </trkpt>
      <trkpt lat="47.01802" lon="-1.06876">
        <ele>96</ele>
        <time>2011-12-11T10:39:54Z</time>
      </trkpt>
      <trkpt lat="47.01802" lon="-1.06874">
        <ele>96</ele>
        <time>2011-12-11T10:39:55Z</time>
      </trkpt>
      <trkpt lat="47.01802" lon="-1.06872">
        <ele>96</ele>
        <time>2011-12-11T10:39:56Z</time>
      </trkpt>
      <trkpt lat="47.01802" lon="-1.0687">
        <ele>96</ele>
        <time>2011-12-11T10:39:57Z</time>
      </trkpt>
      <trkpt lat="47.01802" lon="-1.06869">
        <ele>96</ele>
        <time>2011-12-11T10:39:58Z</time>
      </trkpt>
      <trkpt lat="47.01802" lon="-1.06867">
        <ele>96</ele>
        <time>2011-12-11T10:39:59Z</time>
      </trkpt>
      <trkpt lat="47.01802" lon="-1.06865">
        <ele>96</ele>
        <time>2011-12-11T10:40:00Z</time>
      </trkpt>
      <trkpt lat="47.01802" lon="-1.06863">
        <ele>96</ele>
        <time>2011-12-11T10:40:01Z</time>
      </trkpt>
      <trkpt lat="47.01802" lon="-1.06861">
        <ele>96</ele>
        <time>2011-12-11T10:40:02Z</time>
      </trkpt>
      <trkpt lat="47.01802" lon="-1.06859">
        <ele>96</ele>
        <time>2011-12-11T10:40:03Z</time>
      </trkpt>
      <trkpt lat="47.01802" lon="-1.06858">
        <ele>96</ele>
        <time>2011-12-11T10:40:04Z</time>
      </trkpt>
      <trkpt lat="47.01802" lon="-1.06856">
        <ele>96</ele>
        <time>2011-12-11T10:40:05Z</time>
      </trkpt>
      <trkpt lat="47.01802" lon="-1.06854">
        <ele>96</ele>
        <time>2011-12-11T10:40:06Z</time>
      </trkpt>
      <trkpt lat="47.01802" lon="-1.06852">
        <ele>96</ele>
        <time>2011-12-11T10:40:07Z</time>
      </trkpt>
      <trkpt lat="47.01802" lon="-1.0685">
        <ele>96</ele>
        <time>2011-12-11T10:40:08Z</time>
      </trkpt>
      <trkpt lat="47.01802" lon="-1.06848">
        <ele>96</ele>
        <time>2011-12-11T10:40:09Z</time>
      </trkpt>
      <trkpt lat="47.01802" lon="-1.06846">
        <ele>96</ele>
        <time>2011-12-11T10:40:10Z</time>
      </trkpt>
      <trkpt lat="47.01802" lon="-1.06844">
        <ele>96</ele>
        <time>2011-12-11T10:40:11Z</time>
      </trkpt>
      <trkpt lat="47.01802" lon="-1.06843">
        <ele>96</ele>
        <time>2011-12-11T10:40:12Z</time>
      </trkpt>
      <trkpt lat="47.01802" lon="-1.06841">
        <ele>96</ele>
        <time>2011-12-11T10:40:13Z</time>
      </trkpt>
      <trkpt lat="47.01802" lon="-1.06839">
        <ele>96</ele>
        <time>2011-12-11T10:40:14Z</time>
      </trkpt>
      <trkpt lat="47.01801" lon="-1.06837">
        <ele>96</ele>
        <time>2011-12-11T10:40:15Z</time>
      </trkpt>
      <trkpt lat="47.01801" lon="-1.06835">
        <ele>96</ele>
        <time>2011-12-11T10:40:16Z</time>
      </trkpt>
      <trkpt lat="47.01801" lon="-1.06833">
        <ele>96</ele>
        <time>2011-12-11T10:40:17Z</time>
      </trkpt>
      <trkpt lat="47.01801" lon="-1.06831">
        <ele>96</ele>
        <time>2011-12-11T10:40:18Z</time>
      </trkpt>
      <trkpt lat="47.01801" lon="-1.06829">
        <ele>96</ele>
        <time>2011-12-11T10:40:19Z</time>
      </trkpt>
      <trkpt lat="47.01801" lon="-1.06827">
        <ele>96</ele>
        <time>2011-12-11T10:40:20Z</time>
      </trkpt>
      <trkpt lat="47.01801" lon="-1.06826">
        <ele>96</ele>
        <time>2011-12-11T10:40:21Z</time>
      </trkpt>
      <trkpt lat="47.01801" lon="-1.06824">
        <ele>96</ele>
        <time>2011-12-11T10:40:22Z</time>
      </trkpt>
      <trkpt lat="47.01802" lon="-1.06822">
        <ele>97</ele>
        <time>2011-12-11T10:40:23Z</time>
      </trkpt>
      <trkpt lat="47.01802" lon="-1.06821">
        <ele>97</ele>
        <time>2011-12-11T10:40:24Z</time>
      </trkpt>
      <trkpt lat="47.01803" lon="-1.06818">
        <ele>97</ele>
        <time>2011-12-11T10:40:26Z</time>
      </trkpt>
      <trkpt lat="47.01803" lon="-1.06816">
        <ele>97</ele>
        <time>2011-12-11T10:40:27Z</time>
      </trkpt>
      <trkpt lat="47.01803" lon="-1.06814">
        <ele>97</ele>
        <time>2011-12-11T10:40:28Z</time>
      </trkpt>
      <trkpt lat="47.01804" lon="-1.06813">
        <ele>97</ele>
        <time>2011-12-11T10:40:29Z</time>
      </trkpt>
      <trkpt lat="47.01804" lon="-1.06811">
        <ele>97</ele>
        <time>2011-12-11T10:40:30Z</time>
      </trkpt>
      <trkpt lat="47.01804" lon="-1.06809">
        <ele>98</ele>
        <time>2011-12-11T10:40:32Z</time>
      </trkpt>
      <trkpt lat="47.01804" lon="-1.06807">
        <ele>98</ele>
        <time>2011-12-11T10:40:33Z</time>
      </trkpt>
      <trkpt lat="47.01805" lon="-1.06805">
        <ele>98</ele>
        <time>2011-12-11T10:40:35Z</time>
      </trkpt>
      <trkpt lat="47.01806" lon="-1.06802">
        <ele>98</ele>
        <time>2011-12-11T10:40:37Z</time>
      </trkpt>
      <trkpt lat="47.01807" lon="-1.068">
        <ele>98</ele>
        <time>2011-12-11T10:40:38Z</time>
      </trkpt>
      <trkpt lat="47.01807" lon="-1.06798">
        <ele>98</ele>
        <time>2011-12-11T10:40:39Z</time>
      </trkpt>
      <trkpt lat="47.01807" lon="-1.06796">
        <ele>98</ele>
        <time>2011-12-11T10:40:40Z</time>
      </trkpt>
      <trkpt lat="47.01807" lon="-1.06794">
        <ele>98</ele>
        <time>2011-12-11T10:40:41Z</time>
      </trkpt>
      <trkpt lat="47.01807" lon="-1.06792">
        <ele>98</ele>
        <time>2011-12-11T10:40:42Z</time>
      </trkpt>
      <trkpt lat="47.01807" lon="-1.0679">
        <ele>98</ele>
        <time>2011-12-11T10:40:43Z</time>
      </trkpt>
      <trkpt lat="47.01807" lon="-1.06788">
        <ele>98</ele>
        <time>2011-12-11T10:40:44Z</time>
      </trkpt>
      <trkpt lat="47.01807" lon="-1.06786">
        <ele>98</ele>
        <time>2011-12-11T10:40:45Z</time>
      </trkpt>
      <trkpt lat="47.01807" lon="-1.06785">
        <ele>98</ele>
        <time>2011-12-11T10:40:46Z</time>
      </trkpt>
      <trkpt lat="47.01807" lon="-1.06783">
        <ele>98</ele>
        <time>2011-12-11T10:40:47Z</time>
      </trkpt>
      <trkpt lat="47.01808" lon="-1.06781">
        <ele>98</ele>
        <time>2011-12-11T10:40:48Z</time>
      </trkpt>
      <trkpt lat="47.01808" lon="-1.06779">
        <ele>98</ele>
        <time>2011-12-11T10:40:49Z</time>
      </trkpt>
      <trkpt lat="47.01808" lon="-1.06777">
        <ele>98</ele>
        <time>2011-12-11T10:40:50Z</time>
      </trkpt>
      <trkpt lat="47.01808" lon="-1.06775">
        <ele>98</ele>
        <time>2011-12-11T10:40:51Z</time>
      </trkpt>
      <trkpt lat="47.01808" lon="-1.06773">
        <ele>98</ele>
        <time>2011-12-11T10:40:52Z</time>
      </trkpt>
      <trkpt lat="47.01808" lon="-1.06772">
        <ele>98</ele>
        <time>2011-12-11T10:40:53Z</time>
      </trkpt>
      <trkpt lat="47.01808" lon="-1.0677">
        <ele>98</ele>
        <time>2011-12-11T10:40:54Z</time>
      </trkpt>
      <trkpt lat="47.01808" lon="-1.06768">
        <ele>98</ele>
        <time>2011-12-11T10:40:55Z</time>
      </trkpt>
      <trkpt lat="47.01808" lon="-1.06766">
        <ele>98</ele>
        <time>2011-12-11T10:40:56Z</time>
      </trkpt>
      <trkpt lat="47.01808" lon="-1.06764">
        <ele>98</ele>
        <time>2011-12-11T10:40:57Z</time>
      </trkpt>
      <trkpt lat="47.01808" lon="-1.06762">
        <ele>98</ele>
        <time>2011-12-11T10:40:58Z</time>
      </trkpt>
      <trkpt lat="47.01808" lon="-1.0676">
        <ele>98</ele>
        <time>2011-12-11T10:40:59Z</time>
      </trkpt>
      <trkpt lat="47.01808" lon="-1.06758">
        <ele>98</ele>
        <time>2011-12-11T10:41:00Z</time>
      </trkpt>
      <trkpt lat="47.01808" lon="-1.06756">
        <ele>98</ele>
        <time>2011-12-11T10:41:01Z</time>
      </trkpt>
      <trkpt lat="47.01808" lon="-1.06754">
        <ele>98</ele>
        <time>2011-12-11T10:41:02Z</time>
      </trkpt>
      <trkpt lat="47.01808" lon="-1.06752">
        <ele>98</ele>
        <time>2011-12-11T10:41:03Z</time>
      </trkpt>
      <trkpt lat="47.01807" lon="-1.0675">
        <ele>98</ele>
        <time>2011-12-11T10:41:04Z</time>
      </trkpt>
      <trkpt lat="47.01807" lon="-1.06748">
        <ele>98</ele>
        <time>2011-12-11T10:41:05Z</time>
      </trkpt>
      <trkpt lat="47.01807" lon="-1.06746">
        <ele>98</ele>
        <time>2011-12-11T10:41:06Z</time>
      </trkpt>
      <trkpt lat="47.01807" lon="-1.06744">
        <ele>98</ele>
        <time>2011-12-11T10:41:07Z</time>
      </trkpt>
      <trkpt lat="47.01807" lon="-1.06742">
        <ele>98</ele>
        <time>2011-12-11T10:41:08Z</time>
      </trkpt>
      <trkpt lat="47.01807" lon="-1.0674">
        <ele>98</ele>
        <time>2011-12-11T10:41:09Z</time>
      </trkpt>
      <trkpt lat="47.01807" lon="-1.06738">
        <ele>98</ele>
        <time>2011-12-11T10:41:10Z</time>
      </trkpt>
      <trkpt lat="47.01807" lon="-1.06737">
        <ele>98</ele>
        <time>2011-12-11T10:41:11Z</time>
      </trkpt>
      <trkpt lat="47.01807" lon="-1.06735">
        <ele>98</ele>
        <time>2011-12-11T10:41:12Z</time>
      </trkpt>
      <trkpt lat="47.01807" lon="-1.06733">
        <ele>98</ele>
        <time>2011-12-11T10:41:13Z</time>
      </trkpt>
      <trkpt lat="47.01807" lon="-1.06731">
        <ele>98</ele>
        <time>2011-12-11T10:41:14Z</time>
      </trkpt>
      <trkpt lat="47.01807" lon="-1.06729">
        <ele>98</ele>
        <time>2011-12-11T10:41:15Z</time>
      </trkpt>
      <trkpt lat="47.01807" lon="-1.06728">
        <ele>98</ele>
        <time>2011-12-11T10:41:16Z</time>
      </trkpt>
      <trkpt lat="47.01806" lon="-1.06726">
        <ele>99</ele>
        <time>2011-12-11T10:41:17Z</time>
      </trkpt>
      <trkpt lat="47.01806" lon="-1.06725">
        <ele>99</ele>
        <time>2011-12-11T10:41:18Z</time>
      </trkpt>
      <trkpt lat="47.01806" lon="-1.06723">
        <ele>99</ele>
        <time>2011-12-11T10:41:19Z</time>
      </trkpt>
      <trkpt lat="47.01806" lon="-1.06721">
        <ele>99</ele>
        <time>2011-12-11T10:41:20Z</time>
      </trkpt>
      <trkpt lat="47.01806" lon="-1.06719">
        <ele>99</ele>
        <time>2011-12-11T10:41:21Z</time>
      </trkpt>
      <trkpt lat="47.01805" lon="-1.06717">
        <ele>99</ele>
        <time>2011-12-11T10:41:22Z</time>
      </trkpt>
      <trkpt lat="47.01803" lon="-1.06716">
        <ele>99</ele>
        <time>2011-12-11T10:41:24Z</time>
      </trkpt>
      <trkpt lat="47.01802" lon="-1.06717">
        <ele>99</ele>
        <time>2011-12-11T10:41:25Z</time>
      </trkpt>
      <trkpt lat="47.01799" lon="-1.06717">
        <ele>99</ele>
        <time>2011-12-11T10:41:27Z</time>
      </trkpt>
      <trkpt lat="47.01798" lon="-1.06716">
        <ele>99</ele>
        <time>2011-12-11T10:41:28Z</time>
      </trkpt>
      <trkpt lat="47.01797" lon="-1.06717">
        <ele>99</ele>
        <time>2011-12-11T10:41:29Z</time>
      </trkpt>
      <trkpt lat="47.01796" lon="-1.06717">
        <ele>99</ele>
        <time>2011-12-11T10:41:30Z</time>
      </trkpt>
      <trkpt lat="47.01794" lon="-1.06717">
        <ele>99</ele>
        <time>2011-12-11T10:41:31Z</time>
      </trkpt>
      <trkpt lat="47.01793" lon="-1.06717">
        <ele>99</ele>
        <time>2011-12-11T10:41:32Z</time>
      </trkpt>
      <trkpt lat="47.01792" lon="-1.06717">
        <ele>99</ele>
        <time>2011-12-11T10:41:33Z</time>
      </trkpt>
      <trkpt lat="47.01791" lon="-1.06717">
        <ele>99</ele>
        <time>2011-12-11T10:41:34Z</time>
      </trkpt>
      <trkpt lat="47.0179" lon="-1.06717">
        <ele>99</ele>
        <time>2011-12-11T10:41:35Z</time>
      </trkpt>
      <trkpt lat="47.01788" lon="-1.06717">
        <ele>99</ele>
        <time>2011-12-11T10:41:36Z</time>
      </trkpt>
      <trkpt lat="47.01787" lon="-1.06718">
        <ele>99</ele>
        <time>2011-12-11T10:41:37Z</time>
      </trkpt>
      <trkpt lat="47.01786" lon="-1.06718">
        <ele>99</ele>
        <time>2011-12-11T10:41:38Z</time>
      </trkpt>
      <trkpt lat="47.01785" lon="-1.06718">
        <ele>99</ele>
        <time>2011-12-11T10:41:39Z</time>
      </trkpt>
      <trkpt lat="47.01784" lon="-1.06718">
        <ele>99</ele>
        <time>2011-12-11T10:41:40Z</time>
      </trkpt>
      <trkpt lat="47.01783" lon="-1.06718">
        <ele>99</ele>
        <time>2011-12-11T10:41:41Z</time>
      </trkpt>
      <trkpt lat="47.01781" lon="-1.06718">
        <ele>99</ele>
        <time>2011-12-11T10:41:42Z</time>
      </trkpt>
      <trkpt lat="47.0178" lon="-1.06718">
        <ele>99</ele>
        <time>2011-12-11T10:41:43Z</time>
      </trkpt>
      <trkpt lat="47.01779" lon="-1.06718">
        <ele>99</ele>
        <time>2011-12-11T10:41:44Z</time>
      </trkpt>
      <trkpt lat="47.01778" lon="-1.06718">
        <ele>99</ele>
        <time>2011-12-11T10:41:45Z</time>
      </trkpt>
      <trkpt lat="47.01777" lon="-1.06718">
        <ele>99</ele>
        <time>2011-12-11T10:41:46Z</time>
      </trkpt>
      <trkpt lat="47.01775" lon="-1.06718">
        <ele>99</ele>
        <time>2011-12-11T10:41:47Z</time>
      </trkpt>
      <trkpt lat="47.01774" lon="-1.06718">
        <ele>99</ele>
        <time>2011-12-11T10:41:48Z</time>
      </trkpt>
      <trkpt lat="47.01773" lon="-1.06718">
        <ele>99</ele>
        <time>2011-12-11T10:41:49Z</time>
      </trkpt>
      <trkpt lat="47.01772" lon="-1.06718">
        <ele>99</ele>
        <time>2011-12-11T10:41:50Z</time>
      </trkpt>
      <trkpt lat="47.0177" lon="-1.06718">
        <ele>99</ele>
        <time>2011-12-11T10:41:51Z</time>
      </trkpt>
      <trkpt lat="47.01769" lon="-1.06718">
        <ele>99</ele>
        <time>2011-12-11T10:41:52Z</time>
      </trkpt>
      <trkpt lat="47.01767" lon="-1.06718">
        <ele>99</ele>
        <time>2011-12-11T10:41:53Z</time>
      </trkpt>
      <trkpt lat="47.01766" lon="-1.06718">
        <ele>99</ele>
        <time>2011-12-11T10:41:54Z</time>
      </trkpt>
      <trkpt lat="47.01765" lon="-1.06717">
        <ele>99</ele>
        <time>2011-12-11T10:41:55Z</time>
      </trkpt>
      <trkpt lat="47.01764" lon="-1.06717">
        <ele>99</ele>
        <time>2011-12-11T10:41:56Z</time>
      </trkpt>
      <trkpt lat="47.01762" lon="-1.06717">
        <ele>99</ele>
        <time>2011-12-11T10:41:57Z</time>
      </trkpt>
      <trkpt lat="47.01761" lon="-1.06716">
        <ele>99</ele>
        <time>2011-12-11T10:41:58Z</time>
      </trkpt>
      <trkpt lat="47.0176" lon="-1.06716">
        <ele>99</ele>
        <time>2011-12-11T10:41:59Z</time>
      </trkpt>
      <trkpt lat="47.01758" lon="-1.06716">
        <ele>99</ele>
        <time>2011-12-11T10:42:01Z</time>
      </trkpt>
      <trkpt lat="47.01756" lon="-1.06716">
        <ele>100</ele>
        <time>2011-12-11T10:42:03Z</time>
      </trkpt>
      <trkpt lat="47.01754" lon="-1.06716">
        <ele>100</ele>
        <time>2011-12-11T10:42:05Z</time>
      </trkpt>
      <trkpt lat="47.01751" lon="-1.06715">
        <ele>100</ele>
        <time>2011-12-11T10:42:07Z</time>
      </trkpt>
      <trkpt lat="47.01749" lon="-1.06714">
        <ele>100</ele>
        <time>2011-12-11T10:42:09Z</time>
      </trkpt>
      <trkpt lat="47.01746" lon="-1.06714">
        <ele>100</ele>
        <time>2011-12-11T10:42:11Z</time>
      </trkpt>
      <trkpt lat="47.01745" lon="-1.06713">
        <ele>100</ele>
        <time>2011-12-11T10:42:12Z</time>
      </trkpt>
      <trkpt lat="47.01743" lon="-1.06712">
        <ele>100</ele>
        <time>2011-12-11T10:42:14Z</time>
      </trkpt>
      <trkpt lat="47.01741" lon="-1.06712">
        <ele>100</ele>
        <time>2011-12-11T10:42:15Z</time>
      </trkpt>
      <trkpt lat="47.0174" lon="-1.06712">
        <ele>100</ele>
        <time>2011-12-11T10:42:16Z</time>
      </trkpt>
      <trkpt lat="47.01738" lon="-1.06713">
        <ele>100</ele>
        <time>2011-12-11T10:42:18Z</time>
      </trkpt>
      <trkpt lat="47.01736" lon="-1.06712">
        <ele>100</ele>
        <time>2011-12-11T10:42:20Z</time>
      </trkpt>
      <trkpt lat="47.01735" lon="-1.06712">
        <ele>100</ele>
        <time>2011-12-11T10:42:22Z</time>
      </trkpt>
      <trkpt lat="47.01733" lon="-1.06712">
        <ele>100</ele>
        <time>2011-12-11T10:42:23Z</time>
      </trkpt>
      <trkpt lat="47.01733" lon="-1.06711">
        <ele>100</ele>
        <time>2011-12-11T10:42:24Z</time>
      </trkpt>
    </trkseg>
  </trk>
</gpx>